<?xml version="1.0" encoding="UTF-8" standalone="no" ?>
<gpx xmlns="http://www.topografix.com/GPX/1/1" xmlns:xsi="http://www.w3.org/2001/XMLSchema-instance" xsi:schemaLocation="http://www.topografix.com/GPX/1/1 http://www.topografix.com/GPX/1/1/gpx.xsd" version="1.1" creator="VisuGPX - https://www.visugpx.com">
  <metadata>
    <name>Ecluzelles - J2</name>
  </metadata>
  <trk>
    <name><![CDATA[Écluzelles Cyclisme sur route]]></name>
    <trkseg>
      <trkpt lat="48.70852" lon="1.4249">
        <ele>83</ele>
        <time>2026-06-16T06:29:55.000Z</time>
      </trkpt>
      <trkpt lat="48.70852" lon="1.42485">
        <ele>83.599998474121</ele>
        <time>2026-06-16T06:30:30.000Z</time>
      </trkpt>
      <trkpt lat="48.70853" lon="1.42487">
        <ele>83.599998474121</ele>
        <time>2026-06-16T06:30:37.000Z</time>
      </trkpt>
      <trkpt lat="48.70855" lon="1.42489">
        <ele>83.599998474121</ele>
        <time>2026-06-16T06:30:52.000Z</time>
      </trkpt>
      <trkpt lat="48.70857" lon="1.42492">
        <ele>83.599998474121</ele>
        <time>2026-06-16T06:30:55.000Z</time>
      </trkpt>
      <trkpt lat="48.7086" lon="1.42495">
        <ele>84</ele>
        <time>2026-06-16T06:31:31.000Z</time>
      </trkpt>
      <trkpt lat="48.70864" lon="1.42504">
        <ele>84</ele>
        <time>2026-06-16T06:32:13.000Z</time>
      </trkpt>
      <trkpt lat="48.70866" lon="1.4251">
        <ele>84.199996948242</ele>
        <time>2026-06-16T06:32:20.000Z</time>
      </trkpt>
      <trkpt lat="48.70866" lon="1.42511">
        <ele>84</ele>
        <time>2026-06-16T06:32:30.000Z</time>
      </trkpt>
      <trkpt lat="48.70865" lon="1.4251">
        <ele>84</ele>
        <time>2026-06-16T06:32:38.000Z</time>
      </trkpt>
      <trkpt lat="48.7086" lon="1.42514">
        <ele>84</ele>
        <time>2026-06-16T06:33:13.000Z</time>
      </trkpt>
      <trkpt lat="48.70862" lon="1.42518">
        <ele>84</ele>
        <time>2026-06-16T06:33:16.000Z</time>
      </trkpt>
      <trkpt lat="48.70871" lon="1.42533">
        <ele>84</ele>
        <time>2026-06-16T06:33:21.000Z</time>
      </trkpt>
      <trkpt lat="48.70888" lon="1.42552">
        <ele>84.199996948242</ele>
        <time>2026-06-16T06:33:27.000Z</time>
      </trkpt>
      <trkpt lat="48.70899" lon="1.42577">
        <ele>84.199996948242</ele>
        <time>2026-06-16T06:33:33.000Z</time>
      </trkpt>
      <trkpt lat="48.70903" lon="1.42609">
        <ele>84.199996948242</ele>
        <time>2026-06-16T06:33:40.000Z</time>
      </trkpt>
      <trkpt lat="48.70905" lon="1.42648">
        <ele>84.400001525879</ele>
        <time>2026-06-16T06:33:48.000Z</time>
      </trkpt>
      <trkpt lat="48.709" lon="1.42693">
        <ele>84.599998474121</ele>
        <time>2026-06-16T06:33:57.000Z</time>
      </trkpt>
      <trkpt lat="48.70893" lon="1.42754">
        <ele>84.800003051758</ele>
        <time>2026-06-16T06:34:08.000Z</time>
      </trkpt>
      <trkpt lat="48.70888" lon="1.42815">
        <ele>84.599998474121</ele>
        <time>2026-06-16T06:34:18.000Z</time>
      </trkpt>
      <trkpt lat="48.70883" lon="1.42877">
        <ele>84.599998474121</ele>
        <time>2026-06-16T06:34:28.000Z</time>
      </trkpt>
      <trkpt lat="48.70877" lon="1.42947">
        <ele>84.800003051758</ele>
        <time>2026-06-16T06:34:39.000Z</time>
      </trkpt>
      <trkpt lat="48.70877" lon="1.42953">
        <ele>84.800003051758</ele>
        <time>2026-06-16T06:34:40.000Z</time>
      </trkpt>
      <trkpt lat="48.70872" lon="1.42984">
        <ele>85</ele>
        <time>2026-06-16T06:34:45.000Z</time>
      </trkpt>
      <trkpt lat="48.70866" lon="1.43019">
        <ele>85</ele>
        <time>2026-06-16T06:34:50.000Z</time>
      </trkpt>
      <trkpt lat="48.70853" lon="1.43087">
        <ele>85.199996948242</ele>
        <time>2026-06-16T06:35:00.000Z</time>
      </trkpt>
      <trkpt lat="48.70842" lon="1.43147">
        <ele>85</ele>
        <time>2026-06-16T06:35:09.000Z</time>
      </trkpt>
      <trkpt lat="48.70832" lon="1.43213">
        <ele>84.800003051758</ele>
        <time>2026-06-16T06:35:19.000Z</time>
      </trkpt>
      <trkpt lat="48.70821" lon="1.43275">
        <ele>85</ele>
        <time>2026-06-16T06:35:29.000Z</time>
      </trkpt>
      <trkpt lat="48.70807" lon="1.43325">
        <ele>85.199996948242</ele>
        <time>2026-06-16T06:35:37.000Z</time>
      </trkpt>
      <trkpt lat="48.70785" lon="1.4337">
        <ele>85.400001525879</ele>
        <time>2026-06-16T06:35:45.000Z</time>
      </trkpt>
      <trkpt lat="48.70782" lon="1.43376">
        <ele>85.400001525879</ele>
        <time>2026-06-16T06:35:46.000Z</time>
      </trkpt>
      <trkpt lat="48.70764" lon="1.43401">
        <ele>85.400001525879</ele>
        <time>2026-06-16T06:35:51.000Z</time>
      </trkpt>
      <trkpt lat="48.70731" lon="1.43444">
        <ele>85.400001525879</ele>
        <time>2026-06-16T06:36:00.000Z</time>
      </trkpt>
      <trkpt lat="48.70699" lon="1.43488">
        <ele>85.599998474121</ele>
        <time>2026-06-16T06:36:09.000Z</time>
      </trkpt>
      <trkpt lat="48.70676" lon="1.43535">
        <ele>85.400001525879</ele>
        <time>2026-06-16T06:36:17.000Z</time>
      </trkpt>
      <trkpt lat="48.70659" lon="1.43589">
        <ele>85</ele>
        <time>2026-06-16T06:36:25.000Z</time>
      </trkpt>
      <trkpt lat="48.70644" lon="1.43658">
        <ele>85.599998474121</ele>
        <time>2026-06-16T06:36:35.000Z</time>
      </trkpt>
      <trkpt lat="48.70628" lon="1.43722">
        <ele>86</ele>
        <time>2026-06-16T06:36:44.000Z</time>
      </trkpt>
      <trkpt lat="48.70622" lon="1.43742">
        <ele>86</ele>
        <time>2026-06-16T06:36:47.000Z</time>
      </trkpt>
      <trkpt lat="48.70611" lon="1.43775">
        <ele>85.800003051758</ele>
        <time>2026-06-16T06:36:52.000Z</time>
      </trkpt>
      <trkpt lat="48.70602" lon="1.43802">
        <ele>85.800003051758</ele>
        <time>2026-06-16T06:36:56.000Z</time>
      </trkpt>
      <trkpt lat="48.70583" lon="1.43862">
        <ele>86</ele>
        <time>2026-06-16T06:37:05.000Z</time>
      </trkpt>
      <trkpt lat="48.70567" lon="1.43943">
        <ele>86.199996948242</ele>
        <time>2026-06-16T06:37:16.000Z</time>
      </trkpt>
      <trkpt lat="48.70555" lon="1.44013">
        <ele>86.199996948242</ele>
        <time>2026-06-16T06:37:25.000Z</time>
      </trkpt>
      <trkpt lat="48.70542" lon="1.44074">
        <ele>86.199996948242</ele>
        <time>2026-06-16T06:37:33.000Z</time>
      </trkpt>
      <trkpt lat="48.7054" lon="1.44081">
        <ele>86.199996948242</ele>
        <time>2026-06-16T06:37:34.000Z</time>
      </trkpt>
      <trkpt lat="48.70518" lon="1.44143">
        <ele>86.199996948242</ele>
        <time>2026-06-16T06:37:43.000Z</time>
      </trkpt>
      <trkpt lat="48.70501" lon="1.44167">
        <ele>86.199996948242</ele>
        <time>2026-06-16T06:37:47.000Z</time>
      </trkpt>
      <trkpt lat="48.70496" lon="1.44172">
        <ele>86.199996948242</ele>
        <time>2026-06-16T06:37:48.000Z</time>
      </trkpt>
      <trkpt lat="48.7046" lon="1.44194">
        <ele>86</ele>
        <time>2026-06-16T06:37:55.000Z</time>
      </trkpt>
      <trkpt lat="48.70416" lon="1.44215">
        <ele>86</ele>
        <time>2026-06-16T06:38:04.000Z</time>
      </trkpt>
      <trkpt lat="48.70375" lon="1.44231">
        <ele>86</ele>
        <time>2026-06-16T06:38:12.000Z</time>
      </trkpt>
      <trkpt lat="48.70342" lon="1.44246">
        <ele>86.199996948242</ele>
        <time>2026-06-16T06:38:19.000Z</time>
      </trkpt>
      <trkpt lat="48.70317" lon="1.44258">
        <ele>86.199996948242</ele>
        <time>2026-06-16T06:38:24.000Z</time>
      </trkpt>
      <trkpt lat="48.70298" lon="1.44272">
        <ele>86.400001525879</ele>
        <time>2026-06-16T06:38:28.000Z</time>
      </trkpt>
      <trkpt lat="48.70274" lon="1.44291">
        <ele>86.400001525879</ele>
        <time>2026-06-16T06:38:33.000Z</time>
      </trkpt>
      <trkpt lat="48.70267" lon="1.44302">
        <ele>86.400001525879</ele>
        <time>2026-06-16T06:38:35.000Z</time>
      </trkpt>
      <trkpt lat="48.70249" lon="1.44327">
        <ele>86.199996948242</ele>
        <time>2026-06-16T06:38:41.000Z</time>
      </trkpt>
      <trkpt lat="48.70234" lon="1.44348">
        <ele>86.199996948242</ele>
        <time>2026-06-16T06:38:47.000Z</time>
      </trkpt>
      <trkpt lat="48.70227" lon="1.44356">
        <ele>86.199996948242</ele>
        <time>2026-06-16T06:38:49.000Z</time>
      </trkpt>
      <trkpt lat="48.70213" lon="1.44369">
        <ele>86.400001525879</ele>
        <time>2026-06-16T06:38:53.000Z</time>
      </trkpt>
      <trkpt lat="48.70171" lon="1.44414">
        <ele>86.400001525879</ele>
        <time>2026-06-16T06:39:04.000Z</time>
      </trkpt>
      <trkpt lat="48.70142" lon="1.4444">
        <ele>86.400001525879</ele>
        <time>2026-06-16T06:39:11.000Z</time>
      </trkpt>
      <trkpt lat="48.7012" lon="1.44459">
        <ele>86.599998474121</ele>
        <time>2026-06-16T06:39:17.000Z</time>
      </trkpt>
      <trkpt lat="48.70116" lon="1.44463">
        <ele>86.599998474121</ele>
        <time>2026-06-16T06:39:18.000Z</time>
      </trkpt>
      <trkpt lat="48.70109" lon="1.4447">
        <ele>86.599998474121</ele>
        <time>2026-06-16T06:39:20.000Z</time>
      </trkpt>
      <trkpt lat="48.70096" lon="1.44481">
        <ele>86.800003051758</ele>
        <time>2026-06-16T06:39:23.000Z</time>
      </trkpt>
      <trkpt lat="48.70063" lon="1.44504">
        <ele>86.599998474121</ele>
        <time>2026-06-16T06:39:30.000Z</time>
      </trkpt>
      <trkpt lat="48.70027" lon="1.44537">
        <ele>86.599998474121</ele>
        <time>2026-06-16T06:39:38.000Z</time>
      </trkpt>
      <trkpt lat="48.69981" lon="1.44579">
        <ele>86.400001525879</ele>
        <time>2026-06-16T06:39:48.000Z</time>
      </trkpt>
      <trkpt lat="48.69954" lon="1.44603">
        <ele>86.599998474121</ele>
        <time>2026-06-16T06:39:54.000Z</time>
      </trkpt>
      <trkpt lat="48.69929" lon="1.44628">
        <ele>86.800003051758</ele>
        <time>2026-06-16T06:40:00.000Z</time>
      </trkpt>
      <trkpt lat="48.69924" lon="1.44632">
        <ele>86.800003051758</ele>
        <time>2026-06-16T06:40:01.000Z</time>
      </trkpt>
      <trkpt lat="48.69901" lon="1.44648">
        <ele>87.199996948242</ele>
        <time>2026-06-16T06:40:06.000Z</time>
      </trkpt>
      <trkpt lat="48.69886" lon="1.44658">
        <ele>87.400001525879</ele>
        <time>2026-06-16T06:40:09.000Z</time>
      </trkpt>
      <trkpt lat="48.69872" lon="1.44669">
        <ele>87.599998474121</ele>
        <time>2026-06-16T06:40:12.000Z</time>
      </trkpt>
      <trkpt lat="48.69858" lon="1.44678">
        <ele>87.599998474121</ele>
        <time>2026-06-16T06:40:15.000Z</time>
      </trkpt>
      <trkpt lat="48.69821" lon="1.44708">
        <ele>87.800003051758</ele>
        <time>2026-06-16T06:40:23.000Z</time>
      </trkpt>
      <trkpt lat="48.69788" lon="1.44736">
        <ele>87.599998474121</ele>
        <time>2026-06-16T06:40:30.000Z</time>
      </trkpt>
      <trkpt lat="48.69764" lon="1.44755">
        <ele>87.800003051758</ele>
        <time>2026-06-16T06:40:35.000Z</time>
      </trkpt>
      <trkpt lat="48.6976" lon="1.44759">
        <ele>87.800003051758</ele>
        <time>2026-06-16T06:40:36.000Z</time>
      </trkpt>
      <trkpt lat="48.69718" lon="1.44796">
        <ele>88</ele>
        <time>2026-06-16T06:40:45.000Z</time>
      </trkpt>
      <trkpt lat="48.69696" lon="1.44818">
        <ele>88</ele>
        <time>2026-06-16T06:40:51.000Z</time>
      </trkpt>
      <trkpt lat="48.69692" lon="1.44822">
        <ele>88.199996948242</ele>
        <time>2026-06-16T06:40:52.000Z</time>
      </trkpt>
      <trkpt lat="48.69676" lon="1.44836">
        <ele>88.199996948242</ele>
        <time>2026-06-16T06:40:56.000Z</time>
      </trkpt>
      <trkpt lat="48.69652" lon="1.44854">
        <ele>88.400001525879</ele>
        <time>2026-06-16T06:41:01.000Z</time>
      </trkpt>
      <trkpt lat="48.69613" lon="1.44885">
        <ele>88.599998474121</ele>
        <time>2026-06-16T06:41:09.000Z</time>
      </trkpt>
      <trkpt lat="48.69567" lon="1.44923">
        <ele>89</ele>
        <time>2026-06-16T06:41:19.000Z</time>
      </trkpt>
      <trkpt lat="48.69562" lon="1.44927">
        <ele>89</ele>
        <time>2026-06-16T06:41:20.000Z</time>
      </trkpt>
      <trkpt lat="48.69547" lon="1.44942">
        <ele>89</ele>
        <time>2026-06-16T06:41:23.000Z</time>
      </trkpt>
      <trkpt lat="48.69512" lon="1.44986">
        <ele>88.400001525879</ele>
        <time>2026-06-16T06:41:30.000Z</time>
      </trkpt>
      <trkpt lat="48.69475" lon="1.45021">
        <ele>87.800003051758</ele>
        <time>2026-06-16T06:41:37.000Z</time>
      </trkpt>
      <trkpt lat="48.69432" lon="1.45063">
        <ele>87.599998474121</ele>
        <time>2026-06-16T06:41:46.000Z</time>
      </trkpt>
      <trkpt lat="48.69394" lon="1.45097">
        <ele>87.800003051758</ele>
        <time>2026-06-16T06:41:54.000Z</time>
      </trkpt>
      <trkpt lat="48.69344" lon="1.45134">
        <ele>88.199996948242</ele>
        <time>2026-06-16T06:42:04.000Z</time>
      </trkpt>
      <trkpt lat="48.69304" lon="1.45157">
        <ele>88</ele>
        <time>2026-06-16T06:42:12.000Z</time>
      </trkpt>
      <trkpt lat="48.69269" lon="1.45184">
        <ele>88.199996948242</ele>
        <time>2026-06-16T06:42:19.000Z</time>
      </trkpt>
      <trkpt lat="48.69237" lon="1.45217">
        <ele>88.599998474121</ele>
        <time>2026-06-16T06:42:26.000Z</time>
      </trkpt>
      <trkpt lat="48.69214" lon="1.45241">
        <ele>88.599998474121</ele>
        <time>2026-06-16T06:42:31.000Z</time>
      </trkpt>
      <trkpt lat="48.69204" lon="1.4525">
        <ele>88.599998474121</ele>
        <time>2026-06-16T06:42:33.000Z</time>
      </trkpt>
      <trkpt lat="48.69174" lon="1.45281">
        <ele>88.800003051758</ele>
        <time>2026-06-16T06:42:40.000Z</time>
      </trkpt>
      <trkpt lat="48.69135" lon="1.45325">
        <ele>89.199996948242</ele>
        <time>2026-06-16T06:42:48.000Z</time>
      </trkpt>
      <trkpt lat="48.69105" lon="1.45363">
        <ele>89.199996948242</ele>
        <time>2026-06-16T06:42:55.000Z</time>
      </trkpt>
      <trkpt lat="48.69096" lon="1.45374">
        <ele>89.199996948242</ele>
        <time>2026-06-16T06:42:57.000Z</time>
      </trkpt>
      <trkpt lat="48.69066" lon="1.45415">
        <ele>89.199996948242</ele>
        <time>2026-06-16T06:43:04.000Z</time>
      </trkpt>
      <trkpt lat="48.69035" lon="1.45451">
        <ele>88.800003051758</ele>
        <time>2026-06-16T06:43:11.000Z</time>
      </trkpt>
      <trkpt lat="48.69004" lon="1.45484">
        <ele>88.800003051758</ele>
        <time>2026-06-16T06:43:18.000Z</time>
      </trkpt>
      <trkpt lat="48.68971" lon="1.45513">
        <ele>88.800003051758</ele>
        <time>2026-06-16T06:43:25.000Z</time>
      </trkpt>
      <trkpt lat="48.68953" lon="1.45524">
        <ele>88.800003051758</ele>
        <time>2026-06-16T06:43:29.000Z</time>
      </trkpt>
      <trkpt lat="48.68949" lon="1.45526">
        <ele>88.599998474121</ele>
        <time>2026-06-16T06:43:30.000Z</time>
      </trkpt>
      <trkpt lat="48.68941" lon="1.45532">
        <ele>88.599998474121</ele>
        <time>2026-06-16T06:43:34.000Z</time>
      </trkpt>
      <trkpt lat="48.6894" lon="1.45532">
        <ele>88.199996948242</ele>
        <time>2026-06-16T06:43:38.000Z</time>
      </trkpt>
      <trkpt lat="48.68931" lon="1.45542">
        <ele>88</ele>
        <time>2026-06-16T06:43:44.000Z</time>
      </trkpt>
      <trkpt lat="48.68916" lon="1.4556">
        <ele>88</ele>
        <time>2026-06-16T06:43:49.000Z</time>
      </trkpt>
      <trkpt lat="48.68898" lon="1.4558">
        <ele>88.199996948242</ele>
        <time>2026-06-16T06:43:54.000Z</time>
      </trkpt>
      <trkpt lat="48.68894" lon="1.45585">
        <ele>88.199996948242</ele>
        <time>2026-06-16T06:43:55.000Z</time>
      </trkpt>
      <trkpt lat="48.68886" lon="1.45594">
        <ele>88.400001525879</ele>
        <time>2026-06-16T06:43:57.000Z</time>
      </trkpt>
      <trkpt lat="48.68877" lon="1.45603">
        <ele>88.199996948242</ele>
        <time>2026-06-16T06:43:59.000Z</time>
      </trkpt>
      <trkpt lat="48.68838" lon="1.45651">
        <ele>88.599998474121</ele>
        <time>2026-06-16T06:44:08.000Z</time>
      </trkpt>
      <trkpt lat="48.68796" lon="1.45695">
        <ele>88.400001525879</ele>
        <time>2026-06-16T06:44:17.000Z</time>
      </trkpt>
      <trkpt lat="48.68754" lon="1.4574">
        <ele>88.599998474121</ele>
        <time>2026-06-16T06:44:26.000Z</time>
      </trkpt>
      <trkpt lat="48.6871" lon="1.45792">
        <ele>88.400001525879</ele>
        <time>2026-06-16T06:44:36.000Z</time>
      </trkpt>
      <trkpt lat="48.68701" lon="1.45803">
        <ele>88.400001525879</ele>
        <time>2026-06-16T06:44:38.000Z</time>
      </trkpt>
      <trkpt lat="48.6866" lon="1.45865">
        <ele>88.400001525879</ele>
        <time>2026-06-16T06:44:48.000Z</time>
      </trkpt>
      <trkpt lat="48.68652" lon="1.45878">
        <ele>88.400001525879</ele>
        <time>2026-06-16T06:44:50.000Z</time>
      </trkpt>
      <trkpt lat="48.68615" lon="1.45944">
        <ele>88.800003051758</ele>
        <time>2026-06-16T06:45:00.000Z</time>
      </trkpt>
      <trkpt lat="48.68611" lon="1.45951">
        <ele>88.800003051758</ele>
        <time>2026-06-16T06:45:01.000Z</time>
      </trkpt>
      <trkpt lat="48.68579" lon="1.46018">
        <ele>88.199996948242</ele>
        <time>2026-06-16T06:45:10.000Z</time>
      </trkpt>
      <trkpt lat="48.68573" lon="1.46034">
        <ele>88.199996948242</ele>
        <time>2026-06-16T06:45:12.000Z</time>
      </trkpt>
      <trkpt lat="48.68552" lon="1.46099">
        <ele>87.599998474121</ele>
        <time>2026-06-16T06:45:20.000Z</time>
      </trkpt>
      <trkpt lat="48.6855" lon="1.46107">
        <ele>87.599998474121</ele>
        <time>2026-06-16T06:45:21.000Z</time>
      </trkpt>
      <trkpt lat="48.68534" lon="1.46175">
        <ele>87.599998474121</ele>
        <time>2026-06-16T06:45:29.000Z</time>
      </trkpt>
      <trkpt lat="48.6851" lon="1.46235">
        <ele>88.199996948242</ele>
        <time>2026-06-16T06:45:37.000Z</time>
      </trkpt>
      <trkpt lat="48.68473" lon="1.46299">
        <ele>88.400001525879</ele>
        <time>2026-06-16T06:45:47.000Z</time>
      </trkpt>
      <trkpt lat="48.68433" lon="1.46364">
        <ele>88.599998474121</ele>
        <time>2026-06-16T06:45:57.000Z</time>
      </trkpt>
      <trkpt lat="48.6842" lon="1.46382">
        <ele>88.599998474121</ele>
        <time>2026-06-16T06:46:00.000Z</time>
      </trkpt>
      <trkpt lat="48.68416" lon="1.46387">
        <ele>88.800003051758</ele>
        <time>2026-06-16T06:46:01.000Z</time>
      </trkpt>
      <trkpt lat="48.68402" lon="1.46403">
        <ele>88.599998474121</ele>
        <time>2026-06-16T06:46:04.000Z</time>
      </trkpt>
      <trkpt lat="48.6837" lon="1.4644">
        <ele>88.400001525879</ele>
        <time>2026-06-16T06:46:11.000Z</time>
      </trkpt>
      <trkpt lat="48.6833" lon="1.46487">
        <ele>88.400001525879</ele>
        <time>2026-06-16T06:46:20.000Z</time>
      </trkpt>
      <trkpt lat="48.68292" lon="1.46543">
        <ele>88.400001525879</ele>
        <time>2026-06-16T06:46:29.000Z</time>
      </trkpt>
      <trkpt lat="48.68261" lon="1.46606">
        <ele>88.400001525879</ele>
        <time>2026-06-16T06:46:38.000Z</time>
      </trkpt>
      <trkpt lat="48.68237" lon="1.46663">
        <ele>88.599998474121</ele>
        <time>2026-06-16T06:46:46.000Z</time>
      </trkpt>
      <trkpt lat="48.68207" lon="1.46733">
        <ele>89</ele>
        <time>2026-06-16T06:46:56.000Z</time>
      </trkpt>
      <trkpt lat="48.68195" lon="1.46759">
        <ele>89.400001525879</ele>
        <time>2026-06-16T06:47:00.000Z</time>
      </trkpt>
      <trkpt lat="48.68174" lon="1.46797">
        <ele>89.800003051758</ele>
        <time>2026-06-16T06:47:06.000Z</time>
      </trkpt>
      <trkpt lat="48.6816" lon="1.46821">
        <ele>90.199996948242</ele>
        <time>2026-06-16T06:47:10.000Z</time>
      </trkpt>
      <trkpt lat="48.68148" lon="1.46847">
        <ele>90.800003051758</ele>
        <time>2026-06-16T06:47:14.000Z</time>
      </trkpt>
      <trkpt lat="48.68132" lon="1.46877">
        <ele>91</ele>
        <time>2026-06-16T06:47:19.000Z</time>
      </trkpt>
      <trkpt lat="48.68129" lon="1.46883">
        <ele>91.199996948242</ele>
        <time>2026-06-16T06:47:20.000Z</time>
      </trkpt>
      <trkpt lat="48.68095" lon="1.46942">
        <ele>91.400001525879</ele>
        <time>2026-06-16T06:47:29.000Z</time>
      </trkpt>
      <trkpt lat="48.68083" lon="1.46961">
        <ele>91.400001525879</ele>
        <time>2026-06-16T06:47:32.000Z</time>
      </trkpt>
      <trkpt lat="48.68071" lon="1.46979">
        <ele>91.199996948242</ele>
        <time>2026-06-16T06:47:35.000Z</time>
      </trkpt>
      <trkpt lat="48.68037" lon="1.47036">
        <ele>91</ele>
        <time>2026-06-16T06:47:44.000Z</time>
      </trkpt>
      <trkpt lat="48.68003" lon="1.47094">
        <ele>90.800003051758</ele>
        <time>2026-06-16T06:47:53.000Z</time>
      </trkpt>
      <trkpt lat="48.67974" lon="1.47159">
        <ele>91</ele>
        <time>2026-06-16T06:48:02.000Z</time>
      </trkpt>
      <trkpt lat="48.67957" lon="1.47206">
        <ele>91.199996948242</ele>
        <time>2026-06-16T06:48:08.000Z</time>
      </trkpt>
      <trkpt lat="48.67933" lon="1.47275">
        <ele>91.199996948242</ele>
        <time>2026-06-16T06:48:17.000Z</time>
      </trkpt>
      <trkpt lat="48.67912" lon="1.47344">
        <ele>91.400001525879</ele>
        <time>2026-06-16T06:48:26.000Z</time>
      </trkpt>
      <trkpt lat="48.67896" lon="1.47389">
        <ele>91.800003051758</ele>
        <time>2026-06-16T06:48:32.000Z</time>
      </trkpt>
      <trkpt lat="48.67888" lon="1.47411">
        <ele>92</ele>
        <time>2026-06-16T06:48:35.000Z</time>
      </trkpt>
      <trkpt lat="48.67869" lon="1.47472">
        <ele>92.599998474121</ele>
        <time>2026-06-16T06:48:43.000Z</time>
      </trkpt>
      <trkpt lat="48.67856" lon="1.47506">
        <ele>92.800003051758</ele>
        <time>2026-06-16T06:48:49.000Z</time>
      </trkpt>
      <trkpt lat="48.6785" lon="1.47518">
        <ele>92.800003051758</ele>
        <time>2026-06-16T06:48:53.000Z</time>
      </trkpt>
      <trkpt lat="48.67849" lon="1.47521">
        <ele>92.800003051758</ele>
        <time>2026-06-16T06:48:54.000Z</time>
      </trkpt>
      <trkpt lat="48.67842" lon="1.47539">
        <ele>92.800003051758</ele>
        <time>2026-06-16T06:49:00.000Z</time>
      </trkpt>
      <trkpt lat="48.67839" lon="1.47549">
        <ele>92.800003051758</ele>
        <time>2026-06-16T06:49:02.000Z</time>
      </trkpt>
      <trkpt lat="48.67834" lon="1.47563">
        <ele>92.599998474121</ele>
        <time>2026-06-16T06:49:04.000Z</time>
      </trkpt>
      <trkpt lat="48.67826" lon="1.47578">
        <ele>92.599998474121</ele>
        <time>2026-06-16T06:49:06.000Z</time>
      </trkpt>
      <trkpt lat="48.67813" lon="1.47598">
        <ele>92.199996948242</ele>
        <time>2026-06-16T06:49:09.000Z</time>
      </trkpt>
      <trkpt lat="48.67801" lon="1.47608">
        <ele>91.800003051758</ele>
        <time>2026-06-16T06:49:11.000Z</time>
      </trkpt>
      <trkpt lat="48.67797" lon="1.47614">
        <ele>91.599998474121</ele>
        <time>2026-06-16T06:49:12.000Z</time>
      </trkpt>
      <trkpt lat="48.67793" lon="1.47622">
        <ele>91.400001525879</ele>
        <time>2026-06-16T06:49:13.000Z</time>
      </trkpt>
      <trkpt lat="48.67787" lon="1.47639">
        <ele>91.199996948242</ele>
        <time>2026-06-16T06:49:15.000Z</time>
      </trkpt>
      <trkpt lat="48.67781" lon="1.47663">
        <ele>91</ele>
        <time>2026-06-16T06:49:18.000Z</time>
      </trkpt>
      <trkpt lat="48.6777" lon="1.47699">
        <ele>91</ele>
        <time>2026-06-16T06:49:23.000Z</time>
      </trkpt>
      <trkpt lat="48.67768" lon="1.47706">
        <ele>91</ele>
        <time>2026-06-16T06:49:24.000Z</time>
      </trkpt>
      <trkpt lat="48.67766" lon="1.47713">
        <ele>91</ele>
        <time>2026-06-16T06:49:25.000Z</time>
      </trkpt>
      <trkpt lat="48.67762" lon="1.47725">
        <ele>91</ele>
        <time>2026-06-16T06:49:27.000Z</time>
      </trkpt>
      <trkpt lat="48.6776" lon="1.47732">
        <ele>91</ele>
        <time>2026-06-16T06:49:28.000Z</time>
      </trkpt>
      <trkpt lat="48.67744" lon="1.47802">
        <ele>91.199996948242</ele>
        <time>2026-06-16T06:49:37.000Z</time>
      </trkpt>
      <trkpt lat="48.67728" lon="1.4786">
        <ele>91.400001525879</ele>
        <time>2026-06-16T06:49:45.000Z</time>
      </trkpt>
      <trkpt lat="48.67711" lon="1.47927">
        <ele>91.599998474121</ele>
        <time>2026-06-16T06:49:54.000Z</time>
      </trkpt>
      <trkpt lat="48.67702" lon="1.47957">
        <ele>91.599998474121</ele>
        <time>2026-06-16T06:49:58.000Z</time>
      </trkpt>
      <trkpt lat="48.67693" lon="1.47988">
        <ele>91.800003051758</ele>
        <time>2026-06-16T06:50:02.000Z</time>
      </trkpt>
      <trkpt lat="48.67674" lon="1.4806">
        <ele>92</ele>
        <time>2026-06-16T06:50:11.000Z</time>
      </trkpt>
      <trkpt lat="48.67657" lon="1.48125">
        <ele>91.800003051758</ele>
        <time>2026-06-16T06:50:19.000Z</time>
      </trkpt>
      <trkpt lat="48.67645" lon="1.48164">
        <ele>91.800003051758</ele>
        <time>2026-06-16T06:50:24.000Z</time>
      </trkpt>
      <trkpt lat="48.67642" lon="1.48178">
        <ele>92</ele>
        <time>2026-06-16T06:50:26.000Z</time>
      </trkpt>
      <trkpt lat="48.67634" lon="1.48211">
        <ele>92</ele>
        <time>2026-06-16T06:50:31.000Z</time>
      </trkpt>
      <trkpt lat="48.67634" lon="1.48226">
        <ele>92.199996948242</ele>
        <time>2026-06-16T06:50:33.000Z</time>
      </trkpt>
      <trkpt lat="48.67636" lon="1.48254">
        <ele>92.400001525879</ele>
        <time>2026-06-16T06:50:37.000Z</time>
      </trkpt>
      <trkpt lat="48.67636" lon="1.4826">
        <ele>92.599998474121</ele>
        <time>2026-06-16T06:50:38.000Z</time>
      </trkpt>
      <trkpt lat="48.67638" lon="1.48273">
        <ele>92.800003051758</ele>
        <time>2026-06-16T06:50:40.000Z</time>
      </trkpt>
      <trkpt lat="48.67641" lon="1.48296">
        <ele>93.599998474121</ele>
        <time>2026-06-16T06:50:44.000Z</time>
      </trkpt>
      <trkpt lat="48.67642" lon="1.48307">
        <ele>94</ele>
        <time>2026-06-16T06:50:46.000Z</time>
      </trkpt>
      <trkpt lat="48.67645" lon="1.48325">
        <ele>94.599998474121</ele>
        <time>2026-06-16T06:50:49.000Z</time>
      </trkpt>
      <trkpt lat="48.67646" lon="1.48348">
        <ele>95.599998474121</ele>
        <time>2026-06-16T06:50:53.000Z</time>
      </trkpt>
      <trkpt lat="48.67646" lon="1.48354">
        <ele>95.599998474121</ele>
        <time>2026-06-16T06:50:54.000Z</time>
      </trkpt>
      <trkpt lat="48.67645" lon="1.48376">
        <ele>96.800003051758</ele>
        <time>2026-06-16T06:50:58.000Z</time>
      </trkpt>
      <trkpt lat="48.67644" lon="1.48391">
        <ele>97.400001525879</ele>
        <time>2026-06-16T06:51:01.000Z</time>
      </trkpt>
      <trkpt lat="48.67642" lon="1.48402">
        <ele>98</ele>
        <time>2026-06-16T06:51:03.000Z</time>
      </trkpt>
      <trkpt lat="48.67638" lon="1.48428">
        <ele>99</ele>
        <time>2026-06-16T06:51:08.000Z</time>
      </trkpt>
      <trkpt lat="48.67637" lon="1.48433">
        <ele>99</ele>
        <time>2026-06-16T06:51:09.000Z</time>
      </trkpt>
      <trkpt lat="48.67633" lon="1.48452">
        <ele>100.19999694824</ele>
        <time>2026-06-16T06:51:13.000Z</time>
      </trkpt>
      <trkpt lat="48.6763" lon="1.4847">
        <ele>101.19999694824</ele>
        <time>2026-06-16T06:51:17.000Z</time>
      </trkpt>
      <trkpt lat="48.67629" lon="1.48483">
        <ele>101.80000305176</ele>
        <time>2026-06-16T06:51:20.000Z</time>
      </trkpt>
      <trkpt lat="48.67628" lon="1.48487">
        <ele>102</ele>
        <time>2026-06-16T06:51:21.000Z</time>
      </trkpt>
      <trkpt lat="48.67628" lon="1.48492">
        <ele>102.19999694824</ele>
        <time>2026-06-16T06:51:22.000Z</time>
      </trkpt>
      <trkpt lat="48.67628" lon="1.48519">
        <ele>103.19999694824</ele>
        <time>2026-06-16T06:51:27.000Z</time>
      </trkpt>
      <trkpt lat="48.67627" lon="1.48525">
        <ele>103.59999847412</ele>
        <time>2026-06-16T06:51:28.000Z</time>
      </trkpt>
      <trkpt lat="48.67629" lon="1.48555">
        <ele>104.59999847412</ele>
        <time>2026-06-16T06:51:34.000Z</time>
      </trkpt>
      <trkpt lat="48.67629" lon="1.48561">
        <ele>105</ele>
        <time>2026-06-16T06:51:35.000Z</time>
      </trkpt>
      <trkpt lat="48.67634" lon="1.48585">
        <ele>106.19999694824</ele>
        <time>2026-06-16T06:51:40.000Z</time>
      </trkpt>
      <trkpt lat="48.67636" lon="1.48591">
        <ele>106.19999694824</ele>
        <time>2026-06-16T06:51:41.000Z</time>
      </trkpt>
      <trkpt lat="48.67649" lon="1.48621">
        <ele>107.40000152588</ele>
        <time>2026-06-16T06:51:47.000Z</time>
      </trkpt>
      <trkpt lat="48.67652" lon="1.48625">
        <ele>107.59999847412</ele>
        <time>2026-06-16T06:51:48.000Z</time>
      </trkpt>
      <trkpt lat="48.67665" lon="1.4864">
        <ele>108.59999847412</ele>
        <time>2026-06-16T06:51:52.000Z</time>
      </trkpt>
      <trkpt lat="48.6767" lon="1.48645">
        <ele>109.19999694824</ele>
        <time>2026-06-16T06:51:54.000Z</time>
      </trkpt>
      <trkpt lat="48.67676" lon="1.48648">
        <ele>109.59999847412</ele>
        <time>2026-06-16T06:51:56.000Z</time>
      </trkpt>
      <trkpt lat="48.67689" lon="1.48658">
        <ele>110.59999847412</ele>
        <time>2026-06-16T06:52:01.000Z</time>
      </trkpt>
      <trkpt lat="48.67706" lon="1.48666">
        <ele>111.80000305176</ele>
        <time>2026-06-16T06:52:07.000Z</time>
      </trkpt>
      <trkpt lat="48.67721" lon="1.4867">
        <ele>113.19999694824</ele>
        <time>2026-06-16T06:52:13.000Z</time>
      </trkpt>
      <trkpt lat="48.67736" lon="1.48676">
        <ele>114.40000152588</ele>
        <time>2026-06-16T06:52:19.000Z</time>
      </trkpt>
      <trkpt lat="48.67739" lon="1.48678">
        <ele>114.40000152588</ele>
        <time>2026-06-16T06:52:20.000Z</time>
      </trkpt>
      <trkpt lat="48.67758" lon="1.48687">
        <ele>115.59999847412</ele>
        <time>2026-06-16T06:52:26.000Z</time>
      </trkpt>
      <trkpt lat="48.67761" lon="1.48688">
        <ele>115.80000305176</ele>
        <time>2026-06-16T06:52:27.000Z</time>
      </trkpt>
      <trkpt lat="48.67775" lon="1.48693">
        <ele>116.59999847412</ele>
        <time>2026-06-16T06:52:31.000Z</time>
      </trkpt>
      <trkpt lat="48.67785" lon="1.48697">
        <ele>117.40000152588</ele>
        <time>2026-06-16T06:52:34.000Z</time>
      </trkpt>
      <trkpt lat="48.67789" lon="1.48698">
        <ele>117.59999847412</ele>
        <time>2026-06-16T06:52:35.000Z</time>
      </trkpt>
      <trkpt lat="48.6781" lon="1.48709">
        <ele>118.80000305176</ele>
        <time>2026-06-16T06:52:41.000Z</time>
      </trkpt>
      <trkpt lat="48.67828" lon="1.48713">
        <ele>119.80000305176</ele>
        <time>2026-06-16T06:52:47.000Z</time>
      </trkpt>
      <trkpt lat="48.67832" lon="1.48715">
        <ele>120</ele>
        <time>2026-06-16T06:52:48.000Z</time>
      </trkpt>
      <trkpt lat="48.67851" lon="1.48725">
        <ele>121</ele>
        <time>2026-06-16T06:52:54.000Z</time>
      </trkpt>
      <trkpt lat="48.6787" lon="1.48738">
        <ele>122.40000152588</ele>
        <time>2026-06-16T06:53:00.000Z</time>
      </trkpt>
      <trkpt lat="48.67879" lon="1.48743">
        <ele>122.80000305176</ele>
        <time>2026-06-16T06:53:02.000Z</time>
      </trkpt>
      <trkpt lat="48.67892" lon="1.48752">
        <ele>123.59999847412</ele>
        <time>2026-06-16T06:53:07.000Z</time>
      </trkpt>
      <trkpt lat="48.67895" lon="1.48754">
        <ele>123.59999847412</ele>
        <time>2026-06-16T06:53:08.000Z</time>
      </trkpt>
      <trkpt lat="48.67912" lon="1.48766">
        <ele>124.59999847412</ele>
        <time>2026-06-16T06:53:15.000Z</time>
      </trkpt>
      <trkpt lat="48.67919" lon="1.4877">
        <ele>125.19999694824</ele>
        <time>2026-06-16T06:53:18.000Z</time>
      </trkpt>
      <trkpt lat="48.67921" lon="1.4877">
        <ele>125.59999847412</ele>
        <time>2026-06-16T06:53:19.000Z</time>
      </trkpt>
      <trkpt lat="48.67935" lon="1.48772">
        <ele>126.59999847412</ele>
        <time>2026-06-16T06:53:24.000Z</time>
      </trkpt>
      <trkpt lat="48.67939" lon="1.48772">
        <ele>127</ele>
        <time>2026-06-16T06:53:25.000Z</time>
      </trkpt>
      <trkpt lat="48.67954" lon="1.48766">
        <ele>128.19999694824</ele>
        <time>2026-06-16T06:53:30.000Z</time>
      </trkpt>
      <trkpt lat="48.67972" lon="1.48755">
        <ele>129.19999694824</ele>
        <time>2026-06-16T06:53:36.000Z</time>
      </trkpt>
      <trkpt lat="48.67979" lon="1.4875">
        <ele>129.60000610352</ele>
        <time>2026-06-16T06:53:38.000Z</time>
      </trkpt>
      <trkpt lat="48.67994" lon="1.48744">
        <ele>130.39999389648</ele>
        <time>2026-06-16T06:53:42.000Z</time>
      </trkpt>
      <trkpt lat="48.68" lon="1.48745">
        <ele>130.60000610352</ele>
        <time>2026-06-16T06:53:44.000Z</time>
      </trkpt>
      <trkpt lat="48.68019" lon="1.48755">
        <ele>131.39999389648</ele>
        <time>2026-06-16T06:53:50.000Z</time>
      </trkpt>
      <trkpt lat="48.68058" lon="1.48779">
        <ele>131.80000305176</ele>
        <time>2026-06-16T06:53:58.000Z</time>
      </trkpt>
      <trkpt lat="48.68079" lon="1.48789">
        <ele>131.80000305176</ele>
        <time>2026-06-16T06:54:03.000Z</time>
      </trkpt>
      <trkpt lat="48.681" lon="1.48805">
        <ele>132</ele>
        <time>2026-06-16T06:54:08.000Z</time>
      </trkpt>
      <trkpt lat="48.68129" lon="1.48819">
        <ele>132</ele>
        <time>2026-06-16T06:54:15.000Z</time>
      </trkpt>
      <trkpt lat="48.68163" lon="1.48851">
        <ele>132.19999694824</ele>
        <time>2026-06-16T06:54:23.000Z</time>
      </trkpt>
      <trkpt lat="48.68183" lon="1.48877">
        <ele>131.80000305176</ele>
        <time>2026-06-16T06:54:28.000Z</time>
      </trkpt>
      <trkpt lat="48.68196" lon="1.48891">
        <ele>131.60000610352</ele>
        <time>2026-06-16T06:54:30.000Z</time>
      </trkpt>
      <trkpt lat="48.68205" lon="1.48904">
        <ele>131.39999389648</ele>
        <time>2026-06-16T06:54:32.000Z</time>
      </trkpt>
      <trkpt lat="48.68223" lon="1.48944">
        <ele>131.19999694824</ele>
        <time>2026-06-16T06:54:38.000Z</time>
      </trkpt>
      <trkpt lat="48.68255" lon="1.49011">
        <ele>131.19999694824</ele>
        <time>2026-06-16T06:54:48.000Z</time>
      </trkpt>
      <trkpt lat="48.6829" lon="1.49082">
        <ele>131.39999389648</ele>
        <time>2026-06-16T06:54:59.000Z</time>
      </trkpt>
      <trkpt lat="48.68316" lon="1.49135">
        <ele>131.39999389648</ele>
        <time>2026-06-16T06:55:07.000Z</time>
      </trkpt>
      <trkpt lat="48.6834" lon="1.49174">
        <ele>131.19999694824</ele>
        <time>2026-06-16T06:55:14.000Z</time>
      </trkpt>
      <trkpt lat="48.68377" lon="1.4922">
        <ele>131</ele>
        <time>2026-06-16T06:55:23.000Z</time>
      </trkpt>
      <trkpt lat="48.68389" lon="1.49236">
        <ele>131</ele>
        <time>2026-06-16T06:55:26.000Z</time>
      </trkpt>
      <trkpt lat="48.68396" lon="1.49247">
        <ele>131</ele>
        <time>2026-06-16T06:55:28.000Z</time>
      </trkpt>
      <trkpt lat="48.68427" lon="1.49291">
        <ele>131.39999389648</ele>
        <time>2026-06-16T06:55:36.000Z</time>
      </trkpt>
      <trkpt lat="48.68435" lon="1.493">
        <ele>131.60000610352</ele>
        <time>2026-06-16T06:55:38.000Z</time>
      </trkpt>
      <trkpt lat="48.68454" lon="1.49315">
        <ele>131.60000610352</ele>
        <time>2026-06-16T06:55:42.000Z</time>
      </trkpt>
      <trkpt lat="48.685" lon="1.49338">
        <ele>131.80000305176</ele>
        <time>2026-06-16T06:55:50.000Z</time>
      </trkpt>
      <trkpt lat="48.68551" lon="1.49363">
        <ele>131.60000610352</ele>
        <time>2026-06-16T06:55:59.000Z</time>
      </trkpt>
      <trkpt lat="48.68601" lon="1.49393">
        <ele>131.80000305176</ele>
        <time>2026-06-16T06:56:09.000Z</time>
      </trkpt>
      <trkpt lat="48.68611" lon="1.49398">
        <ele>131.80000305176</ele>
        <time>2026-06-16T06:56:11.000Z</time>
      </trkpt>
      <trkpt lat="48.68666" lon="1.49425">
        <ele>132</ele>
        <time>2026-06-16T06:56:22.000Z</time>
      </trkpt>
      <trkpt lat="48.6872" lon="1.49452">
        <ele>131.80000305176</ele>
        <time>2026-06-16T06:56:32.000Z</time>
      </trkpt>
      <trkpt lat="48.6873" lon="1.49461">
        <ele>131.80000305176</ele>
        <time>2026-06-16T06:56:34.000Z</time>
      </trkpt>
      <trkpt lat="48.68749" lon="1.49483">
        <ele>131.39999389648</ele>
        <time>2026-06-16T06:56:38.000Z</time>
      </trkpt>
      <trkpt lat="48.68791" lon="1.49535">
        <ele>131.19999694824</ele>
        <time>2026-06-16T06:56:47.000Z</time>
      </trkpt>
      <trkpt lat="48.68796" lon="1.49541">
        <ele>131.19999694824</ele>
        <time>2026-06-16T06:56:48.000Z</time>
      </trkpt>
      <trkpt lat="48.68839" lon="1.4959">
        <ele>131</ele>
        <time>2026-06-16T06:56:57.000Z</time>
      </trkpt>
      <trkpt lat="48.68843" lon="1.49596">
        <ele>131</ele>
        <time>2026-06-16T06:56:58.000Z</time>
      </trkpt>
      <trkpt lat="48.68872" lon="1.4965">
        <ele>130.80000305176</ele>
        <time>2026-06-16T06:57:06.000Z</time>
      </trkpt>
      <trkpt lat="48.68899" lon="1.49705">
        <ele>130.80000305176</ele>
        <time>2026-06-16T06:57:14.000Z</time>
      </trkpt>
      <trkpt lat="48.68931" lon="1.49769">
        <ele>131</ele>
        <time>2026-06-16T06:57:24.000Z</time>
      </trkpt>
      <trkpt lat="48.68962" lon="1.49832">
        <ele>131.19999694824</ele>
        <time>2026-06-16T06:57:34.000Z</time>
      </trkpt>
      <trkpt lat="48.6899" lon="1.49869">
        <ele>131.39999389648</ele>
        <time>2026-06-16T06:57:41.000Z</time>
      </trkpt>
      <trkpt lat="48.69022" lon="1.499">
        <ele>131.60000610352</ele>
        <time>2026-06-16T06:57:48.000Z</time>
      </trkpt>
      <trkpt lat="48.69062" lon="1.49934">
        <ele>131.80000305176</ele>
        <time>2026-06-16T06:57:57.000Z</time>
      </trkpt>
      <trkpt lat="48.69077" lon="1.4995">
        <ele>132</ele>
        <time>2026-06-16T06:58:01.000Z</time>
      </trkpt>
      <trkpt lat="48.69079" lon="1.49962">
        <ele>132</ele>
        <time>2026-06-16T06:58:03.000Z</time>
      </trkpt>
      <trkpt lat="48.69072" lon="1.49979">
        <ele>132</ele>
        <time>2026-06-16T06:58:06.000Z</time>
      </trkpt>
      <trkpt lat="48.69048" lon="1.50024">
        <ele>132.39999389648</ele>
        <time>2026-06-16T06:58:13.000Z</time>
      </trkpt>
      <trkpt lat="48.69028" lon="1.50075">
        <ele>132.39999389648</ele>
        <time>2026-06-16T06:58:20.000Z</time>
      </trkpt>
      <trkpt lat="48.69015" lon="1.50123">
        <ele>132.60000610352</ele>
        <time>2026-06-16T06:58:26.000Z</time>
      </trkpt>
      <trkpt lat="48.69011" lon="1.50139">
        <ele>132.60000610352</ele>
        <time>2026-06-16T06:58:28.000Z</time>
      </trkpt>
      <trkpt lat="48.68995" lon="1.50202">
        <ele>132.60000610352</ele>
        <time>2026-06-16T06:58:36.000Z</time>
      </trkpt>
      <trkpt lat="48.68984" lon="1.50244">
        <ele>132.60000610352</ele>
        <time>2026-06-16T06:58:41.000Z</time>
      </trkpt>
      <trkpt lat="48.68968" lon="1.50316">
        <ele>132.80000305176</ele>
        <time>2026-06-16T06:58:50.000Z</time>
      </trkpt>
      <trkpt lat="48.68961" lon="1.50338">
        <ele>132.80000305176</ele>
        <time>2026-06-16T06:58:53.000Z</time>
      </trkpt>
      <trkpt lat="48.68952" lon="1.5036">
        <ele>132.80000305176</ele>
        <time>2026-06-16T06:58:56.000Z</time>
      </trkpt>
      <trkpt lat="48.68924" lon="1.50427">
        <ele>133</ele>
        <time>2026-06-16T06:59:05.000Z</time>
      </trkpt>
      <trkpt lat="48.68901" lon="1.50487">
        <ele>133.19999694824</ele>
        <time>2026-06-16T06:59:13.000Z</time>
      </trkpt>
      <trkpt lat="48.68896" lon="1.50501">
        <ele>133.19999694824</ele>
        <time>2026-06-16T06:59:15.000Z</time>
      </trkpt>
      <trkpt lat="48.6888" lon="1.50525">
        <ele>133</ele>
        <time>2026-06-16T06:59:19.000Z</time>
      </trkpt>
      <trkpt lat="48.68848" lon="1.5056">
        <ele>133</ele>
        <time>2026-06-16T06:59:26.000Z</time>
      </trkpt>
      <trkpt lat="48.68843" lon="1.50564">
        <ele>133</ele>
        <time>2026-06-16T06:59:27.000Z</time>
      </trkpt>
      <trkpt lat="48.68829" lon="1.50579">
        <ele>133</ele>
        <time>2026-06-16T06:59:30.000Z</time>
      </trkpt>
      <trkpt lat="48.68824" lon="1.50586">
        <ele>133</ele>
        <time>2026-06-16T06:59:31.000Z</time>
      </trkpt>
      <trkpt lat="48.688" lon="1.50628">
        <ele>133</ele>
        <time>2026-06-16T06:59:37.000Z</time>
      </trkpt>
      <trkpt lat="48.68774" lon="1.50685">
        <ele>132.80000305176</ele>
        <time>2026-06-16T06:59:45.000Z</time>
      </trkpt>
      <trkpt lat="48.68748" lon="1.50749">
        <ele>132.39999389648</ele>
        <time>2026-06-16T06:59:53.000Z</time>
      </trkpt>
      <trkpt lat="48.68723" lon="1.50805">
        <ele>131.39999389648</ele>
        <time>2026-06-16T07:00:00.000Z</time>
      </trkpt>
      <trkpt lat="48.68715" lon="1.5082">
        <ele>131.39999389648</ele>
        <time>2026-06-16T07:00:02.000Z</time>
      </trkpt>
      <trkpt lat="48.68699" lon="1.50851">
        <ele>131</ele>
        <time>2026-06-16T07:00:06.000Z</time>
      </trkpt>
      <trkpt lat="48.68694" lon="1.50859">
        <ele>130.80000305176</ele>
        <time>2026-06-16T07:00:07.000Z</time>
      </trkpt>
      <trkpt lat="48.68679" lon="1.50893">
        <ele>130.19999694824</ele>
        <time>2026-06-16T07:00:11.000Z</time>
      </trkpt>
      <trkpt lat="48.68666" lon="1.50929">
        <ele>129.80000305176</ele>
        <time>2026-06-16T07:00:15.000Z</time>
      </trkpt>
      <trkpt lat="48.68654" lon="1.50967">
        <ele>129.19999694824</ele>
        <time>2026-06-16T07:00:19.000Z</time>
      </trkpt>
      <trkpt lat="48.68643" lon="1.51008">
        <ele>128.60000610352</ele>
        <time>2026-06-16T07:00:23.000Z</time>
      </trkpt>
      <trkpt lat="48.68635" lon="1.51039">
        <ele>128.19999694824</ele>
        <time>2026-06-16T07:00:26.000Z</time>
      </trkpt>
      <trkpt lat="48.68628" lon="1.51069">
        <ele>127.80000305176</ele>
        <time>2026-06-16T07:00:29.000Z</time>
      </trkpt>
      <trkpt lat="48.68611" lon="1.51127">
        <ele>127</ele>
        <time>2026-06-16T07:00:35.000Z</time>
      </trkpt>
      <trkpt lat="48.68597" lon="1.51167">
        <ele>126.40000152588</ele>
        <time>2026-06-16T07:00:40.000Z</time>
      </trkpt>
      <trkpt lat="48.68571" lon="1.5124">
        <ele>126.19999694824</ele>
        <time>2026-06-16T07:00:48.000Z</time>
      </trkpt>
      <trkpt lat="48.68568" lon="1.51251">
        <ele>125.80000305176</ele>
        <time>2026-06-16T07:00:49.000Z</time>
      </trkpt>
      <trkpt lat="48.68554" lon="1.51294">
        <ele>124.80000305176</ele>
        <time>2026-06-16T07:00:53.000Z</time>
      </trkpt>
      <trkpt lat="48.6855" lon="1.51304">
        <ele>124.40000152588</ele>
        <time>2026-06-16T07:00:54.000Z</time>
      </trkpt>
      <trkpt lat="48.68538" lon="1.51331">
        <ele>123.80000305176</ele>
        <time>2026-06-16T07:00:57.000Z</time>
      </trkpt>
      <trkpt lat="48.68531" lon="1.51347">
        <ele>123.19999694824</ele>
        <time>2026-06-16T07:00:59.000Z</time>
      </trkpt>
      <trkpt lat="48.68528" lon="1.51355">
        <ele>123.19999694824</ele>
        <time>2026-06-16T07:01:00.000Z</time>
      </trkpt>
      <trkpt lat="48.68521" lon="1.51366">
        <ele>123.19999694824</ele>
        <time>2026-06-16T07:01:02.000Z</time>
      </trkpt>
      <trkpt lat="48.68518" lon="1.5137">
        <ele>123.19999694824</ele>
        <time>2026-06-16T07:01:03.000Z</time>
      </trkpt>
      <trkpt lat="48.68503" lon="1.51393">
        <ele>123.80000305176</ele>
        <time>2026-06-16T07:01:08.000Z</time>
      </trkpt>
      <trkpt lat="48.685" lon="1.51398">
        <ele>123.80000305176</ele>
        <time>2026-06-16T07:01:09.000Z</time>
      </trkpt>
      <trkpt lat="48.68488" lon="1.51413">
        <ele>124.40000152588</ele>
        <time>2026-06-16T07:01:12.000Z</time>
      </trkpt>
      <trkpt lat="48.68485" lon="1.51417">
        <ele>124.80000305176</ele>
        <time>2026-06-16T07:01:13.000Z</time>
      </trkpt>
      <trkpt lat="48.68482" lon="1.51421">
        <ele>124.80000305176</ele>
        <time>2026-06-16T07:01:14.000Z</time>
      </trkpt>
      <trkpt lat="48.68469" lon="1.51436">
        <ele>125.59999847412</ele>
        <time>2026-06-16T07:01:18.000Z</time>
      </trkpt>
      <trkpt lat="48.68462" lon="1.51444">
        <ele>125.80000305176</ele>
        <time>2026-06-16T07:01:20.000Z</time>
      </trkpt>
      <trkpt lat="48.6846" lon="1.51449">
        <ele>125.80000305176</ele>
        <time>2026-06-16T07:01:21.000Z</time>
      </trkpt>
      <trkpt lat="48.68451" lon="1.51463">
        <ele>127</ele>
        <time>2026-06-16T07:01:24.000Z</time>
      </trkpt>
      <trkpt lat="48.68449" lon="1.51467">
        <ele>127</ele>
        <time>2026-06-16T07:01:25.000Z</time>
      </trkpt>
      <trkpt lat="48.68446" lon="1.51473">
        <ele>127.40000152588</ele>
        <time>2026-06-16T07:01:26.000Z</time>
      </trkpt>
      <trkpt lat="48.6844" lon="1.51488">
        <ele>128.19999694824</ele>
        <time>2026-06-16T07:01:29.000Z</time>
      </trkpt>
      <trkpt lat="48.68435" lon="1.51497">
        <ele>128.39999389648</ele>
        <time>2026-06-16T07:01:31.000Z</time>
      </trkpt>
      <trkpt lat="48.68428" lon="1.51512">
        <ele>129</ele>
        <time>2026-06-16T07:01:34.000Z</time>
      </trkpt>
      <trkpt lat="48.6842" lon="1.51528">
        <ele>129.60000610352</ele>
        <time>2026-06-16T07:01:37.000Z</time>
      </trkpt>
      <trkpt lat="48.68408" lon="1.51548">
        <ele>130</ele>
        <time>2026-06-16T07:01:41.000Z</time>
      </trkpt>
      <trkpt lat="48.68405" lon="1.51552">
        <ele>130.19999694824</ele>
        <time>2026-06-16T07:01:42.000Z</time>
      </trkpt>
      <trkpt lat="48.68384" lon="1.51572">
        <ele>130.80000305176</ele>
        <time>2026-06-16T07:01:47.000Z</time>
      </trkpt>
      <trkpt lat="48.6837" lon="1.51586">
        <ele>131.39999389648</ele>
        <time>2026-06-16T07:01:51.000Z</time>
      </trkpt>
      <trkpt lat="48.68347" lon="1.51614">
        <ele>131.80000305176</ele>
        <time>2026-06-16T07:01:57.000Z</time>
      </trkpt>
      <trkpt lat="48.68324" lon="1.51639">
        <ele>132.19999694824</ele>
        <time>2026-06-16T07:02:03.000Z</time>
      </trkpt>
      <trkpt lat="48.68322" lon="1.51642">
        <ele>132.39999389648</ele>
        <time>2026-06-16T07:02:04.000Z</time>
      </trkpt>
      <trkpt lat="48.68293" lon="1.51667">
        <ele>133</ele>
        <time>2026-06-16T07:02:10.000Z</time>
      </trkpt>
      <trkpt lat="48.68267" lon="1.51697">
        <ele>133</ele>
        <time>2026-06-16T07:02:15.000Z</time>
      </trkpt>
      <trkpt lat="48.68245" lon="1.51719">
        <ele>133.19999694824</ele>
        <time>2026-06-16T07:02:19.000Z</time>
      </trkpt>
      <trkpt lat="48.68242" lon="1.51724">
        <ele>133.19999694824</ele>
        <time>2026-06-16T07:02:20.000Z</time>
      </trkpt>
      <trkpt lat="48.68233" lon="1.5174">
        <ele>133.39999389648</ele>
        <time>2026-06-16T07:02:23.000Z</time>
      </trkpt>
      <trkpt lat="48.68223" lon="1.51748">
        <ele>133.39999389648</ele>
        <time>2026-06-16T07:02:25.000Z</time>
      </trkpt>
      <trkpt lat="48.68218" lon="1.51752">
        <ele>133.39999389648</ele>
        <time>2026-06-16T07:02:26.000Z</time>
      </trkpt>
      <trkpt lat="48.68188" lon="1.51775">
        <ele>133.39999389648</ele>
        <time>2026-06-16T07:02:32.000Z</time>
      </trkpt>
      <trkpt lat="48.68147" lon="1.51792">
        <ele>133.39999389648</ele>
        <time>2026-06-16T07:02:40.000Z</time>
      </trkpt>
      <trkpt lat="48.6809" lon="1.51804">
        <ele>133.39999389648</ele>
        <time>2026-06-16T07:02:50.000Z</time>
      </trkpt>
      <trkpt lat="48.68033" lon="1.5182">
        <ele>133.19999694824</ele>
        <time>2026-06-16T07:03:00.000Z</time>
      </trkpt>
      <trkpt lat="48.68022" lon="1.51823">
        <ele>133.19999694824</ele>
        <time>2026-06-16T07:03:02.000Z</time>
      </trkpt>
      <trkpt lat="48.67964" lon="1.51839">
        <ele>133.39999389648</ele>
        <time>2026-06-16T07:03:12.000Z</time>
      </trkpt>
      <trkpt lat="48.67952" lon="1.5184">
        <ele>133.39999389648</ele>
        <time>2026-06-16T07:03:14.000Z</time>
      </trkpt>
      <trkpt lat="48.67898" lon="1.51844">
        <ele>133.19999694824</ele>
        <time>2026-06-16T07:03:23.000Z</time>
      </trkpt>
      <trkpt lat="48.67892" lon="1.51845">
        <ele>133.19999694824</ele>
        <time>2026-06-16T07:03:24.000Z</time>
      </trkpt>
      <trkpt lat="48.67886" lon="1.51848">
        <ele>133.19999694824</ele>
        <time>2026-06-16T07:03:25.000Z</time>
      </trkpt>
      <trkpt lat="48.67863" lon="1.51864">
        <ele>133</ele>
        <time>2026-06-16T07:03:29.000Z</time>
      </trkpt>
      <trkpt lat="48.67842" lon="1.51896">
        <ele>133</ele>
        <time>2026-06-16T07:03:34.000Z</time>
      </trkpt>
      <trkpt lat="48.67809" lon="1.51962">
        <ele>132.80000305176</ele>
        <time>2026-06-16T07:03:43.000Z</time>
      </trkpt>
      <trkpt lat="48.67806" lon="1.5197">
        <ele>132.80000305176</ele>
        <time>2026-06-16T07:03:44.000Z</time>
      </trkpt>
      <trkpt lat="48.67782" lon="1.5202">
        <ele>132.39999389648</ele>
        <time>2026-06-16T07:03:51.000Z</time>
      </trkpt>
      <trkpt lat="48.67771" lon="1.5204">
        <ele>132.39999389648</ele>
        <time>2026-06-16T07:03:54.000Z</time>
      </trkpt>
      <trkpt lat="48.67732" lon="1.52106">
        <ele>132.19999694824</ele>
        <time>2026-06-16T07:04:04.000Z</time>
      </trkpt>
      <trkpt lat="48.67712" lon="1.52137">
        <ele>132.19999694824</ele>
        <time>2026-06-16T07:04:09.000Z</time>
      </trkpt>
      <trkpt lat="48.67697" lon="1.52158">
        <ele>132.19999694824</ele>
        <time>2026-06-16T07:04:14.000Z</time>
      </trkpt>
      <trkpt lat="48.6769" lon="1.52166">
        <ele>132.39999389648</ele>
        <time>2026-06-16T07:04:19.000Z</time>
      </trkpt>
      <trkpt lat="48.67677" lon="1.52183">
        <ele>132.39999389648</ele>
        <time>2026-06-16T07:04:25.000Z</time>
      </trkpt>
      <trkpt lat="48.67656" lon="1.5221">
        <ele>132.39999389648</ele>
        <time>2026-06-16T07:04:31.000Z</time>
      </trkpt>
      <trkpt lat="48.67625" lon="1.5225">
        <ele>132.39999389648</ele>
        <time>2026-06-16T07:04:39.000Z</time>
      </trkpt>
      <trkpt lat="48.67589" lon="1.52298">
        <ele>132.39999389648</ele>
        <time>2026-06-16T07:04:48.000Z</time>
      </trkpt>
      <trkpt lat="48.67571" lon="1.52321">
        <ele>132.19999694824</ele>
        <time>2026-06-16T07:04:53.000Z</time>
      </trkpt>
      <trkpt lat="48.67558" lon="1.52328">
        <ele>132.19999694824</ele>
        <time>2026-06-16T07:04:55.000Z</time>
      </trkpt>
      <trkpt lat="48.67533" lon="1.52326">
        <ele>132.19999694824</ele>
        <time>2026-06-16T07:04:59.000Z</time>
      </trkpt>
      <trkpt lat="48.67502" lon="1.52315">
        <ele>131.60000610352</ele>
        <time>2026-06-16T07:05:04.000Z</time>
      </trkpt>
      <trkpt lat="48.67495" lon="1.52313">
        <ele>131.60000610352</ele>
        <time>2026-06-16T07:05:05.000Z</time>
      </trkpt>
      <trkpt lat="48.67489" lon="1.52311">
        <ele>131.39999389648</ele>
        <time>2026-06-16T07:05:06.000Z</time>
      </trkpt>
      <trkpt lat="48.67467" lon="1.52312">
        <ele>131</ele>
        <time>2026-06-16T07:05:09.000Z</time>
      </trkpt>
      <trkpt lat="48.67451" lon="1.52314">
        <ele>130.19999694824</ele>
        <time>2026-06-16T07:05:11.000Z</time>
      </trkpt>
      <trkpt lat="48.67427" lon="1.52314">
        <ele>129.60000610352</ele>
        <time>2026-06-16T07:05:14.000Z</time>
      </trkpt>
      <trkpt lat="48.67419" lon="1.52313">
        <ele>129.19999694824</ele>
        <time>2026-06-16T07:05:15.000Z</time>
      </trkpt>
      <trkpt lat="48.67395" lon="1.52304">
        <ele>127.59999847412</ele>
        <time>2026-06-16T07:05:18.000Z</time>
      </trkpt>
      <trkpt lat="48.6738" lon="1.52298">
        <ele>126.40000152588</ele>
        <time>2026-06-16T07:05:20.000Z</time>
      </trkpt>
      <trkpt lat="48.67373" lon="1.52295">
        <ele>125.80000305176</ele>
        <time>2026-06-16T07:05:21.000Z</time>
      </trkpt>
      <trkpt lat="48.67358" lon="1.52289">
        <ele>125.19999694824</ele>
        <time>2026-06-16T07:05:23.000Z</time>
      </trkpt>
      <trkpt lat="48.6735" lon="1.52289">
        <ele>125</ele>
        <time>2026-06-16T07:05:24.000Z</time>
      </trkpt>
      <trkpt lat="48.67343" lon="1.52291">
        <ele>124.59999847412</ele>
        <time>2026-06-16T07:05:25.000Z</time>
      </trkpt>
      <trkpt lat="48.67338" lon="1.52296">
        <ele>124.40000152588</ele>
        <time>2026-06-16T07:05:26.000Z</time>
      </trkpt>
      <trkpt lat="48.67333" lon="1.52303">
        <ele>123.80000305176</ele>
        <time>2026-06-16T07:05:27.000Z</time>
      </trkpt>
      <trkpt lat="48.6733" lon="1.52313">
        <ele>123.40000152588</ele>
        <time>2026-06-16T07:05:28.000Z</time>
      </trkpt>
      <trkpt lat="48.67329" lon="1.52336">
        <ele>122.59999847412</ele>
        <time>2026-06-16T07:05:30.000Z</time>
      </trkpt>
      <trkpt lat="48.67332" lon="1.52348">
        <ele>122.19999694824</ele>
        <time>2026-06-16T07:05:31.000Z</time>
      </trkpt>
      <trkpt lat="48.67339" lon="1.52371">
        <ele>121.19999694824</ele>
        <time>2026-06-16T07:05:33.000Z</time>
      </trkpt>
      <trkpt lat="48.67351" lon="1.52404">
        <ele>120.19999694824</ele>
        <time>2026-06-16T07:05:36.000Z</time>
      </trkpt>
      <trkpt lat="48.67356" lon="1.52414">
        <ele>119.59999847412</ele>
        <time>2026-06-16T07:05:37.000Z</time>
      </trkpt>
      <trkpt lat="48.67364" lon="1.52434">
        <ele>118.40000152588</ele>
        <time>2026-06-16T07:05:39.000Z</time>
      </trkpt>
      <trkpt lat="48.67367" lon="1.52443">
        <ele>117.80000305176</ele>
        <time>2026-06-16T07:05:40.000Z</time>
      </trkpt>
      <trkpt lat="48.67368" lon="1.52452">
        <ele>117.59999847412</ele>
        <time>2026-06-16T07:05:41.000Z</time>
      </trkpt>
      <trkpt lat="48.67369" lon="1.5246">
        <ele>117</ele>
        <time>2026-06-16T07:05:42.000Z</time>
      </trkpt>
      <trkpt lat="48.67364" lon="1.52473">
        <ele>116.59999847412</ele>
        <time>2026-06-16T07:05:44.000Z</time>
      </trkpt>
      <trkpt lat="48.67349" lon="1.52477">
        <ele>116</ele>
        <time>2026-06-16T07:05:47.000Z</time>
      </trkpt>
      <trkpt lat="48.67335" lon="1.52465">
        <ele>115.19999694824</ele>
        <time>2026-06-16T07:05:49.000Z</time>
      </trkpt>
      <trkpt lat="48.67328" lon="1.52458">
        <ele>114.80000305176</ele>
        <time>2026-06-16T07:05:50.000Z</time>
      </trkpt>
      <trkpt lat="48.67307" lon="1.52438">
        <ele>113.59999847412</ele>
        <time>2026-06-16T07:05:53.000Z</time>
      </trkpt>
      <trkpt lat="48.67287" lon="1.52416">
        <ele>112.59999847412</ele>
        <time>2026-06-16T07:05:56.000Z</time>
      </trkpt>
      <trkpt lat="48.67281" lon="1.52407">
        <ele>112.40000152588</ele>
        <time>2026-06-16T07:05:57.000Z</time>
      </trkpt>
      <trkpt lat="48.67271" lon="1.52388">
        <ele>111.40000152588</ele>
        <time>2026-06-16T07:05:59.000Z</time>
      </trkpt>
      <trkpt lat="48.67257" lon="1.5236">
        <ele>110</ele>
        <time>2026-06-16T07:06:02.000Z</time>
      </trkpt>
      <trkpt lat="48.67252" lon="1.52351">
        <ele>109.80000305176</ele>
        <time>2026-06-16T07:06:03.000Z</time>
      </trkpt>
      <trkpt lat="48.67238" lon="1.52329">
        <ele>108.59999847412</ele>
        <time>2026-06-16T07:06:06.000Z</time>
      </trkpt>
      <trkpt lat="48.67231" lon="1.52323">
        <ele>108</ele>
        <time>2026-06-16T07:06:07.000Z</time>
      </trkpt>
      <trkpt lat="48.67219" lon="1.52316">
        <ele>107.80000305176</ele>
        <time>2026-06-16T07:06:08.000Z</time>
      </trkpt>
      <trkpt lat="48.67211" lon="1.52313">
        <ele>107.19999694824</ele>
        <time>2026-06-16T07:06:09.000Z</time>
      </trkpt>
      <trkpt lat="48.67211" lon="1.52313">
        <ele>106.80000305176</ele>
        <time>2026-06-16T07:06:10.000Z</time>
      </trkpt>
      <trkpt lat="48.67192" lon="1.52309">
        <ele>105.59999847412</ele>
        <time>2026-06-16T07:06:12.000Z</time>
      </trkpt>
      <trkpt lat="48.67162" lon="1.52301">
        <ele>104.40000152588</ele>
        <time>2026-06-16T07:06:16.000Z</time>
      </trkpt>
      <trkpt lat="48.67156" lon="1.52299">
        <ele>104.19999694824</ele>
        <time>2026-06-16T07:06:17.000Z</time>
      </trkpt>
      <trkpt lat="48.67137" lon="1.52296">
        <ele>103.80000305176</ele>
        <time>2026-06-16T07:06:21.000Z</time>
      </trkpt>
      <trkpt lat="48.67113" lon="1.52301">
        <ele>103.59999847412</ele>
        <time>2026-06-16T07:06:25.000Z</time>
      </trkpt>
      <trkpt lat="48.67106" lon="1.52305">
        <ele>103.59999847412</ele>
        <time>2026-06-16T07:06:26.000Z</time>
      </trkpt>
      <trkpt lat="48.67094" lon="1.52315">
        <ele>103.19999694824</ele>
        <time>2026-06-16T07:06:28.000Z</time>
      </trkpt>
      <trkpt lat="48.67084" lon="1.52328">
        <ele>103</ele>
        <time>2026-06-16T07:06:30.000Z</time>
      </trkpt>
      <trkpt lat="48.6708" lon="1.52335">
        <ele>102.80000305176</ele>
        <time>2026-06-16T07:06:31.000Z</time>
      </trkpt>
      <trkpt lat="48.67071" lon="1.52347">
        <ele>102.59999847412</ele>
        <time>2026-06-16T07:06:33.000Z</time>
      </trkpt>
      <trkpt lat="48.67051" lon="1.52367">
        <ele>102.59999847412</ele>
        <time>2026-06-16T07:06:37.000Z</time>
      </trkpt>
      <trkpt lat="48.67035" lon="1.52378">
        <ele>102.59999847412</ele>
        <time>2026-06-16T07:06:40.000Z</time>
      </trkpt>
      <trkpt lat="48.67018" lon="1.52386">
        <ele>102.59999847412</ele>
        <time>2026-06-16T07:06:43.000Z</time>
      </trkpt>
      <trkpt lat="48.66978" lon="1.52408">
        <ele>102.59999847412</ele>
        <time>2026-06-16T07:06:51.000Z</time>
      </trkpt>
      <trkpt lat="48.66968" lon="1.52415">
        <ele>102.80000305176</ele>
        <time>2026-06-16T07:06:53.000Z</time>
      </trkpt>
      <trkpt lat="48.66954" lon="1.52428">
        <ele>102.80000305176</ele>
        <time>2026-06-16T07:06:56.000Z</time>
      </trkpt>
      <trkpt lat="48.66946" lon="1.52439">
        <ele>102.80000305176</ele>
        <time>2026-06-16T07:06:58.000Z</time>
      </trkpt>
      <trkpt lat="48.66931" lon="1.52467">
        <ele>103</ele>
        <time>2026-06-16T07:07:02.000Z</time>
      </trkpt>
      <trkpt lat="48.66926" lon="1.52483">
        <ele>103.19999694824</ele>
        <time>2026-06-16T07:07:04.000Z</time>
      </trkpt>
      <trkpt lat="48.66924" lon="1.52491">
        <ele>103.19999694824</ele>
        <time>2026-06-16T07:07:05.000Z</time>
      </trkpt>
      <trkpt lat="48.66915" lon="1.52522">
        <ele>103.19999694824</ele>
        <time>2026-06-16T07:07:09.000Z</time>
      </trkpt>
      <trkpt lat="48.66905" lon="1.52563">
        <ele>103</ele>
        <time>2026-06-16T07:07:14.000Z</time>
      </trkpt>
      <trkpt lat="48.66901" lon="1.52581">
        <ele>103</ele>
        <time>2026-06-16T07:07:16.000Z</time>
      </trkpt>
      <trkpt lat="48.66888" lon="1.52636">
        <ele>103.19999694824</ele>
        <time>2026-06-16T07:07:23.000Z</time>
      </trkpt>
      <trkpt lat="48.66882" lon="1.52663">
        <ele>104</ele>
        <time>2026-06-16T07:07:27.000Z</time>
      </trkpt>
      <trkpt lat="48.66881" lon="1.52669">
        <ele>104.19999694824</ele>
        <time>2026-06-16T07:07:28.000Z</time>
      </trkpt>
      <trkpt lat="48.66878" lon="1.52674">
        <ele>104.40000152588</ele>
        <time>2026-06-16T07:07:29.000Z</time>
      </trkpt>
      <trkpt lat="48.6687" lon="1.52682">
        <ele>105</ele>
        <time>2026-06-16T07:07:31.000Z</time>
      </trkpt>
      <trkpt lat="48.66865" lon="1.52687">
        <ele>105.40000152588</ele>
        <time>2026-06-16T07:07:32.000Z</time>
      </trkpt>
      <trkpt lat="48.66861" lon="1.5269">
        <ele>105.59999847412</ele>
        <time>2026-06-16T07:07:33.000Z</time>
      </trkpt>
      <trkpt lat="48.66853" lon="1.52693">
        <ele>106.40000152588</ele>
        <time>2026-06-16T07:07:35.000Z</time>
      </trkpt>
      <trkpt lat="48.66849" lon="1.52695">
        <ele>106.80000305176</ele>
        <time>2026-06-16T07:07:36.000Z</time>
      </trkpt>
      <trkpt lat="48.66845" lon="1.52699">
        <ele>107</ele>
        <time>2026-06-16T07:07:37.000Z</time>
      </trkpt>
      <trkpt lat="48.66837" lon="1.52705">
        <ele>107.40000152588</ele>
        <time>2026-06-16T07:07:39.000Z</time>
      </trkpt>
      <trkpt lat="48.66829" lon="1.5271">
        <ele>108</ele>
        <time>2026-06-16T07:07:41.000Z</time>
      </trkpt>
      <trkpt lat="48.66822" lon="1.52714">
        <ele>108.59999847412</ele>
        <time>2026-06-16T07:07:43.000Z</time>
      </trkpt>
      <trkpt lat="48.66809" lon="1.52724">
        <ele>109.59999847412</ele>
        <time>2026-06-16T07:07:47.000Z</time>
      </trkpt>
      <trkpt lat="48.66806" lon="1.52727">
        <ele>110</ele>
        <time>2026-06-16T07:07:48.000Z</time>
      </trkpt>
      <trkpt lat="48.66789" lon="1.52739">
        <ele>111.19999694824</ele>
        <time>2026-06-16T07:07:53.000Z</time>
      </trkpt>
      <trkpt lat="48.66786" lon="1.52741">
        <ele>111.59999847412</ele>
        <time>2026-06-16T07:07:54.000Z</time>
      </trkpt>
      <trkpt lat="48.66772" lon="1.52751">
        <ele>112.40000152588</ele>
        <time>2026-06-16T07:07:58.000Z</time>
      </trkpt>
      <trkpt lat="48.66758" lon="1.52761">
        <ele>113.40000152588</ele>
        <time>2026-06-16T07:08:02.000Z</time>
      </trkpt>
      <trkpt lat="48.66754" lon="1.52763">
        <ele>113.80000305176</ele>
        <time>2026-06-16T07:08:03.000Z</time>
      </trkpt>
      <trkpt lat="48.66737" lon="1.52775">
        <ele>115</ele>
        <time>2026-06-16T07:08:08.000Z</time>
      </trkpt>
      <trkpt lat="48.66734" lon="1.52777">
        <ele>115</ele>
        <time>2026-06-16T07:08:09.000Z</time>
      </trkpt>
      <trkpt lat="48.6672" lon="1.52787">
        <ele>116.19999694824</ele>
        <time>2026-06-16T07:08:13.000Z</time>
      </trkpt>
      <trkpt lat="48.66705" lon="1.52799">
        <ele>117.40000152588</ele>
        <time>2026-06-16T07:08:17.000Z</time>
      </trkpt>
      <trkpt lat="48.66677" lon="1.5283">
        <ele>118.19999694824</ele>
        <time>2026-06-16T07:08:25.000Z</time>
      </trkpt>
      <trkpt lat="48.66671" lon="1.5284">
        <ele>118.40000152588</ele>
        <time>2026-06-16T07:08:27.000Z</time>
      </trkpt>
      <trkpt lat="48.66653" lon="1.52872">
        <ele>118.59999847412</ele>
        <time>2026-06-16T07:08:33.000Z</time>
      </trkpt>
      <trkpt lat="48.66636" lon="1.52908">
        <ele>118.80000305176</ele>
        <time>2026-06-16T07:08:39.000Z</time>
      </trkpt>
      <trkpt lat="48.6663" lon="1.52919">
        <ele>119</ele>
        <time>2026-06-16T07:08:41.000Z</time>
      </trkpt>
      <trkpt lat="48.66606" lon="1.52965">
        <ele>119.19999694824</ele>
        <time>2026-06-16T07:08:49.000Z</time>
      </trkpt>
      <trkpt lat="48.66595" lon="1.52982">
        <ele>119.40000152588</ele>
        <time>2026-06-16T07:08:52.000Z</time>
      </trkpt>
      <trkpt lat="48.66579" lon="1.53001">
        <ele>119.80000305176</ele>
        <time>2026-06-16T07:08:56.000Z</time>
      </trkpt>
      <trkpt lat="48.66575" lon="1.53005">
        <ele>120</ele>
        <time>2026-06-16T07:08:57.000Z</time>
      </trkpt>
      <trkpt lat="48.66549" lon="1.53025">
        <ele>120.40000152588</ele>
        <time>2026-06-16T07:09:03.000Z</time>
      </trkpt>
      <trkpt lat="48.66545" lon="1.53029">
        <ele>120.40000152588</ele>
        <time>2026-06-16T07:09:04.000Z</time>
      </trkpt>
      <trkpt lat="48.66537" lon="1.53035">
        <ele>120.59999847412</ele>
        <time>2026-06-16T07:09:06.000Z</time>
      </trkpt>
      <trkpt lat="48.66517" lon="1.53051">
        <ele>121.19999694824</ele>
        <time>2026-06-16T07:09:11.000Z</time>
      </trkpt>
      <trkpt lat="48.66509" lon="1.53057">
        <ele>121.40000152588</ele>
        <time>2026-06-16T07:09:13.000Z</time>
      </trkpt>
      <trkpt lat="48.66505" lon="1.5306">
        <ele>121.59999847412</ele>
        <time>2026-06-16T07:09:14.000Z</time>
      </trkpt>
      <trkpt lat="48.66497" lon="1.53067">
        <ele>121.80000305176</ele>
        <time>2026-06-16T07:09:16.000Z</time>
      </trkpt>
      <trkpt lat="48.6649" lon="1.53073">
        <ele>122</ele>
        <time>2026-06-16T07:09:18.000Z</time>
      </trkpt>
      <trkpt lat="48.6647" lon="1.5309">
        <ele>122.59999847412</ele>
        <time>2026-06-16T07:09:23.000Z</time>
      </trkpt>
      <trkpt lat="48.66464" lon="1.53098">
        <ele>122.80000305176</ele>
        <time>2026-06-16T07:09:25.000Z</time>
      </trkpt>
      <trkpt lat="48.6644" lon="1.53131">
        <ele>123.40000152588</ele>
        <time>2026-06-16T07:09:32.000Z</time>
      </trkpt>
      <trkpt lat="48.66438" lon="1.53136">
        <ele>123.59999847412</ele>
        <time>2026-06-16T07:09:33.000Z</time>
      </trkpt>
      <trkpt lat="48.66418" lon="1.53192">
        <ele>124.40000152588</ele>
        <time>2026-06-16T07:09:42.000Z</time>
      </trkpt>
      <trkpt lat="48.66416" lon="1.53198">
        <ele>124.59999847412</ele>
        <time>2026-06-16T07:09:43.000Z</time>
      </trkpt>
      <trkpt lat="48.66397" lon="1.53245">
        <ele>125.40000152588</ele>
        <time>2026-06-16T07:09:50.000Z</time>
      </trkpt>
      <trkpt lat="48.66386" lon="1.53268">
        <ele>125.59999847412</ele>
        <time>2026-06-16T07:09:54.000Z</time>
      </trkpt>
      <trkpt lat="48.66366" lon="1.53307">
        <ele>126.40000152588</ele>
        <time>2026-06-16T07:10:01.000Z</time>
      </trkpt>
      <trkpt lat="48.66353" lon="1.53327">
        <ele>126.80000305176</ele>
        <time>2026-06-16T07:10:05.000Z</time>
      </trkpt>
      <trkpt lat="48.66337" lon="1.53352">
        <ele>127.40000152588</ele>
        <time>2026-06-16T07:10:10.000Z</time>
      </trkpt>
      <trkpt lat="48.66327" lon="1.53365">
        <ele>127.80000305176</ele>
        <time>2026-06-16T07:10:13.000Z</time>
      </trkpt>
      <trkpt lat="48.66305" lon="1.53391">
        <ele>128.60000610352</ele>
        <time>2026-06-16T07:10:19.000Z</time>
      </trkpt>
      <trkpt lat="48.66293" lon="1.53402">
        <ele>129</ele>
        <time>2026-06-16T07:10:22.000Z</time>
      </trkpt>
      <trkpt lat="48.66267" lon="1.53429">
        <ele>129.80000305176</ele>
        <time>2026-06-16T07:10:29.000Z</time>
      </trkpt>
      <trkpt lat="48.66263" lon="1.53433">
        <ele>130</ele>
        <time>2026-06-16T07:10:30.000Z</time>
      </trkpt>
      <trkpt lat="48.66231" lon="1.53465">
        <ele>130.80000305176</ele>
        <time>2026-06-16T07:10:38.000Z</time>
      </trkpt>
      <trkpt lat="48.66218" lon="1.53476">
        <ele>131.19999694824</ele>
        <time>2026-06-16T07:10:41.000Z</time>
      </trkpt>
      <trkpt lat="48.66185" lon="1.53506">
        <ele>132</ele>
        <time>2026-06-16T07:10:49.000Z</time>
      </trkpt>
      <trkpt lat="48.66176" lon="1.53513">
        <ele>132.19999694824</ele>
        <time>2026-06-16T07:10:51.000Z</time>
      </trkpt>
      <trkpt lat="48.66142" lon="1.53545">
        <ele>133.39999389648</ele>
        <time>2026-06-16T07:10:59.000Z</time>
      </trkpt>
      <trkpt lat="48.66129" lon="1.53556">
        <ele>133.60000610352</ele>
        <time>2026-06-16T07:11:02.000Z</time>
      </trkpt>
      <trkpt lat="48.66096" lon="1.5358">
        <ele>133.80000305176</ele>
        <time>2026-06-16T07:11:09.000Z</time>
      </trkpt>
      <trkpt lat="48.66045" lon="1.5361">
        <ele>134.19999694824</ele>
        <time>2026-06-16T07:11:19.000Z</time>
      </trkpt>
      <trkpt lat="48.6604" lon="1.53613">
        <ele>134.39999389648</ele>
        <time>2026-06-16T07:11:20.000Z</time>
      </trkpt>
      <trkpt lat="48.65985" lon="1.53648">
        <ele>134.80000305176</ele>
        <time>2026-06-16T07:11:31.000Z</time>
      </trkpt>
      <trkpt lat="48.65975" lon="1.53655">
        <ele>135</ele>
        <time>2026-06-16T07:11:33.000Z</time>
      </trkpt>
      <trkpt lat="48.65935" lon="1.53682">
        <ele>135.19999694824</ele>
        <time>2026-06-16T07:11:41.000Z</time>
      </trkpt>
      <trkpt lat="48.65891" lon="1.53724">
        <ele>135.19999694824</ele>
        <time>2026-06-16T07:11:50.000Z</time>
      </trkpt>
      <trkpt lat="48.65854" lon="1.53769">
        <ele>135</ele>
        <time>2026-06-16T07:11:58.000Z</time>
      </trkpt>
      <trkpt lat="48.65828" lon="1.53817">
        <ele>134.80000305176</ele>
        <time>2026-06-16T07:12:05.000Z</time>
      </trkpt>
      <trkpt lat="48.65825" lon="1.53824">
        <ele>134.80000305176</ele>
        <time>2026-06-16T07:12:06.000Z</time>
      </trkpt>
      <trkpt lat="48.65821" lon="1.53831">
        <ele>134.60000610352</ele>
        <time>2026-06-16T07:12:07.000Z</time>
      </trkpt>
      <trkpt lat="48.65807" lon="1.5386">
        <ele>134.60000610352</ele>
        <time>2026-06-16T07:12:11.000Z</time>
      </trkpt>
      <trkpt lat="48.65783" lon="1.53909">
        <ele>134.80000305176</ele>
        <time>2026-06-16T07:12:18.000Z</time>
      </trkpt>
      <trkpt lat="48.65766" lon="1.53943">
        <ele>134.80000305176</ele>
        <time>2026-06-16T07:12:23.000Z</time>
      </trkpt>
      <trkpt lat="48.65762" lon="1.53949">
        <ele>134.80000305176</ele>
        <time>2026-06-16T07:12:24.000Z</time>
      </trkpt>
      <trkpt lat="48.65728" lon="1.54014">
        <ele>135.19999694824</ele>
        <time>2026-06-16T07:12:33.000Z</time>
      </trkpt>
      <trkpt lat="48.657" lon="1.5407">
        <ele>135.39999389648</ele>
        <time>2026-06-16T07:12:41.000Z</time>
      </trkpt>
      <trkpt lat="48.65682" lon="1.54121">
        <ele>135.39999389648</ele>
        <time>2026-06-16T07:12:48.000Z</time>
      </trkpt>
      <trkpt lat="48.65673" lon="1.54183">
        <ele>135.39999389648</ele>
        <time>2026-06-16T07:12:55.000Z</time>
      </trkpt>
      <trkpt lat="48.65668" lon="1.54218">
        <ele>135.39999389648</ele>
        <time>2026-06-16T07:12:59.000Z</time>
      </trkpt>
      <trkpt lat="48.65664" lon="1.54253">
        <ele>135.60000610352</ele>
        <time>2026-06-16T07:13:03.000Z</time>
      </trkpt>
      <trkpt lat="48.6566" lon="1.54297">
        <ele>135.80000305176</ele>
        <time>2026-06-16T07:13:08.000Z</time>
      </trkpt>
      <trkpt lat="48.6566" lon="1.54305">
        <ele>135.80000305176</ele>
        <time>2026-06-16T07:13:09.000Z</time>
      </trkpt>
      <trkpt lat="48.65662" lon="1.54313">
        <ele>135.80000305176</ele>
        <time>2026-06-16T07:13:10.000Z</time>
      </trkpt>
      <trkpt lat="48.65665" lon="1.54327">
        <ele>136</ele>
        <time>2026-06-16T07:13:12.000Z</time>
      </trkpt>
      <trkpt lat="48.65667" lon="1.54333">
        <ele>136</ele>
        <time>2026-06-16T07:13:13.000Z</time>
      </trkpt>
      <trkpt lat="48.65674" lon="1.54353">
        <ele>136.60000610352</ele>
        <time>2026-06-16T07:13:17.000Z</time>
      </trkpt>
      <trkpt lat="48.65675" lon="1.54358">
        <ele>136.60000610352</ele>
        <time>2026-06-16T07:13:18.000Z</time>
      </trkpt>
      <trkpt lat="48.65675" lon="1.54363">
        <ele>136.80000305176</ele>
        <time>2026-06-16T07:13:19.000Z</time>
      </trkpt>
      <trkpt lat="48.65675" lon="1.54368">
        <ele>136.80000305176</ele>
        <time>2026-06-16T07:13:20.000Z</time>
      </trkpt>
      <trkpt lat="48.6567" lon="1.54377">
        <ele>137</ele>
        <time>2026-06-16T07:13:22.000Z</time>
      </trkpt>
      <trkpt lat="48.65648" lon="1.54396">
        <ele>137.19999694824</ele>
        <time>2026-06-16T07:13:28.000Z</time>
      </trkpt>
      <trkpt lat="48.65638" lon="1.54398">
        <ele>137.19999694824</ele>
        <time>2026-06-16T07:13:30.000Z</time>
      </trkpt>
      <trkpt lat="48.65628" lon="1.54395">
        <ele>137.19999694824</ele>
        <time>2026-06-16T07:13:32.000Z</time>
      </trkpt>
      <trkpt lat="48.65599" lon="1.54383">
        <ele>136.80000305176</ele>
        <time>2026-06-16T07:13:37.000Z</time>
      </trkpt>
      <trkpt lat="48.65554" lon="1.54377">
        <ele>135.60000610352</ele>
        <time>2026-06-16T07:13:44.000Z</time>
      </trkpt>
      <trkpt lat="48.65547" lon="1.54378">
        <ele>135.39999389648</ele>
        <time>2026-06-16T07:13:45.000Z</time>
      </trkpt>
      <trkpt lat="48.6552" lon="1.5438">
        <ele>134.19999694824</ele>
        <time>2026-06-16T07:13:49.000Z</time>
      </trkpt>
      <trkpt lat="48.65505" lon="1.54383">
        <ele>133.80000305176</ele>
        <time>2026-06-16T07:13:51.000Z</time>
      </trkpt>
      <trkpt lat="48.6549" lon="1.54389">
        <ele>133.60000610352</ele>
        <time>2026-06-16T07:13:53.000Z</time>
      </trkpt>
      <trkpt lat="48.65482" lon="1.54394">
        <ele>133.19999694824</ele>
        <time>2026-06-16T07:13:54.000Z</time>
      </trkpt>
      <trkpt lat="48.65474" lon="1.544">
        <ele>133</ele>
        <time>2026-06-16T07:13:55.000Z</time>
      </trkpt>
      <trkpt lat="48.65467" lon="1.54407">
        <ele>132.39999389648</ele>
        <time>2026-06-16T07:13:56.000Z</time>
      </trkpt>
      <trkpt lat="48.65452" lon="1.54423">
        <ele>132</ele>
        <time>2026-06-16T07:13:58.000Z</time>
      </trkpt>
      <trkpt lat="48.65444" lon="1.54431">
        <ele>131.39999389648</ele>
        <time>2026-06-16T07:13:59.000Z</time>
      </trkpt>
      <trkpt lat="48.65429" lon="1.5445">
        <ele>130.80000305176</ele>
        <time>2026-06-16T07:14:01.000Z</time>
      </trkpt>
      <trkpt lat="48.65407" lon="1.54481">
        <ele>129.39999389648</ele>
        <time>2026-06-16T07:14:04.000Z</time>
      </trkpt>
      <trkpt lat="48.65399" lon="1.54492">
        <ele>129</ele>
        <time>2026-06-16T07:14:05.000Z</time>
      </trkpt>
      <trkpt lat="48.65384" lon="1.54513">
        <ele>128.19999694824</ele>
        <time>2026-06-16T07:14:07.000Z</time>
      </trkpt>
      <trkpt lat="48.65359" lon="1.54545">
        <ele>126.59999847412</ele>
        <time>2026-06-16T07:14:10.000Z</time>
      </trkpt>
      <trkpt lat="48.65343" lon="1.54565">
        <ele>126</ele>
        <time>2026-06-16T07:14:12.000Z</time>
      </trkpt>
      <trkpt lat="48.65334" lon="1.54576">
        <ele>125.19999694824</ele>
        <time>2026-06-16T07:14:13.000Z</time>
      </trkpt>
      <trkpt lat="48.65309" lon="1.54608">
        <ele>123.80000305176</ele>
        <time>2026-06-16T07:14:16.000Z</time>
      </trkpt>
      <trkpt lat="48.65292" lon="1.5463">
        <ele>122.80000305176</ele>
        <time>2026-06-16T07:14:18.000Z</time>
      </trkpt>
      <trkpt lat="48.65276" lon="1.54652">
        <ele>121.80000305176</ele>
        <time>2026-06-16T07:14:20.000Z</time>
      </trkpt>
      <trkpt lat="48.65268" lon="1.54663">
        <ele>121.19999694824</ele>
        <time>2026-06-16T07:14:21.000Z</time>
      </trkpt>
      <trkpt lat="48.65255" lon="1.54685">
        <ele>120</ele>
        <time>2026-06-16T07:14:23.000Z</time>
      </trkpt>
      <trkpt lat="48.65243" lon="1.54709">
        <ele>118.80000305176</ele>
        <time>2026-06-16T07:14:25.000Z</time>
      </trkpt>
      <trkpt lat="48.65227" lon="1.54743">
        <ele>118</ele>
        <time>2026-06-16T07:14:28.000Z</time>
      </trkpt>
      <trkpt lat="48.65221" lon="1.54753">
        <ele>117.40000152588</ele>
        <time>2026-06-16T07:14:29.000Z</time>
      </trkpt>
      <trkpt lat="48.65215" lon="1.54761">
        <ele>116.80000305176</ele>
        <time>2026-06-16T07:14:30.000Z</time>
      </trkpt>
      <trkpt lat="48.65208" lon="1.54766">
        <ele>116.40000152588</ele>
        <time>2026-06-16T07:14:31.000Z</time>
      </trkpt>
      <trkpt lat="48.65195" lon="1.54768">
        <ele>115.19999694824</ele>
        <time>2026-06-16T07:14:33.000Z</time>
      </trkpt>
      <trkpt lat="48.65184" lon="1.5476">
        <ele>114.19999694824</ele>
        <time>2026-06-16T07:14:35.000Z</time>
      </trkpt>
      <trkpt lat="48.65179" lon="1.54755">
        <ele>114</ele>
        <time>2026-06-16T07:14:36.000Z</time>
      </trkpt>
      <trkpt lat="48.65174" lon="1.54752">
        <ele>113.59999847412</ele>
        <time>2026-06-16T07:14:37.000Z</time>
      </trkpt>
      <trkpt lat="48.65166" lon="1.54754">
        <ele>113.19999694824</ele>
        <time>2026-06-16T07:14:38.000Z</time>
      </trkpt>
      <trkpt lat="48.65162" lon="1.5476">
        <ele>113</ele>
        <time>2026-06-16T07:14:39.000Z</time>
      </trkpt>
      <trkpt lat="48.65159" lon="1.54767">
        <ele>112.59999847412</ele>
        <time>2026-06-16T07:14:41.000Z</time>
      </trkpt>
      <trkpt lat="48.65133" lon="1.54827">
        <ele>112.80000305176</ele>
        <time>2026-06-16T07:14:50.000Z</time>
      </trkpt>
      <trkpt lat="48.65125" lon="1.54843">
        <ele>113.40000152588</ele>
        <time>2026-06-16T07:14:53.000Z</time>
      </trkpt>
      <trkpt lat="48.65118" lon="1.5486">
        <ele>114</ele>
        <time>2026-06-16T07:14:56.000Z</time>
      </trkpt>
      <trkpt lat="48.65115" lon="1.54866">
        <ele>114.19999694824</ele>
        <time>2026-06-16T07:14:57.000Z</time>
      </trkpt>
      <trkpt lat="48.65103" lon="1.54894">
        <ele>115.40000152588</ele>
        <time>2026-06-16T07:15:02.000Z</time>
      </trkpt>
      <trkpt lat="48.65098" lon="1.54906">
        <ele>115.80000305176</ele>
        <time>2026-06-16T07:15:04.000Z</time>
      </trkpt>
      <trkpt lat="48.65092" lon="1.54917">
        <ele>116.40000152588</ele>
        <time>2026-06-16T07:15:06.000Z</time>
      </trkpt>
      <trkpt lat="48.6508" lon="1.54944">
        <ele>117.40000152588</ele>
        <time>2026-06-16T07:15:11.000Z</time>
      </trkpt>
      <trkpt lat="48.65077" lon="1.5495">
        <ele>117.80000305176</ele>
        <time>2026-06-16T07:15:12.000Z</time>
      </trkpt>
      <trkpt lat="48.65065" lon="1.54978">
        <ele>118.59999847412</ele>
        <time>2026-06-16T07:15:17.000Z</time>
      </trkpt>
      <trkpt lat="48.6506" lon="1.54988">
        <ele>119.19999694824</ele>
        <time>2026-06-16T07:15:19.000Z</time>
      </trkpt>
      <trkpt lat="48.6505" lon="1.55009">
        <ele>119.80000305176</ele>
        <time>2026-06-16T07:15:23.000Z</time>
      </trkpt>
      <trkpt lat="48.65035" lon="1.5504">
        <ele>120.80000305176</ele>
        <time>2026-06-16T07:15:29.000Z</time>
      </trkpt>
      <trkpt lat="48.65033" lon="1.55046">
        <ele>120.80000305176</ele>
        <time>2026-06-16T07:15:30.000Z</time>
      </trkpt>
      <trkpt lat="48.65017" lon="1.55085">
        <ele>122</ele>
        <time>2026-06-16T07:15:38.000Z</time>
      </trkpt>
      <trkpt lat="48.65006" lon="1.55115">
        <ele>123.19999694824</ele>
        <time>2026-06-16T07:15:43.000Z</time>
      </trkpt>
      <trkpt lat="48.64999" lon="1.55138">
        <ele>124.19999694824</ele>
        <time>2026-06-16T07:15:48.000Z</time>
      </trkpt>
      <trkpt lat="48.64998" lon="1.55144">
        <ele>124.19999694824</ele>
        <time>2026-06-16T07:15:49.000Z</time>
      </trkpt>
      <trkpt lat="48.64991" lon="1.55185">
        <ele>125.40000152588</ele>
        <time>2026-06-16T07:15:56.000Z</time>
      </trkpt>
      <trkpt lat="48.6499" lon="1.55196">
        <ele>125.59999847412</ele>
        <time>2026-06-16T07:15:58.000Z</time>
      </trkpt>
      <trkpt lat="48.6499" lon="1.55223">
        <ele>126.59999847412</ele>
        <time>2026-06-16T07:16:03.000Z</time>
      </trkpt>
      <trkpt lat="48.64992" lon="1.55242">
        <ele>127</ele>
        <time>2026-06-16T07:16:06.000Z</time>
      </trkpt>
      <trkpt lat="48.64995" lon="1.55269">
        <ele>127.59999847412</ele>
        <time>2026-06-16T07:16:10.000Z</time>
      </trkpt>
      <trkpt lat="48.64998" lon="1.55296">
        <ele>128</ele>
        <time>2026-06-16T07:16:14.000Z</time>
      </trkpt>
      <trkpt lat="48.65003" lon="1.55339">
        <ele>128.80000305176</ele>
        <time>2026-06-16T07:16:20.000Z</time>
      </trkpt>
      <trkpt lat="48.65007" lon="1.55377">
        <ele>129.19999694824</ele>
        <time>2026-06-16T07:16:25.000Z</time>
      </trkpt>
      <trkpt lat="48.65017" lon="1.55461">
        <ele>129.60000610352</ele>
        <time>2026-06-16T07:16:36.000Z</time>
      </trkpt>
      <trkpt lat="48.65019" lon="1.55476">
        <ele>129.60000610352</ele>
        <time>2026-06-16T07:16:38.000Z</time>
      </trkpt>
      <trkpt lat="48.65021" lon="1.55498">
        <ele>129.80000305176</ele>
        <time>2026-06-16T07:16:41.000Z</time>
      </trkpt>
      <trkpt lat="48.65027" lon="1.55556">
        <ele>130.39999389648</ele>
        <time>2026-06-16T07:16:49.000Z</time>
      </trkpt>
      <trkpt lat="48.65028" lon="1.55569">
        <ele>130.60000610352</ele>
        <time>2026-06-16T07:16:51.000Z</time>
      </trkpt>
      <trkpt lat="48.65029" lon="1.55598">
        <ele>130.80000305176</ele>
        <time>2026-06-16T07:16:55.000Z</time>
      </trkpt>
      <trkpt lat="48.65029" lon="1.55605">
        <ele>131</ele>
        <time>2026-06-16T07:16:56.000Z</time>
      </trkpt>
      <trkpt lat="48.65023" lon="1.55673">
        <ele>131.80000305176</ele>
        <time>2026-06-16T07:17:05.000Z</time>
      </trkpt>
      <trkpt lat="48.65022" lon="1.55681">
        <ele>132</ele>
        <time>2026-06-16T07:17:06.000Z</time>
      </trkpt>
      <trkpt lat="48.65016" lon="1.55724">
        <ele>133</ele>
        <time>2026-06-16T07:17:12.000Z</time>
      </trkpt>
      <trkpt lat="48.65012" lon="1.55745">
        <ele>133.39999389648</ele>
        <time>2026-06-16T07:17:15.000Z</time>
      </trkpt>
      <trkpt lat="48.65003" lon="1.55801">
        <ele>133.80000305176</ele>
        <time>2026-06-16T07:17:23.000Z</time>
      </trkpt>
      <trkpt lat="48.65" lon="1.55822">
        <ele>134.19999694824</ele>
        <time>2026-06-16T07:17:26.000Z</time>
      </trkpt>
      <trkpt lat="48.64993" lon="1.55864">
        <ele>135</ele>
        <time>2026-06-16T07:17:32.000Z</time>
      </trkpt>
      <trkpt lat="48.6499" lon="1.55885">
        <ele>135.19999694824</ele>
        <time>2026-06-16T07:17:35.000Z</time>
      </trkpt>
      <trkpt lat="48.64982" lon="1.55913">
        <ele>136</ele>
        <time>2026-06-16T07:17:40.000Z</time>
      </trkpt>
      <trkpt lat="48.64979" lon="1.55918">
        <ele>136.19999694824</ele>
        <time>2026-06-16T07:17:41.000Z</time>
      </trkpt>
      <trkpt lat="48.64966" lon="1.5593">
        <ele>136.60000610352</ele>
        <time>2026-06-16T07:17:44.000Z</time>
      </trkpt>
      <trkpt lat="48.64958" lon="1.55944">
        <ele>136.80000305176</ele>
        <time>2026-06-16T07:17:46.000Z</time>
      </trkpt>
      <trkpt lat="48.64954" lon="1.55959">
        <ele>137</ele>
        <time>2026-06-16T07:17:48.000Z</time>
      </trkpt>
      <trkpt lat="48.64953" lon="1.55967">
        <ele>137.19999694824</ele>
        <time>2026-06-16T07:17:49.000Z</time>
      </trkpt>
      <trkpt lat="48.64954" lon="1.55976">
        <ele>137.19999694824</ele>
        <time>2026-06-16T07:17:50.000Z</time>
      </trkpt>
      <trkpt lat="48.64957" lon="1.55992">
        <ele>137.39999389648</ele>
        <time>2026-06-16T07:17:52.000Z</time>
      </trkpt>
      <trkpt lat="48.64961" lon="1.56006">
        <ele>137.60000610352</ele>
        <time>2026-06-16T07:17:54.000Z</time>
      </trkpt>
      <trkpt lat="48.64961" lon="1.56023">
        <ele>137.60000610352</ele>
        <time>2026-06-16T07:17:56.000Z</time>
      </trkpt>
      <trkpt lat="48.64958" lon="1.56038">
        <ele>137.80000305176</ele>
        <time>2026-06-16T07:17:58.000Z</time>
      </trkpt>
      <trkpt lat="48.64952" lon="1.56059">
        <ele>138</ele>
        <time>2026-06-16T07:18:01.000Z</time>
      </trkpt>
      <trkpt lat="48.64933" lon="1.56121">
        <ele>137.39999389648</ele>
        <time>2026-06-16T07:18:08.000Z</time>
      </trkpt>
      <trkpt lat="48.64907" lon="1.56201">
        <ele>136.80000305176</ele>
        <time>2026-06-16T07:18:17.000Z</time>
      </trkpt>
      <trkpt lat="48.64901" lon="1.56219">
        <ele>136.80000305176</ele>
        <time>2026-06-16T07:18:19.000Z</time>
      </trkpt>
      <trkpt lat="48.64876" lon="1.56302">
        <ele>136.39999389648</ele>
        <time>2026-06-16T07:18:28.000Z</time>
      </trkpt>
      <trkpt lat="48.64869" lon="1.56322">
        <ele>136.39999389648</ele>
        <time>2026-06-16T07:18:30.000Z</time>
      </trkpt>
      <trkpt lat="48.64843" lon="1.564">
        <ele>136.19999694824</ele>
        <time>2026-06-16T07:18:38.000Z</time>
      </trkpt>
      <trkpt lat="48.6484" lon="1.5641">
        <ele>136.19999694824</ele>
        <time>2026-06-16T07:18:39.000Z</time>
      </trkpt>
      <trkpt lat="48.64814" lon="1.56492">
        <ele>135.80000305176</ele>
        <time>2026-06-16T07:18:48.000Z</time>
      </trkpt>
      <trkpt lat="48.64788" lon="1.56572">
        <ele>136</ele>
        <time>2026-06-16T07:18:58.000Z</time>
      </trkpt>
      <trkpt lat="48.64767" lon="1.5664">
        <ele>136.60000610352</ele>
        <time>2026-06-16T07:19:07.000Z</time>
      </trkpt>
      <trkpt lat="48.64751" lon="1.56692">
        <ele>137.39999389648</ele>
        <time>2026-06-16T07:19:14.000Z</time>
      </trkpt>
      <trkpt lat="48.64742" lon="1.56722">
        <ele>137.80000305176</ele>
        <time>2026-06-16T07:19:18.000Z</time>
      </trkpt>
      <trkpt lat="48.64728" lon="1.56766">
        <ele>138.60000610352</ele>
        <time>2026-06-16T07:19:24.000Z</time>
      </trkpt>
      <trkpt lat="48.64718" lon="1.56798">
        <ele>139.39999389648</ele>
        <time>2026-06-16T07:19:28.000Z</time>
      </trkpt>
      <trkpt lat="48.64716" lon="1.56805">
        <ele>139.60000610352</ele>
        <time>2026-06-16T07:19:29.000Z</time>
      </trkpt>
      <trkpt lat="48.64696" lon="1.56862">
        <ele>140.60000610352</ele>
        <time>2026-06-16T07:19:37.000Z</time>
      </trkpt>
      <trkpt lat="48.64694" lon="1.56869">
        <ele>140.80000305176</ele>
        <time>2026-06-16T07:19:38.000Z</time>
      </trkpt>
      <trkpt lat="48.64676" lon="1.56922">
        <ele>141.60000610352</ele>
        <time>2026-06-16T07:19:45.000Z</time>
      </trkpt>
      <trkpt lat="48.64668" lon="1.56945">
        <ele>142</ele>
        <time>2026-06-16T07:19:48.000Z</time>
      </trkpt>
      <trkpt lat="48.64642" lon="1.57022">
        <ele>142.60000610352</ele>
        <time>2026-06-16T07:19:58.000Z</time>
      </trkpt>
      <trkpt lat="48.64639" lon="1.5703">
        <ele>142.60000610352</ele>
        <time>2026-06-16T07:19:59.000Z</time>
      </trkpt>
      <trkpt lat="48.64634" lon="1.57045">
        <ele>142.80000305176</ele>
        <time>2026-06-16T07:20:01.000Z</time>
      </trkpt>
      <trkpt lat="48.64614" lon="1.57104">
        <ele>143.19999694824</ele>
        <time>2026-06-16T07:20:09.000Z</time>
      </trkpt>
      <trkpt lat="48.64609" lon="1.57118">
        <ele>143.60000610352</ele>
        <time>2026-06-16T07:20:11.000Z</time>
      </trkpt>
      <trkpt lat="48.64593" lon="1.57162">
        <ele>144.19999694824</ele>
        <time>2026-06-16T07:20:17.000Z</time>
      </trkpt>
      <trkpt lat="48.6459" lon="1.5717">
        <ele>144.39999389648</ele>
        <time>2026-06-16T07:20:18.000Z</time>
      </trkpt>
      <trkpt lat="48.64573" lon="1.57219">
        <ele>144.80000305176</ele>
        <time>2026-06-16T07:20:24.000Z</time>
      </trkpt>
      <trkpt lat="48.64568" lon="1.57235">
        <ele>145</ele>
        <time>2026-06-16T07:20:26.000Z</time>
      </trkpt>
      <trkpt lat="48.64541" lon="1.57311">
        <ele>145.19999694824</ele>
        <time>2026-06-16T07:20:36.000Z</time>
      </trkpt>
      <trkpt lat="48.64513" lon="1.57388">
        <ele>145.60000610352</ele>
        <time>2026-06-16T07:20:46.000Z</time>
      </trkpt>
      <trkpt lat="48.64503" lon="1.57411">
        <ele>145.80000305176</ele>
        <time>2026-06-16T07:20:49.000Z</time>
      </trkpt>
      <trkpt lat="48.64474" lon="1.57484">
        <ele>145.80000305176</ele>
        <time>2026-06-16T07:20:58.000Z</time>
      </trkpt>
      <trkpt lat="48.64471" lon="1.57492">
        <ele>145.60000610352</ele>
        <time>2026-06-16T07:20:59.000Z</time>
      </trkpt>
      <trkpt lat="48.64442" lon="1.57565">
        <ele>145.80000305176</ele>
        <time>2026-06-16T07:21:08.000Z</time>
      </trkpt>
      <trkpt lat="48.64435" lon="1.57582">
        <ele>145.80000305176</ele>
        <time>2026-06-16T07:21:10.000Z</time>
      </trkpt>
      <trkpt lat="48.64408" lon="1.5766">
        <ele>146.60000610352</ele>
        <time>2026-06-16T07:21:20.000Z</time>
      </trkpt>
      <trkpt lat="48.64387" lon="1.57724">
        <ele>146.80000305176</ele>
        <time>2026-06-16T07:21:28.000Z</time>
      </trkpt>
      <trkpt lat="48.64385" lon="1.57733">
        <ele>147</ele>
        <time>2026-06-16T07:21:29.000Z</time>
      </trkpt>
      <trkpt lat="48.64358" lon="1.57813">
        <ele>147.39999389648</ele>
        <time>2026-06-16T07:21:39.000Z</time>
      </trkpt>
      <trkpt lat="48.64355" lon="1.57822">
        <ele>147.39999389648</ele>
        <time>2026-06-16T07:21:40.000Z</time>
      </trkpt>
      <trkpt lat="48.64331" lon="1.57883">
        <ele>148</ele>
        <time>2026-06-16T07:21:48.000Z</time>
      </trkpt>
      <trkpt lat="48.64328" lon="1.57891">
        <ele>148</ele>
        <time>2026-06-16T07:21:49.000Z</time>
      </trkpt>
      <trkpt lat="48.64296" lon="1.57957">
        <ele>148.80000305176</ele>
        <time>2026-06-16T07:21:58.000Z</time>
      </trkpt>
      <trkpt lat="48.64292" lon="1.57964">
        <ele>148.80000305176</ele>
        <time>2026-06-16T07:21:59.000Z</time>
      </trkpt>
      <trkpt lat="48.64251" lon="1.5803">
        <ele>148.80000305176</ele>
        <time>2026-06-16T07:22:08.000Z</time>
      </trkpt>
      <trkpt lat="48.64246" lon="1.58036">
        <ele>148.60000610352</ele>
        <time>2026-06-16T07:22:09.000Z</time>
      </trkpt>
      <trkpt lat="48.64204" lon="1.58091">
        <ele>148.60000610352</ele>
        <time>2026-06-16T07:22:18.000Z</time>
      </trkpt>
      <trkpt lat="48.642" lon="1.58097">
        <ele>148.60000610352</ele>
        <time>2026-06-16T07:22:19.000Z</time>
      </trkpt>
      <trkpt lat="48.64165" lon="1.58152">
        <ele>149</ele>
        <time>2026-06-16T07:22:27.000Z</time>
      </trkpt>
      <trkpt lat="48.64161" lon="1.5816">
        <ele>149</ele>
        <time>2026-06-16T07:22:28.000Z</time>
      </trkpt>
      <trkpt lat="48.64128" lon="1.58226">
        <ele>149</ele>
        <time>2026-06-16T07:22:36.000Z</time>
      </trkpt>
      <trkpt lat="48.64097" lon="1.58299">
        <ele>148.19999694824</ele>
        <time>2026-06-16T07:22:44.000Z</time>
      </trkpt>
      <trkpt lat="48.64086" lon="1.58328">
        <ele>147.80000305176</ele>
        <time>2026-06-16T07:22:47.000Z</time>
      </trkpt>
      <trkpt lat="48.64056" lon="1.58402">
        <ele>147</ele>
        <time>2026-06-16T07:22:55.000Z</time>
      </trkpt>
      <trkpt lat="48.64042" lon="1.58437">
        <ele>147</ele>
        <time>2026-06-16T07:22:59.000Z</time>
      </trkpt>
      <trkpt lat="48.64022" lon="1.58487">
        <ele>146.80000305176</ele>
        <time>2026-06-16T07:23:05.000Z</time>
      </trkpt>
      <trkpt lat="48.64008" lon="1.58521">
        <ele>146.60000610352</ele>
        <time>2026-06-16T07:23:09.000Z</time>
      </trkpt>
      <trkpt lat="48.6398" lon="1.58589">
        <ele>146.39999389648</ele>
        <time>2026-06-16T07:23:17.000Z</time>
      </trkpt>
      <trkpt lat="48.63949" lon="1.58666">
        <ele>145.80000305176</ele>
        <time>2026-06-16T07:23:26.000Z</time>
      </trkpt>
      <trkpt lat="48.63938" lon="1.58691">
        <ele>145.80000305176</ele>
        <time>2026-06-16T07:23:29.000Z</time>
      </trkpt>
      <trkpt lat="48.63909" lon="1.58764">
        <ele>145.60000610352</ele>
        <time>2026-06-16T07:23:38.000Z</time>
      </trkpt>
      <trkpt lat="48.63896" lon="1.58796">
        <ele>145.60000610352</ele>
        <time>2026-06-16T07:23:42.000Z</time>
      </trkpt>
      <trkpt lat="48.63873" lon="1.58864">
        <ele>145.80000305176</ele>
        <time>2026-06-16T07:23:50.000Z</time>
      </trkpt>
      <trkpt lat="48.6386" lon="1.58928">
        <ele>146.19999694824</ele>
        <time>2026-06-16T07:23:57.000Z</time>
      </trkpt>
      <trkpt lat="48.63855" lon="1.59014">
        <ele>146.39999389648</ele>
        <time>2026-06-16T07:24:06.000Z</time>
      </trkpt>
      <trkpt lat="48.63857" lon="1.59074">
        <ele>146.60000610352</ele>
        <time>2026-06-16T07:24:12.000Z</time>
      </trkpt>
      <trkpt lat="48.63858" lon="1.59143">
        <ele>146.80000305176</ele>
        <time>2026-06-16T07:24:19.000Z</time>
      </trkpt>
      <trkpt lat="48.63858" lon="1.59163">
        <ele>146.80000305176</ele>
        <time>2026-06-16T07:24:21.000Z</time>
      </trkpt>
      <trkpt lat="48.63854" lon="1.59242">
        <ele>147</ele>
        <time>2026-06-16T07:24:29.000Z</time>
      </trkpt>
      <trkpt lat="48.63846" lon="1.59328">
        <ele>147.19999694824</ele>
        <time>2026-06-16T07:24:38.000Z</time>
      </trkpt>
      <trkpt lat="48.63845" lon="1.59337">
        <ele>147.19999694824</ele>
        <time>2026-06-16T07:24:39.000Z</time>
      </trkpt>
      <trkpt lat="48.63836" lon="1.59425">
        <ele>147.39999389648</ele>
        <time>2026-06-16T07:24:48.000Z</time>
      </trkpt>
      <trkpt lat="48.63826" lon="1.59514">
        <ele>147.19999694824</ele>
        <time>2026-06-16T07:24:57.000Z</time>
      </trkpt>
      <trkpt lat="48.63823" lon="1.59534">
        <ele>147.19999694824</ele>
        <time>2026-06-16T07:24:59.000Z</time>
      </trkpt>
      <trkpt lat="48.63814" lon="1.59614">
        <ele>147</ele>
        <time>2026-06-16T07:25:07.000Z</time>
      </trkpt>
      <trkpt lat="48.6381" lon="1.59639">
        <ele>146.80000305176</ele>
        <time>2026-06-16T07:25:09.000Z</time>
      </trkpt>
      <trkpt lat="48.63806" lon="1.59669">
        <ele>146.80000305176</ele>
        <time>2026-06-16T07:25:13.000Z</time>
      </trkpt>
      <trkpt lat="48.63801" lon="1.59687">
        <ele>146.80000305176</ele>
        <time>2026-06-16T07:25:15.000Z</time>
      </trkpt>
      <trkpt lat="48.63775" lon="1.59762">
        <ele>147</ele>
        <time>2026-06-16T07:25:24.000Z</time>
      </trkpt>
      <trkpt lat="48.63772" lon="1.59771">
        <ele>147</ele>
        <time>2026-06-16T07:25:25.000Z</time>
      </trkpt>
      <trkpt lat="48.63742" lon="1.59848">
        <ele>147.39999389648</ele>
        <time>2026-06-16T07:25:34.000Z</time>
      </trkpt>
      <trkpt lat="48.63739" lon="1.59857">
        <ele>147.39999389648</ele>
        <time>2026-06-16T07:25:35.000Z</time>
      </trkpt>
      <trkpt lat="48.63711" lon="1.59933">
        <ele>147.19999694824</ele>
        <time>2026-06-16T07:25:44.000Z</time>
      </trkpt>
      <trkpt lat="48.63684" lon="1.60008">
        <ele>147</ele>
        <time>2026-06-16T07:25:53.000Z</time>
      </trkpt>
      <trkpt lat="48.63672" lon="1.60042">
        <ele>146.80000305176</ele>
        <time>2026-06-16T07:25:57.000Z</time>
      </trkpt>
      <trkpt lat="48.63643" lon="1.60122">
        <ele>146.39999389648</ele>
        <time>2026-06-16T07:26:06.000Z</time>
      </trkpt>
      <trkpt lat="48.63614" lon="1.60199">
        <ele>146.19999694824</ele>
        <time>2026-06-16T07:26:15.000Z</time>
      </trkpt>
      <trkpt lat="48.63596" lon="1.60247">
        <ele>146.19999694824</ele>
        <time>2026-06-16T07:26:20.000Z</time>
      </trkpt>
      <trkpt lat="48.63567" lon="1.60327">
        <ele>146.19999694824</ele>
        <time>2026-06-16T07:26:29.000Z</time>
      </trkpt>
      <trkpt lat="48.63558" lon="1.60354">
        <ele>146</ele>
        <time>2026-06-16T07:26:32.000Z</time>
      </trkpt>
      <trkpt lat="48.6353" lon="1.6043">
        <ele>146</ele>
        <time>2026-06-16T07:26:41.000Z</time>
      </trkpt>
      <trkpt lat="48.63503" lon="1.60507">
        <ele>146.19999694824</ele>
        <time>2026-06-16T07:26:50.000Z</time>
      </trkpt>
      <trkpt lat="48.635" lon="1.60516">
        <ele>146.39999389648</ele>
        <time>2026-06-16T07:26:51.000Z</time>
      </trkpt>
      <trkpt lat="48.63473" lon="1.60591">
        <ele>146.39999389648</ele>
        <time>2026-06-16T07:27:00.000Z</time>
      </trkpt>
      <trkpt lat="48.63445" lon="1.60666">
        <ele>146.80000305176</ele>
        <time>2026-06-16T07:27:09.000Z</time>
      </trkpt>
      <trkpt lat="48.63417" lon="1.60742">
        <ele>147.39999389648</ele>
        <time>2026-06-16T07:27:18.000Z</time>
      </trkpt>
      <trkpt lat="48.63408" lon="1.60767">
        <ele>147.39999389648</ele>
        <time>2026-06-16T07:27:21.000Z</time>
      </trkpt>
      <trkpt lat="48.63382" lon="1.60835">
        <ele>147.80000305176</ele>
        <time>2026-06-16T07:27:29.000Z</time>
      </trkpt>
      <trkpt lat="48.63379" lon="1.60843">
        <ele>147.80000305176</ele>
        <time>2026-06-16T07:27:30.000Z</time>
      </trkpt>
      <trkpt lat="48.63355" lon="1.60916">
        <ele>148.19999694824</ele>
        <time>2026-06-16T07:27:38.000Z</time>
      </trkpt>
      <trkpt lat="48.63329" lon="1.60991">
        <ele>148.19999694824</ele>
        <time>2026-06-16T07:27:46.000Z</time>
      </trkpt>
      <trkpt lat="48.63322" lon="1.6101">
        <ele>148.19999694824</ele>
        <time>2026-06-16T07:27:48.000Z</time>
      </trkpt>
      <trkpt lat="48.63297" lon="1.61084">
        <ele>147.60000610352</ele>
        <time>2026-06-16T07:27:56.000Z</time>
      </trkpt>
      <trkpt lat="48.63282" lon="1.61129">
        <ele>147.39999389648</ele>
        <time>2026-06-16T07:28:01.000Z</time>
      </trkpt>
      <trkpt lat="48.63257" lon="1.61201">
        <ele>147.19999694824</ele>
        <time>2026-06-16T07:28:09.000Z</time>
      </trkpt>
      <trkpt lat="48.63248" lon="1.61229">
        <ele>147</ele>
        <time>2026-06-16T07:28:12.000Z</time>
      </trkpt>
      <trkpt lat="48.63242" lon="1.61247">
        <ele>146.80000305176</ele>
        <time>2026-06-16T07:28:14.000Z</time>
      </trkpt>
      <trkpt lat="48.63216" lon="1.61321">
        <ele>146.39999389648</ele>
        <time>2026-06-16T07:28:22.000Z</time>
      </trkpt>
      <trkpt lat="48.63213" lon="1.6133">
        <ele>146.39999389648</ele>
        <time>2026-06-16T07:28:23.000Z</time>
      </trkpt>
      <trkpt lat="48.63207" lon="1.61347">
        <ele>146.39999389648</ele>
        <time>2026-06-16T07:28:25.000Z</time>
      </trkpt>
      <trkpt lat="48.63181" lon="1.61425">
        <ele>146.60000610352</ele>
        <time>2026-06-16T07:28:34.000Z</time>
      </trkpt>
      <trkpt lat="48.63178" lon="1.61434">
        <ele>146.60000610352</ele>
        <time>2026-06-16T07:28:35.000Z</time>
      </trkpt>
      <trkpt lat="48.63152" lon="1.6151">
        <ele>147.19999694824</ele>
        <time>2026-06-16T07:28:43.000Z</time>
      </trkpt>
      <trkpt lat="48.63144" lon="1.61532">
        <ele>147.39999389648</ele>
        <time>2026-06-16T07:28:46.000Z</time>
      </trkpt>
      <trkpt lat="48.63121" lon="1.61605">
        <ele>147.39999389648</ele>
        <time>2026-06-16T07:28:54.000Z</time>
      </trkpt>
      <trkpt lat="48.63096" lon="1.61688">
        <ele>147.80000305176</ele>
        <time>2026-06-16T07:29:03.000Z</time>
      </trkpt>
      <trkpt lat="48.63088" lon="1.61716">
        <ele>147.80000305176</ele>
        <time>2026-06-16T07:29:06.000Z</time>
      </trkpt>
      <trkpt lat="48.63067" lon="1.61792">
        <ele>147.39999389648</ele>
        <time>2026-06-16T07:29:14.000Z</time>
      </trkpt>
      <trkpt lat="48.63053" lon="1.61839">
        <ele>147.60000610352</ele>
        <time>2026-06-16T07:29:19.000Z</time>
      </trkpt>
      <trkpt lat="48.63031" lon="1.6192">
        <ele>148</ele>
        <time>2026-06-16T07:29:28.000Z</time>
      </trkpt>
      <trkpt lat="48.63028" lon="1.61929">
        <ele>148</ele>
        <time>2026-06-16T07:29:29.000Z</time>
      </trkpt>
      <trkpt lat="48.63005" lon="1.6201">
        <ele>148.60000610352</ele>
        <time>2026-06-16T07:29:38.000Z</time>
      </trkpt>
      <trkpt lat="48.62989" lon="1.62068">
        <ele>149.19999694824</ele>
        <time>2026-06-16T07:29:44.000Z</time>
      </trkpt>
      <trkpt lat="48.62973" lon="1.62126">
        <ele>149.60000610352</ele>
        <time>2026-06-16T07:29:51.000Z</time>
      </trkpt>
      <trkpt lat="48.62957" lon="1.6218">
        <ele>150.19999694824</ele>
        <time>2026-06-16T07:29:57.000Z</time>
      </trkpt>
      <trkpt lat="48.62938" lon="1.62243">
        <ele>150.60000610352</ele>
        <time>2026-06-16T07:30:04.000Z</time>
      </trkpt>
      <trkpt lat="48.62913" lon="1.62318">
        <ele>150.80000305176</ele>
        <time>2026-06-16T07:30:13.000Z</time>
      </trkpt>
      <trkpt lat="48.62908" lon="1.62335">
        <ele>151</ele>
        <time>2026-06-16T07:30:15.000Z</time>
      </trkpt>
      <trkpt lat="48.62901" lon="1.62359">
        <ele>151.19999694824</ele>
        <time>2026-06-16T07:30:18.000Z</time>
      </trkpt>
      <trkpt lat="48.62884" lon="1.6241">
        <ele>151.60000610352</ele>
        <time>2026-06-16T07:30:24.000Z</time>
      </trkpt>
      <trkpt lat="48.62859" lon="1.62487">
        <ele>151.80000305176</ele>
        <time>2026-06-16T07:30:33.000Z</time>
      </trkpt>
      <trkpt lat="48.62853" lon="1.62505">
        <ele>152</ele>
        <time>2026-06-16T07:30:35.000Z</time>
      </trkpt>
      <trkpt lat="48.62831" lon="1.62582">
        <ele>152</ele>
        <time>2026-06-16T07:30:43.000Z</time>
      </trkpt>
      <trkpt lat="48.62831" lon="1.62582">
        <ele>152.19999694824</ele>
        <time>2026-06-16T07:30:44.000Z</time>
      </trkpt>
      <trkpt lat="48.62817" lon="1.62649">
        <ele>152.19999694824</ele>
        <time>2026-06-16T07:30:51.000Z</time>
      </trkpt>
      <trkpt lat="48.62803" lon="1.62714">
        <ele>152.39999389648</ele>
        <time>2026-06-16T07:30:58.000Z</time>
      </trkpt>
      <trkpt lat="48.62787" lon="1.62795">
        <ele>152.60000610352</ele>
        <time>2026-06-16T07:31:07.000Z</time>
      </trkpt>
      <trkpt lat="48.62774" lon="1.62857">
        <ele>153.39999389648</ele>
        <time>2026-06-16T07:31:14.000Z</time>
      </trkpt>
      <trkpt lat="48.62761" lon="1.6292">
        <ele>154</ele>
        <time>2026-06-16T07:31:21.000Z</time>
      </trkpt>
      <trkpt lat="48.62749" lon="1.62974">
        <ele>154.39999389648</ele>
        <time>2026-06-16T07:31:27.000Z</time>
      </trkpt>
      <trkpt lat="48.62742" lon="1.63011">
        <ele>154.80000305176</ele>
        <time>2026-06-16T07:31:31.000Z</time>
      </trkpt>
      <trkpt lat="48.62724" lon="1.63095">
        <ele>155</ele>
        <time>2026-06-16T07:31:40.000Z</time>
      </trkpt>
      <trkpt lat="48.62715" lon="1.63137">
        <ele>155.19999694824</ele>
        <time>2026-06-16T07:31:44.000Z</time>
      </trkpt>
      <trkpt lat="48.62698" lon="1.63215">
        <ele>155.19999694824</ele>
        <time>2026-06-16T07:31:53.000Z</time>
      </trkpt>
      <trkpt lat="48.62693" lon="1.63235">
        <ele>155.19999694824</ele>
        <time>2026-06-16T07:31:55.000Z</time>
      </trkpt>
      <trkpt lat="48.62689" lon="1.63253">
        <ele>155.39999389648</ele>
        <time>2026-06-16T07:31:57.000Z</time>
      </trkpt>
      <trkpt lat="48.62668" lon="1.63335">
        <ele>155.60000610352</ele>
        <time>2026-06-16T07:32:06.000Z</time>
      </trkpt>
      <trkpt lat="48.62665" lon="1.63346">
        <ele>155.60000610352</ele>
        <time>2026-06-16T07:32:07.000Z</time>
      </trkpt>
      <trkpt lat="48.62645" lon="1.63427">
        <ele>155.60000610352</ele>
        <time>2026-06-16T07:32:16.000Z</time>
      </trkpt>
      <trkpt lat="48.62642" lon="1.63435">
        <ele>155.60000610352</ele>
        <time>2026-06-16T07:32:17.000Z</time>
      </trkpt>
      <trkpt lat="48.62622" lon="1.63514">
        <ele>156</ele>
        <time>2026-06-16T07:32:26.000Z</time>
      </trkpt>
      <trkpt lat="48.62613" lon="1.63548">
        <ele>156</ele>
        <time>2026-06-16T07:32:30.000Z</time>
      </trkpt>
      <trkpt lat="48.62608" lon="1.63565">
        <ele>156</ele>
        <time>2026-06-16T07:32:32.000Z</time>
      </trkpt>
      <trkpt lat="48.62587" lon="1.63642">
        <ele>156.39999389648</ele>
        <time>2026-06-16T07:32:41.000Z</time>
      </trkpt>
      <trkpt lat="48.62582" lon="1.63659">
        <ele>156.39999389648</ele>
        <time>2026-06-16T07:32:43.000Z</time>
      </trkpt>
      <trkpt lat="48.62575" lon="1.63684">
        <ele>156.60000610352</ele>
        <time>2026-06-16T07:32:46.000Z</time>
      </trkpt>
      <trkpt lat="48.62562" lon="1.6373">
        <ele>157</ele>
        <time>2026-06-16T07:32:51.000Z</time>
      </trkpt>
      <trkpt lat="48.62547" lon="1.6379">
        <ele>157.19999694824</ele>
        <time>2026-06-16T07:32:58.000Z</time>
      </trkpt>
      <trkpt lat="48.62534" lon="1.63846">
        <ele>157.39999389648</ele>
        <time>2026-06-16T07:33:04.000Z</time>
      </trkpt>
      <trkpt lat="48.62532" lon="1.63855">
        <ele>157.19999694824</ele>
        <time>2026-06-16T07:33:05.000Z</time>
      </trkpt>
      <trkpt lat="48.62528" lon="1.63872">
        <ele>157.39999389648</ele>
        <time>2026-06-16T07:33:07.000Z</time>
      </trkpt>
      <trkpt lat="48.62521" lon="1.63899">
        <ele>157.80000305176</ele>
        <time>2026-06-16T07:33:10.000Z</time>
      </trkpt>
      <trkpt lat="48.62515" lon="1.6392">
        <ele>157.80000305176</ele>
        <time>2026-06-16T07:33:12.000Z</time>
      </trkpt>
      <trkpt lat="48.62506" lon="1.63951">
        <ele>158</ele>
        <time>2026-06-16T07:33:16.000Z</time>
      </trkpt>
      <trkpt lat="48.62485" lon="1.6402">
        <ele>158.39999389648</ele>
        <time>2026-06-16T07:33:24.000Z</time>
      </trkpt>
      <trkpt lat="48.62482" lon="1.64028">
        <ele>158.39999389648</ele>
        <time>2026-06-16T07:33:25.000Z</time>
      </trkpt>
      <trkpt lat="48.62456" lon="1.64096">
        <ele>158.80000305176</ele>
        <time>2026-06-16T07:33:33.000Z</time>
      </trkpt>
      <trkpt lat="48.62432" lon="1.64153">
        <ele>159</ele>
        <time>2026-06-16T07:33:40.000Z</time>
      </trkpt>
      <trkpt lat="48.62402" lon="1.64227">
        <ele>159.19999694824</ele>
        <time>2026-06-16T07:33:49.000Z</time>
      </trkpt>
      <trkpt lat="48.62398" lon="1.64234">
        <ele>159.19999694824</ele>
        <time>2026-06-16T07:33:50.000Z</time>
      </trkpt>
      <trkpt lat="48.62368" lon="1.64308">
        <ele>159.19999694824</ele>
        <time>2026-06-16T07:33:59.000Z</time>
      </trkpt>
      <trkpt lat="48.62361" lon="1.64325">
        <ele>159.39999389648</ele>
        <time>2026-06-16T07:34:01.000Z</time>
      </trkpt>
      <trkpt lat="48.6233" lon="1.64399">
        <ele>159.39999389648</ele>
        <time>2026-06-16T07:34:10.000Z</time>
      </trkpt>
      <trkpt lat="48.62318" lon="1.64429">
        <ele>159.60000610352</ele>
        <time>2026-06-16T07:34:14.000Z</time>
      </trkpt>
      <trkpt lat="48.62289" lon="1.645">
        <ele>159.80000305176</ele>
        <time>2026-06-16T07:34:22.000Z</time>
      </trkpt>
      <trkpt lat="48.62278" lon="1.64526">
        <ele>159.80000305176</ele>
        <time>2026-06-16T07:34:25.000Z</time>
      </trkpt>
      <trkpt lat="48.62246" lon="1.64603">
        <ele>159.60000610352</ele>
        <time>2026-06-16T07:34:34.000Z</time>
      </trkpt>
      <trkpt lat="48.62228" lon="1.64649">
        <ele>159.39999389648</ele>
        <time>2026-06-16T07:34:39.000Z</time>
      </trkpt>
      <trkpt lat="48.62197" lon="1.64724">
        <ele>159.19999694824</ele>
        <time>2026-06-16T07:34:47.000Z</time>
      </trkpt>
      <trkpt lat="48.62182" lon="1.64761">
        <ele>159.19999694824</ele>
        <time>2026-06-16T07:34:51.000Z</time>
      </trkpt>
      <trkpt lat="48.62151" lon="1.64837">
        <ele>159</ele>
        <time>2026-06-16T07:34:59.000Z</time>
      </trkpt>
      <trkpt lat="48.6214" lon="1.64864">
        <ele>159</ele>
        <time>2026-06-16T07:35:02.000Z</time>
      </trkpt>
      <trkpt lat="48.62104" lon="1.64951">
        <ele>159</ele>
        <time>2026-06-16T07:35:11.000Z</time>
      </trkpt>
      <trkpt lat="48.62073" lon="1.65028">
        <ele>159.19999694824</ele>
        <time>2026-06-16T07:35:21.000Z</time>
      </trkpt>
      <trkpt lat="48.62065" lon="1.65045">
        <ele>159.19999694824</ele>
        <time>2026-06-16T07:35:23.000Z</time>
      </trkpt>
      <trkpt lat="48.62036" lon="1.65118">
        <ele>159.60000610352</ele>
        <time>2026-06-16T07:35:31.000Z</time>
      </trkpt>
      <trkpt lat="48.62024" lon="1.65146">
        <ele>159.60000610352</ele>
        <time>2026-06-16T07:35:34.000Z</time>
      </trkpt>
      <trkpt lat="48.61995" lon="1.65217">
        <ele>159.60000610352</ele>
        <time>2026-06-16T07:35:42.000Z</time>
      </trkpt>
      <trkpt lat="48.6198" lon="1.65253">
        <ele>159.60000610352</ele>
        <time>2026-06-16T07:35:46.000Z</time>
      </trkpt>
      <trkpt lat="48.61952" lon="1.65323">
        <ele>159.39999389648</ele>
        <time>2026-06-16T07:35:54.000Z</time>
      </trkpt>
      <trkpt lat="48.61948" lon="1.65332">
        <ele>159.39999389648</ele>
        <time>2026-06-16T07:35:55.000Z</time>
      </trkpt>
      <trkpt lat="48.6192" lon="1.65401">
        <ele>159.39999389648</ele>
        <time>2026-06-16T07:36:03.000Z</time>
      </trkpt>
      <trkpt lat="48.61887" lon="1.65484">
        <ele>159.60000610352</ele>
        <time>2026-06-16T07:36:11.000Z</time>
      </trkpt>
      <trkpt lat="48.61856" lon="1.65559">
        <ele>159.60000610352</ele>
        <time>2026-06-16T07:36:20.000Z</time>
      </trkpt>
      <trkpt lat="48.61849" lon="1.65578">
        <ele>159.39999389648</ele>
        <time>2026-06-16T07:36:22.000Z</time>
      </trkpt>
      <trkpt lat="48.61817" lon="1.65656">
        <ele>158.80000305176</ele>
        <time>2026-06-16T07:36:30.000Z</time>
      </trkpt>
      <trkpt lat="48.61805" lon="1.65686">
        <ele>158.60000610352</ele>
        <time>2026-06-16T07:36:33.000Z</time>
      </trkpt>
      <trkpt lat="48.61794" lon="1.65715">
        <ele>158.39999389648</ele>
        <time>2026-06-16T07:36:36.000Z</time>
      </trkpt>
      <trkpt lat="48.61762" lon="1.65791">
        <ele>158.19999694824</ele>
        <time>2026-06-16T07:36:44.000Z</time>
      </trkpt>
      <trkpt lat="48.61733" lon="1.65864">
        <ele>158.19999694824</ele>
        <time>2026-06-16T07:36:52.000Z</time>
      </trkpt>
      <trkpt lat="48.61726" lon="1.65882">
        <ele>158.19999694824</ele>
        <time>2026-06-16T07:36:54.000Z</time>
      </trkpt>
      <trkpt lat="48.61695" lon="1.65955">
        <ele>158.19999694824</ele>
        <time>2026-06-16T07:37:02.000Z</time>
      </trkpt>
      <trkpt lat="48.61678" lon="1.65999">
        <ele>158.39999389648</ele>
        <time>2026-06-16T07:37:07.000Z</time>
      </trkpt>
      <trkpt lat="48.61646" lon="1.66068">
        <ele>158.39999389648</ele>
        <time>2026-06-16T07:37:15.000Z</time>
      </trkpt>
      <trkpt lat="48.61639" lon="1.66085">
        <ele>158.39999389648</ele>
        <time>2026-06-16T07:37:17.000Z</time>
      </trkpt>
      <trkpt lat="48.61604" lon="1.66158">
        <ele>158.19999694824</ele>
        <time>2026-06-16T07:37:27.000Z</time>
      </trkpt>
      <trkpt lat="48.61595" lon="1.66175">
        <ele>158.19999694824</ele>
        <time>2026-06-16T07:37:29.000Z</time>
      </trkpt>
      <trkpt lat="48.61561" lon="1.66244">
        <ele>158</ele>
        <time>2026-06-16T07:37:37.000Z</time>
      </trkpt>
      <trkpt lat="48.61527" lon="1.66313">
        <ele>157.80000305176</ele>
        <time>2026-06-16T07:37:45.000Z</time>
      </trkpt>
      <trkpt lat="48.6151" lon="1.6635">
        <ele>157.80000305176</ele>
        <time>2026-06-16T07:37:49.000Z</time>
      </trkpt>
      <trkpt lat="48.6148" lon="1.66418">
        <ele>157.80000305176</ele>
        <time>2026-06-16T07:37:57.000Z</time>
      </trkpt>
      <trkpt lat="48.61477" lon="1.66427">
        <ele>157.80000305176</ele>
        <time>2026-06-16T07:37:58.000Z</time>
      </trkpt>
      <trkpt lat="48.61447" lon="1.66497">
        <ele>157.80000305176</ele>
        <time>2026-06-16T07:38:06.000Z</time>
      </trkpt>
      <trkpt lat="48.61439" lon="1.66516">
        <ele>157.60000610352</ele>
        <time>2026-06-16T07:38:08.000Z</time>
      </trkpt>
      <trkpt lat="48.61415" lon="1.66571">
        <ele>157.19999694824</ele>
        <time>2026-06-16T07:38:14.000Z</time>
      </trkpt>
      <trkpt lat="48.6141" lon="1.6658">
        <ele>157.19999694824</ele>
        <time>2026-06-16T07:38:15.000Z</time>
      </trkpt>
      <trkpt lat="48.61381" lon="1.66621">
        <ele>156.60000610352</ele>
        <time>2026-06-16T07:38:20.000Z</time>
      </trkpt>
      <trkpt lat="48.61353" lon="1.66651">
        <ele>155.80000305176</ele>
        <time>2026-06-16T07:38:24.000Z</time>
      </trkpt>
      <trkpt lat="48.61339" lon="1.66664">
        <ele>155.39999389648</ele>
        <time>2026-06-16T07:38:26.000Z</time>
      </trkpt>
      <trkpt lat="48.61327" lon="1.66679">
        <ele>154.39999389648</ele>
        <time>2026-06-16T07:38:28.000Z</time>
      </trkpt>
      <trkpt lat="48.61317" lon="1.66698">
        <ele>154</ele>
        <time>2026-06-16T07:38:30.000Z</time>
      </trkpt>
      <trkpt lat="48.61313" lon="1.66708">
        <ele>153.39999389648</ele>
        <time>2026-06-16T07:38:31.000Z</time>
      </trkpt>
      <trkpt lat="48.61312" lon="1.66733">
        <ele>152.60000610352</ele>
        <time>2026-06-16T07:38:33.000Z</time>
      </trkpt>
      <trkpt lat="48.61314" lon="1.66747">
        <ele>152.39999389648</ele>
        <time>2026-06-16T07:38:34.000Z</time>
      </trkpt>
      <trkpt lat="48.61317" lon="1.66759">
        <ele>152</ele>
        <time>2026-06-16T07:38:35.000Z</time>
      </trkpt>
      <trkpt lat="48.61322" lon="1.66771">
        <ele>151.60000610352</ele>
        <time>2026-06-16T07:38:36.000Z</time>
      </trkpt>
      <trkpt lat="48.6133" lon="1.66781">
        <ele>151.39999389648</ele>
        <time>2026-06-16T07:38:37.000Z</time>
      </trkpt>
      <trkpt lat="48.61337" lon="1.66789">
        <ele>151</ele>
        <time>2026-06-16T07:38:38.000Z</time>
      </trkpt>
      <trkpt lat="48.61345" lon="1.66794">
        <ele>150.80000305176</ele>
        <time>2026-06-16T07:38:39.000Z</time>
      </trkpt>
      <trkpt lat="48.61361" lon="1.66798">
        <ele>149.60000610352</ele>
        <time>2026-06-16T07:38:41.000Z</time>
      </trkpt>
      <trkpt lat="48.6138" lon="1.66802">
        <ele>148.80000305176</ele>
        <time>2026-06-16T07:38:43.000Z</time>
      </trkpt>
      <trkpt lat="48.6139" lon="1.66804">
        <ele>148.39999389648</ele>
        <time>2026-06-16T07:38:44.000Z</time>
      </trkpt>
      <trkpt lat="48.61399" lon="1.66809">
        <ele>147.80000305176</ele>
        <time>2026-06-16T07:38:45.000Z</time>
      </trkpt>
      <trkpt lat="48.61415" lon="1.66823">
        <ele>147</ele>
        <time>2026-06-16T07:38:47.000Z</time>
      </trkpt>
      <trkpt lat="48.61425" lon="1.66845">
        <ele>146.19999694824</ele>
        <time>2026-06-16T07:38:49.000Z</time>
      </trkpt>
      <trkpt lat="48.61428" lon="1.66857">
        <ele>145.80000305176</ele>
        <time>2026-06-16T07:38:50.000Z</time>
      </trkpt>
      <trkpt lat="48.61429" lon="1.6687">
        <ele>145.60000610352</ele>
        <time>2026-06-16T07:38:51.000Z</time>
      </trkpt>
      <trkpt lat="48.61428" lon="1.66884">
        <ele>144.80000305176</ele>
        <time>2026-06-16T07:38:52.000Z</time>
      </trkpt>
      <trkpt lat="48.61424" lon="1.66897">
        <ele>144.39999389648</ele>
        <time>2026-06-16T07:38:53.000Z</time>
      </trkpt>
      <trkpt lat="48.61412" lon="1.66919">
        <ele>143.19999694824</ele>
        <time>2026-06-16T07:38:55.000Z</time>
      </trkpt>
      <trkpt lat="48.61402" lon="1.66924">
        <ele>143</ele>
        <time>2026-06-16T07:38:56.000Z</time>
      </trkpt>
      <trkpt lat="48.61391" lon="1.66927">
        <ele>142.39999389648</ele>
        <time>2026-06-16T07:38:57.000Z</time>
      </trkpt>
      <trkpt lat="48.61381" lon="1.66927">
        <ele>142</ele>
        <time>2026-06-16T07:38:58.000Z</time>
      </trkpt>
      <trkpt lat="48.61371" lon="1.66924">
        <ele>141.80000305176</ele>
        <time>2026-06-16T07:38:59.000Z</time>
      </trkpt>
      <trkpt lat="48.61351" lon="1.66915">
        <ele>140.80000305176</ele>
        <time>2026-06-16T07:39:01.000Z</time>
      </trkpt>
      <trkpt lat="48.6132" lon="1.66911">
        <ele>139.39999389648</ele>
        <time>2026-06-16T07:39:04.000Z</time>
      </trkpt>
      <trkpt lat="48.61301" lon="1.66912">
        <ele>138.60000610352</ele>
        <time>2026-06-16T07:39:06.000Z</time>
      </trkpt>
      <trkpt lat="48.61292" lon="1.66914">
        <ele>138</ele>
        <time>2026-06-16T07:39:07.000Z</time>
      </trkpt>
      <trkpt lat="48.61275" lon="1.6692">
        <ele>136.80000305176</ele>
        <time>2026-06-16T07:39:09.000Z</time>
      </trkpt>
      <trkpt lat="48.61258" lon="1.66928">
        <ele>135.80000305176</ele>
        <time>2026-06-16T07:39:11.000Z</time>
      </trkpt>
      <trkpt lat="48.61251" lon="1.66933">
        <ele>135.39999389648</ele>
        <time>2026-06-16T07:39:12.000Z</time>
      </trkpt>
      <trkpt lat="48.61243" lon="1.6694">
        <ele>135.19999694824</ele>
        <time>2026-06-16T07:39:13.000Z</time>
      </trkpt>
      <trkpt lat="48.61222" lon="1.66963">
        <ele>134.19999694824</ele>
        <time>2026-06-16T07:39:16.000Z</time>
      </trkpt>
      <trkpt lat="48.61209" lon="1.66981">
        <ele>133.39999389648</ele>
        <time>2026-06-16T07:39:18.000Z</time>
      </trkpt>
      <trkpt lat="48.61203" lon="1.6699">
        <ele>133</ele>
        <time>2026-06-16T07:39:19.000Z</time>
      </trkpt>
      <trkpt lat="48.61183" lon="1.67018">
        <ele>131.80000305176</ele>
        <time>2026-06-16T07:39:22.000Z</time>
      </trkpt>
      <trkpt lat="48.6117" lon="1.67035">
        <ele>130.80000305176</ele>
        <time>2026-06-16T07:39:24.000Z</time>
      </trkpt>
      <trkpt lat="48.61151" lon="1.6706">
        <ele>129.39999389648</ele>
        <time>2026-06-16T07:39:27.000Z</time>
      </trkpt>
      <trkpt lat="48.61124" lon="1.67092">
        <ele>128</ele>
        <time>2026-06-16T07:39:31.000Z</time>
      </trkpt>
      <trkpt lat="48.61109" lon="1.67104">
        <ele>127.40000152588</ele>
        <time>2026-06-16T07:39:33.000Z</time>
      </trkpt>
      <trkpt lat="48.61101" lon="1.67109">
        <ele>126.80000305176</ele>
        <time>2026-06-16T07:39:34.000Z</time>
      </trkpt>
      <trkpt lat="48.61077" lon="1.6712">
        <ele>125.80000305176</ele>
        <time>2026-06-16T07:39:37.000Z</time>
      </trkpt>
      <trkpt lat="48.61068" lon="1.67122">
        <ele>125.19999694824</ele>
        <time>2026-06-16T07:39:38.000Z</time>
      </trkpt>
      <trkpt lat="48.61053" lon="1.67125">
        <ele>124</ele>
        <time>2026-06-16T07:39:40.000Z</time>
      </trkpt>
      <trkpt lat="48.61032" lon="1.67135">
        <ele>123.19999694824</ele>
        <time>2026-06-16T07:39:42.000Z</time>
      </trkpt>
      <trkpt lat="48.61028" lon="1.67138">
        <ele>122.59999847412</ele>
        <time>2026-06-16T07:39:43.000Z</time>
      </trkpt>
      <trkpt lat="48.61022" lon="1.67143">
        <ele>122</ele>
        <time>2026-06-16T07:39:44.000Z</time>
      </trkpt>
      <trkpt lat="48.61017" lon="1.67149">
        <ele>121.59999847412</ele>
        <time>2026-06-16T07:39:46.000Z</time>
      </trkpt>
      <trkpt lat="48.61004" lon="1.67173">
        <ele>120.59999847412</ele>
        <time>2026-06-16T07:39:49.000Z</time>
      </trkpt>
      <trkpt lat="48.61002" lon="1.67179">
        <ele>120.19999694824</ele>
        <time>2026-06-16T07:39:50.000Z</time>
      </trkpt>
      <trkpt lat="48.60997" lon="1.67195">
        <ele>119</ele>
        <time>2026-06-16T07:39:53.000Z</time>
      </trkpt>
      <trkpt lat="48.60995" lon="1.67204">
        <ele>118.40000152588</ele>
        <time>2026-06-16T07:39:55.000Z</time>
      </trkpt>
      <trkpt lat="48.60996" lon="1.67208">
        <ele>118.19999694824</ele>
        <time>2026-06-16T07:39:56.000Z</time>
      </trkpt>
      <trkpt lat="48.61002" lon="1.67212">
        <ele>117.80000305176</ele>
        <time>2026-06-16T07:39:58.000Z</time>
      </trkpt>
      <trkpt lat="48.6102" lon="1.67203">
        <ele>117.40000152588</ele>
        <time>2026-06-16T07:40:02.000Z</time>
      </trkpt>
      <trkpt lat="48.61047" lon="1.67194">
        <ele>117.19999694824</ele>
        <time>2026-06-16T07:40:07.000Z</time>
      </trkpt>
      <trkpt lat="48.61102" lon="1.67185">
        <ele>117</ele>
        <time>2026-06-16T07:40:16.000Z</time>
      </trkpt>
      <trkpt lat="48.61108" lon="1.67183">
        <ele>117</ele>
        <time>2026-06-16T07:40:17.000Z</time>
      </trkpt>
      <trkpt lat="48.61128" lon="1.67177">
        <ele>116.80000305176</ele>
        <time>2026-06-16T07:40:21.000Z</time>
      </trkpt>
      <trkpt lat="48.61139" lon="1.67174">
        <ele>116.59999847412</ele>
        <time>2026-06-16T07:40:24.000Z</time>
      </trkpt>
      <trkpt lat="48.61192" lon="1.67159">
        <ele>116.40000152588</ele>
        <time>2026-06-16T07:40:33.000Z</time>
      </trkpt>
      <trkpt lat="48.61237" lon="1.67141">
        <ele>117</ele>
        <time>2026-06-16T07:40:43.000Z</time>
      </trkpt>
      <trkpt lat="48.61249" lon="1.67136">
        <ele>117.19999694824</ele>
        <time>2026-06-16T07:40:45.000Z</time>
      </trkpt>
      <trkpt lat="48.61277" lon="1.6713">
        <ele>117.19999694824</ele>
        <time>2026-06-16T07:40:50.000Z</time>
      </trkpt>
      <trkpt lat="48.61311" lon="1.6712">
        <ele>117.19999694824</ele>
        <time>2026-06-16T07:40:56.000Z</time>
      </trkpt>
      <trkpt lat="48.61364" lon="1.67107">
        <ele>117.40000152588</ele>
        <time>2026-06-16T07:41:06.000Z</time>
      </trkpt>
      <trkpt lat="48.6139" lon="1.67098">
        <ele>117.59999847412</ele>
        <time>2026-06-16T07:41:11.000Z</time>
      </trkpt>
      <trkpt lat="48.61401" lon="1.67095">
        <ele>117.59999847412</ele>
        <time>2026-06-16T07:41:13.000Z</time>
      </trkpt>
      <trkpt lat="48.61445" lon="1.67085">
        <ele>117.40000152588</ele>
        <time>2026-06-16T07:41:21.000Z</time>
      </trkpt>
      <trkpt lat="48.61461" lon="1.67086">
        <ele>117</ele>
        <time>2026-06-16T07:41:24.000Z</time>
      </trkpt>
      <trkpt lat="48.61473" lon="1.67091">
        <ele>117</ele>
        <time>2026-06-16T07:41:26.000Z</time>
      </trkpt>
      <trkpt lat="48.61512" lon="1.6712">
        <ele>117.19999694824</ele>
        <time>2026-06-16T07:41:33.000Z</time>
      </trkpt>
      <trkpt lat="48.61539" lon="1.67142">
        <ele>117</ele>
        <time>2026-06-16T07:41:39.000Z</time>
      </trkpt>
      <trkpt lat="48.61548" lon="1.6715">
        <ele>117.19999694824</ele>
        <time>2026-06-16T07:41:40.000Z</time>
      </trkpt>
      <trkpt lat="48.6157" lon="1.67168">
        <ele>117.19999694824</ele>
        <time>2026-06-16T07:41:45.000Z</time>
      </trkpt>
      <trkpt lat="48.6159" lon="1.67188">
        <ele>117.40000152588</ele>
        <time>2026-06-16T07:41:49.000Z</time>
      </trkpt>
      <trkpt lat="48.61599" lon="1.67198">
        <ele>117.40000152588</ele>
        <time>2026-06-16T07:41:51.000Z</time>
      </trkpt>
      <trkpt lat="48.61651" lon="1.67255">
        <ele>117.19999694824</ele>
        <time>2026-06-16T07:42:02.000Z</time>
      </trkpt>
      <trkpt lat="48.61669" lon="1.67277">
        <ele>117</ele>
        <time>2026-06-16T07:42:06.000Z</time>
      </trkpt>
      <trkpt lat="48.61683" lon="1.67292">
        <ele>116.59999847412</ele>
        <time>2026-06-16T07:42:09.000Z</time>
      </trkpt>
      <trkpt lat="48.61732" lon="1.67343">
        <ele>116.19999694824</ele>
        <time>2026-06-16T07:42:19.000Z</time>
      </trkpt>
      <trkpt lat="48.61772" lon="1.67389">
        <ele>116.19999694824</ele>
        <time>2026-06-16T07:42:28.000Z</time>
      </trkpt>
      <trkpt lat="48.61803" lon="1.67429">
        <ele>116.19999694824</ele>
        <time>2026-06-16T07:42:35.000Z</time>
      </trkpt>
      <trkpt lat="48.61837" lon="1.67488">
        <ele>116.40000152588</ele>
        <time>2026-06-16T07:42:45.000Z</time>
      </trkpt>
      <trkpt lat="48.61851" lon="1.67515">
        <ele>116.40000152588</ele>
        <time>2026-06-16T07:42:48.000Z</time>
      </trkpt>
      <trkpt lat="48.61864" lon="1.67537">
        <ele>116.40000152588</ele>
        <time>2026-06-16T07:42:52.000Z</time>
      </trkpt>
      <trkpt lat="48.61887" lon="1.67573">
        <ele>116.59999847412</ele>
        <time>2026-06-16T07:42:58.000Z</time>
      </trkpt>
      <trkpt lat="48.61923" lon="1.67621">
        <ele>116.80000305176</ele>
        <time>2026-06-16T07:43:06.000Z</time>
      </trkpt>
      <trkpt lat="48.61959" lon="1.67656">
        <ele>116.80000305176</ele>
        <time>2026-06-16T07:43:13.000Z</time>
      </trkpt>
      <trkpt lat="48.61992" lon="1.67688">
        <ele>116.80000305176</ele>
        <time>2026-06-16T07:43:20.000Z</time>
      </trkpt>
      <trkpt lat="48.6202" lon="1.67706">
        <ele>117.40000152588</ele>
        <time>2026-06-16T07:43:26.000Z</time>
      </trkpt>
      <trkpt lat="48.62033" lon="1.67716">
        <ele>117.80000305176</ele>
        <time>2026-06-16T07:43:29.000Z</time>
      </trkpt>
      <trkpt lat="48.62041" lon="1.67724">
        <ele>118.19999694824</ele>
        <time>2026-06-16T07:43:31.000Z</time>
      </trkpt>
      <trkpt lat="48.62051" lon="1.67735">
        <ele>118.59999847412</ele>
        <time>2026-06-16T07:43:33.000Z</time>
      </trkpt>
      <trkpt lat="48.62069" lon="1.67756">
        <ele>118.80000305176</ele>
        <time>2026-06-16T07:43:37.000Z</time>
      </trkpt>
      <trkpt lat="48.62085" lon="1.67768">
        <ele>118.80000305176</ele>
        <time>2026-06-16T07:43:40.000Z</time>
      </trkpt>
      <trkpt lat="48.621" lon="1.67778">
        <ele>118.80000305176</ele>
        <time>2026-06-16T07:43:43.000Z</time>
      </trkpt>
      <trkpt lat="48.62143" lon="1.67806">
        <ele>118.80000305176</ele>
        <time>2026-06-16T07:43:51.000Z</time>
      </trkpt>
      <trkpt lat="48.6217" lon="1.67823">
        <ele>119</ele>
        <time>2026-06-16T07:43:56.000Z</time>
      </trkpt>
      <trkpt lat="48.6218" lon="1.67828">
        <ele>119</ele>
        <time>2026-06-16T07:43:58.000Z</time>
      </trkpt>
      <trkpt lat="48.62209" lon="1.67843">
        <ele>119.40000152588</ele>
        <time>2026-06-16T07:44:04.000Z</time>
      </trkpt>
      <trkpt lat="48.62214" lon="1.67846">
        <ele>119.59999847412</ele>
        <time>2026-06-16T07:44:05.000Z</time>
      </trkpt>
      <trkpt lat="48.62225" lon="1.67852">
        <ele>119.59999847412</ele>
        <time>2026-06-16T07:44:07.000Z</time>
      </trkpt>
      <trkpt lat="48.62282" lon="1.67881">
        <ele>119.80000305176</ele>
        <time>2026-06-16T07:44:17.000Z</time>
      </trkpt>
      <trkpt lat="48.62337" lon="1.67909">
        <ele>119.59999847412</ele>
        <time>2026-06-16T07:44:27.000Z</time>
      </trkpt>
      <trkpt lat="48.62348" lon="1.67914">
        <ele>119.59999847412</ele>
        <time>2026-06-16T07:44:29.000Z</time>
      </trkpt>
      <trkpt lat="48.62392" lon="1.67936">
        <ele>119.59999847412</ele>
        <time>2026-06-16T07:44:37.000Z</time>
      </trkpt>
      <trkpt lat="48.62397" lon="1.67936">
        <ele>119.59999847412</ele>
        <time>2026-06-16T07:44:38.000Z</time>
      </trkpt>
      <trkpt lat="48.62408" lon="1.67932">
        <ele>119.59999847412</ele>
        <time>2026-06-16T07:44:40.000Z</time>
      </trkpt>
      <trkpt lat="48.62418" lon="1.67926">
        <ele>119.59999847412</ele>
        <time>2026-06-16T07:44:42.000Z</time>
      </trkpt>
      <trkpt lat="48.62469" lon="1.67907">
        <ele>119.80000305176</ele>
        <time>2026-06-16T07:44:51.000Z</time>
      </trkpt>
      <trkpt lat="48.62525" lon="1.67889">
        <ele>120.19999694824</ele>
        <time>2026-06-16T07:45:01.000Z</time>
      </trkpt>
      <trkpt lat="48.62536" lon="1.67886">
        <ele>120.19999694824</ele>
        <time>2026-06-16T07:45:03.000Z</time>
      </trkpt>
      <trkpt lat="48.62586" lon="1.67875">
        <ele>120.40000152588</ele>
        <time>2026-06-16T07:45:12.000Z</time>
      </trkpt>
      <trkpt lat="48.62636" lon="1.67861">
        <ele>120.59999847412</ele>
        <time>2026-06-16T07:45:21.000Z</time>
      </trkpt>
      <trkpt lat="48.62655" lon="1.67852">
        <ele>120.59999847412</ele>
        <time>2026-06-16T07:45:25.000Z</time>
      </trkpt>
      <trkpt lat="48.62682" lon="1.6784">
        <ele>120.80000305176</ele>
        <time>2026-06-16T07:45:30.000Z</time>
      </trkpt>
      <trkpt lat="48.62718" lon="1.67825">
        <ele>120.80000305176</ele>
        <time>2026-06-16T07:45:37.000Z</time>
      </trkpt>
      <trkpt lat="48.62763" lon="1.67814">
        <ele>121</ele>
        <time>2026-06-16T07:45:46.000Z</time>
      </trkpt>
      <trkpt lat="48.62784" lon="1.67814">
        <ele>121</ele>
        <time>2026-06-16T07:45:52.000Z</time>
      </trkpt>
      <trkpt lat="48.62801" lon="1.67815">
        <ele>121.40000152588</ele>
        <time>2026-06-16T07:45:58.000Z</time>
      </trkpt>
      <trkpt lat="48.62803" lon="1.67815">
        <ele>121.40000152588</ele>
        <time>2026-06-16T07:46:00.000Z</time>
      </trkpt>
      <trkpt lat="48.62804" lon="1.67815">
        <ele>121.40000152588</ele>
        <time>2026-06-16T07:46:02.000Z</time>
      </trkpt>
      <trkpt lat="48.62804" lon="1.67816">
        <ele>121.40000152588</ele>
        <time>2026-06-16T07:46:09.000Z</time>
      </trkpt>
      <trkpt lat="48.62804" lon="1.67816">
        <ele>121.40000152588</ele>
        <time>2026-06-16T07:46:11.000Z</time>
      </trkpt>
      <trkpt lat="48.62805" lon="1.67816">
        <ele>121.19999694824</ele>
        <time>2026-06-16T07:48:52.000Z</time>
      </trkpt>
      <trkpt lat="48.62805" lon="1.67816">
        <ele>121.19999694824</ele>
        <time>2026-06-16T07:48:57.000Z</time>
      </trkpt>
      <trkpt lat="48.62818" lon="1.67818">
        <ele>121.19999694824</ele>
        <time>2026-06-16T07:49:04.000Z</time>
      </trkpt>
      <trkpt lat="48.62836" lon="1.67822">
        <ele>121.40000152588</ele>
        <time>2026-06-16T07:49:12.000Z</time>
      </trkpt>
      <trkpt lat="48.6284" lon="1.67823">
        <ele>121.40000152588</ele>
        <time>2026-06-16T07:49:13.000Z</time>
      </trkpt>
      <trkpt lat="48.62864" lon="1.67833">
        <ele>122</ele>
        <time>2026-06-16T07:49:20.000Z</time>
      </trkpt>
      <trkpt lat="48.62888" lon="1.67845">
        <ele>122</ele>
        <time>2026-06-16T07:49:26.000Z</time>
      </trkpt>
      <trkpt lat="48.62921" lon="1.67863">
        <ele>122.19999694824</ele>
        <time>2026-06-16T07:49:33.000Z</time>
      </trkpt>
      <trkpt lat="48.62941" lon="1.67875">
        <ele>122.19999694824</ele>
        <time>2026-06-16T07:49:37.000Z</time>
      </trkpt>
      <trkpt lat="48.62956" lon="1.67886">
        <ele>122.40000152588</ele>
        <time>2026-06-16T07:49:40.000Z</time>
      </trkpt>
      <trkpt lat="48.63002" lon="1.67917">
        <ele>122.80000305176</ele>
        <time>2026-06-16T07:49:49.000Z</time>
      </trkpt>
      <trkpt lat="48.63047" lon="1.67948">
        <ele>123</ele>
        <time>2026-06-16T07:49:58.000Z</time>
      </trkpt>
      <trkpt lat="48.63077" lon="1.67968">
        <ele>123.19999694824</ele>
        <time>2026-06-16T07:50:04.000Z</time>
      </trkpt>
      <trkpt lat="48.63099" lon="1.67982">
        <ele>123.59999847412</ele>
        <time>2026-06-16T07:50:08.000Z</time>
      </trkpt>
      <trkpt lat="48.63152" lon="1.68017">
        <ele>123.80000305176</ele>
        <time>2026-06-16T07:50:18.000Z</time>
      </trkpt>
      <trkpt lat="48.63158" lon="1.68021">
        <ele>123.80000305176</ele>
        <time>2026-06-16T07:50:19.000Z</time>
      </trkpt>
      <trkpt lat="48.63206" lon="1.68048">
        <ele>123.80000305176</ele>
        <time>2026-06-16T07:50:27.000Z</time>
      </trkpt>
      <trkpt lat="48.63212" lon="1.68051">
        <ele>123.80000305176</ele>
        <time>2026-06-16T07:50:28.000Z</time>
      </trkpt>
      <trkpt lat="48.63247" lon="1.68058">
        <ele>123.80000305176</ele>
        <time>2026-06-16T07:50:34.000Z</time>
      </trkpt>
      <trkpt lat="48.63284" lon="1.6805">
        <ele>124.40000152588</ele>
        <time>2026-06-16T07:50:41.000Z</time>
      </trkpt>
      <trkpt lat="48.63319" lon="1.68043">
        <ele>125.19999694824</ele>
        <time>2026-06-16T07:50:48.000Z</time>
      </trkpt>
      <trkpt lat="48.63327" lon="1.68041">
        <ele>125.59999847412</ele>
        <time>2026-06-16T07:50:50.000Z</time>
      </trkpt>
      <trkpt lat="48.63343" lon="1.68039">
        <ele>126</ele>
        <time>2026-06-16T07:50:53.000Z</time>
      </trkpt>
      <trkpt lat="48.63348" lon="1.68039">
        <ele>126.19999694824</ele>
        <time>2026-06-16T07:50:54.000Z</time>
      </trkpt>
      <trkpt lat="48.63359" lon="1.68039">
        <ele>126.80000305176</ele>
        <time>2026-06-16T07:50:56.000Z</time>
      </trkpt>
      <trkpt lat="48.63385" lon="1.68041">
        <ele>127.59999847412</ele>
        <time>2026-06-16T07:51:01.000Z</time>
      </trkpt>
      <trkpt lat="48.6339" lon="1.68042">
        <ele>127.80000305176</ele>
        <time>2026-06-16T07:51:02.000Z</time>
      </trkpt>
      <trkpt lat="48.63418" lon="1.68051">
        <ele>128</ele>
        <time>2026-06-16T07:51:07.000Z</time>
      </trkpt>
      <trkpt lat="48.63424" lon="1.68055">
        <ele>128</ele>
        <time>2026-06-16T07:51:08.000Z</time>
      </trkpt>
      <trkpt lat="48.63436" lon="1.68067">
        <ele>128</ele>
        <time>2026-06-16T07:51:10.000Z</time>
      </trkpt>
      <trkpt lat="48.63453" lon="1.68088">
        <ele>127.40000152588</ele>
        <time>2026-06-16T07:51:13.000Z</time>
      </trkpt>
      <trkpt lat="48.63464" lon="1.68096">
        <ele>126.80000305176</ele>
        <time>2026-06-16T07:51:15.000Z</time>
      </trkpt>
      <trkpt lat="48.63478" lon="1.68102">
        <ele>126.40000152588</ele>
        <time>2026-06-16T07:51:17.000Z</time>
      </trkpt>
      <trkpt lat="48.63485" lon="1.68103">
        <ele>126.40000152588</ele>
        <time>2026-06-16T07:51:18.000Z</time>
      </trkpt>
      <trkpt lat="48.63499" lon="1.68102">
        <ele>125.80000305176</ele>
        <time>2026-06-16T07:51:20.000Z</time>
      </trkpt>
      <trkpt lat="48.63505" lon="1.681">
        <ele>125.80000305176</ele>
        <time>2026-06-16T07:51:21.000Z</time>
      </trkpt>
      <trkpt lat="48.63563" lon="1.68077">
        <ele>124.80000305176</ele>
        <time>2026-06-16T07:51:30.000Z</time>
      </trkpt>
      <trkpt lat="48.63575" lon="1.68075">
        <ele>124.80000305176</ele>
        <time>2026-06-16T07:51:32.000Z</time>
      </trkpt>
      <trkpt lat="48.63599" lon="1.68075">
        <ele>124.59999847412</ele>
        <time>2026-06-16T07:51:36.000Z</time>
      </trkpt>
      <trkpt lat="48.63663" lon="1.68076">
        <ele>124.40000152588</ele>
        <time>2026-06-16T07:51:47.000Z</time>
      </trkpt>
      <trkpt lat="48.63668" lon="1.68077">
        <ele>124.40000152588</ele>
        <time>2026-06-16T07:51:49.000Z</time>
      </trkpt>
      <trkpt lat="48.63679" lon="1.68079">
        <ele>124.40000152588</ele>
        <time>2026-06-16T07:51:50.000Z</time>
      </trkpt>
      <trkpt lat="48.63696" lon="1.68088">
        <ele>124.40000152588</ele>
        <time>2026-06-16T07:51:53.000Z</time>
      </trkpt>
      <trkpt lat="48.63747" lon="1.68112">
        <ele>124.19999694824</ele>
        <time>2026-06-16T07:52:02.000Z</time>
      </trkpt>
      <trkpt lat="48.63788" lon="1.68118">
        <ele>124.19999694824</ele>
        <time>2026-06-16T07:52:09.000Z</time>
      </trkpt>
      <trkpt lat="48.6384" lon="1.68125">
        <ele>124.19999694824</ele>
        <time>2026-06-16T07:52:18.000Z</time>
      </trkpt>
      <trkpt lat="48.63881" lon="1.68122">
        <ele>124.40000152588</ele>
        <time>2026-06-16T07:52:25.000Z</time>
      </trkpt>
      <trkpt lat="48.63921" lon="1.68104">
        <ele>124.59999847412</ele>
        <time>2026-06-16T07:52:32.000Z</time>
      </trkpt>
      <trkpt lat="48.63977" lon="1.68084">
        <ele>124.80000305176</ele>
        <time>2026-06-16T07:52:42.000Z</time>
      </trkpt>
      <trkpt lat="48.63982" lon="1.68082">
        <ele>125</ele>
        <time>2026-06-16T07:52:43.000Z</time>
      </trkpt>
      <trkpt lat="48.6403" lon="1.68077">
        <ele>125.59999847412</ele>
        <time>2026-06-16T07:52:52.000Z</time>
      </trkpt>
      <trkpt lat="48.64083" lon="1.68078">
        <ele>125.80000305176</ele>
        <time>2026-06-16T07:53:01.000Z</time>
      </trkpt>
      <trkpt lat="48.64142" lon="1.68078">
        <ele>125.80000305176</ele>
        <time>2026-06-16T07:53:12.000Z</time>
      </trkpt>
      <trkpt lat="48.64189" lon="1.68078">
        <ele>125.80000305176</ele>
        <time>2026-06-16T07:53:19.000Z</time>
      </trkpt>
      <trkpt lat="48.64205" lon="1.68079">
        <ele>125.80000305176</ele>
        <time>2026-06-16T07:53:22.000Z</time>
      </trkpt>
      <trkpt lat="48.64239" lon="1.68079">
        <ele>126</ele>
        <time>2026-06-16T07:53:28.000Z</time>
      </trkpt>
      <trkpt lat="48.64284" lon="1.6808">
        <ele>126.40000152588</ele>
        <time>2026-06-16T07:53:36.000Z</time>
      </trkpt>
      <trkpt lat="48.64335" lon="1.68081">
        <ele>126.40000152588</ele>
        <time>2026-06-16T07:53:45.000Z</time>
      </trkpt>
      <trkpt lat="48.64356" lon="1.68089">
        <ele>126.19999694824</ele>
        <time>2026-06-16T07:53:49.000Z</time>
      </trkpt>
      <trkpt lat="48.64362" lon="1.68093">
        <ele>126.19999694824</ele>
        <time>2026-06-16T07:53:50.000Z</time>
      </trkpt>
      <trkpt lat="48.64366" lon="1.68098">
        <ele>126.19999694824</ele>
        <time>2026-06-16T07:53:51.000Z</time>
      </trkpt>
      <trkpt lat="48.64383" lon="1.68121">
        <ele>126.40000152588</ele>
        <time>2026-06-16T07:53:55.000Z</time>
      </trkpt>
      <trkpt lat="48.64418" lon="1.68178">
        <ele>126.80000305176</ele>
        <time>2026-06-16T07:54:04.000Z</time>
      </trkpt>
      <trkpt lat="48.64421" lon="1.68184">
        <ele>127</ele>
        <time>2026-06-16T07:54:05.000Z</time>
      </trkpt>
      <trkpt lat="48.64459" lon="1.68239">
        <ele>127</ele>
        <time>2026-06-16T07:54:14.000Z</time>
      </trkpt>
      <trkpt lat="48.64488" lon="1.68284">
        <ele>127.19999694824</ele>
        <time>2026-06-16T07:54:21.000Z</time>
      </trkpt>
      <trkpt lat="48.64522" lon="1.68334">
        <ele>127.19999694824</ele>
        <time>2026-06-16T07:54:29.000Z</time>
      </trkpt>
      <trkpt lat="48.64531" lon="1.68347">
        <ele>127.19999694824</ele>
        <time>2026-06-16T07:54:31.000Z</time>
      </trkpt>
      <trkpt lat="48.64556" lon="1.68385">
        <ele>127.19999694824</ele>
        <time>2026-06-16T07:54:37.000Z</time>
      </trkpt>
      <trkpt lat="48.64587" lon="1.68435">
        <ele>127.40000152588</ele>
        <time>2026-06-16T07:54:45.000Z</time>
      </trkpt>
      <trkpt lat="48.64608" lon="1.68471">
        <ele>127.40000152588</ele>
        <time>2026-06-16T07:54:51.000Z</time>
      </trkpt>
      <trkpt lat="48.64627" lon="1.68495">
        <ele>127.59999847412</ele>
        <time>2026-06-16T07:54:56.000Z</time>
      </trkpt>
      <trkpt lat="48.64631" lon="1.685">
        <ele>127.59999847412</ele>
        <time>2026-06-16T07:54:57.000Z</time>
      </trkpt>
      <trkpt lat="48.64649" lon="1.68524">
        <ele>127.80000305176</ele>
        <time>2026-06-16T07:55:02.000Z</time>
      </trkpt>
      <trkpt lat="48.64657" lon="1.68536">
        <ele>128.19999694824</ele>
        <time>2026-06-16T07:55:04.000Z</time>
      </trkpt>
      <trkpt lat="48.6468" lon="1.68566">
        <ele>128.60000610352</ele>
        <time>2026-06-16T07:55:10.000Z</time>
      </trkpt>
      <trkpt lat="48.64695" lon="1.68585">
        <ele>129</ele>
        <time>2026-06-16T07:55:14.000Z</time>
      </trkpt>
      <trkpt lat="48.64713" lon="1.68609">
        <ele>129.19999694824</ele>
        <time>2026-06-16T07:55:19.000Z</time>
      </trkpt>
      <trkpt lat="48.64728" lon="1.68628">
        <ele>130</ele>
        <time>2026-06-16T07:55:23.000Z</time>
      </trkpt>
      <trkpt lat="48.64746" lon="1.68652">
        <ele>130.60000610352</ele>
        <time>2026-06-16T07:55:28.000Z</time>
      </trkpt>
      <trkpt lat="48.64758" lon="1.68666">
        <ele>131</ele>
        <time>2026-06-16T07:55:31.000Z</time>
      </trkpt>
      <trkpt lat="48.64765" lon="1.68674">
        <ele>131.19999694824</ele>
        <time>2026-06-16T07:55:33.000Z</time>
      </trkpt>
      <trkpt lat="48.64774" lon="1.68682">
        <ele>131.19999694824</ele>
        <time>2026-06-16T07:55:35.000Z</time>
      </trkpt>
      <trkpt lat="48.64815" lon="1.68722">
        <ele>131.80000305176</ele>
        <time>2026-06-16T07:55:44.000Z</time>
      </trkpt>
      <trkpt lat="48.6486" lon="1.68761">
        <ele>131</ele>
        <time>2026-06-16T07:55:52.000Z</time>
      </trkpt>
      <trkpt lat="48.64902" lon="1.68794">
        <ele>130</ele>
        <time>2026-06-16T07:56:00.000Z</time>
      </trkpt>
      <trkpt lat="48.6494" lon="1.68822">
        <ele>130</ele>
        <time>2026-06-16T07:56:08.000Z</time>
      </trkpt>
      <trkpt lat="48.64989" lon="1.68855">
        <ele>130.80000305176</ele>
        <time>2026-06-16T07:56:18.000Z</time>
      </trkpt>
      <trkpt lat="48.64999" lon="1.6886">
        <ele>131</ele>
        <time>2026-06-16T07:56:20.000Z</time>
      </trkpt>
      <trkpt lat="48.65019" lon="1.68867">
        <ele>131.19999694824</ele>
        <time>2026-06-16T07:56:25.000Z</time>
      </trkpt>
      <trkpt lat="48.65048" lon="1.6887">
        <ele>131.39999389648</ele>
        <time>2026-06-16T07:56:32.000Z</time>
      </trkpt>
      <trkpt lat="48.65052" lon="1.68871">
        <ele>131.39999389648</ele>
        <time>2026-06-16T07:56:33.000Z</time>
      </trkpt>
      <trkpt lat="48.65066" lon="1.6887">
        <ele>131.39999389648</ele>
        <time>2026-06-16T07:56:37.000Z</time>
      </trkpt>
      <trkpt lat="48.65072" lon="1.68876">
        <ele>131.60000610352</ele>
        <time>2026-06-16T07:56:39.000Z</time>
      </trkpt>
      <trkpt lat="48.65073" lon="1.68881">
        <ele>131.60000610352</ele>
        <time>2026-06-16T07:56:40.000Z</time>
      </trkpt>
      <trkpt lat="48.65068" lon="1.68912">
        <ele>131.60000610352</ele>
        <time>2026-06-16T07:56:44.000Z</time>
      </trkpt>
      <trkpt lat="48.65064" lon="1.6893">
        <ele>131.39999389648</ele>
        <time>2026-06-16T07:56:46.000Z</time>
      </trkpt>
      <trkpt lat="48.6506" lon="1.68956">
        <ele>131.19999694824</ele>
        <time>2026-06-16T07:56:49.000Z</time>
      </trkpt>
      <trkpt lat="48.65049" lon="1.69032">
        <ele>130.39999389648</ele>
        <time>2026-06-16T07:56:57.000Z</time>
      </trkpt>
      <trkpt lat="48.65044" lon="1.69071">
        <ele>129.80000305176</ele>
        <time>2026-06-16T07:57:01.000Z</time>
      </trkpt>
      <trkpt lat="48.65041" lon="1.69098">
        <ele>129.60000610352</ele>
        <time>2026-06-16T07:57:04.000Z</time>
      </trkpt>
      <trkpt lat="48.6504" lon="1.69116">
        <ele>129.60000610352</ele>
        <time>2026-06-16T07:57:06.000Z</time>
      </trkpt>
      <trkpt lat="48.65037" lon="1.69134">
        <ele>129.60000610352</ele>
        <time>2026-06-16T07:57:08.000Z</time>
      </trkpt>
      <trkpt lat="48.65032" lon="1.69196">
        <ele>129.60000610352</ele>
        <time>2026-06-16T07:57:15.000Z</time>
      </trkpt>
      <trkpt lat="48.65031" lon="1.69254">
        <ele>130.39999389648</ele>
        <time>2026-06-16T07:57:23.000Z</time>
      </trkpt>
      <trkpt lat="48.65031" lon="1.69287">
        <ele>131</ele>
        <time>2026-06-16T07:57:28.000Z</time>
      </trkpt>
      <trkpt lat="48.6503" lon="1.6931">
        <ele>132.19999694824</ele>
        <time>2026-06-16T07:57:32.000Z</time>
      </trkpt>
      <trkpt lat="48.65031" lon="1.69329">
        <ele>133</ele>
        <time>2026-06-16T07:57:35.000Z</time>
      </trkpt>
      <trkpt lat="48.6503" lon="1.69334">
        <ele>133.19999694824</ele>
        <time>2026-06-16T07:57:36.000Z</time>
      </trkpt>
      <trkpt lat="48.65031" lon="1.69368">
        <ele>134.39999389648</ele>
        <time>2026-06-16T07:57:42.000Z</time>
      </trkpt>
      <trkpt lat="48.65031" lon="1.69374">
        <ele>134.39999389648</ele>
        <time>2026-06-16T07:57:43.000Z</time>
      </trkpt>
      <trkpt lat="48.65032" lon="1.69405">
        <ele>135.60000610352</ele>
        <time>2026-06-16T07:57:49.000Z</time>
      </trkpt>
      <trkpt lat="48.65031" lon="1.69439">
        <ele>136.80000305176</ele>
        <time>2026-06-16T07:57:55.000Z</time>
      </trkpt>
      <trkpt lat="48.65031" lon="1.69471">
        <ele>137.80000305176</ele>
        <time>2026-06-16T07:58:01.000Z</time>
      </trkpt>
      <trkpt lat="48.65032" lon="1.69488">
        <ele>138.39999389648</ele>
        <time>2026-06-16T07:58:04.000Z</time>
      </trkpt>
      <trkpt lat="48.65032" lon="1.69498">
        <ele>138.80000305176</ele>
        <time>2026-06-16T07:58:06.000Z</time>
      </trkpt>
      <trkpt lat="48.65032" lon="1.69527">
        <ele>139.80000305176</ele>
        <time>2026-06-16T07:58:11.000Z</time>
      </trkpt>
      <trkpt lat="48.65032" lon="1.69535">
        <ele>140.39999389648</ele>
        <time>2026-06-16T07:58:13.000Z</time>
      </trkpt>
      <trkpt lat="48.65032" lon="1.69565">
        <ele>140.80000305176</ele>
        <time>2026-06-16T07:58:18.000Z</time>
      </trkpt>
      <trkpt lat="48.65032" lon="1.69587">
        <ele>141.80000305176</ele>
        <time>2026-06-16T07:58:22.000Z</time>
      </trkpt>
      <trkpt lat="48.65032" lon="1.69592">
        <ele>142</ele>
        <time>2026-06-16T07:58:23.000Z</time>
      </trkpt>
      <trkpt lat="48.65033" lon="1.69629">
        <ele>143.39999389648</ele>
        <time>2026-06-16T07:58:30.000Z</time>
      </trkpt>
      <trkpt lat="48.65033" lon="1.69633">
        <ele>143.39999389648</ele>
        <time>2026-06-16T07:58:31.000Z</time>
      </trkpt>
      <trkpt lat="48.65035" lon="1.69652">
        <ele>144.39999389648</ele>
        <time>2026-06-16T07:58:35.000Z</time>
      </trkpt>
      <trkpt lat="48.65035" lon="1.69661">
        <ele>144.80000305176</ele>
        <time>2026-06-16T07:58:37.000Z</time>
      </trkpt>
      <trkpt lat="48.65037" lon="1.69681">
        <ele>145.39999389648</ele>
        <time>2026-06-16T07:58:41.000Z</time>
      </trkpt>
      <trkpt lat="48.65038" lon="1.6969">
        <ele>146.19999694824</ele>
        <time>2026-06-16T07:58:43.000Z</time>
      </trkpt>
      <trkpt lat="48.6504" lon="1.697">
        <ele>146.39999389648</ele>
        <time>2026-06-16T07:58:45.000Z</time>
      </trkpt>
      <trkpt lat="48.65046" lon="1.69725">
        <ele>147.60000610352</ele>
        <time>2026-06-16T07:58:50.000Z</time>
      </trkpt>
      <trkpt lat="48.65064" lon="1.69768">
        <ele>149</ele>
        <time>2026-06-16T07:58:59.000Z</time>
      </trkpt>
      <trkpt lat="48.65077" lon="1.69794">
        <ele>150</ele>
        <time>2026-06-16T07:59:05.000Z</time>
      </trkpt>
      <trkpt lat="48.65086" lon="1.6981">
        <ele>151.19999694824</ele>
        <time>2026-06-16T07:59:09.000Z</time>
      </trkpt>
      <trkpt lat="48.65103" lon="1.69845">
        <ele>152.19999694824</ele>
        <time>2026-06-16T07:59:17.000Z</time>
      </trkpt>
      <trkpt lat="48.65107" lon="1.69853">
        <ele>152.80000305176</ele>
        <time>2026-06-16T07:59:19.000Z</time>
      </trkpt>
      <trkpt lat="48.65117" lon="1.69871">
        <ele>153.39999389648</ele>
        <time>2026-06-16T07:59:23.000Z</time>
      </trkpt>
      <trkpt lat="48.65125" lon="1.69897">
        <ele>154.19999694824</ele>
        <time>2026-06-16T07:59:28.000Z</time>
      </trkpt>
      <trkpt lat="48.65126" lon="1.69902">
        <ele>154.60000610352</ele>
        <time>2026-06-16T07:59:29.000Z</time>
      </trkpt>
      <trkpt lat="48.65132" lon="1.69927">
        <ele>155.60000610352</ele>
        <time>2026-06-16T07:59:34.000Z</time>
      </trkpt>
      <trkpt lat="48.65135" lon="1.6995">
        <ele>156.80000305176</ele>
        <time>2026-06-16T07:59:38.000Z</time>
      </trkpt>
      <trkpt lat="48.65136" lon="1.69954">
        <ele>156.80000305176</ele>
        <time>2026-06-16T07:59:39.000Z</time>
      </trkpt>
      <trkpt lat="48.65138" lon="1.69978">
        <ele>158</ele>
        <time>2026-06-16T07:59:43.000Z</time>
      </trkpt>
      <trkpt lat="48.65138" lon="1.70006">
        <ele>158.80000305176</ele>
        <time>2026-06-16T07:59:48.000Z</time>
      </trkpt>
      <trkpt lat="48.65138" lon="1.70011">
        <ele>158.80000305176</ele>
        <time>2026-06-16T07:59:49.000Z</time>
      </trkpt>
      <trkpt lat="48.65132" lon="1.7006">
        <ele>160</ele>
        <time>2026-06-16T07:59:57.000Z</time>
      </trkpt>
      <trkpt lat="48.65131" lon="1.70066">
        <ele>160.39999389648</ele>
        <time>2026-06-16T07:59:58.000Z</time>
      </trkpt>
      <trkpt lat="48.65122" lon="1.7011">
        <ele>161.19999694824</ele>
        <time>2026-06-16T08:00:05.000Z</time>
      </trkpt>
      <trkpt lat="48.65119" lon="1.70125">
        <ele>161.19999694824</ele>
        <time>2026-06-16T08:00:07.000Z</time>
      </trkpt>
      <trkpt lat="48.65103" lon="1.70205">
        <ele>162</ele>
        <time>2026-06-16T08:00:18.000Z</time>
      </trkpt>
      <trkpt lat="48.65102" lon="1.70213">
        <ele>162.39999389648</ele>
        <time>2026-06-16T08:00:19.000Z</time>
      </trkpt>
      <trkpt lat="48.65089" lon="1.70282">
        <ele>163.39999389648</ele>
        <time>2026-06-16T08:00:29.000Z</time>
      </trkpt>
      <trkpt lat="48.65074" lon="1.7036">
        <ele>163.80000305176</ele>
        <time>2026-06-16T08:00:40.000Z</time>
      </trkpt>
      <trkpt lat="48.65066" lon="1.70403">
        <ele>164.39999389648</ele>
        <time>2026-06-16T08:00:46.000Z</time>
      </trkpt>
      <trkpt lat="48.65056" lon="1.70453">
        <ele>165</ele>
        <time>2026-06-16T08:00:53.000Z</time>
      </trkpt>
      <trkpt lat="48.65046" lon="1.70507">
        <ele>165.19999694824</ele>
        <time>2026-06-16T08:01:00.000Z</time>
      </trkpt>
      <trkpt lat="48.65043" lon="1.70521">
        <ele>165.19999694824</ele>
        <time>2026-06-16T08:01:02.000Z</time>
      </trkpt>
      <trkpt lat="48.65037" lon="1.70553">
        <ele>165.39999389648</ele>
        <time>2026-06-16T08:01:06.000Z</time>
      </trkpt>
      <trkpt lat="48.65023" lon="1.70622">
        <ele>166</ele>
        <time>2026-06-16T08:01:15.000Z</time>
      </trkpt>
      <trkpt lat="48.6501" lon="1.70699">
        <ele>166.19999694824</ele>
        <time>2026-06-16T08:01:24.000Z</time>
      </trkpt>
      <trkpt lat="48.64995" lon="1.70779">
        <ele>166</ele>
        <time>2026-06-16T08:01:33.000Z</time>
      </trkpt>
      <trkpt lat="48.64992" lon="1.70797">
        <ele>166</ele>
        <time>2026-06-16T08:01:35.000Z</time>
      </trkpt>
      <trkpt lat="48.64975" lon="1.70881">
        <ele>165.39999389648</ele>
        <time>2026-06-16T08:01:44.000Z</time>
      </trkpt>
      <trkpt lat="48.6497" lon="1.70911">
        <ele>165.39999389648</ele>
        <time>2026-06-16T08:01:47.000Z</time>
      </trkpt>
      <trkpt lat="48.64955" lon="1.70992">
        <ele>165</ele>
        <time>2026-06-16T08:01:55.000Z</time>
      </trkpt>
      <trkpt lat="48.64951" lon="1.7101">
        <ele>164.80000305176</ele>
        <time>2026-06-16T08:01:57.000Z</time>
      </trkpt>
      <trkpt lat="48.64936" lon="1.71093">
        <ele>164.60000610352</ele>
        <time>2026-06-16T08:02:05.000Z</time>
      </trkpt>
      <trkpt lat="48.64934" lon="1.71103">
        <ele>164.39999389648</ele>
        <time>2026-06-16T08:02:06.000Z</time>
      </trkpt>
      <trkpt lat="48.64924" lon="1.71153">
        <ele>164</ele>
        <time>2026-06-16T08:02:11.000Z</time>
      </trkpt>
      <trkpt lat="48.64907" lon="1.7124">
        <ele>164.39999389648</ele>
        <time>2026-06-16T08:02:20.000Z</time>
      </trkpt>
      <trkpt lat="48.64898" lon="1.71288">
        <ele>164.39999389648</ele>
        <time>2026-06-16T08:02:25.000Z</time>
      </trkpt>
      <trkpt lat="48.64882" lon="1.7137">
        <ele>165</ele>
        <time>2026-06-16T08:02:34.000Z</time>
      </trkpt>
      <trkpt lat="48.64879" lon="1.71386">
        <ele>165</ele>
        <time>2026-06-16T08:02:36.000Z</time>
      </trkpt>
      <trkpt lat="48.64863" lon="1.71468">
        <ele>165.39999389648</ele>
        <time>2026-06-16T08:02:45.000Z</time>
      </trkpt>
      <trkpt lat="48.64857" lon="1.71497">
        <ele>165.39999389648</ele>
        <time>2026-06-16T08:02:48.000Z</time>
      </trkpt>
      <trkpt lat="48.64844" lon="1.71569">
        <ele>165.80000305176</ele>
        <time>2026-06-16T08:02:56.000Z</time>
      </trkpt>
      <trkpt lat="48.64828" lon="1.71651">
        <ele>165.80000305176</ele>
        <time>2026-06-16T08:03:05.000Z</time>
      </trkpt>
      <trkpt lat="48.64821" lon="1.71687">
        <ele>165.80000305176</ele>
        <time>2026-06-16T08:03:09.000Z</time>
      </trkpt>
      <trkpt lat="48.64807" lon="1.71766">
        <ele>165.80000305176</ele>
        <time>2026-06-16T08:03:17.000Z</time>
      </trkpt>
      <trkpt lat="48.64799" lon="1.71812">
        <ele>165.60000610352</ele>
        <time>2026-06-16T08:03:22.000Z</time>
      </trkpt>
      <trkpt lat="48.6478" lon="1.71896">
        <ele>165.19999694824</ele>
        <time>2026-06-16T08:03:31.000Z</time>
      </trkpt>
      <trkpt lat="48.64768" lon="1.71971">
        <ele>165</ele>
        <time>2026-06-16T08:03:39.000Z</time>
      </trkpt>
      <trkpt lat="48.64754" lon="1.72052">
        <ele>164.80000305176</ele>
        <time>2026-06-16T08:03:48.000Z</time>
      </trkpt>
      <trkpt lat="48.64751" lon="1.72069">
        <ele>164.60000610352</ele>
        <time>2026-06-16T08:03:50.000Z</time>
      </trkpt>
      <trkpt lat="48.64739" lon="1.72126">
        <ele>164.60000610352</ele>
        <time>2026-06-16T08:03:56.000Z</time>
      </trkpt>
      <trkpt lat="48.64735" lon="1.72147">
        <ele>164.39999389648</ele>
        <time>2026-06-16T08:03:58.000Z</time>
      </trkpt>
      <trkpt lat="48.64727" lon="1.72189">
        <ele>163.80000305176</ele>
        <time>2026-06-16T08:04:02.000Z</time>
      </trkpt>
      <trkpt lat="48.64713" lon="1.72258">
        <ele>163.39999389648</ele>
        <time>2026-06-16T08:04:09.000Z</time>
      </trkpt>
      <trkpt lat="48.64708" lon="1.72287">
        <ele>163</ele>
        <time>2026-06-16T08:04:12.000Z</time>
      </trkpt>
      <trkpt lat="48.64692" lon="1.72371">
        <ele>163</ele>
        <time>2026-06-16T08:04:21.000Z</time>
      </trkpt>
      <trkpt lat="48.64689" lon="1.72389">
        <ele>163</ele>
        <time>2026-06-16T08:04:23.000Z</time>
      </trkpt>
      <trkpt lat="48.64673" lon="1.72468">
        <ele>163.60000610352</ele>
        <time>2026-06-16T08:04:32.000Z</time>
      </trkpt>
      <trkpt lat="48.64666" lon="1.72503">
        <ele>164</ele>
        <time>2026-06-16T08:04:36.000Z</time>
      </trkpt>
      <trkpt lat="48.6466" lon="1.7253">
        <ele>164.39999389648</ele>
        <time>2026-06-16T08:04:39.000Z</time>
      </trkpt>
      <trkpt lat="48.64646" lon="1.72609">
        <ele>165.39999389648</ele>
        <time>2026-06-16T08:04:48.000Z</time>
      </trkpt>
      <trkpt lat="48.64641" lon="1.72636">
        <ele>165.60000610352</ele>
        <time>2026-06-16T08:04:51.000Z</time>
      </trkpt>
      <trkpt lat="48.64625" lon="1.72721">
        <ele>166</ele>
        <time>2026-06-16T08:05:00.000Z</time>
      </trkpt>
      <trkpt lat="48.64621" lon="1.7274">
        <ele>166</ele>
        <time>2026-06-16T08:05:02.000Z</time>
      </trkpt>
      <trkpt lat="48.64605" lon="1.72822">
        <ele>165.19999694824</ele>
        <time>2026-06-16T08:05:10.000Z</time>
      </trkpt>
      <trkpt lat="48.6459" lon="1.72906">
        <ele>165</ele>
        <time>2026-06-16T08:05:18.000Z</time>
      </trkpt>
      <trkpt lat="48.64586" lon="1.72925">
        <ele>164.80000305176</ele>
        <time>2026-06-16T08:05:20.000Z</time>
      </trkpt>
      <trkpt lat="48.64581" lon="1.72949">
        <ele>164.39999389648</ele>
        <time>2026-06-16T08:05:22.000Z</time>
      </trkpt>
      <trkpt lat="48.64565" lon="1.73033">
        <ele>164</ele>
        <time>2026-06-16T08:05:30.000Z</time>
      </trkpt>
      <trkpt lat="48.64564" lon="1.73044">
        <ele>164</ele>
        <time>2026-06-16T08:05:31.000Z</time>
      </trkpt>
      <trkpt lat="48.6455" lon="1.73115">
        <ele>163.39999389648</ele>
        <time>2026-06-16T08:05:38.000Z</time>
      </trkpt>
      <trkpt lat="48.64547" lon="1.73134">
        <ele>163.39999389648</ele>
        <time>2026-06-16T08:05:40.000Z</time>
      </trkpt>
      <trkpt lat="48.64538" lon="1.73204">
        <ele>163.19999694824</ele>
        <time>2026-06-16T08:05:47.000Z</time>
      </trkpt>
      <trkpt lat="48.64535" lon="1.73226">
        <ele>163.19999694824</ele>
        <time>2026-06-16T08:05:49.000Z</time>
      </trkpt>
      <trkpt lat="48.64532" lon="1.73255">
        <ele>163.19999694824</ele>
        <time>2026-06-16T08:05:52.000Z</time>
      </trkpt>
      <trkpt lat="48.6452" lon="1.73335">
        <ele>163.19999694824</ele>
        <time>2026-06-16T08:06:00.000Z</time>
      </trkpt>
      <trkpt lat="48.64512" lon="1.73392">
        <ele>163</ele>
        <time>2026-06-16T08:06:06.000Z</time>
      </trkpt>
      <trkpt lat="48.64499" lon="1.73467">
        <ele>163</ele>
        <time>2026-06-16T08:06:14.000Z</time>
      </trkpt>
      <trkpt lat="48.64487" lon="1.73554">
        <ele>162.80000305176</ele>
        <time>2026-06-16T08:06:23.000Z</time>
      </trkpt>
      <trkpt lat="48.64485" lon="1.73566">
        <ele>162.80000305176</ele>
        <time>2026-06-16T08:06:24.000Z</time>
      </trkpt>
      <trkpt lat="48.64476" lon="1.73623">
        <ele>162.60000610352</ele>
        <time>2026-06-16T08:06:30.000Z</time>
      </trkpt>
      <trkpt lat="48.64466" lon="1.73689">
        <ele>163</ele>
        <time>2026-06-16T08:06:37.000Z</time>
      </trkpt>
      <trkpt lat="48.64453" lon="1.73773">
        <ele>163.39999389648</ele>
        <time>2026-06-16T08:06:46.000Z</time>
      </trkpt>
      <trkpt lat="48.6445" lon="1.73791">
        <ele>163.39999389648</ele>
        <time>2026-06-16T08:06:48.000Z</time>
      </trkpt>
      <trkpt lat="48.64437" lon="1.73875">
        <ele>163.60000610352</ele>
        <time>2026-06-16T08:06:57.000Z</time>
      </trkpt>
      <trkpt lat="48.64436" lon="1.73885">
        <ele>163.60000610352</ele>
        <time>2026-06-16T08:06:58.000Z</time>
      </trkpt>
      <trkpt lat="48.64422" lon="1.7397">
        <ele>164</ele>
        <time>2026-06-16T08:07:07.000Z</time>
      </trkpt>
      <trkpt lat="48.6442" lon="1.73989">
        <ele>164</ele>
        <time>2026-06-16T08:07:09.000Z</time>
      </trkpt>
      <trkpt lat="48.6441" lon="1.74054">
        <ele>164.39999389648</ele>
        <time>2026-06-16T08:07:16.000Z</time>
      </trkpt>
      <trkpt lat="48.64404" lon="1.74091">
        <ele>164.60000610352</ele>
        <time>2026-06-16T08:07:20.000Z</time>
      </trkpt>
      <trkpt lat="48.64392" lon="1.74175">
        <ele>165</ele>
        <time>2026-06-16T08:07:29.000Z</time>
      </trkpt>
      <trkpt lat="48.64387" lon="1.74204">
        <ele>165.39999389648</ele>
        <time>2026-06-16T08:07:32.000Z</time>
      </trkpt>
      <trkpt lat="48.64386" lon="1.74213">
        <ele>165.39999389648</ele>
        <time>2026-06-16T08:07:33.000Z</time>
      </trkpt>
      <trkpt lat="48.64371" lon="1.74304">
        <ele>165.80000305176</ele>
        <time>2026-06-16T08:07:43.000Z</time>
      </trkpt>
      <trkpt lat="48.6437" lon="1.74311">
        <ele>166</ele>
        <time>2026-06-16T08:07:44.000Z</time>
      </trkpt>
      <trkpt lat="48.64354" lon="1.7439">
        <ele>166.19999694824</ele>
        <time>2026-06-16T08:07:52.000Z</time>
      </trkpt>
      <trkpt lat="48.6435" lon="1.74409">
        <ele>166.39999389648</ele>
        <time>2026-06-16T08:07:54.000Z</time>
      </trkpt>
      <trkpt lat="48.64335" lon="1.74489">
        <ele>166.39999389648</ele>
        <time>2026-06-16T08:08:02.000Z</time>
      </trkpt>
      <trkpt lat="48.64333" lon="1.74499">
        <ele>166.39999389648</ele>
        <time>2026-06-16T08:08:03.000Z</time>
      </trkpt>
      <trkpt lat="48.64317" lon="1.7458">
        <ele>166</ele>
        <time>2026-06-16T08:08:11.000Z</time>
      </trkpt>
      <trkpt lat="48.64305" lon="1.74641">
        <ele>165.60000610352</ele>
        <time>2026-06-16T08:08:17.000Z</time>
      </trkpt>
      <trkpt lat="48.64289" lon="1.74723">
        <ele>165</ele>
        <time>2026-06-16T08:08:25.000Z</time>
      </trkpt>
      <trkpt lat="48.64279" lon="1.74775">
        <ele>164.80000305176</ele>
        <time>2026-06-16T08:08:30.000Z</time>
      </trkpt>
      <trkpt lat="48.64263" lon="1.74857">
        <ele>164.39999389648</ele>
        <time>2026-06-16T08:08:38.000Z</time>
      </trkpt>
      <trkpt lat="48.6426" lon="1.74867">
        <ele>164.19999694824</ele>
        <time>2026-06-16T08:08:39.000Z</time>
      </trkpt>
      <trkpt lat="48.64257" lon="1.74888">
        <ele>164.39999389648</ele>
        <time>2026-06-16T08:08:41.000Z</time>
      </trkpt>
      <trkpt lat="48.64241" lon="1.74967">
        <ele>163.80000305176</ele>
        <time>2026-06-16T08:08:49.000Z</time>
      </trkpt>
      <trkpt lat="48.64238" lon="1.74979">
        <ele>163.80000305176</ele>
        <time>2026-06-16T08:08:50.000Z</time>
      </trkpt>
      <trkpt lat="48.64221" lon="1.75065">
        <ele>164</ele>
        <time>2026-06-16T08:08:59.000Z</time>
      </trkpt>
      <trkpt lat="48.64217" lon="1.75085">
        <ele>164.39999389648</ele>
        <time>2026-06-16T08:09:01.000Z</time>
      </trkpt>
      <trkpt lat="48.64199" lon="1.75172">
        <ele>164.80000305176</ele>
        <time>2026-06-16T08:09:10.000Z</time>
      </trkpt>
      <trkpt lat="48.64192" lon="1.75199">
        <ele>164.80000305176</ele>
        <time>2026-06-16T08:09:13.000Z</time>
      </trkpt>
      <trkpt lat="48.64167" lon="1.75269">
        <ele>164.80000305176</ele>
        <time>2026-06-16T08:09:20.000Z</time>
      </trkpt>
      <trkpt lat="48.64131" lon="1.75344">
        <ele>164.60000610352</ele>
        <time>2026-06-16T08:09:28.000Z</time>
      </trkpt>
      <trkpt lat="48.64122" lon="1.75364">
        <ele>164.39999389648</ele>
        <time>2026-06-16T08:09:30.000Z</time>
      </trkpt>
      <trkpt lat="48.64086" lon="1.75435">
        <ele>163.39999389648</ele>
        <time>2026-06-16T08:09:37.000Z</time>
      </trkpt>
      <trkpt lat="48.64081" lon="1.75446">
        <ele>163.39999389648</ele>
        <time>2026-06-16T08:09:38.000Z</time>
      </trkpt>
      <trkpt lat="48.64076" lon="1.75456">
        <ele>163.19999694824</ele>
        <time>2026-06-16T08:09:39.000Z</time>
      </trkpt>
      <trkpt lat="48.6404" lon="1.75531">
        <ele>162</ele>
        <time>2026-06-16T08:09:46.000Z</time>
      </trkpt>
      <trkpt lat="48.64014" lon="1.75583">
        <ele>161.39999389648</ele>
        <time>2026-06-16T08:09:51.000Z</time>
      </trkpt>
      <trkpt lat="48.64" lon="1.75613">
        <ele>161</ele>
        <time>2026-06-16T08:09:54.000Z</time>
      </trkpt>
      <trkpt lat="48.63988" lon="1.7564">
        <ele>160.39999389648</ele>
        <time>2026-06-16T08:09:57.000Z</time>
      </trkpt>
      <trkpt lat="48.63959" lon="1.757">
        <ele>160</ele>
        <time>2026-06-16T08:10:04.000Z</time>
      </trkpt>
      <trkpt lat="48.63931" lon="1.75757">
        <ele>160</ele>
        <time>2026-06-16T08:10:12.000Z</time>
      </trkpt>
      <trkpt lat="48.63897" lon="1.75827">
        <ele>160</ele>
        <time>2026-06-16T08:10:19.000Z</time>
      </trkpt>
      <trkpt lat="48.63892" lon="1.75836">
        <ele>159.80000305176</ele>
        <time>2026-06-16T08:10:20.000Z</time>
      </trkpt>
      <trkpt lat="48.63883" lon="1.75854">
        <ele>159.80000305176</ele>
        <time>2026-06-16T08:10:22.000Z</time>
      </trkpt>
      <trkpt lat="48.63872" lon="1.75875">
        <ele>159.39999389648</ele>
        <time>2026-06-16T08:10:24.000Z</time>
      </trkpt>
      <trkpt lat="48.63839" lon="1.75943">
        <ele>158.80000305176</ele>
        <time>2026-06-16T08:10:31.000Z</time>
      </trkpt>
      <trkpt lat="48.63826" lon="1.7597">
        <ele>158.80000305176</ele>
        <time>2026-06-16T08:10:34.000Z</time>
      </trkpt>
      <trkpt lat="48.6379" lon="1.76045">
        <ele>158.19999694824</ele>
        <time>2026-06-16T08:10:42.000Z</time>
      </trkpt>
      <trkpt lat="48.63782" lon="1.76063">
        <ele>158.19999694824</ele>
        <time>2026-06-16T08:10:44.000Z</time>
      </trkpt>
      <trkpt lat="48.63759" lon="1.76134">
        <ele>157.80000305176</ele>
        <time>2026-06-16T08:10:51.000Z</time>
      </trkpt>
      <trkpt lat="48.63739" lon="1.76221">
        <ele>157.39999389648</ele>
        <time>2026-06-16T08:10:59.000Z</time>
      </trkpt>
      <trkpt lat="48.63736" lon="1.76233">
        <ele>157.19999694824</ele>
        <time>2026-06-16T08:11:00.000Z</time>
      </trkpt>
      <trkpt lat="48.63726" lon="1.76275">
        <ele>156.80000305176</ele>
        <time>2026-06-16T08:11:04.000Z</time>
      </trkpt>
      <trkpt lat="48.63714" lon="1.76323">
        <ele>155.60000610352</ele>
        <time>2026-06-16T08:11:09.000Z</time>
      </trkpt>
      <trkpt lat="48.63711" lon="1.7633">
        <ele>155.60000610352</ele>
        <time>2026-06-16T08:11:10.000Z</time>
      </trkpt>
      <trkpt lat="48.63707" lon="1.76336">
        <ele>155.39999389648</ele>
        <time>2026-06-16T08:11:11.000Z</time>
      </trkpt>
      <trkpt lat="48.63707" lon="1.76336">
        <ele>155.19999694824</ele>
        <time>2026-06-16T08:11:12.000Z</time>
      </trkpt>
      <trkpt lat="48.63695" lon="1.76349">
        <ele>154.60000610352</ele>
        <time>2026-06-16T08:11:14.000Z</time>
      </trkpt>
      <trkpt lat="48.63692" lon="1.76361">
        <ele>154.19999694824</ele>
        <time>2026-06-16T08:11:15.000Z</time>
      </trkpt>
      <trkpt lat="48.63692" lon="1.76368">
        <ele>154</ele>
        <time>2026-06-16T08:11:16.000Z</time>
      </trkpt>
      <trkpt lat="48.63697" lon="1.76394">
        <ele>153.60000610352</ele>
        <time>2026-06-16T08:11:19.000Z</time>
      </trkpt>
      <trkpt lat="48.63699" lon="1.76404">
        <ele>153</ele>
        <time>2026-06-16T08:11:20.000Z</time>
      </trkpt>
      <trkpt lat="48.63705" lon="1.76425">
        <ele>152.80000305176</ele>
        <time>2026-06-16T08:11:22.000Z</time>
      </trkpt>
      <trkpt lat="48.63709" lon="1.76435">
        <ele>152.60000610352</ele>
        <time>2026-06-16T08:11:23.000Z</time>
      </trkpt>
      <trkpt lat="48.63717" lon="1.76456">
        <ele>152.19999694824</ele>
        <time>2026-06-16T08:11:25.000Z</time>
      </trkpt>
      <trkpt lat="48.63729" lon="1.76488">
        <ele>151.19999694824</ele>
        <time>2026-06-16T08:11:28.000Z</time>
      </trkpt>
      <trkpt lat="48.63733" lon="1.76499">
        <ele>151</ele>
        <time>2026-06-16T08:11:29.000Z</time>
      </trkpt>
      <trkpt lat="48.63747" lon="1.76534">
        <ele>150.19999694824</ele>
        <time>2026-06-16T08:11:32.000Z</time>
      </trkpt>
      <trkpt lat="48.63751" lon="1.76545">
        <ele>149.60000610352</ele>
        <time>2026-06-16T08:11:33.000Z</time>
      </trkpt>
      <trkpt lat="48.63761" lon="1.76566">
        <ele>148.80000305176</ele>
        <time>2026-06-16T08:11:35.000Z</time>
      </trkpt>
      <trkpt lat="48.6377" lon="1.76589">
        <ele>148.19999694824</ele>
        <time>2026-06-16T08:11:37.000Z</time>
      </trkpt>
      <trkpt lat="48.63775" lon="1.76601">
        <ele>147.60000610352</ele>
        <time>2026-06-16T08:11:38.000Z</time>
      </trkpt>
      <trkpt lat="48.63792" lon="1.76641">
        <ele>146.39999389648</ele>
        <time>2026-06-16T08:11:41.000Z</time>
      </trkpt>
      <trkpt lat="48.63807" lon="1.76683">
        <ele>145.60000610352</ele>
        <time>2026-06-16T08:11:44.000Z</time>
      </trkpt>
      <trkpt lat="48.63823" lon="1.76727">
        <ele>144.39999389648</ele>
        <time>2026-06-16T08:11:47.000Z</time>
      </trkpt>
      <trkpt lat="48.63833" lon="1.76754">
        <ele>143</ele>
        <time>2026-06-16T08:11:49.000Z</time>
      </trkpt>
      <trkpt lat="48.63848" lon="1.76791">
        <ele>141.60000610352</ele>
        <time>2026-06-16T08:11:52.000Z</time>
      </trkpt>
      <trkpt lat="48.63853" lon="1.76803">
        <ele>141.19999694824</ele>
        <time>2026-06-16T08:11:53.000Z</time>
      </trkpt>
      <trkpt lat="48.6387" lon="1.76855">
        <ele>141.19999694824</ele>
        <time>2026-06-16T08:11:58.000Z</time>
      </trkpt>
      <trkpt lat="48.63879" lon="1.76895">
        <ele>141.19999694824</ele>
        <time>2026-06-16T08:12:02.000Z</time>
      </trkpt>
      <trkpt lat="48.6388" lon="1.76913">
        <ele>141.19999694824</ele>
        <time>2026-06-16T08:12:04.000Z</time>
      </trkpt>
      <trkpt lat="48.63884" lon="1.7695">
        <ele>141.80000305176</ele>
        <time>2026-06-16T08:12:08.000Z</time>
      </trkpt>
      <trkpt lat="48.63883" lon="1.76967">
        <ele>141.80000305176</ele>
        <time>2026-06-16T08:12:10.000Z</time>
      </trkpt>
      <trkpt lat="48.63879" lon="1.77017">
        <ele>142.60000610352</ele>
        <time>2026-06-16T08:12:16.000Z</time>
      </trkpt>
      <trkpt lat="48.63878" lon="1.77034">
        <ele>142.60000610352</ele>
        <time>2026-06-16T08:12:18.000Z</time>
      </trkpt>
      <trkpt lat="48.63869" lon="1.77116">
        <ele>143.19999694824</ele>
        <time>2026-06-16T08:12:27.000Z</time>
      </trkpt>
      <trkpt lat="48.63868" lon="1.77124">
        <ele>143.19999694824</ele>
        <time>2026-06-16T08:12:28.000Z</time>
      </trkpt>
      <trkpt lat="48.6386" lon="1.7721">
        <ele>141.80000305176</ele>
        <time>2026-06-16T08:12:37.000Z</time>
      </trkpt>
      <trkpt lat="48.63856" lon="1.77234">
        <ele>141.60000610352</ele>
        <time>2026-06-16T08:12:41.000Z</time>
      </trkpt>
      <trkpt lat="48.63856" lon="1.77238">
        <ele>141.60000610352</ele>
        <time>2026-06-16T08:12:42.000Z</time>
      </trkpt>
      <trkpt lat="48.63854" lon="1.77252">
        <ele>141.19999694824</ele>
        <time>2026-06-16T08:12:47.000Z</time>
      </trkpt>
      <trkpt lat="48.63853" lon="1.77271">
        <ele>140.60000610352</ele>
        <time>2026-06-16T08:12:54.000Z</time>
      </trkpt>
      <trkpt lat="48.6385" lon="1.77286">
        <ele>140.39999389648</ele>
        <time>2026-06-16T08:13:00.000Z</time>
      </trkpt>
      <trkpt lat="48.6385" lon="1.77289">
        <ele>140.60000610352</ele>
        <time>2026-06-16T08:13:01.000Z</time>
      </trkpt>
      <trkpt lat="48.63846" lon="1.77314">
        <ele>140.60000610352</ele>
        <time>2026-06-16T08:13:07.000Z</time>
      </trkpt>
      <trkpt lat="48.63846" lon="1.77338">
        <ele>140.60000610352</ele>
        <time>2026-06-16T08:13:11.000Z</time>
      </trkpt>
      <trkpt lat="48.63846" lon="1.77344">
        <ele>140.60000610352</ele>
        <time>2026-06-16T08:13:12.000Z</time>
      </trkpt>
      <trkpt lat="48.63844" lon="1.77386">
        <ele>140.80000305176</ele>
        <time>2026-06-16T08:13:18.000Z</time>
      </trkpt>
      <trkpt lat="48.63843" lon="1.77393">
        <ele>141.19999694824</ele>
        <time>2026-06-16T08:13:19.000Z</time>
      </trkpt>
      <trkpt lat="48.6384" lon="1.77425">
        <ele>141.39999389648</ele>
        <time>2026-06-16T08:13:23.000Z</time>
      </trkpt>
      <trkpt lat="48.63836" lon="1.7745">
        <ele>141.60000610352</ele>
        <time>2026-06-16T08:13:26.000Z</time>
      </trkpt>
      <trkpt lat="48.63836" lon="1.77457">
        <ele>141.60000610352</ele>
        <time>2026-06-16T08:13:27.000Z</time>
      </trkpt>
      <trkpt lat="48.63835" lon="1.77468">
        <ele>141.80000305176</ele>
        <time>2026-06-16T08:13:28.000Z</time>
      </trkpt>
      <trkpt lat="48.6383" lon="1.77513">
        <ele>141.60000610352</ele>
        <time>2026-06-16T08:13:33.000Z</time>
      </trkpt>
      <trkpt lat="48.63822" lon="1.77598">
        <ele>141.80000305176</ele>
        <time>2026-06-16T08:13:43.000Z</time>
      </trkpt>
      <trkpt lat="48.63821" lon="1.77607">
        <ele>141.80000305176</ele>
        <time>2026-06-16T08:13:44.000Z</time>
      </trkpt>
      <trkpt lat="48.63814" lon="1.77657">
        <ele>142.39999389648</ele>
        <time>2026-06-16T08:13:50.000Z</time>
      </trkpt>
      <trkpt lat="48.63813" lon="1.77665">
        <ele>142.60000610352</ele>
        <time>2026-06-16T08:13:51.000Z</time>
      </trkpt>
      <trkpt lat="48.63812" lon="1.77673">
        <ele>142.60000610352</ele>
        <time>2026-06-16T08:13:52.000Z</time>
      </trkpt>
      <trkpt lat="48.63811" lon="1.77697">
        <ele>143</ele>
        <time>2026-06-16T08:13:55.000Z</time>
      </trkpt>
      <trkpt lat="48.63805" lon="1.77738">
        <ele>143.39999389648</ele>
        <time>2026-06-16T08:14:00.000Z</time>
      </trkpt>
      <trkpt lat="48.63803" lon="1.77753">
        <ele>143.60000610352</ele>
        <time>2026-06-16T08:14:02.000Z</time>
      </trkpt>
      <trkpt lat="48.63798" lon="1.77779">
        <ele>144.19999694824</ele>
        <time>2026-06-16T08:14:06.000Z</time>
      </trkpt>
      <trkpt lat="48.63795" lon="1.77798">
        <ele>144.60000610352</ele>
        <time>2026-06-16T08:14:09.000Z</time>
      </trkpt>
      <trkpt lat="48.63792" lon="1.77816">
        <ele>145.60000610352</ele>
        <time>2026-06-16T08:14:12.000Z</time>
      </trkpt>
      <trkpt lat="48.63788" lon="1.77849">
        <ele>146.80000305176</ele>
        <time>2026-06-16T08:14:17.000Z</time>
      </trkpt>
      <trkpt lat="48.63787" lon="1.7786">
        <ele>147.19999694824</ele>
        <time>2026-06-16T08:14:19.000Z</time>
      </trkpt>
      <trkpt lat="48.63784" lon="1.77875">
        <ele>147.80000305176</ele>
        <time>2026-06-16T08:14:22.000Z</time>
      </trkpt>
      <trkpt lat="48.63783" lon="1.77885">
        <ele>148.19999694824</ele>
        <time>2026-06-16T08:14:24.000Z</time>
      </trkpt>
      <trkpt lat="48.63783" lon="1.77904">
        <ele>149</ele>
        <time>2026-06-16T08:14:27.000Z</time>
      </trkpt>
      <trkpt lat="48.63781" lon="1.77922">
        <ele>149.60000610352</ele>
        <time>2026-06-16T08:14:30.000Z</time>
      </trkpt>
      <trkpt lat="48.6378" lon="1.77938">
        <ele>150.19999694824</ele>
        <time>2026-06-16T08:14:32.000Z</time>
      </trkpt>
      <trkpt lat="48.63776" lon="1.77966">
        <ele>151.19999694824</ele>
        <time>2026-06-16T08:14:36.000Z</time>
      </trkpt>
      <trkpt lat="48.63775" lon="1.77974">
        <ele>151.60000610352</ele>
        <time>2026-06-16T08:14:37.000Z</time>
      </trkpt>
      <trkpt lat="48.63772" lon="1.78012">
        <ele>152.60000610352</ele>
        <time>2026-06-16T08:14:43.000Z</time>
      </trkpt>
      <trkpt lat="48.6377" lon="1.78022">
        <ele>153</ele>
        <time>2026-06-16T08:14:45.000Z</time>
      </trkpt>
      <trkpt lat="48.63768" lon="1.78045">
        <ele>153.80000305176</ele>
        <time>2026-06-16T08:14:48.000Z</time>
      </trkpt>
      <trkpt lat="48.63767" lon="1.78059">
        <ele>154.19999694824</ele>
        <time>2026-06-16T08:14:50.000Z</time>
      </trkpt>
      <trkpt lat="48.63766" lon="1.7807">
        <ele>154.80000305176</ele>
        <time>2026-06-16T08:14:52.000Z</time>
      </trkpt>
      <trkpt lat="48.63764" lon="1.78103">
        <ele>155.60000610352</ele>
        <time>2026-06-16T08:14:56.000Z</time>
      </trkpt>
      <trkpt lat="48.63762" lon="1.78119">
        <ele>155.80000305176</ele>
        <time>2026-06-16T08:14:58.000Z</time>
      </trkpt>
      <trkpt lat="48.6376" lon="1.78147">
        <ele>156.39999389648</ele>
        <time>2026-06-16T08:15:02.000Z</time>
      </trkpt>
      <trkpt lat="48.63758" lon="1.78158">
        <ele>156.80000305176</ele>
        <time>2026-06-16T08:15:04.000Z</time>
      </trkpt>
      <trkpt lat="48.63754" lon="1.78189">
        <ele>157.60000610352</ele>
        <time>2026-06-16T08:15:09.000Z</time>
      </trkpt>
      <trkpt lat="48.63753" lon="1.78196">
        <ele>158</ele>
        <time>2026-06-16T08:15:10.000Z</time>
      </trkpt>
      <trkpt lat="48.63752" lon="1.78232">
        <ele>159</ele>
        <time>2026-06-16T08:15:16.000Z</time>
      </trkpt>
      <trkpt lat="48.6375" lon="1.78239">
        <ele>159</ele>
        <time>2026-06-16T08:15:17.000Z</time>
      </trkpt>
      <trkpt lat="48.63749" lon="1.7825">
        <ele>159.60000610352</ele>
        <time>2026-06-16T08:15:19.000Z</time>
      </trkpt>
      <trkpt lat="48.63749" lon="1.78263">
        <ele>159.80000305176</ele>
        <time>2026-06-16T08:15:21.000Z</time>
      </trkpt>
      <trkpt lat="48.63749" lon="1.78279">
        <ele>160.19999694824</ele>
        <time>2026-06-16T08:15:23.000Z</time>
      </trkpt>
      <trkpt lat="48.63748" lon="1.78289">
        <ele>160.39999389648</ele>
        <time>2026-06-16T08:15:24.000Z</time>
      </trkpt>
      <trkpt lat="48.63746" lon="1.78305">
        <ele>160.80000305176</ele>
        <time>2026-06-16T08:15:26.000Z</time>
      </trkpt>
      <trkpt lat="48.63743" lon="1.78328">
        <ele>161.19999694824</ele>
        <time>2026-06-16T08:15:29.000Z</time>
      </trkpt>
      <trkpt lat="48.6374" lon="1.78359">
        <ele>161.60000610352</ele>
        <time>2026-06-16T08:15:33.000Z</time>
      </trkpt>
      <trkpt lat="48.63734" lon="1.78419">
        <ele>162</ele>
        <time>2026-06-16T08:15:41.000Z</time>
      </trkpt>
      <trkpt lat="48.63726" lon="1.78507">
        <ele>162</ele>
        <time>2026-06-16T08:15:51.000Z</time>
      </trkpt>
      <trkpt lat="48.63723" lon="1.78573">
        <ele>161.60000610352</ele>
        <time>2026-06-16T08:15:58.000Z</time>
      </trkpt>
      <trkpt lat="48.63723" lon="1.78643">
        <ele>160.80000305176</ele>
        <time>2026-06-16T08:16:04.000Z</time>
      </trkpt>
      <trkpt lat="48.63727" lon="1.78691">
        <ele>160.19999694824</ele>
        <time>2026-06-16T08:16:08.000Z</time>
      </trkpt>
      <trkpt lat="48.6373" lon="1.78734">
        <ele>159.19999694824</ele>
        <time>2026-06-16T08:16:11.000Z</time>
      </trkpt>
      <trkpt lat="48.63731" lon="1.78745">
        <ele>159</ele>
        <time>2026-06-16T08:16:12.000Z</time>
      </trkpt>
      <trkpt lat="48.63733" lon="1.78802">
        <ele>157.39999389648</ele>
        <time>2026-06-16T08:16:16.000Z</time>
      </trkpt>
      <trkpt lat="48.63736" lon="1.78849">
        <ele>156.60000610352</ele>
        <time>2026-06-16T08:16:19.000Z</time>
      </trkpt>
      <trkpt lat="48.63736" lon="1.78861">
        <ele>156.19999694824</ele>
        <time>2026-06-16T08:16:20.000Z</time>
      </trkpt>
      <trkpt lat="48.63739" lon="1.78906">
        <ele>155</ele>
        <time>2026-06-16T08:16:23.000Z</time>
      </trkpt>
      <trkpt lat="48.63742" lon="1.78968">
        <ele>153.80000305176</ele>
        <time>2026-06-16T08:16:27.000Z</time>
      </trkpt>
      <trkpt lat="48.63741" lon="1.78993">
        <ele>153.39999389648</ele>
        <time>2026-06-16T08:16:29.000Z</time>
      </trkpt>
      <trkpt lat="48.63743" lon="1.79034">
        <ele>152.60000610352</ele>
        <time>2026-06-16T08:16:32.000Z</time>
      </trkpt>
      <trkpt lat="48.63747" lon="1.79089">
        <ele>152</ele>
        <time>2026-06-16T08:16:36.000Z</time>
      </trkpt>
      <trkpt lat="48.63748" lon="1.79129">
        <ele>151.39999389648</ele>
        <time>2026-06-16T08:16:39.000Z</time>
      </trkpt>
      <trkpt lat="48.63751" lon="1.79192">
        <ele>151</ele>
        <time>2026-06-16T08:16:43.000Z</time>
      </trkpt>
      <trkpt lat="48.63756" lon="1.79229">
        <ele>150.39999389648</ele>
        <time>2026-06-16T08:16:45.000Z</time>
      </trkpt>
      <trkpt lat="48.63762" lon="1.79259">
        <ele>149.60000610352</ele>
        <time>2026-06-16T08:16:47.000Z</time>
      </trkpt>
      <trkpt lat="48.63766" lon="1.79275">
        <ele>149.39999389648</ele>
        <time>2026-06-16T08:16:48.000Z</time>
      </trkpt>
      <trkpt lat="48.63779" lon="1.79325">
        <ele>147.80000305176</ele>
        <time>2026-06-16T08:16:51.000Z</time>
      </trkpt>
      <trkpt lat="48.63783" lon="1.79336">
        <ele>147</ele>
        <time>2026-06-16T08:16:52.000Z</time>
      </trkpt>
      <trkpt lat="48.63794" lon="1.79368">
        <ele>146.19999694824</ele>
        <time>2026-06-16T08:16:54.000Z</time>
      </trkpt>
      <trkpt lat="48.63811" lon="1.79418">
        <ele>145.19999694824</ele>
        <time>2026-06-16T08:16:58.000Z</time>
      </trkpt>
      <trkpt lat="48.63833" lon="1.79491">
        <ele>144.19999694824</ele>
        <time>2026-06-16T08:17:04.000Z</time>
      </trkpt>
      <trkpt lat="48.63842" lon="1.79514">
        <ele>144.19999694824</ele>
        <time>2026-06-16T08:17:06.000Z</time>
      </trkpt>
      <trkpt lat="48.63845" lon="1.79522">
        <ele>144.19999694824</ele>
        <time>2026-06-16T08:17:07.000Z</time>
      </trkpt>
      <trkpt lat="48.63856" lon="1.7954">
        <ele>144.19999694824</ele>
        <time>2026-06-16T08:17:09.000Z</time>
      </trkpt>
      <trkpt lat="48.63879" lon="1.79573">
        <ele>144.19999694824</ele>
        <time>2026-06-16T08:17:14.000Z</time>
      </trkpt>
      <trkpt lat="48.63903" lon="1.79607">
        <ele>144.39999389648</ele>
        <time>2026-06-16T08:17:19.000Z</time>
      </trkpt>
      <trkpt lat="48.63907" lon="1.79619">
        <ele>144.39999389648</ele>
        <time>2026-06-16T08:17:20.000Z</time>
      </trkpt>
      <trkpt lat="48.6391" lon="1.79628">
        <ele>144.39999389648</ele>
        <time>2026-06-16T08:17:21.000Z</time>
      </trkpt>
      <trkpt lat="48.6391" lon="1.7965">
        <ele>144.19999694824</ele>
        <time>2026-06-16T08:17:23.000Z</time>
      </trkpt>
      <trkpt lat="48.63908" lon="1.79669">
        <ele>144.19999694824</ele>
        <time>2026-06-16T08:17:25.000Z</time>
      </trkpt>
      <trkpt lat="48.639" lon="1.79689">
        <ele>143.60000610352</ele>
        <time>2026-06-16T08:17:27.000Z</time>
      </trkpt>
      <trkpt lat="48.63887" lon="1.79719">
        <ele>143</ele>
        <time>2026-06-16T08:17:30.000Z</time>
      </trkpt>
      <trkpt lat="48.63879" lon="1.79746">
        <ele>142.60000610352</ele>
        <time>2026-06-16T08:17:33.000Z</time>
      </trkpt>
      <trkpt lat="48.63876" lon="1.79762">
        <ele>142.60000610352</ele>
        <time>2026-06-16T08:17:35.000Z</time>
      </trkpt>
      <trkpt lat="48.63876" lon="1.79775">
        <ele>142.60000610352</ele>
        <time>2026-06-16T08:17:37.000Z</time>
      </trkpt>
      <trkpt lat="48.63876" lon="1.7979">
        <ele>142.80000305176</ele>
        <time>2026-06-16T08:17:39.000Z</time>
      </trkpt>
      <trkpt lat="48.63879" lon="1.7981">
        <ele>143.60000610352</ele>
        <time>2026-06-16T08:17:42.000Z</time>
      </trkpt>
      <trkpt lat="48.63881" lon="1.79816">
        <ele>144.19999694824</ele>
        <time>2026-06-16T08:17:43.000Z</time>
      </trkpt>
      <trkpt lat="48.63882" lon="1.79822">
        <ele>144.39999389648</ele>
        <time>2026-06-16T08:17:44.000Z</time>
      </trkpt>
      <trkpt lat="48.63884" lon="1.79833">
        <ele>145.19999694824</ele>
        <time>2026-06-16T08:17:46.000Z</time>
      </trkpt>
      <trkpt lat="48.63886" lon="1.79839">
        <ele>145.39999389648</ele>
        <time>2026-06-16T08:17:47.000Z</time>
      </trkpt>
      <trkpt lat="48.63888" lon="1.79844">
        <ele>145.80000305176</ele>
        <time>2026-06-16T08:17:48.000Z</time>
      </trkpt>
      <trkpt lat="48.63891" lon="1.79855">
        <ele>146.39999389648</ele>
        <time>2026-06-16T08:17:50.000Z</time>
      </trkpt>
      <trkpt lat="48.63892" lon="1.7986">
        <ele>146.60000610352</ele>
        <time>2026-06-16T08:17:51.000Z</time>
      </trkpt>
      <trkpt lat="48.63895" lon="1.79871">
        <ele>147.19999694824</ele>
        <time>2026-06-16T08:17:53.000Z</time>
      </trkpt>
      <trkpt lat="48.63896" lon="1.79876">
        <ele>147.60000610352</ele>
        <time>2026-06-16T08:17:54.000Z</time>
      </trkpt>
      <trkpt lat="48.63901" lon="1.79892">
        <ele>149</ele>
        <time>2026-06-16T08:17:57.000Z</time>
      </trkpt>
      <trkpt lat="48.63906" lon="1.79909">
        <ele>150</ele>
        <time>2026-06-16T08:18:00.000Z</time>
      </trkpt>
      <trkpt lat="48.63912" lon="1.79925">
        <ele>151</ele>
        <time>2026-06-16T08:18:03.000Z</time>
      </trkpt>
      <trkpt lat="48.63915" lon="1.79938">
        <ele>151.60000610352</ele>
        <time>2026-06-16T08:18:05.000Z</time>
      </trkpt>
      <trkpt lat="48.63917" lon="1.79945">
        <ele>152</ele>
        <time>2026-06-16T08:18:06.000Z</time>
      </trkpt>
      <trkpt lat="48.63919" lon="1.79952">
        <ele>152.19999694824</ele>
        <time>2026-06-16T08:18:07.000Z</time>
      </trkpt>
      <trkpt lat="48.63921" lon="1.79958">
        <ele>152.39999389648</ele>
        <time>2026-06-16T08:18:08.000Z</time>
      </trkpt>
      <trkpt lat="48.63923" lon="1.79967">
        <ele>152.60000610352</ele>
        <time>2026-06-16T08:18:09.000Z</time>
      </trkpt>
      <trkpt lat="48.63932" lon="1.8">
        <ele>153.39999389648</ele>
        <time>2026-06-16T08:18:14.000Z</time>
      </trkpt>
      <trkpt lat="48.63933" lon="1.80006">
        <ele>153.60000610352</ele>
        <time>2026-06-16T08:18:15.000Z</time>
      </trkpt>
      <trkpt lat="48.63935" lon="1.80013">
        <ele>153.80000305176</ele>
        <time>2026-06-16T08:18:16.000Z</time>
      </trkpt>
      <trkpt lat="48.6394" lon="1.80033">
        <ele>154</ele>
        <time>2026-06-16T08:18:19.000Z</time>
      </trkpt>
      <trkpt lat="48.63941" lon="1.8004">
        <ele>154.39999389648</ele>
        <time>2026-06-16T08:18:20.000Z</time>
      </trkpt>
      <trkpt lat="48.63942" lon="1.80046">
        <ele>154.60000610352</ele>
        <time>2026-06-16T08:18:21.000Z</time>
      </trkpt>
      <trkpt lat="48.63954" lon="1.80093">
        <ele>155.19999694824</ele>
        <time>2026-06-16T08:18:28.000Z</time>
      </trkpt>
      <trkpt lat="48.63955" lon="1.801">
        <ele>155.60000610352</ele>
        <time>2026-06-16T08:18:29.000Z</time>
      </trkpt>
      <trkpt lat="48.63955" lon="1.80112">
        <ele>155.80000305176</ele>
        <time>2026-06-16T08:18:31.000Z</time>
      </trkpt>
      <trkpt lat="48.63953" lon="1.80124">
        <ele>156</ele>
        <time>2026-06-16T08:18:33.000Z</time>
      </trkpt>
      <trkpt lat="48.63949" lon="1.80145">
        <ele>156.80000305176</ele>
        <time>2026-06-16T08:18:36.000Z</time>
      </trkpt>
      <trkpt lat="48.63948" lon="1.80151">
        <ele>156.80000305176</ele>
        <time>2026-06-16T08:18:37.000Z</time>
      </trkpt>
      <trkpt lat="48.63944" lon="1.8017">
        <ele>157.80000305176</ele>
        <time>2026-06-16T08:18:40.000Z</time>
      </trkpt>
      <trkpt lat="48.63942" lon="1.80177">
        <ele>158.19999694824</ele>
        <time>2026-06-16T08:18:41.000Z</time>
      </trkpt>
      <trkpt lat="48.63938" lon="1.80191">
        <ele>158.39999389648</ele>
        <time>2026-06-16T08:18:43.000Z</time>
      </trkpt>
      <trkpt lat="48.63937" lon="1.80205">
        <ele>158.80000305176</ele>
        <time>2026-06-16T08:18:45.000Z</time>
      </trkpt>
      <trkpt lat="48.63932" lon="1.80235">
        <ele>160</ele>
        <time>2026-06-16T08:18:50.000Z</time>
      </trkpt>
      <trkpt lat="48.63927" lon="1.80259">
        <ele>160.60000610352</ele>
        <time>2026-06-16T08:18:54.000Z</time>
      </trkpt>
      <trkpt lat="48.63926" lon="1.80265">
        <ele>161</ele>
        <time>2026-06-16T08:18:55.000Z</time>
      </trkpt>
      <trkpt lat="48.63917" lon="1.80312">
        <ele>162</ele>
        <time>2026-06-16T08:19:02.000Z</time>
      </trkpt>
      <trkpt lat="48.639" lon="1.80371">
        <ele>162.60000610352</ele>
        <time>2026-06-16T08:19:11.000Z</time>
      </trkpt>
      <trkpt lat="48.63879" lon="1.80416">
        <ele>163</ele>
        <time>2026-06-16T08:19:19.000Z</time>
      </trkpt>
      <trkpt lat="48.63876" lon="1.80422">
        <ele>163</ele>
        <time>2026-06-16T08:19:20.000Z</time>
      </trkpt>
      <trkpt lat="48.63873" lon="1.80427">
        <ele>163</ele>
        <time>2026-06-16T08:19:21.000Z</time>
      </trkpt>
      <trkpt lat="48.63869" lon="1.80437">
        <ele>163.39999389648</ele>
        <time>2026-06-16T08:19:23.000Z</time>
      </trkpt>
      <trkpt lat="48.63866" lon="1.80444">
        <ele>163.39999389648</ele>
        <time>2026-06-16T08:19:24.000Z</time>
      </trkpt>
      <trkpt lat="48.63848" lon="1.80493">
        <ele>164</ele>
        <time>2026-06-16T08:19:31.000Z</time>
      </trkpt>
      <trkpt lat="48.63845" lon="1.80501">
        <ele>164.19999694824</ele>
        <time>2026-06-16T08:19:32.000Z</time>
      </trkpt>
      <trkpt lat="48.63826" lon="1.80554">
        <ele>164.60000610352</ele>
        <time>2026-06-16T08:19:39.000Z</time>
      </trkpt>
      <trkpt lat="48.63823" lon="1.80561">
        <ele>164.60000610352</ele>
        <time>2026-06-16T08:19:40.000Z</time>
      </trkpt>
      <trkpt lat="48.63816" lon="1.80574">
        <ele>164.80000305176</ele>
        <time>2026-06-16T08:19:42.000Z</time>
      </trkpt>
      <trkpt lat="48.63814" lon="1.80581">
        <ele>165</ele>
        <time>2026-06-16T08:19:43.000Z</time>
      </trkpt>
      <trkpt lat="48.63805" lon="1.80602">
        <ele>165</ele>
        <time>2026-06-16T08:19:46.000Z</time>
      </trkpt>
      <trkpt lat="48.63797" lon="1.80625">
        <ele>165</ele>
        <time>2026-06-16T08:19:49.000Z</time>
      </trkpt>
      <trkpt lat="48.63792" lon="1.80644">
        <ele>164.80000305176</ele>
        <time>2026-06-16T08:19:51.000Z</time>
      </trkpt>
      <trkpt lat="48.63777" lon="1.80683">
        <ele>164.39999389648</ele>
        <time>2026-06-16T08:19:56.000Z</time>
      </trkpt>
      <trkpt lat="48.63758" lon="1.80736">
        <ele>164.19999694824</ele>
        <time>2026-06-16T08:20:02.000Z</time>
      </trkpt>
      <trkpt lat="48.63751" lon="1.80752">
        <ele>164</ele>
        <time>2026-06-16T08:20:04.000Z</time>
      </trkpt>
      <trkpt lat="48.63739" lon="1.8078">
        <ele>163.60000610352</ele>
        <time>2026-06-16T08:20:07.000Z</time>
      </trkpt>
      <trkpt lat="48.63716" lon="1.80844">
        <ele>162.80000305176</ele>
        <time>2026-06-16T08:20:14.000Z</time>
      </trkpt>
      <trkpt lat="48.63691" lon="1.80917">
        <ele>162.19999694824</ele>
        <time>2026-06-16T08:20:22.000Z</time>
      </trkpt>
      <trkpt lat="48.63688" lon="1.80926">
        <ele>162.19999694824</ele>
        <time>2026-06-16T08:20:23.000Z</time>
      </trkpt>
      <trkpt lat="48.63675" lon="1.80959">
        <ele>162</ele>
        <time>2026-06-16T08:20:27.000Z</time>
      </trkpt>
      <trkpt lat="48.63669" lon="1.80976">
        <ele>162</ele>
        <time>2026-06-16T08:20:29.000Z</time>
      </trkpt>
      <trkpt lat="48.63665" lon="1.80984">
        <ele>162.19999694824</ele>
        <time>2026-06-16T08:20:30.000Z</time>
      </trkpt>
      <trkpt lat="48.63655" lon="1.81009">
        <ele>162.19999694824</ele>
        <time>2026-06-16T08:20:33.000Z</time>
      </trkpt>
      <trkpt lat="48.63652" lon="1.81018">
        <ele>162.39999389648</ele>
        <time>2026-06-16T08:20:34.000Z</time>
      </trkpt>
      <trkpt lat="48.63646" lon="1.81066">
        <ele>162.80000305176</ele>
        <time>2026-06-16T08:20:39.000Z</time>
      </trkpt>
      <trkpt lat="48.63646" lon="1.81066">
        <ele>163</ele>
        <time>2026-06-16T08:20:40.000Z</time>
      </trkpt>
      <trkpt lat="48.63646" lon="1.81092">
        <ele>163.39999389648</ele>
        <time>2026-06-16T08:20:42.000Z</time>
      </trkpt>
      <trkpt lat="48.6365" lon="1.81123">
        <ele>163.60000610352</ele>
        <time>2026-06-16T08:20:45.000Z</time>
      </trkpt>
      <trkpt lat="48.63659" lon="1.81158">
        <ele>163.80000305176</ele>
        <time>2026-06-16T08:20:49.000Z</time>
      </trkpt>
      <trkpt lat="48.63665" lon="1.81175">
        <ele>163.80000305176</ele>
        <time>2026-06-16T08:20:51.000Z</time>
      </trkpt>
      <trkpt lat="48.63673" lon="1.81191">
        <ele>163.80000305176</ele>
        <time>2026-06-16T08:20:53.000Z</time>
      </trkpt>
      <trkpt lat="48.63686" lon="1.81213">
        <ele>163.80000305176</ele>
        <time>2026-06-16T08:20:56.000Z</time>
      </trkpt>
      <trkpt lat="48.63722" lon="1.81264">
        <ele>163.39999389648</ele>
        <time>2026-06-16T08:21:04.000Z</time>
      </trkpt>
      <trkpt lat="48.63744" lon="1.81304">
        <ele>163</ele>
        <time>2026-06-16T08:21:10.000Z</time>
      </trkpt>
      <trkpt lat="48.63764" lon="1.81343">
        <ele>162.80000305176</ele>
        <time>2026-06-16T08:21:16.000Z</time>
      </trkpt>
      <trkpt lat="48.63774" lon="1.81361">
        <ele>162.60000610352</ele>
        <time>2026-06-16T08:21:19.000Z</time>
      </trkpt>
      <trkpt lat="48.6378" lon="1.81374">
        <ele>162.39999389648</ele>
        <time>2026-06-16T08:21:21.000Z</time>
      </trkpt>
      <trkpt lat="48.6379" lon="1.81394">
        <ele>162.39999389648</ele>
        <time>2026-06-16T08:21:24.000Z</time>
      </trkpt>
      <trkpt lat="48.63797" lon="1.81407">
        <ele>162.19999694824</ele>
        <time>2026-06-16T08:21:26.000Z</time>
      </trkpt>
      <trkpt lat="48.6382" lon="1.81455">
        <ele>161.80000305176</ele>
        <time>2026-06-16T08:21:32.000Z</time>
      </trkpt>
      <trkpt lat="48.6384" lon="1.81509">
        <ele>160.39999389648</ele>
        <time>2026-06-16T08:21:37.000Z</time>
      </trkpt>
      <trkpt lat="48.63852" lon="1.81544">
        <ele>159.19999694824</ele>
        <time>2026-06-16T08:21:40.000Z</time>
      </trkpt>
      <trkpt lat="48.6386" lon="1.81567">
        <ele>158.39999389648</ele>
        <time>2026-06-16T08:21:42.000Z</time>
      </trkpt>
      <trkpt lat="48.63865" lon="1.81579">
        <ele>157.80000305176</ele>
        <time>2026-06-16T08:21:43.000Z</time>
      </trkpt>
      <trkpt lat="48.63874" lon="1.81606">
        <ele>156.19999694824</ele>
        <time>2026-06-16T08:21:45.000Z</time>
      </trkpt>
      <trkpt lat="48.63878" lon="1.81617">
        <ele>156</ele>
        <time>2026-06-16T08:21:46.000Z</time>
      </trkpt>
      <trkpt lat="48.63882" lon="1.81627">
        <ele>155.39999389648</ele>
        <time>2026-06-16T08:21:47.000Z</time>
      </trkpt>
      <trkpt lat="48.63887" lon="1.81638">
        <ele>155</ele>
        <time>2026-06-16T08:21:48.000Z</time>
      </trkpt>
      <trkpt lat="48.63894" lon="1.81659">
        <ele>153.80000305176</ele>
        <time>2026-06-16T08:21:50.000Z</time>
      </trkpt>
      <trkpt lat="48.63901" lon="1.81677">
        <ele>152.60000610352</ele>
        <time>2026-06-16T08:21:52.000Z</time>
      </trkpt>
      <trkpt lat="48.63903" lon="1.81685">
        <ele>152.39999389648</ele>
        <time>2026-06-16T08:21:53.000Z</time>
      </trkpt>
      <trkpt lat="48.63909" lon="1.81699">
        <ele>151.60000610352</ele>
        <time>2026-06-16T08:21:55.000Z</time>
      </trkpt>
      <trkpt lat="48.63911" lon="1.81704">
        <ele>151</ele>
        <time>2026-06-16T08:21:56.000Z</time>
      </trkpt>
      <trkpt lat="48.63913" lon="1.8171">
        <ele>150.60000610352</ele>
        <time>2026-06-16T08:21:57.000Z</time>
      </trkpt>
      <trkpt lat="48.63916" lon="1.81719">
        <ele>150.39999389648</ele>
        <time>2026-06-16T08:21:58.000Z</time>
      </trkpt>
      <trkpt lat="48.63918" lon="1.81732">
        <ele>150</ele>
        <time>2026-06-16T08:21:59.000Z</time>
      </trkpt>
      <trkpt lat="48.63924" lon="1.81754">
        <ele>149.39999389648</ele>
        <time>2026-06-16T08:22:01.000Z</time>
      </trkpt>
      <trkpt lat="48.63927" lon="1.81761">
        <ele>149.19999694824</ele>
        <time>2026-06-16T08:22:02.000Z</time>
      </trkpt>
      <trkpt lat="48.63939" lon="1.81779">
        <ele>148.80000305176</ele>
        <time>2026-06-16T08:22:05.000Z</time>
      </trkpt>
      <trkpt lat="48.63942" lon="1.81785">
        <ele>148.39999389648</ele>
        <time>2026-06-16T08:22:06.000Z</time>
      </trkpt>
      <trkpt lat="48.63948" lon="1.81806">
        <ele>148.19999694824</ele>
        <time>2026-06-16T08:22:08.000Z</time>
      </trkpt>
      <trkpt lat="48.63951" lon="1.81819">
        <ele>148</ele>
        <time>2026-06-16T08:22:09.000Z</time>
      </trkpt>
      <trkpt lat="48.63954" lon="1.81827">
        <ele>148</ele>
        <time>2026-06-16T08:22:10.000Z</time>
      </trkpt>
      <trkpt lat="48.63975" lon="1.81833">
        <ele>147.60000610352</ele>
        <time>2026-06-16T08:22:13.000Z</time>
      </trkpt>
      <trkpt lat="48.63988" lon="1.81851">
        <ele>147</ele>
        <time>2026-06-16T08:22:16.000Z</time>
      </trkpt>
      <trkpt lat="48.6399" lon="1.81857">
        <ele>147</ele>
        <time>2026-06-16T08:22:17.000Z</time>
      </trkpt>
      <trkpt lat="48.63994" lon="1.81864">
        <ele>146.80000305176</ele>
        <time>2026-06-16T08:22:18.000Z</time>
      </trkpt>
      <trkpt lat="48.64005" lon="1.81884">
        <ele>146.60000610352</ele>
        <time>2026-06-16T08:22:21.000Z</time>
      </trkpt>
      <trkpt lat="48.64019" lon="1.81909">
        <ele>146.60000610352</ele>
        <time>2026-06-16T08:22:25.000Z</time>
      </trkpt>
      <trkpt lat="48.64025" lon="1.81921">
        <ele>146.60000610352</ele>
        <time>2026-06-16T08:22:27.000Z</time>
      </trkpt>
      <trkpt lat="48.6404" lon="1.81943">
        <ele>146.39999389648</ele>
        <time>2026-06-16T08:22:31.000Z</time>
      </trkpt>
      <trkpt lat="48.64063" lon="1.81978">
        <ele>146.60000610352</ele>
        <time>2026-06-16T08:22:37.000Z</time>
      </trkpt>
      <trkpt lat="48.64066" lon="1.81984">
        <ele>146.60000610352</ele>
        <time>2026-06-16T08:22:38.000Z</time>
      </trkpt>
      <trkpt lat="48.64069" lon="1.8199">
        <ele>146.60000610352</ele>
        <time>2026-06-16T08:22:39.000Z</time>
      </trkpt>
      <trkpt lat="48.64075" lon="1.82013">
        <ele>146.80000305176</ele>
        <time>2026-06-16T08:22:42.000Z</time>
      </trkpt>
      <trkpt lat="48.64076" lon="1.82019">
        <ele>146.80000305176</ele>
        <time>2026-06-16T08:22:43.000Z</time>
      </trkpt>
      <trkpt lat="48.64077" lon="1.82029">
        <ele>146.80000305176</ele>
        <time>2026-06-16T08:22:44.000Z</time>
      </trkpt>
      <trkpt lat="48.6408" lon="1.82062">
        <ele>147</ele>
        <time>2026-06-16T08:22:48.000Z</time>
      </trkpt>
      <trkpt lat="48.64075" lon="1.82102">
        <ele>147.19999694824</ele>
        <time>2026-06-16T08:22:53.000Z</time>
      </trkpt>
      <trkpt lat="48.64077" lon="1.82119">
        <ele>147.19999694824</ele>
        <time>2026-06-16T08:22:55.000Z</time>
      </trkpt>
      <trkpt lat="48.6408" lon="1.82136">
        <ele>147.39999389648</ele>
        <time>2026-06-16T08:22:57.000Z</time>
      </trkpt>
      <trkpt lat="48.64082" lon="1.82171">
        <ele>147.60000610352</ele>
        <time>2026-06-16T08:23:01.000Z</time>
      </trkpt>
      <trkpt lat="48.64082" lon="1.82195">
        <ele>147.39999389648</ele>
        <time>2026-06-16T08:23:04.000Z</time>
      </trkpt>
      <trkpt lat="48.64084" lon="1.82227">
        <ele>147.80000305176</ele>
        <time>2026-06-16T08:23:08.000Z</time>
      </trkpt>
      <trkpt lat="48.64084" lon="1.82235">
        <ele>147.80000305176</ele>
        <time>2026-06-16T08:23:09.000Z</time>
      </trkpt>
      <trkpt lat="48.64088" lon="1.82284">
        <ele>147.80000305176</ele>
        <time>2026-06-16T08:23:15.000Z</time>
      </trkpt>
      <trkpt lat="48.64094" lon="1.82327">
        <ele>147.80000305176</ele>
        <time>2026-06-16T08:23:21.000Z</time>
      </trkpt>
      <trkpt lat="48.64095" lon="1.82334">
        <ele>147.80000305176</ele>
        <time>2026-06-16T08:23:22.000Z</time>
      </trkpt>
      <trkpt lat="48.641" lon="1.82351">
        <ele>147.80000305176</ele>
        <time>2026-06-16T08:23:25.000Z</time>
      </trkpt>
      <trkpt lat="48.64102" lon="1.8239">
        <ele>147.80000305176</ele>
        <time>2026-06-16T08:23:31.000Z</time>
      </trkpt>
      <trkpt lat="48.64102" lon="1.82396">
        <ele>147.80000305176</ele>
        <time>2026-06-16T08:23:32.000Z</time>
      </trkpt>
      <trkpt lat="48.64103" lon="1.8241">
        <ele>147.80000305176</ele>
        <time>2026-06-16T08:23:34.000Z</time>
      </trkpt>
      <trkpt lat="48.64105" lon="1.8243">
        <ele>148</ele>
        <time>2026-06-16T08:23:37.000Z</time>
      </trkpt>
      <trkpt lat="48.64105" lon="1.8245">
        <ele>148</ele>
        <time>2026-06-16T08:23:40.000Z</time>
      </trkpt>
      <trkpt lat="48.64109" lon="1.82473">
        <ele>148</ele>
        <time>2026-06-16T08:23:44.000Z</time>
      </trkpt>
      <trkpt lat="48.64113" lon="1.82484">
        <ele>148</ele>
        <time>2026-06-16T08:23:46.000Z</time>
      </trkpt>
      <trkpt lat="48.64115" lon="1.8249">
        <ele>148</ele>
        <time>2026-06-16T08:23:47.000Z</time>
      </trkpt>
      <trkpt lat="48.64131" lon="1.82525">
        <ele>147.60000610352</ele>
        <time>2026-06-16T08:23:54.000Z</time>
      </trkpt>
      <trkpt lat="48.64143" lon="1.82562">
        <ele>147.60000610352</ele>
        <time>2026-06-16T08:24:01.000Z</time>
      </trkpt>
      <trkpt lat="48.64156" lon="1.8257">
        <ele>147.39999389648</ele>
        <time>2026-06-16T08:24:04.000Z</time>
      </trkpt>
      <trkpt lat="48.64161" lon="1.82572">
        <ele>147.39999389648</ele>
        <time>2026-06-16T08:24:05.000Z</time>
      </trkpt>
      <trkpt lat="48.64175" lon="1.82574">
        <ele>147.39999389648</ele>
        <time>2026-06-16T08:24:08.000Z</time>
      </trkpt>
      <trkpt lat="48.6418" lon="1.82574">
        <ele>147.39999389648</ele>
        <time>2026-06-16T08:24:09.000Z</time>
      </trkpt>
      <trkpt lat="48.64191" lon="1.82575">
        <ele>147.39999389648</ele>
        <time>2026-06-16T08:24:11.000Z</time>
      </trkpt>
      <trkpt lat="48.64205" lon="1.82575">
        <ele>147.39999389648</ele>
        <time>2026-06-16T08:24:14.000Z</time>
      </trkpt>
      <trkpt lat="48.64221" lon="1.82577">
        <ele>147.60000610352</ele>
        <time>2026-06-16T08:24:17.000Z</time>
      </trkpt>
      <trkpt lat="48.64241" lon="1.82579">
        <ele>148</ele>
        <time>2026-06-16T08:24:21.000Z</time>
      </trkpt>
      <trkpt lat="48.6426" lon="1.8258">
        <ele>148.39999389648</ele>
        <time>2026-06-16T08:24:26.000Z</time>
      </trkpt>
      <trkpt lat="48.64279" lon="1.82583">
        <ele>149</ele>
        <time>2026-06-16T08:24:32.000Z</time>
      </trkpt>
      <trkpt lat="48.64282" lon="1.82584">
        <ele>149</ele>
        <time>2026-06-16T08:24:33.000Z</time>
      </trkpt>
      <trkpt lat="48.64292" lon="1.82584">
        <ele>149.60000610352</ele>
        <time>2026-06-16T08:24:38.000Z</time>
      </trkpt>
      <trkpt lat="48.643" lon="1.8258">
        <ele>149.80000305176</ele>
        <time>2026-06-16T08:24:41.000Z</time>
      </trkpt>
      <trkpt lat="48.64301" lon="1.82578">
        <ele>149.80000305176</ele>
        <time>2026-06-16T08:24:42.000Z</time>
      </trkpt>
      <trkpt lat="48.64303" lon="1.82575">
        <ele>150</ele>
        <time>2026-06-16T08:24:43.000Z</time>
      </trkpt>
      <trkpt lat="48.64307" lon="1.82567">
        <ele>150.19999694824</ele>
        <time>2026-06-16T08:24:47.000Z</time>
      </trkpt>
      <trkpt lat="48.64307" lon="1.82566">
        <ele>150.39999389648</ele>
        <time>2026-06-16T08:24:48.000Z</time>
      </trkpt>
      <trkpt lat="48.64308" lon="1.82566">
        <ele>150.39999389648</ele>
        <time>2026-06-16T08:24:50.000Z</time>
      </trkpt>
      <trkpt lat="48.64307" lon="1.82562">
        <ele>150.39999389648</ele>
        <time>2026-06-16T08:24:53.000Z</time>
      </trkpt>
      <trkpt lat="48.64303" lon="1.82558">
        <ele>150.39999389648</ele>
        <time>2026-06-16T08:24:55.000Z</time>
      </trkpt>
      <trkpt lat="48.64296" lon="1.82552">
        <ele>150.39999389648</ele>
        <time>2026-06-16T08:25:01.000Z</time>
      </trkpt>
      <trkpt lat="48.64296" lon="1.82551">
        <ele>150.19999694824</ele>
        <time>2026-06-16T08:25:12.000Z</time>
      </trkpt>
      <trkpt lat="48.64296" lon="1.82552">
        <ele>150</ele>
        <time>2026-06-16T08:25:52.000Z</time>
      </trkpt>
      <trkpt lat="48.64294" lon="1.8255">
        <ele>149.60000610352</ele>
        <time>2026-06-16T08:26:59.000Z</time>
      </trkpt>
      <trkpt lat="48.64294" lon="1.8255">
        <ele>149.60000610352</ele>
        <time>2026-06-16T08:27:00.000Z</time>
      </trkpt>
      <trkpt lat="48.64291" lon="1.82552">
        <ele>149.60000610352</ele>
        <time>2026-06-16T08:27:02.000Z</time>
      </trkpt>
      <trkpt lat="48.6429" lon="1.82554">
        <ele>149.60000610352</ele>
        <time>2026-06-16T08:27:03.000Z</time>
      </trkpt>
      <trkpt lat="48.64288" lon="1.82559">
        <ele>149.60000610352</ele>
        <time>2026-06-16T08:27:08.000Z</time>
      </trkpt>
      <trkpt lat="48.64287" lon="1.82566">
        <ele>149.39999389648</ele>
        <time>2026-06-16T08:27:13.000Z</time>
      </trkpt>
      <trkpt lat="48.64287" lon="1.82569">
        <ele>149.39999389648</ele>
        <time>2026-06-16T08:27:14.000Z</time>
      </trkpt>
      <trkpt lat="48.64291" lon="1.82586">
        <ele>149.19999694824</ele>
        <time>2026-06-16T08:27:19.000Z</time>
      </trkpt>
      <trkpt lat="48.64293" lon="1.82588">
        <ele>149.19999694824</ele>
        <time>2026-06-16T08:27:20.000Z</time>
      </trkpt>
      <trkpt lat="48.64303" lon="1.8259">
        <ele>149.19999694824</ele>
        <time>2026-06-16T08:27:24.000Z</time>
      </trkpt>
      <trkpt lat="48.64305" lon="1.82593">
        <ele>149.39999389648</ele>
        <time>2026-06-16T08:27:25.000Z</time>
      </trkpt>
      <trkpt lat="48.64315" lon="1.82608">
        <ele>150</ele>
        <time>2026-06-16T08:27:31.000Z</time>
      </trkpt>
      <trkpt lat="48.64326" lon="1.82614">
        <ele>150.60000610352</ele>
        <time>2026-06-16T08:27:37.000Z</time>
      </trkpt>
      <trkpt lat="48.64333" lon="1.82618">
        <ele>150.80000305176</ele>
        <time>2026-06-16T08:27:40.000Z</time>
      </trkpt>
      <trkpt lat="48.64338" lon="1.82622">
        <ele>151.19999694824</ele>
        <time>2026-06-16T08:27:42.000Z</time>
      </trkpt>
      <trkpt lat="48.64341" lon="1.82623">
        <ele>151.39999389648</ele>
        <time>2026-06-16T08:27:43.000Z</time>
      </trkpt>
      <trkpt lat="48.64347" lon="1.82628">
        <ele>152</ele>
        <time>2026-06-16T08:27:46.000Z</time>
      </trkpt>
      <trkpt lat="48.64358" lon="1.82643">
        <ele>153</ele>
        <time>2026-06-16T08:27:52.000Z</time>
      </trkpt>
      <trkpt lat="48.64361" lon="1.82648">
        <ele>153.19999694824</ele>
        <time>2026-06-16T08:27:54.000Z</time>
      </trkpt>
      <trkpt lat="48.64368" lon="1.82666">
        <ele>154</ele>
        <time>2026-06-16T08:28:00.000Z</time>
      </trkpt>
      <trkpt lat="48.64369" lon="1.8267">
        <ele>154.19999694824</ele>
        <time>2026-06-16T08:28:01.000Z</time>
      </trkpt>
      <trkpt lat="48.64369" lon="1.8268">
        <ele>154.60000610352</ele>
        <time>2026-06-16T08:28:03.000Z</time>
      </trkpt>
      <trkpt lat="48.64365" lon="1.82689">
        <ele>155</ele>
        <time>2026-06-16T08:28:05.000Z</time>
      </trkpt>
      <trkpt lat="48.64363" lon="1.82693">
        <ele>155.39999389648</ele>
        <time>2026-06-16T08:28:06.000Z</time>
      </trkpt>
      <trkpt lat="48.64355" lon="1.82715">
        <ele>156</ele>
        <time>2026-06-16T08:28:11.000Z</time>
      </trkpt>
      <trkpt lat="48.64352" lon="1.82723">
        <ele>156.39999389648</ele>
        <time>2026-06-16T08:28:13.000Z</time>
      </trkpt>
      <trkpt lat="48.64349" lon="1.82736">
        <ele>156.80000305176</ele>
        <time>2026-06-16T08:28:16.000Z</time>
      </trkpt>
      <trkpt lat="48.64343" lon="1.82763">
        <ele>157.19999694824</ele>
        <time>2026-06-16T08:28:21.000Z</time>
      </trkpt>
      <trkpt lat="48.64331" lon="1.82804">
        <ele>157.39999389648</ele>
        <time>2026-06-16T08:28:27.000Z</time>
      </trkpt>
      <trkpt lat="48.64327" lon="1.82818">
        <ele>157.19999694824</ele>
        <time>2026-06-16T08:28:29.000Z</time>
      </trkpt>
      <trkpt lat="48.64321" lon="1.82837">
        <ele>156.80000305176</ele>
        <time>2026-06-16T08:28:32.000Z</time>
      </trkpt>
      <trkpt lat="48.64318" lon="1.82858">
        <ele>156.60000610352</ele>
        <time>2026-06-16T08:28:35.000Z</time>
      </trkpt>
      <trkpt lat="48.6432" lon="1.82872">
        <ele>156.60000610352</ele>
        <time>2026-06-16T08:28:37.000Z</time>
      </trkpt>
      <trkpt lat="48.64321" lon="1.8288">
        <ele>156.39999389648</ele>
        <time>2026-06-16T08:28:38.000Z</time>
      </trkpt>
      <trkpt lat="48.64324" lon="1.829">
        <ele>156.39999389648</ele>
        <time>2026-06-16T08:28:41.000Z</time>
      </trkpt>
      <trkpt lat="48.64327" lon="1.82927">
        <ele>156.39999389648</ele>
        <time>2026-06-16T08:28:45.000Z</time>
      </trkpt>
      <trkpt lat="48.64329" lon="1.82945">
        <ele>156.60000610352</ele>
        <time>2026-06-16T08:28:48.000Z</time>
      </trkpt>
      <trkpt lat="48.64331" lon="1.82956">
        <ele>156.80000305176</ele>
        <time>2026-06-16T08:28:50.000Z</time>
      </trkpt>
      <trkpt lat="48.64332" lon="1.82962">
        <ele>157</ele>
        <time>2026-06-16T08:28:51.000Z</time>
      </trkpt>
      <trkpt lat="48.64335" lon="1.82979">
        <ele>157</ele>
        <time>2026-06-16T08:28:55.000Z</time>
      </trkpt>
      <trkpt lat="48.64336" lon="1.82984">
        <ele>157</ele>
        <time>2026-06-16T08:29:00.000Z</time>
      </trkpt>
      <trkpt lat="48.64336" lon="1.82984">
        <ele>156.39999389648</ele>
        <time>2026-06-16T08:29:12.000Z</time>
      </trkpt>
      <trkpt lat="48.64336" lon="1.82984">
        <ele>156.19999694824</ele>
        <time>2026-06-16T08:29:18.000Z</time>
      </trkpt>
      <trkpt lat="48.64342" lon="1.82995">
        <ele>156.19999694824</ele>
        <time>2026-06-16T08:29:43.000Z</time>
      </trkpt>
      <trkpt lat="48.64338" lon="1.83001">
        <ele>156</ele>
        <time>2026-06-16T08:29:45.000Z</time>
      </trkpt>
      <trkpt lat="48.64335" lon="1.83002">
        <ele>156</ele>
        <time>2026-06-16T08:29:46.000Z</time>
      </trkpt>
      <trkpt lat="48.64318" lon="1.83004">
        <ele>155.39999389648</ele>
        <time>2026-06-16T08:29:51.000Z</time>
      </trkpt>
      <trkpt lat="48.64303" lon="1.83009">
        <ele>154.60000610352</ele>
        <time>2026-06-16T08:29:57.000Z</time>
      </trkpt>
      <trkpt lat="48.64303" lon="1.83009">
        <ele>154.39999389648</ele>
        <time>2026-06-16T08:29:58.000Z</time>
      </trkpt>
      <trkpt lat="48.64303" lon="1.83009">
        <ele>153.60000610352</ele>
        <time>2026-06-16T08:30:05.000Z</time>
      </trkpt>
      <trkpt lat="48.64303" lon="1.83009">
        <ele>153.39999389648</ele>
        <time>2026-06-16T08:30:09.000Z</time>
      </trkpt>
      <trkpt lat="48.64303" lon="1.83009">
        <ele>153.19999694824</ele>
        <time>2026-06-16T08:30:31.000Z</time>
      </trkpt>
      <trkpt lat="48.64296" lon="1.83008">
        <ele>153.19999694824</ele>
        <time>2026-06-16T08:30:34.000Z</time>
      </trkpt>
      <trkpt lat="48.64279" lon="1.83011">
        <ele>153.19999694824</ele>
        <time>2026-06-16T08:30:40.000Z</time>
      </trkpt>
      <trkpt lat="48.64266" lon="1.83033">
        <ele>153</ele>
        <time>2026-06-16T08:30:44.000Z</time>
      </trkpt>
      <trkpt lat="48.64269" lon="1.83047">
        <ele>153</ele>
        <time>2026-06-16T08:30:46.000Z</time>
      </trkpt>
      <trkpt lat="48.64271" lon="1.83054">
        <ele>153</ele>
        <time>2026-06-16T08:30:47.000Z</time>
      </trkpt>
      <trkpt lat="48.64278" lon="1.83084">
        <ele>153.39999389648</ele>
        <time>2026-06-16T08:30:52.000Z</time>
      </trkpt>
      <trkpt lat="48.64279" lon="1.8309">
        <ele>153.60000610352</ele>
        <time>2026-06-16T08:30:53.000Z</time>
      </trkpt>
      <trkpt lat="48.64285" lon="1.8312">
        <ele>154.19999694824</ele>
        <time>2026-06-16T08:30:58.000Z</time>
      </trkpt>
      <trkpt lat="48.64286" lon="1.83133">
        <ele>154.39999389648</ele>
        <time>2026-06-16T08:31:00.000Z</time>
      </trkpt>
      <trkpt lat="48.64289" lon="1.83168">
        <ele>155.60000610352</ele>
        <time>2026-06-16T08:31:05.000Z</time>
      </trkpt>
      <trkpt lat="48.64292" lon="1.83192">
        <ele>155.80000305176</ele>
        <time>2026-06-16T08:31:08.000Z</time>
      </trkpt>
      <trkpt lat="48.64293" lon="1.832">
        <ele>156.19999694824</ele>
        <time>2026-06-16T08:31:09.000Z</time>
      </trkpt>
      <trkpt lat="48.64296" lon="1.83216">
        <ele>156.60000610352</ele>
        <time>2026-06-16T08:31:11.000Z</time>
      </trkpt>
      <trkpt lat="48.64297" lon="1.83224">
        <ele>157</ele>
        <time>2026-06-16T08:31:12.000Z</time>
      </trkpt>
      <trkpt lat="48.64299" lon="1.83238">
        <ele>157.39999389648</ele>
        <time>2026-06-16T08:31:14.000Z</time>
      </trkpt>
      <trkpt lat="48.64301" lon="1.83252">
        <ele>157.60000610352</ele>
        <time>2026-06-16T08:31:16.000Z</time>
      </trkpt>
      <trkpt lat="48.64302" lon="1.83259">
        <ele>157.80000305176</ele>
        <time>2026-06-16T08:31:17.000Z</time>
      </trkpt>
      <trkpt lat="48.64306" lon="1.8328">
        <ele>158</ele>
        <time>2026-06-16T08:31:20.000Z</time>
      </trkpt>
      <trkpt lat="48.64306" lon="1.83287">
        <ele>158.19999694824</ele>
        <time>2026-06-16T08:31:21.000Z</time>
      </trkpt>
      <trkpt lat="48.6431" lon="1.83307">
        <ele>158.60000610352</ele>
        <time>2026-06-16T08:31:24.000Z</time>
      </trkpt>
      <trkpt lat="48.64312" lon="1.83313">
        <ele>158.60000610352</ele>
        <time>2026-06-16T08:31:25.000Z</time>
      </trkpt>
      <trkpt lat="48.64316" lon="1.8334">
        <ele>159.39999389648</ele>
        <time>2026-06-16T08:31:29.000Z</time>
      </trkpt>
      <trkpt lat="48.64318" lon="1.83352">
        <ele>159.60000610352</ele>
        <time>2026-06-16T08:31:31.000Z</time>
      </trkpt>
      <trkpt lat="48.64321" lon="1.83366">
        <ele>159.80000305176</ele>
        <time>2026-06-16T08:31:33.000Z</time>
      </trkpt>
      <trkpt lat="48.64321" lon="1.83373">
        <ele>160</ele>
        <time>2026-06-16T08:31:34.000Z</time>
      </trkpt>
      <trkpt lat="48.64324" lon="1.834">
        <ele>160.60000610352</ele>
        <time>2026-06-16T08:31:38.000Z</time>
      </trkpt>
      <trkpt lat="48.64323" lon="1.83413">
        <ele>160.80000305176</ele>
        <time>2026-06-16T08:31:40.000Z</time>
      </trkpt>
      <trkpt lat="48.64322" lon="1.8342">
        <ele>160.80000305176</ele>
        <time>2026-06-16T08:31:41.000Z</time>
      </trkpt>
      <trkpt lat="48.64322" lon="1.83434">
        <ele>161</ele>
        <time>2026-06-16T08:31:43.000Z</time>
      </trkpt>
      <trkpt lat="48.64324" lon="1.83448">
        <ele>161.19999694824</ele>
        <time>2026-06-16T08:31:45.000Z</time>
      </trkpt>
      <trkpt lat="48.64325" lon="1.83462">
        <ele>161.19999694824</ele>
        <time>2026-06-16T08:31:47.000Z</time>
      </trkpt>
      <trkpt lat="48.64327" lon="1.83469">
        <ele>161.39999389648</ele>
        <time>2026-06-16T08:31:48.000Z</time>
      </trkpt>
      <trkpt lat="48.64328" lon="1.83497">
        <ele>161.60000610352</ele>
        <time>2026-06-16T08:31:52.000Z</time>
      </trkpt>
      <trkpt lat="48.64332" lon="1.83549">
        <ele>161.80000305176</ele>
        <time>2026-06-16T08:32:00.000Z</time>
      </trkpt>
      <trkpt lat="48.64335" lon="1.83573">
        <ele>161.80000305176</ele>
        <time>2026-06-16T08:32:03.000Z</time>
      </trkpt>
      <trkpt lat="48.64337" lon="1.83597">
        <ele>161.60000610352</ele>
        <time>2026-06-16T08:32:06.000Z</time>
      </trkpt>
      <trkpt lat="48.64338" lon="1.83605">
        <ele>161.60000610352</ele>
        <time>2026-06-16T08:32:07.000Z</time>
      </trkpt>
      <trkpt lat="48.64343" lon="1.83638">
        <ele>161.39999389648</ele>
        <time>2026-06-16T08:32:11.000Z</time>
      </trkpt>
      <trkpt lat="48.64349" lon="1.83692">
        <ele>161.19999694824</ele>
        <time>2026-06-16T08:32:18.000Z</time>
      </trkpt>
      <trkpt lat="48.64352" lon="1.83717">
        <ele>161.19999694824</ele>
        <time>2026-06-16T08:32:21.000Z</time>
      </trkpt>
      <trkpt lat="48.64355" lon="1.83753">
        <ele>161.19999694824</ele>
        <time>2026-06-16T08:32:25.000Z</time>
      </trkpt>
      <trkpt lat="48.64358" lon="1.83795">
        <ele>161</ele>
        <time>2026-06-16T08:32:30.000Z</time>
      </trkpt>
      <trkpt lat="48.64359" lon="1.83812">
        <ele>161</ele>
        <time>2026-06-16T08:32:32.000Z</time>
      </trkpt>
      <trkpt lat="48.64361" lon="1.83829">
        <ele>161</ele>
        <time>2026-06-16T08:32:34.000Z</time>
      </trkpt>
      <trkpt lat="48.64362" lon="1.83845">
        <ele>161.19999694824</ele>
        <time>2026-06-16T08:32:36.000Z</time>
      </trkpt>
      <trkpt lat="48.64365" lon="1.83895">
        <ele>161.19999694824</ele>
        <time>2026-06-16T08:32:42.000Z</time>
      </trkpt>
      <trkpt lat="48.64366" lon="1.83903">
        <ele>161.19999694824</ele>
        <time>2026-06-16T08:32:43.000Z</time>
      </trkpt>
      <trkpt lat="48.64369" lon="1.83951">
        <ele>161.39999389648</ele>
        <time>2026-06-16T08:32:49.000Z</time>
      </trkpt>
      <trkpt lat="48.64369" lon="1.83959">
        <ele>161.60000610352</ele>
        <time>2026-06-16T08:32:50.000Z</time>
      </trkpt>
      <trkpt lat="48.64363" lon="1.83983">
        <ele>161.60000610352</ele>
        <time>2026-06-16T08:32:53.000Z</time>
      </trkpt>
      <trkpt lat="48.64362" lon="1.83991">
        <ele>161.39999389648</ele>
        <time>2026-06-16T08:32:54.000Z</time>
      </trkpt>
      <trkpt lat="48.64364" lon="1.84005">
        <ele>161.39999389648</ele>
        <time>2026-06-16T08:32:56.000Z</time>
      </trkpt>
      <trkpt lat="48.64369" lon="1.84022">
        <ele>161.60000610352</ele>
        <time>2026-06-16T08:33:00.000Z</time>
      </trkpt>
      <trkpt lat="48.64372" lon="1.84029">
        <ele>161.39999389648</ele>
        <time>2026-06-16T08:33:02.000Z</time>
      </trkpt>
      <trkpt lat="48.64374" lon="1.84047">
        <ele>161.39999389648</ele>
        <time>2026-06-16T08:33:05.000Z</time>
      </trkpt>
      <trkpt lat="48.64376" lon="1.84085">
        <ele>161.19999694824</ele>
        <time>2026-06-16T08:33:10.000Z</time>
      </trkpt>
      <trkpt lat="48.64376" lon="1.84094">
        <ele>161.19999694824</ele>
        <time>2026-06-16T08:33:11.000Z</time>
      </trkpt>
      <trkpt lat="48.64378" lon="1.84123">
        <ele>160.60000610352</ele>
        <time>2026-06-16T08:33:14.000Z</time>
      </trkpt>
      <trkpt lat="48.64381" lon="1.84142">
        <ele>160.19999694824</ele>
        <time>2026-06-16T08:33:16.000Z</time>
      </trkpt>
      <trkpt lat="48.64382" lon="1.8415">
        <ele>160</ele>
        <time>2026-06-16T08:33:17.000Z</time>
      </trkpt>
      <trkpt lat="48.64384" lon="1.84158">
        <ele>159.80000305176</ele>
        <time>2026-06-16T08:33:18.000Z</time>
      </trkpt>
      <trkpt lat="48.64388" lon="1.84169">
        <ele>159.80000305176</ele>
        <time>2026-06-16T08:33:19.000Z</time>
      </trkpt>
      <trkpt lat="48.64389" lon="1.8418">
        <ele>159.80000305176</ele>
        <time>2026-06-16T08:33:20.000Z</time>
      </trkpt>
      <trkpt lat="48.64389" lon="1.84199">
        <ele>159.60000610352</ele>
        <time>2026-06-16T08:33:22.000Z</time>
      </trkpt>
      <trkpt lat="48.64391" lon="1.84225">
        <ele>159.60000610352</ele>
        <time>2026-06-16T08:33:25.000Z</time>
      </trkpt>
      <trkpt lat="48.64391" lon="1.84241">
        <ele>159.80000305176</ele>
        <time>2026-06-16T08:33:27.000Z</time>
      </trkpt>
      <trkpt lat="48.64394" lon="1.84276">
        <ele>160.80000305176</ele>
        <time>2026-06-16T08:33:32.000Z</time>
      </trkpt>
      <trkpt lat="48.64394" lon="1.84283">
        <ele>161</ele>
        <time>2026-06-16T08:33:33.000Z</time>
      </trkpt>
      <trkpt lat="48.64397" lon="1.84312">
        <ele>161.80000305176</ele>
        <time>2026-06-16T08:33:37.000Z</time>
      </trkpt>
      <trkpt lat="48.64398" lon="1.84319">
        <ele>162</ele>
        <time>2026-06-16T08:33:38.000Z</time>
      </trkpt>
      <trkpt lat="48.644" lon="1.84326">
        <ele>162.19999694824</ele>
        <time>2026-06-16T08:33:39.000Z</time>
      </trkpt>
      <trkpt lat="48.64402" lon="1.84333">
        <ele>162.19999694824</ele>
        <time>2026-06-16T08:33:40.000Z</time>
      </trkpt>
      <trkpt lat="48.6441" lon="1.84361">
        <ele>162.80000305176</ele>
        <time>2026-06-16T08:33:44.000Z</time>
      </trkpt>
      <trkpt lat="48.6441" lon="1.84368">
        <ele>162.80000305176</ele>
        <time>2026-06-16T08:33:45.000Z</time>
      </trkpt>
      <trkpt lat="48.64411" lon="1.84375">
        <ele>163</ele>
        <time>2026-06-16T08:33:46.000Z</time>
      </trkpt>
      <trkpt lat="48.64411" lon="1.84395">
        <ele>163.19999694824</ele>
        <time>2026-06-16T08:33:50.000Z</time>
      </trkpt>
      <trkpt lat="48.64412" lon="1.84399">
        <ele>163.39999389648</ele>
        <time>2026-06-16T08:33:51.000Z</time>
      </trkpt>
      <trkpt lat="48.64416" lon="1.84413">
        <ele>163.39999389648</ele>
        <time>2026-06-16T08:33:54.000Z</time>
      </trkpt>
      <trkpt lat="48.6442" lon="1.84427">
        <ele>163.60000610352</ele>
        <time>2026-06-16T08:33:59.000Z</time>
      </trkpt>
      <trkpt lat="48.64425" lon="1.84443">
        <ele>163.39999389648</ele>
        <time>2026-06-16T08:34:06.000Z</time>
      </trkpt>
      <trkpt lat="48.64432" lon="1.84448">
        <ele>163.39999389648</ele>
        <time>2026-06-16T08:34:09.000Z</time>
      </trkpt>
      <trkpt lat="48.64434" lon="1.84455">
        <ele>163.39999389648</ele>
        <time>2026-06-16T08:34:11.000Z</time>
      </trkpt>
      <trkpt lat="48.64436" lon="1.84483">
        <ele>163.39999389648</ele>
        <time>2026-06-16T08:34:16.000Z</time>
      </trkpt>
      <trkpt lat="48.64443" lon="1.84527">
        <ele>163.60000610352</ele>
        <time>2026-06-16T08:34:23.000Z</time>
      </trkpt>
      <trkpt lat="48.64448" lon="1.84547">
        <ele>163.80000305176</ele>
        <time>2026-06-16T08:34:26.000Z</time>
      </trkpt>
      <trkpt lat="48.64453" lon="1.84566">
        <ele>164</ele>
        <time>2026-06-16T08:34:29.000Z</time>
      </trkpt>
      <trkpt lat="48.64454" lon="1.84573">
        <ele>164</ele>
        <time>2026-06-16T08:34:30.000Z</time>
      </trkpt>
      <trkpt lat="48.64462" lon="1.8461">
        <ele>164.19999694824</ele>
        <time>2026-06-16T08:34:36.000Z</time>
      </trkpt>
      <trkpt lat="48.64465" lon="1.8463">
        <ele>164.39999389648</ele>
        <time>2026-06-16T08:34:39.000Z</time>
      </trkpt>
      <trkpt lat="48.64467" lon="1.84658">
        <ele>164.60000610352</ele>
        <time>2026-06-16T08:34:43.000Z</time>
      </trkpt>
      <trkpt lat="48.64473" lon="1.84709">
        <ele>165</ele>
        <time>2026-06-16T08:34:50.000Z</time>
      </trkpt>
      <trkpt lat="48.64473" lon="1.84717">
        <ele>165</ele>
        <time>2026-06-16T08:34:51.000Z</time>
      </trkpt>
      <trkpt lat="48.64476" lon="1.84753">
        <ele>165.39999389648</ele>
        <time>2026-06-16T08:34:56.000Z</time>
      </trkpt>
      <trkpt lat="48.64478" lon="1.8476">
        <ele>165.39999389648</ele>
        <time>2026-06-16T08:34:57.000Z</time>
      </trkpt>
      <trkpt lat="48.64484" lon="1.8477">
        <ele>165.39999389648</ele>
        <time>2026-06-16T08:34:59.000Z</time>
      </trkpt>
      <trkpt lat="48.64502" lon="1.84789">
        <ele>165.60000610352</ele>
        <time>2026-06-16T08:35:04.000Z</time>
      </trkpt>
      <trkpt lat="48.64504" lon="1.84795">
        <ele>165.60000610352</ele>
        <time>2026-06-16T08:35:05.000Z</time>
      </trkpt>
      <trkpt lat="48.64506" lon="1.848">
        <ele>165.60000610352</ele>
        <time>2026-06-16T08:35:06.000Z</time>
      </trkpt>
      <trkpt lat="48.64506" lon="1.84813">
        <ele>165.60000610352</ele>
        <time>2026-06-16T08:35:08.000Z</time>
      </trkpt>
      <trkpt lat="48.64506" lon="1.84819">
        <ele>165.39999389648</ele>
        <time>2026-06-16T08:35:09.000Z</time>
      </trkpt>
      <trkpt lat="48.64505" lon="1.84826">
        <ele>165.39999389648</ele>
        <time>2026-06-16T08:35:10.000Z</time>
      </trkpt>
      <trkpt lat="48.64502" lon="1.84839">
        <ele>165.39999389648</ele>
        <time>2026-06-16T08:35:12.000Z</time>
      </trkpt>
      <trkpt lat="48.64498" lon="1.84848">
        <ele>165.39999389648</ele>
        <time>2026-06-16T08:35:14.000Z</time>
      </trkpt>
      <trkpt lat="48.64486" lon="1.84857">
        <ele>165.60000610352</ele>
        <time>2026-06-16T08:35:17.000Z</time>
      </trkpt>
      <trkpt lat="48.64483" lon="1.84861">
        <ele>165.60000610352</ele>
        <time>2026-06-16T08:35:18.000Z</time>
      </trkpt>
      <trkpt lat="48.6448" lon="1.84868">
        <ele>165.60000610352</ele>
        <time>2026-06-16T08:35:19.000Z</time>
      </trkpt>
      <trkpt lat="48.64479" lon="1.84884">
        <ele>165.60000610352</ele>
        <time>2026-06-16T08:35:21.000Z</time>
      </trkpt>
      <trkpt lat="48.64478" lon="1.84892">
        <ele>165.80000305176</ele>
        <time>2026-06-16T08:35:22.000Z</time>
      </trkpt>
      <trkpt lat="48.64479" lon="1.84933">
        <ele>165.80000305176</ele>
        <time>2026-06-16T08:35:27.000Z</time>
      </trkpt>
      <trkpt lat="48.64479" lon="1.84983">
        <ele>166</ele>
        <time>2026-06-16T08:35:33.000Z</time>
      </trkpt>
      <trkpt lat="48.6448" lon="1.84999">
        <ele>166</ele>
        <time>2026-06-16T08:35:35.000Z</time>
      </trkpt>
      <trkpt lat="48.6448" lon="1.85007">
        <ele>166.19999694824</ele>
        <time>2026-06-16T08:35:36.000Z</time>
      </trkpt>
      <trkpt lat="48.64481" lon="1.85056">
        <ele>166.39999389648</ele>
        <time>2026-06-16T08:35:42.000Z</time>
      </trkpt>
      <trkpt lat="48.64483" lon="1.85113">
        <ele>166.60000610352</ele>
        <time>2026-06-16T08:35:49.000Z</time>
      </trkpt>
      <trkpt lat="48.64483" lon="1.85137">
        <ele>166.60000610352</ele>
        <time>2026-06-16T08:35:52.000Z</time>
      </trkpt>
      <trkpt lat="48.64485" lon="1.85152">
        <ele>166.60000610352</ele>
        <time>2026-06-16T08:35:54.000Z</time>
      </trkpt>
      <trkpt lat="48.64487" lon="1.8516">
        <ele>166.60000610352</ele>
        <time>2026-06-16T08:35:55.000Z</time>
      </trkpt>
      <trkpt lat="48.64498" lon="1.85225">
        <ele>166.39999389648</ele>
        <time>2026-06-16T08:36:03.000Z</time>
      </trkpt>
      <trkpt lat="48.64504" lon="1.85255">
        <ele>166.19999694824</ele>
        <time>2026-06-16T08:36:07.000Z</time>
      </trkpt>
      <trkpt lat="48.64507" lon="1.85278">
        <ele>166.19999694824</ele>
        <time>2026-06-16T08:36:10.000Z</time>
      </trkpt>
      <trkpt lat="48.64514" lon="1.85313">
        <ele>166.19999694824</ele>
        <time>2026-06-16T08:36:15.000Z</time>
      </trkpt>
      <trkpt lat="48.64519" lon="1.85323">
        <ele>166.19999694824</ele>
        <time>2026-06-16T08:36:17.000Z</time>
      </trkpt>
      <trkpt lat="48.64536" lon="1.85346">
        <ele>166.39999389648</ele>
        <time>2026-06-16T08:36:23.000Z</time>
      </trkpt>
      <trkpt lat="48.6454" lon="1.85369">
        <ele>166.39999389648</ele>
        <time>2026-06-16T08:36:27.000Z</time>
      </trkpt>
      <trkpt lat="48.64536" lon="1.85407">
        <ele>166.60000610352</ele>
        <time>2026-06-16T08:36:33.000Z</time>
      </trkpt>
      <trkpt lat="48.64539" lon="1.85425">
        <ele>166.60000610352</ele>
        <time>2026-06-16T08:36:36.000Z</time>
      </trkpt>
      <trkpt lat="48.64543" lon="1.85443">
        <ele>167</ele>
        <time>2026-06-16T08:36:39.000Z</time>
      </trkpt>
      <trkpt lat="48.64546" lon="1.85455">
        <ele>167.19999694824</ele>
        <time>2026-06-16T08:36:41.000Z</time>
      </trkpt>
      <trkpt lat="48.64561" lon="1.85511">
        <ele>167.60000610352</ele>
        <time>2026-06-16T08:36:50.000Z</time>
      </trkpt>
      <trkpt lat="48.64571" lon="1.85542">
        <ele>168</ele>
        <time>2026-06-16T08:36:57.000Z</time>
      </trkpt>
      <trkpt lat="48.64572" lon="1.85547">
        <ele>168.19999694824</ele>
        <time>2026-06-16T08:36:59.000Z</time>
      </trkpt>
      <trkpt lat="48.6457" lon="1.85553">
        <ele>168.19999694824</ele>
        <time>2026-06-16T08:37:01.000Z</time>
      </trkpt>
      <trkpt lat="48.64567" lon="1.85554">
        <ele>168.19999694824</ele>
        <time>2026-06-16T08:37:02.000Z</time>
      </trkpt>
      <trkpt lat="48.64552" lon="1.85552">
        <ele>168.19999694824</ele>
        <time>2026-06-16T08:37:06.000Z</time>
      </trkpt>
      <trkpt lat="48.64538" lon="1.85551">
        <ele>168.19999694824</ele>
        <time>2026-06-16T08:37:11.000Z</time>
      </trkpt>
      <trkpt lat="48.64536" lon="1.85552">
        <ele>168</ele>
        <time>2026-06-16T08:37:12.000Z</time>
      </trkpt>
      <trkpt lat="48.64534" lon="1.85559">
        <ele>168</ele>
        <time>2026-06-16T08:37:14.000Z</time>
      </trkpt>
      <trkpt lat="48.64532" lon="1.85576">
        <ele>168</ele>
        <time>2026-06-16T08:37:17.000Z</time>
      </trkpt>
      <trkpt lat="48.64536" lon="1.85615">
        <ele>168</ele>
        <time>2026-06-16T08:37:23.000Z</time>
      </trkpt>
      <trkpt lat="48.64544" lon="1.85655">
        <ele>168.19999694824</ele>
        <time>2026-06-16T08:37:28.000Z</time>
      </trkpt>
      <trkpt lat="48.64554" lon="1.85716">
        <ele>168.39999389648</ele>
        <time>2026-06-16T08:37:35.000Z</time>
      </trkpt>
      <trkpt lat="48.64561" lon="1.85776">
        <ele>169.19999694824</ele>
        <time>2026-06-16T08:37:42.000Z</time>
      </trkpt>
      <trkpt lat="48.64561" lon="1.85784">
        <ele>169.19999694824</ele>
        <time>2026-06-16T08:37:43.000Z</time>
      </trkpt>
      <trkpt lat="48.64561" lon="1.85806">
        <ele>169.39999389648</ele>
        <time>2026-06-16T08:37:47.000Z</time>
      </trkpt>
      <trkpt lat="48.64561" lon="1.85808">
        <ele>169.60000610352</ele>
        <time>2026-06-16T08:37:51.000Z</time>
      </trkpt>
      <trkpt lat="48.64561" lon="1.85818">
        <ele>169.39999389648</ele>
        <time>2026-06-16T08:38:00.000Z</time>
      </trkpt>
      <trkpt lat="48.64561" lon="1.85843">
        <ele>169.39999389648</ele>
        <time>2026-06-16T08:38:06.000Z</time>
      </trkpt>
      <trkpt lat="48.6457" lon="1.85855">
        <ele>169.19999694824</ele>
        <time>2026-06-16T08:38:09.000Z</time>
      </trkpt>
      <trkpt lat="48.64588" lon="1.85863">
        <ele>169.19999694824</ele>
        <time>2026-06-16T08:38:13.000Z</time>
      </trkpt>
      <trkpt lat="48.64592" lon="1.85866">
        <ele>169.19999694824</ele>
        <time>2026-06-16T08:38:14.000Z</time>
      </trkpt>
      <trkpt lat="48.64611" lon="1.8588">
        <ele>169</ele>
        <time>2026-06-16T08:38:19.000Z</time>
      </trkpt>
      <trkpt lat="48.64613" lon="1.85882">
        <ele>169</ele>
        <time>2026-06-16T08:38:20.000Z</time>
      </trkpt>
      <trkpt lat="48.64623" lon="1.85889">
        <ele>169</ele>
        <time>2026-06-16T08:38:25.000Z</time>
      </trkpt>
      <trkpt lat="48.64625" lon="1.85889">
        <ele>169</ele>
        <time>2026-06-16T08:38:26.000Z</time>
      </trkpt>
      <trkpt lat="48.6463" lon="1.85891">
        <ele>168.80000305176</ele>
        <time>2026-06-16T08:38:29.000Z</time>
      </trkpt>
      <trkpt lat="48.64645" lon="1.85899">
        <ele>168.60000610352</ele>
        <time>2026-06-16T08:38:35.000Z</time>
      </trkpt>
      <trkpt lat="48.64669" lon="1.85908">
        <ele>168.80000305176</ele>
        <time>2026-06-16T08:38:42.000Z</time>
      </trkpt>
      <trkpt lat="48.64691" lon="1.85915">
        <ele>169</ele>
        <time>2026-06-16T08:38:48.000Z</time>
      </trkpt>
      <trkpt lat="48.64708" lon="1.85919">
        <ele>169.19999694824</ele>
        <time>2026-06-16T08:38:53.000Z</time>
      </trkpt>
      <trkpt lat="48.64741" lon="1.85924">
        <ele>169.60000610352</ele>
        <time>2026-06-16T08:39:00.000Z</time>
      </trkpt>
      <trkpt lat="48.6476" lon="1.85928">
        <ele>169.60000610352</ele>
        <time>2026-06-16T08:39:05.000Z</time>
      </trkpt>
      <trkpt lat="48.64763" lon="1.8593">
        <ele>169.39999389648</ele>
        <time>2026-06-16T08:39:07.000Z</time>
      </trkpt>
      <trkpt lat="48.64763" lon="1.85932">
        <ele>169.39999389648</ele>
        <time>2026-06-16T08:39:08.000Z</time>
      </trkpt>
      <trkpt lat="48.64763" lon="1.85941">
        <ele>169.19999694824</ele>
        <time>2026-06-16T08:39:11.000Z</time>
      </trkpt>
      <trkpt lat="48.64762" lon="1.85952">
        <ele>169.19999694824</ele>
        <time>2026-06-16T08:39:13.000Z</time>
      </trkpt>
      <trkpt lat="48.64761" lon="1.85969">
        <ele>168.80000305176</ele>
        <time>2026-06-16T08:39:15.000Z</time>
      </trkpt>
      <trkpt lat="48.64762" lon="1.85984">
        <ele>168.80000305176</ele>
        <time>2026-06-16T08:39:17.000Z</time>
      </trkpt>
      <trkpt lat="48.64759" lon="1.86012">
        <ele>168.39999389648</ele>
        <time>2026-06-16T08:39:21.000Z</time>
      </trkpt>
      <trkpt lat="48.64746" lon="1.86036">
        <ele>168.19999694824</ele>
        <time>2026-06-16T08:39:26.000Z</time>
      </trkpt>
      <trkpt lat="48.64735" lon="1.86061">
        <ele>168.39999389648</ele>
        <time>2026-06-16T08:39:30.000Z</time>
      </trkpt>
      <trkpt lat="48.6474" lon="1.86089">
        <ele>168.80000305176</ele>
        <time>2026-06-16T08:39:35.000Z</time>
      </trkpt>
      <trkpt lat="48.64748" lon="1.8611">
        <ele>168.80000305176</ele>
        <time>2026-06-16T08:39:38.000Z</time>
      </trkpt>
      <trkpt lat="48.64755" lon="1.86123">
        <ele>168.80000305176</ele>
        <time>2026-06-16T08:39:40.000Z</time>
      </trkpt>
      <trkpt lat="48.6476" lon="1.86131">
        <ele>168.80000305176</ele>
        <time>2026-06-16T08:39:41.000Z</time>
      </trkpt>
      <trkpt lat="48.64765" lon="1.86137">
        <ele>168.80000305176</ele>
        <time>2026-06-16T08:39:42.000Z</time>
      </trkpt>
      <trkpt lat="48.64774" lon="1.86147">
        <ele>168.80000305176</ele>
        <time>2026-06-16T08:39:44.000Z</time>
      </trkpt>
      <trkpt lat="48.64783" lon="1.86158">
        <ele>168.80000305176</ele>
        <time>2026-06-16T08:39:46.000Z</time>
      </trkpt>
      <trkpt lat="48.6479" lon="1.86173">
        <ele>168.80000305176</ele>
        <time>2026-06-16T08:39:48.000Z</time>
      </trkpt>
      <trkpt lat="48.64798" lon="1.86196">
        <ele>168.60000610352</ele>
        <time>2026-06-16T08:39:51.000Z</time>
      </trkpt>
      <trkpt lat="48.648" lon="1.86203">
        <ele>168.60000610352</ele>
        <time>2026-06-16T08:39:52.000Z</time>
      </trkpt>
      <trkpt lat="48.648" lon="1.86218">
        <ele>168.39999389648</ele>
        <time>2026-06-16T08:39:54.000Z</time>
      </trkpt>
      <trkpt lat="48.648" lon="1.86227">
        <ele>168.19999694824</ele>
        <time>2026-06-16T08:39:55.000Z</time>
      </trkpt>
      <trkpt lat="48.64801" lon="1.86234">
        <ele>168.19999694824</ele>
        <time>2026-06-16T08:39:56.000Z</time>
      </trkpt>
      <trkpt lat="48.64805" lon="1.86245">
        <ele>168</ele>
        <time>2026-06-16T08:39:58.000Z</time>
      </trkpt>
      <trkpt lat="48.6482" lon="1.86271">
        <ele>168</ele>
        <time>2026-06-16T08:40:03.000Z</time>
      </trkpt>
      <trkpt lat="48.64823" lon="1.86275">
        <ele>168.19999694824</ele>
        <time>2026-06-16T08:40:04.000Z</time>
      </trkpt>
      <trkpt lat="48.64848" lon="1.86298">
        <ele>168</ele>
        <time>2026-06-16T08:40:10.000Z</time>
      </trkpt>
      <trkpt lat="48.6487" lon="1.8633">
        <ele>167.80000305176</ele>
        <time>2026-06-16T08:40:16.000Z</time>
      </trkpt>
      <trkpt lat="48.64878" lon="1.86351">
        <ele>167.80000305176</ele>
        <time>2026-06-16T08:40:19.000Z</time>
      </trkpt>
      <trkpt lat="48.64883" lon="1.86363">
        <ele>167.80000305176</ele>
        <time>2026-06-16T08:40:21.000Z</time>
      </trkpt>
      <trkpt lat="48.64892" lon="1.86383">
        <ele>167.80000305176</ele>
        <time>2026-06-16T08:40:24.000Z</time>
      </trkpt>
      <trkpt lat="48.64898" lon="1.86405">
        <ele>168</ele>
        <time>2026-06-16T08:40:27.000Z</time>
      </trkpt>
      <trkpt lat="48.649" lon="1.86421">
        <ele>168</ele>
        <time>2026-06-16T08:40:29.000Z</time>
      </trkpt>
      <trkpt lat="48.64901" lon="1.86444">
        <ele>168</ele>
        <time>2026-06-16T08:40:32.000Z</time>
      </trkpt>
      <trkpt lat="48.64905" lon="1.8649">
        <ele>167.80000305176</ele>
        <time>2026-06-16T08:40:38.000Z</time>
      </trkpt>
      <trkpt lat="48.64905" lon="1.8651">
        <ele>167.19999694824</ele>
        <time>2026-06-16T08:40:41.000Z</time>
      </trkpt>
      <trkpt lat="48.64908" lon="1.86536">
        <ele>166.80000305176</ele>
        <time>2026-06-16T08:40:44.000Z</time>
      </trkpt>
      <trkpt lat="48.6491" lon="1.86565">
        <ele>166.39999389648</ele>
        <time>2026-06-16T08:40:48.000Z</time>
      </trkpt>
      <trkpt lat="48.64918" lon="1.86589">
        <ele>166.60000610352</ele>
        <time>2026-06-16T08:40:53.000Z</time>
      </trkpt>
      <trkpt lat="48.64931" lon="1.86608">
        <ele>167</ele>
        <time>2026-06-16T08:40:58.000Z</time>
      </trkpt>
      <trkpt lat="48.64947" lon="1.86628">
        <ele>167.60000610352</ele>
        <time>2026-06-16T08:41:04.000Z</time>
      </trkpt>
      <trkpt lat="48.64948" lon="1.86643">
        <ele>168</ele>
        <time>2026-06-16T08:41:07.000Z</time>
      </trkpt>
      <trkpt lat="48.64946" lon="1.86648">
        <ele>168.19999694824</ele>
        <time>2026-06-16T08:41:08.000Z</time>
      </trkpt>
      <trkpt lat="48.64932" lon="1.86686">
        <ele>168.19999694824</ele>
        <time>2026-06-16T08:41:15.000Z</time>
      </trkpt>
      <trkpt lat="48.64919" lon="1.86715">
        <ele>167.60000610352</ele>
        <time>2026-06-16T08:41:21.000Z</time>
      </trkpt>
      <trkpt lat="48.64916" lon="1.8672">
        <ele>167</ele>
        <time>2026-06-16T08:41:24.000Z</time>
      </trkpt>
      <trkpt lat="48.64916" lon="1.8672">
        <ele>166.80000305176</ele>
        <time>2026-06-16T08:41:25.000Z</time>
      </trkpt>
      <trkpt lat="48.64913" lon="1.86719">
        <ele>166.39999389648</ele>
        <time>2026-06-16T08:41:30.000Z</time>
      </trkpt>
      <trkpt lat="48.6491" lon="1.86719">
        <ele>166.19999694824</ele>
        <time>2026-06-16T08:41:32.000Z</time>
      </trkpt>
      <trkpt lat="48.64909" lon="1.8672">
        <ele>166</ele>
        <time>2026-06-16T08:41:35.000Z</time>
      </trkpt>
      <trkpt lat="48.64908" lon="1.8672">
        <ele>166</ele>
        <time>2026-06-16T08:41:43.000Z</time>
      </trkpt>
      <trkpt lat="48.64907" lon="1.86725">
        <ele>166</ele>
        <time>2026-06-16T08:41:45.000Z</time>
      </trkpt>
      <trkpt lat="48.64909" lon="1.8674">
        <ele>166</ele>
        <time>2026-06-16T08:41:48.000Z</time>
      </trkpt>
      <trkpt lat="48.64925" lon="1.86771">
        <ele>166.19999694824</ele>
        <time>2026-06-16T08:41:54.000Z</time>
      </trkpt>
      <trkpt lat="48.64927" lon="1.86777">
        <ele>166.39999389648</ele>
        <time>2026-06-16T08:41:55.000Z</time>
      </trkpt>
      <trkpt lat="48.64932" lon="1.86789">
        <ele>166.60000610352</ele>
        <time>2026-06-16T08:41:58.000Z</time>
      </trkpt>
      <trkpt lat="48.64933" lon="1.86792">
        <ele>167</ele>
        <time>2026-06-16T08:42:02.000Z</time>
      </trkpt>
      <trkpt lat="48.64934" lon="1.86792">
        <ele>167</ele>
        <time>2026-06-16T08:42:05.000Z</time>
      </trkpt>
      <trkpt lat="48.64938" lon="1.86787">
        <ele>167</ele>
        <time>2026-06-16T08:42:08.000Z</time>
      </trkpt>
      <trkpt lat="48.64941" lon="1.86787">
        <ele>167</ele>
        <time>2026-06-16T08:42:09.000Z</time>
      </trkpt>
      <trkpt lat="48.64946" lon="1.86792">
        <ele>166.80000305176</ele>
        <time>2026-06-16T08:42:11.000Z</time>
      </trkpt>
      <trkpt lat="48.6496" lon="1.86818">
        <ele>167</ele>
        <time>2026-06-16T08:42:16.000Z</time>
      </trkpt>
      <trkpt lat="48.64963" lon="1.86825">
        <ele>167</ele>
        <time>2026-06-16T08:42:17.000Z</time>
      </trkpt>
      <trkpt lat="48.64974" lon="1.86852">
        <ele>167.39999389648</ele>
        <time>2026-06-16T08:42:21.000Z</time>
      </trkpt>
      <trkpt lat="48.64994" lon="1.86897">
        <ele>168</ele>
        <time>2026-06-16T08:42:27.000Z</time>
      </trkpt>
      <trkpt lat="48.65002" lon="1.86913">
        <ele>168.19999694824</ele>
        <time>2026-06-16T08:42:29.000Z</time>
      </trkpt>
      <trkpt lat="48.65016" lon="1.86945">
        <ele>168.19999694824</ele>
        <time>2026-06-16T08:42:33.000Z</time>
      </trkpt>
      <trkpt lat="48.65045" lon="1.87025">
        <ele>168.80000305176</ele>
        <time>2026-06-16T08:42:42.000Z</time>
      </trkpt>
      <trkpt lat="48.6507" lon="1.87101">
        <ele>168.80000305176</ele>
        <time>2026-06-16T08:42:50.000Z</time>
      </trkpt>
      <trkpt lat="48.65081" lon="1.87134">
        <ele>169</ele>
        <time>2026-06-16T08:42:54.000Z</time>
      </trkpt>
      <trkpt lat="48.65083" lon="1.8714">
        <ele>169</ele>
        <time>2026-06-16T08:42:55.000Z</time>
      </trkpt>
      <trkpt lat="48.65083" lon="1.87144">
        <ele>169</ele>
        <time>2026-06-16T08:42:58.000Z</time>
      </trkpt>
      <trkpt lat="48.65085" lon="1.87148">
        <ele>169.19999694824</ele>
        <time>2026-06-16T08:43:01.000Z</time>
      </trkpt>
      <trkpt lat="48.65088" lon="1.87158">
        <ele>169.19999694824</ele>
        <time>2026-06-16T08:43:04.000Z</time>
      </trkpt>
      <trkpt lat="48.65095" lon="1.87182">
        <ele>169.19999694824</ele>
        <time>2026-06-16T08:43:08.000Z</time>
      </trkpt>
      <trkpt lat="48.65107" lon="1.87225">
        <ele>169.60000610352</ele>
        <time>2026-06-16T08:43:14.000Z</time>
      </trkpt>
      <trkpt lat="48.65125" lon="1.8728">
        <ele>170</ele>
        <time>2026-06-16T08:43:21.000Z</time>
      </trkpt>
      <trkpt lat="48.65131" lon="1.873">
        <ele>169.80000305176</ele>
        <time>2026-06-16T08:43:24.000Z</time>
      </trkpt>
      <trkpt lat="48.65134" lon="1.87314">
        <ele>169.80000305176</ele>
        <time>2026-06-16T08:43:26.000Z</time>
      </trkpt>
      <trkpt lat="48.65136" lon="1.87327">
        <ele>169.80000305176</ele>
        <time>2026-06-16T08:43:29.000Z</time>
      </trkpt>
      <trkpt lat="48.65137" lon="1.87328">
        <ele>169.80000305176</ele>
        <time>2026-06-16T08:43:30.000Z</time>
      </trkpt>
      <trkpt lat="48.65137" lon="1.87328">
        <ele>169.60000610352</ele>
        <time>2026-06-16T08:43:34.000Z</time>
      </trkpt>
      <trkpt lat="48.65137" lon="1.87328">
        <ele>169.19999694824</ele>
        <time>2026-06-16T08:43:44.000Z</time>
      </trkpt>
      <trkpt lat="48.65139" lon="1.87336">
        <ele>169.19999694824</ele>
        <time>2026-06-16T08:43:47.000Z</time>
      </trkpt>
      <trkpt lat="48.65142" lon="1.87362">
        <ele>169.19999694824</ele>
        <time>2026-06-16T08:43:51.000Z</time>
      </trkpt>
      <trkpt lat="48.65153" lon="1.87398">
        <ele>169.19999694824</ele>
        <time>2026-06-16T08:43:55.000Z</time>
      </trkpt>
      <trkpt lat="48.65162" lon="1.87425">
        <ele>169.19999694824</ele>
        <time>2026-06-16T08:43:58.000Z</time>
      </trkpt>
      <trkpt lat="48.65175" lon="1.87464">
        <ele>169.19999694824</ele>
        <time>2026-06-16T08:44:02.000Z</time>
      </trkpt>
      <trkpt lat="48.652" lon="1.87522">
        <ele>169.19999694824</ele>
        <time>2026-06-16T08:44:08.000Z</time>
      </trkpt>
      <trkpt lat="48.65233" lon="1.87588">
        <ele>169</ele>
        <time>2026-06-16T08:44:15.000Z</time>
      </trkpt>
      <trkpt lat="48.65239" lon="1.87601">
        <ele>169</ele>
        <time>2026-06-16T08:44:16.000Z</time>
      </trkpt>
      <trkpt lat="48.65269" lon="1.8767">
        <ele>168.60000610352</ele>
        <time>2026-06-16T08:44:22.000Z</time>
      </trkpt>
      <trkpt lat="48.65289" lon="1.87732">
        <ele>168</ele>
        <time>2026-06-16T08:44:27.000Z</time>
      </trkpt>
      <trkpt lat="48.65296" lon="1.87757">
        <ele>167.80000305176</ele>
        <time>2026-06-16T08:44:29.000Z</time>
      </trkpt>
      <trkpt lat="48.65313" lon="1.8784">
        <ele>168.19999694824</ele>
        <time>2026-06-16T08:44:36.000Z</time>
      </trkpt>
      <trkpt lat="48.65316" lon="1.8786">
        <ele>168.39999389648</ele>
        <time>2026-06-16T08:44:38.000Z</time>
      </trkpt>
      <trkpt lat="48.65326" lon="1.87921">
        <ele>168.80000305176</ele>
        <time>2026-06-16T08:44:43.000Z</time>
      </trkpt>
      <trkpt lat="48.65327" lon="1.87933">
        <ele>168.80000305176</ele>
        <time>2026-06-16T08:44:44.000Z</time>
      </trkpt>
      <trkpt lat="48.65327" lon="1.87945">
        <ele>168.80000305176</ele>
        <time>2026-06-16T08:44:45.000Z</time>
      </trkpt>
      <trkpt lat="48.65329" lon="1.88013">
        <ele>168.80000305176</ele>
        <time>2026-06-16T08:44:51.000Z</time>
      </trkpt>
      <trkpt lat="48.65326" lon="1.88081">
        <ele>168.19999694824</ele>
        <time>2026-06-16T08:44:57.000Z</time>
      </trkpt>
      <trkpt lat="48.65324" lon="1.8814">
        <ele>167.39999389648</ele>
        <time>2026-06-16T08:45:02.000Z</time>
      </trkpt>
      <trkpt lat="48.65321" lon="1.88174">
        <ele>167</ele>
        <time>2026-06-16T08:45:05.000Z</time>
      </trkpt>
      <trkpt lat="48.65317" lon="1.88228">
        <ele>166.39999389648</ele>
        <time>2026-06-16T08:45:10.000Z</time>
      </trkpt>
      <trkpt lat="48.65316" lon="1.88249">
        <ele>166.19999694824</ele>
        <time>2026-06-16T08:45:12.000Z</time>
      </trkpt>
      <trkpt lat="48.65311" lon="1.883">
        <ele>165.39999389648</ele>
        <time>2026-06-16T08:45:17.000Z</time>
      </trkpt>
      <trkpt lat="48.6531" lon="1.8831">
        <ele>165.39999389648</ele>
        <time>2026-06-16T08:45:18.000Z</time>
      </trkpt>
      <trkpt lat="48.65309" lon="1.8832">
        <ele>165.19999694824</ele>
        <time>2026-06-16T08:45:19.000Z</time>
      </trkpt>
      <trkpt lat="48.65306" lon="1.88364">
        <ele>164.80000305176</ele>
        <time>2026-06-16T08:45:23.000Z</time>
      </trkpt>
      <trkpt lat="48.65306" lon="1.88388">
        <ele>164.60000610352</ele>
        <time>2026-06-16T08:45:25.000Z</time>
      </trkpt>
      <trkpt lat="48.65305" lon="1.88413">
        <ele>164.19999694824</ele>
        <time>2026-06-16T08:45:27.000Z</time>
      </trkpt>
      <trkpt lat="48.65304" lon="1.88453">
        <ele>164</ele>
        <time>2026-06-16T08:45:30.000Z</time>
      </trkpt>
      <trkpt lat="48.65305" lon="1.88479">
        <ele>164</ele>
        <time>2026-06-16T08:45:32.000Z</time>
      </trkpt>
      <trkpt lat="48.65306" lon="1.88512">
        <ele>164.19999694824</ele>
        <time>2026-06-16T08:45:35.000Z</time>
      </trkpt>
      <trkpt lat="48.65307" lon="1.88523">
        <ele>164.19999694824</ele>
        <time>2026-06-16T08:45:36.000Z</time>
      </trkpt>
      <trkpt lat="48.65311" lon="1.88551">
        <ele>164.60000610352</ele>
        <time>2026-06-16T08:45:39.000Z</time>
      </trkpt>
      <trkpt lat="48.65313" lon="1.8856">
        <ele>165.19999694824</ele>
        <time>2026-06-16T08:45:40.000Z</time>
      </trkpt>
      <trkpt lat="48.65312" lon="1.88568">
        <ele>165.39999389648</ele>
        <time>2026-06-16T08:45:41.000Z</time>
      </trkpt>
      <trkpt lat="48.65313" lon="1.88576">
        <ele>165.80000305176</ele>
        <time>2026-06-16T08:45:42.000Z</time>
      </trkpt>
      <trkpt lat="48.65313" lon="1.88584">
        <ele>166.39999389648</ele>
        <time>2026-06-16T08:45:43.000Z</time>
      </trkpt>
      <trkpt lat="48.65314" lon="1.88593">
        <ele>166.60000610352</ele>
        <time>2026-06-16T08:45:44.000Z</time>
      </trkpt>
      <trkpt lat="48.65318" lon="1.88617">
        <ele>167.60000610352</ele>
        <time>2026-06-16T08:45:47.000Z</time>
      </trkpt>
      <trkpt lat="48.65321" lon="1.88634">
        <ele>168</ele>
        <time>2026-06-16T08:45:49.000Z</time>
      </trkpt>
      <trkpt lat="48.65322" lon="1.88643">
        <ele>168.19999694824</ele>
        <time>2026-06-16T08:45:50.000Z</time>
      </trkpt>
      <trkpt lat="48.65325" lon="1.88661">
        <ele>168.60000610352</ele>
        <time>2026-06-16T08:45:52.000Z</time>
      </trkpt>
      <trkpt lat="48.65327" lon="1.8867">
        <ele>168.80000305176</ele>
        <time>2026-06-16T08:45:53.000Z</time>
      </trkpt>
      <trkpt lat="48.65331" lon="1.88687">
        <ele>169</ele>
        <time>2026-06-16T08:45:55.000Z</time>
      </trkpt>
      <trkpt lat="48.65351" lon="1.88769">
        <ele>169.60000610352</ele>
        <time>2026-06-16T08:46:04.000Z</time>
      </trkpt>
      <trkpt lat="48.65367" lon="1.88835">
        <ele>169.60000610352</ele>
        <time>2026-06-16T08:46:11.000Z</time>
      </trkpt>
      <trkpt lat="48.65387" lon="1.88919">
        <ele>169.39999389648</ele>
        <time>2026-06-16T08:46:20.000Z</time>
      </trkpt>
      <trkpt lat="48.65389" lon="1.88927">
        <ele>169.39999389648</ele>
        <time>2026-06-16T08:46:21.000Z</time>
      </trkpt>
      <trkpt lat="48.654" lon="1.8899">
        <ele>169.39999389648</ele>
        <time>2026-06-16T08:46:28.000Z</time>
      </trkpt>
      <trkpt lat="48.6541" lon="1.89039">
        <ele>169.60000610352</ele>
        <time>2026-06-16T08:46:33.000Z</time>
      </trkpt>
      <trkpt lat="48.65414" lon="1.89057">
        <ele>169.80000305176</ele>
        <time>2026-06-16T08:46:35.000Z</time>
      </trkpt>
      <trkpt lat="48.65415" lon="1.89067">
        <ele>169.80000305176</ele>
        <time>2026-06-16T08:46:36.000Z</time>
      </trkpt>
      <trkpt lat="48.65419" lon="1.89086">
        <ele>169.80000305176</ele>
        <time>2026-06-16T08:46:38.000Z</time>
      </trkpt>
      <trkpt lat="48.6543" lon="1.89124">
        <ele>169.80000305176</ele>
        <time>2026-06-16T08:46:42.000Z</time>
      </trkpt>
      <trkpt lat="48.65437" lon="1.89144">
        <ele>169.80000305176</ele>
        <time>2026-06-16T08:46:44.000Z</time>
      </trkpt>
      <trkpt lat="48.65449" lon="1.89173">
        <ele>169.80000305176</ele>
        <time>2026-06-16T08:46:47.000Z</time>
      </trkpt>
      <trkpt lat="48.65473" lon="1.89237">
        <ele>169.60000610352</ele>
        <time>2026-06-16T08:46:54.000Z</time>
      </trkpt>
      <trkpt lat="48.65486" lon="1.89271">
        <ele>169.60000610352</ele>
        <time>2026-06-16T08:46:58.000Z</time>
      </trkpt>
      <trkpt lat="48.65494" lon="1.89284">
        <ele>169.60000610352</ele>
        <time>2026-06-16T08:47:00.000Z</time>
      </trkpt>
      <trkpt lat="48.65503" lon="1.89304">
        <ele>169.60000610352</ele>
        <time>2026-06-16T08:47:03.000Z</time>
      </trkpt>
      <trkpt lat="48.65509" lon="1.89317">
        <ele>169.60000610352</ele>
        <time>2026-06-16T08:47:05.000Z</time>
      </trkpt>
      <trkpt lat="48.65514" lon="1.89329">
        <ele>169.60000610352</ele>
        <time>2026-06-16T08:47:07.000Z</time>
      </trkpt>
      <trkpt lat="48.65524" lon="1.89335">
        <ele>169.60000610352</ele>
        <time>2026-06-16T08:47:09.000Z</time>
      </trkpt>
      <trkpt lat="48.65534" lon="1.89331">
        <ele>169.39999389648</ele>
        <time>2026-06-16T08:47:11.000Z</time>
      </trkpt>
      <trkpt lat="48.65538" lon="1.89325">
        <ele>169.60000610352</ele>
        <time>2026-06-16T08:47:12.000Z</time>
      </trkpt>
      <trkpt lat="48.65556" lon="1.89293">
        <ele>169.60000610352</ele>
        <time>2026-06-16T08:47:16.000Z</time>
      </trkpt>
      <trkpt lat="48.65559" lon="1.89284">
        <ele>169.60000610352</ele>
        <time>2026-06-16T08:47:17.000Z</time>
      </trkpt>
      <trkpt lat="48.65582" lon="1.89235">
        <ele>170</ele>
        <time>2026-06-16T08:47:23.000Z</time>
      </trkpt>
      <trkpt lat="48.65594" lon="1.89208">
        <ele>170</ele>
        <time>2026-06-16T08:47:26.000Z</time>
      </trkpt>
      <trkpt lat="48.65611" lon="1.89174">
        <ele>170</ele>
        <time>2026-06-16T08:47:30.000Z</time>
      </trkpt>
      <trkpt lat="48.65637" lon="1.89122">
        <ele>170</ele>
        <time>2026-06-16T08:47:36.000Z</time>
      </trkpt>
      <trkpt lat="48.6566" lon="1.89074">
        <ele>170</ele>
        <time>2026-06-16T08:47:42.000Z</time>
      </trkpt>
      <trkpt lat="48.65663" lon="1.89066">
        <ele>170</ele>
        <time>2026-06-16T08:47:43.000Z</time>
      </trkpt>
      <trkpt lat="48.65684" lon="1.89018">
        <ele>170</ele>
        <time>2026-06-16T08:47:49.000Z</time>
      </trkpt>
      <trkpt lat="48.65688" lon="1.89011">
        <ele>170.19999694824</ele>
        <time>2026-06-16T08:47:50.000Z</time>
      </trkpt>
      <trkpt lat="48.65709" lon="1.88966">
        <ele>170.39999389648</ele>
        <time>2026-06-16T08:47:56.000Z</time>
      </trkpt>
      <trkpt lat="48.65732" lon="1.8891">
        <ele>170.60000610352</ele>
        <time>2026-06-16T08:48:03.000Z</time>
      </trkpt>
      <trkpt lat="48.65748" lon="1.88877">
        <ele>170.80000305176</ele>
        <time>2026-06-16T08:48:07.000Z</time>
      </trkpt>
      <trkpt lat="48.65751" lon="1.88868">
        <ele>170.80000305176</ele>
        <time>2026-06-16T08:48:08.000Z</time>
      </trkpt>
      <trkpt lat="48.6578" lon="1.88811">
        <ele>170.80000305176</ele>
        <time>2026-06-16T08:48:15.000Z</time>
      </trkpt>
      <trkpt lat="48.65815" lon="1.88736">
        <ele>170.60000610352</ele>
        <time>2026-06-16T08:48:24.000Z</time>
      </trkpt>
      <trkpt lat="48.65843" lon="1.88679">
        <ele>170.60000610352</ele>
        <time>2026-06-16T08:48:31.000Z</time>
      </trkpt>
      <trkpt lat="48.65859" lon="1.88646">
        <ele>170.60000610352</ele>
        <time>2026-06-16T08:48:35.000Z</time>
      </trkpt>
      <trkpt lat="48.65867" lon="1.8863">
        <ele>170.60000610352</ele>
        <time>2026-06-16T08:48:37.000Z</time>
      </trkpt>
      <trkpt lat="48.65897" lon="1.88566">
        <ele>170.39999389648</ele>
        <time>2026-06-16T08:48:45.000Z</time>
      </trkpt>
      <trkpt lat="48.65925" lon="1.88502">
        <ele>170.19999694824</ele>
        <time>2026-06-16T08:48:53.000Z</time>
      </trkpt>
      <trkpt lat="48.65958" lon="1.88435">
        <ele>170.19999694824</ele>
        <time>2026-06-16T08:49:02.000Z</time>
      </trkpt>
      <trkpt lat="48.65961" lon="1.88428">
        <ele>170.19999694824</ele>
        <time>2026-06-16T08:49:03.000Z</time>
      </trkpt>
      <trkpt lat="48.65988" lon="1.88374">
        <ele>170.19999694824</ele>
        <time>2026-06-16T08:49:10.000Z</time>
      </trkpt>
      <trkpt lat="48.66013" lon="1.88322">
        <ele>170.19999694824</ele>
        <time>2026-06-16T08:49:17.000Z</time>
      </trkpt>
      <trkpt lat="48.66035" lon="1.88276">
        <ele>170.19999694824</ele>
        <time>2026-06-16T08:49:23.000Z</time>
      </trkpt>
      <trkpt lat="48.66052" lon="1.88241">
        <ele>170.19999694824</ele>
        <time>2026-06-16T08:49:27.000Z</time>
      </trkpt>
      <trkpt lat="48.66063" lon="1.88218">
        <ele>170</ele>
        <time>2026-06-16T08:49:30.000Z</time>
      </trkpt>
      <trkpt lat="48.66074" lon="1.88197">
        <ele>169.80000305176</ele>
        <time>2026-06-16T08:49:33.000Z</time>
      </trkpt>
      <trkpt lat="48.66082" lon="1.88183">
        <ele>169.80000305176</ele>
        <time>2026-06-16T08:49:35.000Z</time>
      </trkpt>
      <trkpt lat="48.66096" lon="1.88153">
        <ele>169.60000610352</ele>
        <time>2026-06-16T08:49:39.000Z</time>
      </trkpt>
      <trkpt lat="48.66106" lon="1.88129">
        <ele>169.39999389648</ele>
        <time>2026-06-16T08:49:42.000Z</time>
      </trkpt>
      <trkpt lat="48.66118" lon="1.88108">
        <ele>169.19999694824</ele>
        <time>2026-06-16T08:49:45.000Z</time>
      </trkpt>
      <trkpt lat="48.66126" lon="1.88092">
        <ele>169</ele>
        <time>2026-06-16T08:49:47.000Z</time>
      </trkpt>
      <trkpt lat="48.66147" lon="1.88044">
        <ele>168.39999389648</ele>
        <time>2026-06-16T08:49:53.000Z</time>
      </trkpt>
      <trkpt lat="48.66151" lon="1.88036">
        <ele>168.19999694824</ele>
        <time>2026-06-16T08:49:54.000Z</time>
      </trkpt>
      <trkpt lat="48.66168" lon="1.87996">
        <ele>167.60000610352</ele>
        <time>2026-06-16T08:49:59.000Z</time>
      </trkpt>
      <trkpt lat="48.66184" lon="1.87962">
        <ele>167.19999694824</ele>
        <time>2026-06-16T08:50:03.000Z</time>
      </trkpt>
      <trkpt lat="48.66196" lon="1.8794">
        <ele>167.19999694824</ele>
        <time>2026-06-16T08:50:06.000Z</time>
      </trkpt>
      <trkpt lat="48.66227" lon="1.87881">
        <ele>166.60000610352</ele>
        <time>2026-06-16T08:50:14.000Z</time>
      </trkpt>
      <trkpt lat="48.66241" lon="1.87863">
        <ele>166.39999389648</ele>
        <time>2026-06-16T08:50:17.000Z</time>
      </trkpt>
      <trkpt lat="48.66251" lon="1.87855">
        <ele>166.19999694824</ele>
        <time>2026-06-16T08:50:19.000Z</time>
      </trkpt>
      <trkpt lat="48.66283" lon="1.87838">
        <ele>166.60000610352</ele>
        <time>2026-06-16T08:50:25.000Z</time>
      </trkpt>
      <trkpt lat="48.66294" lon="1.87833">
        <ele>166.60000610352</ele>
        <time>2026-06-16T08:50:27.000Z</time>
      </trkpt>
      <trkpt lat="48.66309" lon="1.87824">
        <ele>166.80000305176</ele>
        <time>2026-06-16T08:50:30.000Z</time>
      </trkpt>
      <trkpt lat="48.66341" lon="1.87809">
        <ele>167.39999389648</ele>
        <time>2026-06-16T08:50:36.000Z</time>
      </trkpt>
      <trkpt lat="48.66347" lon="1.87805">
        <ele>167.39999389648</ele>
        <time>2026-06-16T08:50:37.000Z</time>
      </trkpt>
      <trkpt lat="48.66356" lon="1.87801">
        <ele>167.60000610352</ele>
        <time>2026-06-16T08:50:39.000Z</time>
      </trkpt>
      <trkpt lat="48.66368" lon="1.87797">
        <ele>167.60000610352</ele>
        <time>2026-06-16T08:50:41.000Z</time>
      </trkpt>
      <trkpt lat="48.66419" lon="1.87771">
        <ele>167.80000305176</ele>
        <time>2026-06-16T08:50:47.000Z</time>
      </trkpt>
      <trkpt lat="48.66448" lon="1.87763">
        <ele>167.80000305176</ele>
        <time>2026-06-16T08:50:52.000Z</time>
      </trkpt>
      <trkpt lat="48.66486" lon="1.8775">
        <ele>167.80000305176</ele>
        <time>2026-06-16T08:50:59.000Z</time>
      </trkpt>
      <trkpt lat="48.66532" lon="1.87733">
        <ele>168</ele>
        <time>2026-06-16T08:51:07.000Z</time>
      </trkpt>
      <trkpt lat="48.66586" lon="1.87708">
        <ele>167.60000610352</ele>
        <time>2026-06-16T08:51:16.000Z</time>
      </trkpt>
      <trkpt lat="48.66635" lon="1.87683">
        <ele>167.39999389648</ele>
        <time>2026-06-16T08:51:25.000Z</time>
      </trkpt>
      <trkpt lat="48.66689" lon="1.87659">
        <ele>167.60000610352</ele>
        <time>2026-06-16T08:51:34.000Z</time>
      </trkpt>
      <trkpt lat="48.66695" lon="1.87656">
        <ele>167.60000610352</ele>
        <time>2026-06-16T08:51:35.000Z</time>
      </trkpt>
      <trkpt lat="48.66749" lon="1.8763">
        <ele>167.19999694824</ele>
        <time>2026-06-16T08:51:44.000Z</time>
      </trkpt>
      <trkpt lat="48.66798" lon="1.87606">
        <ele>167</ele>
        <time>2026-06-16T08:51:52.000Z</time>
      </trkpt>
      <trkpt lat="48.66851" lon="1.87583">
        <ele>167.19999694824</ele>
        <time>2026-06-16T08:52:01.000Z</time>
      </trkpt>
      <trkpt lat="48.66858" lon="1.87579">
        <ele>167.19999694824</ele>
        <time>2026-06-16T08:52:02.000Z</time>
      </trkpt>
      <trkpt lat="48.66909" lon="1.87551">
        <ele>167.19999694824</ele>
        <time>2026-06-16T08:52:11.000Z</time>
      </trkpt>
      <trkpt lat="48.66915" lon="1.87548">
        <ele>167.19999694824</ele>
        <time>2026-06-16T08:52:12.000Z</time>
      </trkpt>
      <trkpt lat="48.66956" lon="1.8753">
        <ele>167.39999389648</ele>
        <time>2026-06-16T08:52:19.000Z</time>
      </trkpt>
      <trkpt lat="48.66967" lon="1.87524">
        <ele>167.39999389648</ele>
        <time>2026-06-16T08:52:21.000Z</time>
      </trkpt>
      <trkpt lat="48.66984" lon="1.87517">
        <ele>167.60000610352</ele>
        <time>2026-06-16T08:52:24.000Z</time>
      </trkpt>
      <trkpt lat="48.67041" lon="1.8749">
        <ele>167.60000610352</ele>
        <time>2026-06-16T08:52:34.000Z</time>
      </trkpt>
      <trkpt lat="48.67046" lon="1.87488">
        <ele>167.39999389648</ele>
        <time>2026-06-16T08:52:35.000Z</time>
      </trkpt>
      <trkpt lat="48.67052" lon="1.87485">
        <ele>167.39999389648</ele>
        <time>2026-06-16T08:52:36.000Z</time>
      </trkpt>
      <trkpt lat="48.67091" lon="1.87466">
        <ele>167.39999389648</ele>
        <time>2026-06-16T08:52:43.000Z</time>
      </trkpt>
      <trkpt lat="48.67147" lon="1.87442">
        <ele>167.19999694824</ele>
        <time>2026-06-16T08:52:52.000Z</time>
      </trkpt>
      <trkpt lat="48.67199" lon="1.87417">
        <ele>167.19999694824</ele>
        <time>2026-06-16T08:53:01.000Z</time>
      </trkpt>
      <trkpt lat="48.67235" lon="1.87399">
        <ele>167</ele>
        <time>2026-06-16T08:53:08.000Z</time>
      </trkpt>
      <trkpt lat="48.67274" lon="1.87382">
        <ele>167</ele>
        <time>2026-06-16T08:53:15.000Z</time>
      </trkpt>
      <trkpt lat="48.67313" lon="1.87364">
        <ele>166.60000610352</ele>
        <time>2026-06-16T08:53:22.000Z</time>
      </trkpt>
      <trkpt lat="48.67352" lon="1.87344">
        <ele>167</ele>
        <time>2026-06-16T08:53:29.000Z</time>
      </trkpt>
      <trkpt lat="48.67403" lon="1.87321">
        <ele>167.19999694824</ele>
        <time>2026-06-16T08:53:38.000Z</time>
      </trkpt>
      <trkpt lat="48.6745" lon="1.87298">
        <ele>167.39999389648</ele>
        <time>2026-06-16T08:53:46.000Z</time>
      </trkpt>
      <trkpt lat="48.67493" lon="1.87277">
        <ele>167.60000610352</ele>
        <time>2026-06-16T08:53:53.000Z</time>
      </trkpt>
      <trkpt lat="48.67535" lon="1.87256">
        <ele>167.80000305176</ele>
        <time>2026-06-16T08:54:00.000Z</time>
      </trkpt>
      <trkpt lat="48.67593" lon="1.87228">
        <ele>167.80000305176</ele>
        <time>2026-06-16T08:54:09.000Z</time>
      </trkpt>
      <trkpt lat="48.67599" lon="1.87224">
        <ele>167.80000305176</ele>
        <time>2026-06-16T08:54:10.000Z</time>
      </trkpt>
      <trkpt lat="48.67644" lon="1.87202">
        <ele>167.80000305176</ele>
        <time>2026-06-16T08:54:17.000Z</time>
      </trkpt>
      <trkpt lat="48.67701" lon="1.87175">
        <ele>167.39999389648</ele>
        <time>2026-06-16T08:54:26.000Z</time>
      </trkpt>
      <trkpt lat="48.67707" lon="1.87172">
        <ele>167.39999389648</ele>
        <time>2026-06-16T08:54:27.000Z</time>
      </trkpt>
      <trkpt lat="48.67739" lon="1.87167">
        <ele>167.39999389648</ele>
        <time>2026-06-16T08:54:32.000Z</time>
      </trkpt>
      <trkpt lat="48.67744" lon="1.87168">
        <ele>167.39999389648</ele>
        <time>2026-06-16T08:54:33.000Z</time>
      </trkpt>
      <trkpt lat="48.67763" lon="1.87175">
        <ele>167.60000610352</ele>
        <time>2026-06-16T08:54:36.000Z</time>
      </trkpt>
      <trkpt lat="48.67774" lon="1.87185">
        <ele>167.60000610352</ele>
        <time>2026-06-16T08:54:38.000Z</time>
      </trkpt>
      <trkpt lat="48.67803" lon="1.87227">
        <ele>167.60000610352</ele>
        <time>2026-06-16T08:54:44.000Z</time>
      </trkpt>
      <trkpt lat="48.6784" lon="1.87294">
        <ele>167.39999389648</ele>
        <time>2026-06-16T08:54:53.000Z</time>
      </trkpt>
      <trkpt lat="48.67863" lon="1.87314">
        <ele>167.19999694824</ele>
        <time>2026-06-16T08:54:57.000Z</time>
      </trkpt>
      <trkpt lat="48.67869" lon="1.87317">
        <ele>167.19999694824</ele>
        <time>2026-06-16T08:54:58.000Z</time>
      </trkpt>
      <trkpt lat="48.67921" lon="1.87335">
        <ele>167.19999694824</ele>
        <time>2026-06-16T08:55:06.000Z</time>
      </trkpt>
      <trkpt lat="48.67971" lon="1.87352">
        <ele>167</ele>
        <time>2026-06-16T08:55:14.000Z</time>
      </trkpt>
      <trkpt lat="48.68026" lon="1.87369">
        <ele>167</ele>
        <time>2026-06-16T08:55:23.000Z</time>
      </trkpt>
      <trkpt lat="48.68045" lon="1.87375">
        <ele>167</ele>
        <time>2026-06-16T08:55:26.000Z</time>
      </trkpt>
      <trkpt lat="48.681" lon="1.87393">
        <ele>167</ele>
        <time>2026-06-16T08:55:35.000Z</time>
      </trkpt>
      <trkpt lat="48.68155" lon="1.8741">
        <ele>167</ele>
        <time>2026-06-16T08:55:44.000Z</time>
      </trkpt>
      <trkpt lat="48.68161" lon="1.87412">
        <ele>167</ele>
        <time>2026-06-16T08:55:45.000Z</time>
      </trkpt>
      <trkpt lat="48.68217" lon="1.87431">
        <ele>167.39999389648</ele>
        <time>2026-06-16T08:55:54.000Z</time>
      </trkpt>
      <trkpt lat="48.68261" lon="1.87445">
        <ele>167.60000610352</ele>
        <time>2026-06-16T08:56:02.000Z</time>
      </trkpt>
      <trkpt lat="48.68272" lon="1.87448">
        <ele>168</ele>
        <time>2026-06-16T08:56:04.000Z</time>
      </trkpt>
      <trkpt lat="48.6832" lon="1.87463">
        <ele>168.80000305176</ele>
        <time>2026-06-16T08:56:13.000Z</time>
      </trkpt>
      <trkpt lat="48.6833" lon="1.87466">
        <ele>169</ele>
        <time>2026-06-16T08:56:15.000Z</time>
      </trkpt>
      <trkpt lat="48.68356" lon="1.87479">
        <ele>169.19999694824</ele>
        <time>2026-06-16T08:56:20.000Z</time>
      </trkpt>
      <trkpt lat="48.68361" lon="1.87482">
        <ele>169.19999694824</ele>
        <time>2026-06-16T08:56:21.000Z</time>
      </trkpt>
      <trkpt lat="48.68377" lon="1.87503">
        <ele>169.39999389648</ele>
        <time>2026-06-16T08:56:25.000Z</time>
      </trkpt>
      <trkpt lat="48.68387" lon="1.87522">
        <ele>169.39999389648</ele>
        <time>2026-06-16T08:56:28.000Z</time>
      </trkpt>
      <trkpt lat="48.68398" lon="1.87546">
        <ele>169.60000610352</ele>
        <time>2026-06-16T08:56:32.000Z</time>
      </trkpt>
      <trkpt lat="48.68411" lon="1.87561">
        <ele>169.60000610352</ele>
        <time>2026-06-16T08:56:36.000Z</time>
      </trkpt>
      <trkpt lat="48.68427" lon="1.87574">
        <ele>170</ele>
        <time>2026-06-16T08:56:42.000Z</time>
      </trkpt>
      <trkpt lat="48.6843" lon="1.87576">
        <ele>170</ele>
        <time>2026-06-16T08:56:43.000Z</time>
      </trkpt>
      <trkpt lat="48.68443" lon="1.87582">
        <ele>170.19999694824</ele>
        <time>2026-06-16T08:56:46.000Z</time>
      </trkpt>
      <trkpt lat="48.68474" lon="1.876">
        <ele>170.39999389648</ele>
        <time>2026-06-16T08:56:52.000Z</time>
      </trkpt>
      <trkpt lat="48.68507" lon="1.87621">
        <ele>170.19999694824</ele>
        <time>2026-06-16T08:56:58.000Z</time>
      </trkpt>
      <trkpt lat="48.68535" lon="1.87638">
        <ele>170.19999694824</ele>
        <time>2026-06-16T08:57:03.000Z</time>
      </trkpt>
      <trkpt lat="48.68564" lon="1.87655">
        <ele>170.39999389648</ele>
        <time>2026-06-16T08:57:08.000Z</time>
      </trkpt>
      <trkpt lat="48.68616" lon="1.87688">
        <ele>170.39999389648</ele>
        <time>2026-06-16T08:57:17.000Z</time>
      </trkpt>
      <trkpt lat="48.6867" lon="1.87723">
        <ele>170.19999694824</ele>
        <time>2026-06-16T08:57:26.000Z</time>
      </trkpt>
      <trkpt lat="48.68676" lon="1.87727">
        <ele>170.19999694824</ele>
        <time>2026-06-16T08:57:27.000Z</time>
      </trkpt>
      <trkpt lat="48.68727" lon="1.87759">
        <ele>169.60000610352</ele>
        <time>2026-06-16T08:57:35.000Z</time>
      </trkpt>
      <trkpt lat="48.68739" lon="1.87768">
        <ele>169.39999389648</ele>
        <time>2026-06-16T08:57:37.000Z</time>
      </trkpt>
      <trkpt lat="48.68751" lon="1.87778">
        <ele>169.39999389648</ele>
        <time>2026-06-16T08:57:39.000Z</time>
      </trkpt>
      <trkpt lat="48.68773" lon="1.87803">
        <ele>169.19999694824</ele>
        <time>2026-06-16T08:57:43.000Z</time>
      </trkpt>
      <trkpt lat="48.68822" lon="1.87856">
        <ele>169</ele>
        <time>2026-06-16T08:57:52.000Z</time>
      </trkpt>
      <trkpt lat="48.6886" lon="1.87873">
        <ele>168.80000305176</ele>
        <time>2026-06-16T08:57:58.000Z</time>
      </trkpt>
      <trkpt lat="48.68867" lon="1.87875">
        <ele>168.80000305176</ele>
        <time>2026-06-16T08:57:59.000Z</time>
      </trkpt>
      <trkpt lat="48.68921" lon="1.8789">
        <ele>168.39999389648</ele>
        <time>2026-06-16T08:58:07.000Z</time>
      </trkpt>
      <trkpt lat="48.6894" lon="1.87895">
        <ele>168.39999389648</ele>
        <time>2026-06-16T08:58:10.000Z</time>
      </trkpt>
      <trkpt lat="48.68972" lon="1.87904">
        <ele>168</ele>
        <time>2026-06-16T08:58:15.000Z</time>
      </trkpt>
      <trkpt lat="48.69005" lon="1.87914">
        <ele>168</ele>
        <time>2026-06-16T08:58:20.000Z</time>
      </trkpt>
      <trkpt lat="48.69018" lon="1.87919">
        <ele>167.80000305176</ele>
        <time>2026-06-16T08:58:22.000Z</time>
      </trkpt>
      <trkpt lat="48.69075" lon="1.87939">
        <ele>167.60000610352</ele>
        <time>2026-06-16T08:58:31.000Z</time>
      </trkpt>
      <trkpt lat="48.6913" lon="1.8796">
        <ele>167.60000610352</ele>
        <time>2026-06-16T08:58:40.000Z</time>
      </trkpt>
      <trkpt lat="48.69185" lon="1.87982">
        <ele>168</ele>
        <time>2026-06-16T08:58:49.000Z</time>
      </trkpt>
      <trkpt lat="48.69197" lon="1.87987">
        <ele>168.19999694824</ele>
        <time>2026-06-16T08:58:51.000Z</time>
      </trkpt>
      <trkpt lat="48.69251" lon="1.88007">
        <ele>168.39999389648</ele>
        <time>2026-06-16T08:59:00.000Z</time>
      </trkpt>
      <trkpt lat="48.69304" lon="1.88027">
        <ele>168.60000610352</ele>
        <time>2026-06-16T08:59:09.000Z</time>
      </trkpt>
      <trkpt lat="48.6931" lon="1.88028">
        <ele>168.80000305176</ele>
        <time>2026-06-16T08:59:10.000Z</time>
      </trkpt>
      <trkpt lat="48.69316" lon="1.8803">
        <ele>168.80000305176</ele>
        <time>2026-06-16T08:59:11.000Z</time>
      </trkpt>
      <trkpt lat="48.69371" lon="1.88043">
        <ele>169.39999389648</ele>
        <time>2026-06-16T08:59:20.000Z</time>
      </trkpt>
      <trkpt lat="48.69425" lon="1.88058">
        <ele>169.60000610352</ele>
        <time>2026-06-16T08:59:29.000Z</time>
      </trkpt>
      <trkpt lat="48.69443" lon="1.88063">
        <ele>169.60000610352</ele>
        <time>2026-06-16T08:59:32.000Z</time>
      </trkpt>
      <trkpt lat="48.69486" lon="1.88078">
        <ele>169.80000305176</ele>
        <time>2026-06-16T08:59:39.000Z</time>
      </trkpt>
      <trkpt lat="48.69531" lon="1.88108">
        <ele>169.60000610352</ele>
        <time>2026-06-16T08:59:47.000Z</time>
      </trkpt>
      <trkpt lat="48.69557" lon="1.88127">
        <ele>169.80000305176</ele>
        <time>2026-06-16T08:59:52.000Z</time>
      </trkpt>
      <trkpt lat="48.69582" lon="1.88143">
        <ele>170</ele>
        <time>2026-06-16T08:59:57.000Z</time>
      </trkpt>
      <trkpt lat="48.69595" lon="1.8815">
        <ele>169.80000305176</ele>
        <time>2026-06-16T09:00:01.000Z</time>
      </trkpt>
      <trkpt lat="48.69608" lon="1.88164">
        <ele>169.60000610352</ele>
        <time>2026-06-16T09:00:06.000Z</time>
      </trkpt>
      <trkpt lat="48.69628" lon="1.88181">
        <ele>169.19999694824</ele>
        <time>2026-06-16T09:00:14.000Z</time>
      </trkpt>
      <trkpt lat="48.69641" lon="1.88195">
        <ele>168.80000305176</ele>
        <time>2026-06-16T09:00:20.000Z</time>
      </trkpt>
      <trkpt lat="48.69657" lon="1.88211">
        <ele>168.60000610352</ele>
        <time>2026-06-16T09:00:27.000Z</time>
      </trkpt>
      <trkpt lat="48.69672" lon="1.88226">
        <ele>168.39999389648</ele>
        <time>2026-06-16T09:00:33.000Z</time>
      </trkpt>
      <trkpt lat="48.69695" lon="1.88247">
        <ele>168.19999694824</ele>
        <time>2026-06-16T09:00:40.000Z</time>
      </trkpt>
      <trkpt lat="48.69708" lon="1.88262">
        <ele>168.19999694824</ele>
        <time>2026-06-16T09:00:43.000Z</time>
      </trkpt>
      <trkpt lat="48.69717" lon="1.88271">
        <ele>168.19999694824</ele>
        <time>2026-06-16T09:00:45.000Z</time>
      </trkpt>
      <trkpt lat="48.69727" lon="1.88282">
        <ele>168.19999694824</ele>
        <time>2026-06-16T09:00:47.000Z</time>
      </trkpt>
      <trkpt lat="48.69741" lon="1.88303">
        <ele>168</ele>
        <time>2026-06-16T09:00:50.000Z</time>
      </trkpt>
      <trkpt lat="48.69751" lon="1.88317">
        <ele>167.80000305176</ele>
        <time>2026-06-16T09:00:52.000Z</time>
      </trkpt>
      <trkpt lat="48.69777" lon="1.88354">
        <ele>167.19999694824</ele>
        <time>2026-06-16T09:00:57.000Z</time>
      </trkpt>
      <trkpt lat="48.69794" lon="1.88377">
        <ele>166.80000305176</ele>
        <time>2026-06-16T09:01:00.000Z</time>
      </trkpt>
      <trkpt lat="48.69818" lon="1.88408">
        <ele>166</ele>
        <time>2026-06-16T09:01:04.000Z</time>
      </trkpt>
      <trkpt lat="48.69824" lon="1.88417">
        <ele>165.80000305176</ele>
        <time>2026-06-16T09:01:05.000Z</time>
      </trkpt>
      <trkpt lat="48.6983" lon="1.88427">
        <ele>165.19999694824</ele>
        <time>2026-06-16T09:01:06.000Z</time>
      </trkpt>
      <trkpt lat="48.69841" lon="1.88446">
        <ele>164.39999389648</ele>
        <time>2026-06-16T09:01:08.000Z</time>
      </trkpt>
      <trkpt lat="48.69852" lon="1.88468">
        <ele>164.19999694824</ele>
        <time>2026-06-16T09:01:10.000Z</time>
      </trkpt>
      <trkpt lat="48.69856" lon="1.88479">
        <ele>163.80000305176</ele>
        <time>2026-06-16T09:01:11.000Z</time>
      </trkpt>
      <trkpt lat="48.69863" lon="1.88501">
        <ele>163.19999694824</ele>
        <time>2026-06-16T09:01:13.000Z</time>
      </trkpt>
      <trkpt lat="48.69867" lon="1.88512">
        <ele>163</ele>
        <time>2026-06-16T09:01:14.000Z</time>
      </trkpt>
      <trkpt lat="48.69877" lon="1.88546">
        <ele>161.80000305176</ele>
        <time>2026-06-16T09:01:17.000Z</time>
      </trkpt>
      <trkpt lat="48.69883" lon="1.8857">
        <ele>161.19999694824</ele>
        <time>2026-06-16T09:01:19.000Z</time>
      </trkpt>
      <trkpt lat="48.69889" lon="1.88595">
        <ele>160.60000610352</ele>
        <time>2026-06-16T09:01:21.000Z</time>
      </trkpt>
      <trkpt lat="48.69895" lon="1.8862">
        <ele>160.19999694824</ele>
        <time>2026-06-16T09:01:23.000Z</time>
      </trkpt>
      <trkpt lat="48.69897" lon="1.88631">
        <ele>160</ele>
        <time>2026-06-16T09:01:24.000Z</time>
      </trkpt>
      <trkpt lat="48.69898" lon="1.88642">
        <ele>159.60000610352</ele>
        <time>2026-06-16T09:01:25.000Z</time>
      </trkpt>
      <trkpt lat="48.699" lon="1.88674">
        <ele>158.80000305176</ele>
        <time>2026-06-16T09:01:28.000Z</time>
      </trkpt>
      <trkpt lat="48.69901" lon="1.88683">
        <ele>158.60000610352</ele>
        <time>2026-06-16T09:01:29.000Z</time>
      </trkpt>
      <trkpt lat="48.69906" lon="1.887">
        <ele>158</ele>
        <time>2026-06-16T09:01:31.000Z</time>
      </trkpt>
      <trkpt lat="48.69915" lon="1.8871">
        <ele>157.39999389648</ele>
        <time>2026-06-16T09:01:33.000Z</time>
      </trkpt>
      <trkpt lat="48.69921" lon="1.88712">
        <ele>157.39999389648</ele>
        <time>2026-06-16T09:01:34.000Z</time>
      </trkpt>
      <trkpt lat="48.69949" lon="1.88722">
        <ele>156.80000305176</ele>
        <time>2026-06-16T09:01:40.000Z</time>
      </trkpt>
      <trkpt lat="48.69972" lon="1.88723">
        <ele>156.39999389648</ele>
        <time>2026-06-16T09:01:45.000Z</time>
      </trkpt>
      <trkpt lat="48.69977" lon="1.88723">
        <ele>156.39999389648</ele>
        <time>2026-06-16T09:01:46.000Z</time>
      </trkpt>
      <trkpt lat="48.69991" lon="1.88721">
        <ele>156.19999694824</ele>
        <time>2026-06-16T09:01:49.000Z</time>
      </trkpt>
      <trkpt lat="48.69998" lon="1.88719">
        <ele>156.19999694824</ele>
        <time>2026-06-16T09:01:51.000Z</time>
      </trkpt>
      <trkpt lat="48.70001" lon="1.88719">
        <ele>156.19999694824</ele>
        <time>2026-06-16T09:01:52.000Z</time>
      </trkpt>
      <trkpt lat="48.70004" lon="1.88722">
        <ele>156</ele>
        <time>2026-06-16T09:01:54.000Z</time>
      </trkpt>
      <trkpt lat="48.70006" lon="1.88726">
        <ele>155.80000305176</ele>
        <time>2026-06-16T09:01:56.000Z</time>
      </trkpt>
      <trkpt lat="48.70006" lon="1.88726">
        <ele>155.80000305176</ele>
        <time>2026-06-16T09:01:59.000Z</time>
      </trkpt>
      <trkpt lat="48.70006" lon="1.88726">
        <ele>155.39999389648</ele>
        <time>2026-06-16T09:02:03.000Z</time>
      </trkpt>
      <trkpt lat="48.70006" lon="1.88727">
        <ele>154.80000305176</ele>
        <time>2026-06-16T09:02:11.000Z</time>
      </trkpt>
      <trkpt lat="48.70008" lon="1.88725">
        <ele>154.80000305176</ele>
        <time>2026-06-16T09:02:12.000Z</time>
      </trkpt>
      <trkpt lat="48.70012" lon="1.88719">
        <ele>154.60000610352</ele>
        <time>2026-06-16T09:02:17.000Z</time>
      </trkpt>
      <trkpt lat="48.70011" lon="1.88719">
        <ele>154.60000610352</ele>
        <time>2026-06-16T09:03:09.000Z</time>
      </trkpt>
      <trkpt lat="48.70009" lon="1.8872">
        <ele>154.39999389648</ele>
        <time>2026-06-16T09:03:28.000Z</time>
      </trkpt>
      <trkpt lat="48.70004" lon="1.88716">
        <ele>154.60000610352</ele>
        <time>2026-06-16T09:04:04.000Z</time>
      </trkpt>
      <trkpt lat="48.70005" lon="1.88716">
        <ele>154.60000610352</ele>
        <time>2026-06-16T09:04:05.000Z</time>
      </trkpt>
      <trkpt lat="48.70007" lon="1.88717">
        <ele>154.60000610352</ele>
        <time>2026-06-16T09:04:07.000Z</time>
      </trkpt>
      <trkpt lat="48.70009" lon="1.88719">
        <ele>154.60000610352</ele>
        <time>2026-06-16T09:04:08.000Z</time>
      </trkpt>
      <trkpt lat="48.70009" lon="1.88722">
        <ele>154.60000610352</ele>
        <time>2026-06-16T09:04:09.000Z</time>
      </trkpt>
      <trkpt lat="48.70011" lon="1.88733">
        <ele>154.60000610352</ele>
        <time>2026-06-16T09:04:11.000Z</time>
      </trkpt>
      <trkpt lat="48.70005" lon="1.88748">
        <ele>154.60000610352</ele>
        <time>2026-06-16T09:04:13.000Z</time>
      </trkpt>
      <trkpt lat="48.70003" lon="1.88755">
        <ele>154.60000610352</ele>
        <time>2026-06-16T09:04:14.000Z</time>
      </trkpt>
      <trkpt lat="48.69996" lon="1.88781">
        <ele>154.19999694824</ele>
        <time>2026-06-16T09:04:17.000Z</time>
      </trkpt>
      <trkpt lat="48.69992" lon="1.888">
        <ele>153.80000305176</ele>
        <time>2026-06-16T09:04:19.000Z</time>
      </trkpt>
      <trkpt lat="48.69987" lon="1.88822">
        <ele>153.19999694824</ele>
        <time>2026-06-16T09:04:21.000Z</time>
      </trkpt>
      <trkpt lat="48.69985" lon="1.88833">
        <ele>153</ele>
        <time>2026-06-16T09:04:22.000Z</time>
      </trkpt>
      <trkpt lat="48.69982" lon="1.88844">
        <ele>152.80000305176</ele>
        <time>2026-06-16T09:04:23.000Z</time>
      </trkpt>
      <trkpt lat="48.69971" lon="1.8889">
        <ele>152</ele>
        <time>2026-06-16T09:04:27.000Z</time>
      </trkpt>
      <trkpt lat="48.69968" lon="1.88903">
        <ele>151.60000610352</ele>
        <time>2026-06-16T09:04:28.000Z</time>
      </trkpt>
      <trkpt lat="48.69962" lon="1.88942">
        <ele>150.80000305176</ele>
        <time>2026-06-16T09:04:31.000Z</time>
      </trkpt>
      <trkpt lat="48.69957" lon="1.88969">
        <ele>150</ele>
        <time>2026-06-16T09:04:33.000Z</time>
      </trkpt>
      <trkpt lat="48.69951" lon="1.88996">
        <ele>149.60000610352</ele>
        <time>2026-06-16T09:04:35.000Z</time>
      </trkpt>
      <trkpt lat="48.69942" lon="1.89039">
        <ele>148.19999694824</ele>
        <time>2026-06-16T09:04:38.000Z</time>
      </trkpt>
      <trkpt lat="48.69936" lon="1.89068">
        <ele>147.19999694824</ele>
        <time>2026-06-16T09:04:40.000Z</time>
      </trkpt>
      <trkpt lat="48.69924" lon="1.8912">
        <ele>145.60000610352</ele>
        <time>2026-06-16T09:04:44.000Z</time>
      </trkpt>
      <trkpt lat="48.69912" lon="1.89167">
        <ele>144.60000610352</ele>
        <time>2026-06-16T09:04:47.000Z</time>
      </trkpt>
      <trkpt lat="48.69899" lon="1.89208">
        <ele>143.80000305176</ele>
        <time>2026-06-16T09:04:50.000Z</time>
      </trkpt>
      <trkpt lat="48.69895" lon="1.89222">
        <ele>143.39999389648</ele>
        <time>2026-06-16T09:04:51.000Z</time>
      </trkpt>
      <trkpt lat="48.69882" lon="1.89263">
        <ele>142.19999694824</ele>
        <time>2026-06-16T09:04:54.000Z</time>
      </trkpt>
      <trkpt lat="48.69871" lon="1.89307">
        <ele>141.19999694824</ele>
        <time>2026-06-16T09:04:57.000Z</time>
      </trkpt>
      <trkpt lat="48.69868" lon="1.89322">
        <ele>141</ele>
        <time>2026-06-16T09:04:58.000Z</time>
      </trkpt>
      <trkpt lat="48.69859" lon="1.89367">
        <ele>140</ele>
        <time>2026-06-16T09:05:01.000Z</time>
      </trkpt>
      <trkpt lat="48.69851" lon="1.89412">
        <ele>139</ele>
        <time>2026-06-16T09:05:04.000Z</time>
      </trkpt>
      <trkpt lat="48.69844" lon="1.89457">
        <ele>138.19999694824</ele>
        <time>2026-06-16T09:05:07.000Z</time>
      </trkpt>
      <trkpt lat="48.69841" lon="1.89471">
        <ele>137.60000610352</ele>
        <time>2026-06-16T09:05:08.000Z</time>
      </trkpt>
      <trkpt lat="48.69832" lon="1.89513">
        <ele>136.19999694824</ele>
        <time>2026-06-16T09:05:11.000Z</time>
      </trkpt>
      <trkpt lat="48.69829" lon="1.89527">
        <ele>136.19999694824</ele>
        <time>2026-06-16T09:05:12.000Z</time>
      </trkpt>
      <trkpt lat="48.69813" lon="1.89598">
        <ele>135.80000305176</ele>
        <time>2026-06-16T09:05:18.000Z</time>
      </trkpt>
      <trkpt lat="48.69809" lon="1.89607">
        <ele>135.80000305176</ele>
        <time>2026-06-16T09:05:19.000Z</time>
      </trkpt>
      <trkpt lat="48.698" lon="1.89632">
        <ele>135.80000305176</ele>
        <time>2026-06-16T09:05:22.000Z</time>
      </trkpt>
      <trkpt lat="48.6979" lon="1.89668">
        <ele>135.60000610352</ele>
        <time>2026-06-16T09:05:26.000Z</time>
      </trkpt>
      <trkpt lat="48.69786" lon="1.89686">
        <ele>135.60000610352</ele>
        <time>2026-06-16T09:05:28.000Z</time>
      </trkpt>
      <trkpt lat="48.69784" lon="1.89703">
        <ele>135.60000610352</ele>
        <time>2026-06-16T09:05:30.000Z</time>
      </trkpt>
      <trkpt lat="48.69784" lon="1.89722">
        <ele>135.19999694824</ele>
        <time>2026-06-16T09:05:32.000Z</time>
      </trkpt>
      <trkpt lat="48.69787" lon="1.89742">
        <ele>135.19999694824</ele>
        <time>2026-06-16T09:05:34.000Z</time>
      </trkpt>
      <trkpt lat="48.6979" lon="1.89751">
        <ele>134.80000305176</ele>
        <time>2026-06-16T09:05:35.000Z</time>
      </trkpt>
      <trkpt lat="48.69793" lon="1.89761">
        <ele>134.80000305176</ele>
        <time>2026-06-16T09:05:36.000Z</time>
      </trkpt>
      <trkpt lat="48.69796" lon="1.8977">
        <ele>134.60000610352</ele>
        <time>2026-06-16T09:05:37.000Z</time>
      </trkpt>
      <trkpt lat="48.69808" lon="1.89798">
        <ele>134.19999694824</ele>
        <time>2026-06-16T09:05:40.000Z</time>
      </trkpt>
      <trkpt lat="48.69824" lon="1.89844">
        <ele>133.80000305176</ele>
        <time>2026-06-16T09:05:45.000Z</time>
      </trkpt>
      <trkpt lat="48.69827" lon="1.89858">
        <ele>133.80000305176</ele>
        <time>2026-06-16T09:05:46.000Z</time>
      </trkpt>
      <trkpt lat="48.6983" lon="1.89869">
        <ele>133.60000610352</ele>
        <time>2026-06-16T09:05:47.000Z</time>
      </trkpt>
      <trkpt lat="48.69839" lon="1.89899">
        <ele>133.60000610352</ele>
        <time>2026-06-16T09:05:50.000Z</time>
      </trkpt>
      <trkpt lat="48.69842" lon="1.89909">
        <ele>133.39999389648</ele>
        <time>2026-06-16T09:05:51.000Z</time>
      </trkpt>
      <trkpt lat="48.69847" lon="1.89928">
        <ele>133.39999389648</ele>
        <time>2026-06-16T09:05:53.000Z</time>
      </trkpt>
      <trkpt lat="48.69848" lon="1.89937">
        <ele>133.39999389648</ele>
        <time>2026-06-16T09:05:54.000Z</time>
      </trkpt>
      <trkpt lat="48.6985" lon="1.89955">
        <ele>133.39999389648</ele>
        <time>2026-06-16T09:05:56.000Z</time>
      </trkpt>
      <trkpt lat="48.69849" lon="1.89964">
        <ele>133.39999389648</ele>
        <time>2026-06-16T09:05:57.000Z</time>
      </trkpt>
      <trkpt lat="48.69844" lon="1.89992">
        <ele>133.60000610352</ele>
        <time>2026-06-16T09:06:00.000Z</time>
      </trkpt>
      <trkpt lat="48.69845" lon="1.90018">
        <ele>133.80000305176</ele>
        <time>2026-06-16T09:06:03.000Z</time>
      </trkpt>
      <trkpt lat="48.69843" lon="1.90036">
        <ele>134</ele>
        <time>2026-06-16T09:06:05.000Z</time>
      </trkpt>
      <trkpt lat="48.69836" lon="1.90087">
        <ele>134.80000305176</ele>
        <time>2026-06-16T09:06:11.000Z</time>
      </trkpt>
      <trkpt lat="48.69834" lon="1.90111">
        <ele>135.19999694824</ele>
        <time>2026-06-16T09:06:14.000Z</time>
      </trkpt>
      <trkpt lat="48.69833" lon="1.90126">
        <ele>135.19999694824</ele>
        <time>2026-06-16T09:06:16.000Z</time>
      </trkpt>
      <trkpt lat="48.69831" lon="1.90155">
        <ele>135.80000305176</ele>
        <time>2026-06-16T09:06:20.000Z</time>
      </trkpt>
      <trkpt lat="48.69831" lon="1.90178">
        <ele>136.39999389648</ele>
        <time>2026-06-16T09:06:23.000Z</time>
      </trkpt>
      <trkpt lat="48.69831" lon="1.90187">
        <ele>136.60000610352</ele>
        <time>2026-06-16T09:06:24.000Z</time>
      </trkpt>
      <trkpt lat="48.69829" lon="1.90204">
        <ele>137</ele>
        <time>2026-06-16T09:06:26.000Z</time>
      </trkpt>
      <trkpt lat="48.69826" lon="1.90212">
        <ele>137</ele>
        <time>2026-06-16T09:06:27.000Z</time>
      </trkpt>
      <trkpt lat="48.69825" lon="1.9022">
        <ele>137.19999694824</ele>
        <time>2026-06-16T09:06:28.000Z</time>
      </trkpt>
      <trkpt lat="48.69822" lon="1.90235">
        <ele>137.60000610352</ele>
        <time>2026-06-16T09:06:30.000Z</time>
      </trkpt>
      <trkpt lat="48.69818" lon="1.90251">
        <ele>137.60000610352</ele>
        <time>2026-06-16T09:06:32.000Z</time>
      </trkpt>
      <trkpt lat="48.69815" lon="1.90258">
        <ele>137.60000610352</ele>
        <time>2026-06-16T09:06:33.000Z</time>
      </trkpt>
      <trkpt lat="48.69812" lon="1.90264">
        <ele>137.80000305176</ele>
        <time>2026-06-16T09:06:34.000Z</time>
      </trkpt>
      <trkpt lat="48.69802" lon="1.90283">
        <ele>138</ele>
        <time>2026-06-16T09:06:37.000Z</time>
      </trkpt>
      <trkpt lat="48.69795" lon="1.90294">
        <ele>138.19999694824</ele>
        <time>2026-06-16T09:06:39.000Z</time>
      </trkpt>
      <trkpt lat="48.69774" lon="1.90328">
        <ele>139</ele>
        <time>2026-06-16T09:06:45.000Z</time>
      </trkpt>
      <trkpt lat="48.69754" lon="1.90367">
        <ele>139.19999694824</ele>
        <time>2026-06-16T09:06:50.000Z</time>
      </trkpt>
      <trkpt lat="48.69736" lon="1.90415">
        <ele>138.39999389648</ele>
        <time>2026-06-16T09:06:55.000Z</time>
      </trkpt>
      <trkpt lat="48.69728" lon="1.90434">
        <ele>138.19999694824</ele>
        <time>2026-06-16T09:06:57.000Z</time>
      </trkpt>
      <trkpt lat="48.69723" lon="1.90443">
        <ele>137.80000305176</ele>
        <time>2026-06-16T09:06:58.000Z</time>
      </trkpt>
      <trkpt lat="48.6972" lon="1.90453">
        <ele>137.80000305176</ele>
        <time>2026-06-16T09:06:59.000Z</time>
      </trkpt>
      <trkpt lat="48.69717" lon="1.90462">
        <ele>137.60000610352</ele>
        <time>2026-06-16T09:07:00.000Z</time>
      </trkpt>
      <trkpt lat="48.69713" lon="1.90471">
        <ele>137.39999389648</ele>
        <time>2026-06-16T09:07:01.000Z</time>
      </trkpt>
      <trkpt lat="48.69691" lon="1.90502">
        <ele>137.19999694824</ele>
        <time>2026-06-16T09:07:05.000Z</time>
      </trkpt>
      <trkpt lat="48.69673" lon="1.90521">
        <ele>136.60000610352</ele>
        <time>2026-06-16T09:07:08.000Z</time>
      </trkpt>
      <trkpt lat="48.69649" lon="1.90549">
        <ele>136</ele>
        <time>2026-06-16T09:07:12.000Z</time>
      </trkpt>
      <trkpt lat="48.69632" lon="1.9057">
        <ele>135.19999694824</ele>
        <time>2026-06-16T09:07:15.000Z</time>
      </trkpt>
      <trkpt lat="48.69624" lon="1.90583">
        <ele>135.19999694824</ele>
        <time>2026-06-16T09:07:16.000Z</time>
      </trkpt>
      <trkpt lat="48.69603" lon="1.90629">
        <ele>133.80000305176</ele>
        <time>2026-06-16T09:07:20.000Z</time>
      </trkpt>
      <trkpt lat="48.69597" lon="1.9064">
        <ele>133.60000610352</ele>
        <time>2026-06-16T09:07:21.000Z</time>
      </trkpt>
      <trkpt lat="48.69582" lon="1.90665">
        <ele>132.80000305176</ele>
        <time>2026-06-16T09:07:24.000Z</time>
      </trkpt>
      <trkpt lat="48.69578" lon="1.90672">
        <ele>132.39999389648</ele>
        <time>2026-06-16T09:07:25.000Z</time>
      </trkpt>
      <trkpt lat="48.69574" lon="1.90678">
        <ele>132.19999694824</ele>
        <time>2026-06-16T09:07:26.000Z</time>
      </trkpt>
      <trkpt lat="48.69563" lon="1.9069">
        <ele>131.80000305176</ele>
        <time>2026-06-16T09:07:28.000Z</time>
      </trkpt>
      <trkpt lat="48.69558" lon="1.90696">
        <ele>131.60000610352</ele>
        <time>2026-06-16T09:07:29.000Z</time>
      </trkpt>
      <trkpt lat="48.69526" lon="1.90722">
        <ele>131.60000610352</ele>
        <time>2026-06-16T09:07:35.000Z</time>
      </trkpt>
      <trkpt lat="48.69496" lon="1.90747">
        <ele>133</ele>
        <time>2026-06-16T09:07:41.000Z</time>
      </trkpt>
      <trkpt lat="48.69472" lon="1.9077">
        <ele>133.80000305176</ele>
        <time>2026-06-16T09:07:46.000Z</time>
      </trkpt>
      <trkpt lat="48.69468" lon="1.90771">
        <ele>134</ele>
        <time>2026-06-16T09:07:47.000Z</time>
      </trkpt>
      <trkpt lat="48.69464" lon="1.90772">
        <ele>134</ele>
        <time>2026-06-16T09:07:48.000Z</time>
      </trkpt>
      <trkpt lat="48.69454" lon="1.90773">
        <ele>134.60000610352</ele>
        <time>2026-06-16T09:07:50.000Z</time>
      </trkpt>
      <trkpt lat="48.69439" lon="1.90774">
        <ele>135</ele>
        <time>2026-06-16T09:07:53.000Z</time>
      </trkpt>
      <trkpt lat="48.69429" lon="1.90775">
        <ele>135.39999389648</ele>
        <time>2026-06-16T09:07:55.000Z</time>
      </trkpt>
      <trkpt lat="48.69417" lon="1.90774">
        <ele>136</ele>
        <time>2026-06-16T09:07:58.000Z</time>
      </trkpt>
      <trkpt lat="48.69408" lon="1.90774">
        <ele>136.39999389648</ele>
        <time>2026-06-16T09:08:00.000Z</time>
      </trkpt>
      <trkpt lat="48.69387" lon="1.90779">
        <ele>137.19999694824</ele>
        <time>2026-06-16T09:08:04.000Z</time>
      </trkpt>
      <trkpt lat="48.69379" lon="1.90783">
        <ele>137.39999389648</ele>
        <time>2026-06-16T09:08:06.000Z</time>
      </trkpt>
      <trkpt lat="48.69364" lon="1.90792">
        <ele>137.80000305176</ele>
        <time>2026-06-16T09:08:09.000Z</time>
      </trkpt>
      <trkpt lat="48.69351" lon="1.90802">
        <ele>137.80000305176</ele>
        <time>2026-06-16T09:08:11.000Z</time>
      </trkpt>
      <trkpt lat="48.6931" lon="1.90847">
        <ele>136.80000305176</ele>
        <time>2026-06-16T09:08:18.000Z</time>
      </trkpt>
      <trkpt lat="48.69276" lon="1.90888">
        <ele>136</ele>
        <time>2026-06-16T09:08:25.000Z</time>
      </trkpt>
      <trkpt lat="48.69262" lon="1.90904">
        <ele>136</ele>
        <time>2026-06-16T09:08:28.000Z</time>
      </trkpt>
      <trkpt lat="48.69248" lon="1.90921">
        <ele>135.80000305176</ele>
        <time>2026-06-16T09:08:31.000Z</time>
      </trkpt>
      <trkpt lat="48.69232" lon="1.90939">
        <ele>135.60000610352</ele>
        <time>2026-06-16T09:08:34.000Z</time>
      </trkpt>
      <trkpt lat="48.692" lon="1.90978">
        <ele>135</ele>
        <time>2026-06-16T09:08:40.000Z</time>
      </trkpt>
      <trkpt lat="48.69195" lon="1.90985">
        <ele>134.80000305176</ele>
        <time>2026-06-16T09:08:41.000Z</time>
      </trkpt>
      <trkpt lat="48.69174" lon="1.91008">
        <ele>134</ele>
        <time>2026-06-16T09:08:45.000Z</time>
      </trkpt>
      <trkpt lat="48.69166" lon="1.91017">
        <ele>133.80000305176</ele>
        <time>2026-06-16T09:08:46.000Z</time>
      </trkpt>
      <trkpt lat="48.69154" lon="1.91031">
        <ele>133.39999389648</ele>
        <time>2026-06-16T09:08:48.000Z</time>
      </trkpt>
      <trkpt lat="48.69135" lon="1.91054">
        <ele>132.60000610352</ele>
        <time>2026-06-16T09:08:51.000Z</time>
      </trkpt>
      <trkpt lat="48.69114" lon="1.91083">
        <ele>132</ele>
        <time>2026-06-16T09:08:54.000Z</time>
      </trkpt>
      <trkpt lat="48.69102" lon="1.91108">
        <ele>131</ele>
        <time>2026-06-16T09:08:56.000Z</time>
      </trkpt>
      <trkpt lat="48.6909" lon="1.91137">
        <ele>130.39999389648</ele>
        <time>2026-06-16T09:08:58.000Z</time>
      </trkpt>
      <trkpt lat="48.69085" lon="1.91151">
        <ele>129.80000305176</ele>
        <time>2026-06-16T09:08:59.000Z</time>
      </trkpt>
      <trkpt lat="48.69067" lon="1.91193">
        <ele>128.19999694824</ele>
        <time>2026-06-16T09:09:02.000Z</time>
      </trkpt>
      <trkpt lat="48.69059" lon="1.91207">
        <ele>127.59999847412</ele>
        <time>2026-06-16T09:09:03.000Z</time>
      </trkpt>
      <trkpt lat="48.69053" lon="1.91219">
        <ele>127.19999694824</ele>
        <time>2026-06-16T09:09:04.000Z</time>
      </trkpt>
      <trkpt lat="48.69037" lon="1.91243">
        <ele>126.19999694824</ele>
        <time>2026-06-16T09:09:06.000Z</time>
      </trkpt>
      <trkpt lat="48.6903" lon="1.91254">
        <ele>126</ele>
        <time>2026-06-16T09:09:07.000Z</time>
      </trkpt>
      <trkpt lat="48.69023" lon="1.91266">
        <ele>125.59999847412</ele>
        <time>2026-06-16T09:09:08.000Z</time>
      </trkpt>
      <trkpt lat="48.69011" lon="1.91288">
        <ele>125</ele>
        <time>2026-06-16T09:09:10.000Z</time>
      </trkpt>
      <trkpt lat="48.68999" lon="1.91308">
        <ele>124.40000152588</ele>
        <time>2026-06-16T09:09:12.000Z</time>
      </trkpt>
      <trkpt lat="48.68994" lon="1.91319">
        <ele>124.19999694824</ele>
        <time>2026-06-16T09:09:13.000Z</time>
      </trkpt>
      <trkpt lat="48.68984" lon="1.9135">
        <ele>124</ele>
        <time>2026-06-16T09:09:16.000Z</time>
      </trkpt>
      <trkpt lat="48.68982" lon="1.9136">
        <ele>123.80000305176</ele>
        <time>2026-06-16T09:09:17.000Z</time>
      </trkpt>
      <trkpt lat="48.68973" lon="1.91399">
        <ele>123.59999847412</ele>
        <time>2026-06-16T09:09:21.000Z</time>
      </trkpt>
      <trkpt lat="48.68971" lon="1.91417">
        <ele>123.40000152588</ele>
        <time>2026-06-16T09:09:23.000Z</time>
      </trkpt>
      <trkpt lat="48.68968" lon="1.91444">
        <ele>123.40000152588</ele>
        <time>2026-06-16T09:09:26.000Z</time>
      </trkpt>
      <trkpt lat="48.68965" lon="1.91479">
        <ele>123.59999847412</ele>
        <time>2026-06-16T09:09:30.000Z</time>
      </trkpt>
      <trkpt lat="48.68966" lon="1.91487">
        <ele>123.59999847412</ele>
        <time>2026-06-16T09:09:31.000Z</time>
      </trkpt>
      <trkpt lat="48.68964" lon="1.91496">
        <ele>123.59999847412</ele>
        <time>2026-06-16T09:09:32.000Z</time>
      </trkpt>
      <trkpt lat="48.6896" lon="1.91523">
        <ele>124.19999694824</ele>
        <time>2026-06-16T09:09:35.000Z</time>
      </trkpt>
      <trkpt lat="48.68958" lon="1.91542">
        <ele>124.19999694824</ele>
        <time>2026-06-16T09:09:37.000Z</time>
      </trkpt>
      <trkpt lat="48.68954" lon="1.91573">
        <ele>124.19999694824</ele>
        <time>2026-06-16T09:09:40.000Z</time>
      </trkpt>
      <trkpt lat="48.68952" lon="1.91584">
        <ele>124.19999694824</ele>
        <time>2026-06-16T09:09:41.000Z</time>
      </trkpt>
      <trkpt lat="48.68946" lon="1.91626">
        <ele>124</ele>
        <time>2026-06-16T09:09:45.000Z</time>
      </trkpt>
      <trkpt lat="48.68945" lon="1.91636">
        <ele>124</ele>
        <time>2026-06-16T09:09:46.000Z</time>
      </trkpt>
      <trkpt lat="48.68944" lon="1.91653">
        <ele>123.80000305176</ele>
        <time>2026-06-16T09:09:48.000Z</time>
      </trkpt>
      <trkpt lat="48.68943" lon="1.91661">
        <ele>123.80000305176</ele>
        <time>2026-06-16T09:09:49.000Z</time>
      </trkpt>
      <trkpt lat="48.68939" lon="1.91678">
        <ele>123.80000305176</ele>
        <time>2026-06-16T09:09:51.000Z</time>
      </trkpt>
      <trkpt lat="48.68939" lon="1.91702">
        <ele>123.59999847412</ele>
        <time>2026-06-16T09:09:53.000Z</time>
      </trkpt>
      <trkpt lat="48.68939" lon="1.91735">
        <ele>123.40000152588</ele>
        <time>2026-06-16T09:09:56.000Z</time>
      </trkpt>
      <trkpt lat="48.68931" lon="1.91755">
        <ele>123.19999694824</ele>
        <time>2026-06-16T09:09:58.000Z</time>
      </trkpt>
      <trkpt lat="48.68927" lon="1.91763">
        <ele>123.19999694824</ele>
        <time>2026-06-16T09:09:59.000Z</time>
      </trkpt>
      <trkpt lat="48.68913" lon="1.91786">
        <ele>123</ele>
        <time>2026-06-16T09:10:02.000Z</time>
      </trkpt>
      <trkpt lat="48.68896" lon="1.91801">
        <ele>123</ele>
        <time>2026-06-16T09:10:05.000Z</time>
      </trkpt>
      <trkpt lat="48.68884" lon="1.9181">
        <ele>123</ele>
        <time>2026-06-16T09:10:07.000Z</time>
      </trkpt>
      <trkpt lat="48.6886" lon="1.91833">
        <ele>123.40000152588</ele>
        <time>2026-06-16T09:10:12.000Z</time>
      </trkpt>
      <trkpt lat="48.68837" lon="1.9186">
        <ele>124.59999847412</ele>
        <time>2026-06-16T09:10:18.000Z</time>
      </trkpt>
      <trkpt lat="48.68833" lon="1.91865">
        <ele>124.80000305176</ele>
        <time>2026-06-16T09:10:19.000Z</time>
      </trkpt>
      <trkpt lat="48.68822" lon="1.91878">
        <ele>125.80000305176</ele>
        <time>2026-06-16T09:10:22.000Z</time>
      </trkpt>
      <trkpt lat="48.68818" lon="1.91883">
        <ele>126.19999694824</ele>
        <time>2026-06-16T09:10:23.000Z</time>
      </trkpt>
      <trkpt lat="48.68811" lon="1.91891">
        <ele>126.59999847412</ele>
        <time>2026-06-16T09:10:25.000Z</time>
      </trkpt>
      <trkpt lat="48.68801" lon="1.91903">
        <ele>127.40000152588</ele>
        <time>2026-06-16T09:10:28.000Z</time>
      </trkpt>
      <trkpt lat="48.68794" lon="1.91915">
        <ele>128.19999694824</ele>
        <time>2026-06-16T09:10:30.000Z</time>
      </trkpt>
      <trkpt lat="48.68791" lon="1.9192">
        <ele>128.39999389648</ele>
        <time>2026-06-16T09:10:31.000Z</time>
      </trkpt>
      <trkpt lat="48.68789" lon="1.91927">
        <ele>128.80000305176</ele>
        <time>2026-06-16T09:10:32.000Z</time>
      </trkpt>
      <trkpt lat="48.68768" lon="1.91965">
        <ele>130</ele>
        <time>2026-06-16T09:10:38.000Z</time>
      </trkpt>
      <trkpt lat="48.68747" lon="1.92012">
        <ele>130.19999694824</ele>
        <time>2026-06-16T09:10:43.000Z</time>
      </trkpt>
      <trkpt lat="48.68723" lon="1.92059">
        <ele>130</ele>
        <time>2026-06-16T09:10:48.000Z</time>
      </trkpt>
      <trkpt lat="48.68719" lon="1.92068">
        <ele>130</ele>
        <time>2026-06-16T09:10:49.000Z</time>
      </trkpt>
      <trkpt lat="48.68687" lon="1.92119">
        <ele>130.19999694824</ele>
        <time>2026-06-16T09:10:56.000Z</time>
      </trkpt>
      <trkpt lat="48.68673" lon="1.92143">
        <ele>130.19999694824</ele>
        <time>2026-06-16T09:10:59.000Z</time>
      </trkpt>
      <trkpt lat="48.68662" lon="1.9216">
        <ele>130.19999694824</ele>
        <time>2026-06-16T09:11:01.000Z</time>
      </trkpt>
      <trkpt lat="48.68657" lon="1.92168">
        <ele>130.19999694824</ele>
        <time>2026-06-16T09:11:02.000Z</time>
      </trkpt>
      <trkpt lat="48.68634" lon="1.92204">
        <ele>129.19999694824</ele>
        <time>2026-06-16T09:11:06.000Z</time>
      </trkpt>
      <trkpt lat="48.68622" lon="1.92224">
        <ele>128.60000610352</ele>
        <time>2026-06-16T09:11:08.000Z</time>
      </trkpt>
      <trkpt lat="48.68607" lon="1.92255">
        <ele>127.80000305176</ele>
        <time>2026-06-16T09:11:11.000Z</time>
      </trkpt>
      <trkpt lat="48.68599" lon="1.92274">
        <ele>127.40000152588</ele>
        <time>2026-06-16T09:11:13.000Z</time>
      </trkpt>
      <trkpt lat="48.68593" lon="1.92296">
        <ele>126.80000305176</ele>
        <time>2026-06-16T09:11:15.000Z</time>
      </trkpt>
      <trkpt lat="48.68584" lon="1.92332">
        <ele>126.19999694824</ele>
        <time>2026-06-16T09:11:18.000Z</time>
      </trkpt>
      <trkpt lat="48.68581" lon="1.92342">
        <ele>126.19999694824</ele>
        <time>2026-06-16T09:11:19.000Z</time>
      </trkpt>
      <trkpt lat="48.68574" lon="1.9236">
        <ele>126.19999694824</ele>
        <time>2026-06-16T09:11:21.000Z</time>
      </trkpt>
      <trkpt lat="48.68569" lon="1.92369">
        <ele>126.19999694824</ele>
        <time>2026-06-16T09:11:22.000Z</time>
      </trkpt>
      <trkpt lat="48.68565" lon="1.92377">
        <ele>126.19999694824</ele>
        <time>2026-06-16T09:11:23.000Z</time>
      </trkpt>
      <trkpt lat="48.68558" lon="1.92396">
        <ele>126.19999694824</ele>
        <time>2026-06-16T09:11:25.000Z</time>
      </trkpt>
      <trkpt lat="48.68553" lon="1.92405">
        <ele>126.19999694824</ele>
        <time>2026-06-16T09:11:26.000Z</time>
      </trkpt>
      <trkpt lat="48.68541" lon="1.92431">
        <ele>126.80000305176</ele>
        <time>2026-06-16T09:11:29.000Z</time>
      </trkpt>
      <trkpt lat="48.68536" lon="1.92452">
        <ele>127</ele>
        <time>2026-06-16T09:11:31.000Z</time>
      </trkpt>
      <trkpt lat="48.68527" lon="1.9249">
        <ele>127.19999694824</ele>
        <time>2026-06-16T09:11:34.000Z</time>
      </trkpt>
      <trkpt lat="48.68525" lon="1.92502">
        <ele>127.19999694824</ele>
        <time>2026-06-16T09:11:35.000Z</time>
      </trkpt>
      <trkpt lat="48.68521" lon="1.92514">
        <ele>127</ele>
        <time>2026-06-16T09:11:36.000Z</time>
      </trkpt>
      <trkpt lat="48.68517" lon="1.92541">
        <ele>126.80000305176</ele>
        <time>2026-06-16T09:11:38.000Z</time>
      </trkpt>
      <trkpt lat="48.68505" lon="1.92592">
        <ele>125.59999847412</ele>
        <time>2026-06-16T09:11:42.000Z</time>
      </trkpt>
      <trkpt lat="48.68496" lon="1.92617">
        <ele>125</ele>
        <time>2026-06-16T09:11:44.000Z</time>
      </trkpt>
      <trkpt lat="48.68477" lon="1.92671">
        <ele>124.40000152588</ele>
        <time>2026-06-16T09:11:49.000Z</time>
      </trkpt>
      <trkpt lat="48.68451" lon="1.92721">
        <ele>124.19999694824</ele>
        <time>2026-06-16T09:11:55.000Z</time>
      </trkpt>
      <trkpt lat="48.68425" lon="1.9276">
        <ele>124.59999847412</ele>
        <time>2026-06-16T09:12:01.000Z</time>
      </trkpt>
      <trkpt lat="48.684" lon="1.92803">
        <ele>125.80000305176</ele>
        <time>2026-06-16T09:12:08.000Z</time>
      </trkpt>
      <trkpt lat="48.6838" lon="1.92835">
        <ele>126.80000305176</ele>
        <time>2026-06-16T09:12:14.000Z</time>
      </trkpt>
      <trkpt lat="48.68374" lon="1.92845">
        <ele>127.40000152588</ele>
        <time>2026-06-16T09:12:16.000Z</time>
      </trkpt>
      <trkpt lat="48.6836" lon="1.92872">
        <ele>128.19999694824</ele>
        <time>2026-06-16T09:12:21.000Z</time>
      </trkpt>
      <trkpt lat="48.68357" lon="1.92876">
        <ele>128.19999694824</ele>
        <time>2026-06-16T09:12:22.000Z</time>
      </trkpt>
      <trkpt lat="48.68345" lon="1.92891">
        <ele>129.19999694824</ele>
        <time>2026-06-16T09:12:26.000Z</time>
      </trkpt>
      <trkpt lat="48.68342" lon="1.92895">
        <ele>129.39999389648</ele>
        <time>2026-06-16T09:12:27.000Z</time>
      </trkpt>
      <trkpt lat="48.68329" lon="1.9291">
        <ele>130</ele>
        <time>2026-06-16T09:12:31.000Z</time>
      </trkpt>
      <trkpt lat="48.68326" lon="1.92912">
        <ele>130.60000610352</ele>
        <time>2026-06-16T09:12:32.000Z</time>
      </trkpt>
      <trkpt lat="48.68312" lon="1.92926">
        <ele>131.60000610352</ele>
        <time>2026-06-16T09:12:36.000Z</time>
      </trkpt>
      <trkpt lat="48.68301" lon="1.92938">
        <ele>132.80000305176</ele>
        <time>2026-06-16T09:12:39.000Z</time>
      </trkpt>
      <trkpt lat="48.68285" lon="1.92956">
        <ele>134.19999694824</ele>
        <time>2026-06-16T09:12:44.000Z</time>
      </trkpt>
      <trkpt lat="48.68282" lon="1.92961">
        <ele>134.60000610352</ele>
        <time>2026-06-16T09:12:45.000Z</time>
      </trkpt>
      <trkpt lat="48.68276" lon="1.92969">
        <ele>135.39999389648</ele>
        <time>2026-06-16T09:12:48.000Z</time>
      </trkpt>
      <trkpt lat="48.68275" lon="1.92972">
        <ele>136</ele>
        <time>2026-06-16T09:12:49.000Z</time>
      </trkpt>
      <trkpt lat="48.68271" lon="1.92977">
        <ele>136.80000305176</ele>
        <time>2026-06-16T09:12:51.000Z</time>
      </trkpt>
      <trkpt lat="48.68273" lon="1.92986">
        <ele>137.19999694824</ele>
        <time>2026-06-16T09:12:53.000Z</time>
      </trkpt>
      <trkpt lat="48.68272" lon="1.92993">
        <ele>137.80000305176</ele>
        <time>2026-06-16T09:12:55.000Z</time>
      </trkpt>
      <trkpt lat="48.68268" lon="1.92998">
        <ele>138.19999694824</ele>
        <time>2026-06-16T09:12:57.000Z</time>
      </trkpt>
      <trkpt lat="48.68259" lon="1.93014">
        <ele>138.80000305176</ele>
        <time>2026-06-16T09:13:00.000Z</time>
      </trkpt>
      <trkpt lat="48.68247" lon="1.93028">
        <ele>139.80000305176</ele>
        <time>2026-06-16T09:13:04.000Z</time>
      </trkpt>
      <trkpt lat="48.68245" lon="1.93031">
        <ele>139.80000305176</ele>
        <time>2026-06-16T09:13:05.000Z</time>
      </trkpt>
      <trkpt lat="48.68238" lon="1.93044">
        <ele>140.80000305176</ele>
        <time>2026-06-16T09:13:09.000Z</time>
      </trkpt>
      <trkpt lat="48.68233" lon="1.93052">
        <ele>141.19999694824</ele>
        <time>2026-06-16T09:13:11.000Z</time>
      </trkpt>
      <trkpt lat="48.68221" lon="1.93071">
        <ele>142</ele>
        <time>2026-06-16T09:13:15.000Z</time>
      </trkpt>
      <trkpt lat="48.68221" lon="1.93076">
        <ele>142.19999694824</ele>
        <time>2026-06-16T09:13:16.000Z</time>
      </trkpt>
      <trkpt lat="48.68223" lon="1.93088">
        <ele>143</ele>
        <time>2026-06-16T09:13:19.000Z</time>
      </trkpt>
      <trkpt lat="48.68222" lon="1.9311">
        <ele>143.60000610352</ele>
        <time>2026-06-16T09:13:22.000Z</time>
      </trkpt>
      <trkpt lat="48.68223" lon="1.93125">
        <ele>143.80000305176</ele>
        <time>2026-06-16T09:13:24.000Z</time>
      </trkpt>
      <trkpt lat="48.68224" lon="1.93142">
        <ele>144.80000305176</ele>
        <time>2026-06-16T09:13:28.000Z</time>
      </trkpt>
      <trkpt lat="48.68223" lon="1.93152">
        <ele>145</ele>
        <time>2026-06-16T09:13:30.000Z</time>
      </trkpt>
      <trkpt lat="48.68212" lon="1.93179">
        <ele>145.19999694824</ele>
        <time>2026-06-16T09:13:33.000Z</time>
      </trkpt>
      <trkpt lat="48.68202" lon="1.93196">
        <ele>145.19999694824</ele>
        <time>2026-06-16T09:13:35.000Z</time>
      </trkpt>
      <trkpt lat="48.68196" lon="1.93204">
        <ele>145.19999694824</ele>
        <time>2026-06-16T09:13:36.000Z</time>
      </trkpt>
      <trkpt lat="48.68188" lon="1.93221">
        <ele>145</ele>
        <time>2026-06-16T09:13:38.000Z</time>
      </trkpt>
      <trkpt lat="48.68185" lon="1.93242">
        <ele>144.60000610352</ele>
        <time>2026-06-16T09:13:40.000Z</time>
      </trkpt>
      <trkpt lat="48.68179" lon="1.93272">
        <ele>144</ele>
        <time>2026-06-16T09:13:42.000Z</time>
      </trkpt>
      <trkpt lat="48.68177" lon="1.93287">
        <ele>144</ele>
        <time>2026-06-16T09:13:43.000Z</time>
      </trkpt>
      <trkpt lat="48.68175" lon="1.93302">
        <ele>143.39999389648</ele>
        <time>2026-06-16T09:13:44.000Z</time>
      </trkpt>
      <trkpt lat="48.68172" lon="1.93317">
        <ele>142.80000305176</ele>
        <time>2026-06-16T09:13:45.000Z</time>
      </trkpt>
      <trkpt lat="48.68158" lon="1.93345">
        <ele>142</ele>
        <time>2026-06-16T09:13:47.000Z</time>
      </trkpt>
      <trkpt lat="48.6815" lon="1.93358">
        <ele>141.39999389648</ele>
        <time>2026-06-16T09:13:48.000Z</time>
      </trkpt>
      <trkpt lat="48.68143" lon="1.9337">
        <ele>140.60000610352</ele>
        <time>2026-06-16T09:13:49.000Z</time>
      </trkpt>
      <trkpt lat="48.68138" lon="1.93383">
        <ele>140</ele>
        <time>2026-06-16T09:13:50.000Z</time>
      </trkpt>
      <trkpt lat="48.68134" lon="1.93398">
        <ele>139.39999389648</ele>
        <time>2026-06-16T09:13:51.000Z</time>
      </trkpt>
      <trkpt lat="48.6813" lon="1.93413">
        <ele>138.19999694824</ele>
        <time>2026-06-16T09:13:52.000Z</time>
      </trkpt>
      <trkpt lat="48.68123" lon="1.93445">
        <ele>136.80000305176</ele>
        <time>2026-06-16T09:13:54.000Z</time>
      </trkpt>
      <trkpt lat="48.68118" lon="1.93478">
        <ele>135.60000610352</ele>
        <time>2026-06-16T09:13:56.000Z</time>
      </trkpt>
      <trkpt lat="48.68115" lon="1.93495">
        <ele>134.80000305176</ele>
        <time>2026-06-16T09:13:57.000Z</time>
      </trkpt>
      <trkpt lat="48.68113" lon="1.93512">
        <ele>134.19999694824</ele>
        <time>2026-06-16T09:13:58.000Z</time>
      </trkpt>
      <trkpt lat="48.68111" lon="1.93529">
        <ele>133.19999694824</ele>
        <time>2026-06-16T09:13:59.000Z</time>
      </trkpt>
      <trkpt lat="48.68113" lon="1.93566">
        <ele>132</ele>
        <time>2026-06-16T09:14:01.000Z</time>
      </trkpt>
      <trkpt lat="48.68117" lon="1.93602">
        <ele>130.80000305176</ele>
        <time>2026-06-16T09:14:03.000Z</time>
      </trkpt>
      <trkpt lat="48.6812" lon="1.93637">
        <ele>129.39999389648</ele>
        <time>2026-06-16T09:14:05.000Z</time>
      </trkpt>
      <trkpt lat="48.68127" lon="1.93671">
        <ele>128</ele>
        <time>2026-06-16T09:14:07.000Z</time>
      </trkpt>
      <trkpt lat="48.68135" lon="1.93704">
        <ele>126.59999847412</ele>
        <time>2026-06-16T09:14:09.000Z</time>
      </trkpt>
      <trkpt lat="48.68144" lon="1.93734">
        <ele>125.59999847412</ele>
        <time>2026-06-16T09:14:11.000Z</time>
      </trkpt>
      <trkpt lat="48.68147" lon="1.93749">
        <ele>125.40000152588</ele>
        <time>2026-06-16T09:14:12.000Z</time>
      </trkpt>
      <trkpt lat="48.68158" lon="1.93803">
        <ele>124.80000305176</ele>
        <time>2026-06-16T09:14:16.000Z</time>
      </trkpt>
      <trkpt lat="48.68169" lon="1.93853">
        <ele>124.59999847412</ele>
        <time>2026-06-16T09:14:20.000Z</time>
      </trkpt>
      <trkpt lat="48.68171" lon="1.93866">
        <ele>124.40000152588</ele>
        <time>2026-06-16T09:14:21.000Z</time>
      </trkpt>
      <trkpt lat="48.68172" lon="1.93879">
        <ele>124.40000152588</ele>
        <time>2026-06-16T09:14:22.000Z</time>
      </trkpt>
      <trkpt lat="48.68175" lon="1.93921">
        <ele>124.19999694824</ele>
        <time>2026-06-16T09:14:25.000Z</time>
      </trkpt>
      <trkpt lat="48.68178" lon="1.93966">
        <ele>123.40000152588</ele>
        <time>2026-06-16T09:14:28.000Z</time>
      </trkpt>
      <trkpt lat="48.68179" lon="1.93981">
        <ele>123.19999694824</ele>
        <time>2026-06-16T09:14:29.000Z</time>
      </trkpt>
      <trkpt lat="48.68187" lon="1.9404">
        <ele>121.80000305176</ele>
        <time>2026-06-16T09:14:33.000Z</time>
      </trkpt>
      <trkpt lat="48.68191" lon="1.94076">
        <ele>121.40000152588</ele>
        <time>2026-06-16T09:14:36.000Z</time>
      </trkpt>
      <trkpt lat="48.68181" lon="1.9411">
        <ele>121.19999694824</ele>
        <time>2026-06-16T09:14:39.000Z</time>
      </trkpt>
      <trkpt lat="48.68179" lon="1.94121">
        <ele>121.19999694824</ele>
        <time>2026-06-16T09:14:40.000Z</time>
      </trkpt>
      <trkpt lat="48.68172" lon="1.94151">
        <ele>121.19999694824</ele>
        <time>2026-06-16T09:14:43.000Z</time>
      </trkpt>
      <trkpt lat="48.68169" lon="1.94161">
        <ele>121.19999694824</ele>
        <time>2026-06-16T09:14:44.000Z</time>
      </trkpt>
      <trkpt lat="48.68163" lon="1.94181">
        <ele>121.19999694824</ele>
        <time>2026-06-16T09:14:46.000Z</time>
      </trkpt>
      <trkpt lat="48.68145" lon="1.94214">
        <ele>121.19999694824</ele>
        <time>2026-06-16T09:14:49.000Z</time>
      </trkpt>
      <trkpt lat="48.68133" lon="1.94237">
        <ele>121</ele>
        <time>2026-06-16T09:14:51.000Z</time>
      </trkpt>
      <trkpt lat="48.68122" lon="1.9426">
        <ele>120.80000305176</ele>
        <time>2026-06-16T09:14:53.000Z</time>
      </trkpt>
      <trkpt lat="48.68098" lon="1.94304">
        <ele>119.59999847412</ele>
        <time>2026-06-16T09:14:57.000Z</time>
      </trkpt>
      <trkpt lat="48.68093" lon="1.94314">
        <ele>119.40000152588</ele>
        <time>2026-06-16T09:14:58.000Z</time>
      </trkpt>
      <trkpt lat="48.68077" lon="1.94338">
        <ele>118.40000152588</ele>
        <time>2026-06-16T09:15:01.000Z</time>
      </trkpt>
      <trkpt lat="48.68066" lon="1.94356">
        <ele>118.19999694824</ele>
        <time>2026-06-16T09:15:03.000Z</time>
      </trkpt>
      <trkpt lat="48.68029" lon="1.94413">
        <ele>117.80000305176</ele>
        <time>2026-06-16T09:15:10.000Z</time>
      </trkpt>
      <trkpt lat="48.68" lon="1.94463">
        <ele>117.80000305176</ele>
        <time>2026-06-16T09:15:16.000Z</time>
      </trkpt>
      <trkpt lat="48.67971" lon="1.94505">
        <ele>118.19999694824</ele>
        <time>2026-06-16T09:15:22.000Z</time>
      </trkpt>
      <trkpt lat="48.67943" lon="1.94538">
        <ele>119</ele>
        <time>2026-06-16T09:15:28.000Z</time>
      </trkpt>
      <trkpt lat="48.67939" lon="1.94542">
        <ele>119.19999694824</ele>
        <time>2026-06-16T09:15:29.000Z</time>
      </trkpt>
      <trkpt lat="48.67925" lon="1.94555">
        <ele>119.59999847412</ele>
        <time>2026-06-16T09:15:32.000Z</time>
      </trkpt>
      <trkpt lat="48.67915" lon="1.94566">
        <ele>119.80000305176</ele>
        <time>2026-06-16T09:15:34.000Z</time>
      </trkpt>
      <trkpt lat="48.67878" lon="1.9462">
        <ele>119.80000305176</ele>
        <time>2026-06-16T09:15:42.000Z</time>
      </trkpt>
      <trkpt lat="48.67849" lon="1.94675">
        <ele>119.19999694824</ele>
        <time>2026-06-16T09:15:50.000Z</time>
      </trkpt>
      <trkpt lat="48.6784" lon="1.94705">
        <ele>119</ele>
        <time>2026-06-16T09:15:54.000Z</time>
      </trkpt>
      <trkpt lat="48.67839" lon="1.94712">
        <ele>119</ele>
        <time>2026-06-16T09:15:55.000Z</time>
      </trkpt>
      <trkpt lat="48.67837" lon="1.9472">
        <ele>119</ele>
        <time>2026-06-16T09:15:56.000Z</time>
      </trkpt>
      <trkpt lat="48.6783" lon="1.94745">
        <ele>119</ele>
        <time>2026-06-16T09:15:59.000Z</time>
      </trkpt>
      <trkpt lat="48.67827" lon="1.9476">
        <ele>119</ele>
        <time>2026-06-16T09:16:01.000Z</time>
      </trkpt>
      <trkpt lat="48.67823" lon="1.94775">
        <ele>119.19999694824</ele>
        <time>2026-06-16T09:16:03.000Z</time>
      </trkpt>
      <trkpt lat="48.67817" lon="1.94788">
        <ele>119.40000152588</ele>
        <time>2026-06-16T09:16:05.000Z</time>
      </trkpt>
      <trkpt lat="48.67801" lon="1.9484">
        <ele>120</ele>
        <time>2026-06-16T09:16:11.000Z</time>
      </trkpt>
      <trkpt lat="48.67792" lon="1.94858">
        <ele>120.19999694824</ele>
        <time>2026-06-16T09:16:13.000Z</time>
      </trkpt>
      <trkpt lat="48.67781" lon="1.94884">
        <ele>120.40000152588</ele>
        <time>2026-06-16T09:16:16.000Z</time>
      </trkpt>
      <trkpt lat="48.6775" lon="1.94937">
        <ele>120</ele>
        <time>2026-06-16T09:16:23.000Z</time>
      </trkpt>
      <trkpt lat="48.67744" lon="1.94954">
        <ele>120</ele>
        <time>2026-06-16T09:16:25.000Z</time>
      </trkpt>
      <trkpt lat="48.67739" lon="1.9497">
        <ele>120</ele>
        <time>2026-06-16T09:16:27.000Z</time>
      </trkpt>
      <trkpt lat="48.67728" lon="1.95002">
        <ele>120</ele>
        <time>2026-06-16T09:16:31.000Z</time>
      </trkpt>
      <trkpt lat="48.67726" lon="1.95019">
        <ele>120</ele>
        <time>2026-06-16T09:16:33.000Z</time>
      </trkpt>
      <trkpt lat="48.67718" lon="1.95051">
        <ele>120.19999694824</ele>
        <time>2026-06-16T09:16:37.000Z</time>
      </trkpt>
      <trkpt lat="48.67715" lon="1.95059">
        <ele>120.19999694824</ele>
        <time>2026-06-16T09:16:38.000Z</time>
      </trkpt>
      <trkpt lat="48.67709" lon="1.95086">
        <ele>120.19999694824</ele>
        <time>2026-06-16T09:16:41.000Z</time>
      </trkpt>
      <trkpt lat="48.67707" lon="1.95103">
        <ele>120.40000152588</ele>
        <time>2026-06-16T09:16:43.000Z</time>
      </trkpt>
      <trkpt lat="48.67704" lon="1.95119">
        <ele>120.40000152588</ele>
        <time>2026-06-16T09:16:45.000Z</time>
      </trkpt>
      <trkpt lat="48.67703" lon="1.95127">
        <ele>120.40000152588</ele>
        <time>2026-06-16T09:16:46.000Z</time>
      </trkpt>
      <trkpt lat="48.67703" lon="1.95134">
        <ele>120.59999847412</ele>
        <time>2026-06-16T09:16:47.000Z</time>
      </trkpt>
      <trkpt lat="48.67706" lon="1.95153">
        <ele>120.59999847412</ele>
        <time>2026-06-16T09:16:49.000Z</time>
      </trkpt>
      <trkpt lat="48.67703" lon="1.95171">
        <ele>120.80000305176</ele>
        <time>2026-06-16T09:16:51.000Z</time>
      </trkpt>
      <trkpt lat="48.67703" lon="1.9518">
        <ele>120.80000305176</ele>
        <time>2026-06-16T09:16:52.000Z</time>
      </trkpt>
      <trkpt lat="48.677" lon="1.952">
        <ele>120.80000305176</ele>
        <time>2026-06-16T09:16:54.000Z</time>
      </trkpt>
      <trkpt lat="48.67694" lon="1.95219">
        <ele>120.80000305176</ele>
        <time>2026-06-16T09:16:56.000Z</time>
      </trkpt>
      <trkpt lat="48.67682" lon="1.95246">
        <ele>120.80000305176</ele>
        <time>2026-06-16T09:16:59.000Z</time>
      </trkpt>
      <trkpt lat="48.67679" lon="1.95255">
        <ele>120.80000305176</ele>
        <time>2026-06-16T09:17:00.000Z</time>
      </trkpt>
      <trkpt lat="48.67659" lon="1.95305">
        <ele>120.19999694824</ele>
        <time>2026-06-16T09:17:05.000Z</time>
      </trkpt>
      <trkpt lat="48.67653" lon="1.95325">
        <ele>120</ele>
        <time>2026-06-16T09:17:07.000Z</time>
      </trkpt>
      <trkpt lat="48.67643" lon="1.95346">
        <ele>119.59999847412</ele>
        <time>2026-06-16T09:17:09.000Z</time>
      </trkpt>
      <trkpt lat="48.67636" lon="1.9537">
        <ele>119.40000152588</ele>
        <time>2026-06-16T09:17:11.000Z</time>
      </trkpt>
      <trkpt lat="48.67634" lon="1.95392">
        <ele>119.19999694824</ele>
        <time>2026-06-16T09:17:13.000Z</time>
      </trkpt>
      <trkpt lat="48.67632" lon="1.95451">
        <ele>119.19999694824</ele>
        <time>2026-06-16T09:17:19.000Z</time>
      </trkpt>
      <trkpt lat="48.67614" lon="1.95484">
        <ele>119.59999847412</ele>
        <time>2026-06-16T09:17:23.000Z</time>
      </trkpt>
      <trkpt lat="48.6761" lon="1.95492">
        <ele>119.59999847412</ele>
        <time>2026-06-16T09:17:24.000Z</time>
      </trkpt>
      <trkpt lat="48.67597" lon="1.95511">
        <ele>120</ele>
        <time>2026-06-16T09:17:27.000Z</time>
      </trkpt>
      <trkpt lat="48.67582" lon="1.95527">
        <ele>120.40000152588</ele>
        <time>2026-06-16T09:17:30.000Z</time>
      </trkpt>
      <trkpt lat="48.67558" lon="1.95553">
        <ele>120.80000305176</ele>
        <time>2026-06-16T09:17:35.000Z</time>
      </trkpt>
      <trkpt lat="48.67544" lon="1.95568">
        <ele>120.80000305176</ele>
        <time>2026-06-16T09:17:38.000Z</time>
      </trkpt>
      <trkpt lat="48.67533" lon="1.95575">
        <ele>120.80000305176</ele>
        <time>2026-06-16T09:17:40.000Z</time>
      </trkpt>
      <trkpt lat="48.67529" lon="1.95579">
        <ele>120.59999847412</ele>
        <time>2026-06-16T09:17:41.000Z</time>
      </trkpt>
      <trkpt lat="48.6752" lon="1.95583">
        <ele>120.40000152588</ele>
        <time>2026-06-16T09:17:43.000Z</time>
      </trkpt>
      <trkpt lat="48.67513" lon="1.95583">
        <ele>120.19999694824</ele>
        <time>2026-06-16T09:17:44.000Z</time>
      </trkpt>
      <trkpt lat="48.67493" lon="1.95578">
        <ele>119.59999847412</ele>
        <time>2026-06-16T09:17:47.000Z</time>
      </trkpt>
      <trkpt lat="48.6748" lon="1.95578">
        <ele>119.19999694824</ele>
        <time>2026-06-16T09:17:49.000Z</time>
      </trkpt>
      <trkpt lat="48.67463" lon="1.9558">
        <ele>119</ele>
        <time>2026-06-16T09:17:51.000Z</time>
      </trkpt>
      <trkpt lat="48.67444" lon="1.95589">
        <ele>119</ele>
        <time>2026-06-16T09:17:53.000Z</time>
      </trkpt>
      <trkpt lat="48.67428" lon="1.956">
        <ele>118.80000305176</ele>
        <time>2026-06-16T09:17:55.000Z</time>
      </trkpt>
      <trkpt lat="48.6742" lon="1.95613">
        <ele>118.59999847412</ele>
        <time>2026-06-16T09:17:57.000Z</time>
      </trkpt>
      <trkpt lat="48.6741" lon="1.95632">
        <ele>118.59999847412</ele>
        <time>2026-06-16T09:17:59.000Z</time>
      </trkpt>
      <trkpt lat="48.67408" lon="1.95649">
        <ele>118.59999847412</ele>
        <time>2026-06-16T09:18:01.000Z</time>
      </trkpt>
      <trkpt lat="48.67409" lon="1.95659">
        <ele>118.59999847412</ele>
        <time>2026-06-16T09:18:02.000Z</time>
      </trkpt>
      <trkpt lat="48.67418" lon="1.957">
        <ele>118.59999847412</ele>
        <time>2026-06-16T09:18:06.000Z</time>
      </trkpt>
      <trkpt lat="48.67425" lon="1.95719">
        <ele>118.59999847412</ele>
        <time>2026-06-16T09:18:08.000Z</time>
      </trkpt>
      <trkpt lat="48.67432" lon="1.95759">
        <ele>118.80000305176</ele>
        <time>2026-06-16T09:18:12.000Z</time>
      </trkpt>
      <trkpt lat="48.67433" lon="1.95766">
        <ele>119</ele>
        <time>2026-06-16T09:18:13.000Z</time>
      </trkpt>
      <trkpt lat="48.67437" lon="1.95782">
        <ele>119.19999694824</ele>
        <time>2026-06-16T09:18:17.000Z</time>
      </trkpt>
      <trkpt lat="48.67438" lon="1.9579">
        <ele>119.59999847412</ele>
        <time>2026-06-16T09:18:22.000Z</time>
      </trkpt>
      <trkpt lat="48.67437" lon="1.95792">
        <ele>119.80000305176</ele>
        <time>2026-06-16T09:18:23.000Z</time>
      </trkpt>
      <trkpt lat="48.67437" lon="1.9581">
        <ele>119.80000305176</ele>
        <time>2026-06-16T09:18:27.000Z</time>
      </trkpt>
      <trkpt lat="48.6744" lon="1.95843">
        <ele>120</ele>
        <time>2026-06-16T09:18:32.000Z</time>
      </trkpt>
      <trkpt lat="48.67438" lon="1.95869">
        <ele>120.19999694824</ele>
        <time>2026-06-16T09:18:35.000Z</time>
      </trkpt>
      <trkpt lat="48.67438" lon="1.95877">
        <ele>120.19999694824</ele>
        <time>2026-06-16T09:18:36.000Z</time>
      </trkpt>
      <trkpt lat="48.67438" lon="1.95885">
        <ele>120.19999694824</ele>
        <time>2026-06-16T09:18:37.000Z</time>
      </trkpt>
      <trkpt lat="48.6743" lon="1.95912">
        <ele>120.40000152588</ele>
        <time>2026-06-16T09:18:40.000Z</time>
      </trkpt>
      <trkpt lat="48.67428" lon="1.95948">
        <ele>120</ele>
        <time>2026-06-16T09:18:44.000Z</time>
      </trkpt>
      <trkpt lat="48.6742" lon="1.96005">
        <ele>118.80000305176</ele>
        <time>2026-06-16T09:18:49.000Z</time>
      </trkpt>
      <trkpt lat="48.67418" lon="1.96016">
        <ele>118.59999847412</ele>
        <time>2026-06-16T09:18:50.000Z</time>
      </trkpt>
      <trkpt lat="48.67413" lon="1.96045">
        <ele>117.80000305176</ele>
        <time>2026-06-16T09:18:53.000Z</time>
      </trkpt>
      <trkpt lat="48.6741" lon="1.96064">
        <ele>117.40000152588</ele>
        <time>2026-06-16T09:18:55.000Z</time>
      </trkpt>
      <trkpt lat="48.6741" lon="1.96072">
        <ele>117.19999694824</ele>
        <time>2026-06-16T09:18:56.000Z</time>
      </trkpt>
      <trkpt lat="48.67411" lon="1.96079">
        <ele>117.19999694824</ele>
        <time>2026-06-16T09:18:57.000Z</time>
      </trkpt>
      <trkpt lat="48.67414" lon="1.96092">
        <ele>117.19999694824</ele>
        <time>2026-06-16T09:18:59.000Z</time>
      </trkpt>
      <trkpt lat="48.67413" lon="1.96121">
        <ele>117.40000152588</ele>
        <time>2026-06-16T09:19:03.000Z</time>
      </trkpt>
      <trkpt lat="48.67412" lon="1.96129">
        <ele>117.40000152588</ele>
        <time>2026-06-16T09:19:04.000Z</time>
      </trkpt>
      <trkpt lat="48.67411" lon="1.96136">
        <ele>117.40000152588</ele>
        <time>2026-06-16T09:19:05.000Z</time>
      </trkpt>
      <trkpt lat="48.67408" lon="1.96152">
        <ele>117.59999847412</ele>
        <time>2026-06-16T09:19:08.000Z</time>
      </trkpt>
      <trkpt lat="48.67406" lon="1.96156">
        <ele>117.80000305176</ele>
        <time>2026-06-16T09:19:11.000Z</time>
      </trkpt>
      <trkpt lat="48.67407" lon="1.96162">
        <ele>118.40000152588</ele>
        <time>2026-06-16T09:19:19.000Z</time>
      </trkpt>
      <trkpt lat="48.67409" lon="1.96163">
        <ele>118.40000152588</ele>
        <time>2026-06-16T09:19:20.000Z</time>
      </trkpt>
      <trkpt lat="48.67421" lon="1.96174">
        <ele>118.40000152588</ele>
        <time>2026-06-16T09:19:25.000Z</time>
      </trkpt>
      <trkpt lat="48.67444" lon="1.96188">
        <ele>118</ele>
        <time>2026-06-16T09:19:31.000Z</time>
      </trkpt>
      <trkpt lat="48.6746" lon="1.96197">
        <ele>118</ele>
        <time>2026-06-16T09:19:35.000Z</time>
      </trkpt>
      <trkpt lat="48.67469" lon="1.96202">
        <ele>118</ele>
        <time>2026-06-16T09:19:37.000Z</time>
      </trkpt>
      <trkpt lat="48.67479" lon="1.96208">
        <ele>118</ele>
        <time>2026-06-16T09:19:39.000Z</time>
      </trkpt>
      <trkpt lat="48.67495" lon="1.96216">
        <ele>118</ele>
        <time>2026-06-16T09:19:42.000Z</time>
      </trkpt>
      <trkpt lat="48.675" lon="1.96218">
        <ele>118</ele>
        <time>2026-06-16T09:19:43.000Z</time>
      </trkpt>
      <trkpt lat="48.67509" lon="1.96224">
        <ele>118</ele>
        <time>2026-06-16T09:19:45.000Z</time>
      </trkpt>
      <trkpt lat="48.67518" lon="1.96232">
        <ele>118</ele>
        <time>2026-06-16T09:19:47.000Z</time>
      </trkpt>
      <trkpt lat="48.67527" lon="1.96242">
        <ele>118</ele>
        <time>2026-06-16T09:19:49.000Z</time>
      </trkpt>
      <trkpt lat="48.67541" lon="1.96265">
        <ele>118</ele>
        <time>2026-06-16T09:19:53.000Z</time>
      </trkpt>
      <trkpt lat="48.67562" lon="1.96308">
        <ele>118.19999694824</ele>
        <time>2026-06-16T09:19:58.000Z</time>
      </trkpt>
      <trkpt lat="48.67565" lon="1.96318">
        <ele>118.19999694824</ele>
        <time>2026-06-16T09:19:59.000Z</time>
      </trkpt>
      <trkpt lat="48.67581" lon="1.96362">
        <ele>118.19999694824</ele>
        <time>2026-06-16T09:20:03.000Z</time>
      </trkpt>
      <trkpt lat="48.6759" lon="1.96385">
        <ele>117.80000305176</ele>
        <time>2026-06-16T09:20:05.000Z</time>
      </trkpt>
      <trkpt lat="48.676" lon="1.96406">
        <ele>117.40000152588</ele>
        <time>2026-06-16T09:20:07.000Z</time>
      </trkpt>
      <trkpt lat="48.67613" lon="1.96425">
        <ele>116.59999847412</ele>
        <time>2026-06-16T09:20:09.000Z</time>
      </trkpt>
      <trkpt lat="48.67622" lon="1.96433">
        <ele>116.40000152588</ele>
        <time>2026-06-16T09:20:10.000Z</time>
      </trkpt>
      <trkpt lat="48.67632" lon="1.96441">
        <ele>115.59999847412</ele>
        <time>2026-06-16T09:20:11.000Z</time>
      </trkpt>
      <trkpt lat="48.67662" lon="1.96459">
        <ele>114.40000152588</ele>
        <time>2026-06-16T09:20:14.000Z</time>
      </trkpt>
      <trkpt lat="48.67672" lon="1.96463">
        <ele>114.19999694824</ele>
        <time>2026-06-16T09:20:15.000Z</time>
      </trkpt>
      <trkpt lat="48.67682" lon="1.96465">
        <ele>113.40000152588</ele>
        <time>2026-06-16T09:20:16.000Z</time>
      </trkpt>
      <trkpt lat="48.677" lon="1.96469">
        <ele>112.19999694824</ele>
        <time>2026-06-16T09:20:18.000Z</time>
      </trkpt>
      <trkpt lat="48.67721" lon="1.96474">
        <ele>111.40000152588</ele>
        <time>2026-06-16T09:20:20.000Z</time>
      </trkpt>
      <trkpt lat="48.6773" lon="1.96481">
        <ele>110.80000305176</ele>
        <time>2026-06-16T09:20:21.000Z</time>
      </trkpt>
      <trkpt lat="48.67748" lon="1.96494">
        <ele>109.40000152588</ele>
        <time>2026-06-16T09:20:23.000Z</time>
      </trkpt>
      <trkpt lat="48.67762" lon="1.96505">
        <ele>109.19999694824</ele>
        <time>2026-06-16T09:20:25.000Z</time>
      </trkpt>
      <trkpt lat="48.67768" lon="1.9651">
        <ele>109.19999694824</ele>
        <time>2026-06-16T09:20:26.000Z</time>
      </trkpt>
      <trkpt lat="48.6778" lon="1.96521">
        <ele>109.19999694824</ele>
        <time>2026-06-16T09:20:28.000Z</time>
      </trkpt>
      <trkpt lat="48.67804" lon="1.96542">
        <ele>110</ele>
        <time>2026-06-16T09:20:33.000Z</time>
      </trkpt>
      <trkpt lat="48.67814" lon="1.96548">
        <ele>111</ele>
        <time>2026-06-16T09:20:35.000Z</time>
      </trkpt>
      <trkpt lat="48.6783" lon="1.9656">
        <ele>112</ele>
        <time>2026-06-16T09:20:38.000Z</time>
      </trkpt>
      <trkpt lat="48.67836" lon="1.96564">
        <ele>112.40000152588</ele>
        <time>2026-06-16T09:20:39.000Z</time>
      </trkpt>
      <trkpt lat="48.67842" lon="1.96568">
        <ele>112.80000305176</ele>
        <time>2026-06-16T09:20:40.000Z</time>
      </trkpt>
      <trkpt lat="48.67876" lon="1.96592">
        <ele>113</ele>
        <time>2026-06-16T09:20:45.000Z</time>
      </trkpt>
      <trkpt lat="48.67894" lon="1.96602">
        <ele>112.80000305176</ele>
        <time>2026-06-16T09:20:47.000Z</time>
      </trkpt>
      <trkpt lat="48.67914" lon="1.96607">
        <ele>112</ele>
        <time>2026-06-16T09:20:49.000Z</time>
      </trkpt>
      <trkpt lat="48.67944" lon="1.96613">
        <ele>110.80000305176</ele>
        <time>2026-06-16T09:20:52.000Z</time>
      </trkpt>
      <trkpt lat="48.67974" lon="1.96618">
        <ele>109.80000305176</ele>
        <time>2026-06-16T09:20:55.000Z</time>
      </trkpt>
      <trkpt lat="48.68" lon="1.96619">
        <ele>108</ele>
        <time>2026-06-16T09:20:58.000Z</time>
      </trkpt>
      <trkpt lat="48.68017" lon="1.9662">
        <ele>106.80000305176</ele>
        <time>2026-06-16T09:21:00.000Z</time>
      </trkpt>
      <trkpt lat="48.68026" lon="1.96616">
        <ele>106.40000152588</ele>
        <time>2026-06-16T09:21:01.000Z</time>
      </trkpt>
      <trkpt lat="48.68047" lon="1.96605">
        <ele>105.80000305176</ele>
        <time>2026-06-16T09:21:03.000Z</time>
      </trkpt>
      <trkpt lat="48.68073" lon="1.96576">
        <ele>104.40000152588</ele>
        <time>2026-06-16T09:21:06.000Z</time>
      </trkpt>
      <trkpt lat="48.6808" lon="1.9655">
        <ele>103.59999847412</ele>
        <time>2026-06-16T09:21:08.000Z</time>
      </trkpt>
      <trkpt lat="48.68084" lon="1.96538">
        <ele>103.40000152588</ele>
        <time>2026-06-16T09:21:09.000Z</time>
      </trkpt>
      <trkpt lat="48.68089" lon="1.9653">
        <ele>103</ele>
        <time>2026-06-16T09:21:10.000Z</time>
      </trkpt>
      <trkpt lat="48.68096" lon="1.96523">
        <ele>102.40000152588</ele>
        <time>2026-06-16T09:21:11.000Z</time>
      </trkpt>
      <trkpt lat="48.68109" lon="1.96517">
        <ele>102</ele>
        <time>2026-06-16T09:21:13.000Z</time>
      </trkpt>
      <trkpt lat="48.68121" lon="1.9652">
        <ele>101.80000305176</ele>
        <time>2026-06-16T09:21:15.000Z</time>
      </trkpt>
      <trkpt lat="48.68136" lon="1.96525">
        <ele>101.80000305176</ele>
        <time>2026-06-16T09:21:18.000Z</time>
      </trkpt>
      <trkpt lat="48.68143" lon="1.9653">
        <ele>101.80000305176</ele>
        <time>2026-06-16T09:21:20.000Z</time>
      </trkpt>
      <trkpt lat="48.6815" lon="1.96533">
        <ele>102</ele>
        <time>2026-06-16T09:21:22.000Z</time>
      </trkpt>
      <trkpt lat="48.68154" lon="1.96533">
        <ele>102.19999694824</ele>
        <time>2026-06-16T09:21:23.000Z</time>
      </trkpt>
      <trkpt lat="48.68166" lon="1.96529">
        <ele>102.80000305176</ele>
        <time>2026-06-16T09:21:26.000Z</time>
      </trkpt>
      <trkpt lat="48.68171" lon="1.96528">
        <ele>103</ele>
        <time>2026-06-16T09:21:27.000Z</time>
      </trkpt>
      <trkpt lat="48.68181" lon="1.96528">
        <ele>103</ele>
        <time>2026-06-16T09:21:29.000Z</time>
      </trkpt>
      <trkpt lat="48.68189" lon="1.96532">
        <ele>103.19999694824</ele>
        <time>2026-06-16T09:21:31.000Z</time>
      </trkpt>
      <trkpt lat="48.68193" lon="1.96534">
        <ele>103.19999694824</ele>
        <time>2026-06-16T09:21:32.000Z</time>
      </trkpt>
      <trkpt lat="48.68196" lon="1.96538">
        <ele>103.19999694824</ele>
        <time>2026-06-16T09:21:33.000Z</time>
      </trkpt>
      <trkpt lat="48.68202" lon="1.96545">
        <ele>103.59999847412</ele>
        <time>2026-06-16T09:21:35.000Z</time>
      </trkpt>
      <trkpt lat="48.68206" lon="1.96548">
        <ele>103.40000152588</ele>
        <time>2026-06-16T09:21:36.000Z</time>
      </trkpt>
      <trkpt lat="48.68209" lon="1.96552">
        <ele>103.80000305176</ele>
        <time>2026-06-16T09:21:37.000Z</time>
      </trkpt>
      <trkpt lat="48.68217" lon="1.96559">
        <ele>104</ele>
        <time>2026-06-16T09:21:39.000Z</time>
      </trkpt>
      <trkpt lat="48.68225" lon="1.96563">
        <ele>104.19999694824</ele>
        <time>2026-06-16T09:21:41.000Z</time>
      </trkpt>
      <trkpt lat="48.68229" lon="1.96565">
        <ele>104.40000152588</ele>
        <time>2026-06-16T09:21:42.000Z</time>
      </trkpt>
      <trkpt lat="48.68258" lon="1.96577">
        <ele>104.80000305176</ele>
        <time>2026-06-16T09:21:49.000Z</time>
      </trkpt>
      <trkpt lat="48.68266" lon="1.96588">
        <ele>104.80000305176</ele>
        <time>2026-06-16T09:21:51.000Z</time>
      </trkpt>
      <trkpt lat="48.68273" lon="1.96604">
        <ele>104.80000305176</ele>
        <time>2026-06-16T09:21:53.000Z</time>
      </trkpt>
      <trkpt lat="48.68276" lon="1.96612">
        <ele>104.80000305176</ele>
        <time>2026-06-16T09:21:54.000Z</time>
      </trkpt>
      <trkpt lat="48.68278" lon="1.96621">
        <ele>104.80000305176</ele>
        <time>2026-06-16T09:21:55.000Z</time>
      </trkpt>
      <trkpt lat="48.6828" lon="1.96647">
        <ele>104.59999847412</ele>
        <time>2026-06-16T09:21:58.000Z</time>
      </trkpt>
      <trkpt lat="48.6828" lon="1.96664">
        <ele>104.40000152588</ele>
        <time>2026-06-16T09:22:00.000Z</time>
      </trkpt>
      <trkpt lat="48.6828" lon="1.96691">
        <ele>103.80000305176</ele>
        <time>2026-06-16T09:22:03.000Z</time>
      </trkpt>
      <trkpt lat="48.68287" lon="1.96725">
        <ele>103.59999847412</ele>
        <time>2026-06-16T09:22:07.000Z</time>
      </trkpt>
      <trkpt lat="48.68289" lon="1.96732">
        <ele>103.40000152588</ele>
        <time>2026-06-16T09:22:08.000Z</time>
      </trkpt>
      <trkpt lat="48.68297" lon="1.96757">
        <ele>103.19999694824</ele>
        <time>2026-06-16T09:22:11.000Z</time>
      </trkpt>
      <trkpt lat="48.68308" lon="1.96771">
        <ele>103.19999694824</ele>
        <time>2026-06-16T09:22:13.000Z</time>
      </trkpt>
      <trkpt lat="48.68313" lon="1.96779">
        <ele>103.19999694824</ele>
        <time>2026-06-16T09:22:14.000Z</time>
      </trkpt>
      <trkpt lat="48.68317" lon="1.968">
        <ele>103</ele>
        <time>2026-06-16T09:22:16.000Z</time>
      </trkpt>
      <trkpt lat="48.68319" lon="1.96811">
        <ele>103</ele>
        <time>2026-06-16T09:22:17.000Z</time>
      </trkpt>
      <trkpt lat="48.68326" lon="1.96847">
        <ele>102.80000305176</ele>
        <time>2026-06-16T09:22:21.000Z</time>
      </trkpt>
      <trkpt lat="48.6833" lon="1.96855">
        <ele>102.80000305176</ele>
        <time>2026-06-16T09:22:22.000Z</time>
      </trkpt>
      <trkpt lat="48.68344" lon="1.96913">
        <ele>102.59999847412</ele>
        <time>2026-06-16T09:22:27.000Z</time>
      </trkpt>
      <trkpt lat="48.68349" lon="1.96908">
        <ele>102.59999847412</ele>
        <time>2026-06-16T09:22:28.000Z</time>
      </trkpt>
      <trkpt lat="48.68355" lon="1.96909">
        <ele>102.40000152588</ele>
        <time>2026-06-16T09:22:30.000Z</time>
      </trkpt>
      <trkpt lat="48.68358" lon="1.9692">
        <ele>102.19999694824</ele>
        <time>2026-06-16T09:22:31.000Z</time>
      </trkpt>
      <trkpt lat="48.68377" lon="1.9697">
        <ele>101.19999694824</ele>
        <time>2026-06-16T09:22:36.000Z</time>
      </trkpt>
      <trkpt lat="48.68388" lon="1.96987">
        <ele>101</ele>
        <time>2026-06-16T09:22:38.000Z</time>
      </trkpt>
      <trkpt lat="48.684" lon="1.96999">
        <ele>100.59999847412</ele>
        <time>2026-06-16T09:22:40.000Z</time>
      </trkpt>
      <trkpt lat="48.68406" lon="1.97004">
        <ele>100.40000152588</ele>
        <time>2026-06-16T09:22:41.000Z</time>
      </trkpt>
      <trkpt lat="48.68412" lon="1.97008">
        <ele>100.19999694824</ele>
        <time>2026-06-16T09:22:42.000Z</time>
      </trkpt>
      <trkpt lat="48.68425" lon="1.97015">
        <ele>100</ele>
        <time>2026-06-16T09:22:44.000Z</time>
      </trkpt>
      <trkpt lat="48.68472" lon="1.97038">
        <ele>100</ele>
        <time>2026-06-16T09:22:52.000Z</time>
      </trkpt>
      <trkpt lat="48.68525" lon="1.9706">
        <ele>100.80000305176</ele>
        <time>2026-06-16T09:23:01.000Z</time>
      </trkpt>
      <trkpt lat="48.68531" lon="1.97062">
        <ele>100.80000305176</ele>
        <time>2026-06-16T09:23:02.000Z</time>
      </trkpt>
      <trkpt lat="48.68549" lon="1.97069">
        <ele>101.19999694824</ele>
        <time>2026-06-16T09:23:05.000Z</time>
      </trkpt>
      <trkpt lat="48.68579" lon="1.97081">
        <ele>102</ele>
        <time>2026-06-16T09:23:10.000Z</time>
      </trkpt>
      <trkpt lat="48.68597" lon="1.97089">
        <ele>102.59999847412</ele>
        <time>2026-06-16T09:23:13.000Z</time>
      </trkpt>
      <trkpt lat="48.68631" lon="1.97102">
        <ele>103</ele>
        <time>2026-06-16T09:23:19.000Z</time>
      </trkpt>
      <trkpt lat="48.68664" lon="1.97114">
        <ele>103.40000152588</ele>
        <time>2026-06-16T09:23:25.000Z</time>
      </trkpt>
      <trkpt lat="48.68669" lon="1.97118">
        <ele>103.59999847412</ele>
        <time>2026-06-16T09:23:26.000Z</time>
      </trkpt>
      <trkpt lat="48.68705" lon="1.97152">
        <ele>103.80000305176</ele>
        <time>2026-06-16T09:23:33.000Z</time>
      </trkpt>
      <trkpt lat="48.68718" lon="1.97168">
        <ele>104</ele>
        <time>2026-06-16T09:23:36.000Z</time>
      </trkpt>
      <trkpt lat="48.68727" lon="1.97178">
        <ele>104.19999694824</ele>
        <time>2026-06-16T09:23:38.000Z</time>
      </trkpt>
      <trkpt lat="48.68736" lon="1.97188">
        <ele>104.59999847412</ele>
        <time>2026-06-16T09:23:40.000Z</time>
      </trkpt>
      <trkpt lat="48.6874" lon="1.97192">
        <ele>104.80000305176</ele>
        <time>2026-06-16T09:23:41.000Z</time>
      </trkpt>
      <trkpt lat="48.68744" lon="1.97196">
        <ele>105</ele>
        <time>2026-06-16T09:23:42.000Z</time>
      </trkpt>
      <trkpt lat="48.68762" lon="1.97209">
        <ele>105.80000305176</ele>
        <time>2026-06-16T09:23:45.000Z</time>
      </trkpt>
      <trkpt lat="48.68769" lon="1.9722">
        <ele>106.40000152588</ele>
        <time>2026-06-16T09:23:47.000Z</time>
      </trkpt>
      <trkpt lat="48.68774" lon="1.97224">
        <ele>106.59999847412</ele>
        <time>2026-06-16T09:23:48.000Z</time>
      </trkpt>
      <trkpt lat="48.68783" lon="1.97233">
        <ele>107</ele>
        <time>2026-06-16T09:23:50.000Z</time>
      </trkpt>
      <trkpt lat="48.68798" lon="1.97245">
        <ele>107.59999847412</ele>
        <time>2026-06-16T09:23:53.000Z</time>
      </trkpt>
      <trkpt lat="48.68803" lon="1.97248">
        <ele>108</ele>
        <time>2026-06-16T09:23:54.000Z</time>
      </trkpt>
      <trkpt lat="48.68835" lon="1.97265">
        <ele>109</ele>
        <time>2026-06-16T09:24:00.000Z</time>
      </trkpt>
      <trkpt lat="48.6884" lon="1.97269">
        <ele>109.19999694824</ele>
        <time>2026-06-16T09:24:01.000Z</time>
      </trkpt>
      <trkpt lat="48.68874" lon="1.97297">
        <ele>109.80000305176</ele>
        <time>2026-06-16T09:24:08.000Z</time>
      </trkpt>
      <trkpt lat="48.6892" lon="1.97332">
        <ele>110.19999694824</ele>
        <time>2026-06-16T09:24:17.000Z</time>
      </trkpt>
      <trkpt lat="48.68936" lon="1.97345">
        <ele>110</ele>
        <time>2026-06-16T09:24:20.000Z</time>
      </trkpt>
      <trkpt lat="48.68947" lon="1.97354">
        <ele>110</ele>
        <time>2026-06-16T09:24:22.000Z</time>
      </trkpt>
      <trkpt lat="48.68983" lon="1.97381">
        <ele>109.59999847412</ele>
        <time>2026-06-16T09:24:28.000Z</time>
      </trkpt>
      <trkpt lat="48.69017" lon="1.97406">
        <ele>108.80000305176</ele>
        <time>2026-06-16T09:24:33.000Z</time>
      </trkpt>
      <trkpt lat="48.69029" lon="1.97416">
        <ele>108.19999694824</ele>
        <time>2026-06-16T09:24:35.000Z</time>
      </trkpt>
      <trkpt lat="48.69047" lon="1.97431">
        <ele>107.59999847412</ele>
        <time>2026-06-16T09:24:38.000Z</time>
      </trkpt>
      <trkpt lat="48.69066" lon="1.97446">
        <ele>107.19999694824</ele>
        <time>2026-06-16T09:24:41.000Z</time>
      </trkpt>
      <trkpt lat="48.69072" lon="1.9745">
        <ele>107</ele>
        <time>2026-06-16T09:24:42.000Z</time>
      </trkpt>
      <trkpt lat="48.69079" lon="1.97453">
        <ele>106.80000305176</ele>
        <time>2026-06-16T09:24:43.000Z</time>
      </trkpt>
      <trkpt lat="48.69124" lon="1.97472">
        <ele>106</ele>
        <time>2026-06-16T09:24:50.000Z</time>
      </trkpt>
      <trkpt lat="48.69178" lon="1.97503">
        <ele>106.19999694824</ele>
        <time>2026-06-16T09:24:59.000Z</time>
      </trkpt>
      <trkpt lat="48.69232" lon="1.97535">
        <ele>106</ele>
        <time>2026-06-16T09:25:08.000Z</time>
      </trkpt>
      <trkpt lat="48.69238" lon="1.97538">
        <ele>106</ele>
        <time>2026-06-16T09:25:09.000Z</time>
      </trkpt>
      <trkpt lat="48.69288" lon="1.97566">
        <ele>105.59999847412</ele>
        <time>2026-06-16T09:25:17.000Z</time>
      </trkpt>
      <trkpt lat="48.69338" lon="1.97595">
        <ele>105.19999694824</ele>
        <time>2026-06-16T09:25:25.000Z</time>
      </trkpt>
      <trkpt lat="48.69392" lon="1.97626">
        <ele>105.40000152588</ele>
        <time>2026-06-16T09:25:34.000Z</time>
      </trkpt>
      <trkpt lat="48.69398" lon="1.97629">
        <ele>105.40000152588</ele>
        <time>2026-06-16T09:25:35.000Z</time>
      </trkpt>
      <trkpt lat="48.69424" lon="1.97646">
        <ele>105.40000152588</ele>
        <time>2026-06-16T09:25:40.000Z</time>
      </trkpt>
      <trkpt lat="48.69429" lon="1.97649">
        <ele>105.40000152588</ele>
        <time>2026-06-16T09:25:41.000Z</time>
      </trkpt>
      <trkpt lat="48.69443" lon="1.97657">
        <ele>105.40000152588</ele>
        <time>2026-06-16T09:25:44.000Z</time>
      </trkpt>
      <trkpt lat="48.69452" lon="1.97662">
        <ele>105.59999847412</ele>
        <time>2026-06-16T09:25:46.000Z</time>
      </trkpt>
      <trkpt lat="48.69472" lon="1.97676">
        <ele>105.80000305176</ele>
        <time>2026-06-16T09:25:51.000Z</time>
      </trkpt>
      <trkpt lat="48.69519" lon="1.9771">
        <ele>105.59999847412</ele>
        <time>2026-06-16T09:26:01.000Z</time>
      </trkpt>
      <trkpt lat="48.69572" lon="1.97744">
        <ele>106</ele>
        <time>2026-06-16T09:26:11.000Z</time>
      </trkpt>
      <trkpt lat="48.69613" lon="1.97772">
        <ele>106.19999694824</ele>
        <time>2026-06-16T09:26:19.000Z</time>
      </trkpt>
      <trkpt lat="48.69644" lon="1.97792">
        <ele>106.19999694824</ele>
        <time>2026-06-16T09:26:25.000Z</time>
      </trkpt>
      <trkpt lat="48.69695" lon="1.97828">
        <ele>106</ele>
        <time>2026-06-16T09:26:34.000Z</time>
      </trkpt>
      <trkpt lat="48.69707" lon="1.97837">
        <ele>105.80000305176</ele>
        <time>2026-06-16T09:26:36.000Z</time>
      </trkpt>
      <trkpt lat="48.69745" lon="1.97865">
        <ele>105</ele>
        <time>2026-06-16T09:26:42.000Z</time>
      </trkpt>
      <trkpt lat="48.69758" lon="1.97874">
        <ele>104.59999847412</ele>
        <time>2026-06-16T09:26:44.000Z</time>
      </trkpt>
      <trkpt lat="48.69778" lon="1.97887">
        <ele>104</ele>
        <time>2026-06-16T09:26:47.000Z</time>
      </trkpt>
      <trkpt lat="48.69815" lon="1.9791">
        <ele>103.40000152588</ele>
        <time>2026-06-16T09:26:52.000Z</time>
      </trkpt>
      <trkpt lat="48.6983" lon="1.97918">
        <ele>102.80000305176</ele>
        <time>2026-06-16T09:26:54.000Z</time>
      </trkpt>
      <trkpt lat="48.69867" lon="1.97944">
        <ele>102</ele>
        <time>2026-06-16T09:26:59.000Z</time>
      </trkpt>
      <trkpt lat="48.69905" lon="1.97969">
        <ele>100.80000305176</ele>
        <time>2026-06-16T09:27:04.000Z</time>
      </trkpt>
      <trkpt lat="48.69929" lon="1.97986">
        <ele>100</ele>
        <time>2026-06-16T09:27:07.000Z</time>
      </trkpt>
      <trkpt lat="48.69936" lon="1.97992">
        <ele>99.400001525879</ele>
        <time>2026-06-16T09:27:08.000Z</time>
      </trkpt>
      <trkpt lat="48.69978" lon="1.98019">
        <ele>98.599998474121</ele>
        <time>2026-06-16T09:27:13.000Z</time>
      </trkpt>
      <trkpt lat="48.69986" lon="1.98024">
        <ele>98</ele>
        <time>2026-06-16T09:27:14.000Z</time>
      </trkpt>
      <trkpt lat="48.70009" lon="1.98037">
        <ele>97</ele>
        <time>2026-06-16T09:27:17.000Z</time>
      </trkpt>
      <trkpt lat="48.70025" lon="1.98048">
        <ele>96</ele>
        <time>2026-06-16T09:27:19.000Z</time>
      </trkpt>
      <trkpt lat="48.70033" lon="1.98054">
        <ele>95.599998474121</ele>
        <time>2026-06-16T09:27:20.000Z</time>
      </trkpt>
      <trkpt lat="48.70049" lon="1.98064">
        <ele>94.800003051758</ele>
        <time>2026-06-16T09:27:22.000Z</time>
      </trkpt>
      <trkpt lat="48.70073" lon="1.9808">
        <ele>93.800003051758</ele>
        <time>2026-06-16T09:27:25.000Z</time>
      </trkpt>
      <trkpt lat="48.70114" lon="1.98106">
        <ele>92.800003051758</ele>
        <time>2026-06-16T09:27:30.000Z</time>
      </trkpt>
      <trkpt lat="48.70121" lon="1.98112">
        <ele>92.599998474121</ele>
        <time>2026-06-16T09:27:31.000Z</time>
      </trkpt>
      <trkpt lat="48.70149" lon="1.98133">
        <ele>92.199996948242</ele>
        <time>2026-06-16T09:27:35.000Z</time>
      </trkpt>
      <trkpt lat="48.70176" lon="1.98156">
        <ele>92.199996948242</ele>
        <time>2026-06-16T09:27:40.000Z</time>
      </trkpt>
      <trkpt lat="48.70203" lon="1.98188">
        <ele>92.599998474121</ele>
        <time>2026-06-16T09:27:46.000Z</time>
      </trkpt>
      <trkpt lat="48.7023" lon="1.98233">
        <ele>93.800003051758</ele>
        <time>2026-06-16T09:27:53.000Z</time>
      </trkpt>
      <trkpt lat="48.70271" lon="1.98301">
        <ele>93.800003051758</ele>
        <time>2026-06-16T09:28:03.000Z</time>
      </trkpt>
      <trkpt lat="48.70296" lon="1.98342">
        <ele>93.199996948242</ele>
        <time>2026-06-16T09:28:09.000Z</time>
      </trkpt>
      <trkpt lat="48.70321" lon="1.98379">
        <ele>92.800003051758</ele>
        <time>2026-06-16T09:28:14.000Z</time>
      </trkpt>
      <trkpt lat="48.70332" lon="1.98394">
        <ele>92.599998474121</ele>
        <time>2026-06-16T09:28:16.000Z</time>
      </trkpt>
      <trkpt lat="48.70356" lon="1.98419">
        <ele>92.199996948242</ele>
        <time>2026-06-16T09:28:20.000Z</time>
      </trkpt>
      <trkpt lat="48.70373" lon="1.98434">
        <ele>91.800003051758</ele>
        <time>2026-06-16T09:28:23.000Z</time>
      </trkpt>
      <trkpt lat="48.70397" lon="1.98452">
        <ele>91.400001525879</ele>
        <time>2026-06-16T09:28:27.000Z</time>
      </trkpt>
      <trkpt lat="48.70421" lon="1.98477">
        <ele>91.400001525879</ele>
        <time>2026-06-16T09:28:32.000Z</time>
      </trkpt>
      <trkpt lat="48.70442" lon="1.98515">
        <ele>92</ele>
        <time>2026-06-16T09:28:38.000Z</time>
      </trkpt>
      <trkpt lat="48.70445" lon="1.98521">
        <ele>92</ele>
        <time>2026-06-16T09:28:39.000Z</time>
      </trkpt>
      <trkpt lat="48.70453" lon="1.98539">
        <ele>93</ele>
        <time>2026-06-16T09:28:42.000Z</time>
      </trkpt>
      <trkpt lat="48.70455" lon="1.98545">
        <ele>93.400001525879</ele>
        <time>2026-06-16T09:28:43.000Z</time>
      </trkpt>
      <trkpt lat="48.70463" lon="1.98567">
        <ele>94.199996948242</ele>
        <time>2026-06-16T09:28:47.000Z</time>
      </trkpt>
      <trkpt lat="48.70465" lon="1.98572">
        <ele>94.400001525879</ele>
        <time>2026-06-16T09:28:48.000Z</time>
      </trkpt>
      <trkpt lat="48.70476" lon="1.98585">
        <ele>95.400001525879</ele>
        <time>2026-06-16T09:28:52.000Z</time>
      </trkpt>
      <trkpt lat="48.70479" lon="1.98586">
        <ele>95.400001525879</ele>
        <time>2026-06-16T09:28:53.000Z</time>
      </trkpt>
      <trkpt lat="48.70489" lon="1.98595">
        <ele>96</ele>
        <time>2026-06-16T09:28:57.000Z</time>
      </trkpt>
      <trkpt lat="48.70495" lon="1.98599">
        <ele>96.400001525879</ele>
        <time>2026-06-16T09:29:01.000Z</time>
      </trkpt>
      <trkpt lat="48.70496" lon="1.98599">
        <ele>96.400001525879</ele>
        <time>2026-06-16T09:29:06.000Z</time>
      </trkpt>
      <trkpt lat="48.70496" lon="1.98599">
        <ele>96.199996948242</ele>
        <time>2026-06-16T09:29:20.000Z</time>
      </trkpt>
      <trkpt lat="48.70497" lon="1.98599">
        <ele>96.199996948242</ele>
        <time>2026-06-16T09:29:27.000Z</time>
      </trkpt>
      <trkpt lat="48.70501" lon="1.98601">
        <ele>96.199996948242</ele>
        <time>2026-06-16T09:29:29.000Z</time>
      </trkpt>
      <trkpt lat="48.70511" lon="1.98612">
        <ele>96</ele>
        <time>2026-06-16T09:29:35.000Z</time>
      </trkpt>
      <trkpt lat="48.70517" lon="1.98615">
        <ele>95.800003051758</ele>
        <time>2026-06-16T09:29:40.000Z</time>
      </trkpt>
      <trkpt lat="48.70517" lon="1.98615">
        <ele>95.199996948242</ele>
        <time>2026-06-16T09:29:54.000Z</time>
      </trkpt>
      <trkpt lat="48.70517" lon="1.98615">
        <ele>95.199996948242</ele>
        <time>2026-06-16T09:30:05.000Z</time>
      </trkpt>
      <trkpt lat="48.70516" lon="1.98614">
        <ele>95.199996948242</ele>
        <time>2026-06-16T09:30:06.000Z</time>
      </trkpt>
      <trkpt lat="48.70509" lon="1.98604">
        <ele>95.599998474121</ele>
        <time>2026-06-16T09:30:15.000Z</time>
      </trkpt>
      <trkpt lat="48.70508" lon="1.98604">
        <ele>95.599998474121</ele>
        <time>2026-06-16T09:30:21.000Z</time>
      </trkpt>
      <trkpt lat="48.70506" lon="1.98604">
        <ele>95.800003051758</ele>
        <time>2026-06-16T09:30:29.000Z</time>
      </trkpt>
      <trkpt lat="48.70584" lon="1.9867">
        <ele>88.800003051758</ele>
        <time>2026-06-16T10:15:21.000Z</time>
      </trkpt>
      <trkpt lat="48.70584" lon="1.98669">
        <ele>89.199996948242</ele>
        <time>2026-06-16T10:15:34.000Z</time>
      </trkpt>
      <trkpt lat="48.70584" lon="1.98669">
        <ele>89.599998474121</ele>
        <time>2026-06-16T10:15:58.000Z</time>
      </trkpt>
      <trkpt lat="48.70582" lon="1.98665">
        <ele>89.599998474121</ele>
        <time>2026-06-16T10:16:01.000Z</time>
      </trkpt>
      <trkpt lat="48.70575" lon="1.98655">
        <ele>89.599998474121</ele>
        <time>2026-06-16T10:16:08.000Z</time>
      </trkpt>
      <trkpt lat="48.70573" lon="1.98654">
        <ele>89.599998474121</ele>
        <time>2026-06-16T10:16:12.000Z</time>
      </trkpt>
      <trkpt lat="48.70574" lon="1.98655">
        <ele>89.800003051758</ele>
        <time>2026-06-16T10:16:17.000Z</time>
      </trkpt>
      <trkpt lat="48.70574" lon="1.98656">
        <ele>90.199996948242</ele>
        <time>2026-06-16T10:16:23.000Z</time>
      </trkpt>
      <trkpt lat="48.70574" lon="1.98656">
        <ele>90.199996948242</ele>
        <time>2026-06-16T10:16:30.000Z</time>
      </trkpt>
      <trkpt lat="48.70574" lon="1.98663">
        <ele>90.199996948242</ele>
        <time>2026-06-16T10:16:32.000Z</time>
      </trkpt>
      <trkpt lat="48.70575" lon="1.98667">
        <ele>90.199996948242</ele>
        <time>2026-06-16T10:16:33.000Z</time>
      </trkpt>
      <trkpt lat="48.70579" lon="1.98677">
        <ele>90.199996948242</ele>
        <time>2026-06-16T10:16:37.000Z</time>
      </trkpt>
      <trkpt lat="48.70579" lon="1.98677">
        <ele>90.199996948242</ele>
        <time>2026-06-16T10:16:38.000Z</time>
      </trkpt>
      <trkpt lat="48.70578" lon="1.98679">
        <ele>90</ele>
        <time>2026-06-16T10:16:45.000Z</time>
      </trkpt>
      <trkpt lat="48.70579" lon="1.98683">
        <ele>89.400001525879</ele>
        <time>2026-06-16T10:16:52.000Z</time>
      </trkpt>
      <trkpt lat="48.70578" lon="1.98684">
        <ele>89.199996948242</ele>
        <time>2026-06-16T10:16:57.000Z</time>
      </trkpt>
      <trkpt lat="48.70577" lon="1.98686">
        <ele>89</ele>
        <time>2026-06-16T10:17:03.000Z</time>
      </trkpt>
      <trkpt lat="48.70576" lon="1.98686">
        <ele>89</ele>
        <time>2026-06-16T10:17:14.000Z</time>
      </trkpt>
      <trkpt lat="48.70576" lon="1.98688">
        <ele>88.599998474121</ele>
        <time>2026-06-16T10:17:28.000Z</time>
      </trkpt>
      <trkpt lat="48.70577" lon="1.98689">
        <ele>88.800003051758</ele>
        <time>2026-06-16T10:17:33.000Z</time>
      </trkpt>
      <trkpt lat="48.70579" lon="1.98687">
        <ele>88.800003051758</ele>
        <time>2026-06-16T10:17:35.000Z</time>
      </trkpt>
      <trkpt lat="48.70581" lon="1.98687">
        <ele>89</ele>
        <time>2026-06-16T10:17:36.000Z</time>
      </trkpt>
      <trkpt lat="48.70582" lon="1.98688">
        <ele>89</ele>
        <time>2026-06-16T10:17:37.000Z</time>
      </trkpt>
      <trkpt lat="48.70589" lon="1.98698">
        <ele>89.400001525879</ele>
        <time>2026-06-16T10:17:44.000Z</time>
      </trkpt>
      <trkpt lat="48.70598" lon="1.98712">
        <ele>89.599998474121</ele>
        <time>2026-06-16T10:17:51.000Z</time>
      </trkpt>
      <trkpt lat="48.7061" lon="1.9873">
        <ele>90</ele>
        <time>2026-06-16T10:17:58.000Z</time>
      </trkpt>
      <trkpt lat="48.70622" lon="1.9875">
        <ele>90.400001525879</ele>
        <time>2026-06-16T10:18:04.000Z</time>
      </trkpt>
      <trkpt lat="48.70632" lon="1.98766">
        <ele>91</ele>
        <time>2026-06-16T10:18:10.000Z</time>
      </trkpt>
      <trkpt lat="48.70635" lon="1.9877">
        <ele>91.199996948242</ele>
        <time>2026-06-16T10:18:11.000Z</time>
      </trkpt>
      <trkpt lat="48.70643" lon="1.98773">
        <ele>91.599998474121</ele>
        <time>2026-06-16T10:18:15.000Z</time>
      </trkpt>
      <trkpt lat="48.70647" lon="1.98769">
        <ele>92</ele>
        <time>2026-06-16T10:18:17.000Z</time>
      </trkpt>
      <trkpt lat="48.70655" lon="1.98763">
        <ele>92.599998474121</ele>
        <time>2026-06-16T10:18:21.000Z</time>
      </trkpt>
      <trkpt lat="48.70658" lon="1.9876">
        <ele>93</ele>
        <time>2026-06-16T10:18:23.000Z</time>
      </trkpt>
      <trkpt lat="48.7067" lon="1.98751">
        <ele>94.199996948242</ele>
        <time>2026-06-16T10:18:30.000Z</time>
      </trkpt>
      <trkpt lat="48.70677" lon="1.98746">
        <ele>94.800003051758</ele>
        <time>2026-06-16T10:18:35.000Z</time>
      </trkpt>
      <trkpt lat="48.70678" lon="1.98745">
        <ele>94.800003051758</ele>
        <time>2026-06-16T10:18:36.000Z</time>
      </trkpt>
      <trkpt lat="48.70681" lon="1.98743">
        <ele>95.400001525879</ele>
        <time>2026-06-16T10:18:39.000Z</time>
      </trkpt>
      <trkpt lat="48.70685" lon="1.98742">
        <ele>95.599998474121</ele>
        <time>2026-06-16T10:18:41.000Z</time>
      </trkpt>
      <trkpt lat="48.70695" lon="1.98737">
        <ele>96.199996948242</ele>
        <time>2026-06-16T10:18:46.000Z</time>
      </trkpt>
      <trkpt lat="48.70696" lon="1.98735">
        <ele>96.400001525879</ele>
        <time>2026-06-16T10:18:47.000Z</time>
      </trkpt>
      <trkpt lat="48.70698" lon="1.98733">
        <ele>96.400001525879</ele>
        <time>2026-06-16T10:18:48.000Z</time>
      </trkpt>
      <trkpt lat="48.70707" lon="1.98728">
        <ele>97</ele>
        <time>2026-06-16T10:18:53.000Z</time>
      </trkpt>
      <trkpt lat="48.70716" lon="1.98733">
        <ele>97.400001525879</ele>
        <time>2026-06-16T10:18:56.000Z</time>
      </trkpt>
      <trkpt lat="48.70721" lon="1.98733">
        <ele>97.800003051758</ele>
        <time>2026-06-16T10:18:58.000Z</time>
      </trkpt>
      <trkpt lat="48.70733" lon="1.98728">
        <ele>98.599998474121</ele>
        <time>2026-06-16T10:19:03.000Z</time>
      </trkpt>
      <trkpt lat="48.70751" lon="1.98716">
        <ele>99.599998474121</ele>
        <time>2026-06-16T10:19:11.000Z</time>
      </trkpt>
      <trkpt lat="48.70753" lon="1.98714">
        <ele>99.800003051758</ele>
        <time>2026-06-16T10:19:12.000Z</time>
      </trkpt>
      <trkpt lat="48.70764" lon="1.98694">
        <ele>100.59999847412</ele>
        <time>2026-06-16T10:19:19.000Z</time>
      </trkpt>
      <trkpt lat="48.70768" lon="1.98689">
        <ele>100.80000305176</ele>
        <time>2026-06-16T10:19:21.000Z</time>
      </trkpt>
      <trkpt lat="48.70775" lon="1.98675">
        <ele>101.59999847412</ele>
        <time>2026-06-16T10:19:26.000Z</time>
      </trkpt>
      <trkpt lat="48.70781" lon="1.98665">
        <ele>102</ele>
        <time>2026-06-16T10:19:29.000Z</time>
      </trkpt>
      <trkpt lat="48.70788" lon="1.9865">
        <ele>102.80000305176</ele>
        <time>2026-06-16T10:19:34.000Z</time>
      </trkpt>
      <trkpt lat="48.70791" lon="1.98644">
        <ele>103</ele>
        <time>2026-06-16T10:19:36.000Z</time>
      </trkpt>
      <trkpt lat="48.70801" lon="1.98625">
        <ele>103.80000305176</ele>
        <time>2026-06-16T10:19:43.000Z</time>
      </trkpt>
      <trkpt lat="48.70806" lon="1.98616">
        <ele>104</ele>
        <time>2026-06-16T10:19:45.000Z</time>
      </trkpt>
      <trkpt lat="48.70821" lon="1.98579">
        <ele>104.19999694824</ele>
        <time>2026-06-16T10:19:53.000Z</time>
      </trkpt>
      <trkpt lat="48.70835" lon="1.98533">
        <ele>104.59999847412</ele>
        <time>2026-06-16T10:20:01.000Z</time>
      </trkpt>
      <trkpt lat="48.70836" lon="1.98527">
        <ele>104.59999847412</ele>
        <time>2026-06-16T10:20:02.000Z</time>
      </trkpt>
      <trkpt lat="48.70843" lon="1.98493">
        <ele>104.40000152588</ele>
        <time>2026-06-16T10:20:07.000Z</time>
      </trkpt>
      <trkpt lat="48.70855" lon="1.98442">
        <ele>104.19999694824</ele>
        <time>2026-06-16T10:20:14.000Z</time>
      </trkpt>
      <trkpt lat="48.70858" lon="1.98428">
        <ele>104.19999694824</ele>
        <time>2026-06-16T10:20:16.000Z</time>
      </trkpt>
      <trkpt lat="48.70865" lon="1.98402">
        <ele>104</ele>
        <time>2026-06-16T10:20:20.000Z</time>
      </trkpt>
      <trkpt lat="48.70883" lon="1.98353">
        <ele>104</ele>
        <time>2026-06-16T10:20:28.000Z</time>
      </trkpt>
      <trkpt lat="48.70898" lon="1.98311">
        <ele>103.59999847412</ele>
        <time>2026-06-16T10:20:35.000Z</time>
      </trkpt>
      <trkpt lat="48.70912" lon="1.98278">
        <ele>103.19999694824</ele>
        <time>2026-06-16T10:20:41.000Z</time>
      </trkpt>
      <trkpt lat="48.70923" lon="1.9825">
        <ele>103</ele>
        <time>2026-06-16T10:20:46.000Z</time>
      </trkpt>
      <trkpt lat="48.70933" lon="1.98226">
        <ele>103</ele>
        <time>2026-06-16T10:20:50.000Z</time>
      </trkpt>
      <trkpt lat="48.7095" lon="1.98182">
        <ele>102.59999847412</ele>
        <time>2026-06-16T10:20:57.000Z</time>
      </trkpt>
      <trkpt lat="48.70956" lon="1.98165">
        <ele>102.40000152588</ele>
        <time>2026-06-16T10:21:00.000Z</time>
      </trkpt>
      <trkpt lat="48.70965" lon="1.98145">
        <ele>102.40000152588</ele>
        <time>2026-06-16T10:21:05.000Z</time>
      </trkpt>
      <trkpt lat="48.70972" lon="1.98129">
        <ele>102.59999847412</ele>
        <time>2026-06-16T10:21:12.000Z</time>
      </trkpt>
      <trkpt lat="48.70974" lon="1.98123">
        <ele>102.59999847412</ele>
        <time>2026-06-16T10:21:18.000Z</time>
      </trkpt>
      <trkpt lat="48.70974" lon="1.98123">
        <ele>102.40000152588</ele>
        <time>2026-06-16T10:21:22.000Z</time>
      </trkpt>
      <trkpt lat="48.70974" lon="1.98123">
        <ele>101.59999847412</ele>
        <time>2026-06-16T10:21:37.000Z</time>
      </trkpt>
      <trkpt lat="48.70974" lon="1.98123">
        <ele>101.59999847412</ele>
        <time>2026-06-16T10:22:10.000Z</time>
      </trkpt>
      <trkpt lat="48.70974" lon="1.98123">
        <ele>101.40000152588</ele>
        <time>2026-06-16T10:22:15.000Z</time>
      </trkpt>
      <trkpt lat="48.70978" lon="1.98116">
        <ele>101</ele>
        <time>2026-06-16T10:22:26.000Z</time>
      </trkpt>
      <trkpt lat="48.70988" lon="1.98093">
        <ele>101</ele>
        <time>2026-06-16T10:22:32.000Z</time>
      </trkpt>
      <trkpt lat="48.70999" lon="1.98068">
        <ele>101.40000152588</ele>
        <time>2026-06-16T10:22:39.000Z</time>
      </trkpt>
      <trkpt lat="48.71011" lon="1.98041">
        <ele>101.80000305176</ele>
        <time>2026-06-16T10:22:46.000Z</time>
      </trkpt>
      <trkpt lat="48.71023" lon="1.97999">
        <ele>101.80000305176</ele>
        <time>2026-06-16T10:22:54.000Z</time>
      </trkpt>
      <trkpt lat="48.71027" lon="1.97955">
        <ele>101.40000152588</ele>
        <time>2026-06-16T10:23:00.000Z</time>
      </trkpt>
      <trkpt lat="48.71022" lon="1.97893">
        <ele>100.59999847412</ele>
        <time>2026-06-16T10:23:07.000Z</time>
      </trkpt>
      <trkpt lat="48.71021" lon="1.97884">
        <ele>100.19999694824</ele>
        <time>2026-06-16T10:23:08.000Z</time>
      </trkpt>
      <trkpt lat="48.71021" lon="1.9785">
        <ele>99.599998474121</ele>
        <time>2026-06-16T10:23:12.000Z</time>
      </trkpt>
      <trkpt lat="48.71022" lon="1.97839">
        <ele>99.599998474121</ele>
        <time>2026-06-16T10:23:13.000Z</time>
      </trkpt>
      <trkpt lat="48.71024" lon="1.97829">
        <ele>99.599998474121</ele>
        <time>2026-06-16T10:23:14.000Z</time>
      </trkpt>
      <trkpt lat="48.71027" lon="1.97812">
        <ele>99.400001525879</ele>
        <time>2026-06-16T10:23:16.000Z</time>
      </trkpt>
      <trkpt lat="48.71032" lon="1.97796">
        <ele>99.199996948242</ele>
        <time>2026-06-16T10:23:18.000Z</time>
      </trkpt>
      <trkpt lat="48.71035" lon="1.97788">
        <ele>99.199996948242</ele>
        <time>2026-06-16T10:23:19.000Z</time>
      </trkpt>
      <trkpt lat="48.71044" lon="1.97766">
        <ele>99</ele>
        <time>2026-06-16T10:23:22.000Z</time>
      </trkpt>
      <trkpt lat="48.71073" lon="1.97717">
        <ele>99.800003051758</ele>
        <time>2026-06-16T10:23:30.000Z</time>
      </trkpt>
      <trkpt lat="48.71086" lon="1.97695">
        <ele>100.19999694824</ele>
        <time>2026-06-16T10:23:34.000Z</time>
      </trkpt>
      <trkpt lat="48.7109" lon="1.9769">
        <ele>100.19999694824</ele>
        <time>2026-06-16T10:23:35.000Z</time>
      </trkpt>
      <trkpt lat="48.71103" lon="1.97671">
        <ele>101</ele>
        <time>2026-06-16T10:23:39.000Z</time>
      </trkpt>
      <trkpt lat="48.7111" lon="1.97663">
        <ele>101.40000152588</ele>
        <time>2026-06-16T10:23:41.000Z</time>
      </trkpt>
      <trkpt lat="48.71134" lon="1.97634">
        <ele>101.80000305176</ele>
        <time>2026-06-16T10:23:47.000Z</time>
      </trkpt>
      <trkpt lat="48.71162" lon="1.97601">
        <ele>102.19999694824</ele>
        <time>2026-06-16T10:23:53.000Z</time>
      </trkpt>
      <trkpt lat="48.71197" lon="1.97553">
        <ele>101.80000305176</ele>
        <time>2026-06-16T10:24:01.000Z</time>
      </trkpt>
      <trkpt lat="48.71204" lon="1.9754">
        <ele>101.80000305176</ele>
        <time>2026-06-16T10:24:03.000Z</time>
      </trkpt>
      <trkpt lat="48.71212" lon="1.97518">
        <ele>102</ele>
        <time>2026-06-16T10:24:06.000Z</time>
      </trkpt>
      <trkpt lat="48.71229" lon="1.97461">
        <ele>102</ele>
        <time>2026-06-16T10:24:14.000Z</time>
      </trkpt>
      <trkpt lat="48.71248" lon="1.97416">
        <ele>102.40000152588</ele>
        <time>2026-06-16T10:24:21.000Z</time>
      </trkpt>
      <trkpt lat="48.71253" lon="1.97405">
        <ele>102.59999847412</ele>
        <time>2026-06-16T10:24:23.000Z</time>
      </trkpt>
      <trkpt lat="48.7128" lon="1.97356">
        <ele>103</ele>
        <time>2026-06-16T10:24:31.000Z</time>
      </trkpt>
      <trkpt lat="48.71315" lon="1.97293">
        <ele>102.59999847412</ele>
        <time>2026-06-16T10:24:41.000Z</time>
      </trkpt>
      <trkpt lat="48.71337" lon="1.97248">
        <ele>103.19999694824</ele>
        <time>2026-06-16T10:24:49.000Z</time>
      </trkpt>
      <trkpt lat="48.71343" lon="1.97231">
        <ele>103.80000305176</ele>
        <time>2026-06-16T10:24:52.000Z</time>
      </trkpt>
      <trkpt lat="48.71352" lon="1.97202">
        <ele>104.59999847412</ele>
        <time>2026-06-16T10:24:57.000Z</time>
      </trkpt>
      <trkpt lat="48.71354" lon="1.97196">
        <ele>104.80000305176</ele>
        <time>2026-06-16T10:24:58.000Z</time>
      </trkpt>
      <trkpt lat="48.71369" lon="1.97147">
        <ele>105.40000152588</ele>
        <time>2026-06-16T10:25:06.000Z</time>
      </trkpt>
      <trkpt lat="48.71383" lon="1.971">
        <ele>105.80000305176</ele>
        <time>2026-06-16T10:25:14.000Z</time>
      </trkpt>
      <trkpt lat="48.71401" lon="1.97048">
        <ele>106.19999694824</ele>
        <time>2026-06-16T10:25:23.000Z</time>
      </trkpt>
      <trkpt lat="48.71404" lon="1.97037">
        <ele>106.19999694824</ele>
        <time>2026-06-16T10:25:25.000Z</time>
      </trkpt>
      <trkpt lat="48.71415" lon="1.97006">
        <ele>106.80000305176</ele>
        <time>2026-06-16T10:25:30.000Z</time>
      </trkpt>
      <trkpt lat="48.71418" lon="1.97">
        <ele>106.80000305176</ele>
        <time>2026-06-16T10:25:31.000Z</time>
      </trkpt>
      <trkpt lat="48.7144" lon="1.96953">
        <ele>107.40000152588</ele>
        <time>2026-06-16T10:25:40.000Z</time>
      </trkpt>
      <trkpt lat="48.71447" lon="1.96936">
        <ele>107.59999847412</ele>
        <time>2026-06-16T10:25:43.000Z</time>
      </trkpt>
      <trkpt lat="48.7145" lon="1.96924">
        <ele>107.59999847412</ele>
        <time>2026-06-16T10:25:45.000Z</time>
      </trkpt>
      <trkpt lat="48.71451" lon="1.96918">
        <ele>107.59999847412</ele>
        <time>2026-06-16T10:25:46.000Z</time>
      </trkpt>
      <trkpt lat="48.71452" lon="1.96907">
        <ele>107.80000305176</ele>
        <time>2026-06-16T10:25:48.000Z</time>
      </trkpt>
      <trkpt lat="48.71455" lon="1.96877">
        <ele>108</ele>
        <time>2026-06-16T10:25:53.000Z</time>
      </trkpt>
      <trkpt lat="48.71457" lon="1.96858">
        <ele>108.19999694824</ele>
        <time>2026-06-16T10:25:56.000Z</time>
      </trkpt>
      <trkpt lat="48.71461" lon="1.96836">
        <ele>108.40000152588</ele>
        <time>2026-06-16T10:25:59.000Z</time>
      </trkpt>
      <trkpt lat="48.71465" lon="1.96821">
        <ele>108.19999694824</ele>
        <time>2026-06-16T10:26:01.000Z</time>
      </trkpt>
      <trkpt lat="48.71477" lon="1.96791">
        <ele>107.80000305176</ele>
        <time>2026-06-16T10:26:05.000Z</time>
      </trkpt>
      <trkpt lat="48.71499" lon="1.96735">
        <ele>106.80000305176</ele>
        <time>2026-06-16T10:26:11.000Z</time>
      </trkpt>
      <trkpt lat="48.71504" lon="1.96719">
        <ele>106.19999694824</ele>
        <time>2026-06-16T10:26:13.000Z</time>
      </trkpt>
      <trkpt lat="48.71511" lon="1.96694">
        <ele>105.19999694824</ele>
        <time>2026-06-16T10:26:15.000Z</time>
      </trkpt>
      <trkpt lat="48.71511" lon="1.96683">
        <ele>104.80000305176</ele>
        <time>2026-06-16T10:26:16.000Z</time>
      </trkpt>
      <trkpt lat="48.71513" lon="1.96642">
        <ele>103.80000305176</ele>
        <time>2026-06-16T10:26:20.000Z</time>
      </trkpt>
      <trkpt lat="48.71512" lon="1.96631">
        <ele>103.40000152588</ele>
        <time>2026-06-16T10:26:21.000Z</time>
      </trkpt>
      <trkpt lat="48.71511" lon="1.96621">
        <ele>103.40000152588</ele>
        <time>2026-06-16T10:26:22.000Z</time>
      </trkpt>
      <trkpt lat="48.7151" lon="1.9659">
        <ele>103</ele>
        <time>2026-06-16T10:26:25.000Z</time>
      </trkpt>
      <trkpt lat="48.71514" lon="1.96571">
        <ele>102.80000305176</ele>
        <time>2026-06-16T10:26:27.000Z</time>
      </trkpt>
      <trkpt lat="48.71528" lon="1.96518">
        <ele>102.40000152588</ele>
        <time>2026-06-16T10:26:33.000Z</time>
      </trkpt>
      <trkpt lat="48.71539" lon="1.96458">
        <ele>102.19999694824</ele>
        <time>2026-06-16T10:26:40.000Z</time>
      </trkpt>
      <trkpt lat="48.71548" lon="1.96418">
        <ele>102.19999694824</ele>
        <time>2026-06-16T10:26:46.000Z</time>
      </trkpt>
      <trkpt lat="48.71556" lon="1.9639">
        <ele>103.40000152588</ele>
        <time>2026-06-16T10:26:52.000Z</time>
      </trkpt>
      <trkpt lat="48.71558" lon="1.96382">
        <ele>103.80000305176</ele>
        <time>2026-06-16T10:26:54.000Z</time>
      </trkpt>
      <trkpt lat="48.71564" lon="1.96364">
        <ele>105</ele>
        <time>2026-06-16T10:26:58.000Z</time>
      </trkpt>
      <trkpt lat="48.71566" lon="1.96361">
        <ele>105.40000152588</ele>
        <time>2026-06-16T10:26:59.000Z</time>
      </trkpt>
      <trkpt lat="48.71572" lon="1.96352">
        <ele>106</ele>
        <time>2026-06-16T10:27:02.000Z</time>
      </trkpt>
      <trkpt lat="48.71579" lon="1.96344">
        <ele>107</ele>
        <time>2026-06-16T10:27:05.000Z</time>
      </trkpt>
      <trkpt lat="48.71582" lon="1.9634">
        <ele>107.19999694824</ele>
        <time>2026-06-16T10:27:06.000Z</time>
      </trkpt>
      <trkpt lat="48.71597" lon="1.96321">
        <ele>108.40000152588</ele>
        <time>2026-06-16T10:27:11.000Z</time>
      </trkpt>
      <trkpt lat="48.716" lon="1.96315">
        <ele>108.59999847412</ele>
        <time>2026-06-16T10:27:12.000Z</time>
      </trkpt>
      <trkpt lat="48.71614" lon="1.96292">
        <ele>109.19999694824</ele>
        <time>2026-06-16T10:27:17.000Z</time>
      </trkpt>
      <trkpt lat="48.71625" lon="1.96273">
        <ele>109.40000152588</ele>
        <time>2026-06-16T10:27:20.000Z</time>
      </trkpt>
      <trkpt lat="48.71628" lon="1.96268">
        <ele>109.40000152588</ele>
        <time>2026-06-16T10:27:21.000Z</time>
      </trkpt>
      <trkpt lat="48.71641" lon="1.9624">
        <ele>109.59999847412</ele>
        <time>2026-06-16T10:27:26.000Z</time>
      </trkpt>
      <trkpt lat="48.71656" lon="1.96211">
        <ele>109.59999847412</ele>
        <time>2026-06-16T10:27:31.000Z</time>
      </trkpt>
      <trkpt lat="48.71658" lon="1.96205">
        <ele>109.59999847412</ele>
        <time>2026-06-16T10:27:32.000Z</time>
      </trkpt>
      <trkpt lat="48.71672" lon="1.96175">
        <ele>109.40000152588</ele>
        <time>2026-06-16T10:27:37.000Z</time>
      </trkpt>
      <trkpt lat="48.7169" lon="1.96134">
        <ele>109.59999847412</ele>
        <time>2026-06-16T10:27:44.000Z</time>
      </trkpt>
      <trkpt lat="48.71699" lon="1.96104">
        <ele>109.40000152588</ele>
        <time>2026-06-16T10:27:48.000Z</time>
      </trkpt>
      <trkpt lat="48.71703" lon="1.96095">
        <ele>109.40000152588</ele>
        <time>2026-06-16T10:27:49.000Z</time>
      </trkpt>
      <trkpt lat="48.71707" lon="1.96079">
        <ele>109</ele>
        <time>2026-06-16T10:27:51.000Z</time>
      </trkpt>
      <trkpt lat="48.71716" lon="1.96054">
        <ele>108.19999694824</ele>
        <time>2026-06-16T10:27:54.000Z</time>
      </trkpt>
      <trkpt lat="48.71718" lon="1.96048">
        <ele>108</ele>
        <time>2026-06-16T10:27:55.000Z</time>
      </trkpt>
      <trkpt lat="48.71736" lon="1.96013">
        <ele>107.80000305176</ele>
        <time>2026-06-16T10:28:00.000Z</time>
      </trkpt>
      <trkpt lat="48.71741" lon="1.95996">
        <ele>107.59999847412</ele>
        <time>2026-06-16T10:28:03.000Z</time>
      </trkpt>
      <trkpt lat="48.71745" lon="1.95984">
        <ele>107.80000305176</ele>
        <time>2026-06-16T10:28:05.000Z</time>
      </trkpt>
      <trkpt lat="48.71755" lon="1.95964">
        <ele>107.80000305176</ele>
        <time>2026-06-16T10:28:09.000Z</time>
      </trkpt>
      <trkpt lat="48.71757" lon="1.95956">
        <ele>107.80000305176</ele>
        <time>2026-06-16T10:28:10.000Z</time>
      </trkpt>
      <trkpt lat="48.71765" lon="1.95942">
        <ele>107.80000305176</ele>
        <time>2026-06-16T10:28:12.000Z</time>
      </trkpt>
      <trkpt lat="48.71779" lon="1.95906">
        <ele>107.19999694824</ele>
        <time>2026-06-16T10:28:16.000Z</time>
      </trkpt>
      <trkpt lat="48.7179" lon="1.95881">
        <ele>106.40000152588</ele>
        <time>2026-06-16T10:28:19.000Z</time>
      </trkpt>
      <trkpt lat="48.718" lon="1.95865">
        <ele>105.80000305176</ele>
        <time>2026-06-16T10:28:21.000Z</time>
      </trkpt>
      <trkpt lat="48.71817" lon="1.95839">
        <ele>104.80000305176</ele>
        <time>2026-06-16T10:28:25.000Z</time>
      </trkpt>
      <trkpt lat="48.71822" lon="1.95834">
        <ele>104.59999847412</ele>
        <time>2026-06-16T10:28:26.000Z</time>
      </trkpt>
      <trkpt lat="48.71826" lon="1.95828">
        <ele>104.19999694824</ele>
        <time>2026-06-16T10:28:27.000Z</time>
      </trkpt>
      <trkpt lat="48.71831" lon="1.95814">
        <ele>104</ele>
        <time>2026-06-16T10:28:29.000Z</time>
      </trkpt>
      <trkpt lat="48.71832" lon="1.95806">
        <ele>103.59999847412</ele>
        <time>2026-06-16T10:28:30.000Z</time>
      </trkpt>
      <trkpt lat="48.71832" lon="1.95797">
        <ele>103.40000152588</ele>
        <time>2026-06-16T10:28:31.000Z</time>
      </trkpt>
      <trkpt lat="48.71834" lon="1.95781">
        <ele>103</ele>
        <time>2026-06-16T10:28:33.000Z</time>
      </trkpt>
      <trkpt lat="48.71841" lon="1.95761">
        <ele>102.59999847412</ele>
        <time>2026-06-16T10:28:36.000Z</time>
      </trkpt>
      <trkpt lat="48.71842" lon="1.95755">
        <ele>102.59999847412</ele>
        <time>2026-06-16T10:28:37.000Z</time>
      </trkpt>
      <trkpt lat="48.71853" lon="1.9573">
        <ele>102.59999847412</ele>
        <time>2026-06-16T10:28:41.000Z</time>
      </trkpt>
      <trkpt lat="48.71871" lon="1.95693">
        <ele>102.80000305176</ele>
        <time>2026-06-16T10:28:46.000Z</time>
      </trkpt>
      <trkpt lat="48.71877" lon="1.95679">
        <ele>103</ele>
        <time>2026-06-16T10:28:48.000Z</time>
      </trkpt>
      <trkpt lat="48.71883" lon="1.95663">
        <ele>103</ele>
        <time>2026-06-16T10:28:50.000Z</time>
      </trkpt>
      <trkpt lat="48.71883" lon="1.95648">
        <ele>103</ele>
        <time>2026-06-16T10:28:52.000Z</time>
      </trkpt>
      <trkpt lat="48.71886" lon="1.95641">
        <ele>103</ele>
        <time>2026-06-16T10:28:53.000Z</time>
      </trkpt>
      <trkpt lat="48.71888" lon="1.95633">
        <ele>103</ele>
        <time>2026-06-16T10:28:54.000Z</time>
      </trkpt>
      <trkpt lat="48.719" lon="1.95612">
        <ele>103</ele>
        <time>2026-06-16T10:28:57.000Z</time>
      </trkpt>
      <trkpt lat="48.71919" lon="1.95567">
        <ele>103</ele>
        <time>2026-06-16T10:29:04.000Z</time>
      </trkpt>
      <trkpt lat="48.71929" lon="1.95536">
        <ele>103.19999694824</ele>
        <time>2026-06-16T10:29:09.000Z</time>
      </trkpt>
      <trkpt lat="48.7193" lon="1.95529">
        <ele>103.19999694824</ele>
        <time>2026-06-16T10:29:10.000Z</time>
      </trkpt>
      <trkpt lat="48.71931" lon="1.95516">
        <ele>103.40000152588</ele>
        <time>2026-06-16T10:29:12.000Z</time>
      </trkpt>
      <trkpt lat="48.71933" lon="1.95495">
        <ele>103.59999847412</ele>
        <time>2026-06-16T10:29:15.000Z</time>
      </trkpt>
      <trkpt lat="48.71934" lon="1.95488">
        <ele>103.59999847412</ele>
        <time>2026-06-16T10:29:16.000Z</time>
      </trkpt>
      <trkpt lat="48.71935" lon="1.95481">
        <ele>103.40000152588</ele>
        <time>2026-06-16T10:29:17.000Z</time>
      </trkpt>
      <trkpt lat="48.71941" lon="1.95451">
        <ele>103.59999847412</ele>
        <time>2026-06-16T10:29:21.000Z</time>
      </trkpt>
      <trkpt lat="48.71942" lon="1.95443">
        <ele>103.59999847412</ele>
        <time>2026-06-16T10:29:22.000Z</time>
      </trkpt>
      <trkpt lat="48.71944" lon="1.95416">
        <ele>103.80000305176</ele>
        <time>2026-06-16T10:29:26.000Z</time>
      </trkpt>
      <trkpt lat="48.71945" lon="1.95403">
        <ele>103.80000305176</ele>
        <time>2026-06-16T10:29:28.000Z</time>
      </trkpt>
      <trkpt lat="48.71946" lon="1.95371">
        <ele>104.40000152588</ele>
        <time>2026-06-16T10:29:33.000Z</time>
      </trkpt>
      <trkpt lat="48.71945" lon="1.95365">
        <ele>104.40000152588</ele>
        <time>2026-06-16T10:29:34.000Z</time>
      </trkpt>
      <trkpt lat="48.71945" lon="1.95327">
        <ele>105.40000152588</ele>
        <time>2026-06-16T10:29:40.000Z</time>
      </trkpt>
      <trkpt lat="48.71946" lon="1.95292">
        <ele>106.40000152588</ele>
        <time>2026-06-16T10:29:45.000Z</time>
      </trkpt>
      <trkpt lat="48.71945" lon="1.95286">
        <ele>106.59999847412</ele>
        <time>2026-06-16T10:29:46.000Z</time>
      </trkpt>
      <trkpt lat="48.71946" lon="1.95266">
        <ele>107.19999694824</ele>
        <time>2026-06-16T10:29:49.000Z</time>
      </trkpt>
      <trkpt lat="48.71951" lon="1.95252">
        <ele>107.59999847412</ele>
        <time>2026-06-16T10:29:51.000Z</time>
      </trkpt>
      <trkpt lat="48.71954" lon="1.9524">
        <ele>108</ele>
        <time>2026-06-16T10:29:53.000Z</time>
      </trkpt>
      <trkpt lat="48.71957" lon="1.95216">
        <ele>108.59999847412</ele>
        <time>2026-06-16T10:29:57.000Z</time>
      </trkpt>
      <trkpt lat="48.71958" lon="1.95211">
        <ele>108.59999847412</ele>
        <time>2026-06-16T10:29:58.000Z</time>
      </trkpt>
      <trkpt lat="48.71959" lon="1.95205">
        <ele>108.80000305176</ele>
        <time>2026-06-16T10:29:59.000Z</time>
      </trkpt>
      <trkpt lat="48.7196" lon="1.95185">
        <ele>108.80000305176</ele>
        <time>2026-06-16T10:30:02.000Z</time>
      </trkpt>
      <trkpt lat="48.7196" lon="1.95158">
        <ele>108.59999847412</ele>
        <time>2026-06-16T10:30:05.000Z</time>
      </trkpt>
      <trkpt lat="48.7196" lon="1.95151">
        <ele>108.59999847412</ele>
        <time>2026-06-16T10:30:06.000Z</time>
      </trkpt>
      <trkpt lat="48.71959" lon="1.95146">
        <ele>108.40000152588</ele>
        <time>2026-06-16T10:30:07.000Z</time>
      </trkpt>
      <trkpt lat="48.71958" lon="1.95145">
        <ele>108.19999694824</ele>
        <time>2026-06-16T10:30:08.000Z</time>
      </trkpt>
      <trkpt lat="48.71956" lon="1.95144">
        <ele>108</ele>
        <time>2026-06-16T10:30:09.000Z</time>
      </trkpt>
      <trkpt lat="48.71952" lon="1.95144">
        <ele>107.59999847412</ele>
        <time>2026-06-16T10:30:10.000Z</time>
      </trkpt>
      <trkpt lat="48.7195" lon="1.95146">
        <ele>107.40000152588</ele>
        <time>2026-06-16T10:30:11.000Z</time>
      </trkpt>
      <trkpt lat="48.71948" lon="1.95148">
        <ele>107.19999694824</ele>
        <time>2026-06-16T10:30:12.000Z</time>
      </trkpt>
      <trkpt lat="48.71939" lon="1.95161">
        <ele>107.19999694824</ele>
        <time>2026-06-16T10:30:16.000Z</time>
      </trkpt>
      <trkpt lat="48.71926" lon="1.95177">
        <ele>107.59999847412</ele>
        <time>2026-06-16T10:30:21.000Z</time>
      </trkpt>
      <trkpt lat="48.71909" lon="1.95189">
        <ele>108.80000305176</ele>
        <time>2026-06-16T10:30:26.000Z</time>
      </trkpt>
      <trkpt lat="48.71896" lon="1.9519">
        <ele>109.80000305176</ele>
        <time>2026-06-16T10:30:30.000Z</time>
      </trkpt>
      <trkpt lat="48.71889" lon="1.95186">
        <ele>110.40000152588</ele>
        <time>2026-06-16T10:30:32.000Z</time>
      </trkpt>
      <trkpt lat="48.71884" lon="1.95182">
        <ele>111</ele>
        <time>2026-06-16T10:30:34.000Z</time>
      </trkpt>
      <trkpt lat="48.71881" lon="1.95178">
        <ele>111.19999694824</ele>
        <time>2026-06-16T10:30:35.000Z</time>
      </trkpt>
      <trkpt lat="48.71879" lon="1.95175">
        <ele>111.40000152588</ele>
        <time>2026-06-16T10:30:36.000Z</time>
      </trkpt>
      <trkpt lat="48.71873" lon="1.95161">
        <ele>111.80000305176</ele>
        <time>2026-06-16T10:30:39.000Z</time>
      </trkpt>
      <trkpt lat="48.71862" lon="1.95145">
        <ele>113</ele>
        <time>2026-06-16T10:30:43.000Z</time>
      </trkpt>
      <trkpt lat="48.71852" lon="1.95119">
        <ele>114.19999694824</ele>
        <time>2026-06-16T10:30:48.000Z</time>
      </trkpt>
      <trkpt lat="48.71848" lon="1.95107">
        <ele>114.80000305176</ele>
        <time>2026-06-16T10:30:51.000Z</time>
      </trkpt>
      <trkpt lat="48.71843" lon="1.95099">
        <ele>115.40000152588</ele>
        <time>2026-06-16T10:30:53.000Z</time>
      </trkpt>
      <trkpt lat="48.71834" lon="1.95077">
        <ele>116.40000152588</ele>
        <time>2026-06-16T10:30:58.000Z</time>
      </trkpt>
      <trkpt lat="48.71825" lon="1.95064">
        <ele>117.19999694824</ele>
        <time>2026-06-16T10:31:01.000Z</time>
      </trkpt>
      <trkpt lat="48.71823" lon="1.95059">
        <ele>117.80000305176</ele>
        <time>2026-06-16T10:31:03.000Z</time>
      </trkpt>
      <trkpt lat="48.71818" lon="1.95053">
        <ele>118.40000152588</ele>
        <time>2026-06-16T10:31:06.000Z</time>
      </trkpt>
      <trkpt lat="48.71808" lon="1.95043">
        <ele>118.80000305176</ele>
        <time>2026-06-16T10:31:09.000Z</time>
      </trkpt>
      <trkpt lat="48.71804" lon="1.9504">
        <ele>119</ele>
        <time>2026-06-16T10:31:10.000Z</time>
      </trkpt>
      <trkpt lat="48.7179" lon="1.9503">
        <ele>120</ele>
        <time>2026-06-16T10:31:14.000Z</time>
      </trkpt>
      <trkpt lat="48.7178" lon="1.95023">
        <ele>120.80000305176</ele>
        <time>2026-06-16T10:31:18.000Z</time>
      </trkpt>
      <trkpt lat="48.71777" lon="1.95022">
        <ele>121</ele>
        <time>2026-06-16T10:31:19.000Z</time>
      </trkpt>
      <trkpt lat="48.71768" lon="1.95019">
        <ele>121.80000305176</ele>
        <time>2026-06-16T10:31:24.000Z</time>
      </trkpt>
      <trkpt lat="48.71763" lon="1.95019">
        <ele>122.19999694824</ele>
        <time>2026-06-16T10:31:26.000Z</time>
      </trkpt>
      <trkpt lat="48.71754" lon="1.95017">
        <ele>123.19999694824</ele>
        <time>2026-06-16T10:31:31.000Z</time>
      </trkpt>
      <trkpt lat="48.7175" lon="1.95016">
        <ele>123.40000152588</ele>
        <time>2026-06-16T10:31:33.000Z</time>
      </trkpt>
      <trkpt lat="48.71741" lon="1.95017">
        <ele>124</ele>
        <time>2026-06-16T10:31:37.000Z</time>
      </trkpt>
      <trkpt lat="48.71736" lon="1.95017">
        <ele>124.59999847412</ele>
        <time>2026-06-16T10:31:39.000Z</time>
      </trkpt>
      <trkpt lat="48.7173" lon="1.95016">
        <ele>125</ele>
        <time>2026-06-16T10:31:41.000Z</time>
      </trkpt>
      <trkpt lat="48.71728" lon="1.95016">
        <ele>125</ele>
        <time>2026-06-16T10:31:42.000Z</time>
      </trkpt>
      <trkpt lat="48.71714" lon="1.95009">
        <ele>126.19999694824</ele>
        <time>2026-06-16T10:31:47.000Z</time>
      </trkpt>
      <trkpt lat="48.71692" lon="1.95003">
        <ele>127.40000152588</ele>
        <time>2026-06-16T10:31:54.000Z</time>
      </trkpt>
      <trkpt lat="48.71684" lon="1.94999">
        <ele>127.59999847412</ele>
        <time>2026-06-16T10:31:55.000Z</time>
      </trkpt>
      <trkpt lat="48.71676" lon="1.94996">
        <ele>128.39999389648</ele>
        <time>2026-06-16T10:31:58.000Z</time>
      </trkpt>
      <trkpt lat="48.71668" lon="1.94994">
        <ele>129</ele>
        <time>2026-06-16T10:32:01.000Z</time>
      </trkpt>
      <trkpt lat="48.71658" lon="1.94991">
        <ele>129.39999389648</ele>
        <time>2026-06-16T10:32:04.000Z</time>
      </trkpt>
      <trkpt lat="48.7165" lon="1.94986">
        <ele>130</ele>
        <time>2026-06-16T10:32:08.000Z</time>
      </trkpt>
      <trkpt lat="48.71644" lon="1.94986">
        <ele>130.60000610352</ele>
        <time>2026-06-16T10:32:10.000Z</time>
      </trkpt>
      <trkpt lat="48.7163" lon="1.9498">
        <ele>131.19999694824</ele>
        <time>2026-06-16T10:32:14.000Z</time>
      </trkpt>
      <trkpt lat="48.71625" lon="1.94977">
        <ele>131.60000610352</ele>
        <time>2026-06-16T10:32:15.000Z</time>
      </trkpt>
      <trkpt lat="48.71604" lon="1.94972">
        <ele>132.80000305176</ele>
        <time>2026-06-16T10:32:22.000Z</time>
      </trkpt>
      <trkpt lat="48.71597" lon="1.9497">
        <ele>133.19999694824</ele>
        <time>2026-06-16T10:32:25.000Z</time>
      </trkpt>
      <trkpt lat="48.71587" lon="1.94971">
        <ele>133.80000305176</ele>
        <time>2026-06-16T10:32:29.000Z</time>
      </trkpt>
      <trkpt lat="48.71572" lon="1.94974">
        <ele>134.80000305176</ele>
        <time>2026-06-16T10:32:34.000Z</time>
      </trkpt>
      <trkpt lat="48.71562" lon="1.94973">
        <ele>135.39999389648</ele>
        <time>2026-06-16T10:32:37.000Z</time>
      </trkpt>
      <trkpt lat="48.71552" lon="1.94971">
        <ele>136</ele>
        <time>2026-06-16T10:32:40.000Z</time>
      </trkpt>
      <trkpt lat="48.71537" lon="1.94966">
        <ele>136.80000305176</ele>
        <time>2026-06-16T10:32:44.000Z</time>
      </trkpt>
      <trkpt lat="48.7153" lon="1.94962">
        <ele>137.39999389648</ele>
        <time>2026-06-16T10:32:46.000Z</time>
      </trkpt>
      <trkpt lat="48.71517" lon="1.94947">
        <ele>138.60000610352</ele>
        <time>2026-06-16T10:32:52.000Z</time>
      </trkpt>
      <trkpt lat="48.71501" lon="1.9493">
        <ele>139.80000305176</ele>
        <time>2026-06-16T10:32:58.000Z</time>
      </trkpt>
      <trkpt lat="48.71498" lon="1.94928">
        <ele>140</ele>
        <time>2026-06-16T10:32:59.000Z</time>
      </trkpt>
      <trkpt lat="48.71484" lon="1.94915">
        <ele>141</ele>
        <time>2026-06-16T10:33:05.000Z</time>
      </trkpt>
      <trkpt lat="48.71472" lon="1.94908">
        <ele>142</ele>
        <time>2026-06-16T10:33:10.000Z</time>
      </trkpt>
      <trkpt lat="48.71469" lon="1.94907">
        <ele>142</ele>
        <time>2026-06-16T10:33:11.000Z</time>
      </trkpt>
      <trkpt lat="48.71452" lon="1.94901">
        <ele>143</ele>
        <time>2026-06-16T10:33:17.000Z</time>
      </trkpt>
      <trkpt lat="48.71438" lon="1.94902">
        <ele>143.60000610352</ele>
        <time>2026-06-16T10:33:21.000Z</time>
      </trkpt>
      <trkpt lat="48.71429" lon="1.94906">
        <ele>144</ele>
        <time>2026-06-16T10:33:24.000Z</time>
      </trkpt>
      <trkpt lat="48.71414" lon="1.94915">
        <ele>144.80000305176</ele>
        <time>2026-06-16T10:33:29.000Z</time>
      </trkpt>
      <trkpt lat="48.71408" lon="1.94918">
        <ele>145.19999694824</ele>
        <time>2026-06-16T10:33:31.000Z</time>
      </trkpt>
      <trkpt lat="48.71393" lon="1.94928">
        <ele>146</ele>
        <time>2026-06-16T10:33:36.000Z</time>
      </trkpt>
      <trkpt lat="48.71385" lon="1.94934">
        <ele>146.80000305176</ele>
        <time>2026-06-16T10:33:39.000Z</time>
      </trkpt>
      <trkpt lat="48.71379" lon="1.94938">
        <ele>147.19999694824</ele>
        <time>2026-06-16T10:33:41.000Z</time>
      </trkpt>
      <trkpt lat="48.71361" lon="1.9495">
        <ele>148</ele>
        <time>2026-06-16T10:33:47.000Z</time>
      </trkpt>
      <trkpt lat="48.71358" lon="1.94953">
        <ele>148.19999694824</ele>
        <time>2026-06-16T10:33:48.000Z</time>
      </trkpt>
      <trkpt lat="48.71343" lon="1.94965">
        <ele>149.39999389648</ele>
        <time>2026-06-16T10:33:53.000Z</time>
      </trkpt>
      <trkpt lat="48.71337" lon="1.9497">
        <ele>149.60000610352</ele>
        <time>2026-06-16T10:33:55.000Z</time>
      </trkpt>
      <trkpt lat="48.71319" lon="1.94984">
        <ele>150.39999389648</ele>
        <time>2026-06-16T10:34:01.000Z</time>
      </trkpt>
      <trkpt lat="48.71307" lon="1.94994">
        <ele>151</ele>
        <time>2026-06-16T10:34:05.000Z</time>
      </trkpt>
      <trkpt lat="48.71292" lon="1.95006">
        <ele>151.60000610352</ele>
        <time>2026-06-16T10:34:10.000Z</time>
      </trkpt>
      <trkpt lat="48.71271" lon="1.95022">
        <ele>152.60000610352</ele>
        <time>2026-06-16T10:34:17.000Z</time>
      </trkpt>
      <trkpt lat="48.71239" lon="1.95046">
        <ele>153.60000610352</ele>
        <time>2026-06-16T10:34:27.000Z</time>
      </trkpt>
      <trkpt lat="48.71236" lon="1.95049">
        <ele>153.80000305176</ele>
        <time>2026-06-16T10:34:28.000Z</time>
      </trkpt>
      <trkpt lat="48.71228" lon="1.95056">
        <ele>154.19999694824</ele>
        <time>2026-06-16T10:34:30.000Z</time>
      </trkpt>
      <trkpt lat="48.7122" lon="1.95061">
        <ele>154.19999694824</ele>
        <time>2026-06-16T10:34:32.000Z</time>
      </trkpt>
      <trkpt lat="48.71198" lon="1.95078">
        <ele>154.39999389648</ele>
        <time>2026-06-16T10:34:39.000Z</time>
      </trkpt>
      <trkpt lat="48.71177" lon="1.95091">
        <ele>155</ele>
        <time>2026-06-16T10:34:46.000Z</time>
      </trkpt>
      <trkpt lat="48.71159" lon="1.95096">
        <ele>155</ele>
        <time>2026-06-16T10:34:51.000Z</time>
      </trkpt>
      <trkpt lat="48.71149" lon="1.95096">
        <ele>155</ele>
        <time>2026-06-16T10:34:54.000Z</time>
      </trkpt>
      <trkpt lat="48.71138" lon="1.95092">
        <ele>155.19999694824</ele>
        <time>2026-06-16T10:34:57.000Z</time>
      </trkpt>
      <trkpt lat="48.71108" lon="1.95072">
        <ele>156.19999694824</ele>
        <time>2026-06-16T10:35:05.000Z</time>
      </trkpt>
      <trkpt lat="48.71095" lon="1.95063">
        <ele>156.60000610352</ele>
        <time>2026-06-16T10:35:08.000Z</time>
      </trkpt>
      <trkpt lat="48.71086" lon="1.95058">
        <ele>156.80000305176</ele>
        <time>2026-06-16T10:35:10.000Z</time>
      </trkpt>
      <trkpt lat="48.71077" lon="1.95053">
        <ele>157.19999694824</ele>
        <time>2026-06-16T10:35:12.000Z</time>
      </trkpt>
      <trkpt lat="48.71062" lon="1.95043">
        <ele>157.39999389648</ele>
        <time>2026-06-16T10:35:16.000Z</time>
      </trkpt>
      <trkpt lat="48.71047" lon="1.95034">
        <ele>158.19999694824</ele>
        <time>2026-06-16T10:35:20.000Z</time>
      </trkpt>
      <trkpt lat="48.7101" lon="1.95006">
        <ele>159.19999694824</ele>
        <time>2026-06-16T10:35:29.000Z</time>
      </trkpt>
      <trkpt lat="48.71006" lon="1.95003">
        <ele>159.39999389648</ele>
        <time>2026-06-16T10:35:30.000Z</time>
      </trkpt>
      <trkpt lat="48.70982" lon="1.94985">
        <ele>159.39999389648</ele>
        <time>2026-06-16T10:35:36.000Z</time>
      </trkpt>
      <trkpt lat="48.70967" lon="1.94974">
        <ele>159.39999389648</ele>
        <time>2026-06-16T10:35:40.000Z</time>
      </trkpt>
      <trkpt lat="48.70961" lon="1.94969">
        <ele>159.19999694824</ele>
        <time>2026-06-16T10:35:42.000Z</time>
      </trkpt>
      <trkpt lat="48.70958" lon="1.94967">
        <ele>159.19999694824</ele>
        <time>2026-06-16T10:35:43.000Z</time>
      </trkpt>
      <trkpt lat="48.7095" lon="1.94962">
        <ele>159.19999694824</ele>
        <time>2026-06-16T10:35:45.000Z</time>
      </trkpt>
      <trkpt lat="48.70926" lon="1.94945">
        <ele>159.19999694824</ele>
        <time>2026-06-16T10:35:52.000Z</time>
      </trkpt>
      <trkpt lat="48.70892" lon="1.9492">
        <ele>159</ele>
        <time>2026-06-16T10:36:02.000Z</time>
      </trkpt>
      <trkpt lat="48.70863" lon="1.94898">
        <ele>159</ele>
        <time>2026-06-16T10:36:10.000Z</time>
      </trkpt>
      <trkpt lat="48.70851" lon="1.94889">
        <ele>158.80000305176</ele>
        <time>2026-06-16T10:36:13.000Z</time>
      </trkpt>
      <trkpt lat="48.70817" lon="1.94865">
        <ele>158.80000305176</ele>
        <time>2026-06-16T10:36:21.000Z</time>
      </trkpt>
      <trkpt lat="48.7078" lon="1.94836">
        <ele>158</ele>
        <time>2026-06-16T10:36:30.000Z</time>
      </trkpt>
      <trkpt lat="48.70738" lon="1.94804">
        <ele>157</ele>
        <time>2026-06-16T10:36:39.000Z</time>
      </trkpt>
      <trkpt lat="48.70697" lon="1.94772">
        <ele>155.80000305176</ele>
        <time>2026-06-16T10:36:47.000Z</time>
      </trkpt>
      <trkpt lat="48.70691" lon="1.94768">
        <ele>155.80000305176</ele>
        <time>2026-06-16T10:36:48.000Z</time>
      </trkpt>
      <trkpt lat="48.70645" lon="1.94735">
        <ele>154.80000305176</ele>
        <time>2026-06-16T10:36:56.000Z</time>
      </trkpt>
      <trkpt lat="48.7064" lon="1.94731">
        <ele>154.80000305176</ele>
        <time>2026-06-16T10:36:57.000Z</time>
      </trkpt>
      <trkpt lat="48.70611" lon="1.94711">
        <ele>154.19999694824</ele>
        <time>2026-06-16T10:37:02.000Z</time>
      </trkpt>
      <trkpt lat="48.70607" lon="1.94706">
        <ele>153.80000305176</ele>
        <time>2026-06-16T10:37:03.000Z</time>
      </trkpt>
      <trkpt lat="48.70602" lon="1.947">
        <ele>153.80000305176</ele>
        <time>2026-06-16T10:37:04.000Z</time>
      </trkpt>
      <trkpt lat="48.70599" lon="1.94693">
        <ele>153.80000305176</ele>
        <time>2026-06-16T10:37:05.000Z</time>
      </trkpt>
      <trkpt lat="48.70594" lon="1.94678">
        <ele>153.60000610352</ele>
        <time>2026-06-16T10:37:07.000Z</time>
      </trkpt>
      <trkpt lat="48.70584" lon="1.94638">
        <ele>153.39999389648</ele>
        <time>2026-06-16T10:37:13.000Z</time>
      </trkpt>
      <trkpt lat="48.70582" lon="1.94607">
        <ele>153</ele>
        <time>2026-06-16T10:37:18.000Z</time>
      </trkpt>
      <trkpt lat="48.70578" lon="1.94542">
        <ele>153.19999694824</ele>
        <time>2026-06-16T10:37:27.000Z</time>
      </trkpt>
      <trkpt lat="48.70576" lon="1.94491">
        <ele>153.60000610352</ele>
        <time>2026-06-16T10:37:34.000Z</time>
      </trkpt>
      <trkpt lat="48.70573" lon="1.94439">
        <ele>153.80000305176</ele>
        <time>2026-06-16T10:37:41.000Z</time>
      </trkpt>
      <trkpt lat="48.70571" lon="1.94408">
        <ele>154</ele>
        <time>2026-06-16T10:37:45.000Z</time>
      </trkpt>
      <trkpt lat="48.70566" lon="1.94333">
        <ele>154.60000610352</ele>
        <time>2026-06-16T10:37:55.000Z</time>
      </trkpt>
      <trkpt lat="48.70564" lon="1.94294">
        <ele>154.80000305176</ele>
        <time>2026-06-16T10:38:00.000Z</time>
      </trkpt>
      <trkpt lat="48.70561" lon="1.94258">
        <ele>155</ele>
        <time>2026-06-16T10:38:05.000Z</time>
      </trkpt>
      <trkpt lat="48.70558" lon="1.94201">
        <ele>155.19999694824</ele>
        <time>2026-06-16T10:38:13.000Z</time>
      </trkpt>
      <trkpt lat="48.70553" lon="1.94127">
        <ele>155.60000610352</ele>
        <time>2026-06-16T10:38:23.000Z</time>
      </trkpt>
      <trkpt lat="48.70552" lon="1.94113">
        <ele>155.80000305176</ele>
        <time>2026-06-16T10:38:25.000Z</time>
      </trkpt>
      <trkpt lat="48.70549" lon="1.94054">
        <ele>156.60000610352</ele>
        <time>2026-06-16T10:38:33.000Z</time>
      </trkpt>
      <trkpt lat="48.70549" lon="1.94032">
        <ele>156.80000305176</ele>
        <time>2026-06-16T10:38:36.000Z</time>
      </trkpt>
      <trkpt lat="48.70551" lon="1.93991">
        <ele>157.19999694824</ele>
        <time>2026-06-16T10:38:42.000Z</time>
      </trkpt>
      <trkpt lat="48.70562" lon="1.93935">
        <ele>157.60000610352</ele>
        <time>2026-06-16T10:38:50.000Z</time>
      </trkpt>
      <trkpt lat="48.70569" lon="1.9391">
        <ele>157.80000305176</ele>
        <time>2026-06-16T10:38:54.000Z</time>
      </trkpt>
      <trkpt lat="48.70582" lon="1.93871">
        <ele>158.80000305176</ele>
        <time>2026-06-16T10:39:00.000Z</time>
      </trkpt>
      <trkpt lat="48.70583" lon="1.93865">
        <ele>159</ele>
        <time>2026-06-16T10:39:01.000Z</time>
      </trkpt>
      <trkpt lat="48.70591" lon="1.93838">
        <ele>159.39999389648</ele>
        <time>2026-06-16T10:39:05.000Z</time>
      </trkpt>
      <trkpt lat="48.70596" lon="1.9381">
        <ele>159.80000305176</ele>
        <time>2026-06-16T10:39:09.000Z</time>
      </trkpt>
      <trkpt lat="48.70596" lon="1.93784">
        <ele>160</ele>
        <time>2026-06-16T10:39:13.000Z</time>
      </trkpt>
      <trkpt lat="48.70595" lon="1.93764">
        <ele>160.19999694824</ele>
        <time>2026-06-16T10:39:16.000Z</time>
      </trkpt>
      <trkpt lat="48.70585" lon="1.93718">
        <ele>160.60000610352</ele>
        <time>2026-06-16T10:39:23.000Z</time>
      </trkpt>
      <trkpt lat="48.70572" lon="1.93676">
        <ele>161</ele>
        <time>2026-06-16T10:39:30.000Z</time>
      </trkpt>
      <trkpt lat="48.70558" lon="1.93624">
        <ele>161.19999694824</ele>
        <time>2026-06-16T10:39:38.000Z</time>
      </trkpt>
      <trkpt lat="48.70543" lon="1.93568">
        <ele>161.39999389648</ele>
        <time>2026-06-16T10:39:46.000Z</time>
      </trkpt>
      <trkpt lat="48.70526" lon="1.93496">
        <ele>161.19999694824</ele>
        <time>2026-06-16T10:39:56.000Z</time>
      </trkpt>
      <trkpt lat="48.70511" lon="1.93412">
        <ele>160.39999389648</ele>
        <time>2026-06-16T10:40:07.000Z</time>
      </trkpt>
      <trkpt lat="48.70512" lon="1.93365">
        <ele>160.19999694824</ele>
        <time>2026-06-16T10:40:13.000Z</time>
      </trkpt>
      <trkpt lat="48.70513" lon="1.93355">
        <ele>160.19999694824</ele>
        <time>2026-06-16T10:40:14.000Z</time>
      </trkpt>
      <trkpt lat="48.70525" lon="1.93306">
        <ele>160</ele>
        <time>2026-06-16T10:40:21.000Z</time>
      </trkpt>
      <trkpt lat="48.70543" lon="1.93238">
        <ele>160.60000610352</ele>
        <time>2026-06-16T10:40:31.000Z</time>
      </trkpt>
      <trkpt lat="48.70554" lon="1.93195">
        <ele>161</ele>
        <time>2026-06-16T10:40:37.000Z</time>
      </trkpt>
      <trkpt lat="48.70568" lon="1.93146">
        <ele>161</ele>
        <time>2026-06-16T10:40:44.000Z</time>
      </trkpt>
      <trkpt lat="48.70569" lon="1.93139">
        <ele>161</ele>
        <time>2026-06-16T10:40:45.000Z</time>
      </trkpt>
      <trkpt lat="48.70578" lon="1.93106">
        <ele>161.19999694824</ele>
        <time>2026-06-16T10:40:50.000Z</time>
      </trkpt>
      <trkpt lat="48.70583" lon="1.93084">
        <ele>161.19999694824</ele>
        <time>2026-06-16T10:40:53.000Z</time>
      </trkpt>
      <trkpt lat="48.70591" lon="1.93056">
        <ele>161.39999389648</ele>
        <time>2026-06-16T10:40:57.000Z</time>
      </trkpt>
      <trkpt lat="48.70608" lon="1.92994">
        <ele>162</ele>
        <time>2026-06-16T10:41:06.000Z</time>
      </trkpt>
      <trkpt lat="48.70611" lon="1.92986">
        <ele>162.19999694824</ele>
        <time>2026-06-16T10:41:07.000Z</time>
      </trkpt>
      <trkpt lat="48.70624" lon="1.92935">
        <ele>162.60000610352</ele>
        <time>2026-06-16T10:41:15.000Z</time>
      </trkpt>
      <trkpt lat="48.70642" lon="1.92871">
        <ele>163</ele>
        <time>2026-06-16T10:41:24.000Z</time>
      </trkpt>
      <trkpt lat="48.70661" lon="1.92805">
        <ele>162.39999389648</ele>
        <time>2026-06-16T10:41:33.000Z</time>
      </trkpt>
      <trkpt lat="48.70674" lon="1.92757">
        <ele>161.80000305176</ele>
        <time>2026-06-16T10:41:40.000Z</time>
      </trkpt>
      <trkpt lat="48.70677" lon="1.92727">
        <ele>161.60000610352</ele>
        <time>2026-06-16T10:41:46.000Z</time>
      </trkpt>
      <trkpt lat="48.70693" lon="1.92704">
        <ele>162</ele>
        <time>2026-06-16T10:41:52.000Z</time>
      </trkpt>
      <trkpt lat="48.70703" lon="1.92688">
        <ele>162</ele>
        <time>2026-06-16T10:41:55.000Z</time>
      </trkpt>
      <trkpt lat="48.70708" lon="1.92675">
        <ele>162.19999694824</ele>
        <time>2026-06-16T10:41:57.000Z</time>
      </trkpt>
      <trkpt lat="48.70728" lon="1.9263">
        <ele>162.19999694824</ele>
        <time>2026-06-16T10:42:04.000Z</time>
      </trkpt>
      <trkpt lat="48.70752" lon="1.92563">
        <ele>161.60000610352</ele>
        <time>2026-06-16T10:42:13.000Z</time>
      </trkpt>
      <trkpt lat="48.70754" lon="1.92556">
        <ele>161.60000610352</ele>
        <time>2026-06-16T10:42:14.000Z</time>
      </trkpt>
      <trkpt lat="48.7076" lon="1.92519">
        <ele>161.39999389648</ele>
        <time>2026-06-16T10:42:18.000Z</time>
      </trkpt>
      <trkpt lat="48.70761" lon="1.92472">
        <ele>161</ele>
        <time>2026-06-16T10:42:23.000Z</time>
      </trkpt>
      <trkpt lat="48.70759" lon="1.92462">
        <ele>160.80000305176</ele>
        <time>2026-06-16T10:42:24.000Z</time>
      </trkpt>
      <trkpt lat="48.70747" lon="1.92413">
        <ele>160</ele>
        <time>2026-06-16T10:42:30.000Z</time>
      </trkpt>
      <trkpt lat="48.70742" lon="1.92396">
        <ele>159.80000305176</ele>
        <time>2026-06-16T10:42:32.000Z</time>
      </trkpt>
      <trkpt lat="48.70729" lon="1.92353">
        <ele>159.60000610352</ele>
        <time>2026-06-16T10:42:38.000Z</time>
      </trkpt>
      <trkpt lat="48.70708" lon="1.92283">
        <ele>159.39999389648</ele>
        <time>2026-06-16T10:42:47.000Z</time>
      </trkpt>
      <trkpt lat="48.70686" lon="1.92214">
        <ele>159.60000610352</ele>
        <time>2026-06-16T10:42:55.000Z</time>
      </trkpt>
      <trkpt lat="48.70666" lon="1.92141">
        <ele>159.60000610352</ele>
        <time>2026-06-16T10:43:04.000Z</time>
      </trkpt>
      <trkpt lat="48.70664" lon="1.92133">
        <ele>159.60000610352</ele>
        <time>2026-06-16T10:43:05.000Z</time>
      </trkpt>
      <trkpt lat="48.70662" lon="1.92114">
        <ele>159.60000610352</ele>
        <time>2026-06-16T10:43:07.000Z</time>
      </trkpt>
      <trkpt lat="48.70661" lon="1.92098">
        <ele>159.60000610352</ele>
        <time>2026-06-16T10:43:09.000Z</time>
      </trkpt>
      <trkpt lat="48.70667" lon="1.92042">
        <ele>159.60000610352</ele>
        <time>2026-06-16T10:43:15.000Z</time>
      </trkpt>
      <trkpt lat="48.70683" lon="1.91995">
        <ele>159.80000305176</ele>
        <time>2026-06-16T10:43:21.000Z</time>
      </trkpt>
      <trkpt lat="48.70701" lon="1.91944">
        <ele>160.80000305176</ele>
        <time>2026-06-16T10:43:28.000Z</time>
      </trkpt>
      <trkpt lat="48.70706" lon="1.9193">
        <ele>161</ele>
        <time>2026-06-16T10:43:30.000Z</time>
      </trkpt>
      <trkpt lat="48.70721" lon="1.91881">
        <ele>161.60000610352</ele>
        <time>2026-06-16T10:43:37.000Z</time>
      </trkpt>
      <trkpt lat="48.70724" lon="1.91874">
        <ele>161.80000305176</ele>
        <time>2026-06-16T10:43:38.000Z</time>
      </trkpt>
      <trkpt lat="48.70736" lon="1.91841">
        <ele>162</ele>
        <time>2026-06-16T10:43:43.000Z</time>
      </trkpt>
      <trkpt lat="48.70741" lon="1.91827">
        <ele>162</ele>
        <time>2026-06-16T10:43:45.000Z</time>
      </trkpt>
      <trkpt lat="48.70759" lon="1.91778">
        <ele>162.80000305176</ele>
        <time>2026-06-16T10:43:52.000Z</time>
      </trkpt>
      <trkpt lat="48.70782" lon="1.91709">
        <ele>163.19999694824</ele>
        <time>2026-06-16T10:44:01.000Z</time>
      </trkpt>
      <trkpt lat="48.70796" lon="1.91635">
        <ele>163.19999694824</ele>
        <time>2026-06-16T10:44:09.000Z</time>
      </trkpt>
      <trkpt lat="48.70806" lon="1.91578">
        <ele>163.19999694824</ele>
        <time>2026-06-16T10:44:16.000Z</time>
      </trkpt>
      <trkpt lat="48.70808" lon="1.91568">
        <ele>163</ele>
        <time>2026-06-16T10:44:17.000Z</time>
      </trkpt>
      <trkpt lat="48.70818" lon="1.91521">
        <ele>162.80000305176</ele>
        <time>2026-06-16T10:44:23.000Z</time>
      </trkpt>
      <trkpt lat="48.70842" lon="1.91466">
        <ele>162.80000305176</ele>
        <time>2026-06-16T10:44:30.000Z</time>
      </trkpt>
      <trkpt lat="48.70882" lon="1.91407">
        <ele>162.80000305176</ele>
        <time>2026-06-16T10:44:39.000Z</time>
      </trkpt>
      <trkpt lat="48.70902" lon="1.9138">
        <ele>162.60000610352</ele>
        <time>2026-06-16T10:44:44.000Z</time>
      </trkpt>
      <trkpt lat="48.70929" lon="1.91341">
        <ele>162.19999694824</ele>
        <time>2026-06-16T10:44:49.000Z</time>
      </trkpt>
      <trkpt lat="48.70938" lon="1.91328">
        <ele>162</ele>
        <time>2026-06-16T10:44:51.000Z</time>
      </trkpt>
      <trkpt lat="48.70954" lon="1.91295">
        <ele>161.60000610352</ele>
        <time>2026-06-16T10:44:55.000Z</time>
      </trkpt>
      <trkpt lat="48.70958" lon="1.91286">
        <ele>161.60000610352</ele>
        <time>2026-06-16T10:44:56.000Z</time>
      </trkpt>
      <trkpt lat="48.70974" lon="1.91248">
        <ele>161.19999694824</ele>
        <time>2026-06-16T10:45:01.000Z</time>
      </trkpt>
      <trkpt lat="48.70992" lon="1.912">
        <ele>160.80000305176</ele>
        <time>2026-06-16T10:45:07.000Z</time>
      </trkpt>
      <trkpt lat="48.71005" lon="1.91133">
        <ele>160.60000610352</ele>
        <time>2026-06-16T10:45:14.000Z</time>
      </trkpt>
      <trkpt lat="48.71021" lon="1.91045">
        <ele>160.19999694824</ele>
        <time>2026-06-16T10:45:23.000Z</time>
      </trkpt>
      <trkpt lat="48.71026" lon="1.91024">
        <ele>160</ele>
        <time>2026-06-16T10:45:25.000Z</time>
      </trkpt>
      <trkpt lat="48.71032" lon="1.90994">
        <ele>159.60000610352</ele>
        <time>2026-06-16T10:45:28.000Z</time>
      </trkpt>
      <trkpt lat="48.71044" lon="1.90945">
        <ele>158.80000305176</ele>
        <time>2026-06-16T10:45:33.000Z</time>
      </trkpt>
      <trkpt lat="48.71048" lon="1.90926">
        <ele>158.39999389648</ele>
        <time>2026-06-16T10:45:35.000Z</time>
      </trkpt>
      <trkpt lat="48.71057" lon="1.90889">
        <ele>157.80000305176</ele>
        <time>2026-06-16T10:45:39.000Z</time>
      </trkpt>
      <trkpt lat="48.71059" lon="1.9088">
        <ele>157.60000610352</ele>
        <time>2026-06-16T10:45:40.000Z</time>
      </trkpt>
      <trkpt lat="48.71069" lon="1.90842">
        <ele>157.39999389648</ele>
        <time>2026-06-16T10:45:44.000Z</time>
      </trkpt>
      <trkpt lat="48.71079" lon="1.9079">
        <ele>157.60000610352</ele>
        <time>2026-06-16T10:45:50.000Z</time>
      </trkpt>
      <trkpt lat="48.71085" lon="1.90761">
        <ele>157.80000305176</ele>
        <time>2026-06-16T10:45:54.000Z</time>
      </trkpt>
      <trkpt lat="48.71085" lon="1.90754">
        <ele>157.80000305176</ele>
        <time>2026-06-16T10:45:55.000Z</time>
      </trkpt>
      <trkpt lat="48.71087" lon="1.90747">
        <ele>158</ele>
        <time>2026-06-16T10:45:56.000Z</time>
      </trkpt>
      <trkpt lat="48.7109" lon="1.90731">
        <ele>158.19999694824</ele>
        <time>2026-06-16T10:45:58.000Z</time>
      </trkpt>
      <trkpt lat="48.71092" lon="1.90715">
        <ele>158.39999389648</ele>
        <time>2026-06-16T10:46:00.000Z</time>
      </trkpt>
      <trkpt lat="48.71094" lon="1.90706">
        <ele>158.39999389648</ele>
        <time>2026-06-16T10:46:01.000Z</time>
      </trkpt>
      <trkpt lat="48.71099" lon="1.90667">
        <ele>159</ele>
        <time>2026-06-16T10:46:05.000Z</time>
      </trkpt>
      <trkpt lat="48.71107" lon="1.90648">
        <ele>159.19999694824</ele>
        <time>2026-06-16T10:46:07.000Z</time>
      </trkpt>
      <trkpt lat="48.7111" lon="1.90637">
        <ele>159.39999389648</ele>
        <time>2026-06-16T10:46:08.000Z</time>
      </trkpt>
      <trkpt lat="48.71111" lon="1.90625">
        <ele>159.39999389648</ele>
        <time>2026-06-16T10:46:09.000Z</time>
      </trkpt>
      <trkpt lat="48.71109" lon="1.90604">
        <ele>159.80000305176</ele>
        <time>2026-06-16T10:46:11.000Z</time>
      </trkpt>
      <trkpt lat="48.71108" lon="1.90537">
        <ele>160</ele>
        <time>2026-06-16T10:46:18.000Z</time>
      </trkpt>
      <trkpt lat="48.71107" lon="1.90504">
        <ele>160.19999694824</ele>
        <time>2026-06-16T10:46:22.000Z</time>
      </trkpt>
      <trkpt lat="48.71109" lon="1.9049">
        <ele>160.39999389648</ele>
        <time>2026-06-16T10:46:24.000Z</time>
      </trkpt>
      <trkpt lat="48.71112" lon="1.90474">
        <ele>160.19999694824</ele>
        <time>2026-06-16T10:46:26.000Z</time>
      </trkpt>
      <trkpt lat="48.71115" lon="1.9046">
        <ele>160.39999389648</ele>
        <time>2026-06-16T10:46:28.000Z</time>
      </trkpt>
      <trkpt lat="48.71117" lon="1.90454">
        <ele>160.39999389648</ele>
        <time>2026-06-16T10:46:29.000Z</time>
      </trkpt>
      <trkpt lat="48.71124" lon="1.90432">
        <ele>160.60000610352</ele>
        <time>2026-06-16T10:46:32.000Z</time>
      </trkpt>
      <trkpt lat="48.71127" lon="1.90423">
        <ele>160.60000610352</ele>
        <time>2026-06-16T10:46:33.000Z</time>
      </trkpt>
      <trkpt lat="48.71139" lon="1.90396">
        <ele>161.19999694824</ele>
        <time>2026-06-16T10:46:37.000Z</time>
      </trkpt>
      <trkpt lat="48.71141" lon="1.90389">
        <ele>161.39999389648</ele>
        <time>2026-06-16T10:46:38.000Z</time>
      </trkpt>
      <trkpt lat="48.7116" lon="1.90355">
        <ele>161.80000305176</ele>
        <time>2026-06-16T10:46:42.000Z</time>
      </trkpt>
      <trkpt lat="48.71173" lon="1.90333">
        <ele>162</ele>
        <time>2026-06-16T10:46:45.000Z</time>
      </trkpt>
      <trkpt lat="48.71184" lon="1.90315">
        <ele>162.19999694824</ele>
        <time>2026-06-16T10:46:47.000Z</time>
      </trkpt>
      <trkpt lat="48.71191" lon="1.903">
        <ele>162.19999694824</ele>
        <time>2026-06-16T10:46:49.000Z</time>
      </trkpt>
      <trkpt lat="48.71206" lon="1.90261">
        <ele>162</ele>
        <time>2026-06-16T10:46:54.000Z</time>
      </trkpt>
      <trkpt lat="48.71228" lon="1.90207">
        <ele>162</ele>
        <time>2026-06-16T10:47:00.000Z</time>
      </trkpt>
      <trkpt lat="48.71234" lon="1.90191">
        <ele>162</ele>
        <time>2026-06-16T10:47:02.000Z</time>
      </trkpt>
      <trkpt lat="48.7125" lon="1.90138">
        <ele>161.80000305176</ele>
        <time>2026-06-16T10:47:08.000Z</time>
      </trkpt>
      <trkpt lat="48.71251" lon="1.90128">
        <ele>161.80000305176</ele>
        <time>2026-06-16T10:47:09.000Z</time>
      </trkpt>
      <trkpt lat="48.7126" lon="1.90052">
        <ele>161</ele>
        <time>2026-06-16T10:47:17.000Z</time>
      </trkpt>
      <trkpt lat="48.7127" lon="1.89966">
        <ele>160.60000610352</ele>
        <time>2026-06-16T10:47:26.000Z</time>
      </trkpt>
      <trkpt lat="48.71271" lon="1.89956">
        <ele>160.39999389648</ele>
        <time>2026-06-16T10:47:27.000Z</time>
      </trkpt>
      <trkpt lat="48.71278" lon="1.89869">
        <ele>160.19999694824</ele>
        <time>2026-06-16T10:47:36.000Z</time>
      </trkpt>
      <trkpt lat="48.71279" lon="1.89859">
        <ele>160.19999694824</ele>
        <time>2026-06-16T10:47:37.000Z</time>
      </trkpt>
      <trkpt lat="48.71288" lon="1.89807">
        <ele>159.80000305176</ele>
        <time>2026-06-16T10:47:43.000Z</time>
      </trkpt>
      <trkpt lat="48.71299" lon="1.89734">
        <ele>159.39999389648</ele>
        <time>2026-06-16T10:47:51.000Z</time>
      </trkpt>
      <trkpt lat="48.71312" lon="1.8968">
        <ele>159.19999694824</ele>
        <time>2026-06-16T10:47:57.000Z</time>
      </trkpt>
      <trkpt lat="48.71329" lon="1.89651">
        <ele>159</ele>
        <time>2026-06-16T10:48:01.000Z</time>
      </trkpt>
      <trkpt lat="48.71335" lon="1.89644">
        <ele>158.80000305176</ele>
        <time>2026-06-16T10:48:02.000Z</time>
      </trkpt>
      <trkpt lat="48.71351" lon="1.89624">
        <ele>158.39999389648</ele>
        <time>2026-06-16T10:48:05.000Z</time>
      </trkpt>
      <trkpt lat="48.71363" lon="1.89616">
        <ele>158.19999694824</ele>
        <time>2026-06-16T10:48:07.000Z</time>
      </trkpt>
      <trkpt lat="48.71377" lon="1.89612">
        <ele>157.60000610352</ele>
        <time>2026-06-16T10:48:09.000Z</time>
      </trkpt>
      <trkpt lat="48.71383" lon="1.89609">
        <ele>157.39999389648</ele>
        <time>2026-06-16T10:48:10.000Z</time>
      </trkpt>
      <trkpt lat="48.71388" lon="1.89604">
        <ele>157.19999694824</ele>
        <time>2026-06-16T10:48:11.000Z</time>
      </trkpt>
      <trkpt lat="48.71391" lon="1.89597">
        <ele>157</ele>
        <time>2026-06-16T10:48:12.000Z</time>
      </trkpt>
      <trkpt lat="48.71393" lon="1.89588">
        <ele>157</ele>
        <time>2026-06-16T10:48:13.000Z</time>
      </trkpt>
      <trkpt lat="48.71393" lon="1.89578">
        <ele>156.60000610352</ele>
        <time>2026-06-16T10:48:14.000Z</time>
      </trkpt>
      <trkpt lat="48.71391" lon="1.8957">
        <ele>156.60000610352</ele>
        <time>2026-06-16T10:48:15.000Z</time>
      </trkpt>
      <trkpt lat="48.71387" lon="1.89564">
        <ele>156.19999694824</ele>
        <time>2026-06-16T10:48:16.000Z</time>
      </trkpt>
      <trkpt lat="48.71379" lon="1.89551">
        <ele>155.80000305176</ele>
        <time>2026-06-16T10:48:18.000Z</time>
      </trkpt>
      <trkpt lat="48.71375" lon="1.89535">
        <ele>155.60000610352</ele>
        <time>2026-06-16T10:48:20.000Z</time>
      </trkpt>
      <trkpt lat="48.71373" lon="1.89527">
        <ele>155.60000610352</ele>
        <time>2026-06-16T10:48:21.000Z</time>
      </trkpt>
      <trkpt lat="48.71367" lon="1.89499">
        <ele>155.19999694824</ele>
        <time>2026-06-16T10:48:24.000Z</time>
      </trkpt>
      <trkpt lat="48.71366" lon="1.89489">
        <ele>155.19999694824</ele>
        <time>2026-06-16T10:48:25.000Z</time>
      </trkpt>
      <trkpt lat="48.71359" lon="1.89431">
        <ele>154.60000610352</ele>
        <time>2026-06-16T10:48:31.000Z</time>
      </trkpt>
      <trkpt lat="48.71354" lon="1.89414">
        <ele>154.39999389648</ele>
        <time>2026-06-16T10:48:33.000Z</time>
      </trkpt>
      <trkpt lat="48.71339" lon="1.89374">
        <ele>154.60000610352</ele>
        <time>2026-06-16T10:48:38.000Z</time>
      </trkpt>
      <trkpt lat="48.7131" lon="1.89332">
        <ele>155.19999694824</ele>
        <time>2026-06-16T10:48:45.000Z</time>
      </trkpt>
      <trkpt lat="48.71298" lon="1.89319">
        <ele>155.60000610352</ele>
        <time>2026-06-16T10:48:48.000Z</time>
      </trkpt>
      <trkpt lat="48.71275" lon="1.893">
        <ele>156.60000610352</ele>
        <time>2026-06-16T10:48:53.000Z</time>
      </trkpt>
      <trkpt lat="48.71234" lon="1.89267">
        <ele>157.80000305176</ele>
        <time>2026-06-16T10:49:02.000Z</time>
      </trkpt>
      <trkpt lat="48.71226" lon="1.8926">
        <ele>158</ele>
        <time>2026-06-16T10:49:04.000Z</time>
      </trkpt>
      <trkpt lat="48.71208" lon="1.89247">
        <ele>158.19999694824</ele>
        <time>2026-06-16T10:49:08.000Z</time>
      </trkpt>
      <trkpt lat="48.71199" lon="1.89239">
        <ele>158.19999694824</ele>
        <time>2026-06-16T10:49:10.000Z</time>
      </trkpt>
      <trkpt lat="48.71182" lon="1.89224">
        <ele>158.39999389648</ele>
        <time>2026-06-16T10:49:14.000Z</time>
      </trkpt>
      <trkpt lat="48.71166" lon="1.89203">
        <ele>158.80000305176</ele>
        <time>2026-06-16T10:49:18.000Z</time>
      </trkpt>
      <trkpt lat="48.71146" lon="1.89166">
        <ele>159.80000305176</ele>
        <time>2026-06-16T10:49:24.000Z</time>
      </trkpt>
      <trkpt lat="48.71144" lon="1.89159">
        <ele>160</ele>
        <time>2026-06-16T10:49:25.000Z</time>
      </trkpt>
      <trkpt lat="48.71129" lon="1.89102">
        <ele>160.60000610352</ele>
        <time>2026-06-16T10:49:33.000Z</time>
      </trkpt>
      <trkpt lat="48.71128" lon="1.89082">
        <ele>160.60000610352</ele>
        <time>2026-06-16T10:49:36.000Z</time>
      </trkpt>
      <trkpt lat="48.71127" lon="1.8907">
        <ele>160.80000305176</ele>
        <time>2026-06-16T10:49:38.000Z</time>
      </trkpt>
      <trkpt lat="48.7113" lon="1.89041">
        <ele>161.19999694824</ele>
        <time>2026-06-16T10:49:44.000Z</time>
      </trkpt>
      <trkpt lat="48.71129" lon="1.89037">
        <ele>161.19999694824</ele>
        <time>2026-06-16T10:49:45.000Z</time>
      </trkpt>
      <trkpt lat="48.71126" lon="1.89034">
        <ele>161.19999694824</ele>
        <time>2026-06-16T10:49:46.000Z</time>
      </trkpt>
      <trkpt lat="48.71122" lon="1.89032">
        <ele>161.39999389648</ele>
        <time>2026-06-16T10:49:47.000Z</time>
      </trkpt>
      <trkpt lat="48.71106" lon="1.89027">
        <ele>161.60000610352</ele>
        <time>2026-06-16T10:49:51.000Z</time>
      </trkpt>
      <trkpt lat="48.71102" lon="1.89026">
        <ele>161.80000305176</ele>
        <time>2026-06-16T10:49:52.000Z</time>
      </trkpt>
      <trkpt lat="48.71072" lon="1.89023">
        <ele>162.19999694824</ele>
        <time>2026-06-16T10:49:58.000Z</time>
      </trkpt>
      <trkpt lat="48.71024" lon="1.89022">
        <ele>162.19999694824</ele>
        <time>2026-06-16T10:50:07.000Z</time>
      </trkpt>
      <trkpt lat="48.70986" lon="1.89023">
        <ele>162.19999694824</ele>
        <time>2026-06-16T10:50:14.000Z</time>
      </trkpt>
      <trkpt lat="48.70975" lon="1.89023">
        <ele>162.19999694824</ele>
        <time>2026-06-16T10:50:16.000Z</time>
      </trkpt>
      <trkpt lat="48.7096" lon="1.89023">
        <ele>162.39999389648</ele>
        <time>2026-06-16T10:50:19.000Z</time>
      </trkpt>
      <trkpt lat="48.70914" lon="1.89023">
        <ele>162.60000610352</ele>
        <time>2026-06-16T10:50:27.000Z</time>
      </trkpt>
      <trkpt lat="48.70908" lon="1.89023">
        <ele>162.60000610352</ele>
        <time>2026-06-16T10:50:28.000Z</time>
      </trkpt>
      <trkpt lat="48.70848" lon="1.89023">
        <ele>162.80000305176</ele>
        <time>2026-06-16T10:50:38.000Z</time>
      </trkpt>
      <trkpt lat="48.70793" lon="1.89023">
        <ele>162.80000305176</ele>
        <time>2026-06-16T10:50:47.000Z</time>
      </trkpt>
      <trkpt lat="48.70787" lon="1.89023">
        <ele>162.60000610352</ele>
        <time>2026-06-16T10:50:48.000Z</time>
      </trkpt>
      <trkpt lat="48.70733" lon="1.89022">
        <ele>162</ele>
        <time>2026-06-16T10:50:57.000Z</time>
      </trkpt>
      <trkpt lat="48.70709" lon="1.89024">
        <ele>161.60000610352</ele>
        <time>2026-06-16T10:51:01.000Z</time>
      </trkpt>
      <trkpt lat="48.70696" lon="1.89024">
        <ele>161.39999389648</ele>
        <time>2026-06-16T10:51:03.000Z</time>
      </trkpt>
      <trkpt lat="48.70682" lon="1.89024">
        <ele>161.19999694824</ele>
        <time>2026-06-16T10:51:05.000Z</time>
      </trkpt>
      <trkpt lat="48.70675" lon="1.89023">
        <ele>161</ele>
        <time>2026-06-16T10:51:06.000Z</time>
      </trkpt>
      <trkpt lat="48.70662" lon="1.89016">
        <ele>160.80000305176</ele>
        <time>2026-06-16T10:51:08.000Z</time>
      </trkpt>
      <trkpt lat="48.70645" lon="1.89">
        <ele>160.39999389648</ele>
        <time>2026-06-16T10:51:10.000Z</time>
      </trkpt>
      <trkpt lat="48.70628" lon="1.88979">
        <ele>160</ele>
        <time>2026-06-16T10:51:12.000Z</time>
      </trkpt>
      <trkpt lat="48.70621" lon="1.88967">
        <ele>159.60000610352</ele>
        <time>2026-06-16T10:51:13.000Z</time>
      </trkpt>
      <trkpt lat="48.70615" lon="1.88954">
        <ele>159.39999389648</ele>
        <time>2026-06-16T10:51:14.000Z</time>
      </trkpt>
      <trkpt lat="48.70604" lon="1.88925">
        <ele>158.39999389648</ele>
        <time>2026-06-16T10:51:16.000Z</time>
      </trkpt>
      <trkpt lat="48.70599" lon="1.8891">
        <ele>157.80000305176</ele>
        <time>2026-06-16T10:51:17.000Z</time>
      </trkpt>
      <trkpt lat="48.70591" lon="1.88881">
        <ele>156.80000305176</ele>
        <time>2026-06-16T10:51:19.000Z</time>
      </trkpt>
      <trkpt lat="48.7058" lon="1.88856">
        <ele>155.80000305176</ele>
        <time>2026-06-16T10:51:21.000Z</time>
      </trkpt>
      <trkpt lat="48.70575" lon="1.88845">
        <ele>155.19999694824</ele>
        <time>2026-06-16T10:51:22.000Z</time>
      </trkpt>
      <trkpt lat="48.7057" lon="1.88835">
        <ele>154</ele>
        <time>2026-06-16T10:51:23.000Z</time>
      </trkpt>
      <trkpt lat="48.70563" lon="1.88826">
        <ele>153.60000610352</ele>
        <time>2026-06-16T10:51:24.000Z</time>
      </trkpt>
      <trkpt lat="48.7055" lon="1.88805">
        <ele>152.60000610352</ele>
        <time>2026-06-16T10:51:26.000Z</time>
      </trkpt>
      <trkpt lat="48.70539" lon="1.88781">
        <ele>152</ele>
        <time>2026-06-16T10:51:28.000Z</time>
      </trkpt>
      <trkpt lat="48.70536" lon="1.88767">
        <ele>151.39999389648</ele>
        <time>2026-06-16T10:51:29.000Z</time>
      </trkpt>
      <trkpt lat="48.70536" lon="1.88752">
        <ele>150.80000305176</ele>
        <time>2026-06-16T10:51:30.000Z</time>
      </trkpt>
      <trkpt lat="48.70535" lon="1.88735">
        <ele>150.19999694824</ele>
        <time>2026-06-16T10:51:31.000Z</time>
      </trkpt>
      <trkpt lat="48.70534" lon="1.88702">
        <ele>149.39999389648</ele>
        <time>2026-06-16T10:51:33.000Z</time>
      </trkpt>
      <trkpt lat="48.70536" lon="1.88683">
        <ele>148.80000305176</ele>
        <time>2026-06-16T10:51:34.000Z</time>
      </trkpt>
      <trkpt lat="48.70529" lon="1.88631">
        <ele>147.19999694824</ele>
        <time>2026-06-16T10:51:37.000Z</time>
      </trkpt>
      <trkpt lat="48.70528" lon="1.88616">
        <ele>146.39999389648</ele>
        <time>2026-06-16T10:51:38.000Z</time>
      </trkpt>
      <trkpt lat="48.70527" lon="1.88602">
        <ele>145.80000305176</ele>
        <time>2026-06-16T10:51:39.000Z</time>
      </trkpt>
      <trkpt lat="48.70525" lon="1.88587">
        <ele>145.39999389648</ele>
        <time>2026-06-16T10:51:40.000Z</time>
      </trkpt>
      <trkpt lat="48.70521" lon="1.88572">
        <ele>144.60000610352</ele>
        <time>2026-06-16T10:51:41.000Z</time>
      </trkpt>
      <trkpt lat="48.70515" lon="1.8856">
        <ele>143.60000610352</ele>
        <time>2026-06-16T10:51:42.000Z</time>
      </trkpt>
      <trkpt lat="48.70509" lon="1.8855">
        <ele>143.39999389648</ele>
        <time>2026-06-16T10:51:43.000Z</time>
      </trkpt>
      <trkpt lat="48.70501" lon="1.88542">
        <ele>142.19999694824</ele>
        <time>2026-06-16T10:51:44.000Z</time>
      </trkpt>
      <trkpt lat="48.70483" lon="1.88528">
        <ele>141</ele>
        <time>2026-06-16T10:51:46.000Z</time>
      </trkpt>
      <trkpt lat="48.70472" lon="1.88525">
        <ele>140.60000610352</ele>
        <time>2026-06-16T10:51:47.000Z</time>
      </trkpt>
      <trkpt lat="48.70451" lon="1.88521">
        <ele>139</ele>
        <time>2026-06-16T10:51:49.000Z</time>
      </trkpt>
      <trkpt lat="48.70428" lon="1.88521">
        <ele>137.80000305176</ele>
        <time>2026-06-16T10:51:51.000Z</time>
      </trkpt>
      <trkpt lat="48.70405" lon="1.88522">
        <ele>136.60000610352</ele>
        <time>2026-06-16T10:51:53.000Z</time>
      </trkpt>
      <trkpt lat="48.70383" lon="1.88523">
        <ele>135</ele>
        <time>2026-06-16T10:51:55.000Z</time>
      </trkpt>
      <trkpt lat="48.7036" lon="1.88523">
        <ele>133.80000305176</ele>
        <time>2026-06-16T10:51:57.000Z</time>
      </trkpt>
      <trkpt lat="48.7034" lon="1.88522">
        <ele>132.80000305176</ele>
        <time>2026-06-16T10:51:59.000Z</time>
      </trkpt>
      <trkpt lat="48.70314" lon="1.88522">
        <ele>132.39999389648</ele>
        <time>2026-06-16T10:52:02.000Z</time>
      </trkpt>
      <trkpt lat="48.70289" lon="1.88523">
        <ele>132.60000610352</ele>
        <time>2026-06-16T10:52:06.000Z</time>
      </trkpt>
      <trkpt lat="48.7027" lon="1.88524">
        <ele>133.60000610352</ele>
        <time>2026-06-16T10:52:10.000Z</time>
      </trkpt>
      <trkpt lat="48.70266" lon="1.88523">
        <ele>133.80000305176</ele>
        <time>2026-06-16T10:52:11.000Z</time>
      </trkpt>
      <trkpt lat="48.70263" lon="1.88522">
        <ele>134</ele>
        <time>2026-06-16T10:52:12.000Z</time>
      </trkpt>
      <trkpt lat="48.70254" lon="1.88519">
        <ele>134.60000610352</ele>
        <time>2026-06-16T10:52:14.000Z</time>
      </trkpt>
      <trkpt lat="48.70247" lon="1.8851">
        <ele>135</ele>
        <time>2026-06-16T10:52:16.000Z</time>
      </trkpt>
      <trkpt lat="48.70245" lon="1.88505">
        <ele>135.19999694824</ele>
        <time>2026-06-16T10:52:17.000Z</time>
      </trkpt>
      <trkpt lat="48.70242" lon="1.88491">
        <ele>135.60000610352</ele>
        <time>2026-06-16T10:52:19.000Z</time>
      </trkpt>
      <trkpt lat="48.70246" lon="1.88456">
        <ele>135.80000305176</ele>
        <time>2026-06-16T10:52:23.000Z</time>
      </trkpt>
      <trkpt lat="48.70247" lon="1.88446">
        <ele>135.60000610352</ele>
        <time>2026-06-16T10:52:24.000Z</time>
      </trkpt>
      <trkpt lat="48.7025" lon="1.88428">
        <ele>135.60000610352</ele>
        <time>2026-06-16T10:52:26.000Z</time>
      </trkpt>
      <trkpt lat="48.70252" lon="1.88407">
        <ele>135.39999389648</ele>
        <time>2026-06-16T10:52:28.000Z</time>
      </trkpt>
      <trkpt lat="48.70254" lon="1.88361">
        <ele>134.80000305176</ele>
        <time>2026-06-16T10:52:32.000Z</time>
      </trkpt>
      <trkpt lat="48.70253" lon="1.88348">
        <ele>134.39999389648</ele>
        <time>2026-06-16T10:52:33.000Z</time>
      </trkpt>
      <trkpt lat="48.70252" lon="1.88336">
        <ele>133.80000305176</ele>
        <time>2026-06-16T10:52:34.000Z</time>
      </trkpt>
      <trkpt lat="48.70245" lon="1.88287">
        <ele>132.60000610352</ele>
        <time>2026-06-16T10:52:38.000Z</time>
      </trkpt>
      <trkpt lat="48.70244" lon="1.88274">
        <ele>132.19999694824</ele>
        <time>2026-06-16T10:52:39.000Z</time>
      </trkpt>
      <trkpt lat="48.70236" lon="1.88228">
        <ele>131.39999389648</ele>
        <time>2026-06-16T10:52:43.000Z</time>
      </trkpt>
      <trkpt lat="48.70235" lon="1.88219">
        <ele>131.39999389648</ele>
        <time>2026-06-16T10:52:44.000Z</time>
      </trkpt>
      <trkpt lat="48.70234" lon="1.88206">
        <ele>131</ele>
        <time>2026-06-16T10:52:45.000Z</time>
      </trkpt>
      <trkpt lat="48.70236" lon="1.88184">
        <ele>130.80000305176</ele>
        <time>2026-06-16T10:52:47.000Z</time>
      </trkpt>
      <trkpt lat="48.70238" lon="1.88173">
        <ele>130.80000305176</ele>
        <time>2026-06-16T10:52:48.000Z</time>
      </trkpt>
      <trkpt lat="48.70241" lon="1.88164">
        <ele>130.80000305176</ele>
        <time>2026-06-16T10:52:49.000Z</time>
      </trkpt>
      <trkpt lat="48.70254" lon="1.88138">
        <ele>130.80000305176</ele>
        <time>2026-06-16T10:52:52.000Z</time>
      </trkpt>
      <trkpt lat="48.70292" lon="1.88073">
        <ele>132.19999694824</ele>
        <time>2026-06-16T10:53:00.000Z</time>
      </trkpt>
      <trkpt lat="48.703" lon="1.88058">
        <ele>132.19999694824</ele>
        <time>2026-06-16T10:53:02.000Z</time>
      </trkpt>
      <trkpt lat="48.70318" lon="1.8803">
        <ele>132.80000305176</ele>
        <time>2026-06-16T10:53:06.000Z</time>
      </trkpt>
      <trkpt lat="48.70326" lon="1.88018">
        <ele>133.19999694824</ele>
        <time>2026-06-16T10:53:08.000Z</time>
      </trkpt>
      <trkpt lat="48.7033" lon="1.88012">
        <ele>133.39999389648</ele>
        <time>2026-06-16T10:53:09.000Z</time>
      </trkpt>
      <trkpt lat="48.70343" lon="1.87991">
        <ele>133.80000305176</ele>
        <time>2026-06-16T10:53:12.000Z</time>
      </trkpt>
      <trkpt lat="48.70374" lon="1.8793">
        <ele>133.80000305176</ele>
        <time>2026-06-16T10:53:21.000Z</time>
      </trkpt>
      <trkpt lat="48.70398" lon="1.87884">
        <ele>133</ele>
        <time>2026-06-16T10:53:28.000Z</time>
      </trkpt>
      <trkpt lat="48.70405" lon="1.87872">
        <ele>133</ele>
        <time>2026-06-16T10:53:30.000Z</time>
      </trkpt>
      <trkpt lat="48.70423" lon="1.87836">
        <ele>133</ele>
        <time>2026-06-16T10:53:35.000Z</time>
      </trkpt>
      <trkpt lat="48.70452" lon="1.8778">
        <ele>133.19999694824</ele>
        <time>2026-06-16T10:53:43.000Z</time>
      </trkpt>
      <trkpt lat="48.70459" lon="1.87768">
        <ele>133.39999389648</ele>
        <time>2026-06-16T10:53:45.000Z</time>
      </trkpt>
      <trkpt lat="48.70474" lon="1.8774">
        <ele>133.39999389648</ele>
        <time>2026-06-16T10:53:49.000Z</time>
      </trkpt>
      <trkpt lat="48.7049" lon="1.87714">
        <ele>133.60000610352</ele>
        <time>2026-06-16T10:53:53.000Z</time>
      </trkpt>
      <trkpt lat="48.70499" lon="1.877">
        <ele>133.60000610352</ele>
        <time>2026-06-16T10:53:55.000Z</time>
      </trkpt>
      <trkpt lat="48.70504" lon="1.87692">
        <ele>133.60000610352</ele>
        <time>2026-06-16T10:53:56.000Z</time>
      </trkpt>
      <trkpt lat="48.70519" lon="1.87664">
        <ele>133.80000305176</ele>
        <time>2026-06-16T10:54:00.000Z</time>
      </trkpt>
      <trkpt lat="48.70523" lon="1.87656">
        <ele>134</ele>
        <time>2026-06-16T10:54:01.000Z</time>
      </trkpt>
      <trkpt lat="48.70553" lon="1.87598">
        <ele>134.60000610352</ele>
        <time>2026-06-16T10:54:09.000Z</time>
      </trkpt>
      <trkpt lat="48.70566" lon="1.87572">
        <ele>135.19999694824</ele>
        <time>2026-06-16T10:54:13.000Z</time>
      </trkpt>
      <trkpt lat="48.70574" lon="1.87551">
        <ele>135.39999389648</ele>
        <time>2026-06-16T10:54:16.000Z</time>
      </trkpt>
      <trkpt lat="48.70577" lon="1.87544">
        <ele>135.60000610352</ele>
        <time>2026-06-16T10:54:17.000Z</time>
      </trkpt>
      <trkpt lat="48.70581" lon="1.87525">
        <ele>135.80000305176</ele>
        <time>2026-06-16T10:54:20.000Z</time>
      </trkpt>
      <trkpt lat="48.70582" lon="1.87518">
        <ele>135.80000305176</ele>
        <time>2026-06-16T10:54:21.000Z</time>
      </trkpt>
      <trkpt lat="48.70582" lon="1.87509">
        <ele>136</ele>
        <time>2026-06-16T10:54:22.000Z</time>
      </trkpt>
      <trkpt lat="48.70583" lon="1.87487">
        <ele>136.80000305176</ele>
        <time>2026-06-16T10:54:25.000Z</time>
      </trkpt>
      <trkpt lat="48.70583" lon="1.87479">
        <ele>137.19999694824</ele>
        <time>2026-06-16T10:54:26.000Z</time>
      </trkpt>
      <trkpt lat="48.70586" lon="1.87442">
        <ele>137.80000305176</ele>
        <time>2026-06-16T10:54:31.000Z</time>
      </trkpt>
      <trkpt lat="48.70589" lon="1.87414">
        <ele>138.39999389648</ele>
        <time>2026-06-16T10:54:35.000Z</time>
      </trkpt>
      <trkpt lat="48.70591" lon="1.87402">
        <ele>138.60000610352</ele>
        <time>2026-06-16T10:54:37.000Z</time>
      </trkpt>
      <trkpt lat="48.70594" lon="1.87389">
        <ele>139</ele>
        <time>2026-06-16T10:54:39.000Z</time>
      </trkpt>
      <trkpt lat="48.70596" lon="1.87383">
        <ele>139.19999694824</ele>
        <time>2026-06-16T10:54:40.000Z</time>
      </trkpt>
      <trkpt lat="48.70597" lon="1.87378">
        <ele>139.39999389648</ele>
        <time>2026-06-16T10:54:41.000Z</time>
      </trkpt>
      <trkpt lat="48.706" lon="1.87366">
        <ele>139.60000610352</ele>
        <time>2026-06-16T10:54:43.000Z</time>
      </trkpt>
      <trkpt lat="48.70603" lon="1.87358">
        <ele>139.80000305176</ele>
        <time>2026-06-16T10:54:44.000Z</time>
      </trkpt>
      <trkpt lat="48.70608" lon="1.87338">
        <ele>140</ele>
        <time>2026-06-16T10:54:47.000Z</time>
      </trkpt>
      <trkpt lat="48.70612" lon="1.87324">
        <ele>140.19999694824</ele>
        <time>2026-06-16T10:54:49.000Z</time>
      </trkpt>
      <trkpt lat="48.70614" lon="1.87317">
        <ele>140.39999389648</ele>
        <time>2026-06-16T10:54:50.000Z</time>
      </trkpt>
      <trkpt lat="48.70628" lon="1.87274">
        <ele>141.19999694824</ele>
        <time>2026-06-16T10:54:56.000Z</time>
      </trkpt>
      <trkpt lat="48.7063" lon="1.87267">
        <ele>141.39999389648</ele>
        <time>2026-06-16T10:54:57.000Z</time>
      </trkpt>
      <trkpt lat="48.70648" lon="1.87209">
        <ele>141.60000610352</ele>
        <time>2026-06-16T10:55:05.000Z</time>
      </trkpt>
      <trkpt lat="48.70662" lon="1.87158">
        <ele>141.80000305176</ele>
        <time>2026-06-16T10:55:12.000Z</time>
      </trkpt>
      <trkpt lat="48.70681" lon="1.87094">
        <ele>142</ele>
        <time>2026-06-16T10:55:21.000Z</time>
      </trkpt>
      <trkpt lat="48.70696" lon="1.87044">
        <ele>142.19999694824</ele>
        <time>2026-06-16T10:55:28.000Z</time>
      </trkpt>
      <trkpt lat="48.707" lon="1.87033">
        <ele>142.19999694824</ele>
        <time>2026-06-16T10:55:30.000Z</time>
      </trkpt>
      <trkpt lat="48.70702" lon="1.87025">
        <ele>142.19999694824</ele>
        <time>2026-06-16T10:55:31.000Z</time>
      </trkpt>
      <trkpt lat="48.70705" lon="1.87007">
        <ele>142.39999389648</ele>
        <time>2026-06-16T10:55:34.000Z</time>
      </trkpt>
      <trkpt lat="48.70711" lon="1.86981">
        <ele>143</ele>
        <time>2026-06-16T10:55:40.000Z</time>
      </trkpt>
      <trkpt lat="48.70715" lon="1.86974">
        <ele>143.39999389648</ele>
        <time>2026-06-16T10:55:42.000Z</time>
      </trkpt>
      <trkpt lat="48.70725" lon="1.86962">
        <ele>144.60000610352</ele>
        <time>2026-06-16T10:55:47.000Z</time>
      </trkpt>
      <trkpt lat="48.70731" lon="1.8695">
        <ele>145.80000305176</ele>
        <time>2026-06-16T10:55:53.000Z</time>
      </trkpt>
      <trkpt lat="48.7073" lon="1.86945">
        <ele>146</ele>
        <time>2026-06-16T10:55:54.000Z</time>
      </trkpt>
      <trkpt lat="48.70726" lon="1.86933">
        <ele>146.19999694824</ele>
        <time>2026-06-16T10:55:56.000Z</time>
      </trkpt>
      <trkpt lat="48.70722" lon="1.86926">
        <ele>146.19999694824</ele>
        <time>2026-06-16T10:55:57.000Z</time>
      </trkpt>
      <trkpt lat="48.70693" lon="1.86883">
        <ele>146.19999694824</ele>
        <time>2026-06-16T10:56:04.000Z</time>
      </trkpt>
      <trkpt lat="48.70658" lon="1.86838">
        <ele>145.19999694824</ele>
        <time>2026-06-16T10:56:12.000Z</time>
      </trkpt>
      <trkpt lat="48.70645" lon="1.86824">
        <ele>145.19999694824</ele>
        <time>2026-06-16T10:56:15.000Z</time>
      </trkpt>
      <trkpt lat="48.70634" lon="1.86809">
        <ele>145.39999389648</ele>
        <time>2026-06-16T10:56:18.000Z</time>
      </trkpt>
      <trkpt lat="48.70627" lon="1.868">
        <ele>146</ele>
        <time>2026-06-16T10:56:20.000Z</time>
      </trkpt>
      <trkpt lat="48.7062" lon="1.86792">
        <ele>146.19999694824</ele>
        <time>2026-06-16T10:56:22.000Z</time>
      </trkpt>
      <trkpt lat="48.70617" lon="1.86788">
        <ele>146.39999389648</ele>
        <time>2026-06-16T10:56:23.000Z</time>
      </trkpt>
      <trkpt lat="48.70614" lon="1.86785">
        <ele>146.60000610352</ele>
        <time>2026-06-16T10:56:24.000Z</time>
      </trkpt>
      <trkpt lat="48.70603" lon="1.86772">
        <ele>147.39999389648</ele>
        <time>2026-06-16T10:56:28.000Z</time>
      </trkpt>
      <trkpt lat="48.70597" lon="1.86765">
        <ele>147.60000610352</ele>
        <time>2026-06-16T10:56:30.000Z</time>
      </trkpt>
      <trkpt lat="48.70583" lon="1.86748">
        <ele>148.60000610352</ele>
        <time>2026-06-16T10:56:35.000Z</time>
      </trkpt>
      <trkpt lat="48.7058" lon="1.86744">
        <ele>148.80000305176</ele>
        <time>2026-06-16T10:56:36.000Z</time>
      </trkpt>
      <trkpt lat="48.70567" lon="1.86726">
        <ele>150</ele>
        <time>2026-06-16T10:56:41.000Z</time>
      </trkpt>
      <trkpt lat="48.70561" lon="1.86719">
        <ele>150.19999694824</ele>
        <time>2026-06-16T10:56:43.000Z</time>
      </trkpt>
      <trkpt lat="48.70554" lon="1.8671">
        <ele>151</ele>
        <time>2026-06-16T10:56:46.000Z</time>
      </trkpt>
      <trkpt lat="48.70552" lon="1.86708">
        <ele>151</ele>
        <time>2026-06-16T10:56:47.000Z</time>
      </trkpt>
      <trkpt lat="48.7055" lon="1.86705">
        <ele>151.39999389648</ele>
        <time>2026-06-16T10:56:48.000Z</time>
      </trkpt>
      <trkpt lat="48.70541" lon="1.86695">
        <ele>152.19999694824</ele>
        <time>2026-06-16T10:56:51.000Z</time>
      </trkpt>
      <trkpt lat="48.70532" lon="1.86683">
        <ele>152.60000610352</ele>
        <time>2026-06-16T10:56:54.000Z</time>
      </trkpt>
      <trkpt lat="48.70523" lon="1.8667">
        <ele>153.19999694824</ele>
        <time>2026-06-16T10:56:57.000Z</time>
      </trkpt>
      <trkpt lat="48.70504" lon="1.86645">
        <ele>154.19999694824</ele>
        <time>2026-06-16T10:57:02.000Z</time>
      </trkpt>
      <trkpt lat="48.70477" lon="1.86609">
        <ele>155.39999389648</ele>
        <time>2026-06-16T10:57:09.000Z</time>
      </trkpt>
      <trkpt lat="48.70457" lon="1.86585">
        <ele>156.19999694824</ele>
        <time>2026-06-16T10:57:14.000Z</time>
      </trkpt>
      <trkpt lat="48.70449" lon="1.86574">
        <ele>156.39999389648</ele>
        <time>2026-06-16T10:57:16.000Z</time>
      </trkpt>
      <trkpt lat="48.70446" lon="1.86568">
        <ele>156.60000610352</ele>
        <time>2026-06-16T10:57:17.000Z</time>
      </trkpt>
      <trkpt lat="48.70422" lon="1.86534">
        <ele>157.39999389648</ele>
        <time>2026-06-16T10:57:24.000Z</time>
      </trkpt>
      <trkpt lat="48.70411" lon="1.86521">
        <ele>157.60000610352</ele>
        <time>2026-06-16T10:57:27.000Z</time>
      </trkpt>
      <trkpt lat="48.70389" lon="1.86493">
        <ele>158.80000305176</ele>
        <time>2026-06-16T10:57:33.000Z</time>
      </trkpt>
      <trkpt lat="48.70378" lon="1.86479">
        <ele>159.19999694824</ele>
        <time>2026-06-16T10:57:36.000Z</time>
      </trkpt>
      <trkpt lat="48.70349" lon="1.86446">
        <ele>159.60000610352</ele>
        <time>2026-06-16T10:57:43.000Z</time>
      </trkpt>
      <trkpt lat="48.70345" lon="1.8644">
        <ele>159.80000305176</ele>
        <time>2026-06-16T10:57:44.000Z</time>
      </trkpt>
      <trkpt lat="48.70341" lon="1.86434">
        <ele>159.80000305176</ele>
        <time>2026-06-16T10:57:45.000Z</time>
      </trkpt>
      <trkpt lat="48.70323" lon="1.86411">
        <ele>160</ele>
        <time>2026-06-16T10:57:49.000Z</time>
      </trkpt>
      <trkpt lat="48.70292" lon="1.86372">
        <ele>160</ele>
        <time>2026-06-16T10:57:56.000Z</time>
      </trkpt>
      <trkpt lat="48.70259" lon="1.86328">
        <ele>160.19999694824</ele>
        <time>2026-06-16T10:58:04.000Z</time>
      </trkpt>
      <trkpt lat="48.70242" lon="1.86307">
        <ele>160.39999389648</ele>
        <time>2026-06-16T10:58:08.000Z</time>
      </trkpt>
      <trkpt lat="48.70227" lon="1.86288">
        <ele>160.60000610352</ele>
        <time>2026-06-16T10:58:12.000Z</time>
      </trkpt>
      <trkpt lat="48.7022" lon="1.86276">
        <ele>160.80000305176</ele>
        <time>2026-06-16T10:58:15.000Z</time>
      </trkpt>
      <trkpt lat="48.70215" lon="1.86268">
        <ele>160.80000305176</ele>
        <time>2026-06-16T10:58:17.000Z</time>
      </trkpt>
      <trkpt lat="48.70192" lon="1.86236">
        <ele>161.19999694824</ele>
        <time>2026-06-16T10:58:24.000Z</time>
      </trkpt>
      <trkpt lat="48.70176" lon="1.86216">
        <ele>161.80000305176</ele>
        <time>2026-06-16T10:58:28.000Z</time>
      </trkpt>
      <trkpt lat="48.70169" lon="1.86206">
        <ele>162</ele>
        <time>2026-06-16T10:58:30.000Z</time>
      </trkpt>
      <trkpt lat="48.70144" lon="1.86171">
        <ele>162.39999389648</ele>
        <time>2026-06-16T10:58:38.000Z</time>
      </trkpt>
      <trkpt lat="48.70137" lon="1.86164">
        <ele>162.39999389648</ele>
        <time>2026-06-16T10:58:42.000Z</time>
      </trkpt>
      <trkpt lat="48.70124" lon="1.86148">
        <ele>162.19999694824</ele>
        <time>2026-06-16T10:58:47.000Z</time>
      </trkpt>
      <trkpt lat="48.70104" lon="1.86121">
        <ele>162.19999694824</ele>
        <time>2026-06-16T10:58:52.000Z</time>
      </trkpt>
      <trkpt lat="48.70071" lon="1.86079">
        <ele>162</ele>
        <time>2026-06-16T10:59:00.000Z</time>
      </trkpt>
      <trkpt lat="48.70067" lon="1.86074">
        <ele>161.80000305176</ele>
        <time>2026-06-16T10:59:01.000Z</time>
      </trkpt>
      <trkpt lat="48.70024" lon="1.8602">
        <ele>161.60000610352</ele>
        <time>2026-06-16T10:59:11.000Z</time>
      </trkpt>
      <trkpt lat="48.7002" lon="1.86014">
        <ele>161.39999389648</ele>
        <time>2026-06-16T10:59:12.000Z</time>
      </trkpt>
      <trkpt lat="48.69987" lon="1.85972">
        <ele>161.19999694824</ele>
        <time>2026-06-16T10:59:20.000Z</time>
      </trkpt>
      <trkpt lat="48.69956" lon="1.85932">
        <ele>161</ele>
        <time>2026-06-16T10:59:27.000Z</time>
      </trkpt>
      <trkpt lat="48.69926" lon="1.85894">
        <ele>160.80000305176</ele>
        <time>2026-06-16T10:59:34.000Z</time>
      </trkpt>
      <trkpt lat="48.69917" lon="1.85882">
        <ele>160.60000610352</ele>
        <time>2026-06-16T10:59:36.000Z</time>
      </trkpt>
      <trkpt lat="48.69893" lon="1.85852">
        <ele>160.19999694824</ele>
        <time>2026-06-16T10:59:42.000Z</time>
      </trkpt>
      <trkpt lat="48.69862" lon="1.85812">
        <ele>159.60000610352</ele>
        <time>2026-06-16T10:59:50.000Z</time>
      </trkpt>
      <trkpt lat="48.69826" lon="1.85765">
        <ele>159.39999389648</ele>
        <time>2026-06-16T11:00:00.000Z</time>
      </trkpt>
      <trkpt lat="48.69816" lon="1.85751">
        <ele>159.19999694824</ele>
        <time>2026-06-16T11:00:03.000Z</time>
      </trkpt>
      <trkpt lat="48.69803" lon="1.85737">
        <ele>159.19999694824</ele>
        <time>2026-06-16T11:00:06.000Z</time>
      </trkpt>
      <trkpt lat="48.6978" lon="1.85707">
        <ele>159</ele>
        <time>2026-06-16T11:00:12.000Z</time>
      </trkpt>
      <trkpt lat="48.69764" lon="1.85687">
        <ele>159</ele>
        <time>2026-06-16T11:00:16.000Z</time>
      </trkpt>
      <trkpt lat="48.69756" lon="1.85679">
        <ele>159</ele>
        <time>2026-06-16T11:00:18.000Z</time>
      </trkpt>
      <trkpt lat="48.69751" lon="1.8567">
        <ele>159</ele>
        <time>2026-06-16T11:00:20.000Z</time>
      </trkpt>
      <trkpt lat="48.69747" lon="1.85659">
        <ele>159</ele>
        <time>2026-06-16T11:00:22.000Z</time>
      </trkpt>
      <trkpt lat="48.6974" lon="1.85651">
        <ele>159.19999694824</ele>
        <time>2026-06-16T11:00:24.000Z</time>
      </trkpt>
      <trkpt lat="48.69735" lon="1.85649">
        <ele>159.19999694824</ele>
        <time>2026-06-16T11:00:25.000Z</time>
      </trkpt>
      <trkpt lat="48.69726" lon="1.85646">
        <ele>159.19999694824</ele>
        <time>2026-06-16T11:00:27.000Z</time>
      </trkpt>
      <trkpt lat="48.69712" lon="1.85636">
        <ele>159.39999389648</ele>
        <time>2026-06-16T11:00:30.000Z</time>
      </trkpt>
      <trkpt lat="48.69678" lon="1.85601">
        <ele>159.39999389648</ele>
        <time>2026-06-16T11:00:38.000Z</time>
      </trkpt>
      <trkpt lat="48.69654" lon="1.85577">
        <ele>159.39999389648</ele>
        <time>2026-06-16T11:00:44.000Z</time>
      </trkpt>
      <trkpt lat="48.69632" lon="1.85557">
        <ele>159.39999389648</ele>
        <time>2026-06-16T11:00:49.000Z</time>
      </trkpt>
      <trkpt lat="48.69614" lon="1.8554">
        <ele>159.39999389648</ele>
        <time>2026-06-16T11:00:53.000Z</time>
      </trkpt>
      <trkpt lat="48.6958" lon="1.85505">
        <ele>159.80000305176</ele>
        <time>2026-06-16T11:01:01.000Z</time>
      </trkpt>
      <trkpt lat="48.69556" lon="1.85481">
        <ele>160</ele>
        <time>2026-06-16T11:01:07.000Z</time>
      </trkpt>
      <trkpt lat="48.69549" lon="1.85473">
        <ele>160.19999694824</ele>
        <time>2026-06-16T11:01:09.000Z</time>
      </trkpt>
      <trkpt lat="48.69545" lon="1.85469">
        <ele>160.19999694824</ele>
        <time>2026-06-16T11:01:10.000Z</time>
      </trkpt>
      <trkpt lat="48.69538" lon="1.85461">
        <ele>160.19999694824</ele>
        <time>2026-06-16T11:01:12.000Z</time>
      </trkpt>
      <trkpt lat="48.69536" lon="1.85458">
        <ele>160.19999694824</ele>
        <time>2026-06-16T11:01:13.000Z</time>
      </trkpt>
      <trkpt lat="48.69522" lon="1.85446">
        <ele>160.39999389648</ele>
        <time>2026-06-16T11:01:17.000Z</time>
      </trkpt>
      <trkpt lat="48.69513" lon="1.85437">
        <ele>160.39999389648</ele>
        <time>2026-06-16T11:01:22.000Z</time>
      </trkpt>
      <trkpt lat="48.69512" lon="1.85437">
        <ele>160.39999389648</ele>
        <time>2026-06-16T11:01:26.000Z</time>
      </trkpt>
      <trkpt lat="48.69511" lon="1.85437">
        <ele>160</ele>
        <time>2026-06-16T11:01:43.000Z</time>
      </trkpt>
      <trkpt lat="48.69511" lon="1.85436">
        <ele>159.80000305176</ele>
        <time>2026-06-16T11:01:55.000Z</time>
      </trkpt>
      <trkpt lat="48.69509" lon="1.85434">
        <ele>159.80000305176</ele>
        <time>2026-06-16T11:01:56.000Z</time>
      </trkpt>
      <trkpt lat="48.69506" lon="1.85431">
        <ele>159.80000305176</ele>
        <time>2026-06-16T11:01:58.000Z</time>
      </trkpt>
      <trkpt lat="48.69504" lon="1.85429">
        <ele>159.80000305176</ele>
        <time>2026-06-16T11:01:59.000Z</time>
      </trkpt>
      <trkpt lat="48.69495" lon="1.85423">
        <ele>159.80000305176</ele>
        <time>2026-06-16T11:02:02.000Z</time>
      </trkpt>
      <trkpt lat="48.69478" lon="1.8541">
        <ele>159.80000305176</ele>
        <time>2026-06-16T11:02:07.000Z</time>
      </trkpt>
      <trkpt lat="48.69457" lon="1.85392">
        <ele>160</ele>
        <time>2026-06-16T11:02:13.000Z</time>
      </trkpt>
      <trkpt lat="48.69447" lon="1.85387">
        <ele>160.19999694824</ele>
        <time>2026-06-16T11:02:15.000Z</time>
      </trkpt>
      <trkpt lat="48.69422" lon="1.85378">
        <ele>160.19999694824</ele>
        <time>2026-06-16T11:02:20.000Z</time>
      </trkpt>
      <trkpt lat="48.69412" lon="1.85374">
        <ele>160.60000610352</ele>
        <time>2026-06-16T11:02:22.000Z</time>
      </trkpt>
      <trkpt lat="48.69402" lon="1.85371">
        <ele>160.60000610352</ele>
        <time>2026-06-16T11:02:24.000Z</time>
      </trkpt>
      <trkpt lat="48.69365" lon="1.85365">
        <ele>161</ele>
        <time>2026-06-16T11:02:31.000Z</time>
      </trkpt>
      <trkpt lat="48.69344" lon="1.8536">
        <ele>161.60000610352</ele>
        <time>2026-06-16T11:02:35.000Z</time>
      </trkpt>
      <trkpt lat="48.69333" lon="1.85354">
        <ele>162</ele>
        <time>2026-06-16T11:02:37.000Z</time>
      </trkpt>
      <trkpt lat="48.69329" lon="1.85351">
        <ele>162.19999694824</ele>
        <time>2026-06-16T11:02:38.000Z</time>
      </trkpt>
      <trkpt lat="48.69315" lon="1.85344">
        <ele>162.19999694824</ele>
        <time>2026-06-16T11:02:41.000Z</time>
      </trkpt>
      <trkpt lat="48.69309" lon="1.85341">
        <ele>162.39999389648</ele>
        <time>2026-06-16T11:02:42.000Z</time>
      </trkpt>
      <trkpt lat="48.69274" lon="1.85323">
        <ele>162.19999694824</ele>
        <time>2026-06-16T11:02:50.000Z</time>
      </trkpt>
      <trkpt lat="48.69261" lon="1.85317">
        <ele>162.19999694824</ele>
        <time>2026-06-16T11:02:53.000Z</time>
      </trkpt>
      <trkpt lat="48.69252" lon="1.85313">
        <ele>162</ele>
        <time>2026-06-16T11:02:55.000Z</time>
      </trkpt>
      <trkpt lat="48.69247" lon="1.8531">
        <ele>162</ele>
        <time>2026-06-16T11:02:56.000Z</time>
      </trkpt>
      <trkpt lat="48.69235" lon="1.85306">
        <ele>161.80000305176</ele>
        <time>2026-06-16T11:02:59.000Z</time>
      </trkpt>
      <trkpt lat="48.69219" lon="1.853">
        <ele>161.80000305176</ele>
        <time>2026-06-16T11:03:03.000Z</time>
      </trkpt>
      <trkpt lat="48.69182" lon="1.8528">
        <ele>161.80000305176</ele>
        <time>2026-06-16T11:03:12.000Z</time>
      </trkpt>
      <trkpt lat="48.69153" lon="1.85265">
        <ele>161.80000305176</ele>
        <time>2026-06-16T11:03:18.000Z</time>
      </trkpt>
      <trkpt lat="48.69115" lon="1.85246">
        <ele>161.19999694824</ele>
        <time>2026-06-16T11:03:26.000Z</time>
      </trkpt>
      <trkpt lat="48.69111" lon="1.85244">
        <ele>161</ele>
        <time>2026-06-16T11:03:27.000Z</time>
      </trkpt>
      <trkpt lat="48.69099" lon="1.85238">
        <ele>161</ele>
        <time>2026-06-16T11:03:29.000Z</time>
      </trkpt>
      <trkpt lat="48.69095" lon="1.85234">
        <ele>160.80000305176</ele>
        <time>2026-06-16T11:03:30.000Z</time>
      </trkpt>
      <trkpt lat="48.69091" lon="1.85222">
        <ele>160.80000305176</ele>
        <time>2026-06-16T11:03:32.000Z</time>
      </trkpt>
      <trkpt lat="48.69091" lon="1.85216">
        <ele>160.80000305176</ele>
        <time>2026-06-16T11:03:33.000Z</time>
      </trkpt>
      <trkpt lat="48.69094" lon="1.85207">
        <ele>160.60000610352</ele>
        <time>2026-06-16T11:03:34.000Z</time>
      </trkpt>
      <trkpt lat="48.69097" lon="1.85199">
        <ele>160.60000610352</ele>
        <time>2026-06-16T11:03:35.000Z</time>
      </trkpt>
      <trkpt lat="48.69104" lon="1.85184">
        <ele>160.39999389648</ele>
        <time>2026-06-16T11:03:37.000Z</time>
      </trkpt>
      <trkpt lat="48.69119" lon="1.85146">
        <ele>160.39999389648</ele>
        <time>2026-06-16T11:03:42.000Z</time>
      </trkpt>
      <trkpt lat="48.69154" lon="1.85074">
        <ele>160.80000305176</ele>
        <time>2026-06-16T11:03:52.000Z</time>
      </trkpt>
      <trkpt lat="48.69174" lon="1.85037">
        <ele>161</ele>
        <time>2026-06-16T11:03:58.000Z</time>
      </trkpt>
      <trkpt lat="48.69196" lon="1.85001">
        <ele>161.39999389648</ele>
        <time>2026-06-16T11:04:04.000Z</time>
      </trkpt>
      <trkpt lat="48.69201" lon="1.84993">
        <ele>161.39999389648</ele>
        <time>2026-06-16T11:04:05.000Z</time>
      </trkpt>
      <trkpt lat="48.69209" lon="1.84981">
        <ele>161.60000610352</ele>
        <time>2026-06-16T11:04:07.000Z</time>
      </trkpt>
      <trkpt lat="48.69224" lon="1.84956">
        <ele>162</ele>
        <time>2026-06-16T11:04:11.000Z</time>
      </trkpt>
      <trkpt lat="48.69249" lon="1.84911">
        <ele>162.60000610352</ele>
        <time>2026-06-16T11:04:19.000Z</time>
      </trkpt>
      <trkpt lat="48.69252" lon="1.84906">
        <ele>162.80000305176</ele>
        <time>2026-06-16T11:04:20.000Z</time>
      </trkpt>
      <trkpt lat="48.69275" lon="1.84868">
        <ele>163.19999694824</ele>
        <time>2026-06-16T11:04:27.000Z</time>
      </trkpt>
      <trkpt lat="48.69292" lon="1.84839">
        <ele>163.60000610352</ele>
        <time>2026-06-16T11:04:32.000Z</time>
      </trkpt>
      <trkpt lat="48.69298" lon="1.84827">
        <ele>163.60000610352</ele>
        <time>2026-06-16T11:04:34.000Z</time>
      </trkpt>
      <trkpt lat="48.69302" lon="1.84821">
        <ele>163.60000610352</ele>
        <time>2026-06-16T11:04:35.000Z</time>
      </trkpt>
      <trkpt lat="48.69321" lon="1.84783">
        <ele>164.19999694824</ele>
        <time>2026-06-16T11:04:41.000Z</time>
      </trkpt>
      <trkpt lat="48.69324" lon="1.84777">
        <ele>164.19999694824</ele>
        <time>2026-06-16T11:04:42.000Z</time>
      </trkpt>
      <trkpt lat="48.69349" lon="1.84722">
        <ele>164.80000305176</ele>
        <time>2026-06-16T11:04:50.000Z</time>
      </trkpt>
      <trkpt lat="48.69381" lon="1.84656">
        <ele>164.80000305176</ele>
        <time>2026-06-16T11:05:00.000Z</time>
      </trkpt>
      <trkpt lat="48.69386" lon="1.84641">
        <ele>164.60000610352</ele>
        <time>2026-06-16T11:05:02.000Z</time>
      </trkpt>
      <trkpt lat="48.69414" lon="1.84567">
        <ele>164.39999389648</ele>
        <time>2026-06-16T11:05:12.000Z</time>
      </trkpt>
      <trkpt lat="48.69416" lon="1.84561">
        <ele>164.39999389648</ele>
        <time>2026-06-16T11:05:13.000Z</time>
      </trkpt>
      <trkpt lat="48.69427" lon="1.8453">
        <ele>164.19999694824</ele>
        <time>2026-06-16T11:05:17.000Z</time>
      </trkpt>
      <trkpt lat="48.69432" lon="1.84516">
        <ele>164.19999694824</ele>
        <time>2026-06-16T11:05:19.000Z</time>
      </trkpt>
      <trkpt lat="48.69436" lon="1.84503">
        <ele>164.39999389648</ele>
        <time>2026-06-16T11:05:21.000Z</time>
      </trkpt>
      <trkpt lat="48.69451" lon="1.84456">
        <ele>164.60000610352</ele>
        <time>2026-06-16T11:05:27.000Z</time>
      </trkpt>
      <trkpt lat="48.69463" lon="1.84422">
        <ele>164.60000610352</ele>
        <time>2026-06-16T11:05:32.000Z</time>
      </trkpt>
      <trkpt lat="48.69468" lon="1.84408">
        <ele>164.39999389648</ele>
        <time>2026-06-16T11:05:34.000Z</time>
      </trkpt>
      <trkpt lat="48.69486" lon="1.84354">
        <ele>164.39999389648</ele>
        <time>2026-06-16T11:05:41.000Z</time>
      </trkpt>
      <trkpt lat="48.69502" lon="1.84285">
        <ele>164.39999389648</ele>
        <time>2026-06-16T11:05:50.000Z</time>
      </trkpt>
      <trkpt lat="48.69506" lon="1.84259">
        <ele>164.19999694824</ele>
        <time>2026-06-16T11:05:53.000Z</time>
      </trkpt>
      <trkpt lat="48.69512" lon="1.84227">
        <ele>164</ele>
        <time>2026-06-16T11:05:57.000Z</time>
      </trkpt>
      <trkpt lat="48.69522" lon="1.84178">
        <ele>163.80000305176</ele>
        <time>2026-06-16T11:06:03.000Z</time>
      </trkpt>
      <trkpt lat="48.69527" lon="1.84154">
        <ele>163.60000610352</ele>
        <time>2026-06-16T11:06:06.000Z</time>
      </trkpt>
      <trkpt lat="48.69538" lon="1.84098">
        <ele>163.19999694824</ele>
        <time>2026-06-16T11:06:13.000Z</time>
      </trkpt>
      <trkpt lat="48.69555" lon="1.84037">
        <ele>163.19999694824</ele>
        <time>2026-06-16T11:06:21.000Z</time>
      </trkpt>
      <trkpt lat="48.6958" lon="1.83986">
        <ele>163.60000610352</ele>
        <time>2026-06-16T11:06:29.000Z</time>
      </trkpt>
      <trkpt lat="48.69616" lon="1.83939">
        <ele>164</ele>
        <time>2026-06-16T11:06:38.000Z</time>
      </trkpt>
      <trkpt lat="48.69662" lon="1.83899">
        <ele>164.19999694824</ele>
        <time>2026-06-16T11:06:48.000Z</time>
      </trkpt>
      <trkpt lat="48.69682" lon="1.83883">
        <ele>164.39999389648</ele>
        <time>2026-06-16T11:06:52.000Z</time>
      </trkpt>
      <trkpt lat="48.69705" lon="1.83863">
        <ele>164.60000610352</ele>
        <time>2026-06-16T11:06:57.000Z</time>
      </trkpt>
      <trkpt lat="48.69739" lon="1.83831">
        <ele>164.80000305176</ele>
        <time>2026-06-16T11:07:04.000Z</time>
      </trkpt>
      <trkpt lat="48.69744" lon="1.83827">
        <ele>164.80000305176</ele>
        <time>2026-06-16T11:07:05.000Z</time>
      </trkpt>
      <trkpt lat="48.69789" lon="1.83789">
        <ele>165.19999694824</ele>
        <time>2026-06-16T11:07:13.000Z</time>
      </trkpt>
      <trkpt lat="48.69831" lon="1.83752">
        <ele>165.39999389648</ele>
        <time>2026-06-16T11:07:21.000Z</time>
      </trkpt>
      <trkpt lat="48.69865" lon="1.83713">
        <ele>165.39999389648</ele>
        <time>2026-06-16T11:07:28.000Z</time>
      </trkpt>
      <trkpt lat="48.69897" lon="1.83659">
        <ele>165.19999694824</ele>
        <time>2026-06-16T11:07:36.000Z</time>
      </trkpt>
      <trkpt lat="48.69925" lon="1.836">
        <ele>165</ele>
        <time>2026-06-16T11:07:44.000Z</time>
      </trkpt>
      <trkpt lat="48.6993" lon="1.83586">
        <ele>165</ele>
        <time>2026-06-16T11:07:46.000Z</time>
      </trkpt>
      <trkpt lat="48.69953" lon="1.83532">
        <ele>164.80000305176</ele>
        <time>2026-06-16T11:07:53.000Z</time>
      </trkpt>
      <trkpt lat="48.69983" lon="1.83462">
        <ele>164.60000610352</ele>
        <time>2026-06-16T11:08:02.000Z</time>
      </trkpt>
      <trkpt lat="48.69986" lon="1.83455">
        <ele>164.60000610352</ele>
        <time>2026-06-16T11:08:03.000Z</time>
      </trkpt>
      <trkpt lat="48.70006" lon="1.83403">
        <ele>164.60000610352</ele>
        <time>2026-06-16T11:08:10.000Z</time>
      </trkpt>
      <trkpt lat="48.70031" lon="1.83324">
        <ele>164.60000610352</ele>
        <time>2026-06-16T11:08:20.000Z</time>
      </trkpt>
      <trkpt lat="48.70052" lon="1.83259">
        <ele>164.80000305176</ele>
        <time>2026-06-16T11:08:29.000Z</time>
      </trkpt>
      <trkpt lat="48.70079" lon="1.83183">
        <ele>164.80000305176</ele>
        <time>2026-06-16T11:08:39.000Z</time>
      </trkpt>
      <trkpt lat="48.70109" lon="1.83106">
        <ele>165.19999694824</ele>
        <time>2026-06-16T11:08:49.000Z</time>
      </trkpt>
      <trkpt lat="48.70112" lon="1.83098">
        <ele>165.19999694824</ele>
        <time>2026-06-16T11:08:50.000Z</time>
      </trkpt>
      <trkpt lat="48.7014" lon="1.83021">
        <ele>165.39999389648</ele>
        <time>2026-06-16T11:09:00.000Z</time>
      </trkpt>
      <trkpt lat="48.70143" lon="1.83013">
        <ele>165.39999389648</ele>
        <time>2026-06-16T11:09:01.000Z</time>
      </trkpt>
      <trkpt lat="48.70163" lon="1.82946">
        <ele>165.39999389648</ele>
        <time>2026-06-16T11:09:09.000Z</time>
      </trkpt>
      <trkpt lat="48.70181" lon="1.82873">
        <ele>165.19999694824</ele>
        <time>2026-06-16T11:09:18.000Z</time>
      </trkpt>
      <trkpt lat="48.70201" lon="1.8279">
        <ele>165</ele>
        <time>2026-06-16T11:09:28.000Z</time>
      </trkpt>
      <trkpt lat="48.70205" lon="1.82774">
        <ele>165.19999694824</ele>
        <time>2026-06-16T11:09:30.000Z</time>
      </trkpt>
      <trkpt lat="48.70226" lon="1.82691">
        <ele>165.39999389648</ele>
        <time>2026-06-16T11:09:40.000Z</time>
      </trkpt>
      <trkpt lat="48.70228" lon="1.82683">
        <ele>165.39999389648</ele>
        <time>2026-06-16T11:09:41.000Z</time>
      </trkpt>
      <trkpt lat="48.70247" lon="1.82601">
        <ele>165.60000610352</ele>
        <time>2026-06-16T11:09:51.000Z</time>
      </trkpt>
      <trkpt lat="48.7025" lon="1.82584">
        <ele>165.39999389648</ele>
        <time>2026-06-16T11:09:53.000Z</time>
      </trkpt>
      <trkpt lat="48.70259" lon="1.82513">
        <ele>165.39999389648</ele>
        <time>2026-06-16T11:10:01.000Z</time>
      </trkpt>
      <trkpt lat="48.70267" lon="1.82435">
        <ele>165.60000610352</ele>
        <time>2026-06-16T11:10:10.000Z</time>
      </trkpt>
      <trkpt lat="48.70274" lon="1.82363">
        <ele>165.60000610352</ele>
        <time>2026-06-16T11:10:18.000Z</time>
      </trkpt>
      <trkpt lat="48.70283" lon="1.82294">
        <ele>165.39999389648</ele>
        <time>2026-06-16T11:10:26.000Z</time>
      </trkpt>
      <trkpt lat="48.70301" lon="1.82218">
        <ele>165.39999389648</ele>
        <time>2026-06-16T11:10:35.000Z</time>
      </trkpt>
      <trkpt lat="48.70325" lon="1.82149">
        <ele>166</ele>
        <time>2026-06-16T11:10:43.000Z</time>
      </trkpt>
      <trkpt lat="48.7035" lon="1.82082">
        <ele>165.60000610352</ele>
        <time>2026-06-16T11:10:52.000Z</time>
      </trkpt>
      <trkpt lat="48.70361" lon="1.82052">
        <ele>165.60000610352</ele>
        <time>2026-06-16T11:10:56.000Z</time>
      </trkpt>
      <trkpt lat="48.70367" lon="1.82038">
        <ele>165.80000305176</ele>
        <time>2026-06-16T11:10:58.000Z</time>
      </trkpt>
      <trkpt lat="48.70373" lon="1.82022">
        <ele>165.80000305176</ele>
        <time>2026-06-16T11:11:00.000Z</time>
      </trkpt>
      <trkpt lat="48.70384" lon="1.81994">
        <ele>165.80000305176</ele>
        <time>2026-06-16T11:11:04.000Z</time>
      </trkpt>
      <trkpt lat="48.70393" lon="1.81967">
        <ele>166.19999694824</ele>
        <time>2026-06-16T11:11:08.000Z</time>
      </trkpt>
      <trkpt lat="48.70399" lon="1.81951">
        <ele>166.19999694824</ele>
        <time>2026-06-16T11:11:10.000Z</time>
      </trkpt>
      <trkpt lat="48.70417" lon="1.81897">
        <ele>166.19999694824</ele>
        <time>2026-06-16T11:11:17.000Z</time>
      </trkpt>
      <trkpt lat="48.7042" lon="1.81889">
        <ele>166.19999694824</ele>
        <time>2026-06-16T11:11:18.000Z</time>
      </trkpt>
      <trkpt lat="48.70436" lon="1.81845">
        <ele>166.39999389648</ele>
        <time>2026-06-16T11:11:23.000Z</time>
      </trkpt>
      <trkpt lat="48.70448" lon="1.81805">
        <ele>166.39999389648</ele>
        <time>2026-06-16T11:11:28.000Z</time>
      </trkpt>
      <trkpt lat="48.70462" lon="1.81764">
        <ele>166</ele>
        <time>2026-06-16T11:11:33.000Z</time>
      </trkpt>
      <trkpt lat="48.70467" lon="1.81746">
        <ele>166</ele>
        <time>2026-06-16T11:11:35.000Z</time>
      </trkpt>
      <trkpt lat="48.7048" lon="1.81715">
        <ele>166</ele>
        <time>2026-06-16T11:11:39.000Z</time>
      </trkpt>
      <trkpt lat="48.70483" lon="1.81708">
        <ele>166</ele>
        <time>2026-06-16T11:11:40.000Z</time>
      </trkpt>
      <trkpt lat="48.70496" lon="1.81671">
        <ele>166</ele>
        <time>2026-06-16T11:11:45.000Z</time>
      </trkpt>
      <trkpt lat="48.70519" lon="1.81608">
        <ele>165.60000610352</ele>
        <time>2026-06-16T11:11:53.000Z</time>
      </trkpt>
      <trkpt lat="48.70543" lon="1.81538">
        <ele>165.39999389648</ele>
        <time>2026-06-16T11:12:01.000Z</time>
      </trkpt>
      <trkpt lat="48.70567" lon="1.81476">
        <ele>165.39999389648</ele>
        <time>2026-06-16T11:12:08.000Z</time>
      </trkpt>
      <trkpt lat="48.70581" lon="1.8143">
        <ele>165.39999389648</ele>
        <time>2026-06-16T11:12:14.000Z</time>
      </trkpt>
      <trkpt lat="48.70596" lon="1.81388">
        <ele>165.39999389648</ele>
        <time>2026-06-16T11:12:19.000Z</time>
      </trkpt>
      <trkpt lat="48.70599" lon="1.8138">
        <ele>165.39999389648</ele>
        <time>2026-06-16T11:12:20.000Z</time>
      </trkpt>
      <trkpt lat="48.70603" lon="1.81373">
        <ele>165.39999389648</ele>
        <time>2026-06-16T11:12:21.000Z</time>
      </trkpt>
      <trkpt lat="48.70615" lon="1.81342">
        <ele>165.19999694824</ele>
        <time>2026-06-16T11:12:25.000Z</time>
      </trkpt>
      <trkpt lat="48.70628" lon="1.81302">
        <ele>165</ele>
        <time>2026-06-16T11:12:31.000Z</time>
      </trkpt>
      <trkpt lat="48.70633" lon="1.81289">
        <ele>165</ele>
        <time>2026-06-16T11:12:33.000Z</time>
      </trkpt>
      <trkpt lat="48.70638" lon="1.81277">
        <ele>164.80000305176</ele>
        <time>2026-06-16T11:12:35.000Z</time>
      </trkpt>
      <trkpt lat="48.70647" lon="1.81269">
        <ele>164.80000305176</ele>
        <time>2026-06-16T11:12:37.000Z</time>
      </trkpt>
      <trkpt lat="48.70656" lon="1.81267">
        <ele>164.80000305176</ele>
        <time>2026-06-16T11:12:39.000Z</time>
      </trkpt>
      <trkpt lat="48.7068" lon="1.81285">
        <ele>164.80000305176</ele>
        <time>2026-06-16T11:12:43.000Z</time>
      </trkpt>
      <trkpt lat="48.70685" lon="1.81289">
        <ele>164.60000610352</ele>
        <time>2026-06-16T11:12:44.000Z</time>
      </trkpt>
      <trkpt lat="48.70725" lon="1.81316">
        <ele>164</ele>
        <time>2026-06-16T11:12:51.000Z</time>
      </trkpt>
      <trkpt lat="48.70731" lon="1.81317">
        <ele>164</ele>
        <time>2026-06-16T11:12:52.000Z</time>
      </trkpt>
      <trkpt lat="48.7074" lon="1.8131">
        <ele>163.80000305176</ele>
        <time>2026-06-16T11:12:54.000Z</time>
      </trkpt>
      <trkpt lat="48.70746" lon="1.81294">
        <ele>163.80000305176</ele>
        <time>2026-06-16T11:12:56.000Z</time>
      </trkpt>
      <trkpt lat="48.70748" lon="1.81285">
        <ele>163.80000305176</ele>
        <time>2026-06-16T11:12:57.000Z</time>
      </trkpt>
      <trkpt lat="48.70752" lon="1.81266">
        <ele>163.60000610352</ele>
        <time>2026-06-16T11:12:59.000Z</time>
      </trkpt>
      <trkpt lat="48.7076" lon="1.81227">
        <ele>163.60000610352</ele>
        <time>2026-06-16T11:13:03.000Z</time>
      </trkpt>
      <trkpt lat="48.7078" lon="1.81148">
        <ele>163.39999389648</ele>
        <time>2026-06-16T11:13:12.000Z</time>
      </trkpt>
      <trkpt lat="48.70801" lon="1.81067">
        <ele>163.60000610352</ele>
        <time>2026-06-16T11:13:21.000Z</time>
      </trkpt>
      <trkpt lat="48.70808" lon="1.81039">
        <ele>163.60000610352</ele>
        <time>2026-06-16T11:13:24.000Z</time>
      </trkpt>
      <trkpt lat="48.7083" lon="1.8096">
        <ele>163.80000305176</ele>
        <time>2026-06-16T11:13:33.000Z</time>
      </trkpt>
      <trkpt lat="48.70832" lon="1.80952">
        <ele>163.80000305176</ele>
        <time>2026-06-16T11:13:34.000Z</time>
      </trkpt>
      <trkpt lat="48.70846" lon="1.80902">
        <ele>163.80000305176</ele>
        <time>2026-06-16T11:13:40.000Z</time>
      </trkpt>
      <trkpt lat="48.7087" lon="1.80815">
        <ele>164.19999694824</ele>
        <time>2026-06-16T11:13:50.000Z</time>
      </trkpt>
      <trkpt lat="48.70891" lon="1.80738">
        <ele>164.39999389648</ele>
        <time>2026-06-16T11:13:59.000Z</time>
      </trkpt>
      <trkpt lat="48.70893" lon="1.80729">
        <ele>164.39999389648</ele>
        <time>2026-06-16T11:14:00.000Z</time>
      </trkpt>
      <trkpt lat="48.70916" lon="1.80652">
        <ele>164.39999389648</ele>
        <time>2026-06-16T11:14:09.000Z</time>
      </trkpt>
      <trkpt lat="48.70938" lon="1.80576">
        <ele>164.19999694824</ele>
        <time>2026-06-16T11:14:18.000Z</time>
      </trkpt>
      <trkpt lat="48.7094" lon="1.80567">
        <ele>164.19999694824</ele>
        <time>2026-06-16T11:14:19.000Z</time>
      </trkpt>
      <trkpt lat="48.70962" lon="1.80491">
        <ele>164.39999389648</ele>
        <time>2026-06-16T11:14:28.000Z</time>
      </trkpt>
      <trkpt lat="48.70964" lon="1.80482">
        <ele>164.19999694824</ele>
        <time>2026-06-16T11:14:29.000Z</time>
      </trkpt>
      <trkpt lat="48.70966" lon="1.80464">
        <ele>164.39999389648</ele>
        <time>2026-06-16T11:14:31.000Z</time>
      </trkpt>
      <trkpt lat="48.70967" lon="1.80435">
        <ele>164.19999694824</ele>
        <time>2026-06-16T11:14:34.000Z</time>
      </trkpt>
      <trkpt lat="48.7096" lon="1.8038">
        <ele>164.19999694824</ele>
        <time>2026-06-16T11:14:40.000Z</time>
      </trkpt>
      <trkpt lat="48.70941" lon="1.80297">
        <ele>164.19999694824</ele>
        <time>2026-06-16T11:14:50.000Z</time>
      </trkpt>
      <trkpt lat="48.70919" lon="1.80223">
        <ele>164.19999694824</ele>
        <time>2026-06-16T11:14:59.000Z</time>
      </trkpt>
      <trkpt lat="48.70896" lon="1.80165">
        <ele>164.60000610352</ele>
        <time>2026-06-16T11:15:06.000Z</time>
      </trkpt>
      <trkpt lat="48.70872" lon="1.80112">
        <ele>164.39999389648</ele>
        <time>2026-06-16T11:15:13.000Z</time>
      </trkpt>
      <trkpt lat="48.7084" lon="1.80039">
        <ele>163.80000305176</ele>
        <time>2026-06-16T11:15:23.000Z</time>
      </trkpt>
      <trkpt lat="48.7081" lon="1.79969">
        <ele>163.80000305176</ele>
        <time>2026-06-16T11:15:32.000Z</time>
      </trkpt>
      <trkpt lat="48.70807" lon="1.79962">
        <ele>163.80000305176</ele>
        <time>2026-06-16T11:15:33.000Z</time>
      </trkpt>
      <trkpt lat="48.70781" lon="1.79905">
        <ele>163.39999389648</ele>
        <time>2026-06-16T11:15:41.000Z</time>
      </trkpt>
      <trkpt lat="48.70772" lon="1.79884">
        <ele>163.39999389648</ele>
        <time>2026-06-16T11:15:44.000Z</time>
      </trkpt>
      <trkpt lat="48.70768" lon="1.79868">
        <ele>163.39999389648</ele>
        <time>2026-06-16T11:15:46.000Z</time>
      </trkpt>
      <trkpt lat="48.70767" lon="1.7986">
        <ele>163.39999389648</ele>
        <time>2026-06-16T11:15:47.000Z</time>
      </trkpt>
      <trkpt lat="48.70768" lon="1.79843">
        <ele>163.39999389648</ele>
        <time>2026-06-16T11:15:49.000Z</time>
      </trkpt>
      <trkpt lat="48.70769" lon="1.79835">
        <ele>163.39999389648</ele>
        <time>2026-06-16T11:15:50.000Z</time>
      </trkpt>
      <trkpt lat="48.70771" lon="1.79827">
        <ele>163.39999389648</ele>
        <time>2026-06-16T11:15:51.000Z</time>
      </trkpt>
      <trkpt lat="48.70776" lon="1.79812">
        <ele>163.60000610352</ele>
        <time>2026-06-16T11:15:53.000Z</time>
      </trkpt>
      <trkpt lat="48.70782" lon="1.79799">
        <ele>163.60000610352</ele>
        <time>2026-06-16T11:15:55.000Z</time>
      </trkpt>
      <trkpt lat="48.70788" lon="1.79786">
        <ele>163.80000305176</ele>
        <time>2026-06-16T11:15:57.000Z</time>
      </trkpt>
      <trkpt lat="48.70799" lon="1.79765">
        <ele>164</ele>
        <time>2026-06-16T11:16:00.000Z</time>
      </trkpt>
      <trkpt lat="48.70811" lon="1.79744">
        <ele>164</ele>
        <time>2026-06-16T11:16:03.000Z</time>
      </trkpt>
      <trkpt lat="48.70828" lon="1.79717">
        <ele>164.19999694824</ele>
        <time>2026-06-16T11:16:07.000Z</time>
      </trkpt>
      <trkpt lat="48.70862" lon="1.7967">
        <ele>164.19999694824</ele>
        <time>2026-06-16T11:16:14.000Z</time>
      </trkpt>
      <trkpt lat="48.70903" lon="1.79616">
        <ele>164.19999694824</ele>
        <time>2026-06-16T11:16:22.000Z</time>
      </trkpt>
      <trkpt lat="48.70946" lon="1.79565">
        <ele>163.80000305176</ele>
        <time>2026-06-16T11:16:30.000Z</time>
      </trkpt>
      <trkpt lat="48.70956" lon="1.79552">
        <ele>163.80000305176</ele>
        <time>2026-06-16T11:16:32.000Z</time>
      </trkpt>
      <trkpt lat="48.70997" lon="1.79495">
        <ele>163.39999389648</ele>
        <time>2026-06-16T11:16:40.000Z</time>
      </trkpt>
      <trkpt lat="48.71009" lon="1.79476">
        <ele>163.39999389648</ele>
        <time>2026-06-16T11:16:42.000Z</time>
      </trkpt>
      <trkpt lat="48.71043" lon="1.79424">
        <ele>164</ele>
        <time>2026-06-16T11:16:50.000Z</time>
      </trkpt>
      <trkpt lat="48.71074" lon="1.79373">
        <ele>164.60000610352</ele>
        <time>2026-06-16T11:16:57.000Z</time>
      </trkpt>
      <trkpt lat="48.71079" lon="1.79365">
        <ele>164.80000305176</ele>
        <time>2026-06-16T11:16:58.000Z</time>
      </trkpt>
      <trkpt lat="48.71117" lon="1.79298">
        <ele>165.19999694824</ele>
        <time>2026-06-16T11:17:07.000Z</time>
      </trkpt>
      <trkpt lat="48.71121" lon="1.79292">
        <ele>165.39999389648</ele>
        <time>2026-06-16T11:17:08.000Z</time>
      </trkpt>
      <trkpt lat="48.71127" lon="1.79281">
        <ele>165.60000610352</ele>
        <time>2026-06-16T11:17:10.000Z</time>
      </trkpt>
      <trkpt lat="48.71134" lon="1.79264">
        <ele>165.60000610352</ele>
        <time>2026-06-16T11:17:13.000Z</time>
      </trkpt>
      <trkpt lat="48.71138" lon="1.79253">
        <ele>165.80000305176</ele>
        <time>2026-06-16T11:17:15.000Z</time>
      </trkpt>
      <trkpt lat="48.71144" lon="1.79236">
        <ele>166</ele>
        <time>2026-06-16T11:17:18.000Z</time>
      </trkpt>
      <trkpt lat="48.71172" lon="1.79174">
        <ele>165.60000610352</ele>
        <time>2026-06-16T11:17:27.000Z</time>
      </trkpt>
      <trkpt lat="48.71185" lon="1.7913">
        <ele>165.39999389648</ele>
        <time>2026-06-16T11:17:31.000Z</time>
      </trkpt>
      <trkpt lat="48.71191" lon="1.79111">
        <ele>165.19999694824</ele>
        <time>2026-06-16T11:17:33.000Z</time>
      </trkpt>
      <trkpt lat="48.71207" lon="1.79081">
        <ele>165.19999694824</ele>
        <time>2026-06-16T11:17:36.000Z</time>
      </trkpt>
      <trkpt lat="48.71226" lon="1.79047">
        <ele>164.80000305176</ele>
        <time>2026-06-16T11:17:40.000Z</time>
      </trkpt>
      <trkpt lat="48.71237" lon="1.7903">
        <ele>164.80000305176</ele>
        <time>2026-06-16T11:17:42.000Z</time>
      </trkpt>
      <trkpt lat="48.71261" lon="1.78994">
        <ele>164.39999389648</ele>
        <time>2026-06-16T11:17:46.000Z</time>
      </trkpt>
      <trkpt lat="48.71283" lon="1.78964">
        <ele>164.39999389648</ele>
        <time>2026-06-16T11:17:50.000Z</time>
      </trkpt>
      <trkpt lat="48.71292" lon="1.78948">
        <ele>164.19999694824</ele>
        <time>2026-06-16T11:17:52.000Z</time>
      </trkpt>
      <trkpt lat="48.71307" lon="1.78921">
        <ele>164.19999694824</ele>
        <time>2026-06-16T11:17:56.000Z</time>
      </trkpt>
      <trkpt lat="48.71315" lon="1.78906">
        <ele>164.19999694824</ele>
        <time>2026-06-16T11:17:58.000Z</time>
      </trkpt>
      <trkpt lat="48.71334" lon="1.7886">
        <ele>164.19999694824</ele>
        <time>2026-06-16T11:18:03.000Z</time>
      </trkpt>
      <trkpt lat="48.71336" lon="1.7885">
        <ele>164.19999694824</ele>
        <time>2026-06-16T11:18:04.000Z</time>
      </trkpt>
      <trkpt lat="48.71346" lon="1.7883">
        <ele>164.39999389648</ele>
        <time>2026-06-16T11:18:06.000Z</time>
      </trkpt>
      <trkpt lat="48.71351" lon="1.78811">
        <ele>164.39999389648</ele>
        <time>2026-06-16T11:18:08.000Z</time>
      </trkpt>
      <trkpt lat="48.71353" lon="1.78801">
        <ele>164.39999389648</ele>
        <time>2026-06-16T11:18:09.000Z</time>
      </trkpt>
      <trkpt lat="48.7136" lon="1.78774">
        <ele>164.39999389648</ele>
        <time>2026-06-16T11:18:12.000Z</time>
      </trkpt>
      <trkpt lat="48.71366" lon="1.78756">
        <ele>164.39999389648</ele>
        <time>2026-06-16T11:18:14.000Z</time>
      </trkpt>
      <trkpt lat="48.71378" lon="1.78721">
        <ele>164.39999389648</ele>
        <time>2026-06-16T11:18:18.000Z</time>
      </trkpt>
      <trkpt lat="48.71381" lon="1.78712">
        <ele>164.39999389648</ele>
        <time>2026-06-16T11:18:19.000Z</time>
      </trkpt>
      <trkpt lat="48.71383" lon="1.78704">
        <ele>164.39999389648</ele>
        <time>2026-06-16T11:18:20.000Z</time>
      </trkpt>
      <trkpt lat="48.71396" lon="1.78655">
        <ele>164.39999389648</ele>
        <time>2026-06-16T11:18:26.000Z</time>
      </trkpt>
      <trkpt lat="48.71399" lon="1.78637">
        <ele>164.39999389648</ele>
        <time>2026-06-16T11:18:28.000Z</time>
      </trkpt>
      <trkpt lat="48.71401" lon="1.7862">
        <ele>164.39999389648</ele>
        <time>2026-06-16T11:18:30.000Z</time>
      </trkpt>
      <trkpt lat="48.71407" lon="1.78591">
        <ele>164.60000610352</ele>
        <time>2026-06-16T11:18:33.000Z</time>
      </trkpt>
      <trkpt lat="48.71408" lon="1.78572">
        <ele>164.60000610352</ele>
        <time>2026-06-16T11:18:35.000Z</time>
      </trkpt>
      <trkpt lat="48.71409" lon="1.78561">
        <ele>164.60000610352</ele>
        <time>2026-06-16T11:18:36.000Z</time>
      </trkpt>
      <trkpt lat="48.71412" lon="1.78541">
        <ele>164.60000610352</ele>
        <time>2026-06-16T11:18:38.000Z</time>
      </trkpt>
      <trkpt lat="48.71414" lon="1.7853">
        <ele>164.60000610352</ele>
        <time>2026-06-16T11:18:39.000Z</time>
      </trkpt>
      <trkpt lat="48.71416" lon="1.78519">
        <ele>164.60000610352</ele>
        <time>2026-06-16T11:18:40.000Z</time>
      </trkpt>
      <trkpt lat="48.71419" lon="1.78483">
        <ele>164.39999389648</ele>
        <time>2026-06-16T11:18:43.000Z</time>
      </trkpt>
      <trkpt lat="48.71419" lon="1.78431">
        <ele>164.19999694824</ele>
        <time>2026-06-16T11:18:48.000Z</time>
      </trkpt>
      <trkpt lat="48.71427" lon="1.7839">
        <ele>163.80000305176</ele>
        <time>2026-06-16T11:18:52.000Z</time>
      </trkpt>
      <trkpt lat="48.71427" lon="1.78381">
        <ele>163.80000305176</ele>
        <time>2026-06-16T11:18:53.000Z</time>
      </trkpt>
      <trkpt lat="48.71426" lon="1.7837">
        <ele>163.60000610352</ele>
        <time>2026-06-16T11:18:54.000Z</time>
      </trkpt>
      <trkpt lat="48.71426" lon="1.7835">
        <ele>163.60000610352</ele>
        <time>2026-06-16T11:18:56.000Z</time>
      </trkpt>
      <trkpt lat="48.71426" lon="1.78339">
        <ele>163.39999389648</ele>
        <time>2026-06-16T11:18:57.000Z</time>
      </trkpt>
      <trkpt lat="48.71425" lon="1.78329">
        <ele>163.39999389648</ele>
        <time>2026-06-16T11:18:58.000Z</time>
      </trkpt>
      <trkpt lat="48.71425" lon="1.78309">
        <ele>163</ele>
        <time>2026-06-16T11:19:00.000Z</time>
      </trkpt>
      <trkpt lat="48.71423" lon="1.78277">
        <ele>162.60000610352</ele>
        <time>2026-06-16T11:19:03.000Z</time>
      </trkpt>
      <trkpt lat="48.71421" lon="1.78256">
        <ele>162.19999694824</ele>
        <time>2026-06-16T11:19:05.000Z</time>
      </trkpt>
      <trkpt lat="48.71414" lon="1.78235">
        <ele>162</ele>
        <time>2026-06-16T11:19:07.000Z</time>
      </trkpt>
      <trkpt lat="48.71404" lon="1.78201">
        <ele>161</ele>
        <time>2026-06-16T11:19:11.000Z</time>
      </trkpt>
      <trkpt lat="48.714" lon="1.78184">
        <ele>160.80000305176</ele>
        <time>2026-06-16T11:19:13.000Z</time>
      </trkpt>
      <trkpt lat="48.71399" lon="1.78176">
        <ele>160.60000610352</ele>
        <time>2026-06-16T11:19:14.000Z</time>
      </trkpt>
      <trkpt lat="48.71397" lon="1.78159">
        <ele>160.39999389648</ele>
        <time>2026-06-16T11:19:16.000Z</time>
      </trkpt>
      <trkpt lat="48.71396" lon="1.7815">
        <ele>160.19999694824</ele>
        <time>2026-06-16T11:19:17.000Z</time>
      </trkpt>
      <trkpt lat="48.71397" lon="1.7813">
        <ele>160</ele>
        <time>2026-06-16T11:19:19.000Z</time>
      </trkpt>
      <trkpt lat="48.71399" lon="1.78108">
        <ele>159.60000610352</ele>
        <time>2026-06-16T11:19:21.000Z</time>
      </trkpt>
      <trkpt lat="48.71402" lon="1.78068">
        <ele>159</ele>
        <time>2026-06-16T11:19:25.000Z</time>
      </trkpt>
      <trkpt lat="48.71404" lon="1.78058">
        <ele>158.80000305176</ele>
        <time>2026-06-16T11:19:26.000Z</time>
      </trkpt>
      <trkpt lat="48.71406" lon="1.78034">
        <ele>158.60000610352</ele>
        <time>2026-06-16T11:19:28.000Z</time>
      </trkpt>
      <trkpt lat="48.7141" lon="1.78001">
        <ele>158.19999694824</ele>
        <time>2026-06-16T11:19:31.000Z</time>
      </trkpt>
      <trkpt lat="48.71414" lon="1.77949">
        <ele>157.80000305176</ele>
        <time>2026-06-16T11:19:35.000Z</time>
      </trkpt>
      <trkpt lat="48.71415" lon="1.77936">
        <ele>157.60000610352</ele>
        <time>2026-06-16T11:19:36.000Z</time>
      </trkpt>
      <trkpt lat="48.71418" lon="1.77892">
        <ele>156.60000610352</ele>
        <time>2026-06-16T11:19:40.000Z</time>
      </trkpt>
      <trkpt lat="48.71422" lon="1.77846">
        <ele>156.19999694824</ele>
        <time>2026-06-16T11:19:43.000Z</time>
      </trkpt>
      <trkpt lat="48.71424" lon="1.77833">
        <ele>155.80000305176</ele>
        <time>2026-06-16T11:19:44.000Z</time>
      </trkpt>
      <trkpt lat="48.71428" lon="1.77802">
        <ele>155.39999389648</ele>
        <time>2026-06-16T11:19:46.000Z</time>
      </trkpt>
      <trkpt lat="48.7143" lon="1.77788">
        <ele>155.19999694824</ele>
        <time>2026-06-16T11:19:47.000Z</time>
      </trkpt>
      <trkpt lat="48.71433" lon="1.77773">
        <ele>155</ele>
        <time>2026-06-16T11:19:48.000Z</time>
      </trkpt>
      <trkpt lat="48.71438" lon="1.77745">
        <ele>154.19999694824</ele>
        <time>2026-06-16T11:19:50.000Z</time>
      </trkpt>
      <trkpt lat="48.7144" lon="1.77732">
        <ele>153.60000610352</ele>
        <time>2026-06-16T11:19:51.000Z</time>
      </trkpt>
      <trkpt lat="48.71445" lon="1.77689">
        <ele>152.80000305176</ele>
        <time>2026-06-16T11:19:54.000Z</time>
      </trkpt>
      <trkpt lat="48.71447" lon="1.77661">
        <ele>152.19999694824</ele>
        <time>2026-06-16T11:19:56.000Z</time>
      </trkpt>
      <trkpt lat="48.71448" lon="1.77646">
        <ele>152</ele>
        <time>2026-06-16T11:19:57.000Z</time>
      </trkpt>
      <trkpt lat="48.71447" lon="1.7763">
        <ele>151.19999694824</ele>
        <time>2026-06-16T11:19:58.000Z</time>
      </trkpt>
      <trkpt lat="48.71451" lon="1.77598">
        <ele>150.39999389648</ele>
        <time>2026-06-16T11:20:00.000Z</time>
      </trkpt>
      <trkpt lat="48.71451" lon="1.77582">
        <ele>149.80000305176</ele>
        <time>2026-06-16T11:20:01.000Z</time>
      </trkpt>
      <trkpt lat="48.71451" lon="1.77529">
        <ele>149</ele>
        <time>2026-06-16T11:20:04.000Z</time>
      </trkpt>
      <trkpt lat="48.71453" lon="1.7751">
        <ele>148.39999389648</ele>
        <time>2026-06-16T11:20:05.000Z</time>
      </trkpt>
      <trkpt lat="48.71459" lon="1.7748">
        <ele>147</ele>
        <time>2026-06-16T11:20:07.000Z</time>
      </trkpt>
      <trkpt lat="48.71463" lon="1.77465">
        <ele>146.19999694824</ele>
        <time>2026-06-16T11:20:08.000Z</time>
      </trkpt>
      <trkpt lat="48.7147" lon="1.77451">
        <ele>146</ele>
        <time>2026-06-16T11:20:09.000Z</time>
      </trkpt>
      <trkpt lat="48.71477" lon="1.77437">
        <ele>145.19999694824</ele>
        <time>2026-06-16T11:20:10.000Z</time>
      </trkpt>
      <trkpt lat="48.71484" lon="1.77425">
        <ele>144.80000305176</ele>
        <time>2026-06-16T11:20:11.000Z</time>
      </trkpt>
      <trkpt lat="48.71499" lon="1.77405">
        <ele>143.39999389648</ele>
        <time>2026-06-16T11:20:13.000Z</time>
      </trkpt>
      <trkpt lat="48.71507" lon="1.77397">
        <ele>143.39999389648</ele>
        <time>2026-06-16T11:20:14.000Z</time>
      </trkpt>
      <trkpt lat="48.71522" lon="1.77385">
        <ele>143</ele>
        <time>2026-06-16T11:20:16.000Z</time>
      </trkpt>
      <trkpt lat="48.71539" lon="1.77382">
        <ele>142.60000610352</ele>
        <time>2026-06-16T11:20:18.000Z</time>
      </trkpt>
      <trkpt lat="48.71562" lon="1.77378">
        <ele>142.39999389648</ele>
        <time>2026-06-16T11:20:21.000Z</time>
      </trkpt>
      <trkpt lat="48.71575" lon="1.77376">
        <ele>142.19999694824</ele>
        <time>2026-06-16T11:20:23.000Z</time>
      </trkpt>
      <trkpt lat="48.71608" lon="1.77376">
        <ele>142.19999694824</ele>
        <time>2026-06-16T11:20:28.000Z</time>
      </trkpt>
      <trkpt lat="48.71614" lon="1.77375">
        <ele>142.19999694824</ele>
        <time>2026-06-16T11:20:29.000Z</time>
      </trkpt>
      <trkpt lat="48.71626" lon="1.77373">
        <ele>142.19999694824</ele>
        <time>2026-06-16T11:20:31.000Z</time>
      </trkpt>
      <trkpt lat="48.71639" lon="1.77369">
        <ele>142.39999389648</ele>
        <time>2026-06-16T11:20:33.000Z</time>
      </trkpt>
      <trkpt lat="48.71646" lon="1.77367">
        <ele>142.39999389648</ele>
        <time>2026-06-16T11:20:34.000Z</time>
      </trkpt>
      <trkpt lat="48.71689" lon="1.77351">
        <ele>142.39999389648</ele>
        <time>2026-06-16T11:20:40.000Z</time>
      </trkpt>
      <trkpt lat="48.71724" lon="1.77324">
        <ele>142.19999694824</ele>
        <time>2026-06-16T11:20:45.000Z</time>
      </trkpt>
      <trkpt lat="48.7173" lon="1.77318">
        <ele>142.19999694824</ele>
        <time>2026-06-16T11:20:46.000Z</time>
      </trkpt>
      <trkpt lat="48.71761" lon="1.77289">
        <ele>141.80000305176</ele>
        <time>2026-06-16T11:20:51.000Z</time>
      </trkpt>
      <trkpt lat="48.71797" lon="1.77253">
        <ele>141.19999694824</ele>
        <time>2026-06-16T11:20:56.000Z</time>
      </trkpt>
      <trkpt lat="48.71806" lon="1.77239">
        <ele>141</ele>
        <time>2026-06-16T11:20:58.000Z</time>
      </trkpt>
      <trkpt lat="48.71816" lon="1.77222">
        <ele>140.60000610352</ele>
        <time>2026-06-16T11:21:00.000Z</time>
      </trkpt>
      <trkpt lat="48.7182" lon="1.77212">
        <ele>140.39999389648</ele>
        <time>2026-06-16T11:21:01.000Z</time>
      </trkpt>
      <trkpt lat="48.71824" lon="1.77203">
        <ele>140.19999694824</ele>
        <time>2026-06-16T11:21:02.000Z</time>
      </trkpt>
      <trkpt lat="48.71837" lon="1.77173">
        <ele>139.39999389648</ele>
        <time>2026-06-16T11:21:05.000Z</time>
      </trkpt>
      <trkpt lat="48.71846" lon="1.77152">
        <ele>139</ele>
        <time>2026-06-16T11:21:07.000Z</time>
      </trkpt>
      <trkpt lat="48.71866" lon="1.77105">
        <ele>137.80000305176</ele>
        <time>2026-06-16T11:21:11.000Z</time>
      </trkpt>
      <trkpt lat="48.7187" lon="1.77095">
        <ele>137.39999389648</ele>
        <time>2026-06-16T11:21:12.000Z</time>
      </trkpt>
      <trkpt lat="48.71886" lon="1.77063">
        <ele>136.60000610352</ele>
        <time>2026-06-16T11:21:15.000Z</time>
      </trkpt>
      <trkpt lat="48.7191" lon="1.77011">
        <ele>135.60000610352</ele>
        <time>2026-06-16T11:21:20.000Z</time>
      </trkpt>
      <trkpt lat="48.71915" lon="1.77">
        <ele>135.39999389648</ele>
        <time>2026-06-16T11:21:21.000Z</time>
      </trkpt>
      <trkpt lat="48.71942" lon="1.76945">
        <ele>134.39999389648</ele>
        <time>2026-06-16T11:21:26.000Z</time>
      </trkpt>
      <trkpt lat="48.71947" lon="1.76933">
        <ele>134.19999694824</ele>
        <time>2026-06-16T11:21:27.000Z</time>
      </trkpt>
      <trkpt lat="48.71966" lon="1.76894">
        <ele>133.19999694824</ele>
        <time>2026-06-16T11:21:31.000Z</time>
      </trkpt>
      <trkpt lat="48.7197" lon="1.76887">
        <ele>133.19999694824</ele>
        <time>2026-06-16T11:21:32.000Z</time>
      </trkpt>
      <trkpt lat="48.71972" lon="1.76882">
        <ele>133</ele>
        <time>2026-06-16T11:21:33.000Z</time>
      </trkpt>
      <trkpt lat="48.71979" lon="1.76873">
        <ele>132.39999389648</ele>
        <time>2026-06-16T11:21:35.000Z</time>
      </trkpt>
      <trkpt lat="48.71982" lon="1.7687">
        <ele>132.19999694824</ele>
        <time>2026-06-16T11:21:36.000Z</time>
      </trkpt>
      <trkpt lat="48.71986" lon="1.76866">
        <ele>132</ele>
        <time>2026-06-16T11:21:37.000Z</time>
      </trkpt>
      <trkpt lat="48.71993" lon="1.76856">
        <ele>131.39999389648</ele>
        <time>2026-06-16T11:21:39.000Z</time>
      </trkpt>
      <trkpt lat="48.71995" lon="1.76848">
        <ele>131.39999389648</ele>
        <time>2026-06-16T11:21:40.000Z</time>
      </trkpt>
      <trkpt lat="48.71996" lon="1.7684">
        <ele>131.19999694824</ele>
        <time>2026-06-16T11:21:41.000Z</time>
      </trkpt>
      <trkpt lat="48.72" lon="1.76824">
        <ele>131</ele>
        <time>2026-06-16T11:21:43.000Z</time>
      </trkpt>
      <trkpt lat="48.72006" lon="1.76809">
        <ele>130.60000610352</ele>
        <time>2026-06-16T11:21:45.000Z</time>
      </trkpt>
      <trkpt lat="48.72016" lon="1.76788">
        <ele>130</ele>
        <time>2026-06-16T11:21:48.000Z</time>
      </trkpt>
      <trkpt lat="48.72032" lon="1.76758">
        <ele>129.60000610352</ele>
        <time>2026-06-16T11:21:52.000Z</time>
      </trkpt>
      <trkpt lat="48.72048" lon="1.76726">
        <ele>129</ele>
        <time>2026-06-16T11:21:56.000Z</time>
      </trkpt>
      <trkpt lat="48.72056" lon="1.7671">
        <ele>128.80000305176</ele>
        <time>2026-06-16T11:21:58.000Z</time>
      </trkpt>
      <trkpt lat="48.72079" lon="1.76663">
        <ele>128.60000610352</ele>
        <time>2026-06-16T11:22:04.000Z</time>
      </trkpt>
      <trkpt lat="48.72083" lon="1.76656">
        <ele>128.39999389648</ele>
        <time>2026-06-16T11:22:05.000Z</time>
      </trkpt>
      <trkpt lat="48.72087" lon="1.76652">
        <ele>128.39999389648</ele>
        <time>2026-06-16T11:22:06.000Z</time>
      </trkpt>
      <trkpt lat="48.72099" lon="1.76651">
        <ele>128.39999389648</ele>
        <time>2026-06-16T11:22:08.000Z</time>
      </trkpt>
      <trkpt lat="48.72128" lon="1.76664">
        <ele>127.80000305176</ele>
        <time>2026-06-16T11:22:12.000Z</time>
      </trkpt>
      <trkpt lat="48.72171" lon="1.76695">
        <ele>127.19999694824</ele>
        <time>2026-06-16T11:22:18.000Z</time>
      </trkpt>
      <trkpt lat="48.72192" lon="1.76708">
        <ele>126.59999847412</ele>
        <time>2026-06-16T11:22:21.000Z</time>
      </trkpt>
      <trkpt lat="48.72199" lon="1.76712">
        <ele>126.59999847412</ele>
        <time>2026-06-16T11:22:22.000Z</time>
      </trkpt>
      <trkpt lat="48.72212" lon="1.76715">
        <ele>126.40000152588</ele>
        <time>2026-06-16T11:22:24.000Z</time>
      </trkpt>
      <trkpt lat="48.72254" lon="1.76712">
        <ele>126.19999694824</ele>
        <time>2026-06-16T11:22:30.000Z</time>
      </trkpt>
      <trkpt lat="48.72296" lon="1.76709">
        <ele>125.80000305176</ele>
        <time>2026-06-16T11:22:36.000Z</time>
      </trkpt>
      <trkpt lat="48.7231" lon="1.76711">
        <ele>125.59999847412</ele>
        <time>2026-06-16T11:22:38.000Z</time>
      </trkpt>
      <trkpt lat="48.72344" lon="1.7671">
        <ele>125.40000152588</ele>
        <time>2026-06-16T11:22:43.000Z</time>
      </trkpt>
      <trkpt lat="48.72361" lon="1.76707">
        <ele>125.40000152588</ele>
        <time>2026-06-16T11:22:46.000Z</time>
      </trkpt>
      <trkpt lat="48.72366" lon="1.76704">
        <ele>125.59999847412</ele>
        <time>2026-06-16T11:22:47.000Z</time>
      </trkpt>
      <trkpt lat="48.72385" lon="1.76691">
        <ele>126.80000305176</ele>
        <time>2026-06-16T11:22:51.000Z</time>
      </trkpt>
      <trkpt lat="48.72389" lon="1.76688">
        <ele>127</ele>
        <time>2026-06-16T11:22:52.000Z</time>
      </trkpt>
      <trkpt lat="48.72392" lon="1.76686">
        <ele>127.40000152588</ele>
        <time>2026-06-16T11:22:53.000Z</time>
      </trkpt>
      <trkpt lat="48.724" lon="1.7668">
        <ele>127.80000305176</ele>
        <time>2026-06-16T11:22:55.000Z</time>
      </trkpt>
      <trkpt lat="48.72412" lon="1.76673">
        <ele>128.80000305176</ele>
        <time>2026-06-16T11:22:58.000Z</time>
      </trkpt>
      <trkpt lat="48.72416" lon="1.7667">
        <ele>129.19999694824</ele>
        <time>2026-06-16T11:22:59.000Z</time>
      </trkpt>
      <trkpt lat="48.72428" lon="1.76664">
        <ele>130.19999694824</ele>
        <time>2026-06-16T11:23:02.000Z</time>
      </trkpt>
      <trkpt lat="48.72431" lon="1.76662">
        <ele>130.39999389648</ele>
        <time>2026-06-16T11:23:03.000Z</time>
      </trkpt>
      <trkpt lat="48.72447" lon="1.76651">
        <ele>131.39999389648</ele>
        <time>2026-06-16T11:23:07.000Z</time>
      </trkpt>
      <trkpt lat="48.72457" lon="1.76648">
        <ele>132.19999694824</ele>
        <time>2026-06-16T11:23:10.000Z</time>
      </trkpt>
      <trkpt lat="48.7246" lon="1.76646">
        <ele>132.60000610352</ele>
        <time>2026-06-16T11:23:11.000Z</time>
      </trkpt>
      <trkpt lat="48.72471" lon="1.76633">
        <ele>133.39999389648</ele>
        <time>2026-06-16T11:23:15.000Z</time>
      </trkpt>
      <trkpt lat="48.72474" lon="1.76629">
        <ele>133.60000610352</ele>
        <time>2026-06-16T11:23:16.000Z</time>
      </trkpt>
      <trkpt lat="48.72485" lon="1.76602">
        <ele>134.60000610352</ele>
        <time>2026-06-16T11:23:22.000Z</time>
      </trkpt>
      <trkpt lat="48.72487" lon="1.76597">
        <ele>134.80000305176</ele>
        <time>2026-06-16T11:23:23.000Z</time>
      </trkpt>
      <trkpt lat="48.72501" lon="1.76563">
        <ele>135.60000610352</ele>
        <time>2026-06-16T11:23:30.000Z</time>
      </trkpt>
      <trkpt lat="48.72504" lon="1.76559">
        <ele>136</ele>
        <time>2026-06-16T11:23:31.000Z</time>
      </trkpt>
      <trkpt lat="48.72512" lon="1.76537">
        <ele>136.80000305176</ele>
        <time>2026-06-16T11:23:36.000Z</time>
      </trkpt>
      <trkpt lat="48.72518" lon="1.7652">
        <ele>137.39999389648</ele>
        <time>2026-06-16T11:23:40.000Z</time>
      </trkpt>
      <trkpt lat="48.72522" lon="1.76512">
        <ele>138</ele>
        <time>2026-06-16T11:23:42.000Z</time>
      </trkpt>
      <trkpt lat="48.72528" lon="1.76494">
        <ele>138.80000305176</ele>
        <time>2026-06-16T11:23:47.000Z</time>
      </trkpt>
      <trkpt lat="48.72529" lon="1.76491">
        <ele>139</ele>
        <time>2026-06-16T11:23:48.000Z</time>
      </trkpt>
      <trkpt lat="48.72538" lon="1.76473">
        <ele>139.80000305176</ele>
        <time>2026-06-16T11:23:54.000Z</time>
      </trkpt>
      <trkpt lat="48.72546" lon="1.76458">
        <ele>141.19999694824</ele>
        <time>2026-06-16T11:23:59.000Z</time>
      </trkpt>
      <trkpt lat="48.72551" lon="1.76452">
        <ele>141.80000305176</ele>
        <time>2026-06-16T11:24:01.000Z</time>
      </trkpt>
      <trkpt lat="48.72558" lon="1.76445">
        <ele>142.39999389648</ele>
        <time>2026-06-16T11:24:04.000Z</time>
      </trkpt>
      <trkpt lat="48.72566" lon="1.76439">
        <ele>142.80000305176</ele>
        <time>2026-06-16T11:24:07.000Z</time>
      </trkpt>
      <trkpt lat="48.72576" lon="1.76435">
        <ele>143.39999389648</ele>
        <time>2026-06-16T11:24:10.000Z</time>
      </trkpt>
      <trkpt lat="48.72583" lon="1.76431">
        <ele>144</ele>
        <time>2026-06-16T11:24:12.000Z</time>
      </trkpt>
      <trkpt lat="48.72595" lon="1.76429">
        <ele>144.39999389648</ele>
        <time>2026-06-16T11:24:15.000Z</time>
      </trkpt>
      <trkpt lat="48.72605" lon="1.76428">
        <ele>145</ele>
        <time>2026-06-16T11:24:18.000Z</time>
      </trkpt>
      <trkpt lat="48.72611" lon="1.7643">
        <ele>145.39999389648</ele>
        <time>2026-06-16T11:24:20.000Z</time>
      </trkpt>
      <trkpt lat="48.72625" lon="1.7644">
        <ele>146</ele>
        <time>2026-06-16T11:24:24.000Z</time>
      </trkpt>
      <trkpt lat="48.72631" lon="1.76444">
        <ele>146.80000305176</ele>
        <time>2026-06-16T11:24:26.000Z</time>
      </trkpt>
      <trkpt lat="48.72645" lon="1.76456">
        <ele>147.39999389648</ele>
        <time>2026-06-16T11:24:30.000Z</time>
      </trkpt>
      <trkpt lat="48.72653" lon="1.76467">
        <ele>147.80000305176</ele>
        <time>2026-06-16T11:24:32.000Z</time>
      </trkpt>
      <trkpt lat="48.72659" lon="1.76482">
        <ele>148.60000610352</ele>
        <time>2026-06-16T11:24:35.000Z</time>
      </trkpt>
      <trkpt lat="48.72661" lon="1.76486">
        <ele>148.80000305176</ele>
        <time>2026-06-16T11:24:36.000Z</time>
      </trkpt>
      <trkpt lat="48.72666" lon="1.76499">
        <ele>149.60000610352</ele>
        <time>2026-06-16T11:24:40.000Z</time>
      </trkpt>
      <trkpt lat="48.7267" lon="1.76506">
        <ele>150</ele>
        <time>2026-06-16T11:24:42.000Z</time>
      </trkpt>
      <trkpt lat="48.72673" lon="1.7652">
        <ele>150.60000610352</ele>
        <time>2026-06-16T11:24:45.000Z</time>
      </trkpt>
      <trkpt lat="48.72675" lon="1.76529">
        <ele>151.19999694824</ele>
        <time>2026-06-16T11:24:47.000Z</time>
      </trkpt>
      <trkpt lat="48.72684" lon="1.7655">
        <ele>152.39999389648</ele>
        <time>2026-06-16T11:24:52.000Z</time>
      </trkpt>
      <trkpt lat="48.72685" lon="1.76556">
        <ele>152.60000610352</ele>
        <time>2026-06-16T11:24:53.000Z</time>
      </trkpt>
      <trkpt lat="48.72691" lon="1.76569">
        <ele>153.39999389648</ele>
        <time>2026-06-16T11:24:56.000Z</time>
      </trkpt>
      <trkpt lat="48.72701" lon="1.76587">
        <ele>154.19999694824</ele>
        <time>2026-06-16T11:25:00.000Z</time>
      </trkpt>
      <trkpt lat="48.72705" lon="1.76592">
        <ele>154.60000610352</ele>
        <time>2026-06-16T11:25:01.000Z</time>
      </trkpt>
      <trkpt lat="48.72725" lon="1.76616">
        <ele>155.19999694824</ele>
        <time>2026-06-16T11:25:06.000Z</time>
      </trkpt>
      <trkpt lat="48.72741" lon="1.76636">
        <ele>155.60000610352</ele>
        <time>2026-06-16T11:25:10.000Z</time>
      </trkpt>
      <trkpt lat="48.72749" lon="1.76645">
        <ele>156</ele>
        <time>2026-06-16T11:25:13.000Z</time>
      </trkpt>
      <trkpt lat="48.72772" lon="1.76662">
        <ele>156.19999694824</ele>
        <time>2026-06-16T11:25:18.000Z</time>
      </trkpt>
      <trkpt lat="48.72795" lon="1.76686">
        <ele>156.39999389648</ele>
        <time>2026-06-16T11:25:24.000Z</time>
      </trkpt>
      <trkpt lat="48.72816" lon="1.76707">
        <ele>156.60000610352</ele>
        <time>2026-06-16T11:25:31.000Z</time>
      </trkpt>
      <trkpt lat="48.72838" lon="1.76722">
        <ele>157</ele>
        <time>2026-06-16T11:25:37.000Z</time>
      </trkpt>
      <trkpt lat="48.72865" lon="1.76735">
        <ele>157.60000610352</ele>
        <time>2026-06-16T11:25:44.000Z</time>
      </trkpt>
      <trkpt lat="48.72873" lon="1.76739">
        <ele>157.80000305176</ele>
        <time>2026-06-16T11:25:46.000Z</time>
      </trkpt>
      <trkpt lat="48.72898" lon="1.76752">
        <ele>158.19999694824</ele>
        <time>2026-06-16T11:25:52.000Z</time>
      </trkpt>
      <trkpt lat="48.72912" lon="1.76755">
        <ele>158.60000610352</ele>
        <time>2026-06-16T11:25:55.000Z</time>
      </trkpt>
      <trkpt lat="48.72923" lon="1.76755">
        <ele>158.80000305176</ele>
        <time>2026-06-16T11:25:57.000Z</time>
      </trkpt>
      <trkpt lat="48.72928" lon="1.76758">
        <ele>159</ele>
        <time>2026-06-16T11:25:58.000Z</time>
      </trkpt>
      <trkpt lat="48.72947" lon="1.76768">
        <ele>159.39999389648</ele>
        <time>2026-06-16T11:26:02.000Z</time>
      </trkpt>
      <trkpt lat="48.72955" lon="1.76771">
        <ele>159.60000610352</ele>
        <time>2026-06-16T11:26:04.000Z</time>
      </trkpt>
      <trkpt lat="48.72978" lon="1.76784">
        <ele>159.80000305176</ele>
        <time>2026-06-16T11:26:09.000Z</time>
      </trkpt>
      <trkpt lat="48.72982" lon="1.76786">
        <ele>160</ele>
        <time>2026-06-16T11:26:10.000Z</time>
      </trkpt>
      <trkpt lat="48.73" lon="1.76796">
        <ele>160.39999389648</ele>
        <time>2026-06-16T11:26:14.000Z</time>
      </trkpt>
      <trkpt lat="48.73004" lon="1.76799">
        <ele>160.60000610352</ele>
        <time>2026-06-16T11:26:15.000Z</time>
      </trkpt>
      <trkpt lat="48.73008" lon="1.76802">
        <ele>160.60000610352</ele>
        <time>2026-06-16T11:26:16.000Z</time>
      </trkpt>
      <trkpt lat="48.73012" lon="1.76806">
        <ele>160.60000610352</ele>
        <time>2026-06-16T11:26:17.000Z</time>
      </trkpt>
      <trkpt lat="48.73017" lon="1.76809">
        <ele>160.80000305176</ele>
        <time>2026-06-16T11:26:18.000Z</time>
      </trkpt>
      <trkpt lat="48.73026" lon="1.76815">
        <ele>160.80000305176</ele>
        <time>2026-06-16T11:26:20.000Z</time>
      </trkpt>
      <trkpt lat="48.73035" lon="1.76821">
        <ele>161</ele>
        <time>2026-06-16T11:26:22.000Z</time>
      </trkpt>
      <trkpt lat="48.73055" lon="1.7683">
        <ele>161.19999694824</ele>
        <time>2026-06-16T11:26:26.000Z</time>
      </trkpt>
      <trkpt lat="48.73064" lon="1.76835">
        <ele>161.19999694824</ele>
        <time>2026-06-16T11:26:28.000Z</time>
      </trkpt>
      <trkpt lat="48.73079" lon="1.76839">
        <ele>161.39999389648</ele>
        <time>2026-06-16T11:26:31.000Z</time>
      </trkpt>
      <trkpt lat="48.73089" lon="1.76842">
        <ele>161.39999389648</ele>
        <time>2026-06-16T11:26:33.000Z</time>
      </trkpt>
      <trkpt lat="48.73102" lon="1.76851">
        <ele>161.80000305176</ele>
        <time>2026-06-16T11:26:36.000Z</time>
      </trkpt>
      <trkpt lat="48.73115" lon="1.76854">
        <ele>162</ele>
        <time>2026-06-16T11:26:38.000Z</time>
      </trkpt>
      <trkpt lat="48.73143" lon="1.76867">
        <ele>162.19999694824</ele>
        <time>2026-06-16T11:26:43.000Z</time>
      </trkpt>
      <trkpt lat="48.73163" lon="1.7687">
        <ele>162.39999389648</ele>
        <time>2026-06-16T11:26:47.000Z</time>
      </trkpt>
      <trkpt lat="48.73182" lon="1.76882">
        <ele>162.80000305176</ele>
        <time>2026-06-16T11:26:52.000Z</time>
      </trkpt>
      <trkpt lat="48.73185" lon="1.76884">
        <ele>162.80000305176</ele>
        <time>2026-06-16T11:26:53.000Z</time>
      </trkpt>
      <trkpt lat="48.73211" lon="1.76897">
        <ele>163</ele>
        <time>2026-06-16T11:26:59.000Z</time>
      </trkpt>
      <trkpt lat="48.73216" lon="1.76898">
        <ele>163</ele>
        <time>2026-06-16T11:27:00.000Z</time>
      </trkpt>
      <trkpt lat="48.73231" lon="1.76906">
        <ele>163.39999389648</ele>
        <time>2026-06-16T11:27:03.000Z</time>
      </trkpt>
      <trkpt lat="48.73236" lon="1.76911">
        <ele>163.39999389648</ele>
        <time>2026-06-16T11:27:04.000Z</time>
      </trkpt>
      <trkpt lat="48.73261" lon="1.76928">
        <ele>163.60000610352</ele>
        <time>2026-06-16T11:27:09.000Z</time>
      </trkpt>
      <trkpt lat="48.73267" lon="1.76932">
        <ele>163.60000610352</ele>
        <time>2026-06-16T11:27:10.000Z</time>
      </trkpt>
      <trkpt lat="48.73273" lon="1.76935">
        <ele>163.60000610352</ele>
        <time>2026-06-16T11:27:11.000Z</time>
      </trkpt>
      <trkpt lat="48.73293" lon="1.76952">
        <ele>163.80000305176</ele>
        <time>2026-06-16T11:27:15.000Z</time>
      </trkpt>
      <trkpt lat="48.73333" lon="1.76997">
        <ele>164</ele>
        <time>2026-06-16T11:27:23.000Z</time>
      </trkpt>
      <trkpt lat="48.73362" lon="1.77041">
        <ele>164</ele>
        <time>2026-06-16T11:27:30.000Z</time>
      </trkpt>
      <trkpt lat="48.73386" lon="1.77081">
        <ele>164.19999694824</ele>
        <time>2026-06-16T11:27:36.000Z</time>
      </trkpt>
      <trkpt lat="48.73405" lon="1.77122">
        <ele>164.19999694824</ele>
        <time>2026-06-16T11:27:42.000Z</time>
      </trkpt>
      <trkpt lat="48.73418" lon="1.77149">
        <ele>164.19999694824</ele>
        <time>2026-06-16T11:27:46.000Z</time>
      </trkpt>
      <trkpt lat="48.73425" lon="1.77163">
        <ele>164.19999694824</ele>
        <time>2026-06-16T11:27:48.000Z</time>
      </trkpt>
      <trkpt lat="48.73443" lon="1.77211">
        <ele>164.19999694824</ele>
        <time>2026-06-16T11:27:54.000Z</time>
      </trkpt>
      <trkpt lat="48.73454" lon="1.77234">
        <ele>164</ele>
        <time>2026-06-16T11:27:57.000Z</time>
      </trkpt>
      <trkpt lat="48.73478" lon="1.77289">
        <ele>163.39999389648</ele>
        <time>2026-06-16T11:28:04.000Z</time>
      </trkpt>
      <trkpt lat="48.73509" lon="1.77365">
        <ele>162.80000305176</ele>
        <time>2026-06-16T11:28:13.000Z</time>
      </trkpt>
      <trkpt lat="48.73516" lon="1.77381">
        <ele>162.60000610352</ele>
        <time>2026-06-16T11:28:15.000Z</time>
      </trkpt>
      <trkpt lat="48.7354" lon="1.77433">
        <ele>161.60000610352</ele>
        <time>2026-06-16T11:28:21.000Z</time>
      </trkpt>
      <trkpt lat="48.73544" lon="1.77442">
        <ele>161.60000610352</ele>
        <time>2026-06-16T11:28:22.000Z</time>
      </trkpt>
      <trkpt lat="48.73562" lon="1.77481">
        <ele>160.60000610352</ele>
        <time>2026-06-16T11:28:27.000Z</time>
      </trkpt>
      <trkpt lat="48.73564" lon="1.77486">
        <ele>160.39999389648</ele>
        <time>2026-06-16T11:28:28.000Z</time>
      </trkpt>
      <trkpt lat="48.73567" lon="1.77493">
        <ele>159.60000610352</ele>
        <time>2026-06-16T11:28:30.000Z</time>
      </trkpt>
      <trkpt lat="48.73568" lon="1.77494">
        <ele>159.39999389648</ele>
        <time>2026-06-16T11:28:31.000Z</time>
      </trkpt>
      <trkpt lat="48.73568" lon="1.77496">
        <ele>158.60000610352</ele>
        <time>2026-06-16T11:28:33.000Z</time>
      </trkpt>
      <trkpt lat="48.73568" lon="1.77496">
        <ele>158.19999694824</ele>
        <time>2026-06-16T11:28:35.000Z</time>
      </trkpt>
      <trkpt lat="48.73568" lon="1.77496">
        <ele>157.60000610352</ele>
        <time>2026-06-16T11:28:42.000Z</time>
      </trkpt>
      <trkpt lat="48.73568" lon="1.77496">
        <ele>157.19999694824</ele>
        <time>2026-06-16T11:28:48.000Z</time>
      </trkpt>
      <trkpt lat="48.73568" lon="1.77496">
        <ele>156.80000305176</ele>
        <time>2026-06-16T11:29:05.000Z</time>
      </trkpt>
      <trkpt lat="48.73571" lon="1.77506">
        <ele>156.80000305176</ele>
        <time>2026-06-16T11:29:13.000Z</time>
      </trkpt>
      <trkpt lat="48.73583" lon="1.77533">
        <ele>156.39999389648</ele>
        <time>2026-06-16T11:29:18.000Z</time>
      </trkpt>
      <trkpt lat="48.73589" lon="1.77547">
        <ele>156.19999694824</ele>
        <time>2026-06-16T11:29:20.000Z</time>
      </trkpt>
      <trkpt lat="48.736" lon="1.7757">
        <ele>155.80000305176</ele>
        <time>2026-06-16T11:29:23.000Z</time>
      </trkpt>
      <trkpt lat="48.73612" lon="1.77596">
        <ele>155</ele>
        <time>2026-06-16T11:29:26.000Z</time>
      </trkpt>
      <trkpt lat="48.73622" lon="1.77616">
        <ele>154.60000610352</ele>
        <time>2026-06-16T11:29:28.000Z</time>
      </trkpt>
      <trkpt lat="48.73636" lon="1.77649">
        <ele>153.80000305176</ele>
        <time>2026-06-16T11:29:31.000Z</time>
      </trkpt>
      <trkpt lat="48.73652" lon="1.77684">
        <ele>153</ele>
        <time>2026-06-16T11:29:34.000Z</time>
      </trkpt>
      <trkpt lat="48.73658" lon="1.77696">
        <ele>152.39999389648</ele>
        <time>2026-06-16T11:29:35.000Z</time>
      </trkpt>
      <trkpt lat="48.73674" lon="1.77733">
        <ele>151.39999389648</ele>
        <time>2026-06-16T11:29:38.000Z</time>
      </trkpt>
      <trkpt lat="48.73681" lon="1.77743">
        <ele>151</ele>
        <time>2026-06-16T11:29:39.000Z</time>
      </trkpt>
      <trkpt lat="48.73689" lon="1.77753">
        <ele>150.60000610352</ele>
        <time>2026-06-16T11:29:40.000Z</time>
      </trkpt>
      <trkpt lat="48.73709" lon="1.77769">
        <ele>150</ele>
        <time>2026-06-16T11:29:42.000Z</time>
      </trkpt>
      <trkpt lat="48.73722" lon="1.77772">
        <ele>149</ele>
        <time>2026-06-16T11:29:44.000Z</time>
      </trkpt>
      <trkpt lat="48.73732" lon="1.77773">
        <ele>148.19999694824</ele>
        <time>2026-06-16T11:29:45.000Z</time>
      </trkpt>
      <trkpt lat="48.73747" lon="1.77772">
        <ele>148</ele>
        <time>2026-06-16T11:29:46.000Z</time>
      </trkpt>
      <trkpt lat="48.73756" lon="1.77768">
        <ele>147.39999389648</ele>
        <time>2026-06-16T11:29:47.000Z</time>
      </trkpt>
      <trkpt lat="48.73763" lon="1.77763">
        <ele>147.19999694824</ele>
        <time>2026-06-16T11:29:48.000Z</time>
      </trkpt>
      <trkpt lat="48.73778" lon="1.7775">
        <ele>146.39999389648</ele>
        <time>2026-06-16T11:29:50.000Z</time>
      </trkpt>
      <trkpt lat="48.73789" lon="1.77734">
        <ele>145.80000305176</ele>
        <time>2026-06-16T11:29:52.000Z</time>
      </trkpt>
      <trkpt lat="48.73808" lon="1.77689">
        <ele>146</ele>
        <time>2026-06-16T11:29:57.000Z</time>
      </trkpt>
      <trkpt lat="48.73813" lon="1.77673">
        <ele>146.19999694824</ele>
        <time>2026-06-16T11:29:59.000Z</time>
      </trkpt>
      <trkpt lat="48.7382" lon="1.77657">
        <ele>146.60000610352</ele>
        <time>2026-06-16T11:30:01.000Z</time>
      </trkpt>
      <trkpt lat="48.73834" lon="1.77631">
        <ele>147.39999389648</ele>
        <time>2026-06-16T11:30:05.000Z</time>
      </trkpt>
      <trkpt lat="48.73841" lon="1.7762">
        <ele>148</ele>
        <time>2026-06-16T11:30:07.000Z</time>
      </trkpt>
      <trkpt lat="48.73845" lon="1.77616">
        <ele>148.39999389648</ele>
        <time>2026-06-16T11:30:08.000Z</time>
      </trkpt>
      <trkpt lat="48.73849" lon="1.77613">
        <ele>148.60000610352</ele>
        <time>2026-06-16T11:30:09.000Z</time>
      </trkpt>
      <trkpt lat="48.73853" lon="1.77611">
        <ele>148.80000305176</ele>
        <time>2026-06-16T11:30:10.000Z</time>
      </trkpt>
      <trkpt lat="48.73857" lon="1.77609">
        <ele>149.39999389648</ele>
        <time>2026-06-16T11:30:11.000Z</time>
      </trkpt>
      <trkpt lat="48.73862" lon="1.77607">
        <ele>149.39999389648</ele>
        <time>2026-06-16T11:30:12.000Z</time>
      </trkpt>
      <trkpt lat="48.73867" lon="1.77606">
        <ele>149.60000610352</ele>
        <time>2026-06-16T11:30:13.000Z</time>
      </trkpt>
      <trkpt lat="48.73882" lon="1.77603">
        <ele>150.19999694824</ele>
        <time>2026-06-16T11:30:16.000Z</time>
      </trkpt>
      <trkpt lat="48.73891" lon="1.77605">
        <ele>150.60000610352</ele>
        <time>2026-06-16T11:30:18.000Z</time>
      </trkpt>
      <trkpt lat="48.739" lon="1.77607">
        <ele>151</ele>
        <time>2026-06-16T11:30:20.000Z</time>
      </trkpt>
      <trkpt lat="48.73908" lon="1.7761">
        <ele>151.39999389648</ele>
        <time>2026-06-16T11:30:22.000Z</time>
      </trkpt>
      <trkpt lat="48.73913" lon="1.77613">
        <ele>151.80000305176</ele>
        <time>2026-06-16T11:30:23.000Z</time>
      </trkpt>
      <trkpt lat="48.73923" lon="1.77621">
        <ele>152</ele>
        <time>2026-06-16T11:30:25.000Z</time>
      </trkpt>
      <trkpt lat="48.7393" lon="1.77627">
        <ele>152.19999694824</ele>
        <time>2026-06-16T11:30:27.000Z</time>
      </trkpt>
      <trkpt lat="48.73939" lon="1.77637">
        <ele>153</ele>
        <time>2026-06-16T11:30:30.000Z</time>
      </trkpt>
      <trkpt lat="48.73952" lon="1.77651">
        <ele>154.19999694824</ele>
        <time>2026-06-16T11:30:34.000Z</time>
      </trkpt>
      <trkpt lat="48.7396" lon="1.7766">
        <ele>154.60000610352</ele>
        <time>2026-06-16T11:30:36.000Z</time>
      </trkpt>
      <trkpt lat="48.73977" lon="1.77681">
        <ele>155.19999694824</ele>
        <time>2026-06-16T11:30:39.000Z</time>
      </trkpt>
      <trkpt lat="48.73994" lon="1.77698">
        <ele>156.19999694824</ele>
        <time>2026-06-16T11:30:42.000Z</time>
      </trkpt>
      <trkpt lat="48.73997" lon="1.77702">
        <ele>156.19999694824</ele>
        <time>2026-06-16T11:30:43.000Z</time>
      </trkpt>
      <trkpt lat="48.74021" lon="1.77719">
        <ele>157.19999694824</ele>
        <time>2026-06-16T11:30:49.000Z</time>
      </trkpt>
      <trkpt lat="48.74029" lon="1.77724">
        <ele>157.39999389648</ele>
        <time>2026-06-16T11:30:51.000Z</time>
      </trkpt>
      <trkpt lat="48.74041" lon="1.77731">
        <ele>158</ele>
        <time>2026-06-16T11:30:55.000Z</time>
      </trkpt>
      <trkpt lat="48.74052" lon="1.77738">
        <ele>158.39999389648</ele>
        <time>2026-06-16T11:30:58.000Z</time>
      </trkpt>
      <trkpt lat="48.74073" lon="1.77754">
        <ele>159.60000610352</ele>
        <time>2026-06-16T11:31:04.000Z</time>
      </trkpt>
      <trkpt lat="48.74076" lon="1.77757">
        <ele>159.80000305176</ele>
        <time>2026-06-16T11:31:05.000Z</time>
      </trkpt>
      <trkpt lat="48.74094" lon="1.77773">
        <ele>160.60000610352</ele>
        <time>2026-06-16T11:31:10.000Z</time>
      </trkpt>
      <trkpt lat="48.74106" lon="1.77787">
        <ele>161.19999694824</ele>
        <time>2026-06-16T11:31:13.000Z</time>
      </trkpt>
      <trkpt lat="48.74112" lon="1.77793">
        <ele>161.60000610352</ele>
        <time>2026-06-16T11:31:15.000Z</time>
      </trkpt>
      <trkpt lat="48.74127" lon="1.7781">
        <ele>162.19999694824</ele>
        <time>2026-06-16T11:31:19.000Z</time>
      </trkpt>
      <trkpt lat="48.74136" lon="1.77823">
        <ele>162.80000305176</ele>
        <time>2026-06-16T11:31:22.000Z</time>
      </trkpt>
      <trkpt lat="48.74151" lon="1.77842">
        <ele>163.39999389648</ele>
        <time>2026-06-16T11:31:25.000Z</time>
      </trkpt>
      <trkpt lat="48.74166" lon="1.77858">
        <ele>164</ele>
        <time>2026-06-16T11:31:29.000Z</time>
      </trkpt>
      <trkpt lat="48.74181" lon="1.77871">
        <ele>164.39999389648</ele>
        <time>2026-06-16T11:31:33.000Z</time>
      </trkpt>
      <trkpt lat="48.74194" lon="1.77879">
        <ele>165</ele>
        <time>2026-06-16T11:31:37.000Z</time>
      </trkpt>
      <trkpt lat="48.74208" lon="1.77889">
        <ele>165.80000305176</ele>
        <time>2026-06-16T11:31:41.000Z</time>
      </trkpt>
      <trkpt lat="48.74216" lon="1.77895">
        <ele>166</ele>
        <time>2026-06-16T11:31:43.000Z</time>
      </trkpt>
      <trkpt lat="48.74226" lon="1.77899">
        <ele>166.39999389648</ele>
        <time>2026-06-16T11:31:46.000Z</time>
      </trkpt>
      <trkpt lat="48.74259" lon="1.7791">
        <ele>167.19999694824</ele>
        <time>2026-06-16T11:31:53.000Z</time>
      </trkpt>
      <trkpt lat="48.74265" lon="1.77911">
        <ele>167.19999694824</ele>
        <time>2026-06-16T11:31:54.000Z</time>
      </trkpt>
      <trkpt lat="48.74269" lon="1.77912">
        <ele>167.39999389648</ele>
        <time>2026-06-16T11:31:55.000Z</time>
      </trkpt>
      <trkpt lat="48.74296" lon="1.77923">
        <ele>167.60000610352</ele>
        <time>2026-06-16T11:32:00.000Z</time>
      </trkpt>
      <trkpt lat="48.7433" lon="1.77924">
        <ele>167.80000305176</ele>
        <time>2026-06-16T11:32:06.000Z</time>
      </trkpt>
      <trkpt lat="48.74369" lon="1.77937">
        <ele>167.80000305176</ele>
        <time>2026-06-16T11:32:12.000Z</time>
      </trkpt>
      <trkpt lat="48.74405" lon="1.77941">
        <ele>167.60000610352</ele>
        <time>2026-06-16T11:32:18.000Z</time>
      </trkpt>
      <trkpt lat="48.7441" lon="1.77939">
        <ele>167.39999389648</ele>
        <time>2026-06-16T11:32:19.000Z</time>
      </trkpt>
      <trkpt lat="48.7442" lon="1.77937">
        <ele>167.39999389648</ele>
        <time>2026-06-16T11:32:21.000Z</time>
      </trkpt>
      <trkpt lat="48.74425" lon="1.77938">
        <ele>167.39999389648</ele>
        <time>2026-06-16T11:32:22.000Z</time>
      </trkpt>
      <trkpt lat="48.7447" lon="1.77948">
        <ele>167</ele>
        <time>2026-06-16T11:32:30.000Z</time>
      </trkpt>
      <trkpt lat="48.74478" lon="1.77947">
        <ele>167</ele>
        <time>2026-06-16T11:32:32.000Z</time>
      </trkpt>
      <trkpt lat="48.74496" lon="1.77949">
        <ele>167</ele>
        <time>2026-06-16T11:32:35.000Z</time>
      </trkpt>
      <trkpt lat="48.74539" lon="1.77945">
        <ele>167</ele>
        <time>2026-06-16T11:32:42.000Z</time>
      </trkpt>
      <trkpt lat="48.7457" lon="1.77945">
        <ele>167.19999694824</ele>
        <time>2026-06-16T11:32:48.000Z</time>
      </trkpt>
      <trkpt lat="48.74604" lon="1.77932">
        <ele>167</ele>
        <time>2026-06-16T11:32:54.000Z</time>
      </trkpt>
      <trkpt lat="48.7461" lon="1.77927">
        <ele>167</ele>
        <time>2026-06-16T11:32:55.000Z</time>
      </trkpt>
      <trkpt lat="48.74638" lon="1.77914">
        <ele>166.80000305176</ele>
        <time>2026-06-16T11:33:00.000Z</time>
      </trkpt>
      <trkpt lat="48.74663" lon="1.77903">
        <ele>166.80000305176</ele>
        <time>2026-06-16T11:33:05.000Z</time>
      </trkpt>
      <trkpt lat="48.74693" lon="1.77892">
        <ele>166.60000610352</ele>
        <time>2026-06-16T11:33:12.000Z</time>
      </trkpt>
      <trkpt lat="48.74727" lon="1.77877">
        <ele>166.60000610352</ele>
        <time>2026-06-16T11:33:18.000Z</time>
      </trkpt>
      <trkpt lat="48.74782" lon="1.77854">
        <ele>167.19999694824</ele>
        <time>2026-06-16T11:33:27.000Z</time>
      </trkpt>
      <trkpt lat="48.74825" lon="1.77846">
        <ele>167.39999389648</ele>
        <time>2026-06-16T11:33:34.000Z</time>
      </trkpt>
      <trkpt lat="48.74846" lon="1.77843">
        <ele>167.39999389648</ele>
        <time>2026-06-16T11:33:38.000Z</time>
      </trkpt>
      <trkpt lat="48.74856" lon="1.77844">
        <ele>167.39999389648</ele>
        <time>2026-06-16T11:33:40.000Z</time>
      </trkpt>
      <trkpt lat="48.74885" lon="1.77843">
        <ele>167.39999389648</ele>
        <time>2026-06-16T11:33:45.000Z</time>
      </trkpt>
      <trkpt lat="48.74896" lon="1.77841">
        <ele>167.39999389648</ele>
        <time>2026-06-16T11:33:47.000Z</time>
      </trkpt>
      <trkpt lat="48.74916" lon="1.77839">
        <ele>167.39999389648</ele>
        <time>2026-06-16T11:33:51.000Z</time>
      </trkpt>
      <trkpt lat="48.74932" lon="1.77839">
        <ele>167.60000610352</ele>
        <time>2026-06-16T11:33:54.000Z</time>
      </trkpt>
      <trkpt lat="48.74982" lon="1.77837">
        <ele>167.19999694824</ele>
        <time>2026-06-16T11:34:03.000Z</time>
      </trkpt>
      <trkpt lat="48.75005" lon="1.77838">
        <ele>167</ele>
        <time>2026-06-16T11:34:07.000Z</time>
      </trkpt>
      <trkpt lat="48.75015" lon="1.7784">
        <ele>167</ele>
        <time>2026-06-16T11:34:09.000Z</time>
      </trkpt>
      <trkpt lat="48.75035" lon="1.77841">
        <ele>166.80000305176</ele>
        <time>2026-06-16T11:34:12.000Z</time>
      </trkpt>
      <trkpt lat="48.75049" lon="1.77839">
        <ele>166.80000305176</ele>
        <time>2026-06-16T11:34:14.000Z</time>
      </trkpt>
      <trkpt lat="48.75068" lon="1.77837">
        <ele>166.60000610352</ele>
        <time>2026-06-16T11:34:17.000Z</time>
      </trkpt>
      <trkpt lat="48.75093" lon="1.77838">
        <ele>166.19999694824</ele>
        <time>2026-06-16T11:34:21.000Z</time>
      </trkpt>
      <trkpt lat="48.75101" lon="1.77839">
        <ele>166</ele>
        <time>2026-06-16T11:34:22.000Z</time>
      </trkpt>
      <trkpt lat="48.75115" lon="1.77837">
        <ele>165.60000610352</ele>
        <time>2026-06-16T11:34:24.000Z</time>
      </trkpt>
      <trkpt lat="48.75122" lon="1.77836">
        <ele>165.60000610352</ele>
        <time>2026-06-16T11:34:25.000Z</time>
      </trkpt>
      <trkpt lat="48.75164" lon="1.77831">
        <ele>165</ele>
        <time>2026-06-16T11:34:31.000Z</time>
      </trkpt>
      <trkpt lat="48.75177" lon="1.77831">
        <ele>164.60000610352</ele>
        <time>2026-06-16T11:34:33.000Z</time>
      </trkpt>
      <trkpt lat="48.75183" lon="1.77832">
        <ele>164.60000610352</ele>
        <time>2026-06-16T11:34:34.000Z</time>
      </trkpt>
      <trkpt lat="48.75189" lon="1.77832">
        <ele>164.39999389648</ele>
        <time>2026-06-16T11:34:35.000Z</time>
      </trkpt>
      <trkpt lat="48.75212" lon="1.77826">
        <ele>164.39999389648</ele>
        <time>2026-06-16T11:34:39.000Z</time>
      </trkpt>
      <trkpt lat="48.75237" lon="1.77819">
        <ele>164.60000610352</ele>
        <time>2026-06-16T11:34:43.000Z</time>
      </trkpt>
      <trkpt lat="48.75275" lon="1.77818">
        <ele>165.19999694824</ele>
        <time>2026-06-16T11:34:49.000Z</time>
      </trkpt>
      <trkpt lat="48.75294" lon="1.77814">
        <ele>165.60000610352</ele>
        <time>2026-06-16T11:34:53.000Z</time>
      </trkpt>
      <trkpt lat="48.75302" lon="1.77809">
        <ele>165.80000305176</ele>
        <time>2026-06-16T11:34:54.000Z</time>
      </trkpt>
      <trkpt lat="48.75319" lon="1.77802">
        <ele>165.80000305176</ele>
        <time>2026-06-16T11:34:56.000Z</time>
      </trkpt>
      <trkpt lat="48.75336" lon="1.778">
        <ele>166.19999694824</ele>
        <time>2026-06-16T11:34:59.000Z</time>
      </trkpt>
      <trkpt lat="48.75343" lon="1.77799">
        <ele>166.19999694824</ele>
        <time>2026-06-16T11:35:00.000Z</time>
      </trkpt>
      <trkpt lat="48.75355" lon="1.77798">
        <ele>166.39999389648</ele>
        <time>2026-06-16T11:35:02.000Z</time>
      </trkpt>
      <trkpt lat="48.75366" lon="1.77795">
        <ele>166.39999389648</ele>
        <time>2026-06-16T11:35:04.000Z</time>
      </trkpt>
      <trkpt lat="48.75371" lon="1.77792">
        <ele>166.60000610352</ele>
        <time>2026-06-16T11:35:05.000Z</time>
      </trkpt>
      <trkpt lat="48.75378" lon="1.77789">
        <ele>166.60000610352</ele>
        <time>2026-06-16T11:35:06.000Z</time>
      </trkpt>
      <trkpt lat="48.75397" lon="1.77783">
        <ele>167.39999389648</ele>
        <time>2026-06-16T11:35:10.000Z</time>
      </trkpt>
      <trkpt lat="48.75426" lon="1.77775">
        <ele>167.80000305176</ele>
        <time>2026-06-16T11:35:15.000Z</time>
      </trkpt>
      <trkpt lat="48.75441" lon="1.77771">
        <ele>167.80000305176</ele>
        <time>2026-06-16T11:35:17.000Z</time>
      </trkpt>
      <trkpt lat="48.755" lon="1.77754">
        <ele>168.19999694824</ele>
        <time>2026-06-16T11:35:26.000Z</time>
      </trkpt>
      <trkpt lat="48.75506" lon="1.77752">
        <ele>168.19999694824</ele>
        <time>2026-06-16T11:35:27.000Z</time>
      </trkpt>
      <trkpt lat="48.75552" lon="1.77741">
        <ele>168.19999694824</ele>
        <time>2026-06-16T11:35:35.000Z</time>
      </trkpt>
      <trkpt lat="48.75598" lon="1.77733">
        <ele>168.19999694824</ele>
        <time>2026-06-16T11:35:43.000Z</time>
      </trkpt>
      <trkpt lat="48.75635" lon="1.77729">
        <ele>168.39999389648</ele>
        <time>2026-06-16T11:35:50.000Z</time>
      </trkpt>
      <trkpt lat="48.75646" lon="1.77728">
        <ele>168.60000610352</ele>
        <time>2026-06-16T11:35:52.000Z</time>
      </trkpt>
      <trkpt lat="48.7565" lon="1.77727">
        <ele>168.60000610352</ele>
        <time>2026-06-16T11:35:53.000Z</time>
      </trkpt>
      <trkpt lat="48.75666" lon="1.77725">
        <ele>168.60000610352</ele>
        <time>2026-06-16T11:35:56.000Z</time>
      </trkpt>
      <trkpt lat="48.75672" lon="1.77725">
        <ele>168.80000305176</ele>
        <time>2026-06-16T11:35:57.000Z</time>
      </trkpt>
      <trkpt lat="48.75692" lon="1.77724">
        <ele>169</ele>
        <time>2026-06-16T11:36:00.000Z</time>
      </trkpt>
      <trkpt lat="48.75749" lon="1.77721">
        <ele>169.39999389648</ele>
        <time>2026-06-16T11:36:08.000Z</time>
      </trkpt>
      <trkpt lat="48.75768" lon="1.77716">
        <ele>169.39999389648</ele>
        <time>2026-06-16T11:36:10.000Z</time>
      </trkpt>
      <trkpt lat="48.75815" lon="1.77713">
        <ele>169.19999694824</ele>
        <time>2026-06-16T11:36:18.000Z</time>
      </trkpt>
      <trkpt lat="48.75834" lon="1.7771">
        <ele>169.39999389648</ele>
        <time>2026-06-16T11:36:21.000Z</time>
      </trkpt>
      <trkpt lat="48.7584" lon="1.7771">
        <ele>169.39999389648</ele>
        <time>2026-06-16T11:36:22.000Z</time>
      </trkpt>
      <trkpt lat="48.7586" lon="1.77707">
        <ele>169.39999389648</ele>
        <time>2026-06-16T11:36:25.000Z</time>
      </trkpt>
      <trkpt lat="48.75891" lon="1.77704">
        <ele>169.39999389648</ele>
        <time>2026-06-16T11:36:31.000Z</time>
      </trkpt>
      <trkpt lat="48.75897" lon="1.77704">
        <ele>169.39999389648</ele>
        <time>2026-06-16T11:36:32.000Z</time>
      </trkpt>
      <trkpt lat="48.75915" lon="1.77704">
        <ele>169.39999389648</ele>
        <time>2026-06-16T11:36:35.000Z</time>
      </trkpt>
      <trkpt lat="48.75936" lon="1.77703">
        <ele>169.39999389648</ele>
        <time>2026-06-16T11:36:38.000Z</time>
      </trkpt>
      <trkpt lat="48.75948" lon="1.77701">
        <ele>169.39999389648</ele>
        <time>2026-06-16T11:36:40.000Z</time>
      </trkpt>
      <trkpt lat="48.75995" lon="1.77695">
        <ele>169.19999694824</ele>
        <time>2026-06-16T11:36:46.000Z</time>
      </trkpt>
      <trkpt lat="48.76031" lon="1.77691">
        <ele>169</ele>
        <time>2026-06-16T11:36:51.000Z</time>
      </trkpt>
      <trkpt lat="48.76035" lon="1.77691">
        <ele>169</ele>
        <time>2026-06-16T11:36:52.000Z</time>
      </trkpt>
      <trkpt lat="48.76042" lon="1.77691">
        <ele>169</ele>
        <time>2026-06-16T11:36:53.000Z</time>
      </trkpt>
      <trkpt lat="48.76063" lon="1.77687">
        <ele>168.80000305176</ele>
        <time>2026-06-16T11:36:56.000Z</time>
      </trkpt>
      <trkpt lat="48.76085" lon="1.77688">
        <ele>168.80000305176</ele>
        <time>2026-06-16T11:36:59.000Z</time>
      </trkpt>
      <trkpt lat="48.76093" lon="1.77689">
        <ele>168.80000305176</ele>
        <time>2026-06-16T11:37:00.000Z</time>
      </trkpt>
      <trkpt lat="48.76132" lon="1.77694">
        <ele>168.60000610352</ele>
        <time>2026-06-16T11:37:05.000Z</time>
      </trkpt>
      <trkpt lat="48.7616" lon="1.77708">
        <ele>168.39999389648</ele>
        <time>2026-06-16T11:37:09.000Z</time>
      </trkpt>
      <trkpt lat="48.76164" lon="1.77713">
        <ele>168.39999389648</ele>
        <time>2026-06-16T11:37:10.000Z</time>
      </trkpt>
      <trkpt lat="48.76206" lon="1.77741">
        <ele>168.19999694824</ele>
        <time>2026-06-16T11:37:17.000Z</time>
      </trkpt>
      <trkpt lat="48.76227" lon="1.77758">
        <ele>168.19999694824</ele>
        <time>2026-06-16T11:37:21.000Z</time>
      </trkpt>
      <trkpt lat="48.76237" lon="1.77766">
        <ele>168.39999389648</ele>
        <time>2026-06-16T11:37:22.000Z</time>
      </trkpt>
      <trkpt lat="48.76248" lon="1.77776">
        <ele>168.39999389648</ele>
        <time>2026-06-16T11:37:24.000Z</time>
      </trkpt>
      <trkpt lat="48.76262" lon="1.77797">
        <ele>168.60000610352</ele>
        <time>2026-06-16T11:37:27.000Z</time>
      </trkpt>
      <trkpt lat="48.76269" lon="1.77805">
        <ele>168.60000610352</ele>
        <time>2026-06-16T11:37:28.000Z</time>
      </trkpt>
      <trkpt lat="48.76303" lon="1.77836">
        <ele>168.80000305176</ele>
        <time>2026-06-16T11:37:33.000Z</time>
      </trkpt>
      <trkpt lat="48.76345" lon="1.77877">
        <ele>169</ele>
        <time>2026-06-16T11:37:40.000Z</time>
      </trkpt>
      <trkpt lat="48.76351" lon="1.77884">
        <ele>169</ele>
        <time>2026-06-16T11:37:41.000Z</time>
      </trkpt>
      <trkpt lat="48.76374" lon="1.7791">
        <ele>169</ele>
        <time>2026-06-16T11:37:45.000Z</time>
      </trkpt>
      <trkpt lat="48.76408" lon="1.77951">
        <ele>169</ele>
        <time>2026-06-16T11:37:52.000Z</time>
      </trkpt>
      <trkpt lat="48.76441" lon="1.77986">
        <ele>169</ele>
        <time>2026-06-16T11:37:58.000Z</time>
      </trkpt>
      <trkpt lat="48.76457" lon="1.78003">
        <ele>169</ele>
        <time>2026-06-16T11:38:01.000Z</time>
      </trkpt>
      <trkpt lat="48.76474" lon="1.78021">
        <ele>169</ele>
        <time>2026-06-16T11:38:04.000Z</time>
      </trkpt>
      <trkpt lat="48.7651" lon="1.78067">
        <ele>168.60000610352</ele>
        <time>2026-06-16T11:38:11.000Z</time>
      </trkpt>
      <trkpt lat="48.76553" lon="1.78111">
        <ele>168.60000610352</ele>
        <time>2026-06-16T11:38:18.000Z</time>
      </trkpt>
      <trkpt lat="48.76566" lon="1.78128">
        <ele>168.60000610352</ele>
        <time>2026-06-16T11:38:21.000Z</time>
      </trkpt>
      <trkpt lat="48.76575" lon="1.78136">
        <ele>168.39999389648</ele>
        <time>2026-06-16T11:38:23.000Z</time>
      </trkpt>
      <trkpt lat="48.76611" lon="1.78168">
        <ele>168.39999389648</ele>
        <time>2026-06-16T11:38:29.000Z</time>
      </trkpt>
      <trkpt lat="48.76626" lon="1.78183">
        <ele>168.39999389648</ele>
        <time>2026-06-16T11:38:32.000Z</time>
      </trkpt>
      <trkpt lat="48.76639" lon="1.78195">
        <ele>168.39999389648</ele>
        <time>2026-06-16T11:38:35.000Z</time>
      </trkpt>
      <trkpt lat="48.7665" lon="1.78205">
        <ele>168.39999389648</ele>
        <time>2026-06-16T11:38:37.000Z</time>
      </trkpt>
      <trkpt lat="48.76662" lon="1.78213">
        <ele>168.19999694824</ele>
        <time>2026-06-16T11:38:39.000Z</time>
      </trkpt>
      <trkpt lat="48.76669" lon="1.78217">
        <ele>168</ele>
        <time>2026-06-16T11:38:40.000Z</time>
      </trkpt>
      <trkpt lat="48.76676" lon="1.78221">
        <ele>168</ele>
        <time>2026-06-16T11:38:41.000Z</time>
      </trkpt>
      <trkpt lat="48.7669" lon="1.78233">
        <ele>168</ele>
        <time>2026-06-16T11:38:43.000Z</time>
      </trkpt>
      <trkpt lat="48.76702" lon="1.78245">
        <ele>168</ele>
        <time>2026-06-16T11:38:45.000Z</time>
      </trkpt>
      <trkpt lat="48.76709" lon="1.78251">
        <ele>168</ele>
        <time>2026-06-16T11:38:46.000Z</time>
      </trkpt>
      <trkpt lat="48.76729" lon="1.78267">
        <ele>167.80000305176</ele>
        <time>2026-06-16T11:38:49.000Z</time>
      </trkpt>
      <trkpt lat="48.76742" lon="1.78277">
        <ele>167.80000305176</ele>
        <time>2026-06-16T11:38:51.000Z</time>
      </trkpt>
      <trkpt lat="48.76769" lon="1.78298">
        <ele>167.39999389648</ele>
        <time>2026-06-16T11:38:55.000Z</time>
      </trkpt>
      <trkpt lat="48.76781" lon="1.78309">
        <ele>167.39999389648</ele>
        <time>2026-06-16T11:38:57.000Z</time>
      </trkpt>
      <trkpt lat="48.76788" lon="1.78315">
        <ele>167.39999389648</ele>
        <time>2026-06-16T11:38:58.000Z</time>
      </trkpt>
      <trkpt lat="48.76808" lon="1.7833">
        <ele>167.39999389648</ele>
        <time>2026-06-16T11:39:01.000Z</time>
      </trkpt>
      <trkpt lat="48.76835" lon="1.78366">
        <ele>167.19999694824</ele>
        <time>2026-06-16T11:39:06.000Z</time>
      </trkpt>
      <trkpt lat="48.76873" lon="1.78411">
        <ele>166.80000305176</ele>
        <time>2026-06-16T11:39:13.000Z</time>
      </trkpt>
      <trkpt lat="48.76894" lon="1.78435">
        <ele>166.39999389648</ele>
        <time>2026-06-16T11:39:17.000Z</time>
      </trkpt>
      <trkpt lat="48.76928" lon="1.78472">
        <ele>166.19999694824</ele>
        <time>2026-06-16T11:39:23.000Z</time>
      </trkpt>
      <trkpt lat="48.76976" lon="1.78523">
        <ele>165.60000610352</ele>
        <time>2026-06-16T11:39:31.000Z</time>
      </trkpt>
      <trkpt lat="48.76988" lon="1.78535">
        <ele>165.60000610352</ele>
        <time>2026-06-16T11:39:33.000Z</time>
      </trkpt>
      <trkpt lat="48.77" lon="1.78548">
        <ele>165.39999389648</ele>
        <time>2026-06-16T11:39:35.000Z</time>
      </trkpt>
      <trkpt lat="48.77026" lon="1.78574">
        <ele>164.39999389648</ele>
        <time>2026-06-16T11:39:39.000Z</time>
      </trkpt>
      <trkpt lat="48.77064" lon="1.78614">
        <ele>163.60000610352</ele>
        <time>2026-06-16T11:39:45.000Z</time>
      </trkpt>
      <trkpt lat="48.77076" lon="1.78627">
        <ele>163.19999694824</ele>
        <time>2026-06-16T11:39:47.000Z</time>
      </trkpt>
      <trkpt lat="48.77108" lon="1.78659">
        <ele>162.60000610352</ele>
        <time>2026-06-16T11:39:52.000Z</time>
      </trkpt>
      <trkpt lat="48.77124" lon="1.78681">
        <ele>162.19999694824</ele>
        <time>2026-06-16T11:39:55.000Z</time>
      </trkpt>
      <trkpt lat="48.77135" lon="1.78697">
        <ele>161.80000305176</ele>
        <time>2026-06-16T11:39:57.000Z</time>
      </trkpt>
      <trkpt lat="48.7716" lon="1.78736">
        <ele>161.19999694824</ele>
        <time>2026-06-16T11:40:02.000Z</time>
      </trkpt>
      <trkpt lat="48.77171" lon="1.78752">
        <ele>160.80000305176</ele>
        <time>2026-06-16T11:40:04.000Z</time>
      </trkpt>
      <trkpt lat="48.77189" lon="1.78783">
        <ele>160</ele>
        <time>2026-06-16T11:40:08.000Z</time>
      </trkpt>
      <trkpt lat="48.7721" lon="1.78813">
        <ele>160</ele>
        <time>2026-06-16T11:40:12.000Z</time>
      </trkpt>
      <trkpt lat="48.77248" lon="1.7887">
        <ele>159.80000305176</ele>
        <time>2026-06-16T11:40:19.000Z</time>
      </trkpt>
      <trkpt lat="48.77289" lon="1.78932">
        <ele>159.39999389648</ele>
        <time>2026-06-16T11:40:27.000Z</time>
      </trkpt>
      <trkpt lat="48.77319" lon="1.78978">
        <ele>159.39999389648</ele>
        <time>2026-06-16T11:40:33.000Z</time>
      </trkpt>
      <trkpt lat="48.77325" lon="1.78986">
        <ele>159.39999389648</ele>
        <time>2026-06-16T11:40:34.000Z</time>
      </trkpt>
      <trkpt lat="48.77336" lon="1.79002">
        <ele>159.19999694824</ele>
        <time>2026-06-16T11:40:36.000Z</time>
      </trkpt>
      <trkpt lat="48.77351" lon="1.79021">
        <ele>159</ele>
        <time>2026-06-16T11:40:38.000Z</time>
      </trkpt>
      <trkpt lat="48.77356" lon="1.79028">
        <ele>158.80000305176</ele>
        <time>2026-06-16T11:40:39.000Z</time>
      </trkpt>
      <trkpt lat="48.77391" lon="1.79078">
        <ele>158.39999389648</ele>
        <time>2026-06-16T11:40:45.000Z</time>
      </trkpt>
      <trkpt lat="48.7743" lon="1.79137">
        <ele>158</ele>
        <time>2026-06-16T11:40:52.000Z</time>
      </trkpt>
      <trkpt lat="48.7744" lon="1.79153">
        <ele>157.80000305176</ele>
        <time>2026-06-16T11:40:54.000Z</time>
      </trkpt>
      <trkpt lat="48.77481" lon="1.79217">
        <ele>157</ele>
        <time>2026-06-16T11:41:02.000Z</time>
      </trkpt>
      <trkpt lat="48.77486" lon="1.79224">
        <ele>157</ele>
        <time>2026-06-16T11:41:03.000Z</time>
      </trkpt>
      <trkpt lat="48.7751" lon="1.79264">
        <ele>156.80000305176</ele>
        <time>2026-06-16T11:41:08.000Z</time>
      </trkpt>
      <trkpt lat="48.77537" lon="1.79305">
        <ele>156.80000305176</ele>
        <time>2026-06-16T11:41:13.000Z</time>
      </trkpt>
      <trkpt lat="48.77573" lon="1.7937">
        <ele>157.19999694824</ele>
        <time>2026-06-16T11:41:22.000Z</time>
      </trkpt>
      <trkpt lat="48.77593" lon="1.79409">
        <ele>157.60000610352</ele>
        <time>2026-06-16T11:41:28.000Z</time>
      </trkpt>
      <trkpt lat="48.77603" lon="1.79428">
        <ele>157.80000305176</ele>
        <time>2026-06-16T11:41:31.000Z</time>
      </trkpt>
      <trkpt lat="48.77613" lon="1.79448">
        <ele>158.19999694824</ele>
        <time>2026-06-16T11:41:34.000Z</time>
      </trkpt>
      <trkpt lat="48.7763" lon="1.79478">
        <ele>158.80000305176</ele>
        <time>2026-06-16T11:41:39.000Z</time>
      </trkpt>
      <trkpt lat="48.77634" lon="1.7949">
        <ele>159</ele>
        <time>2026-06-16T11:41:41.000Z</time>
      </trkpt>
      <trkpt lat="48.77648" lon="1.79514">
        <ele>159.39999389648</ele>
        <time>2026-06-16T11:41:45.000Z</time>
      </trkpt>
      <trkpt lat="48.77654" lon="1.79528">
        <ele>159.80000305176</ele>
        <time>2026-06-16T11:41:47.000Z</time>
      </trkpt>
      <trkpt lat="48.77661" lon="1.79542">
        <ele>160.19999694824</ele>
        <time>2026-06-16T11:41:49.000Z</time>
      </trkpt>
      <trkpt lat="48.77678" lon="1.79585">
        <ele>161.19999694824</ele>
        <time>2026-06-16T11:41:55.000Z</time>
      </trkpt>
      <trkpt lat="48.77683" lon="1.79597">
        <ele>161.39999389648</ele>
        <time>2026-06-16T11:41:57.000Z</time>
      </trkpt>
      <trkpt lat="48.77684" lon="1.79603">
        <ele>161.39999389648</ele>
        <time>2026-06-16T11:41:58.000Z</time>
      </trkpt>
      <trkpt lat="48.77689" lon="1.79618">
        <ele>161.80000305176</ele>
        <time>2026-06-16T11:42:00.000Z</time>
      </trkpt>
      <trkpt lat="48.77701" lon="1.79658">
        <ele>162.19999694824</ele>
        <time>2026-06-16T11:42:05.000Z</time>
      </trkpt>
      <trkpt lat="48.77703" lon="1.79665">
        <ele>162.19999694824</ele>
        <time>2026-06-16T11:42:06.000Z</time>
      </trkpt>
      <trkpt lat="48.77707" lon="1.79679">
        <ele>162.39999389648</ele>
        <time>2026-06-16T11:42:08.000Z</time>
      </trkpt>
      <trkpt lat="48.77716" lon="1.79708">
        <ele>162.80000305176</ele>
        <time>2026-06-16T11:42:13.000Z</time>
      </trkpt>
      <trkpt lat="48.77723" lon="1.7973">
        <ele>163.19999694824</ele>
        <time>2026-06-16T11:42:18.000Z</time>
      </trkpt>
      <trkpt lat="48.77731" lon="1.79764">
        <ele>163.39999389648</ele>
        <time>2026-06-16T11:42:24.000Z</time>
      </trkpt>
      <trkpt lat="48.77735" lon="1.79782">
        <ele>163.39999389648</ele>
        <time>2026-06-16T11:42:27.000Z</time>
      </trkpt>
      <trkpt lat="48.77741" lon="1.79801">
        <ele>163.60000610352</ele>
        <time>2026-06-16T11:42:30.000Z</time>
      </trkpt>
      <trkpt lat="48.77758" lon="1.79853">
        <ele>163.80000305176</ele>
        <time>2026-06-16T11:42:38.000Z</time>
      </trkpt>
      <trkpt lat="48.77776" lon="1.7991">
        <ele>163.60000610352</ele>
        <time>2026-06-16T11:42:48.000Z</time>
      </trkpt>
      <trkpt lat="48.7778" lon="1.79929">
        <ele>163.60000610352</ele>
        <time>2026-06-16T11:42:53.000Z</time>
      </trkpt>
      <trkpt lat="48.77778" lon="1.79942">
        <ele>163.39999389648</ele>
        <time>2026-06-16T11:42:58.000Z</time>
      </trkpt>
      <trkpt lat="48.77773" lon="1.79952">
        <ele>163.39999389648</ele>
        <time>2026-06-16T11:43:03.000Z</time>
      </trkpt>
      <trkpt lat="48.77772" lon="1.79954">
        <ele>163.39999389648</ele>
        <time>2026-06-16T11:43:04.000Z</time>
      </trkpt>
      <trkpt lat="48.77772" lon="1.79955">
        <ele>163</ele>
        <time>2026-06-16T11:43:09.000Z</time>
      </trkpt>
      <trkpt lat="48.77772" lon="1.79955">
        <ele>163.39999389648</ele>
        <time>2026-06-16T11:43:44.000Z</time>
      </trkpt>
      <trkpt lat="48.77768" lon="1.79962">
        <ele>163.19999694824</ele>
        <time>2026-06-16T11:43:49.000Z</time>
      </trkpt>
      <trkpt lat="48.77758" lon="1.79973">
        <ele>163</ele>
        <time>2026-06-16T11:43:53.000Z</time>
      </trkpt>
      <trkpt lat="48.77753" lon="1.79977">
        <ele>163</ele>
        <time>2026-06-16T11:43:54.000Z</time>
      </trkpt>
      <trkpt lat="48.77748" lon="1.79986">
        <ele>163</ele>
        <time>2026-06-16T11:43:56.000Z</time>
      </trkpt>
      <trkpt lat="48.77744" lon="1.80001">
        <ele>162.80000305176</ele>
        <time>2026-06-16T11:43:58.000Z</time>
      </trkpt>
      <trkpt lat="48.77742" lon="1.80008">
        <ele>162.60000610352</ele>
        <time>2026-06-16T11:43:59.000Z</time>
      </trkpt>
      <trkpt lat="48.77738" lon="1.80024">
        <ele>162.39999389648</ele>
        <time>2026-06-16T11:44:01.000Z</time>
      </trkpt>
      <trkpt lat="48.77732" lon="1.80042">
        <ele>162.19999694824</ele>
        <time>2026-06-16T11:44:03.000Z</time>
      </trkpt>
      <trkpt lat="48.77712" lon="1.80086">
        <ele>161.19999694824</ele>
        <time>2026-06-16T11:44:08.000Z</time>
      </trkpt>
      <trkpt lat="48.77709" lon="1.80094">
        <ele>161.19999694824</ele>
        <time>2026-06-16T11:44:09.000Z</time>
      </trkpt>
      <trkpt lat="48.77701" lon="1.80112">
        <ele>160.60000610352</ele>
        <time>2026-06-16T11:44:11.000Z</time>
      </trkpt>
      <trkpt lat="48.77689" lon="1.80136">
        <ele>159.80000305176</ele>
        <time>2026-06-16T11:44:13.000Z</time>
      </trkpt>
      <trkpt lat="48.77677" lon="1.80175">
        <ele>159</ele>
        <time>2026-06-16T11:44:16.000Z</time>
      </trkpt>
      <trkpt lat="48.77674" lon="1.8019">
        <ele>158.60000610352</ele>
        <time>2026-06-16T11:44:17.000Z</time>
      </trkpt>
      <trkpt lat="48.7767" lon="1.80207">
        <ele>158.19999694824</ele>
        <time>2026-06-16T11:44:18.000Z</time>
      </trkpt>
      <trkpt lat="48.77664" lon="1.80232">
        <ele>157</ele>
        <time>2026-06-16T11:44:20.000Z</time>
      </trkpt>
      <trkpt lat="48.77663" lon="1.80246">
        <ele>156.60000610352</ele>
        <time>2026-06-16T11:44:21.000Z</time>
      </trkpt>
      <trkpt lat="48.77662" lon="1.8026">
        <ele>155.80000305176</ele>
        <time>2026-06-16T11:44:22.000Z</time>
      </trkpt>
      <trkpt lat="48.77659" lon="1.80274">
        <ele>155.39999389648</ele>
        <time>2026-06-16T11:44:23.000Z</time>
      </trkpt>
      <trkpt lat="48.77656" lon="1.80285">
        <ele>154.60000610352</ele>
        <time>2026-06-16T11:44:24.000Z</time>
      </trkpt>
      <trkpt lat="48.77652" lon="1.80304">
        <ele>153.80000305176</ele>
        <time>2026-06-16T11:44:26.000Z</time>
      </trkpt>
      <trkpt lat="48.7765" lon="1.80312">
        <ele>153</ele>
        <time>2026-06-16T11:44:27.000Z</time>
      </trkpt>
      <trkpt lat="48.77646" lon="1.80323">
        <ele>152.60000610352</ele>
        <time>2026-06-16T11:44:28.000Z</time>
      </trkpt>
      <trkpt lat="48.77636" lon="1.80355">
        <ele>151.60000610352</ele>
        <time>2026-06-16T11:44:31.000Z</time>
      </trkpt>
      <trkpt lat="48.7763" lon="1.80374">
        <ele>151</ele>
        <time>2026-06-16T11:44:33.000Z</time>
      </trkpt>
      <trkpt lat="48.77623" lon="1.80389">
        <ele>150.80000305176</ele>
        <time>2026-06-16T11:44:35.000Z</time>
      </trkpt>
      <trkpt lat="48.77616" lon="1.80408">
        <ele>150.60000610352</ele>
        <time>2026-06-16T11:44:37.000Z</time>
      </trkpt>
      <trkpt lat="48.77609" lon="1.80434">
        <ele>149.19999694824</ele>
        <time>2026-06-16T11:44:40.000Z</time>
      </trkpt>
      <trkpt lat="48.77607" lon="1.80443">
        <ele>148.60000610352</ele>
        <time>2026-06-16T11:44:41.000Z</time>
      </trkpt>
      <trkpt lat="48.77603" lon="1.80461">
        <ele>148.19999694824</ele>
        <time>2026-06-16T11:44:43.000Z</time>
      </trkpt>
      <trkpt lat="48.77603" lon="1.8047">
        <ele>148</ele>
        <time>2026-06-16T11:44:44.000Z</time>
      </trkpt>
      <trkpt lat="48.77603" lon="1.80479">
        <ele>148</ele>
        <time>2026-06-16T11:44:45.000Z</time>
      </trkpt>
      <trkpt lat="48.77604" lon="1.80493">
        <ele>147.39999389648</ele>
        <time>2026-06-16T11:44:47.000Z</time>
      </trkpt>
      <trkpt lat="48.77608" lon="1.80508">
        <ele>147.19999694824</ele>
        <time>2026-06-16T11:44:49.000Z</time>
      </trkpt>
      <trkpt lat="48.77611" lon="1.80516">
        <ele>146.80000305176</ele>
        <time>2026-06-16T11:44:50.000Z</time>
      </trkpt>
      <trkpt lat="48.77621" lon="1.80536">
        <ele>145.80000305176</ele>
        <time>2026-06-16T11:44:53.000Z</time>
      </trkpt>
      <trkpt lat="48.77631" lon="1.80547">
        <ele>145.19999694824</ele>
        <time>2026-06-16T11:44:55.000Z</time>
      </trkpt>
      <trkpt lat="48.77636" lon="1.80552">
        <ele>144.60000610352</ele>
        <time>2026-06-16T11:44:56.000Z</time>
      </trkpt>
      <trkpt lat="48.77646" lon="1.8056">
        <ele>144.19999694824</ele>
        <time>2026-06-16T11:44:58.000Z</time>
      </trkpt>
      <trkpt lat="48.77655" lon="1.80564">
        <ele>143.60000610352</ele>
        <time>2026-06-16T11:45:00.000Z</time>
      </trkpt>
      <trkpt lat="48.77662" lon="1.80566">
        <ele>143</ele>
        <time>2026-06-16T11:45:02.000Z</time>
      </trkpt>
      <trkpt lat="48.77665" lon="1.80566">
        <ele>142.19999694824</ele>
        <time>2026-06-16T11:45:03.000Z</time>
      </trkpt>
      <trkpt lat="48.77673" lon="1.80566">
        <ele>141.19999694824</ele>
        <time>2026-06-16T11:45:06.000Z</time>
      </trkpt>
      <trkpt lat="48.77676" lon="1.80567">
        <ele>140.60000610352</ele>
        <time>2026-06-16T11:45:07.000Z</time>
      </trkpt>
      <trkpt lat="48.77684" lon="1.8057">
        <ele>140</ele>
        <time>2026-06-16T11:45:11.000Z</time>
      </trkpt>
      <trkpt lat="48.77683" lon="1.8057">
        <ele>139.60000610352</ele>
        <time>2026-06-16T11:45:13.000Z</time>
      </trkpt>
      <trkpt lat="48.77683" lon="1.8057">
        <ele>139.60000610352</ele>
        <time>2026-06-16T11:45:14.000Z</time>
      </trkpt>
      <trkpt lat="48.77683" lon="1.80572">
        <ele>139.19999694824</ele>
        <time>2026-06-16T11:45:18.000Z</time>
      </trkpt>
      <trkpt lat="48.77683" lon="1.80579">
        <ele>139</ele>
        <time>2026-06-16T11:45:20.000Z</time>
      </trkpt>
      <trkpt lat="48.77682" lon="1.806">
        <ele>138.39999389648</ele>
        <time>2026-06-16T11:45:24.000Z</time>
      </trkpt>
      <trkpt lat="48.77682" lon="1.80605">
        <ele>138.39999389648</ele>
        <time>2026-06-16T11:45:25.000Z</time>
      </trkpt>
      <trkpt lat="48.77684" lon="1.80616">
        <ele>137.80000305176</ele>
        <time>2026-06-16T11:45:27.000Z</time>
      </trkpt>
      <trkpt lat="48.77684" lon="1.80622">
        <ele>137.60000610352</ele>
        <time>2026-06-16T11:45:28.000Z</time>
      </trkpt>
      <trkpt lat="48.77684" lon="1.80627">
        <ele>137.19999694824</ele>
        <time>2026-06-16T11:45:29.000Z</time>
      </trkpt>
      <trkpt lat="48.77679" lon="1.80645">
        <ele>136.19999694824</ele>
        <time>2026-06-16T11:45:32.000Z</time>
      </trkpt>
      <trkpt lat="48.77677" lon="1.8065">
        <ele>135.80000305176</ele>
        <time>2026-06-16T11:45:33.000Z</time>
      </trkpt>
      <trkpt lat="48.77675" lon="1.80663">
        <ele>134.80000305176</ele>
        <time>2026-06-16T11:45:36.000Z</time>
      </trkpt>
      <trkpt lat="48.77675" lon="1.80665">
        <ele>134.39999389648</ele>
        <time>2026-06-16T11:45:37.000Z</time>
      </trkpt>
      <trkpt lat="48.77675" lon="1.80667">
        <ele>133.60000610352</ele>
        <time>2026-06-16T11:45:40.000Z</time>
      </trkpt>
      <trkpt lat="48.77675" lon="1.80667">
        <ele>132.39999389648</ele>
        <time>2026-06-16T11:45:44.000Z</time>
      </trkpt>
      <trkpt lat="48.77675" lon="1.80667">
        <ele>131.39999389648</ele>
        <time>2026-06-16T11:46:02.000Z</time>
      </trkpt>
      <trkpt lat="48.77671" lon="1.80673">
        <ele>131.39999389648</ele>
        <time>2026-06-16T11:46:04.000Z</time>
      </trkpt>
      <trkpt lat="48.7767" lon="1.80676">
        <ele>131.19999694824</ele>
        <time>2026-06-16T11:46:05.000Z</time>
      </trkpt>
      <trkpt lat="48.77669" lon="1.80683">
        <ele>130.80000305176</ele>
        <time>2026-06-16T11:46:07.000Z</time>
      </trkpt>
      <trkpt lat="48.7767" lon="1.80689">
        <ele>130.60000610352</ele>
        <time>2026-06-16T11:46:09.000Z</time>
      </trkpt>
      <trkpt lat="48.77674" lon="1.80692">
        <ele>130.39999389648</ele>
        <time>2026-06-16T11:46:11.000Z</time>
      </trkpt>
      <trkpt lat="48.77681" lon="1.80693">
        <ele>130.19999694824</ele>
        <time>2026-06-16T11:46:14.000Z</time>
      </trkpt>
      <trkpt lat="48.77686" lon="1.80692">
        <ele>130</ele>
        <time>2026-06-16T11:46:16.000Z</time>
      </trkpt>
      <trkpt lat="48.77704" lon="1.80694">
        <ele>129.80000305176</ele>
        <time>2026-06-16T11:46:20.000Z</time>
      </trkpt>
      <trkpt lat="48.77708" lon="1.80696">
        <ele>129.39999389648</ele>
        <time>2026-06-16T11:46:22.000Z</time>
      </trkpt>
      <trkpt lat="48.77715" lon="1.80701">
        <ele>128.80000305176</ele>
        <time>2026-06-16T11:46:24.000Z</time>
      </trkpt>
      <trkpt lat="48.77726" lon="1.80702">
        <ele>128.39999389648</ele>
        <time>2026-06-16T11:46:26.000Z</time>
      </trkpt>
      <trkpt lat="48.77735" lon="1.80705">
        <ele>127.80000305176</ele>
        <time>2026-06-16T11:46:30.000Z</time>
      </trkpt>
      <trkpt lat="48.77735" lon="1.80705">
        <ele>127.19999694824</ele>
        <time>2026-06-16T11:46:36.000Z</time>
      </trkpt>
      <trkpt lat="48.77735" lon="1.80705">
        <ele>127.19999694824</ele>
        <time>2026-06-16T11:46:38.000Z</time>
      </trkpt>
      <trkpt lat="48.77605" lon="1.80628">
        <ele>131.39999389648</ele>
        <time>2026-06-16T12:00:43.000Z</time>
      </trkpt>
      <trkpt lat="48.77646" lon="1.80649">
        <ele>131.19999694824</ele>
        <time>2026-06-16T12:00:45.000Z</time>
      </trkpt>
      <trkpt lat="48.77659" lon="1.80641">
        <ele>131.19999694824</ele>
        <time>2026-06-16T12:00:47.000Z</time>
      </trkpt>
      <trkpt lat="48.77662" lon="1.80636">
        <ele>131.60000610352</ele>
        <time>2026-06-16T12:00:49.000Z</time>
      </trkpt>
      <trkpt lat="48.77669" lon="1.8064">
        <ele>132.39999389648</ele>
        <time>2026-06-16T12:00:51.000Z</time>
      </trkpt>
      <trkpt lat="48.77671" lon="1.80637">
        <ele>132.60000610352</ele>
        <time>2026-06-16T12:00:52.000Z</time>
      </trkpt>
      <trkpt lat="48.77674" lon="1.80622">
        <ele>132.60000610352</ele>
        <time>2026-06-16T12:00:56.000Z</time>
      </trkpt>
      <trkpt lat="48.77676" lon="1.80617">
        <ele>132.60000610352</ele>
        <time>2026-06-16T12:00:58.000Z</time>
      </trkpt>
      <trkpt lat="48.77677" lon="1.80611">
        <ele>132.80000305176</ele>
        <time>2026-06-16T12:01:00.000Z</time>
      </trkpt>
      <trkpt lat="48.77677" lon="1.80605">
        <ele>133.39999389648</ele>
        <time>2026-06-16T12:01:02.000Z</time>
      </trkpt>
      <trkpt lat="48.77678" lon="1.806">
        <ele>133.60000610352</ele>
        <time>2026-06-16T12:01:04.000Z</time>
      </trkpt>
      <trkpt lat="48.77679" lon="1.80598">
        <ele>133.80000305176</ele>
        <time>2026-06-16T12:01:05.000Z</time>
      </trkpt>
      <trkpt lat="48.7768" lon="1.80583">
        <ele>134.60000610352</ele>
        <time>2026-06-16T12:01:10.000Z</time>
      </trkpt>
      <trkpt lat="48.77681" lon="1.80576">
        <ele>135</ele>
        <time>2026-06-16T12:01:12.000Z</time>
      </trkpt>
      <trkpt lat="48.77682" lon="1.80571">
        <ele>135.80000305176</ele>
        <time>2026-06-16T12:01:14.000Z</time>
      </trkpt>
      <trkpt lat="48.77683" lon="1.8057">
        <ele>136</ele>
        <time>2026-06-16T12:01:15.000Z</time>
      </trkpt>
      <trkpt lat="48.77682" lon="1.8057">
        <ele>136.19999694824</ele>
        <time>2026-06-16T12:01:17.000Z</time>
      </trkpt>
      <trkpt lat="48.77676" lon="1.80568">
        <ele>137</ele>
        <time>2026-06-16T12:01:20.000Z</time>
      </trkpt>
      <trkpt lat="48.77672" lon="1.80567">
        <ele>137.19999694824</ele>
        <time>2026-06-16T12:01:22.000Z</time>
      </trkpt>
      <trkpt lat="48.77657" lon="1.80562">
        <ele>137.60000610352</ele>
        <time>2026-06-16T12:01:29.000Z</time>
      </trkpt>
      <trkpt lat="48.77655" lon="1.80561">
        <ele>138</ele>
        <time>2026-06-16T12:01:30.000Z</time>
      </trkpt>
      <trkpt lat="48.77642" lon="1.80552">
        <ele>138.39999389648</ele>
        <time>2026-06-16T12:01:37.000Z</time>
      </trkpt>
      <trkpt lat="48.77636" lon="1.80547">
        <ele>139.19999694824</ele>
        <time>2026-06-16T12:01:40.000Z</time>
      </trkpt>
      <trkpt lat="48.7763" lon="1.80542">
        <ele>139.39999389648</ele>
        <time>2026-06-16T12:01:43.000Z</time>
      </trkpt>
      <trkpt lat="48.77624" lon="1.80533">
        <ele>140.19999694824</ele>
        <time>2026-06-16T12:01:47.000Z</time>
      </trkpt>
      <trkpt lat="48.77615" lon="1.8052">
        <ele>141.19999694824</ele>
        <time>2026-06-16T12:01:52.000Z</time>
      </trkpt>
      <trkpt lat="48.77614" lon="1.80517">
        <ele>141.39999389648</ele>
        <time>2026-06-16T12:01:53.000Z</time>
      </trkpt>
      <trkpt lat="48.7761" lon="1.80508">
        <ele>142.19999694824</ele>
        <time>2026-06-16T12:01:56.000Z</time>
      </trkpt>
      <trkpt lat="48.7761" lon="1.80504">
        <ele>142.39999389648</ele>
        <time>2026-06-16T12:01:57.000Z</time>
      </trkpt>
      <trkpt lat="48.77609" lon="1.80485">
        <ele>143.19999694824</ele>
        <time>2026-06-16T12:02:02.000Z</time>
      </trkpt>
      <trkpt lat="48.77608" lon="1.80481">
        <ele>143.60000610352</ele>
        <time>2026-06-16T12:02:03.000Z</time>
      </trkpt>
      <trkpt lat="48.77611" lon="1.80463">
        <ele>144.19999694824</ele>
        <time>2026-06-16T12:02:07.000Z</time>
      </trkpt>
      <trkpt lat="48.77609" lon="1.80447">
        <ele>144.60000610352</ele>
        <time>2026-06-16T12:02:10.000Z</time>
      </trkpt>
      <trkpt lat="48.7761" lon="1.80428">
        <ele>145.19999694824</ele>
        <time>2026-06-16T12:02:14.000Z</time>
      </trkpt>
      <trkpt lat="48.77612" lon="1.80418">
        <ele>145.80000305176</ele>
        <time>2026-06-16T12:02:16.000Z</time>
      </trkpt>
      <trkpt lat="48.77615" lon="1.80406">
        <ele>146.19999694824</ele>
        <time>2026-06-16T12:02:18.000Z</time>
      </trkpt>
      <trkpt lat="48.77626" lon="1.80373">
        <ele>146.60000610352</ele>
        <time>2026-06-16T12:02:24.000Z</time>
      </trkpt>
      <trkpt lat="48.77632" lon="1.80358">
        <ele>147.19999694824</ele>
        <time>2026-06-16T12:02:27.000Z</time>
      </trkpt>
      <trkpt lat="48.77634" lon="1.80353">
        <ele>147.39999389648</ele>
        <time>2026-06-16T12:02:28.000Z</time>
      </trkpt>
      <trkpt lat="48.77636" lon="1.80349">
        <ele>148</ele>
        <time>2026-06-16T12:02:29.000Z</time>
      </trkpt>
      <trkpt lat="48.77638" lon="1.80345">
        <ele>148.39999389648</ele>
        <time>2026-06-16T12:02:30.000Z</time>
      </trkpt>
      <trkpt lat="48.77649" lon="1.80316">
        <ele>149</ele>
        <time>2026-06-16T12:02:36.000Z</time>
      </trkpt>
      <trkpt lat="48.77654" lon="1.80302">
        <ele>149.19999694824</ele>
        <time>2026-06-16T12:02:39.000Z</time>
      </trkpt>
      <trkpt lat="48.77654" lon="1.80296">
        <ele>149.19999694824</ele>
        <time>2026-06-16T12:02:40.000Z</time>
      </trkpt>
      <trkpt lat="48.77653" lon="1.80285">
        <ele>149.60000610352</ele>
        <time>2026-06-16T12:02:42.000Z</time>
      </trkpt>
      <trkpt lat="48.77658" lon="1.8027">
        <ele>149.80000305176</ele>
        <time>2026-06-16T12:02:45.000Z</time>
      </trkpt>
      <trkpt lat="48.77664" lon="1.80245">
        <ele>150.19999694824</ele>
        <time>2026-06-16T12:02:50.000Z</time>
      </trkpt>
      <trkpt lat="48.77667" lon="1.80232">
        <ele>150.60000610352</ele>
        <time>2026-06-16T12:02:53.000Z</time>
      </trkpt>
      <trkpt lat="48.7767" lon="1.80218">
        <ele>151</ele>
        <time>2026-06-16T12:02:56.000Z</time>
      </trkpt>
      <trkpt lat="48.77677" lon="1.80201">
        <ele>151.60000610352</ele>
        <time>2026-06-16T12:03:00.000Z</time>
      </trkpt>
      <trkpt lat="48.7768" lon="1.80191">
        <ele>151.80000305176</ele>
        <time>2026-06-16T12:03:02.000Z</time>
      </trkpt>
      <trkpt lat="48.77683" lon="1.80183">
        <ele>152.19999694824</ele>
        <time>2026-06-16T12:03:04.000Z</time>
      </trkpt>
      <trkpt lat="48.77687" lon="1.80176">
        <ele>152.80000305176</ele>
        <time>2026-06-16T12:03:06.000Z</time>
      </trkpt>
      <trkpt lat="48.77696" lon="1.80155">
        <ele>153.80000305176</ele>
        <time>2026-06-16T12:03:11.000Z</time>
      </trkpt>
      <trkpt lat="48.77698" lon="1.80149">
        <ele>154.39999389648</ele>
        <time>2026-06-16T12:03:13.000Z</time>
      </trkpt>
      <trkpt lat="48.77703" lon="1.80141">
        <ele>155</ele>
        <time>2026-06-16T12:03:16.000Z</time>
      </trkpt>
      <trkpt lat="48.77703" lon="1.80137">
        <ele>155.39999389648</ele>
        <time>2026-06-16T12:03:17.000Z</time>
      </trkpt>
      <trkpt lat="48.77709" lon="1.80124">
        <ele>156.19999694824</ele>
        <time>2026-06-16T12:03:20.000Z</time>
      </trkpt>
      <trkpt lat="48.77717" lon="1.801">
        <ele>157.19999694824</ele>
        <time>2026-06-16T12:03:24.000Z</time>
      </trkpt>
      <trkpt lat="48.77724" lon="1.8009">
        <ele>158.19999694824</ele>
        <time>2026-06-16T12:03:27.000Z</time>
      </trkpt>
      <trkpt lat="48.77726" lon="1.80083">
        <ele>158.39999389648</ele>
        <time>2026-06-16T12:03:28.000Z</time>
      </trkpt>
      <trkpt lat="48.7773" lon="1.8007">
        <ele>158.80000305176</ele>
        <time>2026-06-16T12:03:31.000Z</time>
      </trkpt>
      <trkpt lat="48.7773" lon="1.80065">
        <ele>159.39999389648</ele>
        <time>2026-06-16T12:03:32.000Z</time>
      </trkpt>
      <trkpt lat="48.77732" lon="1.8006">
        <ele>159.60000610352</ele>
        <time>2026-06-16T12:03:33.000Z</time>
      </trkpt>
      <trkpt lat="48.77733" lon="1.80055">
        <ele>159.80000305176</ele>
        <time>2026-06-16T12:03:34.000Z</time>
      </trkpt>
      <trkpt lat="48.77736" lon="1.80046">
        <ele>160</ele>
        <time>2026-06-16T12:03:36.000Z</time>
      </trkpt>
      <trkpt lat="48.77748" lon="1.80026">
        <ele>160.60000610352</ele>
        <time>2026-06-16T12:03:41.000Z</time>
      </trkpt>
      <trkpt lat="48.77758" lon="1.80007">
        <ele>161.19999694824</ele>
        <time>2026-06-16T12:03:48.000Z</time>
      </trkpt>
      <trkpt lat="48.77768" lon="1.7999">
        <ele>161.60000610352</ele>
        <time>2026-06-16T12:03:54.000Z</time>
      </trkpt>
      <trkpt lat="48.77775" lon="1.79973">
        <ele>162</ele>
        <time>2026-06-16T12:03:59.000Z</time>
      </trkpt>
      <trkpt lat="48.77783" lon="1.79954">
        <ele>162.39999389648</ele>
        <time>2026-06-16T12:04:05.000Z</time>
      </trkpt>
      <trkpt lat="48.77784" lon="1.79954">
        <ele>162.60000610352</ele>
        <time>2026-06-16T12:04:06.000Z</time>
      </trkpt>
      <trkpt lat="48.77788" lon="1.79952">
        <ele>163.19999694824</ele>
        <time>2026-06-16T12:04:10.000Z</time>
      </trkpt>
      <trkpt lat="48.77788" lon="1.79946">
        <ele>163.39999389648</ele>
        <time>2026-06-16T12:04:12.000Z</time>
      </trkpt>
      <trkpt lat="48.77787" lon="1.79942">
        <ele>163.39999389648</ele>
        <time>2026-06-16T12:04:13.000Z</time>
      </trkpt>
      <trkpt lat="48.77786" lon="1.79939">
        <ele>163.60000610352</ele>
        <time>2026-06-16T12:04:14.000Z</time>
      </trkpt>
      <trkpt lat="48.7778" lon="1.79917">
        <ele>163.60000610352</ele>
        <time>2026-06-16T12:04:20.000Z</time>
      </trkpt>
      <trkpt lat="48.77782" lon="1.79915">
        <ele>163.60000610352</ele>
        <time>2026-06-16T12:04:22.000Z</time>
      </trkpt>
      <trkpt lat="48.77775" lon="1.79903">
        <ele>163.39999389648</ele>
        <time>2026-06-16T12:04:26.000Z</time>
      </trkpt>
      <trkpt lat="48.77771" lon="1.79896">
        <ele>163.39999389648</ele>
        <time>2026-06-16T12:04:30.000Z</time>
      </trkpt>
      <trkpt lat="48.77771" lon="1.79896">
        <ele>163.39999389648</ele>
        <time>2026-06-16T12:04:31.000Z</time>
      </trkpt>
      <trkpt lat="48.7777" lon="1.79897">
        <ele>163.60000610352</ele>
        <time>2026-06-16T12:04:38.000Z</time>
      </trkpt>
      <trkpt lat="48.77768" lon="1.79898">
        <ele>163.60000610352</ele>
        <time>2026-06-16T12:04:48.000Z</time>
      </trkpt>
      <trkpt lat="48.77762" lon="1.79887">
        <ele>163.80000305176</ele>
        <time>2026-06-16T12:06:05.000Z</time>
      </trkpt>
      <trkpt lat="48.77762" lon="1.79888">
        <ele>163.80000305176</ele>
        <time>2026-06-16T12:06:27.000Z</time>
      </trkpt>
      <trkpt lat="48.77765" lon="1.79889">
        <ele>162</ele>
        <time>2026-06-16T12:07:12.000Z</time>
      </trkpt>
      <trkpt lat="48.77765" lon="1.79889">
        <ele>160.19999694824</ele>
        <time>2026-06-16T12:07:14.000Z</time>
      </trkpt>
      <trkpt lat="48.77765" lon="1.7989">
        <ele>161.39999389648</ele>
        <time>2026-06-16T12:07:16.000Z</time>
      </trkpt>
      <trkpt lat="48.77766" lon="1.7989">
        <ele>165.60000610352</ele>
        <time>2026-06-16T12:07:17.000Z</time>
      </trkpt>
      <trkpt lat="48.77766" lon="1.7989">
        <ele>167.39999389648</ele>
        <time>2026-06-16T12:07:19.000Z</time>
      </trkpt>
      <trkpt lat="48.77766" lon="1.7989">
        <ele>166.39999389648</ele>
        <time>2026-06-16T12:07:24.000Z</time>
      </trkpt>
      <trkpt lat="48.77766" lon="1.79891">
        <ele>164.80000305176</ele>
        <time>2026-06-16T12:07:27.000Z</time>
      </trkpt>
      <trkpt lat="48.77765" lon="1.79891">
        <ele>163.80000305176</ele>
        <time>2026-06-16T12:07:32.000Z</time>
      </trkpt>
      <trkpt lat="48.77764" lon="1.79897">
        <ele>163.60000610352</ele>
        <time>2026-06-16T12:07:50.000Z</time>
      </trkpt>
      <trkpt lat="48.77764" lon="1.79897">
        <ele>163.80000305176</ele>
        <time>2026-06-16T12:07:52.000Z</time>
      </trkpt>
      <trkpt lat="48.77763" lon="1.79897">
        <ele>163.80000305176</ele>
        <time>2026-06-16T12:07:58.000Z</time>
      </trkpt>
      <trkpt lat="48.77759" lon="1.79888">
        <ele>163.60000610352</ele>
        <time>2026-06-16T12:08:01.000Z</time>
      </trkpt>
      <trkpt lat="48.77755" lon="1.79869">
        <ele>163</ele>
        <time>2026-06-16T12:08:07.000Z</time>
      </trkpt>
      <trkpt lat="48.77756" lon="1.79849">
        <ele>163</ele>
        <time>2026-06-16T12:08:13.000Z</time>
      </trkpt>
      <trkpt lat="48.77756" lon="1.79842">
        <ele>163</ele>
        <time>2026-06-16T12:08:15.000Z</time>
      </trkpt>
      <trkpt lat="48.77752" lon="1.79832">
        <ele>163</ele>
        <time>2026-06-16T12:08:18.000Z</time>
      </trkpt>
      <trkpt lat="48.77744" lon="1.79803">
        <ele>163</ele>
        <time>2026-06-16T12:08:25.000Z</time>
      </trkpt>
      <trkpt lat="48.77736" lon="1.79773">
        <ele>163.19999694824</ele>
        <time>2026-06-16T12:08:31.000Z</time>
      </trkpt>
      <trkpt lat="48.77728" lon="1.79742">
        <ele>163</ele>
        <time>2026-06-16T12:08:36.000Z</time>
      </trkpt>
      <trkpt lat="48.77714" lon="1.79692">
        <ele>162.60000610352</ele>
        <time>2026-06-16T12:08:44.000Z</time>
      </trkpt>
      <trkpt lat="48.77712" lon="1.79686">
        <ele>162.39999389648</ele>
        <time>2026-06-16T12:08:45.000Z</time>
      </trkpt>
      <trkpt lat="48.77694" lon="1.79627">
        <ele>161.80000305176</ele>
        <time>2026-06-16T12:08:53.000Z</time>
      </trkpt>
      <trkpt lat="48.77685" lon="1.79599">
        <ele>161.39999389648</ele>
        <time>2026-06-16T12:08:57.000Z</time>
      </trkpt>
      <trkpt lat="48.77673" lon="1.79566">
        <ele>161.19999694824</ele>
        <time>2026-06-16T12:09:02.000Z</time>
      </trkpt>
      <trkpt lat="48.77663" lon="1.79539">
        <ele>160.80000305176</ele>
        <time>2026-06-16T12:09:06.000Z</time>
      </trkpt>
      <trkpt lat="48.77652" lon="1.79512">
        <ele>160.60000610352</ele>
        <time>2026-06-16T12:09:10.000Z</time>
      </trkpt>
      <trkpt lat="48.77638" lon="1.79483">
        <ele>160.39999389648</ele>
        <time>2026-06-16T12:09:14.000Z</time>
      </trkpt>
      <trkpt lat="48.7763" lon="1.79459">
        <ele>160</ele>
        <time>2026-06-16T12:09:17.000Z</time>
      </trkpt>
      <trkpt lat="48.77627" lon="1.79452">
        <ele>159.80000305176</ele>
        <time>2026-06-16T12:09:18.000Z</time>
      </trkpt>
      <trkpt lat="48.77624" lon="1.79436">
        <ele>159.60000610352</ele>
        <time>2026-06-16T12:09:20.000Z</time>
      </trkpt>
      <trkpt lat="48.7762" lon="1.79418">
        <ele>159.60000610352</ele>
        <time>2026-06-16T12:09:22.000Z</time>
      </trkpt>
      <trkpt lat="48.77613" lon="1.79395">
        <ele>159.39999389648</ele>
        <time>2026-06-16T12:09:25.000Z</time>
      </trkpt>
      <trkpt lat="48.77607" lon="1.79363">
        <ele>159</ele>
        <time>2026-06-16T12:09:29.000Z</time>
      </trkpt>
      <trkpt lat="48.77603" lon="1.79345">
        <ele>159</ele>
        <time>2026-06-16T12:09:31.000Z</time>
      </trkpt>
      <trkpt lat="48.77591" lon="1.79294">
        <ele>158.60000610352</ele>
        <time>2026-06-16T12:09:37.000Z</time>
      </trkpt>
      <trkpt lat="48.77588" lon="1.79277">
        <ele>158.19999694824</ele>
        <time>2026-06-16T12:09:39.000Z</time>
      </trkpt>
      <trkpt lat="48.77578" lon="1.79235">
        <ele>157.60000610352</ele>
        <time>2026-06-16T12:09:44.000Z</time>
      </trkpt>
      <trkpt lat="48.77566" lon="1.79185">
        <ele>157.19999694824</ele>
        <time>2026-06-16T12:09:50.000Z</time>
      </trkpt>
      <trkpt lat="48.77563" lon="1.79169">
        <ele>157</ele>
        <time>2026-06-16T12:09:52.000Z</time>
      </trkpt>
      <trkpt lat="48.77549" lon="1.79114">
        <ele>156.80000305176</ele>
        <time>2026-06-16T12:09:59.000Z</time>
      </trkpt>
      <trkpt lat="48.77534" lon="1.79051">
        <ele>156.60000610352</ele>
        <time>2026-06-16T12:10:07.000Z</time>
      </trkpt>
      <trkpt lat="48.7752" lon="1.78989">
        <ele>156.60000610352</ele>
        <time>2026-06-16T12:10:15.000Z</time>
      </trkpt>
      <trkpt lat="48.77517" lon="1.78974">
        <ele>156.80000305176</ele>
        <time>2026-06-16T12:10:17.000Z</time>
      </trkpt>
      <trkpt lat="48.77513" lon="1.7896">
        <ele>157</ele>
        <time>2026-06-16T12:10:19.000Z</time>
      </trkpt>
      <trkpt lat="48.7751" lon="1.78945">
        <ele>157.39999389648</ele>
        <time>2026-06-16T12:10:21.000Z</time>
      </trkpt>
      <trkpt lat="48.77498" lon="1.78893">
        <ele>157.39999389648</ele>
        <time>2026-06-16T12:10:28.000Z</time>
      </trkpt>
      <trkpt lat="48.77484" lon="1.78835">
        <ele>157.39999389648</ele>
        <time>2026-06-16T12:10:36.000Z</time>
      </trkpt>
      <trkpt lat="48.77472" lon="1.78789">
        <ele>157.60000610352</ele>
        <time>2026-06-16T12:10:43.000Z</time>
      </trkpt>
      <trkpt lat="48.77462" lon="1.78744">
        <ele>157.60000610352</ele>
        <time>2026-06-16T12:10:50.000Z</time>
      </trkpt>
      <trkpt lat="48.7745" lon="1.78691">
        <ele>158</ele>
        <time>2026-06-16T12:10:58.000Z</time>
      </trkpt>
      <trkpt lat="48.77448" lon="1.78684">
        <ele>158.19999694824</ele>
        <time>2026-06-16T12:10:59.000Z</time>
      </trkpt>
      <trkpt lat="48.77434" lon="1.78629">
        <ele>158.19999694824</ele>
        <time>2026-06-16T12:11:07.000Z</time>
      </trkpt>
      <trkpt lat="48.77417" lon="1.78555">
        <ele>158.19999694824</ele>
        <time>2026-06-16T12:11:17.000Z</time>
      </trkpt>
      <trkpt lat="48.774" lon="1.78487">
        <ele>158.60000610352</ele>
        <time>2026-06-16T12:11:26.000Z</time>
      </trkpt>
      <trkpt lat="48.77382" lon="1.78407">
        <ele>159</ele>
        <time>2026-06-16T12:11:36.000Z</time>
      </trkpt>
      <trkpt lat="48.77381" lon="1.78399">
        <ele>159</ele>
        <time>2026-06-16T12:11:37.000Z</time>
      </trkpt>
      <trkpt lat="48.77364" lon="1.78327">
        <ele>159.19999694824</ele>
        <time>2026-06-16T12:11:46.000Z</time>
      </trkpt>
      <trkpt lat="48.77345" lon="1.78248">
        <ele>159.60000610352</ele>
        <time>2026-06-16T12:11:56.000Z</time>
      </trkpt>
      <trkpt lat="48.77342" lon="1.78232">
        <ele>159.80000305176</ele>
        <time>2026-06-16T12:11:58.000Z</time>
      </trkpt>
      <trkpt lat="48.77333" lon="1.78191">
        <ele>160</ele>
        <time>2026-06-16T12:12:03.000Z</time>
      </trkpt>
      <trkpt lat="48.77325" lon="1.78159">
        <ele>160.39999389648</ele>
        <time>2026-06-16T12:12:07.000Z</time>
      </trkpt>
      <trkpt lat="48.77313" lon="1.78104">
        <ele>160.80000305176</ele>
        <time>2026-06-16T12:12:14.000Z</time>
      </trkpt>
      <trkpt lat="48.77307" lon="1.78078">
        <ele>161</ele>
        <time>2026-06-16T12:12:17.000Z</time>
      </trkpt>
      <trkpt lat="48.77296" lon="1.7803">
        <ele>161.19999694824</ele>
        <time>2026-06-16T12:12:23.000Z</time>
      </trkpt>
      <trkpt lat="48.77281" lon="1.77966">
        <ele>161.60000610352</ele>
        <time>2026-06-16T12:12:31.000Z</time>
      </trkpt>
      <trkpt lat="48.77273" lon="1.77926">
        <ele>162</ele>
        <time>2026-06-16T12:12:36.000Z</time>
      </trkpt>
      <trkpt lat="48.77271" lon="1.7791">
        <ele>162</ele>
        <time>2026-06-16T12:12:38.000Z</time>
      </trkpt>
      <trkpt lat="48.7727" lon="1.77902">
        <ele>162.19999694824</ele>
        <time>2026-06-16T12:12:39.000Z</time>
      </trkpt>
      <trkpt lat="48.77266" lon="1.77846">
        <ele>162.60000610352</ele>
        <time>2026-06-16T12:12:46.000Z</time>
      </trkpt>
      <trkpt lat="48.77266" lon="1.77838">
        <ele>162.80000305176</ele>
        <time>2026-06-16T12:12:47.000Z</time>
      </trkpt>
      <trkpt lat="48.77263" lon="1.77801">
        <ele>163.19999694824</ele>
        <time>2026-06-16T12:12:52.000Z</time>
      </trkpt>
      <trkpt lat="48.77262" lon="1.77788">
        <ele>163.39999389648</ele>
        <time>2026-06-16T12:12:54.000Z</time>
      </trkpt>
      <trkpt lat="48.77261" lon="1.77776">
        <ele>163.60000610352</ele>
        <time>2026-06-16T12:12:56.000Z</time>
      </trkpt>
      <trkpt lat="48.77261" lon="1.77763">
        <ele>163.80000305176</ele>
        <time>2026-06-16T12:12:58.000Z</time>
      </trkpt>
      <trkpt lat="48.77261" lon="1.7773">
        <ele>163.80000305176</ele>
        <time>2026-06-16T12:13:03.000Z</time>
      </trkpt>
      <trkpt lat="48.77262" lon="1.77711">
        <ele>164</ele>
        <time>2026-06-16T12:13:06.000Z</time>
      </trkpt>
      <trkpt lat="48.77264" lon="1.77665">
        <ele>164.19999694824</ele>
        <time>2026-06-16T12:13:13.000Z</time>
      </trkpt>
      <trkpt lat="48.77265" lon="1.77644">
        <ele>164.19999694824</ele>
        <time>2026-06-16T12:13:16.000Z</time>
      </trkpt>
      <trkpt lat="48.77268" lon="1.77603">
        <ele>164.80000305176</ele>
        <time>2026-06-16T12:13:22.000Z</time>
      </trkpt>
      <trkpt lat="48.77269" lon="1.77567">
        <ele>165.19999694824</ele>
        <time>2026-06-16T12:13:27.000Z</time>
      </trkpt>
      <trkpt lat="48.77269" lon="1.7756">
        <ele>165.19999694824</ele>
        <time>2026-06-16T12:13:28.000Z</time>
      </trkpt>
      <trkpt lat="48.7727" lon="1.77553">
        <ele>165.39999389648</ele>
        <time>2026-06-16T12:13:29.000Z</time>
      </trkpt>
      <trkpt lat="48.77271" lon="1.77531">
        <ele>165.60000610352</ele>
        <time>2026-06-16T12:13:32.000Z</time>
      </trkpt>
      <trkpt lat="48.77271" lon="1.77508">
        <ele>165.60000610352</ele>
        <time>2026-06-16T12:13:35.000Z</time>
      </trkpt>
      <trkpt lat="48.77271" lon="1.77493">
        <ele>165.80000305176</ele>
        <time>2026-06-16T12:13:37.000Z</time>
      </trkpt>
      <trkpt lat="48.77271" lon="1.77485">
        <ele>165.80000305176</ele>
        <time>2026-06-16T12:13:38.000Z</time>
      </trkpt>
      <trkpt lat="48.77271" lon="1.77477">
        <ele>165.80000305176</ele>
        <time>2026-06-16T12:13:39.000Z</time>
      </trkpt>
      <trkpt lat="48.77271" lon="1.77469">
        <ele>166</ele>
        <time>2026-06-16T12:13:40.000Z</time>
      </trkpt>
      <trkpt lat="48.77271" lon="1.77461">
        <ele>166</ele>
        <time>2026-06-16T12:13:41.000Z</time>
      </trkpt>
      <trkpt lat="48.77271" lon="1.7742">
        <ele>166.19999694824</ele>
        <time>2026-06-16T12:13:46.000Z</time>
      </trkpt>
      <trkpt lat="48.7727" lon="1.77404">
        <ele>166</ele>
        <time>2026-06-16T12:13:48.000Z</time>
      </trkpt>
      <trkpt lat="48.7727" lon="1.77396">
        <ele>166</ele>
        <time>2026-06-16T12:13:49.000Z</time>
      </trkpt>
      <trkpt lat="48.7727" lon="1.7738">
        <ele>166</ele>
        <time>2026-06-16T12:13:51.000Z</time>
      </trkpt>
      <trkpt lat="48.7727" lon="1.77372">
        <ele>166</ele>
        <time>2026-06-16T12:13:52.000Z</time>
      </trkpt>
      <trkpt lat="48.77269" lon="1.77355">
        <ele>166</ele>
        <time>2026-06-16T12:13:54.000Z</time>
      </trkpt>
      <trkpt lat="48.77269" lon="1.77338">
        <ele>166</ele>
        <time>2026-06-16T12:13:56.000Z</time>
      </trkpt>
      <trkpt lat="48.77269" lon="1.77296">
        <ele>166</ele>
        <time>2026-06-16T12:14:01.000Z</time>
      </trkpt>
      <trkpt lat="48.77267" lon="1.77279">
        <ele>166</ele>
        <time>2026-06-16T12:14:03.000Z</time>
      </trkpt>
      <trkpt lat="48.77266" lon="1.77271">
        <ele>166</ele>
        <time>2026-06-16T12:14:04.000Z</time>
      </trkpt>
      <trkpt lat="48.77265" lon="1.77244">
        <ele>166</ele>
        <time>2026-06-16T12:14:07.000Z</time>
      </trkpt>
      <trkpt lat="48.77265" lon="1.77235">
        <ele>166</ele>
        <time>2026-06-16T12:14:08.000Z</time>
      </trkpt>
      <trkpt lat="48.77265" lon="1.77184">
        <ele>166</ele>
        <time>2026-06-16T12:14:14.000Z</time>
      </trkpt>
      <trkpt lat="48.77266" lon="1.77176">
        <ele>166</ele>
        <time>2026-06-16T12:14:15.000Z</time>
      </trkpt>
      <trkpt lat="48.77267" lon="1.77159">
        <ele>166</ele>
        <time>2026-06-16T12:14:17.000Z</time>
      </trkpt>
      <trkpt lat="48.77266" lon="1.77134">
        <ele>166</ele>
        <time>2026-06-16T12:14:20.000Z</time>
      </trkpt>
      <trkpt lat="48.77265" lon="1.77066">
        <ele>166</ele>
        <time>2026-06-16T12:14:28.000Z</time>
      </trkpt>
      <trkpt lat="48.77265" lon="1.77058">
        <ele>166</ele>
        <time>2026-06-16T12:14:29.000Z</time>
      </trkpt>
      <trkpt lat="48.77265" lon="1.7705">
        <ele>166.19999694824</ele>
        <time>2026-06-16T12:14:30.000Z</time>
      </trkpt>
      <trkpt lat="48.77261" lon="1.77017">
        <ele>166.39999389648</ele>
        <time>2026-06-16T12:14:34.000Z</time>
      </trkpt>
      <trkpt lat="48.77261" lon="1.77009">
        <ele>166.60000610352</ele>
        <time>2026-06-16T12:14:35.000Z</time>
      </trkpt>
      <trkpt lat="48.77258" lon="1.76985">
        <ele>166.60000610352</ele>
        <time>2026-06-16T12:14:38.000Z</time>
      </trkpt>
      <trkpt lat="48.77257" lon="1.76978">
        <ele>166.60000610352</ele>
        <time>2026-06-16T12:14:39.000Z</time>
      </trkpt>
      <trkpt lat="48.77256" lon="1.7697">
        <ele>166.60000610352</ele>
        <time>2026-06-16T12:14:40.000Z</time>
      </trkpt>
      <trkpt lat="48.77254" lon="1.76956">
        <ele>166.80000305176</ele>
        <time>2026-06-16T12:14:42.000Z</time>
      </trkpt>
      <trkpt lat="48.77252" lon="1.76949">
        <ele>166.80000305176</ele>
        <time>2026-06-16T12:14:43.000Z</time>
      </trkpt>
      <trkpt lat="48.7725" lon="1.76942">
        <ele>166.80000305176</ele>
        <time>2026-06-16T12:14:44.000Z</time>
      </trkpt>
      <trkpt lat="48.77248" lon="1.76929">
        <ele>166.80000305176</ele>
        <time>2026-06-16T12:14:46.000Z</time>
      </trkpt>
      <trkpt lat="48.77247" lon="1.76922">
        <ele>166.80000305176</ele>
        <time>2026-06-16T12:14:47.000Z</time>
      </trkpt>
      <trkpt lat="48.77245" lon="1.76914">
        <ele>167</ele>
        <time>2026-06-16T12:14:48.000Z</time>
      </trkpt>
      <trkpt lat="48.77245" lon="1.76894">
        <ele>167</ele>
        <time>2026-06-16T12:14:50.000Z</time>
      </trkpt>
      <trkpt lat="48.77244" lon="1.76877">
        <ele>167.19999694824</ele>
        <time>2026-06-16T12:14:52.000Z</time>
      </trkpt>
      <trkpt lat="48.77242" lon="1.76825">
        <ele>167.19999694824</ele>
        <time>2026-06-16T12:14:58.000Z</time>
      </trkpt>
      <trkpt lat="48.7724" lon="1.76807">
        <ele>167</ele>
        <time>2026-06-16T12:15:00.000Z</time>
      </trkpt>
      <trkpt lat="48.77235" lon="1.76751">
        <ele>167</ele>
        <time>2026-06-16T12:15:06.000Z</time>
      </trkpt>
      <trkpt lat="48.77226" lon="1.76664">
        <ele>167</ele>
        <time>2026-06-16T12:15:16.000Z</time>
      </trkpt>
      <trkpt lat="48.77218" lon="1.76577">
        <ele>166.39999389648</ele>
        <time>2026-06-16T12:15:26.000Z</time>
      </trkpt>
      <trkpt lat="48.77217" lon="1.76568">
        <ele>166.39999389648</ele>
        <time>2026-06-16T12:15:27.000Z</time>
      </trkpt>
      <trkpt lat="48.77208" lon="1.7652">
        <ele>165.80000305176</ele>
        <time>2026-06-16T12:15:33.000Z</time>
      </trkpt>
      <trkpt lat="48.77206" lon="1.76513">
        <ele>165.60000610352</ele>
        <time>2026-06-16T12:15:34.000Z</time>
      </trkpt>
      <trkpt lat="48.77201" lon="1.76499">
        <ele>165.60000610352</ele>
        <time>2026-06-16T12:15:36.000Z</time>
      </trkpt>
      <trkpt lat="48.77186" lon="1.76474">
        <ele>165.39999389648</ele>
        <time>2026-06-16T12:15:40.000Z</time>
      </trkpt>
      <trkpt lat="48.77158" lon="1.76441">
        <ele>165.39999389648</ele>
        <time>2026-06-16T12:15:46.000Z</time>
      </trkpt>
      <trkpt lat="48.77114" lon="1.76394">
        <ele>165.60000610352</ele>
        <time>2026-06-16T12:15:55.000Z</time>
      </trkpt>
      <trkpt lat="48.77076" lon="1.76355">
        <ele>165.39999389648</ele>
        <time>2026-06-16T12:16:03.000Z</time>
      </trkpt>
      <trkpt lat="48.77046" lon="1.76323">
        <ele>165.39999389648</ele>
        <time>2026-06-16T12:16:10.000Z</time>
      </trkpt>
      <trkpt lat="48.77029" lon="1.7631">
        <ele>165.39999389648</ele>
        <time>2026-06-16T12:16:13.000Z</time>
      </trkpt>
      <trkpt lat="48.77018" lon="1.76306">
        <ele>165.39999389648</ele>
        <time>2026-06-16T12:16:15.000Z</time>
      </trkpt>
      <trkpt lat="48.77013" lon="1.76305">
        <ele>165.39999389648</ele>
        <time>2026-06-16T12:16:16.000Z</time>
      </trkpt>
      <trkpt lat="48.76995" lon="1.76304">
        <ele>165.39999389648</ele>
        <time>2026-06-16T12:16:19.000Z</time>
      </trkpt>
      <trkpt lat="48.76986" lon="1.76303">
        <ele>165.19999694824</ele>
        <time>2026-06-16T12:16:21.000Z</time>
      </trkpt>
      <trkpt lat="48.76975" lon="1.76305">
        <ele>165.19999694824</ele>
        <time>2026-06-16T12:16:23.000Z</time>
      </trkpt>
      <trkpt lat="48.76962" lon="1.76308">
        <ele>165</ele>
        <time>2026-06-16T12:16:25.000Z</time>
      </trkpt>
      <trkpt lat="48.76953" lon="1.76309">
        <ele>164.80000305176</ele>
        <time>2026-06-16T12:16:26.000Z</time>
      </trkpt>
      <trkpt lat="48.76946" lon="1.7631">
        <ele>164.80000305176</ele>
        <time>2026-06-16T12:16:27.000Z</time>
      </trkpt>
      <trkpt lat="48.76932" lon="1.76311">
        <ele>164.39999389648</ele>
        <time>2026-06-16T12:16:29.000Z</time>
      </trkpt>
      <trkpt lat="48.76917" lon="1.76306">
        <ele>163.80000305176</ele>
        <time>2026-06-16T12:16:31.000Z</time>
      </trkpt>
      <trkpt lat="48.76908" lon="1.763">
        <ele>163.39999389648</ele>
        <time>2026-06-16T12:16:32.000Z</time>
      </trkpt>
      <trkpt lat="48.76882" lon="1.76286">
        <ele>162.19999694824</ele>
        <time>2026-06-16T12:16:34.000Z</time>
      </trkpt>
      <trkpt lat="48.76853" lon="1.76276">
        <ele>161</ele>
        <time>2026-06-16T12:16:37.000Z</time>
      </trkpt>
      <trkpt lat="48.76841" lon="1.7627">
        <ele>160.19999694824</ele>
        <time>2026-06-16T12:16:38.000Z</time>
      </trkpt>
      <trkpt lat="48.76833" lon="1.76265">
        <ele>159.80000305176</ele>
        <time>2026-06-16T12:16:39.000Z</time>
      </trkpt>
      <trkpt lat="48.76808" lon="1.76246">
        <ele>158.60000610352</ele>
        <time>2026-06-16T12:16:42.000Z</time>
      </trkpt>
      <trkpt lat="48.76779" lon="1.76223">
        <ele>158</ele>
        <time>2026-06-16T12:16:46.000Z</time>
      </trkpt>
      <trkpt lat="48.76766" lon="1.76207">
        <ele>158</ele>
        <time>2026-06-16T12:16:49.000Z</time>
      </trkpt>
      <trkpt lat="48.76758" lon="1.76194">
        <ele>158.60000610352</ele>
        <time>2026-06-16T12:16:51.000Z</time>
      </trkpt>
      <trkpt lat="48.76755" lon="1.76179">
        <ele>159.60000610352</ele>
        <time>2026-06-16T12:16:54.000Z</time>
      </trkpt>
      <trkpt lat="48.76756" lon="1.76175">
        <ele>159.80000305176</ele>
        <time>2026-06-16T12:16:55.000Z</time>
      </trkpt>
      <trkpt lat="48.76745" lon="1.76166">
        <ele>161</ele>
        <time>2026-06-16T12:16:57.000Z</time>
      </trkpt>
      <trkpt lat="48.76737" lon="1.76156">
        <ele>161.39999389648</ele>
        <time>2026-06-16T12:16:59.000Z</time>
      </trkpt>
      <trkpt lat="48.76725" lon="1.76141">
        <ele>162.19999694824</ele>
        <time>2026-06-16T12:17:02.000Z</time>
      </trkpt>
      <trkpt lat="48.76721" lon="1.76134">
        <ele>162.39999389648</ele>
        <time>2026-06-16T12:17:03.000Z</time>
      </trkpt>
      <trkpt lat="48.76711" lon="1.76115">
        <ele>162.80000305176</ele>
        <time>2026-06-16T12:17:05.000Z</time>
      </trkpt>
      <trkpt lat="48.76706" lon="1.76108">
        <ele>163</ele>
        <time>2026-06-16T12:17:06.000Z</time>
      </trkpt>
      <trkpt lat="48.76698" lon="1.76094">
        <ele>163.19999694824</ele>
        <time>2026-06-16T12:17:08.000Z</time>
      </trkpt>
      <trkpt lat="48.76691" lon="1.76086">
        <ele>163.39999389648</ele>
        <time>2026-06-16T12:17:09.000Z</time>
      </trkpt>
      <trkpt lat="48.76677" lon="1.76053">
        <ele>163.80000305176</ele>
        <time>2026-06-16T12:17:13.000Z</time>
      </trkpt>
      <trkpt lat="48.76674" lon="1.76046">
        <ele>163.80000305176</ele>
        <time>2026-06-16T12:17:14.000Z</time>
      </trkpt>
      <trkpt lat="48.76664" lon="1.76022">
        <ele>164</ele>
        <time>2026-06-16T12:17:17.000Z</time>
      </trkpt>
      <trkpt lat="48.76646" lon="1.75978">
        <ele>163.80000305176</ele>
        <time>2026-06-16T12:17:23.000Z</time>
      </trkpt>
      <trkpt lat="48.76638" lon="1.75957">
        <ele>164</ele>
        <time>2026-06-16T12:17:26.000Z</time>
      </trkpt>
      <trkpt lat="48.76631" lon="1.75941">
        <ele>164</ele>
        <time>2026-06-16T12:17:28.000Z</time>
      </trkpt>
      <trkpt lat="48.76626" lon="1.75934">
        <ele>164.19999694824</ele>
        <time>2026-06-16T12:17:29.000Z</time>
      </trkpt>
      <trkpt lat="48.76624" lon="1.75926">
        <ele>164.19999694824</ele>
        <time>2026-06-16T12:17:30.000Z</time>
      </trkpt>
      <trkpt lat="48.76618" lon="1.75909">
        <ele>164.19999694824</ele>
        <time>2026-06-16T12:17:32.000Z</time>
      </trkpt>
      <trkpt lat="48.76615" lon="1.75901">
        <ele>164.19999694824</ele>
        <time>2026-06-16T12:17:33.000Z</time>
      </trkpt>
      <trkpt lat="48.76611" lon="1.75894">
        <ele>164.19999694824</ele>
        <time>2026-06-16T12:17:34.000Z</time>
      </trkpt>
      <trkpt lat="48.76603" lon="1.75871">
        <ele>164</ele>
        <time>2026-06-16T12:17:37.000Z</time>
      </trkpt>
      <trkpt lat="48.76601" lon="1.75864">
        <ele>164</ele>
        <time>2026-06-16T12:17:38.000Z</time>
      </trkpt>
      <trkpt lat="48.76585" lon="1.75817">
        <ele>163.60000610352</ele>
        <time>2026-06-16T12:17:43.000Z</time>
      </trkpt>
      <trkpt lat="48.76577" lon="1.75809">
        <ele>163.39999389648</ele>
        <time>2026-06-16T12:17:44.000Z</time>
      </trkpt>
      <trkpt lat="48.76571" lon="1.758">
        <ele>163.39999389648</ele>
        <time>2026-06-16T12:17:45.000Z</time>
      </trkpt>
      <trkpt lat="48.76563" lon="1.75778">
        <ele>163.19999694824</ele>
        <time>2026-06-16T12:17:48.000Z</time>
      </trkpt>
      <trkpt lat="48.76561" lon="1.75771">
        <ele>163</ele>
        <time>2026-06-16T12:17:49.000Z</time>
      </trkpt>
      <trkpt lat="48.76543" lon="1.75747">
        <ele>163</ele>
        <time>2026-06-16T12:17:52.000Z</time>
      </trkpt>
      <trkpt lat="48.7653" lon="1.75731">
        <ele>162.80000305176</ele>
        <time>2026-06-16T12:17:54.000Z</time>
      </trkpt>
      <trkpt lat="48.76506" lon="1.75709">
        <ele>162</ele>
        <time>2026-06-16T12:17:58.000Z</time>
      </trkpt>
      <trkpt lat="48.765" lon="1.75704">
        <ele>161.80000305176</ele>
        <time>2026-06-16T12:17:59.000Z</time>
      </trkpt>
      <trkpt lat="48.76459" lon="1.75668">
        <ele>161</ele>
        <time>2026-06-16T12:18:06.000Z</time>
      </trkpt>
      <trkpt lat="48.76437" lon="1.75646">
        <ele>161</ele>
        <time>2026-06-16T12:18:10.000Z</time>
      </trkpt>
      <trkpt lat="48.76433" lon="1.75638">
        <ele>161</ele>
        <time>2026-06-16T12:18:11.000Z</time>
      </trkpt>
      <trkpt lat="48.7643" lon="1.7563">
        <ele>160.80000305176</ele>
        <time>2026-06-16T12:18:12.000Z</time>
      </trkpt>
      <trkpt lat="48.76429" lon="1.75621">
        <ele>160.80000305176</ele>
        <time>2026-06-16T12:18:13.000Z</time>
      </trkpt>
      <trkpt lat="48.7643" lon="1.75601">
        <ele>160.39999389648</ele>
        <time>2026-06-16T12:18:15.000Z</time>
      </trkpt>
      <trkpt lat="48.76435" lon="1.75583">
        <ele>160.19999694824</ele>
        <time>2026-06-16T12:18:17.000Z</time>
      </trkpt>
      <trkpt lat="48.76441" lon="1.75567">
        <ele>160</ele>
        <time>2026-06-16T12:18:19.000Z</time>
      </trkpt>
      <trkpt lat="48.76459" lon="1.75532">
        <ele>159.80000305176</ele>
        <time>2026-06-16T12:18:24.000Z</time>
      </trkpt>
      <trkpt lat="48.76468" lon="1.75511">
        <ele>160</ele>
        <time>2026-06-16T12:18:27.000Z</time>
      </trkpt>
      <trkpt lat="48.76487" lon="1.75463">
        <ele>160.39999389648</ele>
        <time>2026-06-16T12:18:34.000Z</time>
      </trkpt>
      <trkpt lat="48.7649" lon="1.75456">
        <ele>160.39999389648</ele>
        <time>2026-06-16T12:18:35.000Z</time>
      </trkpt>
      <trkpt lat="48.76501" lon="1.75427">
        <ele>160.60000610352</ele>
        <time>2026-06-16T12:18:39.000Z</time>
      </trkpt>
      <trkpt lat="48.76507" lon="1.75413">
        <ele>160.80000305176</ele>
        <time>2026-06-16T12:18:41.000Z</time>
      </trkpt>
      <trkpt lat="48.76512" lon="1.75399">
        <ele>161</ele>
        <time>2026-06-16T12:18:43.000Z</time>
      </trkpt>
      <trkpt lat="48.76516" lon="1.75385">
        <ele>161.19999694824</ele>
        <time>2026-06-16T12:18:45.000Z</time>
      </trkpt>
      <trkpt lat="48.7653" lon="1.75352">
        <ele>162</ele>
        <time>2026-06-16T12:18:50.000Z</time>
      </trkpt>
      <trkpt lat="48.76533" lon="1.75346">
        <ele>162</ele>
        <time>2026-06-16T12:18:51.000Z</time>
      </trkpt>
      <trkpt lat="48.76543" lon="1.75327">
        <ele>162.19999694824</ele>
        <time>2026-06-16T12:18:54.000Z</time>
      </trkpt>
      <trkpt lat="48.7655" lon="1.75315">
        <ele>162.39999389648</ele>
        <time>2026-06-16T12:18:56.000Z</time>
      </trkpt>
      <trkpt lat="48.7656" lon="1.75299">
        <ele>162.60000610352</ele>
        <time>2026-06-16T12:18:59.000Z</time>
      </trkpt>
      <trkpt lat="48.76571" lon="1.75284">
        <ele>162.80000305176</ele>
        <time>2026-06-16T12:19:02.000Z</time>
      </trkpt>
      <trkpt lat="48.76579" lon="1.75263">
        <ele>163</ele>
        <time>2026-06-16T12:19:05.000Z</time>
      </trkpt>
      <trkpt lat="48.76582" lon="1.75256">
        <ele>163</ele>
        <time>2026-06-16T12:19:06.000Z</time>
      </trkpt>
      <trkpt lat="48.76585" lon="1.7525">
        <ele>163</ele>
        <time>2026-06-16T12:19:07.000Z</time>
      </trkpt>
      <trkpt lat="48.76595" lon="1.75221">
        <ele>163.19999694824</ele>
        <time>2026-06-16T12:19:11.000Z</time>
      </trkpt>
      <trkpt lat="48.76602" lon="1.75202">
        <ele>163.19999694824</ele>
        <time>2026-06-16T12:19:13.000Z</time>
      </trkpt>
      <trkpt lat="48.7661" lon="1.75175">
        <ele>163.60000610352</ele>
        <time>2026-06-16T12:19:17.000Z</time>
      </trkpt>
      <trkpt lat="48.76613" lon="1.75149">
        <ele>163.80000305176</ele>
        <time>2026-06-16T12:19:20.000Z</time>
      </trkpt>
      <trkpt lat="48.76614" lon="1.7514">
        <ele>163.80000305176</ele>
        <time>2026-06-16T12:19:21.000Z</time>
      </trkpt>
      <trkpt lat="48.76616" lon="1.75132">
        <ele>163.80000305176</ele>
        <time>2026-06-16T12:19:22.000Z</time>
      </trkpt>
      <trkpt lat="48.7662" lon="1.75091">
        <ele>164.19999694824</ele>
        <time>2026-06-16T12:19:27.000Z</time>
      </trkpt>
      <trkpt lat="48.76628" lon="1.75018">
        <ele>164.80000305176</ele>
        <time>2026-06-16T12:19:36.000Z</time>
      </trkpt>
      <trkpt lat="48.76636" lon="1.74952">
        <ele>165</ele>
        <time>2026-06-16T12:19:44.000Z</time>
      </trkpt>
      <trkpt lat="48.76645" lon="1.74877">
        <ele>165.39999389648</ele>
        <time>2026-06-16T12:19:53.000Z</time>
      </trkpt>
      <trkpt lat="48.76649" lon="1.74843">
        <ele>165.60000610352</ele>
        <time>2026-06-16T12:19:57.000Z</time>
      </trkpt>
      <trkpt lat="48.76654" lon="1.748">
        <ele>165.60000610352</ele>
        <time>2026-06-16T12:20:02.000Z</time>
      </trkpt>
      <trkpt lat="48.76655" lon="1.74764">
        <ele>165.60000610352</ele>
        <time>2026-06-16T12:20:06.000Z</time>
      </trkpt>
      <trkpt lat="48.76654" lon="1.74737">
        <ele>165.60000610352</ele>
        <time>2026-06-16T12:20:09.000Z</time>
      </trkpt>
      <trkpt lat="48.76648" lon="1.74674">
        <ele>165.39999389648</ele>
        <time>2026-06-16T12:20:16.000Z</time>
      </trkpt>
      <trkpt lat="48.76646" lon="1.74665">
        <ele>165.39999389648</ele>
        <time>2026-06-16T12:20:17.000Z</time>
      </trkpt>
      <trkpt lat="48.76639" lon="1.7463">
        <ele>165.39999389648</ele>
        <time>2026-06-16T12:20:21.000Z</time>
      </trkpt>
      <trkpt lat="48.76633" lon="1.74613">
        <ele>165.39999389648</ele>
        <time>2026-06-16T12:20:23.000Z</time>
      </trkpt>
      <trkpt lat="48.76607" lon="1.74561">
        <ele>165.19999694824</ele>
        <time>2026-06-16T12:20:30.000Z</time>
      </trkpt>
      <trkpt lat="48.76584" lon="1.7452">
        <ele>165.39999389648</ele>
        <time>2026-06-16T12:20:36.000Z</time>
      </trkpt>
      <trkpt lat="48.76581" lon="1.74514">
        <ele>165.39999389648</ele>
        <time>2026-06-16T12:20:37.000Z</time>
      </trkpt>
      <trkpt lat="48.76563" lon="1.74485">
        <ele>165.39999389648</ele>
        <time>2026-06-16T12:20:41.000Z</time>
      </trkpt>
      <trkpt lat="48.76536" lon="1.74439">
        <ele>165</ele>
        <time>2026-06-16T12:20:48.000Z</time>
      </trkpt>
      <trkpt lat="48.76513" lon="1.74412">
        <ele>164.80000305176</ele>
        <time>2026-06-16T12:20:53.000Z</time>
      </trkpt>
      <trkpt lat="48.76505" lon="1.74406">
        <ele>164.80000305176</ele>
        <time>2026-06-16T12:20:54.000Z</time>
      </trkpt>
      <trkpt lat="48.76463" lon="1.74371">
        <ele>164.80000305176</ele>
        <time>2026-06-16T12:21:02.000Z</time>
      </trkpt>
      <trkpt lat="48.76422" lon="1.74355">
        <ele>165</ele>
        <time>2026-06-16T12:21:10.000Z</time>
      </trkpt>
      <trkpt lat="48.76393" lon="1.7435">
        <ele>165</ele>
        <time>2026-06-16T12:21:16.000Z</time>
      </trkpt>
      <trkpt lat="48.76372" lon="1.74345">
        <ele>164.80000305176</ele>
        <time>2026-06-16T12:21:21.000Z</time>
      </trkpt>
      <trkpt lat="48.76338" lon="1.74335">
        <ele>165</ele>
        <time>2026-06-16T12:21:28.000Z</time>
      </trkpt>
      <trkpt lat="48.76316" lon="1.74331">
        <ele>164.80000305176</ele>
        <time>2026-06-16T12:21:33.000Z</time>
      </trkpt>
      <trkpt lat="48.76309" lon="1.74329">
        <ele>164.80000305176</ele>
        <time>2026-06-16T12:21:35.000Z</time>
      </trkpt>
      <trkpt lat="48.76289" lon="1.74326">
        <ele>164.80000305176</ele>
        <time>2026-06-16T12:21:40.000Z</time>
      </trkpt>
      <trkpt lat="48.76284" lon="1.74324">
        <ele>164.60000610352</ele>
        <time>2026-06-16T12:21:41.000Z</time>
      </trkpt>
      <trkpt lat="48.76244" lon="1.74304">
        <ele>164</ele>
        <time>2026-06-16T12:21:47.000Z</time>
      </trkpt>
      <trkpt lat="48.76238" lon="1.74294">
        <ele>163.39999389648</ele>
        <time>2026-06-16T12:21:48.000Z</time>
      </trkpt>
      <trkpt lat="48.7623" lon="1.74267">
        <ele>162.39999389648</ele>
        <time>2026-06-16T12:21:50.000Z</time>
      </trkpt>
      <trkpt lat="48.76227" lon="1.74246">
        <ele>161.80000305176</ele>
        <time>2026-06-16T12:21:51.000Z</time>
      </trkpt>
      <trkpt lat="48.76217" lon="1.74207">
        <ele>161</ele>
        <time>2026-06-16T12:21:53.000Z</time>
      </trkpt>
      <trkpt lat="48.76216" lon="1.74187">
        <ele>160</ele>
        <time>2026-06-16T12:21:54.000Z</time>
      </trkpt>
      <trkpt lat="48.76214" lon="1.74169">
        <ele>159.19999694824</ele>
        <time>2026-06-16T12:21:55.000Z</time>
      </trkpt>
      <trkpt lat="48.76211" lon="1.7415">
        <ele>158.19999694824</ele>
        <time>2026-06-16T12:21:56.000Z</time>
      </trkpt>
      <trkpt lat="48.76206" lon="1.74132">
        <ele>157.60000610352</ele>
        <time>2026-06-16T12:21:57.000Z</time>
      </trkpt>
      <trkpt lat="48.76196" lon="1.74113">
        <ele>156.19999694824</ele>
        <time>2026-06-16T12:21:58.000Z</time>
      </trkpt>
      <trkpt lat="48.76177" lon="1.74078">
        <ele>154.19999694824</ele>
        <time>2026-06-16T12:22:00.000Z</time>
      </trkpt>
      <trkpt lat="48.76168" lon="1.74062">
        <ele>153</ele>
        <time>2026-06-16T12:22:01.000Z</time>
      </trkpt>
      <trkpt lat="48.7616" lon="1.74046">
        <ele>152.39999389648</ele>
        <time>2026-06-16T12:22:02.000Z</time>
      </trkpt>
      <trkpt lat="48.76152" lon="1.7403">
        <ele>151.39999389648</ele>
        <time>2026-06-16T12:22:03.000Z</time>
      </trkpt>
      <trkpt lat="48.76146" lon="1.74013">
        <ele>150.60000610352</ele>
        <time>2026-06-16T12:22:04.000Z</time>
      </trkpt>
      <trkpt lat="48.76139" lon="1.73996">
        <ele>149.19999694824</ele>
        <time>2026-06-16T12:22:05.000Z</time>
      </trkpt>
      <trkpt lat="48.76128" lon="1.73962">
        <ele>147.60000610352</ele>
        <time>2026-06-16T12:22:07.000Z</time>
      </trkpt>
      <trkpt lat="48.76119" lon="1.73928">
        <ele>145.80000305176</ele>
        <time>2026-06-16T12:22:09.000Z</time>
      </trkpt>
      <trkpt lat="48.76109" lon="1.739">
        <ele>144.60000610352</ele>
        <time>2026-06-16T12:22:11.000Z</time>
      </trkpt>
      <trkpt lat="48.76102" lon="1.73888">
        <ele>143.60000610352</ele>
        <time>2026-06-16T12:22:12.000Z</time>
      </trkpt>
      <trkpt lat="48.76095" lon="1.73878">
        <ele>143.19999694824</ele>
        <time>2026-06-16T12:22:13.000Z</time>
      </trkpt>
      <trkpt lat="48.76079" lon="1.7386">
        <ele>142.19999694824</ele>
        <time>2026-06-16T12:22:15.000Z</time>
      </trkpt>
      <trkpt lat="48.7607" lon="1.73851">
        <ele>142</ele>
        <time>2026-06-16T12:22:16.000Z</time>
      </trkpt>
      <trkpt lat="48.76048" lon="1.73822">
        <ele>140.60000610352</ele>
        <time>2026-06-16T12:22:19.000Z</time>
      </trkpt>
      <trkpt lat="48.76041" lon="1.73813">
        <ele>139.60000610352</ele>
        <time>2026-06-16T12:22:20.000Z</time>
      </trkpt>
      <trkpt lat="48.76033" lon="1.73805">
        <ele>139.19999694824</ele>
        <time>2026-06-16T12:22:21.000Z</time>
      </trkpt>
      <trkpt lat="48.76014" lon="1.73788">
        <ele>138.19999694824</ele>
        <time>2026-06-16T12:22:23.000Z</time>
      </trkpt>
      <trkpt lat="48.76004" lon="1.73782">
        <ele>137.39999389648</ele>
        <time>2026-06-16T12:22:24.000Z</time>
      </trkpt>
      <trkpt lat="48.75994" lon="1.73776">
        <ele>137</ele>
        <time>2026-06-16T12:22:25.000Z</time>
      </trkpt>
      <trkpt lat="48.75983" lon="1.73771">
        <ele>135.60000610352</ele>
        <time>2026-06-16T12:22:26.000Z</time>
      </trkpt>
      <trkpt lat="48.75959" lon="1.7376">
        <ele>134.39999389648</ele>
        <time>2026-06-16T12:22:28.000Z</time>
      </trkpt>
      <trkpt lat="48.75946" lon="1.73754">
        <ele>133.39999389648</ele>
        <time>2026-06-16T12:22:29.000Z</time>
      </trkpt>
      <trkpt lat="48.75922" lon="1.73744">
        <ele>131.60000610352</ele>
        <time>2026-06-16T12:22:31.000Z</time>
      </trkpt>
      <trkpt lat="48.75896" lon="1.73732">
        <ele>130</ele>
        <time>2026-06-16T12:22:33.000Z</time>
      </trkpt>
      <trkpt lat="48.75883" lon="1.73726">
        <ele>129</ele>
        <time>2026-06-16T12:22:34.000Z</time>
      </trkpt>
      <trkpt lat="48.75859" lon="1.73715">
        <ele>127.19999694824</ele>
        <time>2026-06-16T12:22:36.000Z</time>
      </trkpt>
      <trkpt lat="48.75849" lon="1.73711">
        <ele>126.59999847412</ele>
        <time>2026-06-16T12:22:37.000Z</time>
      </trkpt>
      <trkpt lat="48.75838" lon="1.73706">
        <ele>125.40000152588</ele>
        <time>2026-06-16T12:22:38.000Z</time>
      </trkpt>
      <trkpt lat="48.75828" lon="1.737">
        <ele>124.40000152588</ele>
        <time>2026-06-16T12:22:39.000Z</time>
      </trkpt>
      <trkpt lat="48.75818" lon="1.73693">
        <ele>124</ele>
        <time>2026-06-16T12:22:40.000Z</time>
      </trkpt>
      <trkpt lat="48.75809" lon="1.73686">
        <ele>123</ele>
        <time>2026-06-16T12:22:41.000Z</time>
      </trkpt>
      <trkpt lat="48.75791" lon="1.73668">
        <ele>121.19999694824</ele>
        <time>2026-06-16T12:22:43.000Z</time>
      </trkpt>
      <trkpt lat="48.75773" lon="1.73642">
        <ele>119.80000305176</ele>
        <time>2026-06-16T12:22:45.000Z</time>
      </trkpt>
      <trkpt lat="48.75766" lon="1.73628">
        <ele>118.80000305176</ele>
        <time>2026-06-16T12:22:46.000Z</time>
      </trkpt>
      <trkpt lat="48.75761" lon="1.73613">
        <ele>118.59999847412</ele>
        <time>2026-06-16T12:22:47.000Z</time>
      </trkpt>
      <trkpt lat="48.75755" lon="1.73579">
        <ele>117.19999694824</ele>
        <time>2026-06-16T12:22:49.000Z</time>
      </trkpt>
      <trkpt lat="48.75753" lon="1.73547">
        <ele>116</ele>
        <time>2026-06-16T12:22:51.000Z</time>
      </trkpt>
      <trkpt lat="48.75751" lon="1.73516">
        <ele>114.59999847412</ele>
        <time>2026-06-16T12:22:53.000Z</time>
      </trkpt>
      <trkpt lat="48.75742" lon="1.73445">
        <ele>113.40000152588</ele>
        <time>2026-06-16T12:22:58.000Z</time>
      </trkpt>
      <trkpt lat="48.7574" lon="1.73434">
        <ele>113.40000152588</ele>
        <time>2026-06-16T12:22:59.000Z</time>
      </trkpt>
      <trkpt lat="48.75732" lon="1.73413">
        <ele>113.19999694824</ele>
        <time>2026-06-16T12:23:01.000Z</time>
      </trkpt>
      <trkpt lat="48.75711" lon="1.73374">
        <ele>113.19999694824</ele>
        <time>2026-06-16T12:23:06.000Z</time>
      </trkpt>
      <trkpt lat="48.75705" lon="1.73366">
        <ele>113.19999694824</ele>
        <time>2026-06-16T12:23:07.000Z</time>
      </trkpt>
      <trkpt lat="48.75692" lon="1.73347">
        <ele>113.40000152588</ele>
        <time>2026-06-16T12:23:10.000Z</time>
      </trkpt>
      <trkpt lat="48.75682" lon="1.73333">
        <ele>113.59999847412</ele>
        <time>2026-06-16T12:23:13.000Z</time>
      </trkpt>
      <trkpt lat="48.75673" lon="1.73319">
        <ele>113.80000305176</ele>
        <time>2026-06-16T12:23:16.000Z</time>
      </trkpt>
      <trkpt lat="48.75653" lon="1.73284">
        <ele>114.40000152588</ele>
        <time>2026-06-16T12:23:23.000Z</time>
      </trkpt>
      <trkpt lat="48.75646" lon="1.73274">
        <ele>114.59999847412</ele>
        <time>2026-06-16T12:23:25.000Z</time>
      </trkpt>
      <trkpt lat="48.75641" lon="1.73264">
        <ele>114.59999847412</ele>
        <time>2026-06-16T12:23:27.000Z</time>
      </trkpt>
      <trkpt lat="48.75631" lon="1.7325">
        <ele>114.80000305176</ele>
        <time>2026-06-16T12:23:30.000Z</time>
      </trkpt>
      <trkpt lat="48.75614" lon="1.73221">
        <ele>115.19999694824</ele>
        <time>2026-06-16T12:23:36.000Z</time>
      </trkpt>
      <trkpt lat="48.75611" lon="1.73217">
        <ele>115.40000152588</ele>
        <time>2026-06-16T12:23:37.000Z</time>
      </trkpt>
      <trkpt lat="48.75606" lon="1.73208">
        <ele>115.40000152588</ele>
        <time>2026-06-16T12:23:39.000Z</time>
      </trkpt>
      <trkpt lat="48.75601" lon="1.73201">
        <ele>115.59999847412</ele>
        <time>2026-06-16T12:23:41.000Z</time>
      </trkpt>
      <trkpt lat="48.75592" lon="1.73194">
        <ele>115.80000305176</ele>
        <time>2026-06-16T12:23:44.000Z</time>
      </trkpt>
      <trkpt lat="48.75588" lon="1.73187">
        <ele>116.19999694824</ele>
        <time>2026-06-16T12:23:46.000Z</time>
      </trkpt>
      <trkpt lat="48.75588" lon="1.73183">
        <ele>116.19999694824</ele>
        <time>2026-06-16T12:23:47.000Z</time>
      </trkpt>
      <trkpt lat="48.75592" lon="1.73173">
        <ele>116.59999847412</ele>
        <time>2026-06-16T12:23:50.000Z</time>
      </trkpt>
      <trkpt lat="48.75596" lon="1.73166">
        <ele>116.80000305176</ele>
        <time>2026-06-16T12:23:52.000Z</time>
      </trkpt>
      <trkpt lat="48.75612" lon="1.73139">
        <ele>117.19999694824</ele>
        <time>2026-06-16T12:23:59.000Z</time>
      </trkpt>
      <trkpt lat="48.7563" lon="1.73112">
        <ele>117</ele>
        <time>2026-06-16T12:24:06.000Z</time>
      </trkpt>
      <trkpt lat="48.75647" lon="1.73083">
        <ele>117</ele>
        <time>2026-06-16T12:24:13.000Z</time>
      </trkpt>
      <trkpt lat="48.75665" lon="1.73054">
        <ele>116.80000305176</ele>
        <time>2026-06-16T12:24:20.000Z</time>
      </trkpt>
      <trkpt lat="48.75683" lon="1.73023">
        <ele>116.59999847412</ele>
        <time>2026-06-16T12:24:27.000Z</time>
      </trkpt>
      <trkpt lat="48.75696" lon="1.73">
        <ele>116.40000152588</ele>
        <time>2026-06-16T12:24:32.000Z</time>
      </trkpt>
      <trkpt lat="48.75702" lon="1.72986">
        <ele>116.19999694824</ele>
        <time>2026-06-16T12:24:35.000Z</time>
      </trkpt>
      <trkpt lat="48.75716" lon="1.72963">
        <ele>116</ele>
        <time>2026-06-16T12:24:40.000Z</time>
      </trkpt>
      <trkpt lat="48.75737" lon="1.72931">
        <ele>115.59999847412</ele>
        <time>2026-06-16T12:24:48.000Z</time>
      </trkpt>
      <trkpt lat="48.75752" lon="1.72903">
        <ele>115.59999847412</ele>
        <time>2026-06-16T12:24:54.000Z</time>
      </trkpt>
      <trkpt lat="48.75766" lon="1.7288">
        <ele>115.59999847412</ele>
        <time>2026-06-16T12:24:59.000Z</time>
      </trkpt>
      <trkpt lat="48.75779" lon="1.72854">
        <ele>115.59999847412</ele>
        <time>2026-06-16T12:25:04.000Z</time>
      </trkpt>
      <trkpt lat="48.75789" lon="1.72828">
        <ele>115.59999847412</ele>
        <time>2026-06-16T12:25:08.000Z</time>
      </trkpt>
      <trkpt lat="48.75794" lon="1.72813">
        <ele>115.59999847412</ele>
        <time>2026-06-16T12:25:10.000Z</time>
      </trkpt>
      <trkpt lat="48.75802" lon="1.72785">
        <ele>115.40000152588</ele>
        <time>2026-06-16T12:25:14.000Z</time>
      </trkpt>
      <trkpt lat="48.75804" lon="1.72777">
        <ele>115.40000152588</ele>
        <time>2026-06-16T12:25:15.000Z</time>
      </trkpt>
      <trkpt lat="48.75805" lon="1.72769">
        <ele>115.40000152588</ele>
        <time>2026-06-16T12:25:16.000Z</time>
      </trkpt>
      <trkpt lat="48.75805" lon="1.72761">
        <ele>115.40000152588</ele>
        <time>2026-06-16T12:25:17.000Z</time>
      </trkpt>
      <trkpt lat="48.75809" lon="1.72748">
        <ele>115.40000152588</ele>
        <time>2026-06-16T12:25:19.000Z</time>
      </trkpt>
      <trkpt lat="48.75812" lon="1.72743">
        <ele>115.59999847412</ele>
        <time>2026-06-16T12:25:20.000Z</time>
      </trkpt>
      <trkpt lat="48.75816" lon="1.72722">
        <ele>115.40000152588</ele>
        <time>2026-06-16T12:25:23.000Z</time>
      </trkpt>
      <trkpt lat="48.75818" lon="1.72709">
        <ele>115.40000152588</ele>
        <time>2026-06-16T12:25:25.000Z</time>
      </trkpt>
      <trkpt lat="48.75821" lon="1.72698">
        <ele>115.40000152588</ele>
        <time>2026-06-16T12:25:27.000Z</time>
      </trkpt>
      <trkpt lat="48.75827" lon="1.72673">
        <ele>115.59999847412</ele>
        <time>2026-06-16T12:25:31.000Z</time>
      </trkpt>
      <trkpt lat="48.75829" lon="1.72659">
        <ele>115.59999847412</ele>
        <time>2026-06-16T12:25:33.000Z</time>
      </trkpt>
      <trkpt lat="48.75833" lon="1.72637">
        <ele>115.80000305176</ele>
        <time>2026-06-16T12:25:36.000Z</time>
      </trkpt>
      <trkpt lat="48.75841" lon="1.726">
        <ele>115.80000305176</ele>
        <time>2026-06-16T12:25:42.000Z</time>
      </trkpt>
      <trkpt lat="48.75843" lon="1.72588">
        <ele>115.80000305176</ele>
        <time>2026-06-16T12:25:44.000Z</time>
      </trkpt>
      <trkpt lat="48.75847" lon="1.72569">
        <ele>115.80000305176</ele>
        <time>2026-06-16T12:25:47.000Z</time>
      </trkpt>
      <trkpt lat="48.75859" lon="1.72529">
        <ele>116</ele>
        <time>2026-06-16T12:25:53.000Z</time>
      </trkpt>
      <trkpt lat="48.7586" lon="1.72521">
        <ele>116</ele>
        <time>2026-06-16T12:25:54.000Z</time>
      </trkpt>
      <trkpt lat="48.75862" lon="1.72509">
        <ele>116</ele>
        <time>2026-06-16T12:25:56.000Z</time>
      </trkpt>
      <trkpt lat="48.7587" lon="1.72475">
        <ele>116</ele>
        <time>2026-06-16T12:26:00.000Z</time>
      </trkpt>
      <trkpt lat="48.75885" lon="1.72417">
        <ele>116</ele>
        <time>2026-06-16T12:26:08.000Z</time>
      </trkpt>
      <trkpt lat="48.75889" lon="1.72404">
        <ele>116</ele>
        <time>2026-06-16T12:26:10.000Z</time>
      </trkpt>
      <trkpt lat="48.75892" lon="1.72389">
        <ele>115.59999847412</ele>
        <time>2026-06-16T12:26:12.000Z</time>
      </trkpt>
      <trkpt lat="48.75899" lon="1.72352">
        <ele>115.40000152588</ele>
        <time>2026-06-16T12:26:17.000Z</time>
      </trkpt>
      <trkpt lat="48.75901" lon="1.72339">
        <ele>115.40000152588</ele>
        <time>2026-06-16T12:26:19.000Z</time>
      </trkpt>
      <trkpt lat="48.75902" lon="1.72326">
        <ele>115.40000152588</ele>
        <time>2026-06-16T12:26:21.000Z</time>
      </trkpt>
      <trkpt lat="48.75901" lon="1.72305">
        <ele>115.40000152588</ele>
        <time>2026-06-16T12:26:24.000Z</time>
      </trkpt>
      <trkpt lat="48.75902" lon="1.723">
        <ele>115.40000152588</ele>
        <time>2026-06-16T12:26:25.000Z</time>
      </trkpt>
      <trkpt lat="48.75902" lon="1.72289">
        <ele>115.59999847412</ele>
        <time>2026-06-16T12:26:27.000Z</time>
      </trkpt>
      <trkpt lat="48.759" lon="1.72277">
        <ele>115.59999847412</ele>
        <time>2026-06-16T12:26:29.000Z</time>
      </trkpt>
      <trkpt lat="48.75892" lon="1.72252">
        <ele>115.59999847412</ele>
        <time>2026-06-16T12:26:33.000Z</time>
      </trkpt>
      <trkpt lat="48.75888" lon="1.72227">
        <ele>115.80000305176</ele>
        <time>2026-06-16T12:26:37.000Z</time>
      </trkpt>
      <trkpt lat="48.75888" lon="1.72221">
        <ele>115.80000305176</ele>
        <time>2026-06-16T12:26:38.000Z</time>
      </trkpt>
      <trkpt lat="48.75887" lon="1.72193">
        <ele>116</ele>
        <time>2026-06-16T12:26:43.000Z</time>
      </trkpt>
      <trkpt lat="48.75881" lon="1.72166">
        <ele>116.19999694824</ele>
        <time>2026-06-16T12:26:47.000Z</time>
      </trkpt>
      <trkpt lat="48.75878" lon="1.72152">
        <ele>116.40000152588</ele>
        <time>2026-06-16T12:26:49.000Z</time>
      </trkpt>
      <trkpt lat="48.75875" lon="1.72139">
        <ele>116.59999847412</ele>
        <time>2026-06-16T12:26:51.000Z</time>
      </trkpt>
      <trkpt lat="48.75867" lon="1.72117">
        <ele>116.80000305176</ele>
        <time>2026-06-16T12:26:53.000Z</time>
      </trkpt>
      <trkpt lat="48.75865" lon="1.72098">
        <ele>116.80000305176</ele>
        <time>2026-06-16T12:26:55.000Z</time>
      </trkpt>
      <trkpt lat="48.7586" lon="1.72065">
        <ele>117.19999694824</ele>
        <time>2026-06-16T12:27:00.000Z</time>
      </trkpt>
      <trkpt lat="48.75859" lon="1.72053">
        <ele>117.19999694824</ele>
        <time>2026-06-16T12:27:02.000Z</time>
      </trkpt>
      <trkpt lat="48.75858" lon="1.72047">
        <ele>117.40000152588</ele>
        <time>2026-06-16T12:27:03.000Z</time>
      </trkpt>
      <trkpt lat="48.7585" lon="1.72031">
        <ele>117.59999847412</ele>
        <time>2026-06-16T12:27:05.000Z</time>
      </trkpt>
      <trkpt lat="48.75854" lon="1.72002">
        <ele>118</ele>
        <time>2026-06-16T12:27:10.000Z</time>
      </trkpt>
      <trkpt lat="48.75835" lon="1.71965">
        <ele>118.40000152588</ele>
        <time>2026-06-16T12:27:15.000Z</time>
      </trkpt>
      <trkpt lat="48.75833" lon="1.71958">
        <ele>118.40000152588</ele>
        <time>2026-06-16T12:27:16.000Z</time>
      </trkpt>
      <trkpt lat="48.7583" lon="1.71943">
        <ele>118.80000305176</ele>
        <time>2026-06-16T12:27:18.000Z</time>
      </trkpt>
      <trkpt lat="48.75828" lon="1.71931">
        <ele>118.80000305176</ele>
        <time>2026-06-16T12:27:20.000Z</time>
      </trkpt>
      <trkpt lat="48.75819" lon="1.71884">
        <ele>119</ele>
        <time>2026-06-16T12:27:27.000Z</time>
      </trkpt>
      <trkpt lat="48.75816" lon="1.71866">
        <ele>119</ele>
        <time>2026-06-16T12:27:30.000Z</time>
      </trkpt>
      <trkpt lat="48.75812" lon="1.71853">
        <ele>119</ele>
        <time>2026-06-16T12:27:32.000Z</time>
      </trkpt>
      <trkpt lat="48.75811" lon="1.71847">
        <ele>119</ele>
        <time>2026-06-16T12:27:33.000Z</time>
      </trkpt>
      <trkpt lat="48.7581" lon="1.71841">
        <ele>119</ele>
        <time>2026-06-16T12:27:34.000Z</time>
      </trkpt>
      <trkpt lat="48.75803" lon="1.71814">
        <ele>119</ele>
        <time>2026-06-16T12:27:37.000Z</time>
      </trkpt>
      <trkpt lat="48.75794" lon="1.71785">
        <ele>119.19999694824</ele>
        <time>2026-06-16T12:27:41.000Z</time>
      </trkpt>
      <trkpt lat="48.75789" lon="1.71768">
        <ele>119.19999694824</ele>
        <time>2026-06-16T12:27:43.000Z</time>
      </trkpt>
      <trkpt lat="48.75783" lon="1.7174">
        <ele>119.19999694824</ele>
        <time>2026-06-16T12:27:46.000Z</time>
      </trkpt>
      <trkpt lat="48.7578" lon="1.71698">
        <ele>119</ele>
        <time>2026-06-16T12:27:50.000Z</time>
      </trkpt>
      <trkpt lat="48.7578" lon="1.71684">
        <ele>119</ele>
        <time>2026-06-16T12:27:51.000Z</time>
      </trkpt>
      <trkpt lat="48.75783" lon="1.71662">
        <ele>119</ele>
        <time>2026-06-16T12:27:53.000Z</time>
      </trkpt>
      <trkpt lat="48.75789" lon="1.71642">
        <ele>118.80000305176</ele>
        <time>2026-06-16T12:27:55.000Z</time>
      </trkpt>
      <trkpt lat="48.75792" lon="1.71632">
        <ele>118.59999847412</ele>
        <time>2026-06-16T12:27:56.000Z</time>
      </trkpt>
      <trkpt lat="48.75796" lon="1.71625">
        <ele>118.59999847412</ele>
        <time>2026-06-16T12:27:57.000Z</time>
      </trkpt>
      <trkpt lat="48.75804" lon="1.71606">
        <ele>118.19999694824</ele>
        <time>2026-06-16T12:27:59.000Z</time>
      </trkpt>
      <trkpt lat="48.7582" lon="1.7157">
        <ele>117.80000305176</ele>
        <time>2026-06-16T12:28:03.000Z</time>
      </trkpt>
      <trkpt lat="48.75824" lon="1.71562">
        <ele>117.59999847412</ele>
        <time>2026-06-16T12:28:04.000Z</time>
      </trkpt>
      <trkpt lat="48.75836" lon="1.71536">
        <ele>117.19999694824</ele>
        <time>2026-06-16T12:28:07.000Z</time>
      </trkpt>
      <trkpt lat="48.7585" lon="1.71505">
        <ele>116.59999847412</ele>
        <time>2026-06-16T12:28:11.000Z</time>
      </trkpt>
      <trkpt lat="48.75862" lon="1.71481">
        <ele>116.59999847412</ele>
        <time>2026-06-16T12:28:15.000Z</time>
      </trkpt>
      <trkpt lat="48.75863" lon="1.71475">
        <ele>116.59999847412</ele>
        <time>2026-06-16T12:28:16.000Z</time>
      </trkpt>
      <trkpt lat="48.75875" lon="1.71451">
        <ele>116.59999847412</ele>
        <time>2026-06-16T12:28:20.000Z</time>
      </trkpt>
      <trkpt lat="48.75884" lon="1.71433">
        <ele>117</ele>
        <time>2026-06-16T12:28:23.000Z</time>
      </trkpt>
      <trkpt lat="48.75901" lon="1.71407">
        <ele>117.19999694824</ele>
        <time>2026-06-16T12:28:27.000Z</time>
      </trkpt>
      <trkpt lat="48.75912" lon="1.71385">
        <ele>117.19999694824</ele>
        <time>2026-06-16T12:28:30.000Z</time>
      </trkpt>
      <trkpt lat="48.75919" lon="1.71371">
        <ele>117.40000152588</ele>
        <time>2026-06-16T12:28:32.000Z</time>
      </trkpt>
      <trkpt lat="48.75929" lon="1.71358">
        <ele>117.19999694824</ele>
        <time>2026-06-16T12:28:34.000Z</time>
      </trkpt>
      <trkpt lat="48.75942" lon="1.71348">
        <ele>117.40000152588</ele>
        <time>2026-06-16T12:28:36.000Z</time>
      </trkpt>
      <trkpt lat="48.75948" lon="1.71342">
        <ele>117.40000152588</ele>
        <time>2026-06-16T12:28:37.000Z</time>
      </trkpt>
      <trkpt lat="48.75953" lon="1.71328">
        <ele>117.40000152588</ele>
        <time>2026-06-16T12:28:39.000Z</time>
      </trkpt>
      <trkpt lat="48.75954" lon="1.71315">
        <ele>117.40000152588</ele>
        <time>2026-06-16T12:28:40.000Z</time>
      </trkpt>
      <trkpt lat="48.75955" lon="1.71297">
        <ele>117.40000152588</ele>
        <time>2026-06-16T12:28:42.000Z</time>
      </trkpt>
      <trkpt lat="48.75966" lon="1.71276">
        <ele>117.59999847412</ele>
        <time>2026-06-16T12:28:45.000Z</time>
      </trkpt>
      <trkpt lat="48.75979" lon="1.71247">
        <ele>117.59999847412</ele>
        <time>2026-06-16T12:28:49.000Z</time>
      </trkpt>
      <trkpt lat="48.75982" lon="1.71241">
        <ele>117.59999847412</ele>
        <time>2026-06-16T12:28:50.000Z</time>
      </trkpt>
      <trkpt lat="48.75985" lon="1.71234">
        <ele>117.59999847412</ele>
        <time>2026-06-16T12:28:51.000Z</time>
      </trkpt>
      <trkpt lat="48.75996" lon="1.71207">
        <ele>117.59999847412</ele>
        <time>2026-06-16T12:28:55.000Z</time>
      </trkpt>
      <trkpt lat="48.76011" lon="1.71174">
        <ele>117.59999847412</ele>
        <time>2026-06-16T12:29:00.000Z</time>
      </trkpt>
      <trkpt lat="48.76017" lon="1.7116">
        <ele>117.59999847412</ele>
        <time>2026-06-16T12:29:02.000Z</time>
      </trkpt>
      <trkpt lat="48.7602" lon="1.71146">
        <ele>117.80000305176</ele>
        <time>2026-06-16T12:29:04.000Z</time>
      </trkpt>
      <trkpt lat="48.76023" lon="1.71131">
        <ele>117.80000305176</ele>
        <time>2026-06-16T12:29:06.000Z</time>
      </trkpt>
      <trkpt lat="48.76033" lon="1.71121">
        <ele>117.80000305176</ele>
        <time>2026-06-16T12:29:08.000Z</time>
      </trkpt>
      <trkpt lat="48.76038" lon="1.71115">
        <ele>117.80000305176</ele>
        <time>2026-06-16T12:29:09.000Z</time>
      </trkpt>
      <trkpt lat="48.76044" lon="1.71109">
        <ele>117.80000305176</ele>
        <time>2026-06-16T12:29:10.000Z</time>
      </trkpt>
      <trkpt lat="48.76057" lon="1.71096">
        <ele>118</ele>
        <time>2026-06-16T12:29:12.000Z</time>
      </trkpt>
      <trkpt lat="48.76067" lon="1.71083">
        <ele>118</ele>
        <time>2026-06-16T12:29:14.000Z</time>
      </trkpt>
      <trkpt lat="48.76071" lon="1.71076">
        <ele>118.19999694824</ele>
        <time>2026-06-16T12:29:15.000Z</time>
      </trkpt>
      <trkpt lat="48.76077" lon="1.71062">
        <ele>118.40000152588</ele>
        <time>2026-06-16T12:29:17.000Z</time>
      </trkpt>
      <trkpt lat="48.76091" lon="1.71053">
        <ele>118.40000152588</ele>
        <time>2026-06-16T12:29:19.000Z</time>
      </trkpt>
      <trkpt lat="48.76103" lon="1.71043">
        <ele>118.59999847412</ele>
        <time>2026-06-16T12:29:21.000Z</time>
      </trkpt>
      <trkpt lat="48.76115" lon="1.71031">
        <ele>118.59999847412</ele>
        <time>2026-06-16T12:29:23.000Z</time>
      </trkpt>
      <trkpt lat="48.76116" lon="1.71022">
        <ele>118.59999847412</ele>
        <time>2026-06-16T12:29:24.000Z</time>
      </trkpt>
      <trkpt lat="48.76121" lon="1.71004">
        <ele>118.59999847412</ele>
        <time>2026-06-16T12:29:26.000Z</time>
      </trkpt>
      <trkpt lat="48.76125" lon="1.70989">
        <ele>118.80000305176</ele>
        <time>2026-06-16T12:29:28.000Z</time>
      </trkpt>
      <trkpt lat="48.76127" lon="1.70984">
        <ele>118.80000305176</ele>
        <time>2026-06-16T12:29:29.000Z</time>
      </trkpt>
      <trkpt lat="48.76133" lon="1.70973">
        <ele>118.80000305176</ele>
        <time>2026-06-16T12:29:31.000Z</time>
      </trkpt>
      <trkpt lat="48.76138" lon="1.70957">
        <ele>119</ele>
        <time>2026-06-16T12:29:33.000Z</time>
      </trkpt>
      <trkpt lat="48.7615" lon="1.70941">
        <ele>119.19999694824</ele>
        <time>2026-06-16T12:29:36.000Z</time>
      </trkpt>
      <trkpt lat="48.76153" lon="1.70937">
        <ele>119.19999694824</ele>
        <time>2026-06-16T12:29:37.000Z</time>
      </trkpt>
      <trkpt lat="48.7616" lon="1.70931">
        <ele>119.40000152588</ele>
        <time>2026-06-16T12:29:39.000Z</time>
      </trkpt>
      <trkpt lat="48.76178" lon="1.70911">
        <ele>119.59999847412</ele>
        <time>2026-06-16T12:29:43.000Z</time>
      </trkpt>
      <trkpt lat="48.76187" lon="1.70898">
        <ele>119.80000305176</ele>
        <time>2026-06-16T12:29:45.000Z</time>
      </trkpt>
      <trkpt lat="48.76194" lon="1.70885">
        <ele>119.80000305176</ele>
        <time>2026-06-16T12:29:47.000Z</time>
      </trkpt>
      <trkpt lat="48.76197" lon="1.70879">
        <ele>119.80000305176</ele>
        <time>2026-06-16T12:29:48.000Z</time>
      </trkpt>
      <trkpt lat="48.76207" lon="1.7086">
        <ele>119.80000305176</ele>
        <time>2026-06-16T12:29:51.000Z</time>
      </trkpt>
      <trkpt lat="48.76213" lon="1.70851">
        <ele>119.80000305176</ele>
        <time>2026-06-16T12:29:53.000Z</time>
      </trkpt>
      <trkpt lat="48.76231" lon="1.70824">
        <ele>120</ele>
        <time>2026-06-16T12:29:58.000Z</time>
      </trkpt>
      <trkpt lat="48.7625" lon="1.70804">
        <ele>120.19999694824</ele>
        <time>2026-06-16T12:30:02.000Z</time>
      </trkpt>
      <trkpt lat="48.76263" lon="1.70793">
        <ele>120.40000152588</ele>
        <time>2026-06-16T12:30:04.000Z</time>
      </trkpt>
      <trkpt lat="48.76283" lon="1.70765">
        <ele>120.59999847412</ele>
        <time>2026-06-16T12:30:08.000Z</time>
      </trkpt>
      <trkpt lat="48.76302" lon="1.70729">
        <ele>121</ele>
        <time>2026-06-16T12:30:14.000Z</time>
      </trkpt>
      <trkpt lat="48.76319" lon="1.7071">
        <ele>121</ele>
        <time>2026-06-16T12:30:18.000Z</time>
      </trkpt>
      <trkpt lat="48.76328" lon="1.70698">
        <ele>121</ele>
        <time>2026-06-16T12:30:20.000Z</time>
      </trkpt>
      <trkpt lat="48.76336" lon="1.70694">
        <ele>120.80000305176</ele>
        <time>2026-06-16T12:30:21.000Z</time>
      </trkpt>
      <trkpt lat="48.76347" lon="1.70684">
        <ele>120.80000305176</ele>
        <time>2026-06-16T12:30:23.000Z</time>
      </trkpt>
      <trkpt lat="48.76352" lon="1.70667">
        <ele>120.59999847412</ele>
        <time>2026-06-16T12:30:25.000Z</time>
      </trkpt>
      <trkpt lat="48.76355" lon="1.70657">
        <ele>120.59999847412</ele>
        <time>2026-06-16T12:30:26.000Z</time>
      </trkpt>
      <trkpt lat="48.76356" lon="1.70644">
        <ele>120.59999847412</ele>
        <time>2026-06-16T12:30:27.000Z</time>
      </trkpt>
      <trkpt lat="48.76366" lon="1.70628">
        <ele>120.40000152588</ele>
        <time>2026-06-16T12:30:29.000Z</time>
      </trkpt>
      <trkpt lat="48.76374" lon="1.70623">
        <ele>120.40000152588</ele>
        <time>2026-06-16T12:30:30.000Z</time>
      </trkpt>
      <trkpt lat="48.76399" lon="1.70603">
        <ele>120</ele>
        <time>2026-06-16T12:30:34.000Z</time>
      </trkpt>
      <trkpt lat="48.76404" lon="1.70598">
        <ele>119.80000305176</ele>
        <time>2026-06-16T12:30:35.000Z</time>
      </trkpt>
      <trkpt lat="48.76412" lon="1.70582">
        <ele>119.59999847412</ele>
        <time>2026-06-16T12:30:37.000Z</time>
      </trkpt>
      <trkpt lat="48.7642" lon="1.70557">
        <ele>119.40000152588</ele>
        <time>2026-06-16T12:30:40.000Z</time>
      </trkpt>
      <trkpt lat="48.76428" lon="1.70545">
        <ele>119.19999694824</ele>
        <time>2026-06-16T12:30:42.000Z</time>
      </trkpt>
      <trkpt lat="48.76432" lon="1.70539">
        <ele>119</ele>
        <time>2026-06-16T12:30:43.000Z</time>
      </trkpt>
      <trkpt lat="48.7644" lon="1.70529">
        <ele>119</ele>
        <time>2026-06-16T12:30:45.000Z</time>
      </trkpt>
      <trkpt lat="48.76444" lon="1.70522">
        <ele>119</ele>
        <time>2026-06-16T12:30:46.000Z</time>
      </trkpt>
      <trkpt lat="48.76451" lon="1.70511">
        <ele>119</ele>
        <time>2026-06-16T12:30:48.000Z</time>
      </trkpt>
      <trkpt lat="48.76454" lon="1.70505">
        <ele>119.19999694824</ele>
        <time>2026-06-16T12:30:49.000Z</time>
      </trkpt>
      <trkpt lat="48.76459" lon="1.70491">
        <ele>119.40000152588</ele>
        <time>2026-06-16T12:30:51.000Z</time>
      </trkpt>
      <trkpt lat="48.76472" lon="1.70473">
        <ele>119.40000152588</ele>
        <time>2026-06-16T12:30:54.000Z</time>
      </trkpt>
      <trkpt lat="48.76497" lon="1.70449">
        <ele>119.80000305176</ele>
        <time>2026-06-16T12:30:59.000Z</time>
      </trkpt>
      <trkpt lat="48.76515" lon="1.70414">
        <ele>119.80000305176</ele>
        <time>2026-06-16T12:31:04.000Z</time>
      </trkpt>
      <trkpt lat="48.76532" lon="1.70364">
        <ele>119.80000305176</ele>
        <time>2026-06-16T12:31:10.000Z</time>
      </trkpt>
      <trkpt lat="48.76536" lon="1.70344">
        <ele>119.80000305176</ele>
        <time>2026-06-16T12:31:12.000Z</time>
      </trkpt>
      <trkpt lat="48.7655" lon="1.70311">
        <ele>119.80000305176</ele>
        <time>2026-06-16T12:31:16.000Z</time>
      </trkpt>
      <trkpt lat="48.76563" lon="1.7026">
        <ele>119.80000305176</ele>
        <time>2026-06-16T12:31:21.000Z</time>
      </trkpt>
      <trkpt lat="48.76586" lon="1.70196">
        <ele>119.40000152588</ele>
        <time>2026-06-16T12:31:28.000Z</time>
      </trkpt>
      <trkpt lat="48.76612" lon="1.70136">
        <ele>118.40000152588</ele>
        <time>2026-06-16T12:31:35.000Z</time>
      </trkpt>
      <trkpt lat="48.76618" lon="1.70119">
        <ele>118</ele>
        <time>2026-06-16T12:31:37.000Z</time>
      </trkpt>
      <trkpt lat="48.76642" lon="1.7007">
        <ele>117.40000152588</ele>
        <time>2026-06-16T12:31:43.000Z</time>
      </trkpt>
      <trkpt lat="48.76654" lon="1.70045">
        <ele>116.80000305176</ele>
        <time>2026-06-16T12:31:46.000Z</time>
      </trkpt>
      <trkpt lat="48.76673" lon="1.69997">
        <ele>115.80000305176</ele>
        <time>2026-06-16T12:31:51.000Z</time>
      </trkpt>
      <trkpt lat="48.76676" lon="1.69989">
        <ele>115.80000305176</ele>
        <time>2026-06-16T12:31:52.000Z</time>
      </trkpt>
      <trkpt lat="48.76688" lon="1.69961">
        <ele>115.40000152588</ele>
        <time>2026-06-16T12:31:56.000Z</time>
      </trkpt>
      <trkpt lat="48.76692" lon="1.69953">
        <ele>115.40000152588</ele>
        <time>2026-06-16T12:31:57.000Z</time>
      </trkpt>
      <trkpt lat="48.76716" lon="1.69902">
        <ele>115</ele>
        <time>2026-06-16T12:32:03.000Z</time>
      </trkpt>
      <trkpt lat="48.76728" lon="1.69879">
        <ele>114.80000305176</ele>
        <time>2026-06-16T12:32:06.000Z</time>
      </trkpt>
      <trkpt lat="48.76739" lon="1.69854">
        <ele>114.80000305176</ele>
        <time>2026-06-16T12:32:09.000Z</time>
      </trkpt>
      <trkpt lat="48.76748" lon="1.6984">
        <ele>114.80000305176</ele>
        <time>2026-06-16T12:32:11.000Z</time>
      </trkpt>
      <trkpt lat="48.76751" lon="1.69831">
        <ele>115</ele>
        <time>2026-06-16T12:32:12.000Z</time>
      </trkpt>
      <trkpt lat="48.76757" lon="1.69815">
        <ele>115</ele>
        <time>2026-06-16T12:32:14.000Z</time>
      </trkpt>
      <trkpt lat="48.76766" lon="1.6979">
        <ele>115</ele>
        <time>2026-06-16T12:32:17.000Z</time>
      </trkpt>
      <trkpt lat="48.76775" lon="1.69765">
        <ele>115</ele>
        <time>2026-06-16T12:32:20.000Z</time>
      </trkpt>
      <trkpt lat="48.76789" lon="1.69736">
        <ele>115</ele>
        <time>2026-06-16T12:32:24.000Z</time>
      </trkpt>
      <trkpt lat="48.76796" lon="1.69722">
        <ele>115</ele>
        <time>2026-06-16T12:32:26.000Z</time>
      </trkpt>
      <trkpt lat="48.76804" lon="1.6971">
        <ele>115</ele>
        <time>2026-06-16T12:32:28.000Z</time>
      </trkpt>
      <trkpt lat="48.76809" lon="1.69696">
        <ele>115</ele>
        <time>2026-06-16T12:32:30.000Z</time>
      </trkpt>
      <trkpt lat="48.76812" lon="1.69689">
        <ele>115</ele>
        <time>2026-06-16T12:32:31.000Z</time>
      </trkpt>
      <trkpt lat="48.76826" lon="1.6966">
        <ele>114.80000305176</ele>
        <time>2026-06-16T12:32:35.000Z</time>
      </trkpt>
      <trkpt lat="48.76829" lon="1.69653">
        <ele>114.80000305176</ele>
        <time>2026-06-16T12:32:36.000Z</time>
      </trkpt>
      <trkpt lat="48.76833" lon="1.69645">
        <ele>114.80000305176</ele>
        <time>2026-06-16T12:32:37.000Z</time>
      </trkpt>
      <trkpt lat="48.76858" lon="1.69587">
        <ele>114</ele>
        <time>2026-06-16T12:32:44.000Z</time>
      </trkpt>
      <trkpt lat="48.76861" lon="1.69579">
        <ele>113.59999847412</ele>
        <time>2026-06-16T12:32:45.000Z</time>
      </trkpt>
      <trkpt lat="48.76884" lon="1.69519">
        <ele>112.59999847412</ele>
        <time>2026-06-16T12:32:51.000Z</time>
      </trkpt>
      <trkpt lat="48.76888" lon="1.69512">
        <ele>112.40000152588</ele>
        <time>2026-06-16T12:32:52.000Z</time>
      </trkpt>
      <trkpt lat="48.76898" lon="1.69494">
        <ele>112.19999694824</ele>
        <time>2026-06-16T12:32:54.000Z</time>
      </trkpt>
      <trkpt lat="48.76908" lon="1.69473">
        <ele>111.80000305176</ele>
        <time>2026-06-16T12:32:56.000Z</time>
      </trkpt>
      <trkpt lat="48.76913" lon="1.69464">
        <ele>111.59999847412</ele>
        <time>2026-06-16T12:32:57.000Z</time>
      </trkpt>
      <trkpt lat="48.7692" lon="1.69444">
        <ele>111</ele>
        <time>2026-06-16T12:32:59.000Z</time>
      </trkpt>
      <trkpt lat="48.76928" lon="1.69425">
        <ele>110.40000152588</ele>
        <time>2026-06-16T12:33:01.000Z</time>
      </trkpt>
      <trkpt lat="48.76946" lon="1.69385">
        <ele>109.59999847412</ele>
        <time>2026-06-16T12:33:05.000Z</time>
      </trkpt>
      <trkpt lat="48.76951" lon="1.69374">
        <ele>109.40000152588</ele>
        <time>2026-06-16T12:33:06.000Z</time>
      </trkpt>
      <trkpt lat="48.76971" lon="1.69319">
        <ele>108</ele>
        <time>2026-06-16T12:33:11.000Z</time>
      </trkpt>
      <trkpt lat="48.7698" lon="1.69282">
        <ele>107.19999694824</ele>
        <time>2026-06-16T12:33:14.000Z</time>
      </trkpt>
      <trkpt lat="48.76981" lon="1.69268">
        <ele>107</ele>
        <time>2026-06-16T12:33:15.000Z</time>
      </trkpt>
      <trkpt lat="48.76982" lon="1.69255">
        <ele>106.19999694824</ele>
        <time>2026-06-16T12:33:16.000Z</time>
      </trkpt>
      <trkpt lat="48.76985" lon="1.69229">
        <ele>105.80000305176</ele>
        <time>2026-06-16T12:33:18.000Z</time>
      </trkpt>
      <trkpt lat="48.76991" lon="1.69183">
        <ele>105</ele>
        <time>2026-06-16T12:33:22.000Z</time>
      </trkpt>
      <trkpt lat="48.76993" lon="1.69151">
        <ele>104.80000305176</ele>
        <time>2026-06-16T12:33:25.000Z</time>
      </trkpt>
      <trkpt lat="48.76994" lon="1.69141">
        <ele>104.80000305176</ele>
        <time>2026-06-16T12:33:26.000Z</time>
      </trkpt>
      <trkpt lat="48.76996" lon="1.69131">
        <ele>104.80000305176</ele>
        <time>2026-06-16T12:33:27.000Z</time>
      </trkpt>
      <trkpt lat="48.77001" lon="1.69097">
        <ele>105</ele>
        <time>2026-06-16T12:33:31.000Z</time>
      </trkpt>
      <trkpt lat="48.77005" lon="1.69066">
        <ele>105.40000152588</ele>
        <time>2026-06-16T12:33:35.000Z</time>
      </trkpt>
      <trkpt lat="48.77005" lon="1.69058">
        <ele>105.59999847412</ele>
        <time>2026-06-16T12:33:36.000Z</time>
      </trkpt>
      <trkpt lat="48.77007" lon="1.69021">
        <ele>106.40000152588</ele>
        <time>2026-06-16T12:33:41.000Z</time>
      </trkpt>
      <trkpt lat="48.77008" lon="1.69013">
        <ele>106.59999847412</ele>
        <time>2026-06-16T12:33:42.000Z</time>
      </trkpt>
      <trkpt lat="48.7701" lon="1.68999">
        <ele>107</ele>
        <time>2026-06-16T12:33:44.000Z</time>
      </trkpt>
      <trkpt lat="48.7701" lon="1.68985">
        <ele>107.19999694824</ele>
        <time>2026-06-16T12:33:46.000Z</time>
      </trkpt>
      <trkpt lat="48.7701" lon="1.68979">
        <ele>107.40000152588</ele>
        <time>2026-06-16T12:33:47.000Z</time>
      </trkpt>
      <trkpt lat="48.77012" lon="1.68954">
        <ele>107.59999847412</ele>
        <time>2026-06-16T12:33:51.000Z</time>
      </trkpt>
      <trkpt lat="48.77011" lon="1.68948">
        <ele>107.80000305176</ele>
        <time>2026-06-16T12:33:52.000Z</time>
      </trkpt>
      <trkpt lat="48.77011" lon="1.6894">
        <ele>108</ele>
        <time>2026-06-16T12:33:53.000Z</time>
      </trkpt>
      <trkpt lat="48.77013" lon="1.68926">
        <ele>108.19999694824</ele>
        <time>2026-06-16T12:33:55.000Z</time>
      </trkpt>
      <trkpt lat="48.77015" lon="1.68921">
        <ele>108.40000152588</ele>
        <time>2026-06-16T12:33:56.000Z</time>
      </trkpt>
      <trkpt lat="48.77016" lon="1.68909">
        <ele>108.59999847412</ele>
        <time>2026-06-16T12:33:58.000Z</time>
      </trkpt>
      <trkpt lat="48.7702" lon="1.68894">
        <ele>108.80000305176</ele>
        <time>2026-06-16T12:34:00.000Z</time>
      </trkpt>
      <trkpt lat="48.77023" lon="1.68886">
        <ele>108.80000305176</ele>
        <time>2026-06-16T12:34:01.000Z</time>
      </trkpt>
      <trkpt lat="48.77029" lon="1.68869">
        <ele>109.40000152588</ele>
        <time>2026-06-16T12:34:04.000Z</time>
      </trkpt>
      <trkpt lat="48.7703" lon="1.68861">
        <ele>109.40000152588</ele>
        <time>2026-06-16T12:34:05.000Z</time>
      </trkpt>
      <trkpt lat="48.77028" lon="1.68842">
        <ele>109.80000305176</ele>
        <time>2026-06-16T12:34:08.000Z</time>
      </trkpt>
      <trkpt lat="48.7703" lon="1.6883">
        <ele>110</ele>
        <time>2026-06-16T12:34:10.000Z</time>
      </trkpt>
      <trkpt lat="48.77036" lon="1.68802">
        <ele>110.59999847412</ele>
        <time>2026-06-16T12:34:15.000Z</time>
      </trkpt>
      <trkpt lat="48.77038" lon="1.68795">
        <ele>110.80000305176</ele>
        <time>2026-06-16T12:34:16.000Z</time>
      </trkpt>
      <trkpt lat="48.77042" lon="1.68779">
        <ele>110.80000305176</ele>
        <time>2026-06-16T12:34:18.000Z</time>
      </trkpt>
      <trkpt lat="48.77044" lon="1.68771">
        <ele>111</ele>
        <time>2026-06-16T12:34:19.000Z</time>
      </trkpt>
      <trkpt lat="48.7705" lon="1.68758">
        <ele>111</ele>
        <time>2026-06-16T12:34:21.000Z</time>
      </trkpt>
      <trkpt lat="48.77062" lon="1.68734">
        <ele>111.40000152588</ele>
        <time>2026-06-16T12:34:25.000Z</time>
      </trkpt>
      <trkpt lat="48.7707" lon="1.68718">
        <ele>111.59999847412</ele>
        <time>2026-06-16T12:34:28.000Z</time>
      </trkpt>
      <trkpt lat="48.77077" lon="1.68706">
        <ele>112</ele>
        <time>2026-06-16T12:34:30.000Z</time>
      </trkpt>
      <trkpt lat="48.77079" lon="1.687">
        <ele>112</ele>
        <time>2026-06-16T12:34:31.000Z</time>
      </trkpt>
      <trkpt lat="48.77083" lon="1.68686">
        <ele>112.40000152588</ele>
        <time>2026-06-16T12:34:33.000Z</time>
      </trkpt>
      <trkpt lat="48.77089" lon="1.68665">
        <ele>112.59999847412</ele>
        <time>2026-06-16T12:34:36.000Z</time>
      </trkpt>
      <trkpt lat="48.77094" lon="1.68652">
        <ele>112.80000305176</ele>
        <time>2026-06-16T12:34:38.000Z</time>
      </trkpt>
      <trkpt lat="48.77106" lon="1.68628">
        <ele>113</ele>
        <time>2026-06-16T12:34:42.000Z</time>
      </trkpt>
      <trkpt lat="48.77124" lon="1.68587">
        <ele>113.40000152588</ele>
        <time>2026-06-16T12:34:48.000Z</time>
      </trkpt>
      <trkpt lat="48.77137" lon="1.68558">
        <ele>113.40000152588</ele>
        <time>2026-06-16T12:34:52.000Z</time>
      </trkpt>
      <trkpt lat="48.77147" lon="1.68537">
        <ele>113.40000152588</ele>
        <time>2026-06-16T12:34:55.000Z</time>
      </trkpt>
      <trkpt lat="48.77173" lon="1.68488">
        <ele>113.40000152588</ele>
        <time>2026-06-16T12:35:02.000Z</time>
      </trkpt>
      <trkpt lat="48.77177" lon="1.68482">
        <ele>113.40000152588</ele>
        <time>2026-06-16T12:35:03.000Z</time>
      </trkpt>
      <trkpt lat="48.77202" lon="1.68433">
        <ele>113.80000305176</ele>
        <time>2026-06-16T12:35:10.000Z</time>
      </trkpt>
      <trkpt lat="48.77205" lon="1.68427">
        <ele>113.80000305176</ele>
        <time>2026-06-16T12:35:11.000Z</time>
      </trkpt>
      <trkpt lat="48.77212" lon="1.68413">
        <ele>113.59999847412</ele>
        <time>2026-06-16T12:35:13.000Z</time>
      </trkpt>
      <trkpt lat="48.77229" lon="1.6838">
        <ele>114</ele>
        <time>2026-06-16T12:35:18.000Z</time>
      </trkpt>
      <trkpt lat="48.77257" lon="1.68329">
        <ele>114.40000152588</ele>
        <time>2026-06-16T12:35:26.000Z</time>
      </trkpt>
      <trkpt lat="48.7727" lon="1.68308">
        <ele>114.59999847412</ele>
        <time>2026-06-16T12:35:30.000Z</time>
      </trkpt>
      <trkpt lat="48.7728" lon="1.68291">
        <ele>115</ele>
        <time>2026-06-16T12:35:33.000Z</time>
      </trkpt>
      <trkpt lat="48.77286" lon="1.68279">
        <ele>115.19999694824</ele>
        <time>2026-06-16T12:35:35.000Z</time>
      </trkpt>
      <trkpt lat="48.77289" lon="1.68273">
        <ele>115.40000152588</ele>
        <time>2026-06-16T12:35:36.000Z</time>
      </trkpt>
      <trkpt lat="48.77297" lon="1.68257">
        <ele>115.80000305176</ele>
        <time>2026-06-16T12:35:39.000Z</time>
      </trkpt>
      <trkpt lat="48.77302" lon="1.68246">
        <ele>116</ele>
        <time>2026-06-16T12:35:41.000Z</time>
      </trkpt>
      <trkpt lat="48.77306" lon="1.6824">
        <ele>116.19999694824</ele>
        <time>2026-06-16T12:35:42.000Z</time>
      </trkpt>
      <trkpt lat="48.77311" lon="1.6822">
        <ele>116.59999847412</ele>
        <time>2026-06-16T12:35:45.000Z</time>
      </trkpt>
      <trkpt lat="48.77312" lon="1.68211">
        <ele>116.80000305176</ele>
        <time>2026-06-16T12:35:46.000Z</time>
      </trkpt>
      <trkpt lat="48.77316" lon="1.68201">
        <ele>116.80000305176</ele>
        <time>2026-06-16T12:35:47.000Z</time>
      </trkpt>
      <trkpt lat="48.7733" lon="1.68152">
        <ele>117.40000152588</ele>
        <time>2026-06-16T12:35:53.000Z</time>
      </trkpt>
      <trkpt lat="48.77343" lon="1.6809">
        <ele>117</ele>
        <time>2026-06-16T12:36:00.000Z</time>
      </trkpt>
      <trkpt lat="48.77351" lon="1.68044">
        <ele>116</ele>
        <time>2026-06-16T12:36:05.000Z</time>
      </trkpt>
      <trkpt lat="48.77351" lon="1.68034">
        <ele>115.59999847412</ele>
        <time>2026-06-16T12:36:06.000Z</time>
      </trkpt>
      <trkpt lat="48.77353" lon="1.68004">
        <ele>115.19999694824</ele>
        <time>2026-06-16T12:36:09.000Z</time>
      </trkpt>
      <trkpt lat="48.77355" lon="1.67995">
        <ele>115</ele>
        <time>2026-06-16T12:36:10.000Z</time>
      </trkpt>
      <trkpt lat="48.77357" lon="1.67975">
        <ele>114.59999847412</ele>
        <time>2026-06-16T12:36:12.000Z</time>
      </trkpt>
      <trkpt lat="48.77359" lon="1.67964">
        <ele>114.19999694824</ele>
        <time>2026-06-16T12:36:13.000Z</time>
      </trkpt>
      <trkpt lat="48.77362" lon="1.67942">
        <ele>113.80000305176</ele>
        <time>2026-06-16T12:36:15.000Z</time>
      </trkpt>
      <trkpt lat="48.77364" lon="1.67931">
        <ele>113.59999847412</ele>
        <time>2026-06-16T12:36:16.000Z</time>
      </trkpt>
      <trkpt lat="48.77376" lon="1.67876">
        <ele>112.19999694824</ele>
        <time>2026-06-16T12:36:21.000Z</time>
      </trkpt>
      <trkpt lat="48.77379" lon="1.67864">
        <ele>112</ele>
        <time>2026-06-16T12:36:22.000Z</time>
      </trkpt>
      <trkpt lat="48.7739" lon="1.67827">
        <ele>111.19999694824</ele>
        <time>2026-06-16T12:36:25.000Z</time>
      </trkpt>
      <trkpt lat="48.77393" lon="1.67815">
        <ele>110.80000305176</ele>
        <time>2026-06-16T12:36:26.000Z</time>
      </trkpt>
      <trkpt lat="48.77406" lon="1.67778">
        <ele>109.80000305176</ele>
        <time>2026-06-16T12:36:30.000Z</time>
      </trkpt>
      <trkpt lat="48.77412" lon="1.67765">
        <ele>108.80000305176</ele>
        <time>2026-06-16T12:36:33.000Z</time>
      </trkpt>
      <trkpt lat="48.77413" lon="1.67761">
        <ele>108.59999847412</ele>
        <time>2026-06-16T12:36:34.000Z</time>
      </trkpt>
      <trkpt lat="48.77418" lon="1.67754">
        <ele>107.40000152588</ele>
        <time>2026-06-16T12:36:38.000Z</time>
      </trkpt>
      <trkpt lat="48.77418" lon="1.67754">
        <ele>107.40000152588</ele>
        <time>2026-06-16T12:36:39.000Z</time>
      </trkpt>
      <trkpt lat="48.77419" lon="1.67751">
        <ele>106.80000305176</ele>
        <time>2026-06-16T12:36:52.000Z</time>
      </trkpt>
      <trkpt lat="48.77426" lon="1.67733">
        <ele>106.80000305176</ele>
        <time>2026-06-16T12:36:58.000Z</time>
      </trkpt>
      <trkpt lat="48.77425" lon="1.67731">
        <ele>107</ele>
        <time>2026-06-16T12:37:02.000Z</time>
      </trkpt>
      <trkpt lat="48.77425" lon="1.67731">
        <ele>107.19999694824</ele>
        <time>2026-06-16T12:37:17.000Z</time>
      </trkpt>
      <trkpt lat="48.77425" lon="1.67731">
        <ele>107.19999694824</ele>
        <time>2026-06-16T12:38:36.000Z</time>
      </trkpt>
      <trkpt lat="48.77423" lon="1.6773">
        <ele>106.80000305176</ele>
        <time>2026-06-16T12:42:51.000Z</time>
      </trkpt>
      <trkpt lat="48.77423" lon="1.67729">
        <ele>106.80000305176</ele>
        <time>2026-06-16T12:43:01.000Z</time>
      </trkpt>
      <trkpt lat="48.77419" lon="1.67728">
        <ele>106.80000305176</ele>
        <time>2026-06-16T12:43:10.000Z</time>
      </trkpt>
      <trkpt lat="48.7741" lon="1.6772">
        <ele>107</ele>
        <time>2026-06-16T12:43:22.000Z</time>
      </trkpt>
      <trkpt lat="48.77393" lon="1.67704">
        <ele>107</ele>
        <time>2026-06-16T12:43:27.000Z</time>
      </trkpt>
      <trkpt lat="48.77376" lon="1.67684">
        <ele>107.40000152588</ele>
        <time>2026-06-16T12:43:33.000Z</time>
      </trkpt>
      <trkpt lat="48.77357" lon="1.67661">
        <ele>107.80000305176</ele>
        <time>2026-06-16T12:43:38.000Z</time>
      </trkpt>
      <trkpt lat="48.77346" lon="1.67647">
        <ele>107.80000305176</ele>
        <time>2026-06-16T12:43:42.000Z</time>
      </trkpt>
      <trkpt lat="48.77332" lon="1.67629">
        <ele>108.19999694824</ele>
        <time>2026-06-16T12:43:46.000Z</time>
      </trkpt>
      <trkpt lat="48.77312" lon="1.67603">
        <ele>108.80000305176</ele>
        <time>2026-06-16T12:43:53.000Z</time>
      </trkpt>
      <trkpt lat="48.77303" lon="1.67592">
        <ele>109</ele>
        <time>2026-06-16T12:43:56.000Z</time>
      </trkpt>
      <trkpt lat="48.77286" lon="1.6757">
        <ele>109.19999694824</ele>
        <time>2026-06-16T12:44:01.000Z</time>
      </trkpt>
      <trkpt lat="48.77268" lon="1.67546">
        <ele>109.19999694824</ele>
        <time>2026-06-16T12:44:06.000Z</time>
      </trkpt>
      <trkpt lat="48.77262" lon="1.6753">
        <ele>109.19999694824</ele>
        <time>2026-06-16T12:44:08.000Z</time>
      </trkpt>
      <trkpt lat="48.7726" lon="1.67513">
        <ele>109.19999694824</ele>
        <time>2026-06-16T12:44:10.000Z</time>
      </trkpt>
      <trkpt lat="48.77263" lon="1.67497">
        <ele>109.19999694824</ele>
        <time>2026-06-16T12:44:12.000Z</time>
      </trkpt>
      <trkpt lat="48.77273" lon="1.67466">
        <ele>108.80000305176</ele>
        <time>2026-06-16T12:44:16.000Z</time>
      </trkpt>
      <trkpt lat="48.77278" lon="1.6745">
        <ele>108.40000152588</ele>
        <time>2026-06-16T12:44:18.000Z</time>
      </trkpt>
      <trkpt lat="48.7729" lon="1.67421">
        <ele>107.80000305176</ele>
        <time>2026-06-16T12:44:22.000Z</time>
      </trkpt>
      <trkpt lat="48.77297" lon="1.67407">
        <ele>107.40000152588</ele>
        <time>2026-06-16T12:44:24.000Z</time>
      </trkpt>
      <trkpt lat="48.77312" lon="1.67372">
        <ele>106.40000152588</ele>
        <time>2026-06-16T12:44:29.000Z</time>
      </trkpt>
      <trkpt lat="48.77314" lon="1.67366">
        <ele>106.19999694824</ele>
        <time>2026-06-16T12:44:30.000Z</time>
      </trkpt>
      <trkpt lat="48.77317" lon="1.67361">
        <ele>106</ele>
        <time>2026-06-16T12:44:31.000Z</time>
      </trkpt>
      <trkpt lat="48.77326" lon="1.67344">
        <ele>105.19999694824</ele>
        <time>2026-06-16T12:44:35.000Z</time>
      </trkpt>
      <trkpt lat="48.77329" lon="1.67337">
        <ele>104.59999847412</ele>
        <time>2026-06-16T12:44:37.000Z</time>
      </trkpt>
      <trkpt lat="48.77333" lon="1.67326">
        <ele>104.19999694824</ele>
        <time>2026-06-16T12:44:40.000Z</time>
      </trkpt>
      <trkpt lat="48.77337" lon="1.67316">
        <ele>103.59999847412</ele>
        <time>2026-06-16T12:44:43.000Z</time>
      </trkpt>
      <trkpt lat="48.7734" lon="1.67309">
        <ele>103</ele>
        <time>2026-06-16T12:44:46.000Z</time>
      </trkpt>
      <trkpt lat="48.77342" lon="1.67304">
        <ele>102.80000305176</ele>
        <time>2026-06-16T12:44:48.000Z</time>
      </trkpt>
      <trkpt lat="48.77343" lon="1.67302">
        <ele>102.80000305176</ele>
        <time>2026-06-16T12:44:49.000Z</time>
      </trkpt>
      <trkpt lat="48.77342" lon="1.67299">
        <ele>102.80000305176</ele>
        <time>2026-06-16T12:44:50.000Z</time>
      </trkpt>
      <trkpt lat="48.77339" lon="1.67298">
        <ele>102.59999847412</ele>
        <time>2026-06-16T12:44:52.000Z</time>
      </trkpt>
      <trkpt lat="48.77334" lon="1.67313">
        <ele>102.59999847412</ele>
        <time>2026-06-16T12:44:57.000Z</time>
      </trkpt>
      <trkpt lat="48.77327" lon="1.67331">
        <ele>103.19999694824</ele>
        <time>2026-06-16T12:45:02.000Z</time>
      </trkpt>
      <trkpt lat="48.77321" lon="1.67353">
        <ele>103.59999847412</ele>
        <time>2026-06-16T12:45:07.000Z</time>
      </trkpt>
      <trkpt lat="48.77314" lon="1.67367">
        <ele>104.19999694824</ele>
        <time>2026-06-16T12:45:11.000Z</time>
      </trkpt>
      <trkpt lat="48.77311" lon="1.67375">
        <ele>104.40000152588</ele>
        <time>2026-06-16T12:45:13.000Z</time>
      </trkpt>
      <trkpt lat="48.773" lon="1.67395">
        <ele>105</ele>
        <time>2026-06-16T12:45:18.000Z</time>
      </trkpt>
      <trkpt lat="48.77294" lon="1.67407">
        <ele>105.40000152588</ele>
        <time>2026-06-16T12:45:21.000Z</time>
      </trkpt>
      <trkpt lat="48.7729" lon="1.67416">
        <ele>105.80000305176</ele>
        <time>2026-06-16T12:45:23.000Z</time>
      </trkpt>
      <trkpt lat="48.77283" lon="1.67428">
        <ele>106.40000152588</ele>
        <time>2026-06-16T12:45:26.000Z</time>
      </trkpt>
      <trkpt lat="48.77273" lon="1.67447">
        <ele>106.80000305176</ele>
        <time>2026-06-16T12:45:31.000Z</time>
      </trkpt>
      <trkpt lat="48.77264" lon="1.67474">
        <ele>107</ele>
        <time>2026-06-16T12:45:38.000Z</time>
      </trkpt>
      <trkpt lat="48.77261" lon="1.67475">
        <ele>107.19999694824</ele>
        <time>2026-06-16T12:45:39.000Z</time>
      </trkpt>
      <trkpt lat="48.77255" lon="1.67473">
        <ele>107.19999694824</ele>
        <time>2026-06-16T12:45:41.000Z</time>
      </trkpt>
      <trkpt lat="48.77254" lon="1.67471">
        <ele>107.19999694824</ele>
        <time>2026-06-16T12:45:42.000Z</time>
      </trkpt>
      <trkpt lat="48.7725" lon="1.67456">
        <ele>107.40000152588</ele>
        <time>2026-06-16T12:45:45.000Z</time>
      </trkpt>
      <trkpt lat="48.77236" lon="1.67418">
        <ele>107.40000152588</ele>
        <time>2026-06-16T12:45:52.000Z</time>
      </trkpt>
      <trkpt lat="48.77214" lon="1.67366">
        <ele>107</ele>
        <time>2026-06-16T12:46:02.000Z</time>
      </trkpt>
      <trkpt lat="48.77201" lon="1.67334">
        <ele>107</ele>
        <time>2026-06-16T12:46:09.000Z</time>
      </trkpt>
      <trkpt lat="48.77192" lon="1.67296">
        <ele>106.80000305176</ele>
        <time>2026-06-16T12:46:16.000Z</time>
      </trkpt>
      <trkpt lat="48.77186" lon="1.67253">
        <ele>106.40000152588</ele>
        <time>2026-06-16T12:46:22.000Z</time>
      </trkpt>
      <trkpt lat="48.77185" lon="1.67245">
        <ele>106.40000152588</ele>
        <time>2026-06-16T12:46:23.000Z</time>
      </trkpt>
      <trkpt lat="48.77182" lon="1.67231">
        <ele>106.19999694824</ele>
        <time>2026-06-16T12:46:25.000Z</time>
      </trkpt>
      <trkpt lat="48.77178" lon="1.67216">
        <ele>106</ele>
        <time>2026-06-16T12:46:27.000Z</time>
      </trkpt>
      <trkpt lat="48.77175" lon="1.6721">
        <ele>106</ele>
        <time>2026-06-16T12:46:28.000Z</time>
      </trkpt>
      <trkpt lat="48.77151" lon="1.67149">
        <ele>105.40000152588</ele>
        <time>2026-06-16T12:46:37.000Z</time>
      </trkpt>
      <trkpt lat="48.77149" lon="1.67134">
        <ele>105.19999694824</ele>
        <time>2026-06-16T12:46:39.000Z</time>
      </trkpt>
      <trkpt lat="48.77148" lon="1.67127">
        <ele>105</ele>
        <time>2026-06-16T12:46:40.000Z</time>
      </trkpt>
      <trkpt lat="48.77147" lon="1.67106">
        <ele>104.80000305176</ele>
        <time>2026-06-16T12:46:43.000Z</time>
      </trkpt>
      <trkpt lat="48.77147" lon="1.67093">
        <ele>104.80000305176</ele>
        <time>2026-06-16T12:46:45.000Z</time>
      </trkpt>
      <trkpt lat="48.77149" lon="1.6708">
        <ele>104.59999847412</ele>
        <time>2026-06-16T12:46:47.000Z</time>
      </trkpt>
      <trkpt lat="48.77151" lon="1.67074">
        <ele>104.59999847412</ele>
        <time>2026-06-16T12:46:48.000Z</time>
      </trkpt>
      <trkpt lat="48.77155" lon="1.67064">
        <ele>104.59999847412</ele>
        <time>2026-06-16T12:46:52.000Z</time>
      </trkpt>
      <trkpt lat="48.77155" lon="1.67064">
        <ele>104.59999847412</ele>
        <time>2026-06-16T12:46:53.000Z</time>
      </trkpt>
      <trkpt lat="48.77155" lon="1.67064">
        <ele>104.59999847412</ele>
        <time>2026-06-16T12:46:56.000Z</time>
      </trkpt>
      <trkpt lat="48.77158" lon="1.67059">
        <ele>104.40000152588</ele>
        <time>2026-06-16T12:47:04.000Z</time>
      </trkpt>
      <trkpt lat="48.77159" lon="1.67057">
        <ele>104.40000152588</ele>
        <time>2026-06-16T12:47:05.000Z</time>
      </trkpt>
      <trkpt lat="48.77156" lon="1.67044">
        <ele>104.40000152588</ele>
        <time>2026-06-16T12:47:09.000Z</time>
      </trkpt>
      <trkpt lat="48.77142" lon="1.67011">
        <ele>104.40000152588</ele>
        <time>2026-06-16T12:47:15.000Z</time>
      </trkpt>
      <trkpt lat="48.7713" lon="1.66974">
        <ele>104</ele>
        <time>2026-06-16T12:47:21.000Z</time>
      </trkpt>
      <trkpt lat="48.77128" lon="1.66966">
        <ele>104</ele>
        <time>2026-06-16T12:47:22.000Z</time>
      </trkpt>
      <trkpt lat="48.77126" lon="1.66959">
        <ele>103.80000305176</ele>
        <time>2026-06-16T12:47:23.000Z</time>
      </trkpt>
      <trkpt lat="48.77125" lon="1.66935">
        <ele>103.80000305176</ele>
        <time>2026-06-16T12:47:26.000Z</time>
      </trkpt>
      <trkpt lat="48.77125" lon="1.66927">
        <ele>103.59999847412</ele>
        <time>2026-06-16T12:47:27.000Z</time>
      </trkpt>
      <trkpt lat="48.77128" lon="1.66904">
        <ele>103.40000152588</ele>
        <time>2026-06-16T12:47:30.000Z</time>
      </trkpt>
      <trkpt lat="48.77134" lon="1.66876">
        <ele>103.19999694824</ele>
        <time>2026-06-16T12:47:34.000Z</time>
      </trkpt>
      <trkpt lat="48.7714" lon="1.66849">
        <ele>103.19999694824</ele>
        <time>2026-06-16T12:47:38.000Z</time>
      </trkpt>
      <trkpt lat="48.77145" lon="1.66826">
        <ele>103</ele>
        <time>2026-06-16T12:47:41.000Z</time>
      </trkpt>
      <trkpt lat="48.77151" lon="1.66777">
        <ele>103</ele>
        <time>2026-06-16T12:47:47.000Z</time>
      </trkpt>
      <trkpt lat="48.7715" lon="1.66769">
        <ele>103</ele>
        <time>2026-06-16T12:47:48.000Z</time>
      </trkpt>
      <trkpt lat="48.77149" lon="1.66761">
        <ele>102.80000305176</ele>
        <time>2026-06-16T12:47:49.000Z</time>
      </trkpt>
      <trkpt lat="48.77143" lon="1.66747">
        <ele>102.80000305176</ele>
        <time>2026-06-16T12:47:51.000Z</time>
      </trkpt>
      <trkpt lat="48.77139" lon="1.6674">
        <ele>102.59999847412</ele>
        <time>2026-06-16T12:47:52.000Z</time>
      </trkpt>
      <trkpt lat="48.77134" lon="1.66735">
        <ele>102.59999847412</ele>
        <time>2026-06-16T12:47:53.000Z</time>
      </trkpt>
      <trkpt lat="48.77124" lon="1.66728">
        <ele>102.59999847412</ele>
        <time>2026-06-16T12:47:55.000Z</time>
      </trkpt>
      <trkpt lat="48.77118" lon="1.66725">
        <ele>102.59999847412</ele>
        <time>2026-06-16T12:47:56.000Z</time>
      </trkpt>
      <trkpt lat="48.77078" lon="1.66708">
        <ele>102.19999694824</ele>
        <time>2026-06-16T12:48:02.000Z</time>
      </trkpt>
      <trkpt lat="48.77064" lon="1.66703">
        <ele>102</ele>
        <time>2026-06-16T12:48:04.000Z</time>
      </trkpt>
      <trkpt lat="48.77035" lon="1.66687">
        <ele>101.19999694824</ele>
        <time>2026-06-16T12:48:08.000Z</time>
      </trkpt>
      <trkpt lat="48.7702" lon="1.66676">
        <ele>100.80000305176</ele>
        <time>2026-06-16T12:48:10.000Z</time>
      </trkpt>
      <trkpt lat="48.76994" lon="1.6665">
        <ele>99.800003051758</ele>
        <time>2026-06-16T12:48:13.000Z</time>
      </trkpt>
      <trkpt lat="48.76987" lon="1.66643">
        <ele>99.599998474121</ele>
        <time>2026-06-16T12:48:14.000Z</time>
      </trkpt>
      <trkpt lat="48.76965" lon="1.66618">
        <ele>98.400001525879</ele>
        <time>2026-06-16T12:48:18.000Z</time>
      </trkpt>
      <trkpt lat="48.76938" lon="1.66594">
        <ele>98</ele>
        <time>2026-06-16T12:48:22.000Z</time>
      </trkpt>
      <trkpt lat="48.76911" lon="1.66582">
        <ele>97.800003051758</ele>
        <time>2026-06-16T12:48:26.000Z</time>
      </trkpt>
      <trkpt lat="48.76904" lon="1.66581">
        <ele>97.800003051758</ele>
        <time>2026-06-16T12:48:27.000Z</time>
      </trkpt>
      <trkpt lat="48.76873" lon="1.66585">
        <ele>97.800003051758</ele>
        <time>2026-06-16T12:48:32.000Z</time>
      </trkpt>
      <trkpt lat="48.76866" lon="1.66587">
        <ele>98</ele>
        <time>2026-06-16T12:48:33.000Z</time>
      </trkpt>
      <trkpt lat="48.76838" lon="1.66599">
        <ele>98.800003051758</ele>
        <time>2026-06-16T12:48:38.000Z</time>
      </trkpt>
      <trkpt lat="48.76801" lon="1.66613">
        <ele>99.599998474121</ele>
        <time>2026-06-16T12:48:45.000Z</time>
      </trkpt>
      <trkpt lat="48.76796" lon="1.66615">
        <ele>99.599998474121</ele>
        <time>2026-06-16T12:48:46.000Z</time>
      </trkpt>
      <trkpt lat="48.76746" lon="1.66634">
        <ele>100.40000152588</ele>
        <time>2026-06-16T12:48:56.000Z</time>
      </trkpt>
      <trkpt lat="48.76731" lon="1.6664">
        <ele>100.59999847412</ele>
        <time>2026-06-16T12:48:59.000Z</time>
      </trkpt>
      <trkpt lat="48.767" lon="1.66651">
        <ele>101</ele>
        <time>2026-06-16T12:49:05.000Z</time>
      </trkpt>
      <trkpt lat="48.76656" lon="1.66668">
        <ele>101.40000152588</ele>
        <time>2026-06-16T12:49:13.000Z</time>
      </trkpt>
      <trkpt lat="48.76602" lon="1.66689">
        <ele>101.40000152588</ele>
        <time>2026-06-16T12:49:21.000Z</time>
      </trkpt>
      <trkpt lat="48.76546" lon="1.66711">
        <ele>100</ele>
        <time>2026-06-16T12:49:29.000Z</time>
      </trkpt>
      <trkpt lat="48.7653" lon="1.66717">
        <ele>99.400001525879</ele>
        <time>2026-06-16T12:49:31.000Z</time>
      </trkpt>
      <trkpt lat="48.76488" lon="1.66732">
        <ele>98.199996948242</ele>
        <time>2026-06-16T12:49:36.000Z</time>
      </trkpt>
      <trkpt lat="48.76465" lon="1.6674">
        <ele>97.800003051758</ele>
        <time>2026-06-16T12:49:39.000Z</time>
      </trkpt>
      <trkpt lat="48.76429" lon="1.66753">
        <ele>97.400001525879</ele>
        <time>2026-06-16T12:49:44.000Z</time>
      </trkpt>
      <trkpt lat="48.76386" lon="1.66767">
        <ele>97.599998474121</ele>
        <time>2026-06-16T12:49:51.000Z</time>
      </trkpt>
      <trkpt lat="48.76347" lon="1.6678">
        <ele>98.400001525879</ele>
        <time>2026-06-16T12:49:58.000Z</time>
      </trkpt>
      <trkpt lat="48.76311" lon="1.66791">
        <ele>99.400001525879</ele>
        <time>2026-06-16T12:50:05.000Z</time>
      </trkpt>
      <trkpt lat="48.76306" lon="1.66793">
        <ele>99.599998474121</ele>
        <time>2026-06-16T12:50:06.000Z</time>
      </trkpt>
      <trkpt lat="48.76273" lon="1.66796">
        <ele>100.40000152588</ele>
        <time>2026-06-16T12:50:13.000Z</time>
      </trkpt>
      <trkpt lat="48.76268" lon="1.66796">
        <ele>100.59999847412</ele>
        <time>2026-06-16T12:50:14.000Z</time>
      </trkpt>
      <trkpt lat="48.76233" lon="1.66782">
        <ele>101</ele>
        <time>2026-06-16T12:50:21.000Z</time>
      </trkpt>
      <trkpt lat="48.76199" lon="1.66754">
        <ele>101.40000152588</ele>
        <time>2026-06-16T12:50:28.000Z</time>
      </trkpt>
      <trkpt lat="48.76194" lon="1.66749">
        <ele>101.59999847412</ele>
        <time>2026-06-16T12:50:29.000Z</time>
      </trkpt>
      <trkpt lat="48.76151" lon="1.66707">
        <ele>101.80000305176</ele>
        <time>2026-06-16T12:50:38.000Z</time>
      </trkpt>
      <trkpt lat="48.76104" lon="1.66662">
        <ele>102.19999694824</ele>
        <time>2026-06-16T12:50:48.000Z</time>
      </trkpt>
      <trkpt lat="48.76099" lon="1.66657">
        <ele>102.40000152588</ele>
        <time>2026-06-16T12:50:49.000Z</time>
      </trkpt>
      <trkpt lat="48.76084" lon="1.66643">
        <ele>102.59999847412</ele>
        <time>2026-06-16T12:50:52.000Z</time>
      </trkpt>
      <trkpt lat="48.76073" lon="1.66632">
        <ele>102.80000305176</ele>
        <time>2026-06-16T12:50:55.000Z</time>
      </trkpt>
      <trkpt lat="48.76067" lon="1.66625">
        <ele>102.80000305176</ele>
        <time>2026-06-16T12:50:57.000Z</time>
      </trkpt>
      <trkpt lat="48.76049" lon="1.66612">
        <ele>103.40000152588</ele>
        <time>2026-06-16T12:51:01.000Z</time>
      </trkpt>
      <trkpt lat="48.76013" lon="1.66573">
        <ele>103</ele>
        <time>2026-06-16T12:51:09.000Z</time>
      </trkpt>
      <trkpt lat="48.75975" lon="1.66537">
        <ele>102.59999847412</ele>
        <time>2026-06-16T12:51:17.000Z</time>
      </trkpt>
      <trkpt lat="48.75932" lon="1.66498">
        <ele>102.40000152588</ele>
        <time>2026-06-16T12:51:26.000Z</time>
      </trkpt>
      <trkpt lat="48.75892" lon="1.6646">
        <ele>101.59999847412</ele>
        <time>2026-06-16T12:51:34.000Z</time>
      </trkpt>
      <trkpt lat="48.75882" lon="1.6645">
        <ele>101.80000305176</ele>
        <time>2026-06-16T12:51:36.000Z</time>
      </trkpt>
      <trkpt lat="48.75855" lon="1.66424">
        <ele>101.19999694824</ele>
        <time>2026-06-16T12:51:41.000Z</time>
      </trkpt>
      <trkpt lat="48.75831" lon="1.66401">
        <ele>100.59999847412</ele>
        <time>2026-06-16T12:51:45.000Z</time>
      </trkpt>
      <trkpt lat="48.75807" lon="1.66379">
        <ele>99.599998474121</ele>
        <time>2026-06-16T12:51:49.000Z</time>
      </trkpt>
      <trkpt lat="48.75801" lon="1.66373">
        <ele>99.400001525879</ele>
        <time>2026-06-16T12:51:50.000Z</time>
      </trkpt>
      <trkpt lat="48.75782" lon="1.66357">
        <ele>98.800003051758</ele>
        <time>2026-06-16T12:51:53.000Z</time>
      </trkpt>
      <trkpt lat="48.75769" lon="1.66351">
        <ele>98.199996948242</ele>
        <time>2026-06-16T12:51:55.000Z</time>
      </trkpt>
      <trkpt lat="48.75741" lon="1.66346">
        <ele>97.199996948242</ele>
        <time>2026-06-16T12:51:59.000Z</time>
      </trkpt>
      <trkpt lat="48.75734" lon="1.66346">
        <ele>97.199996948242</ele>
        <time>2026-06-16T12:52:00.000Z</time>
      </trkpt>
      <trkpt lat="48.75683" lon="1.6634">
        <ele>96</ele>
        <time>2026-06-16T12:52:08.000Z</time>
      </trkpt>
      <trkpt lat="48.75657" lon="1.66341">
        <ele>95.599998474121</ele>
        <time>2026-06-16T12:52:13.000Z</time>
      </trkpt>
      <trkpt lat="48.75648" lon="1.66336">
        <ele>95.400001525879</ele>
        <time>2026-06-16T12:52:15.000Z</time>
      </trkpt>
      <trkpt lat="48.75639" lon="1.6633">
        <ele>95.199996948242</ele>
        <time>2026-06-16T12:52:17.000Z</time>
      </trkpt>
      <trkpt lat="48.75635" lon="1.66328">
        <ele>95</ele>
        <time>2026-06-16T12:52:18.000Z</time>
      </trkpt>
      <trkpt lat="48.7563" lon="1.6633">
        <ele>95</ele>
        <time>2026-06-16T12:52:19.000Z</time>
      </trkpt>
      <trkpt lat="48.75627" lon="1.66334">
        <ele>94.800003051758</ele>
        <time>2026-06-16T12:52:20.000Z</time>
      </trkpt>
      <trkpt lat="48.75624" lon="1.66339">
        <ele>94.800003051758</ele>
        <time>2026-06-16T12:52:21.000Z</time>
      </trkpt>
      <trkpt lat="48.75615" lon="1.66356">
        <ele>94</ele>
        <time>2026-06-16T12:52:24.000Z</time>
      </trkpt>
      <trkpt lat="48.75612" lon="1.66361">
        <ele>93.599998474121</ele>
        <time>2026-06-16T12:52:25.000Z</time>
      </trkpt>
      <trkpt lat="48.756" lon="1.66376">
        <ele>93</ele>
        <time>2026-06-16T12:52:30.000Z</time>
      </trkpt>
      <trkpt lat="48.75598" lon="1.66379">
        <ele>92.800003051758</ele>
        <time>2026-06-16T12:52:32.000Z</time>
      </trkpt>
      <trkpt lat="48.75597" lon="1.6638">
        <ele>92.199996948242</ele>
        <time>2026-06-16T12:52:35.000Z</time>
      </trkpt>
      <trkpt lat="48.75597" lon="1.6638">
        <ele>91.800003051758</ele>
        <time>2026-06-16T12:52:43.000Z</time>
      </trkpt>
      <trkpt lat="48.75597" lon="1.6638">
        <ele>92.199996948242</ele>
        <time>2026-06-16T12:52:50.000Z</time>
      </trkpt>
      <trkpt lat="48.75597" lon="1.6638">
        <ele>92.800003051758</ele>
        <time>2026-06-16T12:53:03.000Z</time>
      </trkpt>
      <trkpt lat="48.75597" lon="1.6638">
        <ele>93.599998474121</ele>
        <time>2026-06-16T12:53:27.000Z</time>
      </trkpt>
      <trkpt lat="48.75592" lon="1.66383">
        <ele>93.400001525879</ele>
        <time>2026-06-16T12:54:01.000Z</time>
      </trkpt>
      <trkpt lat="48.75582" lon="1.66397">
        <ele>93</ele>
        <time>2026-06-16T12:54:07.000Z</time>
      </trkpt>
      <trkpt lat="48.75569" lon="1.66406">
        <ele>92.599998474121</ele>
        <time>2026-06-16T12:54:11.000Z</time>
      </trkpt>
      <trkpt lat="48.75565" lon="1.66408">
        <ele>92.599998474121</ele>
        <time>2026-06-16T12:54:12.000Z</time>
      </trkpt>
      <trkpt lat="48.75553" lon="1.66412">
        <ele>92.199996948242</ele>
        <time>2026-06-16T12:54:15.000Z</time>
      </trkpt>
      <trkpt lat="48.75531" lon="1.66415">
        <ele>91.800003051758</ele>
        <time>2026-06-16T12:54:20.000Z</time>
      </trkpt>
      <trkpt lat="48.75526" lon="1.66416">
        <ele>91.800003051758</ele>
        <time>2026-06-16T12:54:21.000Z</time>
      </trkpt>
      <trkpt lat="48.75479" lon="1.66419">
        <ele>91.599998474121</ele>
        <time>2026-06-16T12:54:31.000Z</time>
      </trkpt>
      <trkpt lat="48.75443" lon="1.66414">
        <ele>91.800003051758</ele>
        <time>2026-06-16T12:54:38.000Z</time>
      </trkpt>
      <trkpt lat="48.75396" lon="1.66411">
        <ele>92.800003051758</ele>
        <time>2026-06-16T12:54:47.000Z</time>
      </trkpt>
      <trkpt lat="48.7539" lon="1.66411">
        <ele>93</ele>
        <time>2026-06-16T12:54:48.000Z</time>
      </trkpt>
      <trkpt lat="48.75346" lon="1.6641">
        <ele>93.800003051758</ele>
        <time>2026-06-16T12:54:56.000Z</time>
      </trkpt>
      <trkpt lat="48.7534" lon="1.6641">
        <ele>94</ele>
        <time>2026-06-16T12:54:57.000Z</time>
      </trkpt>
      <trkpt lat="48.75283" lon="1.66408">
        <ele>94.400001525879</ele>
        <time>2026-06-16T12:55:07.000Z</time>
      </trkpt>
      <trkpt lat="48.75225" lon="1.66407">
        <ele>94.400001525879</ele>
        <time>2026-06-16T12:55:16.000Z</time>
      </trkpt>
      <trkpt lat="48.7517" lon="1.66406">
        <ele>94.599998474121</ele>
        <time>2026-06-16T12:55:25.000Z</time>
      </trkpt>
      <trkpt lat="48.75141" lon="1.66405">
        <ele>94.800003051758</ele>
        <time>2026-06-16T12:55:30.000Z</time>
      </trkpt>
      <trkpt lat="48.75111" lon="1.66405">
        <ele>95</ele>
        <time>2026-06-16T12:55:35.000Z</time>
      </trkpt>
      <trkpt lat="48.75063" lon="1.66402">
        <ele>95.199996948242</ele>
        <time>2026-06-16T12:55:43.000Z</time>
      </trkpt>
      <trkpt lat="48.75006" lon="1.66402">
        <ele>96.199996948242</ele>
        <time>2026-06-16T12:55:53.000Z</time>
      </trkpt>
      <trkpt lat="48.75" lon="1.66402">
        <ele>96.199996948242</ele>
        <time>2026-06-16T12:55:54.000Z</time>
      </trkpt>
      <trkpt lat="48.74945" lon="1.664">
        <ele>97</ele>
        <time>2026-06-16T12:56:03.000Z</time>
      </trkpt>
      <trkpt lat="48.7494" lon="1.664">
        <ele>97.199996948242</ele>
        <time>2026-06-16T12:56:04.000Z</time>
      </trkpt>
      <trkpt lat="48.74928" lon="1.66399">
        <ele>97.400001525879</ele>
        <time>2026-06-16T12:56:06.000Z</time>
      </trkpt>
      <trkpt lat="48.7487" lon="1.66396">
        <ele>97.800003051758</ele>
        <time>2026-06-16T12:56:16.000Z</time>
      </trkpt>
      <trkpt lat="48.74861" lon="1.66394">
        <ele>97.800003051758</ele>
        <time>2026-06-16T12:56:17.000Z</time>
      </trkpt>
      <trkpt lat="48.74844" lon="1.66389">
        <ele>98.400001525879</ele>
        <time>2026-06-16T12:56:20.000Z</time>
      </trkpt>
      <trkpt lat="48.74827" lon="1.6638">
        <ele>98.800003051758</ele>
        <time>2026-06-16T12:56:23.000Z</time>
      </trkpt>
      <trkpt lat="48.74804" lon="1.66362">
        <ele>99</ele>
        <time>2026-06-16T12:56:27.000Z</time>
      </trkpt>
      <trkpt lat="48.74799" lon="1.66356">
        <ele>99</ele>
        <time>2026-06-16T12:56:28.000Z</time>
      </trkpt>
      <trkpt lat="48.74795" lon="1.66349">
        <ele>99</ele>
        <time>2026-06-16T12:56:29.000Z</time>
      </trkpt>
      <trkpt lat="48.74784" lon="1.66341">
        <ele>99</ele>
        <time>2026-06-16T12:56:31.000Z</time>
      </trkpt>
      <trkpt lat="48.74772" lon="1.66338">
        <ele>99</ele>
        <time>2026-06-16T12:56:33.000Z</time>
      </trkpt>
      <trkpt lat="48.74756" lon="1.66327">
        <ele>99</ele>
        <time>2026-06-16T12:56:36.000Z</time>
      </trkpt>
      <trkpt lat="48.74705" lon="1.66286">
        <ele>98</ele>
        <time>2026-06-16T12:56:45.000Z</time>
      </trkpt>
      <trkpt lat="48.74694" lon="1.66278">
        <ele>98</ele>
        <time>2026-06-16T12:56:47.000Z</time>
      </trkpt>
      <trkpt lat="48.74652" lon="1.66242">
        <ele>97.800003051758</ele>
        <time>2026-06-16T12:56:55.000Z</time>
      </trkpt>
      <trkpt lat="48.74599" lon="1.66197">
        <ele>97.400001525879</ele>
        <time>2026-06-16T12:57:04.000Z</time>
      </trkpt>
      <trkpt lat="48.74587" lon="1.66187">
        <ele>97.400001525879</ele>
        <time>2026-06-16T12:57:06.000Z</time>
      </trkpt>
      <trkpt lat="48.74536" lon="1.66143">
        <ele>96.400001525879</ele>
        <time>2026-06-16T12:57:13.000Z</time>
      </trkpt>
      <trkpt lat="48.74512" lon="1.66121">
        <ele>95.400001525879</ele>
        <time>2026-06-16T12:57:17.000Z</time>
      </trkpt>
      <trkpt lat="48.74484" lon="1.66096">
        <ele>94.400001525879</ele>
        <time>2026-06-16T12:57:21.000Z</time>
      </trkpt>
      <trkpt lat="48.74477" lon="1.66089">
        <ele>94.199996948242</ele>
        <time>2026-06-16T12:57:22.000Z</time>
      </trkpt>
      <trkpt lat="48.74456" lon="1.6607">
        <ele>93.400001525879</ele>
        <time>2026-06-16T12:57:25.000Z</time>
      </trkpt>
      <trkpt lat="48.74433" lon="1.66048">
        <ele>93.199996948242</ele>
        <time>2026-06-16T12:57:29.000Z</time>
      </trkpt>
      <trkpt lat="48.74407" lon="1.66031">
        <ele>92.800003051758</ele>
        <time>2026-06-16T12:57:34.000Z</time>
      </trkpt>
      <trkpt lat="48.74402" lon="1.66028">
        <ele>92.800003051758</ele>
        <time>2026-06-16T12:57:35.000Z</time>
      </trkpt>
      <trkpt lat="48.74392" lon="1.66026">
        <ele>92.800003051758</ele>
        <time>2026-06-16T12:57:37.000Z</time>
      </trkpt>
      <trkpt lat="48.74386" lon="1.66027">
        <ele>92.800003051758</ele>
        <time>2026-06-16T12:57:38.000Z</time>
      </trkpt>
      <trkpt lat="48.74351" lon="1.66047">
        <ele>92.800003051758</ele>
        <time>2026-06-16T12:57:44.000Z</time>
      </trkpt>
      <trkpt lat="48.74305" lon="1.66082">
        <ele>92.800003051758</ele>
        <time>2026-06-16T12:57:52.000Z</time>
      </trkpt>
      <trkpt lat="48.74283" lon="1.66098">
        <ele>92.800003051758</ele>
        <time>2026-06-16T12:57:57.000Z</time>
      </trkpt>
      <trkpt lat="48.74263" lon="1.66113">
        <ele>93</ele>
        <time>2026-06-16T12:58:03.000Z</time>
      </trkpt>
      <trkpt lat="48.74254" lon="1.66116">
        <ele>93</ele>
        <time>2026-06-16T12:58:06.000Z</time>
      </trkpt>
      <trkpt lat="48.74251" lon="1.66112">
        <ele>93</ele>
        <time>2026-06-16T12:58:08.000Z</time>
      </trkpt>
      <trkpt lat="48.74248" lon="1.66093">
        <ele>93</ele>
        <time>2026-06-16T12:58:12.000Z</time>
      </trkpt>
      <trkpt lat="48.74245" lon="1.66075">
        <ele>93</ele>
        <time>2026-06-16T12:58:17.000Z</time>
      </trkpt>
      <trkpt lat="48.74245" lon="1.66073">
        <ele>93</ele>
        <time>2026-06-16T12:58:18.000Z</time>
      </trkpt>
      <trkpt lat="48.74243" lon="1.66072">
        <ele>93</ele>
        <time>2026-06-16T12:58:20.000Z</time>
      </trkpt>
      <trkpt lat="48.74243" lon="1.66079">
        <ele>93</ele>
        <time>2026-06-16T12:58:22.000Z</time>
      </trkpt>
      <trkpt lat="48.74245" lon="1.66084">
        <ele>93.199996948242</ele>
        <time>2026-06-16T12:58:23.000Z</time>
      </trkpt>
      <trkpt lat="48.74251" lon="1.661">
        <ele>93.400001525879</ele>
        <time>2026-06-16T12:58:27.000Z</time>
      </trkpt>
      <trkpt lat="48.74252" lon="1.66107">
        <ele>93.400001525879</ele>
        <time>2026-06-16T12:58:30.000Z</time>
      </trkpt>
      <trkpt lat="48.74252" lon="1.66108">
        <ele>93.400001525879</ele>
        <time>2026-06-16T12:58:31.000Z</time>
      </trkpt>
      <trkpt lat="48.74252" lon="1.66109">
        <ele>93.599998474121</ele>
        <time>2026-06-16T12:58:35.000Z</time>
      </trkpt>
      <trkpt lat="48.74252" lon="1.66109">
        <ele>93.400001525879</ele>
        <time>2026-06-16T12:58:45.000Z</time>
      </trkpt>
      <trkpt lat="48.74252" lon="1.66108">
        <ele>93.199996948242</ele>
        <time>2026-06-16T12:58:50.000Z</time>
      </trkpt>
      <trkpt lat="48.74253" lon="1.66107">
        <ele>92.599998474121</ele>
        <time>2026-06-16T12:59:06.000Z</time>
      </trkpt>
      <trkpt lat="48.74242" lon="1.66105">
        <ele>96.599998474121</ele>
        <time>2026-06-16T13:33:13.000Z</time>
      </trkpt>
      <trkpt lat="48.74243" lon="1.66105">
        <ele>96.599998474121</ele>
        <time>2026-06-16T13:33:19.000Z</time>
      </trkpt>
      <trkpt lat="48.74243" lon="1.66105">
        <ele>96.400001525879</ele>
        <time>2026-06-16T13:33:26.000Z</time>
      </trkpt>
      <trkpt lat="48.74243" lon="1.66105">
        <ele>95.800003051758</ele>
        <time>2026-06-16T13:33:36.000Z</time>
      </trkpt>
      <trkpt lat="48.74243" lon="1.66105">
        <ele>95.800003051758</ele>
        <time>2026-06-16T13:33:38.000Z</time>
      </trkpt>
      <trkpt lat="48.74247" lon="1.66101">
        <ele>95.800003051758</ele>
        <time>2026-06-16T13:33:41.000Z</time>
      </trkpt>
      <trkpt lat="48.74248" lon="1.66098">
        <ele>95.599998474121</ele>
        <time>2026-06-16T13:33:42.000Z</time>
      </trkpt>
      <trkpt lat="48.74247" lon="1.66078">
        <ele>95.800003051758</ele>
        <time>2026-06-16T13:33:49.000Z</time>
      </trkpt>
      <trkpt lat="48.74242" lon="1.66041">
        <ele>96</ele>
        <time>2026-06-16T13:33:56.000Z</time>
      </trkpt>
      <trkpt lat="48.74239" lon="1.66029">
        <ele>96.199996948242</ele>
        <time>2026-06-16T13:33:58.000Z</time>
      </trkpt>
      <trkpt lat="48.74234" lon="1.66018">
        <ele>96.400001525879</ele>
        <time>2026-06-16T13:34:00.000Z</time>
      </trkpt>
      <trkpt lat="48.74229" lon="1.65998">
        <ele>96.800003051758</ele>
        <time>2026-06-16T13:34:03.000Z</time>
      </trkpt>
      <trkpt lat="48.74224" lon="1.65987">
        <ele>97.199996948242</ele>
        <time>2026-06-16T13:34:05.000Z</time>
      </trkpt>
      <trkpt lat="48.74222" lon="1.65982">
        <ele>97.400001525879</ele>
        <time>2026-06-16T13:34:06.000Z</time>
      </trkpt>
      <trkpt lat="48.7422" lon="1.65977">
        <ele>97.599998474121</ele>
        <time>2026-06-16T13:34:07.000Z</time>
      </trkpt>
      <trkpt lat="48.74215" lon="1.65962">
        <ele>97.800003051758</ele>
        <time>2026-06-16T13:34:10.000Z</time>
      </trkpt>
      <trkpt lat="48.74212" lon="1.65952">
        <ele>98</ele>
        <time>2026-06-16T13:34:12.000Z</time>
      </trkpt>
      <trkpt lat="48.74203" lon="1.65914">
        <ele>98.599998474121</ele>
        <time>2026-06-16T13:34:20.000Z</time>
      </trkpt>
      <trkpt lat="48.742" lon="1.65899">
        <ele>99</ele>
        <time>2026-06-16T13:34:23.000Z</time>
      </trkpt>
      <trkpt lat="48.74198" lon="1.65885">
        <ele>99.199996948242</ele>
        <time>2026-06-16T13:34:26.000Z</time>
      </trkpt>
      <trkpt lat="48.74198" lon="1.6588">
        <ele>99.199996948242</ele>
        <time>2026-06-16T13:34:27.000Z</time>
      </trkpt>
      <trkpt lat="48.74191" lon="1.65854">
        <ele>99.400001525879</ele>
        <time>2026-06-16T13:34:33.000Z</time>
      </trkpt>
      <trkpt lat="48.74187" lon="1.65824">
        <ele>100</ele>
        <time>2026-06-16T13:34:39.000Z</time>
      </trkpt>
      <trkpt lat="48.74185" lon="1.65814">
        <ele>100.19999694824</ele>
        <time>2026-06-16T13:34:41.000Z</time>
      </trkpt>
      <trkpt lat="48.74179" lon="1.6578">
        <ele>101</ele>
        <time>2026-06-16T13:34:48.000Z</time>
      </trkpt>
      <trkpt lat="48.74173" lon="1.65761">
        <ele>101.59999847412</ele>
        <time>2026-06-16T13:34:52.000Z</time>
      </trkpt>
      <trkpt lat="48.74166" lon="1.65744">
        <ele>102</ele>
        <time>2026-06-16T13:34:56.000Z</time>
      </trkpt>
      <trkpt lat="48.74166" lon="1.65739">
        <ele>102.19999694824</ele>
        <time>2026-06-16T13:34:57.000Z</time>
      </trkpt>
      <trkpt lat="48.74166" lon="1.65735">
        <ele>102.19999694824</ele>
        <time>2026-06-16T13:34:58.000Z</time>
      </trkpt>
      <trkpt lat="48.74168" lon="1.6573">
        <ele>102.40000152588</ele>
        <time>2026-06-16T13:34:59.000Z</time>
      </trkpt>
      <trkpt lat="48.74171" lon="1.65718">
        <ele>102.59999847412</ele>
        <time>2026-06-16T13:35:01.000Z</time>
      </trkpt>
      <trkpt lat="48.74174" lon="1.65706">
        <ele>102.59999847412</ele>
        <time>2026-06-16T13:35:03.000Z</time>
      </trkpt>
      <trkpt lat="48.74174" lon="1.65699">
        <ele>102.59999847412</ele>
        <time>2026-06-16T13:35:04.000Z</time>
      </trkpt>
      <trkpt lat="48.74175" lon="1.65667">
        <ele>103</ele>
        <time>2026-06-16T13:35:09.000Z</time>
      </trkpt>
      <trkpt lat="48.74176" lon="1.65655">
        <ele>103</ele>
        <time>2026-06-16T13:35:11.000Z</time>
      </trkpt>
      <trkpt lat="48.7418" lon="1.65609">
        <ele>103</ele>
        <time>2026-06-16T13:35:19.000Z</time>
      </trkpt>
      <trkpt lat="48.74181" lon="1.65603">
        <ele>103</ele>
        <time>2026-06-16T13:35:20.000Z</time>
      </trkpt>
      <trkpt lat="48.74185" lon="1.6556">
        <ele>103</ele>
        <time>2026-06-16T13:35:28.000Z</time>
      </trkpt>
      <trkpt lat="48.74185" lon="1.65555">
        <ele>103.19999694824</ele>
        <time>2026-06-16T13:35:29.000Z</time>
      </trkpt>
      <trkpt lat="48.74189" lon="1.65512">
        <ele>104.19999694824</ele>
        <time>2026-06-16T13:35:37.000Z</time>
      </trkpt>
      <trkpt lat="48.74189" lon="1.65506">
        <ele>104.40000152588</ele>
        <time>2026-06-16T13:35:38.000Z</time>
      </trkpt>
      <trkpt lat="48.74191" lon="1.65459">
        <ele>105.19999694824</ele>
        <time>2026-06-16T13:35:46.000Z</time>
      </trkpt>
      <trkpt lat="48.74191" lon="1.65448">
        <ele>105.40000152588</ele>
        <time>2026-06-16T13:35:48.000Z</time>
      </trkpt>
      <trkpt lat="48.74191" lon="1.65443">
        <ele>105.40000152588</ele>
        <time>2026-06-16T13:35:49.000Z</time>
      </trkpt>
      <trkpt lat="48.74193" lon="1.65399">
        <ele>106.40000152588</ele>
        <time>2026-06-16T13:35:57.000Z</time>
      </trkpt>
      <trkpt lat="48.74193" lon="1.65388">
        <ele>106.40000152588</ele>
        <time>2026-06-16T13:35:59.000Z</time>
      </trkpt>
      <trkpt lat="48.74193" lon="1.65338">
        <ele>107.59999847412</ele>
        <time>2026-06-16T13:36:08.000Z</time>
      </trkpt>
      <trkpt lat="48.74191" lon="1.65283">
        <ele>108.19999694824</ele>
        <time>2026-06-16T13:36:17.000Z</time>
      </trkpt>
      <trkpt lat="48.7419" lon="1.6527">
        <ele>108</ele>
        <time>2026-06-16T13:36:19.000Z</time>
      </trkpt>
      <trkpt lat="48.74185" lon="1.65219">
        <ele>108</ele>
        <time>2026-06-16T13:36:27.000Z</time>
      </trkpt>
      <trkpt lat="48.74177" lon="1.6516">
        <ele>107.80000305176</ele>
        <time>2026-06-16T13:36:36.000Z</time>
      </trkpt>
      <trkpt lat="48.7417" lon="1.65109">
        <ele>107.59999847412</ele>
        <time>2026-06-16T13:36:44.000Z</time>
      </trkpt>
      <trkpt lat="48.74166" lon="1.65092">
        <ele>107.59999847412</ele>
        <time>2026-06-16T13:36:46.000Z</time>
      </trkpt>
      <trkpt lat="48.74154" lon="1.6502">
        <ele>107.40000152588</ele>
        <time>2026-06-16T13:36:57.000Z</time>
      </trkpt>
      <trkpt lat="48.74148" lon="1.64961">
        <ele>107.59999847412</ele>
        <time>2026-06-16T13:37:06.000Z</time>
      </trkpt>
      <trkpt lat="48.74145" lon="1.64925">
        <ele>107.80000305176</ele>
        <time>2026-06-16T13:37:11.000Z</time>
      </trkpt>
      <trkpt lat="48.74145" lon="1.64912">
        <ele>107.80000305176</ele>
        <time>2026-06-16T13:37:13.000Z</time>
      </trkpt>
      <trkpt lat="48.74142" lon="1.64846">
        <ele>108</ele>
        <time>2026-06-16T13:37:22.000Z</time>
      </trkpt>
      <trkpt lat="48.74135" lon="1.64776">
        <ele>108</ele>
        <time>2026-06-16T13:37:31.000Z</time>
      </trkpt>
      <trkpt lat="48.74128" lon="1.64704">
        <ele>107.80000305176</ele>
        <time>2026-06-16T13:37:40.000Z</time>
      </trkpt>
      <trkpt lat="48.74128" lon="1.64695">
        <ele>107.80000305176</ele>
        <time>2026-06-16T13:37:41.000Z</time>
      </trkpt>
      <trkpt lat="48.74127" lon="1.64681">
        <ele>107.80000305176</ele>
        <time>2026-06-16T13:37:43.000Z</time>
      </trkpt>
      <trkpt lat="48.74127" lon="1.64666">
        <ele>107.80000305176</ele>
        <time>2026-06-16T13:37:45.000Z</time>
      </trkpt>
      <trkpt lat="48.74124" lon="1.64619">
        <ele>107.80000305176</ele>
        <time>2026-06-16T13:37:51.000Z</time>
      </trkpt>
      <trkpt lat="48.74123" lon="1.64569">
        <ele>108</ele>
        <time>2026-06-16T13:37:57.000Z</time>
      </trkpt>
      <trkpt lat="48.74119" lon="1.64504">
        <ele>108.40000152588</ele>
        <time>2026-06-16T13:38:05.000Z</time>
      </trkpt>
      <trkpt lat="48.74118" lon="1.64496">
        <ele>108.59999847412</ele>
        <time>2026-06-16T13:38:06.000Z</time>
      </trkpt>
      <trkpt lat="48.74116" lon="1.64476">
        <ele>108.80000305176</ele>
        <time>2026-06-16T13:38:09.000Z</time>
      </trkpt>
      <trkpt lat="48.74112" lon="1.64449">
        <ele>109</ele>
        <time>2026-06-16T13:38:12.000Z</time>
      </trkpt>
      <trkpt lat="48.74111" lon="1.64441">
        <ele>109</ele>
        <time>2026-06-16T13:38:13.000Z</time>
      </trkpt>
      <trkpt lat="48.74094" lon="1.64363">
        <ele>109.40000152588</ele>
        <time>2026-06-16T13:38:23.000Z</time>
      </trkpt>
      <trkpt lat="48.74091" lon="1.64347">
        <ele>109.59999847412</ele>
        <time>2026-06-16T13:38:25.000Z</time>
      </trkpt>
      <trkpt lat="48.74082" lon="1.64309">
        <ele>109.80000305176</ele>
        <time>2026-06-16T13:38:30.000Z</time>
      </trkpt>
      <trkpt lat="48.74067" lon="1.6425">
        <ele>110.59999847412</ele>
        <time>2026-06-16T13:38:38.000Z</time>
      </trkpt>
      <trkpt lat="48.74065" lon="1.64243">
        <ele>110.59999847412</ele>
        <time>2026-06-16T13:38:39.000Z</time>
      </trkpt>
      <trkpt lat="48.74058" lon="1.64214">
        <ele>111</ele>
        <time>2026-06-16T13:38:43.000Z</time>
      </trkpt>
      <trkpt lat="48.74048" lon="1.64173">
        <ele>111.19999694824</ele>
        <time>2026-06-16T13:38:49.000Z</time>
      </trkpt>
      <trkpt lat="48.74037" lon="1.64122">
        <ele>111.80000305176</ele>
        <time>2026-06-16T13:38:57.000Z</time>
      </trkpt>
      <trkpt lat="48.7402" lon="1.64055">
        <ele>112.59999847412</ele>
        <time>2026-06-16T13:39:08.000Z</time>
      </trkpt>
      <trkpt lat="48.74017" lon="1.64043">
        <ele>112.80000305176</ele>
        <time>2026-06-16T13:39:10.000Z</time>
      </trkpt>
      <trkpt lat="48.74006" lon="1.63993">
        <ele>113.80000305176</ele>
        <time>2026-06-16T13:39:18.000Z</time>
      </trkpt>
      <trkpt lat="48.74004" lon="1.6398">
        <ele>114.19999694824</ele>
        <time>2026-06-16T13:39:20.000Z</time>
      </trkpt>
      <trkpt lat="48.73995" lon="1.63942">
        <ele>114.59999847412</ele>
        <time>2026-06-16T13:39:26.000Z</time>
      </trkpt>
      <trkpt lat="48.73994" lon="1.63936">
        <ele>114.80000305176</ele>
        <time>2026-06-16T13:39:27.000Z</time>
      </trkpt>
      <trkpt lat="48.73993" lon="1.63929">
        <ele>114.80000305176</ele>
        <time>2026-06-16T13:39:28.000Z</time>
      </trkpt>
      <trkpt lat="48.73986" lon="1.6388">
        <ele>115.80000305176</ele>
        <time>2026-06-16T13:39:36.000Z</time>
      </trkpt>
      <trkpt lat="48.73978" lon="1.63838">
        <ele>116.80000305176</ele>
        <time>2026-06-16T13:39:43.000Z</time>
      </trkpt>
      <trkpt lat="48.73978" lon="1.63834">
        <ele>117</ele>
        <time>2026-06-16T13:39:44.000Z</time>
      </trkpt>
      <trkpt lat="48.7397" lon="1.63802">
        <ele>117.80000305176</ele>
        <time>2026-06-16T13:39:49.000Z</time>
      </trkpt>
      <trkpt lat="48.73969" lon="1.63792">
        <ele>118</ele>
        <time>2026-06-16T13:39:50.000Z</time>
      </trkpt>
      <trkpt lat="48.73964" lon="1.63766">
        <ele>118.59999847412</ele>
        <time>2026-06-16T13:39:54.000Z</time>
      </trkpt>
      <trkpt lat="48.73961" lon="1.6375">
        <ele>119</ele>
        <time>2026-06-16T13:39:57.000Z</time>
      </trkpt>
      <trkpt lat="48.73956" lon="1.63738">
        <ele>119.40000152588</ele>
        <time>2026-06-16T13:39:59.000Z</time>
      </trkpt>
      <trkpt lat="48.7395" lon="1.63715">
        <ele>120</ele>
        <time>2026-06-16T13:40:03.000Z</time>
      </trkpt>
      <trkpt lat="48.73948" lon="1.63708">
        <ele>120.19999694824</ele>
        <time>2026-06-16T13:40:04.000Z</time>
      </trkpt>
      <trkpt lat="48.73947" lon="1.63702">
        <ele>120.19999694824</ele>
        <time>2026-06-16T13:40:05.000Z</time>
      </trkpt>
      <trkpt lat="48.73941" lon="1.63676">
        <ele>120.40000152588</ele>
        <time>2026-06-16T13:40:09.000Z</time>
      </trkpt>
      <trkpt lat="48.73936" lon="1.63664">
        <ele>120.40000152588</ele>
        <time>2026-06-16T13:40:11.000Z</time>
      </trkpt>
      <trkpt lat="48.73933" lon="1.63658">
        <ele>120.40000152588</ele>
        <time>2026-06-16T13:40:12.000Z</time>
      </trkpt>
      <trkpt lat="48.73922" lon="1.6363">
        <ele>119.80000305176</ele>
        <time>2026-06-16T13:40:16.000Z</time>
      </trkpt>
      <trkpt lat="48.73916" lon="1.63612">
        <ele>119.80000305176</ele>
        <time>2026-06-16T13:40:18.000Z</time>
      </trkpt>
      <trkpt lat="48.73911" lon="1.63581">
        <ele>119.59999847412</ele>
        <time>2026-06-16T13:40:21.000Z</time>
      </trkpt>
      <trkpt lat="48.7391" lon="1.63571">
        <ele>119.19999694824</ele>
        <time>2026-06-16T13:40:22.000Z</time>
      </trkpt>
      <trkpt lat="48.73905" lon="1.63537">
        <ele>118.80000305176</ele>
        <time>2026-06-16T13:40:25.000Z</time>
      </trkpt>
      <trkpt lat="48.73901" lon="1.63517">
        <ele>118.59999847412</ele>
        <time>2026-06-16T13:40:27.000Z</time>
      </trkpt>
      <trkpt lat="48.73897" lon="1.63481">
        <ele>118.40000152588</ele>
        <time>2026-06-16T13:40:31.000Z</time>
      </trkpt>
      <trkpt lat="48.73896" lon="1.63473">
        <ele>118.40000152588</ele>
        <time>2026-06-16T13:40:32.000Z</time>
      </trkpt>
      <trkpt lat="48.73891" lon="1.6345">
        <ele>118.40000152588</ele>
        <time>2026-06-16T13:40:35.000Z</time>
      </trkpt>
      <trkpt lat="48.73889" lon="1.63437">
        <ele>118.59999847412</ele>
        <time>2026-06-16T13:40:37.000Z</time>
      </trkpt>
      <trkpt lat="48.73887" lon="1.63418">
        <ele>119</ele>
        <time>2026-06-16T13:40:40.000Z</time>
      </trkpt>
      <trkpt lat="48.73885" lon="1.63396">
        <ele>120</ele>
        <time>2026-06-16T13:40:44.000Z</time>
      </trkpt>
      <trkpt lat="48.73884" lon="1.63387">
        <ele>120</ele>
        <time>2026-06-16T13:40:45.000Z</time>
      </trkpt>
      <trkpt lat="48.73879" lon="1.63348">
        <ele>121</ele>
        <time>2026-06-16T13:40:51.000Z</time>
      </trkpt>
      <trkpt lat="48.73877" lon="1.63335">
        <ele>121.59999847412</ele>
        <time>2026-06-16T13:40:53.000Z</time>
      </trkpt>
      <trkpt lat="48.73876" lon="1.63328">
        <ele>121.80000305176</ele>
        <time>2026-06-16T13:40:54.000Z</time>
      </trkpt>
      <trkpt lat="48.73873" lon="1.6331">
        <ele>122</ele>
        <time>2026-06-16T13:40:57.000Z</time>
      </trkpt>
      <trkpt lat="48.73871" lon="1.63291">
        <ele>122.59999847412</ele>
        <time>2026-06-16T13:41:00.000Z</time>
      </trkpt>
      <trkpt lat="48.73868" lon="1.63266">
        <ele>123.19999694824</ele>
        <time>2026-06-16T13:41:04.000Z</time>
      </trkpt>
      <trkpt lat="48.73866" lon="1.63254">
        <ele>123.59999847412</ele>
        <time>2026-06-16T13:41:06.000Z</time>
      </trkpt>
      <trkpt lat="48.73865" lon="1.63247">
        <ele>123.80000305176</ele>
        <time>2026-06-16T13:41:07.000Z</time>
      </trkpt>
      <trkpt lat="48.73861" lon="1.63227">
        <ele>124.40000152588</ele>
        <time>2026-06-16T13:41:10.000Z</time>
      </trkpt>
      <trkpt lat="48.73858" lon="1.63214">
        <ele>124.59999847412</ele>
        <time>2026-06-16T13:41:12.000Z</time>
      </trkpt>
      <trkpt lat="48.73856" lon="1.63202">
        <ele>125.19999694824</ele>
        <time>2026-06-16T13:41:14.000Z</time>
      </trkpt>
      <trkpt lat="48.73856" lon="1.63198">
        <ele>125.40000152588</ele>
        <time>2026-06-16T13:41:15.000Z</time>
      </trkpt>
      <trkpt lat="48.73853" lon="1.63182">
        <ele>126.59999847412</ele>
        <time>2026-06-16T13:41:18.000Z</time>
      </trkpt>
      <trkpt lat="48.73847" lon="1.63166">
        <ele>127.59999847412</ele>
        <time>2026-06-16T13:41:21.000Z</time>
      </trkpt>
      <trkpt lat="48.73844" lon="1.63157">
        <ele>128.39999389648</ele>
        <time>2026-06-16T13:41:23.000Z</time>
      </trkpt>
      <trkpt lat="48.7384" lon="1.63146">
        <ele>129</ele>
        <time>2026-06-16T13:41:25.000Z</time>
      </trkpt>
      <trkpt lat="48.73832" lon="1.6312">
        <ele>129.80000305176</ele>
        <time>2026-06-16T13:41:30.000Z</time>
      </trkpt>
      <trkpt lat="48.73828" lon="1.63107">
        <ele>130</ele>
        <time>2026-06-16T13:41:32.000Z</time>
      </trkpt>
      <trkpt lat="48.73821" lon="1.63081">
        <ele>130.39999389648</ele>
        <time>2026-06-16T13:41:36.000Z</time>
      </trkpt>
      <trkpt lat="48.73811" lon="1.63043">
        <ele>130.39999389648</ele>
        <time>2026-06-16T13:41:42.000Z</time>
      </trkpt>
      <trkpt lat="48.73811" lon="1.6303">
        <ele>130.39999389648</ele>
        <time>2026-06-16T13:41:44.000Z</time>
      </trkpt>
      <trkpt lat="48.7381" lon="1.63013">
        <ele>130.39999389648</ele>
        <time>2026-06-16T13:41:46.000Z</time>
      </trkpt>
      <trkpt lat="48.73807" lon="1.62954">
        <ele>130</ele>
        <time>2026-06-16T13:41:53.000Z</time>
      </trkpt>
      <trkpt lat="48.73811" lon="1.62872">
        <ele>129.19999694824</ele>
        <time>2026-06-16T13:42:02.000Z</time>
      </trkpt>
      <trkpt lat="48.73812" lon="1.62863">
        <ele>129</ele>
        <time>2026-06-16T13:42:03.000Z</time>
      </trkpt>
      <trkpt lat="48.73816" lon="1.62785">
        <ele>128.80000305176</ele>
        <time>2026-06-16T13:42:11.000Z</time>
      </trkpt>
      <trkpt lat="48.73822" lon="1.62698">
        <ele>128.39999389648</ele>
        <time>2026-06-16T13:42:20.000Z</time>
      </trkpt>
      <trkpt lat="48.73823" lon="1.62688">
        <ele>128.39999389648</ele>
        <time>2026-06-16T13:42:21.000Z</time>
      </trkpt>
      <trkpt lat="48.73834" lon="1.62607">
        <ele>128.19999694824</ele>
        <time>2026-06-16T13:42:30.000Z</time>
      </trkpt>
      <trkpt lat="48.73844" lon="1.62572">
        <ele>128.19999694824</ele>
        <time>2026-06-16T13:42:34.000Z</time>
      </trkpt>
      <trkpt lat="48.73848" lon="1.62554">
        <ele>128</ele>
        <time>2026-06-16T13:42:36.000Z</time>
      </trkpt>
      <trkpt lat="48.7385" lon="1.62544">
        <ele>128</ele>
        <time>2026-06-16T13:42:37.000Z</time>
      </trkpt>
      <trkpt lat="48.73858" lon="1.62506">
        <ele>127.59999847412</ele>
        <time>2026-06-16T13:42:41.000Z</time>
      </trkpt>
      <trkpt lat="48.73861" lon="1.62485">
        <ele>127.19999694824</ele>
        <time>2026-06-16T13:42:43.000Z</time>
      </trkpt>
      <trkpt lat="48.73865" lon="1.62453">
        <ele>126.80000305176</ele>
        <time>2026-06-16T13:42:46.000Z</time>
      </trkpt>
      <trkpt lat="48.73864" lon="1.62442">
        <ele>126.59999847412</ele>
        <time>2026-06-16T13:42:47.000Z</time>
      </trkpt>
      <trkpt lat="48.73865" lon="1.6243">
        <ele>126.40000152588</ele>
        <time>2026-06-16T13:42:48.000Z</time>
      </trkpt>
      <trkpt lat="48.73871" lon="1.62383">
        <ele>125.59999847412</ele>
        <time>2026-06-16T13:42:52.000Z</time>
      </trkpt>
      <trkpt lat="48.73874" lon="1.6236">
        <ele>125.40000152588</ele>
        <time>2026-06-16T13:42:54.000Z</time>
      </trkpt>
      <trkpt lat="48.73884" lon="1.62313">
        <ele>125</ele>
        <time>2026-06-16T13:42:58.000Z</time>
      </trkpt>
      <trkpt lat="48.73892" lon="1.62281">
        <ele>124.59999847412</ele>
        <time>2026-06-16T13:43:01.000Z</time>
      </trkpt>
      <trkpt lat="48.73895" lon="1.62246">
        <ele>124.19999694824</ele>
        <time>2026-06-16T13:43:04.000Z</time>
      </trkpt>
      <trkpt lat="48.73898" lon="1.62221">
        <ele>124.19999694824</ele>
        <time>2026-06-16T13:43:06.000Z</time>
      </trkpt>
      <trkpt lat="48.73899" lon="1.62193">
        <ele>124.19999694824</ele>
        <time>2026-06-16T13:43:08.000Z</time>
      </trkpt>
      <trkpt lat="48.739" lon="1.62146">
        <ele>123.40000152588</ele>
        <time>2026-06-16T13:43:12.000Z</time>
      </trkpt>
      <trkpt lat="48.73905" lon="1.62103">
        <ele>122.80000305176</ele>
        <time>2026-06-16T13:43:16.000Z</time>
      </trkpt>
      <trkpt lat="48.73908" lon="1.62082">
        <ele>122.40000152588</ele>
        <time>2026-06-16T13:43:18.000Z</time>
      </trkpt>
      <trkpt lat="48.73915" lon="1.62052">
        <ele>122</ele>
        <time>2026-06-16T13:43:21.000Z</time>
      </trkpt>
      <trkpt lat="48.73919" lon="1.62032">
        <ele>121.80000305176</ele>
        <time>2026-06-16T13:43:23.000Z</time>
      </trkpt>
      <trkpt lat="48.73929" lon="1.61994">
        <ele>121.40000152588</ele>
        <time>2026-06-16T13:43:27.000Z</time>
      </trkpt>
      <trkpt lat="48.73939" lon="1.61954">
        <ele>121.19999694824</ele>
        <time>2026-06-16T13:43:31.000Z</time>
      </trkpt>
      <trkpt lat="48.73958" lon="1.61869">
        <ele>120.80000305176</ele>
        <time>2026-06-16T13:43:40.000Z</time>
      </trkpt>
      <trkpt lat="48.7396" lon="1.6186">
        <ele>120.80000305176</ele>
        <time>2026-06-16T13:43:42.000Z</time>
      </trkpt>
      <trkpt lat="48.7397" lon="1.61813">
        <ele>120.59999847412</ele>
        <time>2026-06-16T13:43:46.000Z</time>
      </trkpt>
      <trkpt lat="48.73983" lon="1.61746">
        <ele>120</ele>
        <time>2026-06-16T13:43:53.000Z</time>
      </trkpt>
      <trkpt lat="48.74001" lon="1.61663">
        <ele>119.80000305176</ele>
        <time>2026-06-16T13:44:02.000Z</time>
      </trkpt>
      <trkpt lat="48.74003" lon="1.61654">
        <ele>119.80000305176</ele>
        <time>2026-06-16T13:44:03.000Z</time>
      </trkpt>
      <trkpt lat="48.74024" lon="1.61571">
        <ele>120.19999694824</ele>
        <time>2026-06-16T13:44:13.000Z</time>
      </trkpt>
      <trkpt lat="48.74049" lon="1.61491">
        <ele>120.59999847412</ele>
        <time>2026-06-16T13:44:23.000Z</time>
      </trkpt>
      <trkpt lat="48.7407" lon="1.61429">
        <ele>121.19999694824</ele>
        <time>2026-06-16T13:44:31.000Z</time>
      </trkpt>
      <trkpt lat="48.74081" lon="1.61397">
        <ele>121.59999847412</ele>
        <time>2026-06-16T13:44:35.000Z</time>
      </trkpt>
      <trkpt lat="48.74086" lon="1.6138">
        <ele>122</ele>
        <time>2026-06-16T13:44:37.000Z</time>
      </trkpt>
      <trkpt lat="48.74088" lon="1.61372">
        <ele>122.19999694824</ele>
        <time>2026-06-16T13:44:38.000Z</time>
      </trkpt>
      <trkpt lat="48.74096" lon="1.61338">
        <ele>122.59999847412</ele>
        <time>2026-06-16T13:44:42.000Z</time>
      </trkpt>
      <trkpt lat="48.74097" lon="1.61329">
        <ele>122.59999847412</ele>
        <time>2026-06-16T13:44:43.000Z</time>
      </trkpt>
      <trkpt lat="48.74105" lon="1.61293">
        <ele>122.80000305176</ele>
        <time>2026-06-16T13:44:47.000Z</time>
      </trkpt>
      <trkpt lat="48.74111" lon="1.61257">
        <ele>122.80000305176</ele>
        <time>2026-06-16T13:44:51.000Z</time>
      </trkpt>
      <trkpt lat="48.74122" lon="1.61175">
        <ele>121.80000305176</ele>
        <time>2026-06-16T13:45:00.000Z</time>
      </trkpt>
      <trkpt lat="48.74124" lon="1.61157">
        <ele>121.59999847412</ele>
        <time>2026-06-16T13:45:02.000Z</time>
      </trkpt>
      <trkpt lat="48.74128" lon="1.61122">
        <ele>121</ele>
        <time>2026-06-16T13:45:06.000Z</time>
      </trkpt>
      <trkpt lat="48.74128" lon="1.61106">
        <ele>120.59999847412</ele>
        <time>2026-06-16T13:45:08.000Z</time>
      </trkpt>
      <trkpt lat="48.74128" lon="1.61098">
        <ele>120.40000152588</ele>
        <time>2026-06-16T13:45:09.000Z</time>
      </trkpt>
      <trkpt lat="48.74127" lon="1.61091">
        <ele>120.19999694824</ele>
        <time>2026-06-16T13:45:10.000Z</time>
      </trkpt>
      <trkpt lat="48.74123" lon="1.61068">
        <ele>119.40000152588</ele>
        <time>2026-06-16T13:45:13.000Z</time>
      </trkpt>
      <trkpt lat="48.74121" lon="1.61058">
        <ele>119.19999694824</ele>
        <time>2026-06-16T13:45:14.000Z</time>
      </trkpt>
      <trkpt lat="48.74112" lon="1.61003">
        <ele>118.19999694824</ele>
        <time>2026-06-16T13:45:19.000Z</time>
      </trkpt>
      <trkpt lat="48.74107" lon="1.6097">
        <ele>117</ele>
        <time>2026-06-16T13:45:22.000Z</time>
      </trkpt>
      <trkpt lat="48.74102" lon="1.60935">
        <ele>116.40000152588</ele>
        <time>2026-06-16T13:45:25.000Z</time>
      </trkpt>
      <trkpt lat="48.74098" lon="1.60911">
        <ele>115.80000305176</ele>
        <time>2026-06-16T13:45:27.000Z</time>
      </trkpt>
      <trkpt lat="48.7409" lon="1.60862">
        <ele>114.59999847412</ele>
        <time>2026-06-16T13:45:31.000Z</time>
      </trkpt>
      <trkpt lat="48.74088" lon="1.60837">
        <ele>114.40000152588</ele>
        <time>2026-06-16T13:45:33.000Z</time>
      </trkpt>
      <trkpt lat="48.74085" lon="1.608">
        <ele>113.59999847412</ele>
        <time>2026-06-16T13:45:36.000Z</time>
      </trkpt>
      <trkpt lat="48.74086" lon="1.60776">
        <ele>113</ele>
        <time>2026-06-16T13:45:38.000Z</time>
      </trkpt>
      <trkpt lat="48.74091" lon="1.60742">
        <ele>112.40000152588</ele>
        <time>2026-06-16T13:45:41.000Z</time>
      </trkpt>
      <trkpt lat="48.74097" lon="1.60709">
        <ele>111.80000305176</ele>
        <time>2026-06-16T13:45:44.000Z</time>
      </trkpt>
      <trkpt lat="48.74099" lon="1.60699">
        <ele>111.40000152588</ele>
        <time>2026-06-16T13:45:45.000Z</time>
      </trkpt>
      <trkpt lat="48.74109" lon="1.60647">
        <ele>110.19999694824</ele>
        <time>2026-06-16T13:45:50.000Z</time>
      </trkpt>
      <trkpt lat="48.74119" lon="1.60577">
        <ele>109</ele>
        <time>2026-06-16T13:45:57.000Z</time>
      </trkpt>
      <trkpt lat="48.74121" lon="1.60568">
        <ele>108.80000305176</ele>
        <time>2026-06-16T13:45:58.000Z</time>
      </trkpt>
      <trkpt lat="48.74135" lon="1.60494">
        <ele>108.19999694824</ele>
        <time>2026-06-16T13:46:06.000Z</time>
      </trkpt>
      <trkpt lat="48.74153" lon="1.60426">
        <ele>108</ele>
        <time>2026-06-16T13:46:14.000Z</time>
      </trkpt>
      <trkpt lat="48.74155" lon="1.60418">
        <ele>108</ele>
        <time>2026-06-16T13:46:15.000Z</time>
      </trkpt>
      <trkpt lat="48.74171" lon="1.60361">
        <ele>107.80000305176</ele>
        <time>2026-06-16T13:46:22.000Z</time>
      </trkpt>
      <trkpt lat="48.74195" lon="1.6028">
        <ele>108</ele>
        <time>2026-06-16T13:46:32.000Z</time>
      </trkpt>
      <trkpt lat="48.74197" lon="1.60271">
        <ele>108</ele>
        <time>2026-06-16T13:46:33.000Z</time>
      </trkpt>
      <trkpt lat="48.74209" lon="1.60215">
        <ele>108.40000152588</ele>
        <time>2026-06-16T13:46:40.000Z</time>
      </trkpt>
      <trkpt lat="48.74212" lon="1.60157">
        <ele>108.80000305176</ele>
        <time>2026-06-16T13:46:47.000Z</time>
      </trkpt>
      <trkpt lat="48.74211" lon="1.60141">
        <ele>109</ele>
        <time>2026-06-16T13:46:49.000Z</time>
      </trkpt>
      <trkpt lat="48.74206" lon="1.60092">
        <ele>109.19999694824</ele>
        <time>2026-06-16T13:46:55.000Z</time>
      </trkpt>
      <trkpt lat="48.74195" lon="1.6001">
        <ele>109.80000305176</ele>
        <time>2026-06-16T13:47:05.000Z</time>
      </trkpt>
      <trkpt lat="48.74188" lon="1.5996">
        <ele>110</ele>
        <time>2026-06-16T13:47:11.000Z</time>
      </trkpt>
      <trkpt lat="48.74184" lon="1.59934">
        <ele>110.19999694824</ele>
        <time>2026-06-16T13:47:14.000Z</time>
      </trkpt>
      <trkpt lat="48.74173" lon="1.59854">
        <ele>110.40000152588</ele>
        <time>2026-06-16T13:47:23.000Z</time>
      </trkpt>
      <trkpt lat="48.74161" lon="1.59785">
        <ele>110.40000152588</ele>
        <time>2026-06-16T13:47:31.000Z</time>
      </trkpt>
      <trkpt lat="48.74147" lon="1.59706">
        <ele>110.80000305176</ele>
        <time>2026-06-16T13:47:40.000Z</time>
      </trkpt>
      <trkpt lat="48.74143" lon="1.59688">
        <ele>111</ele>
        <time>2026-06-16T13:47:42.000Z</time>
      </trkpt>
      <trkpt lat="48.7413" lon="1.59618">
        <ele>111</ele>
        <time>2026-06-16T13:47:50.000Z</time>
      </trkpt>
      <trkpt lat="48.74129" lon="1.59609">
        <ele>111.19999694824</ele>
        <time>2026-06-16T13:47:51.000Z</time>
      </trkpt>
      <trkpt lat="48.74129" lon="1.59546">
        <ele>111</ele>
        <time>2026-06-16T13:47:58.000Z</time>
      </trkpt>
      <trkpt lat="48.74137" lon="1.59458">
        <ele>110.80000305176</ele>
        <time>2026-06-16T13:48:08.000Z</time>
      </trkpt>
      <trkpt lat="48.74139" lon="1.59441">
        <ele>110.59999847412</ele>
        <time>2026-06-16T13:48:10.000Z</time>
      </trkpt>
      <trkpt lat="48.74145" lon="1.59371">
        <ele>110.80000305176</ele>
        <time>2026-06-16T13:48:18.000Z</time>
      </trkpt>
      <trkpt lat="48.74154" lon="1.59289">
        <ele>110.80000305176</ele>
        <time>2026-06-16T13:48:27.000Z</time>
      </trkpt>
      <trkpt lat="48.74155" lon="1.5927">
        <ele>110.80000305176</ele>
        <time>2026-06-16T13:48:29.000Z</time>
      </trkpt>
      <trkpt lat="48.74164" lon="1.59191">
        <ele>111</ele>
        <time>2026-06-16T13:48:37.000Z</time>
      </trkpt>
      <trkpt lat="48.7417" lon="1.59122">
        <ele>110.19999694824</ele>
        <time>2026-06-16T13:48:44.000Z</time>
      </trkpt>
      <trkpt lat="48.74173" lon="1.59089">
        <ele>110</ele>
        <time>2026-06-16T13:48:47.000Z</time>
      </trkpt>
      <trkpt lat="48.7418" lon="1.59051">
        <ele>109.59999847412</ele>
        <time>2026-06-16T13:48:51.000Z</time>
      </trkpt>
      <trkpt lat="48.742" lon="1.58998">
        <ele>109.19999694824</ele>
        <time>2026-06-16T13:48:57.000Z</time>
      </trkpt>
      <trkpt lat="48.74209" lon="1.58981">
        <ele>108.80000305176</ele>
        <time>2026-06-16T13:48:59.000Z</time>
      </trkpt>
      <trkpt lat="48.74224" lon="1.58955">
        <ele>107.59999847412</ele>
        <time>2026-06-16T13:49:02.000Z</time>
      </trkpt>
      <trkpt lat="48.74229" lon="1.58947">
        <ele>107.40000152588</ele>
        <time>2026-06-16T13:49:03.000Z</time>
      </trkpt>
      <trkpt lat="48.74246" lon="1.58924">
        <ele>106.59999847412</ele>
        <time>2026-06-16T13:49:06.000Z</time>
      </trkpt>
      <trkpt lat="48.74272" lon="1.58887">
        <ele>105.40000152588</ele>
        <time>2026-06-16T13:49:11.000Z</time>
      </trkpt>
      <trkpt lat="48.74277" lon="1.5888">
        <ele>105.40000152588</ele>
        <time>2026-06-16T13:49:12.000Z</time>
      </trkpt>
      <trkpt lat="48.74318" lon="1.58814">
        <ele>105.19999694824</ele>
        <time>2026-06-16T13:49:21.000Z</time>
      </trkpt>
      <trkpt lat="48.74346" lon="1.58766">
        <ele>105.40000152588</ele>
        <time>2026-06-16T13:49:27.000Z</time>
      </trkpt>
      <trkpt lat="48.74381" lon="1.58722">
        <ele>105.80000305176</ele>
        <time>2026-06-16T13:49:34.000Z</time>
      </trkpt>
      <trkpt lat="48.74386" lon="1.58718">
        <ele>105.80000305176</ele>
        <time>2026-06-16T13:49:35.000Z</time>
      </trkpt>
      <trkpt lat="48.74405" lon="1.58706">
        <ele>106.40000152588</ele>
        <time>2026-06-16T13:49:39.000Z</time>
      </trkpt>
      <trkpt lat="48.74414" lon="1.58702">
        <ele>106.59999847412</ele>
        <time>2026-06-16T13:49:41.000Z</time>
      </trkpt>
      <trkpt lat="48.7444" lon="1.5869">
        <ele>107.40000152588</ele>
        <time>2026-06-16T13:49:47.000Z</time>
      </trkpt>
      <trkpt lat="48.74453" lon="1.58686">
        <ele>107.80000305176</ele>
        <time>2026-06-16T13:49:50.000Z</time>
      </trkpt>
      <trkpt lat="48.74468" lon="1.58679">
        <ele>108.40000152588</ele>
        <time>2026-06-16T13:49:54.000Z</time>
      </trkpt>
      <trkpt lat="48.74489" lon="1.58662">
        <ele>108.80000305176</ele>
        <time>2026-06-16T13:50:00.000Z</time>
      </trkpt>
      <trkpt lat="48.74492" lon="1.58659">
        <ele>108.80000305176</ele>
        <time>2026-06-16T13:50:01.000Z</time>
      </trkpt>
      <trkpt lat="48.74503" lon="1.58649">
        <ele>109</ele>
        <time>2026-06-16T13:50:04.000Z</time>
      </trkpt>
      <trkpt lat="48.7451" lon="1.58641">
        <ele>109.40000152588</ele>
        <time>2026-06-16T13:50:06.000Z</time>
      </trkpt>
      <trkpt lat="48.74523" lon="1.58627">
        <ele>109.80000305176</ele>
        <time>2026-06-16T13:50:10.000Z</time>
      </trkpt>
      <trkpt lat="48.74533" lon="1.58615">
        <ele>110</ele>
        <time>2026-06-16T13:50:13.000Z</time>
      </trkpt>
      <trkpt lat="48.74537" lon="1.58612">
        <ele>110.19999694824</ele>
        <time>2026-06-16T13:50:14.000Z</time>
      </trkpt>
      <trkpt lat="48.74573" lon="1.58573">
        <ele>110.80000305176</ele>
        <time>2026-06-16T13:50:24.000Z</time>
      </trkpt>
      <trkpt lat="48.74577" lon="1.58569">
        <ele>110.80000305176</ele>
        <time>2026-06-16T13:50:25.000Z</time>
      </trkpt>
      <trkpt lat="48.74581" lon="1.58565">
        <ele>110.80000305176</ele>
        <time>2026-06-16T13:50:26.000Z</time>
      </trkpt>
      <trkpt lat="48.74596" lon="1.58543">
        <ele>111.19999694824</ele>
        <time>2026-06-16T13:50:30.000Z</time>
      </trkpt>
      <trkpt lat="48.74619" lon="1.58498">
        <ele>111.80000305176</ele>
        <time>2026-06-16T13:50:37.000Z</time>
      </trkpt>
      <trkpt lat="48.74625" lon="1.58484">
        <ele>112.19999694824</ele>
        <time>2026-06-16T13:50:39.000Z</time>
      </trkpt>
      <trkpt lat="48.7465" lon="1.58412">
        <ele>112.80000305176</ele>
        <time>2026-06-16T13:50:49.000Z</time>
      </trkpt>
      <trkpt lat="48.74654" lon="1.58396">
        <ele>113</ele>
        <time>2026-06-16T13:50:51.000Z</time>
      </trkpt>
      <trkpt lat="48.74667" lon="1.58342">
        <ele>113.40000152588</ele>
        <time>2026-06-16T13:50:58.000Z</time>
      </trkpt>
      <trkpt lat="48.7468" lon="1.58271">
        <ele>113.80000305176</ele>
        <time>2026-06-16T13:51:07.000Z</time>
      </trkpt>
      <trkpt lat="48.74683" lon="1.58256">
        <ele>114</ele>
        <time>2026-06-16T13:51:09.000Z</time>
      </trkpt>
      <trkpt lat="48.74695" lon="1.58186">
        <ele>114.19999694824</ele>
        <time>2026-06-16T13:51:18.000Z</time>
      </trkpt>
      <trkpt lat="48.74701" lon="1.58105">
        <ele>114</ele>
        <time>2026-06-16T13:51:28.000Z</time>
      </trkpt>
      <trkpt lat="48.74701" lon="1.58043">
        <ele>114</ele>
        <time>2026-06-16T13:51:35.000Z</time>
      </trkpt>
      <trkpt lat="48.74701" lon="1.57954">
        <ele>114.40000152588</ele>
        <time>2026-06-16T13:51:45.000Z</time>
      </trkpt>
      <trkpt lat="48.74701" lon="1.57936">
        <ele>114.40000152588</ele>
        <time>2026-06-16T13:51:47.000Z</time>
      </trkpt>
      <trkpt lat="48.74706" lon="1.57859">
        <ele>114.19999694824</ele>
        <time>2026-06-16T13:51:56.000Z</time>
      </trkpt>
      <trkpt lat="48.74712" lon="1.57798">
        <ele>114.40000152588</ele>
        <time>2026-06-16T13:52:03.000Z</time>
      </trkpt>
      <trkpt lat="48.7472" lon="1.57716">
        <ele>114.59999847412</ele>
        <time>2026-06-16T13:52:13.000Z</time>
      </trkpt>
      <trkpt lat="48.74721" lon="1.57707">
        <ele>114.59999847412</ele>
        <time>2026-06-16T13:52:14.000Z</time>
      </trkpt>
      <trkpt lat="48.7473" lon="1.57627">
        <ele>114.59999847412</ele>
        <time>2026-06-16T13:52:23.000Z</time>
      </trkpt>
      <trkpt lat="48.74736" lon="1.57562">
        <ele>115</ele>
        <time>2026-06-16T13:52:31.000Z</time>
      </trkpt>
      <trkpt lat="48.74737" lon="1.57546">
        <ele>115.19999694824</ele>
        <time>2026-06-16T13:52:33.000Z</time>
      </trkpt>
      <trkpt lat="48.74743" lon="1.57476">
        <ele>115.19999694824</ele>
        <time>2026-06-16T13:52:42.000Z</time>
      </trkpt>
      <trkpt lat="48.74744" lon="1.57468">
        <ele>115.40000152588</ele>
        <time>2026-06-16T13:52:43.000Z</time>
      </trkpt>
      <trkpt lat="48.74749" lon="1.57434">
        <ele>115.59999847412</ele>
        <time>2026-06-16T13:52:47.000Z</time>
      </trkpt>
      <trkpt lat="48.74758" lon="1.57361">
        <ele>116</ele>
        <time>2026-06-16T13:52:56.000Z</time>
      </trkpt>
      <trkpt lat="48.74759" lon="1.57352">
        <ele>116.19999694824</ele>
        <time>2026-06-16T13:52:57.000Z</time>
      </trkpt>
      <trkpt lat="48.74768" lon="1.57277">
        <ele>116.19999694824</ele>
        <time>2026-06-16T13:53:06.000Z</time>
      </trkpt>
      <trkpt lat="48.74778" lon="1.57193">
        <ele>116.40000152588</ele>
        <time>2026-06-16T13:53:16.000Z</time>
      </trkpt>
      <trkpt lat="48.74779" lon="1.57177">
        <ele>116.40000152588</ele>
        <time>2026-06-16T13:53:18.000Z</time>
      </trkpt>
      <trkpt lat="48.74791" lon="1.57096">
        <ele>116.40000152588</ele>
        <time>2026-06-16T13:53:28.000Z</time>
      </trkpt>
      <trkpt lat="48.74802" lon="1.57025">
        <ele>116.80000305176</ele>
        <time>2026-06-16T13:53:37.000Z</time>
      </trkpt>
      <trkpt lat="48.74809" lon="1.56975">
        <ele>117.19999694824</ele>
        <time>2026-06-16T13:53:43.000Z</time>
      </trkpt>
      <trkpt lat="48.74811" lon="1.5696">
        <ele>117.40000152588</ele>
        <time>2026-06-16T13:53:45.000Z</time>
      </trkpt>
      <trkpt lat="48.74822" lon="1.56892">
        <ele>118.19999694824</ele>
        <time>2026-06-16T13:53:53.000Z</time>
      </trkpt>
      <trkpt lat="48.74824" lon="1.56883">
        <ele>118.19999694824</ele>
        <time>2026-06-16T13:53:54.000Z</time>
      </trkpt>
      <trkpt lat="48.74834" lon="1.5681">
        <ele>118.40000152588</ele>
        <time>2026-06-16T13:54:03.000Z</time>
      </trkpt>
      <trkpt lat="48.74842" lon="1.56736">
        <ele>118.40000152588</ele>
        <time>2026-06-16T13:54:12.000Z</time>
      </trkpt>
      <trkpt lat="48.74847" lon="1.56647">
        <ele>118.59999847412</ele>
        <time>2026-06-16T13:54:22.000Z</time>
      </trkpt>
      <trkpt lat="48.74848" lon="1.56639">
        <ele>118.80000305176</ele>
        <time>2026-06-16T13:54:23.000Z</time>
      </trkpt>
      <trkpt lat="48.74852" lon="1.56553">
        <ele>118.80000305176</ele>
        <time>2026-06-16T13:54:33.000Z</time>
      </trkpt>
      <trkpt lat="48.74856" lon="1.56488">
        <ele>119</ele>
        <time>2026-06-16T13:54:41.000Z</time>
      </trkpt>
      <trkpt lat="48.74859" lon="1.56441">
        <ele>119.19999694824</ele>
        <time>2026-06-16T13:54:46.000Z</time>
      </trkpt>
      <trkpt lat="48.7486" lon="1.56413">
        <ele>119.19999694824</ele>
        <time>2026-06-16T13:54:49.000Z</time>
      </trkpt>
      <trkpt lat="48.7486" lon="1.56335">
        <ele>119.59999847412</ele>
        <time>2026-06-16T13:54:58.000Z</time>
      </trkpt>
      <trkpt lat="48.74857" lon="1.56266">
        <ele>119.80000305176</ele>
        <time>2026-06-16T13:55:06.000Z</time>
      </trkpt>
      <trkpt lat="48.74855" lon="1.56194">
        <ele>120.19999694824</ele>
        <time>2026-06-16T13:55:14.000Z</time>
      </trkpt>
      <trkpt lat="48.74855" lon="1.56185">
        <ele>120.19999694824</ele>
        <time>2026-06-16T13:55:15.000Z</time>
      </trkpt>
      <trkpt lat="48.74858" lon="1.56114">
        <ele>120.59999847412</ele>
        <time>2026-06-16T13:55:23.000Z</time>
      </trkpt>
      <trkpt lat="48.74872" lon="1.56045">
        <ele>120.80000305176</ele>
        <time>2026-06-16T13:55:31.000Z</time>
      </trkpt>
      <trkpt lat="48.74895" lon="1.55971">
        <ele>120.80000305176</ele>
        <time>2026-06-16T13:55:40.000Z</time>
      </trkpt>
      <trkpt lat="48.74918" lon="1.55907">
        <ele>121.19999694824</ele>
        <time>2026-06-16T13:55:48.000Z</time>
      </trkpt>
      <trkpt lat="48.74945" lon="1.55827">
        <ele>120.80000305176</ele>
        <time>2026-06-16T13:55:58.000Z</time>
      </trkpt>
      <trkpt lat="48.74969" lon="1.55752">
        <ele>121</ele>
        <time>2026-06-16T13:56:07.000Z</time>
      </trkpt>
      <trkpt lat="48.74985" lon="1.55692">
        <ele>121</ele>
        <time>2026-06-16T13:56:14.000Z</time>
      </trkpt>
      <trkpt lat="48.75" lon="1.55612">
        <ele>121.19999694824</ele>
        <time>2026-06-16T13:56:23.000Z</time>
      </trkpt>
      <trkpt lat="48.75002" lon="1.55594">
        <ele>121.19999694824</ele>
        <time>2026-06-16T13:56:25.000Z</time>
      </trkpt>
      <trkpt lat="48.75015" lon="1.55513">
        <ele>121.19999694824</ele>
        <time>2026-06-16T13:56:34.000Z</time>
      </trkpt>
      <trkpt lat="48.75029" lon="1.55431">
        <ele>121.40000152588</ele>
        <time>2026-06-16T13:56:43.000Z</time>
      </trkpt>
      <trkpt lat="48.7505" lon="1.55354">
        <ele>121.40000152588</ele>
        <time>2026-06-16T13:56:52.000Z</time>
      </trkpt>
      <trkpt lat="48.75074" lon="1.55271">
        <ele>121</ele>
        <time>2026-06-16T13:57:02.000Z</time>
      </trkpt>
      <trkpt lat="48.75091" lon="1.55196">
        <ele>121.19999694824</ele>
        <time>2026-06-16T13:57:11.000Z</time>
      </trkpt>
      <trkpt lat="48.75096" lon="1.55134">
        <ele>121.40000152588</ele>
        <time>2026-06-16T13:57:17.000Z</time>
      </trkpt>
      <trkpt lat="48.75095" lon="1.55065">
        <ele>121.59999847412</ele>
        <time>2026-06-16T13:57:24.000Z</time>
      </trkpt>
      <trkpt lat="48.75085" lon="1.54984">
        <ele>121.80000305176</ele>
        <time>2026-06-16T13:57:33.000Z</time>
      </trkpt>
      <trkpt lat="48.75078" lon="1.54909">
        <ele>122</ele>
        <time>2026-06-16T13:57:41.000Z</time>
      </trkpt>
      <trkpt lat="48.75075" lon="1.54838">
        <ele>121.59999847412</ele>
        <time>2026-06-16T13:57:49.000Z</time>
      </trkpt>
      <trkpt lat="48.75076" lon="1.54761">
        <ele>121</ele>
        <time>2026-06-16T13:57:58.000Z</time>
      </trkpt>
      <trkpt lat="48.75078" lon="1.54735">
        <ele>121</ele>
        <time>2026-06-16T13:58:01.000Z</time>
      </trkpt>
      <trkpt lat="48.75081" lon="1.547">
        <ele>120.80000305176</ele>
        <time>2026-06-16T13:58:05.000Z</time>
      </trkpt>
      <trkpt lat="48.75086" lon="1.54633">
        <ele>120.59999847412</ele>
        <time>2026-06-16T13:58:12.000Z</time>
      </trkpt>
      <trkpt lat="48.75086" lon="1.54592">
        <ele>120.19999694824</ele>
        <time>2026-06-16T13:58:16.000Z</time>
      </trkpt>
      <trkpt lat="48.75085" lon="1.54563">
        <ele>120.19999694824</ele>
        <time>2026-06-16T13:58:19.000Z</time>
      </trkpt>
      <trkpt lat="48.75084" lon="1.54507">
        <ele>119.80000305176</ele>
        <time>2026-06-16T13:58:25.000Z</time>
      </trkpt>
      <trkpt lat="48.75086" lon="1.54438">
        <ele>120</ele>
        <time>2026-06-16T13:58:32.000Z</time>
      </trkpt>
      <trkpt lat="48.75095" lon="1.54356">
        <ele>120.19999694824</ele>
        <time>2026-06-16T13:58:41.000Z</time>
      </trkpt>
      <trkpt lat="48.75097" lon="1.54334">
        <ele>120.40000152588</ele>
        <time>2026-06-16T13:58:43.000Z</time>
      </trkpt>
      <trkpt lat="48.75105" lon="1.54269">
        <ele>120.40000152588</ele>
        <time>2026-06-16T13:58:50.000Z</time>
      </trkpt>
      <trkpt lat="48.75111" lon="1.54186">
        <ele>120.80000305176</ele>
        <time>2026-06-16T13:58:59.000Z</time>
      </trkpt>
      <trkpt lat="48.75111" lon="1.54109">
        <ele>121</ele>
        <time>2026-06-16T13:59:07.000Z</time>
      </trkpt>
      <trkpt lat="48.75109" lon="1.54043">
        <ele>121.19999694824</ele>
        <time>2026-06-16T13:59:14.000Z</time>
      </trkpt>
      <trkpt lat="48.75108" lon="1.54033">
        <ele>121.19999694824</ele>
        <time>2026-06-16T13:59:15.000Z</time>
      </trkpt>
      <trkpt lat="48.75101" lon="1.53949">
        <ele>121.19999694824</ele>
        <time>2026-06-16T13:59:24.000Z</time>
      </trkpt>
      <trkpt lat="48.75089" lon="1.53883">
        <ele>121.40000152588</ele>
        <time>2026-06-16T13:59:31.000Z</time>
      </trkpt>
      <trkpt lat="48.75085" lon="1.53865">
        <ele>121.40000152588</ele>
        <time>2026-06-16T13:59:33.000Z</time>
      </trkpt>
      <trkpt lat="48.75065" lon="1.53796">
        <ele>121.59999847412</ele>
        <time>2026-06-16T13:59:41.000Z</time>
      </trkpt>
      <trkpt lat="48.75035" lon="1.53719">
        <ele>122.19999694824</ele>
        <time>2026-06-16T13:59:51.000Z</time>
      </trkpt>
      <trkpt lat="48.75027" lon="1.53694">
        <ele>122.40000152588</ele>
        <time>2026-06-16T13:59:54.000Z</time>
      </trkpt>
      <trkpt lat="48.75005" lon="1.53636">
        <ele>122.59999847412</ele>
        <time>2026-06-16T14:00:01.000Z</time>
      </trkpt>
      <trkpt lat="48.7498" lon="1.53561">
        <ele>122.80000305176</ele>
        <time>2026-06-16T14:00:10.000Z</time>
      </trkpt>
      <trkpt lat="48.74977" lon="1.53554">
        <ele>122.80000305176</ele>
        <time>2026-06-16T14:00:11.000Z</time>
      </trkpt>
      <trkpt lat="48.74966" lon="1.53518">
        <ele>122.80000305176</ele>
        <time>2026-06-16T14:00:16.000Z</time>
      </trkpt>
      <trkpt lat="48.74955" lon="1.53481">
        <ele>122.80000305176</ele>
        <time>2026-06-16T14:00:22.000Z</time>
      </trkpt>
      <trkpt lat="48.74931" lon="1.53403">
        <ele>123.19999694824</ele>
        <time>2026-06-16T14:00:34.000Z</time>
      </trkpt>
      <trkpt lat="48.74929" lon="1.53397">
        <ele>123.40000152588</ele>
        <time>2026-06-16T14:00:35.000Z</time>
      </trkpt>
      <trkpt lat="48.74927" lon="1.5339">
        <ele>123.59999847412</ele>
        <time>2026-06-16T14:00:36.000Z</time>
      </trkpt>
      <trkpt lat="48.74916" lon="1.53357">
        <ele>124</ele>
        <time>2026-06-16T14:00:41.000Z</time>
      </trkpt>
      <trkpt lat="48.7491" lon="1.53336">
        <ele>124</ele>
        <time>2026-06-16T14:00:44.000Z</time>
      </trkpt>
      <trkpt lat="48.74902" lon="1.53308">
        <ele>124.59999847412</ele>
        <time>2026-06-16T14:00:48.000Z</time>
      </trkpt>
      <trkpt lat="48.74892" lon="1.53264">
        <ele>125</ele>
        <time>2026-06-16T14:00:54.000Z</time>
      </trkpt>
      <trkpt lat="48.74887" lon="1.53218">
        <ele>125.80000305176</ele>
        <time>2026-06-16T14:01:00.000Z</time>
      </trkpt>
      <trkpt lat="48.74883" lon="1.5318">
        <ele>126</ele>
        <time>2026-06-16T14:01:05.000Z</time>
      </trkpt>
      <trkpt lat="48.74878" lon="1.53126">
        <ele>126.59999847412</ele>
        <time>2026-06-16T14:01:12.000Z</time>
      </trkpt>
      <trkpt lat="48.74875" lon="1.53095">
        <ele>127</ele>
        <time>2026-06-16T14:01:16.000Z</time>
      </trkpt>
      <trkpt lat="48.74869" lon="1.53027">
        <ele>127.59999847412</ele>
        <time>2026-06-16T14:01:25.000Z</time>
      </trkpt>
      <trkpt lat="48.74867" lon="1.53013">
        <ele>127.80000305176</ele>
        <time>2026-06-16T14:01:27.000Z</time>
      </trkpt>
      <trkpt lat="48.74864" lon="1.52967">
        <ele>128.60000610352</ele>
        <time>2026-06-16T14:01:34.000Z</time>
      </trkpt>
      <trkpt lat="48.74862" lon="1.52937">
        <ele>129.19999694824</ele>
        <time>2026-06-16T14:01:39.000Z</time>
      </trkpt>
      <trkpt lat="48.74861" lon="1.52925">
        <ele>129.39999389648</ele>
        <time>2026-06-16T14:01:41.000Z</time>
      </trkpt>
      <trkpt lat="48.7486" lon="1.52918">
        <ele>129.60000610352</ele>
        <time>2026-06-16T14:01:42.000Z</time>
      </trkpt>
      <trkpt lat="48.7486" lon="1.52912">
        <ele>129.60000610352</ele>
        <time>2026-06-16T14:01:43.000Z</time>
      </trkpt>
      <trkpt lat="48.74856" lon="1.5287">
        <ele>130.39999389648</ele>
        <time>2026-06-16T14:01:50.000Z</time>
      </trkpt>
      <trkpt lat="48.74854" lon="1.52846">
        <ele>130.80000305176</ele>
        <time>2026-06-16T14:01:54.000Z</time>
      </trkpt>
      <trkpt lat="48.74852" lon="1.52815">
        <ele>131.39999389648</ele>
        <time>2026-06-16T14:01:59.000Z</time>
      </trkpt>
      <trkpt lat="48.74849" lon="1.52782">
        <ele>131.80000305176</ele>
        <time>2026-06-16T14:02:04.000Z</time>
      </trkpt>
      <trkpt lat="48.74846" lon="1.52755">
        <ele>132.19999694824</ele>
        <time>2026-06-16T14:02:08.000Z</time>
      </trkpt>
      <trkpt lat="48.74842" lon="1.52708">
        <ele>132.80000305176</ele>
        <time>2026-06-16T14:02:15.000Z</time>
      </trkpt>
      <trkpt lat="48.74841" lon="1.52695">
        <ele>132.80000305176</ele>
        <time>2026-06-16T14:02:17.000Z</time>
      </trkpt>
      <trkpt lat="48.74841" lon="1.52689">
        <ele>132.80000305176</ele>
        <time>2026-06-16T14:02:18.000Z</time>
      </trkpt>
      <trkpt lat="48.7484" lon="1.52671">
        <ele>133</ele>
        <time>2026-06-16T14:02:21.000Z</time>
      </trkpt>
      <trkpt lat="48.74839" lon="1.5266">
        <ele>133</ele>
        <time>2026-06-16T14:02:23.000Z</time>
      </trkpt>
      <trkpt lat="48.74838" lon="1.52614">
        <ele>133</ele>
        <time>2026-06-16T14:02:30.000Z</time>
      </trkpt>
      <trkpt lat="48.74838" lon="1.52601">
        <ele>133.19999694824</ele>
        <time>2026-06-16T14:02:32.000Z</time>
      </trkpt>
      <trkpt lat="48.74839" lon="1.52583">
        <ele>133.19999694824</ele>
        <time>2026-06-16T14:02:35.000Z</time>
      </trkpt>
      <trkpt lat="48.74838" lon="1.52576">
        <ele>133.19999694824</ele>
        <time>2026-06-16T14:02:36.000Z</time>
      </trkpt>
      <trkpt lat="48.74838" lon="1.5257">
        <ele>133.19999694824</ele>
        <time>2026-06-16T14:02:37.000Z</time>
      </trkpt>
      <trkpt lat="48.74841" lon="1.52523">
        <ele>133.19999694824</ele>
        <time>2026-06-16T14:02:44.000Z</time>
      </trkpt>
      <trkpt lat="48.74842" lon="1.52497">
        <ele>133.60000610352</ele>
        <time>2026-06-16T14:02:48.000Z</time>
      </trkpt>
      <trkpt lat="48.74842" lon="1.52483">
        <ele>133.80000305176</ele>
        <time>2026-06-16T14:02:50.000Z</time>
      </trkpt>
      <trkpt lat="48.74842" lon="1.52477">
        <ele>133.80000305176</ele>
        <time>2026-06-16T14:02:51.000Z</time>
      </trkpt>
      <trkpt lat="48.74837" lon="1.52426">
        <ele>134</ele>
        <time>2026-06-16T14:02:58.000Z</time>
      </trkpt>
      <trkpt lat="48.74831" lon="1.52366">
        <ele>133.39999389648</ele>
        <time>2026-06-16T14:03:06.000Z</time>
      </trkpt>
      <trkpt lat="48.74833" lon="1.52343">
        <ele>133</ele>
        <time>2026-06-16T14:03:09.000Z</time>
      </trkpt>
      <trkpt lat="48.74835" lon="1.52328">
        <ele>133</ele>
        <time>2026-06-16T14:03:11.000Z</time>
      </trkpt>
      <trkpt lat="48.74836" lon="1.5232">
        <ele>132.80000305176</ele>
        <time>2026-06-16T14:03:12.000Z</time>
      </trkpt>
      <trkpt lat="48.74836" lon="1.52313">
        <ele>132.80000305176</ele>
        <time>2026-06-16T14:03:13.000Z</time>
      </trkpt>
      <trkpt lat="48.74837" lon="1.523">
        <ele>132.39999389648</ele>
        <time>2026-06-16T14:03:16.000Z</time>
      </trkpt>
      <trkpt lat="48.74837" lon="1.52296">
        <ele>132.19999694824</ele>
        <time>2026-06-16T14:03:17.000Z</time>
      </trkpt>
      <trkpt lat="48.74833" lon="1.5229">
        <ele>132</ele>
        <time>2026-06-16T14:03:19.000Z</time>
      </trkpt>
      <trkpt lat="48.74827" lon="1.52286">
        <ele>131.60000610352</ele>
        <time>2026-06-16T14:03:21.000Z</time>
      </trkpt>
      <trkpt lat="48.7482" lon="1.52283">
        <ele>131.39999389648</ele>
        <time>2026-06-16T14:03:23.000Z</time>
      </trkpt>
      <trkpt lat="48.74794" lon="1.52272">
        <ele>130.60000610352</ele>
        <time>2026-06-16T14:03:29.000Z</time>
      </trkpt>
      <trkpt lat="48.74785" lon="1.52271">
        <ele>130.39999389648</ele>
        <time>2026-06-16T14:03:31.000Z</time>
      </trkpt>
      <trkpt lat="48.74774" lon="1.52275">
        <ele>130.39999389648</ele>
        <time>2026-06-16T14:03:33.000Z</time>
      </trkpt>
      <trkpt lat="48.74764" lon="1.52283">
        <ele>130.39999389648</ele>
        <time>2026-06-16T14:03:35.000Z</time>
      </trkpt>
      <trkpt lat="48.74754" lon="1.52292">
        <ele>130.39999389648</ele>
        <time>2026-06-16T14:03:37.000Z</time>
      </trkpt>
      <trkpt lat="48.74749" lon="1.52297">
        <ele>130.19999694824</ele>
        <time>2026-06-16T14:03:38.000Z</time>
      </trkpt>
      <trkpt lat="48.74735" lon="1.52304">
        <ele>130</ele>
        <time>2026-06-16T14:03:41.000Z</time>
      </trkpt>
      <trkpt lat="48.7473" lon="1.52304">
        <ele>130</ele>
        <time>2026-06-16T14:03:42.000Z</time>
      </trkpt>
      <trkpt lat="48.74715" lon="1.52301">
        <ele>129.80000305176</ele>
        <time>2026-06-16T14:03:45.000Z</time>
      </trkpt>
      <trkpt lat="48.74704" lon="1.52301">
        <ele>129.60000610352</ele>
        <time>2026-06-16T14:03:47.000Z</time>
      </trkpt>
      <trkpt lat="48.74677" lon="1.52298">
        <ele>129.39999389648</ele>
        <time>2026-06-16T14:03:52.000Z</time>
      </trkpt>
      <trkpt lat="48.74661" lon="1.52296">
        <ele>129.19999694824</ele>
        <time>2026-06-16T14:03:55.000Z</time>
      </trkpt>
      <trkpt lat="48.74639" lon="1.52293">
        <ele>129.19999694824</ele>
        <time>2026-06-16T14:03:59.000Z</time>
      </trkpt>
      <trkpt lat="48.74633" lon="1.52292">
        <ele>129</ele>
        <time>2026-06-16T14:04:00.000Z</time>
      </trkpt>
      <trkpt lat="48.74628" lon="1.52289">
        <ele>129</ele>
        <time>2026-06-16T14:04:01.000Z</time>
      </trkpt>
      <trkpt lat="48.74606" lon="1.52286">
        <ele>128.80000305176</ele>
        <time>2026-06-16T14:04:05.000Z</time>
      </trkpt>
      <trkpt lat="48.746" lon="1.52286">
        <ele>128.80000305176</ele>
        <time>2026-06-16T14:04:06.000Z</time>
      </trkpt>
      <trkpt lat="48.7459" lon="1.52291">
        <ele>128.80000305176</ele>
        <time>2026-06-16T14:04:08.000Z</time>
      </trkpt>
      <trkpt lat="48.74585" lon="1.52295">
        <ele>128.60000610352</ele>
        <time>2026-06-16T14:04:09.000Z</time>
      </trkpt>
      <trkpt lat="48.74573" lon="1.52305">
        <ele>128.39999389648</ele>
        <time>2026-06-16T14:04:12.000Z</time>
      </trkpt>
      <trkpt lat="48.74543" lon="1.52333">
        <ele>128</ele>
        <time>2026-06-16T14:04:18.000Z</time>
      </trkpt>
      <trkpt lat="48.74501" lon="1.52368">
        <ele>127.40000152588</ele>
        <time>2026-06-16T14:04:26.000Z</time>
      </trkpt>
      <trkpt lat="48.7449" lon="1.52376">
        <ele>127</ele>
        <time>2026-06-16T14:04:28.000Z</time>
      </trkpt>
      <trkpt lat="48.74454" lon="1.52396">
        <ele>126.80000305176</ele>
        <time>2026-06-16T14:04:34.000Z</time>
      </trkpt>
      <trkpt lat="48.74417" lon="1.52417">
        <ele>126</ele>
        <time>2026-06-16T14:04:40.000Z</time>
      </trkpt>
      <trkpt lat="48.74398" lon="1.52429">
        <ele>125.80000305176</ele>
        <time>2026-06-16T14:04:43.000Z</time>
      </trkpt>
      <trkpt lat="48.74347" lon="1.52459">
        <ele>125.19999694824</ele>
        <time>2026-06-16T14:04:51.000Z</time>
      </trkpt>
      <trkpt lat="48.74329" lon="1.5247">
        <ele>125</ele>
        <time>2026-06-16T14:04:54.000Z</time>
      </trkpt>
      <trkpt lat="48.74271" lon="1.52497">
        <ele>124.19999694824</ele>
        <time>2026-06-16T14:05:03.000Z</time>
      </trkpt>
      <trkpt lat="48.74259" lon="1.52502">
        <ele>124</ele>
        <time>2026-06-16T14:05:05.000Z</time>
      </trkpt>
      <trkpt lat="48.74239" lon="1.5251">
        <ele>124</ele>
        <time>2026-06-16T14:05:08.000Z</time>
      </trkpt>
      <trkpt lat="48.74188" lon="1.52533">
        <ele>123.40000152588</ele>
        <time>2026-06-16T14:05:16.000Z</time>
      </trkpt>
      <trkpt lat="48.7413" lon="1.52558">
        <ele>123.19999694824</ele>
        <time>2026-06-16T14:05:25.000Z</time>
      </trkpt>
      <trkpt lat="48.74111" lon="1.52566">
        <ele>123</ele>
        <time>2026-06-16T14:05:28.000Z</time>
      </trkpt>
      <trkpt lat="48.74054" lon="1.52591">
        <ele>122.59999847412</ele>
        <time>2026-06-16T14:05:37.000Z</time>
      </trkpt>
      <trkpt lat="48.74044" lon="1.52596">
        <ele>122.40000152588</ele>
        <time>2026-06-16T14:05:39.000Z</time>
      </trkpt>
      <trkpt lat="48.73992" lon="1.52618">
        <ele>122</ele>
        <time>2026-06-16T14:05:47.000Z</time>
      </trkpt>
      <trkpt lat="48.73986" lon="1.52621">
        <ele>122</ele>
        <time>2026-06-16T14:05:48.000Z</time>
      </trkpt>
      <trkpt lat="48.73974" lon="1.52626">
        <ele>122</ele>
        <time>2026-06-16T14:05:50.000Z</time>
      </trkpt>
      <trkpt lat="48.73959" lon="1.52634">
        <ele>121.80000305176</ele>
        <time>2026-06-16T14:05:53.000Z</time>
      </trkpt>
      <trkpt lat="48.73954" lon="1.52636">
        <ele>121.80000305176</ele>
        <time>2026-06-16T14:05:54.000Z</time>
      </trkpt>
      <trkpt lat="48.7391" lon="1.52653">
        <ele>121.40000152588</ele>
        <time>2026-06-16T14:06:02.000Z</time>
      </trkpt>
      <trkpt lat="48.73855" lon="1.52678">
        <ele>121.19999694824</ele>
        <time>2026-06-16T14:06:12.000Z</time>
      </trkpt>
      <trkpt lat="48.73838" lon="1.52686">
        <ele>120.80000305176</ele>
        <time>2026-06-16T14:06:15.000Z</time>
      </trkpt>
      <trkpt lat="48.73804" lon="1.52701">
        <ele>120.80000305176</ele>
        <time>2026-06-16T14:06:21.000Z</time>
      </trkpt>
      <trkpt lat="48.73748" lon="1.52726">
        <ele>120.59999847412</ele>
        <time>2026-06-16T14:06:31.000Z</time>
      </trkpt>
      <trkpt lat="48.73743" lon="1.52728">
        <ele>120.59999847412</ele>
        <time>2026-06-16T14:06:32.000Z</time>
      </trkpt>
      <trkpt lat="48.73685" lon="1.52753">
        <ele>120.80000305176</ele>
        <time>2026-06-16T14:06:43.000Z</time>
      </trkpt>
      <trkpt lat="48.73634" lon="1.52774">
        <ele>121.59999847412</ele>
        <time>2026-06-16T14:06:52.000Z</time>
      </trkpt>
      <trkpt lat="48.73596" lon="1.52787">
        <ele>122</ele>
        <time>2026-06-16T14:06:59.000Z</time>
      </trkpt>
      <trkpt lat="48.7359" lon="1.52788">
        <ele>122</ele>
        <time>2026-06-16T14:07:00.000Z</time>
      </trkpt>
      <trkpt lat="48.7354" lon="1.52801">
        <ele>122.19999694824</ele>
        <time>2026-06-16T14:07:09.000Z</time>
      </trkpt>
      <trkpt lat="48.73499" lon="1.5281">
        <ele>122.19999694824</ele>
        <time>2026-06-16T14:07:16.000Z</time>
      </trkpt>
      <trkpt lat="48.73453" lon="1.52821">
        <ele>122</ele>
        <time>2026-06-16T14:07:24.000Z</time>
      </trkpt>
      <trkpt lat="48.73395" lon="1.52834">
        <ele>121.59999847412</ele>
        <time>2026-06-16T14:07:34.000Z</time>
      </trkpt>
      <trkpt lat="48.73341" lon="1.52848">
        <ele>121.80000305176</ele>
        <time>2026-06-16T14:07:44.000Z</time>
      </trkpt>
      <trkpt lat="48.73327" lon="1.52851">
        <ele>121.80000305176</ele>
        <time>2026-06-16T14:07:46.000Z</time>
      </trkpt>
      <trkpt lat="48.73284" lon="1.52863">
        <ele>122.19999694824</ele>
        <time>2026-06-16T14:07:54.000Z</time>
      </trkpt>
      <trkpt lat="48.73228" lon="1.52875">
        <ele>122.40000152588</ele>
        <time>2026-06-16T14:08:04.000Z</time>
      </trkpt>
      <trkpt lat="48.73223" lon="1.52877">
        <ele>122.40000152588</ele>
        <time>2026-06-16T14:08:05.000Z</time>
      </trkpt>
      <trkpt lat="48.73165" lon="1.5289">
        <ele>122.59999847412</ele>
        <time>2026-06-16T14:08:15.000Z</time>
      </trkpt>
      <trkpt lat="48.7311" lon="1.52904">
        <ele>122.40000152588</ele>
        <time>2026-06-16T14:08:24.000Z</time>
      </trkpt>
      <trkpt lat="48.73057" lon="1.52922">
        <ele>122</ele>
        <time>2026-06-16T14:08:33.000Z</time>
      </trkpt>
      <trkpt lat="48.73004" lon="1.52943">
        <ele>122.19999694824</ele>
        <time>2026-06-16T14:08:42.000Z</time>
      </trkpt>
      <trkpt lat="48.72998" lon="1.52945">
        <ele>122.19999694824</ele>
        <time>2026-06-16T14:08:43.000Z</time>
      </trkpt>
      <trkpt lat="48.72945" lon="1.52967">
        <ele>122.40000152588</ele>
        <time>2026-06-16T14:08:52.000Z</time>
      </trkpt>
      <trkpt lat="48.72933" lon="1.52972">
        <ele>122.40000152588</ele>
        <time>2026-06-16T14:08:54.000Z</time>
      </trkpt>
      <trkpt lat="48.72879" lon="1.52994">
        <ele>122.59999847412</ele>
        <time>2026-06-16T14:09:03.000Z</time>
      </trkpt>
      <trkpt lat="48.72822" lon="1.53013">
        <ele>122.59999847412</ele>
        <time>2026-06-16T14:09:12.000Z</time>
      </trkpt>
      <trkpt lat="48.72813" lon="1.53016">
        <ele>122.40000152588</ele>
        <time>2026-06-16T14:09:14.000Z</time>
      </trkpt>
      <trkpt lat="48.7276" lon="1.53032">
        <ele>122.59999847412</ele>
        <time>2026-06-16T14:09:22.000Z</time>
      </trkpt>
      <trkpt lat="48.72716" lon="1.53045">
        <ele>122.59999847412</ele>
        <time>2026-06-16T14:09:29.000Z</time>
      </trkpt>
      <trkpt lat="48.72658" lon="1.53062">
        <ele>122.19999694824</ele>
        <time>2026-06-16T14:09:38.000Z</time>
      </trkpt>
      <trkpt lat="48.72645" lon="1.53066">
        <ele>122</ele>
        <time>2026-06-16T14:09:40.000Z</time>
      </trkpt>
      <trkpt lat="48.72587" lon="1.53083">
        <ele>121.80000305176</ele>
        <time>2026-06-16T14:09:49.000Z</time>
      </trkpt>
      <trkpt lat="48.72574" lon="1.53087">
        <ele>121.59999847412</ele>
        <time>2026-06-16T14:09:51.000Z</time>
      </trkpt>
      <trkpt lat="48.72516" lon="1.53102">
        <ele>121.19999694824</ele>
        <time>2026-06-16T14:10:00.000Z</time>
      </trkpt>
      <trkpt lat="48.72464" lon="1.53114">
        <ele>121</ele>
        <time>2026-06-16T14:10:08.000Z</time>
      </trkpt>
      <trkpt lat="48.72431" lon="1.53122">
        <ele>121</ele>
        <time>2026-06-16T14:10:13.000Z</time>
      </trkpt>
      <trkpt lat="48.724" lon="1.5313">
        <ele>120.80000305176</ele>
        <time>2026-06-16T14:10:18.000Z</time>
      </trkpt>
      <trkpt lat="48.72348" lon="1.53144">
        <ele>120.59999847412</ele>
        <time>2026-06-16T14:10:26.000Z</time>
      </trkpt>
      <trkpt lat="48.72295" lon="1.5316">
        <ele>120.40000152588</ele>
        <time>2026-06-16T14:10:34.000Z</time>
      </trkpt>
      <trkpt lat="48.72282" lon="1.53165">
        <ele>120.40000152588</ele>
        <time>2026-06-16T14:10:36.000Z</time>
      </trkpt>
      <trkpt lat="48.72251" lon="1.5317">
        <ele>120.40000152588</ele>
        <time>2026-06-16T14:10:41.000Z</time>
      </trkpt>
      <trkpt lat="48.72207" lon="1.53186">
        <ele>120.40000152588</ele>
        <time>2026-06-16T14:10:48.000Z</time>
      </trkpt>
      <trkpt lat="48.72201" lon="1.5319">
        <ele>120.59999847412</ele>
        <time>2026-06-16T14:10:49.000Z</time>
      </trkpt>
      <trkpt lat="48.72185" lon="1.53205">
        <ele>120.59999847412</ele>
        <time>2026-06-16T14:10:52.000Z</time>
      </trkpt>
      <trkpt lat="48.7216" lon="1.53238">
        <ele>120.59999847412</ele>
        <time>2026-06-16T14:10:57.000Z</time>
      </trkpt>
      <trkpt lat="48.72154" lon="1.53242">
        <ele>120.59999847412</ele>
        <time>2026-06-16T14:10:58.000Z</time>
      </trkpt>
      <trkpt lat="48.72147" lon="1.53244">
        <ele>120.59999847412</ele>
        <time>2026-06-16T14:10:59.000Z</time>
      </trkpt>
      <trkpt lat="48.72121" lon="1.53246">
        <ele>120.40000152588</ele>
        <time>2026-06-16T14:11:03.000Z</time>
      </trkpt>
      <trkpt lat="48.72071" lon="1.53249">
        <ele>120</ele>
        <time>2026-06-16T14:11:11.000Z</time>
      </trkpt>
      <trkpt lat="48.72053" lon="1.53249">
        <ele>119.80000305176</ele>
        <time>2026-06-16T14:11:14.000Z</time>
      </trkpt>
      <trkpt lat="48.72028" lon="1.53252">
        <ele>119.80000305176</ele>
        <time>2026-06-16T14:11:18.000Z</time>
      </trkpt>
      <trkpt lat="48.71977" lon="1.53261">
        <ele>119.59999847412</ele>
        <time>2026-06-16T14:11:26.000Z</time>
      </trkpt>
      <trkpt lat="48.7197" lon="1.53261">
        <ele>119.59999847412</ele>
        <time>2026-06-16T14:11:27.000Z</time>
      </trkpt>
      <trkpt lat="48.71918" lon="1.53255">
        <ele>119.19999694824</ele>
        <time>2026-06-16T14:11:35.000Z</time>
      </trkpt>
      <trkpt lat="48.7188" lon="1.53253">
        <ele>118.80000305176</ele>
        <time>2026-06-16T14:11:41.000Z</time>
      </trkpt>
      <trkpt lat="48.71871" lon="1.53255">
        <ele>118.59999847412</ele>
        <time>2026-06-16T14:11:43.000Z</time>
      </trkpt>
      <trkpt lat="48.71856" lon="1.53257">
        <ele>118.40000152588</ele>
        <time>2026-06-16T14:11:47.000Z</time>
      </trkpt>
      <trkpt lat="48.71838" lon="1.53267">
        <ele>118.19999694824</ele>
        <time>2026-06-16T14:11:53.000Z</time>
      </trkpt>
      <trkpt lat="48.71815" lon="1.53289">
        <ele>118.40000152588</ele>
        <time>2026-06-16T14:12:01.000Z</time>
      </trkpt>
      <trkpt lat="48.71785" lon="1.53314">
        <ele>118.19999694824</ele>
        <time>2026-06-16T14:12:10.000Z</time>
      </trkpt>
      <trkpt lat="48.71764" lon="1.5333">
        <ele>118.19999694824</ele>
        <time>2026-06-16T14:12:18.000Z</time>
      </trkpt>
      <trkpt lat="48.7176" lon="1.53334">
        <ele>118</ele>
        <time>2026-06-16T14:12:23.000Z</time>
      </trkpt>
      <trkpt lat="48.71749" lon="1.53344">
        <ele>118</ele>
        <time>2026-06-16T14:12:30.000Z</time>
      </trkpt>
      <trkpt lat="48.7174" lon="1.53352">
        <ele>118</ele>
        <time>2026-06-16T14:12:33.000Z</time>
      </trkpt>
      <trkpt lat="48.71736" lon="1.53356">
        <ele>118</ele>
        <time>2026-06-16T14:12:34.000Z</time>
      </trkpt>
      <trkpt lat="48.71732" lon="1.53359">
        <ele>118</ele>
        <time>2026-06-16T14:12:35.000Z</time>
      </trkpt>
      <trkpt lat="48.7171" lon="1.53377">
        <ele>118.19999694824</ele>
        <time>2026-06-16T14:12:40.000Z</time>
      </trkpt>
      <trkpt lat="48.71676" lon="1.53414">
        <ele>118</ele>
        <time>2026-06-16T14:12:48.000Z</time>
      </trkpt>
      <trkpt lat="48.71659" lon="1.53431">
        <ele>117.80000305176</ele>
        <time>2026-06-16T14:12:52.000Z</time>
      </trkpt>
      <trkpt lat="48.71636" lon="1.53451">
        <ele>117.80000305176</ele>
        <time>2026-06-16T14:12:57.000Z</time>
      </trkpt>
      <trkpt lat="48.716" lon="1.5348">
        <ele>117.40000152588</ele>
        <time>2026-06-16T14:13:04.000Z</time>
      </trkpt>
      <trkpt lat="48.7155" lon="1.53511">
        <ele>117.19999694824</ele>
        <time>2026-06-16T14:13:13.000Z</time>
      </trkpt>
      <trkpt lat="48.71519" lon="1.53528">
        <ele>117.40000152588</ele>
        <time>2026-06-16T14:13:19.000Z</time>
      </trkpt>
      <trkpt lat="48.71507" lon="1.53533">
        <ele>117.59999847412</ele>
        <time>2026-06-16T14:13:22.000Z</time>
      </trkpt>
      <trkpt lat="48.71491" lon="1.53541">
        <ele>117.59999847412</ele>
        <time>2026-06-16T14:13:26.000Z</time>
      </trkpt>
      <trkpt lat="48.7146" lon="1.53555">
        <ele>118</ele>
        <time>2026-06-16T14:13:34.000Z</time>
      </trkpt>
      <trkpt lat="48.7143" lon="1.53564">
        <ele>118.40000152588</ele>
        <time>2026-06-16T14:13:41.000Z</time>
      </trkpt>
      <trkpt lat="48.71397" lon="1.53572">
        <ele>118.40000152588</ele>
        <time>2026-06-16T14:13:49.000Z</time>
      </trkpt>
      <trkpt lat="48.71373" lon="1.5358">
        <ele>118.19999694824</ele>
        <time>2026-06-16T14:13:56.000Z</time>
      </trkpt>
      <trkpt lat="48.71367" lon="1.53578">
        <ele>118</ele>
        <time>2026-06-16T14:13:58.000Z</time>
      </trkpt>
      <trkpt lat="48.71366" lon="1.53575">
        <ele>118</ele>
        <time>2026-06-16T14:13:59.000Z</time>
      </trkpt>
      <trkpt lat="48.71365" lon="1.5357">
        <ele>118</ele>
        <time>2026-06-16T14:14:00.000Z</time>
      </trkpt>
      <trkpt lat="48.71368" lon="1.53556">
        <ele>118</ele>
        <time>2026-06-16T14:14:03.000Z</time>
      </trkpt>
      <trkpt lat="48.71381" lon="1.53524">
        <ele>117.80000305176</ele>
        <time>2026-06-16T14:14:08.000Z</time>
      </trkpt>
      <trkpt lat="48.714" lon="1.53463">
        <ele>117.80000305176</ele>
        <time>2026-06-16T14:14:16.000Z</time>
      </trkpt>
      <trkpt lat="48.71424" lon="1.53399">
        <ele>117.40000152588</ele>
        <time>2026-06-16T14:14:25.000Z</time>
      </trkpt>
      <trkpt lat="48.71451" lon="1.5333">
        <ele>117.19999694824</ele>
        <time>2026-06-16T14:14:34.000Z</time>
      </trkpt>
      <trkpt lat="48.71474" lon="1.53261">
        <ele>117.19999694824</ele>
        <time>2026-06-16T14:14:43.000Z</time>
      </trkpt>
      <trkpt lat="48.71493" lon="1.53187">
        <ele>117</ele>
        <time>2026-06-16T14:14:52.000Z</time>
      </trkpt>
      <trkpt lat="48.71502" lon="1.53122">
        <ele>116.80000305176</ele>
        <time>2026-06-16T14:15:00.000Z</time>
      </trkpt>
      <trkpt lat="48.71502" lon="1.53113">
        <ele>116.80000305176</ele>
        <time>2026-06-16T14:15:01.000Z</time>
      </trkpt>
      <trkpt lat="48.71499" lon="1.53033">
        <ele>117</ele>
        <time>2026-06-16T14:15:10.000Z</time>
      </trkpt>
      <trkpt lat="48.71491" lon="1.52952">
        <ele>117</ele>
        <time>2026-06-16T14:15:19.000Z</time>
      </trkpt>
      <trkpt lat="48.71488" lon="1.52925">
        <ele>116.80000305176</ele>
        <time>2026-06-16T14:15:22.000Z</time>
      </trkpt>
      <trkpt lat="48.71482" lon="1.5284">
        <ele>116.80000305176</ele>
        <time>2026-06-16T14:15:32.000Z</time>
      </trkpt>
      <trkpt lat="48.71481" lon="1.52768">
        <ele>116.80000305176</ele>
        <time>2026-06-16T14:15:40.000Z</time>
      </trkpt>
      <trkpt lat="48.71489" lon="1.5268">
        <ele>117</ele>
        <time>2026-06-16T14:15:50.000Z</time>
      </trkpt>
      <trkpt lat="48.71505" lon="1.52601">
        <ele>117</ele>
        <time>2026-06-16T14:15:59.000Z</time>
      </trkpt>
      <trkpt lat="48.71525" lon="1.52527">
        <ele>116.80000305176</ele>
        <time>2026-06-16T14:16:08.000Z</time>
      </trkpt>
      <trkpt lat="48.71544" lon="1.52451">
        <ele>116.59999847412</ele>
        <time>2026-06-16T14:16:17.000Z</time>
      </trkpt>
      <trkpt lat="48.71549" lon="1.52424">
        <ele>116.40000152588</ele>
        <time>2026-06-16T14:16:20.000Z</time>
      </trkpt>
      <trkpt lat="48.71562" lon="1.52342">
        <ele>116.19999694824</ele>
        <time>2026-06-16T14:16:29.000Z</time>
      </trkpt>
      <trkpt lat="48.71572" lon="1.52259">
        <ele>116</ele>
        <time>2026-06-16T14:16:38.000Z</time>
      </trkpt>
      <trkpt lat="48.71572" lon="1.5225">
        <ele>115.80000305176</ele>
        <time>2026-06-16T14:16:39.000Z</time>
      </trkpt>
      <trkpt lat="48.71574" lon="1.52231">
        <ele>115.80000305176</ele>
        <time>2026-06-16T14:16:41.000Z</time>
      </trkpt>
      <trkpt lat="48.7158" lon="1.52146">
        <ele>115</ele>
        <time>2026-06-16T14:16:50.000Z</time>
      </trkpt>
      <trkpt lat="48.71582" lon="1.52127">
        <ele>115</ele>
        <time>2026-06-16T14:16:52.000Z</time>
      </trkpt>
      <trkpt lat="48.71587" lon="1.52078">
        <ele>114.80000305176</ele>
        <time>2026-06-16T14:16:57.000Z</time>
      </trkpt>
      <trkpt lat="48.7159" lon="1.5206">
        <ele>114.59999847412</ele>
        <time>2026-06-16T14:16:59.000Z</time>
      </trkpt>
      <trkpt lat="48.71592" lon="1.52051">
        <ele>114.59999847412</ele>
        <time>2026-06-16T14:17:00.000Z</time>
      </trkpt>
      <trkpt lat="48.71603" lon="1.52017">
        <ele>114.59999847412</ele>
        <time>2026-06-16T14:17:04.000Z</time>
      </trkpt>
      <trkpt lat="48.7161" lon="1.52003">
        <ele>114.59999847412</ele>
        <time>2026-06-16T14:17:06.000Z</time>
      </trkpt>
      <trkpt lat="48.7164" lon="1.51952">
        <ele>114.59999847412</ele>
        <time>2026-06-16T14:17:14.000Z</time>
      </trkpt>
      <trkpt lat="48.71668" lon="1.51905">
        <ele>115.19999694824</ele>
        <time>2026-06-16T14:17:21.000Z</time>
      </trkpt>
      <trkpt lat="48.71705" lon="1.51845">
        <ele>115.59999847412</ele>
        <time>2026-06-16T14:17:30.000Z</time>
      </trkpt>
      <trkpt lat="48.71709" lon="1.51837">
        <ele>115.59999847412</ele>
        <time>2026-06-16T14:17:31.000Z</time>
      </trkpt>
      <trkpt lat="48.71747" lon="1.51773">
        <ele>115</ele>
        <time>2026-06-16T14:17:40.000Z</time>
      </trkpt>
      <trkpt lat="48.71773" lon="1.51722">
        <ele>114.59999847412</ele>
        <time>2026-06-16T14:17:47.000Z</time>
      </trkpt>
      <trkpt lat="48.71802" lon="1.51654">
        <ele>114</ele>
        <time>2026-06-16T14:17:55.000Z</time>
      </trkpt>
      <trkpt lat="48.71822" lon="1.51611">
        <ele>113.80000305176</ele>
        <time>2026-06-16T14:18:01.000Z</time>
      </trkpt>
      <trkpt lat="48.71842" lon="1.51564">
        <ele>114.40000152588</ele>
        <time>2026-06-16T14:18:08.000Z</time>
      </trkpt>
      <trkpt lat="48.71864" lon="1.51503">
        <ele>115.80000305176</ele>
        <time>2026-06-16T14:18:16.000Z</time>
      </trkpt>
      <trkpt lat="48.71865" lon="1.51494">
        <ele>115.80000305176</ele>
        <time>2026-06-16T14:18:17.000Z</time>
      </trkpt>
      <trkpt lat="48.71868" lon="1.51476">
        <ele>116.19999694824</ele>
        <time>2026-06-16T14:18:19.000Z</time>
      </trkpt>
      <trkpt lat="48.71868" lon="1.51449">
        <ele>116.19999694824</ele>
        <time>2026-06-16T14:18:22.000Z</time>
      </trkpt>
      <trkpt lat="48.71868" lon="1.5144">
        <ele>116.19999694824</ele>
        <time>2026-06-16T14:18:23.000Z</time>
      </trkpt>
      <trkpt lat="48.71866" lon="1.51395">
        <ele>116.19999694824</ele>
        <time>2026-06-16T14:18:28.000Z</time>
      </trkpt>
      <trkpt lat="48.71866" lon="1.5137">
        <ele>116.19999694824</ele>
        <time>2026-06-16T14:18:31.000Z</time>
      </trkpt>
      <trkpt lat="48.71867" lon="1.51353">
        <ele>116</ele>
        <time>2026-06-16T14:18:33.000Z</time>
      </trkpt>
      <trkpt lat="48.71873" lon="1.513">
        <ele>115.59999847412</ele>
        <time>2026-06-16T14:18:38.000Z</time>
      </trkpt>
      <trkpt lat="48.71878" lon="1.51238">
        <ele>114.80000305176</ele>
        <time>2026-06-16T14:18:44.000Z</time>
      </trkpt>
      <trkpt lat="48.7188" lon="1.51213">
        <ele>114.40000152588</ele>
        <time>2026-06-16T14:18:46.000Z</time>
      </trkpt>
      <trkpt lat="48.7188" lon="1.51202">
        <ele>114.19999694824</ele>
        <time>2026-06-16T14:18:47.000Z</time>
      </trkpt>
      <trkpt lat="48.7188" lon="1.51163">
        <ele>113.80000305176</ele>
        <time>2026-06-16T14:18:51.000Z</time>
      </trkpt>
      <trkpt lat="48.71881" lon="1.51145">
        <ele>113.59999847412</ele>
        <time>2026-06-16T14:18:53.000Z</time>
      </trkpt>
      <trkpt lat="48.71881" lon="1.51106">
        <ele>113.59999847412</ele>
        <time>2026-06-16T14:18:57.000Z</time>
      </trkpt>
      <trkpt lat="48.71882" lon="1.51027">
        <ele>114</ele>
        <time>2026-06-16T14:19:05.000Z</time>
      </trkpt>
      <trkpt lat="48.71882" lon="1.50944">
        <ele>114</ele>
        <time>2026-06-16T14:19:14.000Z</time>
      </trkpt>
      <trkpt lat="48.71881" lon="1.50935">
        <ele>114</ele>
        <time>2026-06-16T14:19:15.000Z</time>
      </trkpt>
      <trkpt lat="48.71875" lon="1.50864">
        <ele>114</ele>
        <time>2026-06-16T14:19:23.000Z</time>
      </trkpt>
      <trkpt lat="48.71865" lon="1.50803">
        <ele>114</ele>
        <time>2026-06-16T14:19:30.000Z</time>
      </trkpt>
      <trkpt lat="48.71847" lon="1.50734">
        <ele>113.40000152588</ele>
        <time>2026-06-16T14:19:38.000Z</time>
      </trkpt>
      <trkpt lat="48.71835" lon="1.50684">
        <ele>112.80000305176</ele>
        <time>2026-06-16T14:19:43.000Z</time>
      </trkpt>
      <trkpt lat="48.71832" lon="1.50674">
        <ele>112.59999847412</ele>
        <time>2026-06-16T14:19:44.000Z</time>
      </trkpt>
      <trkpt lat="48.7182" lon="1.50621">
        <ele>111.40000152588</ele>
        <time>2026-06-16T14:19:49.000Z</time>
      </trkpt>
      <trkpt lat="48.71817" lon="1.50611">
        <ele>111.40000152588</ele>
        <time>2026-06-16T14:19:50.000Z</time>
      </trkpt>
      <trkpt lat="48.71808" lon="1.50569">
        <ele>110.40000152588</ele>
        <time>2026-06-16T14:19:54.000Z</time>
      </trkpt>
      <trkpt lat="48.718" lon="1.50518">
        <ele>109.80000305176</ele>
        <time>2026-06-16T14:19:59.000Z</time>
      </trkpt>
      <trkpt lat="48.71792" lon="1.50451">
        <ele>109.59999847412</ele>
        <time>2026-06-16T14:20:06.000Z</time>
      </trkpt>
      <trkpt lat="48.71779" lon="1.50378">
        <ele>109.59999847412</ele>
        <time>2026-06-16T14:20:14.000Z</time>
      </trkpt>
      <trkpt lat="48.71762" lon="1.50311">
        <ele>110.19999694824</ele>
        <time>2026-06-16T14:20:22.000Z</time>
      </trkpt>
      <trkpt lat="48.71748" lon="1.50256">
        <ele>110.80000305176</ele>
        <time>2026-06-16T14:20:29.000Z</time>
      </trkpt>
      <trkpt lat="48.71735" lon="1.502">
        <ele>111.40000152588</ele>
        <time>2026-06-16T14:20:36.000Z</time>
      </trkpt>
      <trkpt lat="48.7173" lon="1.50177">
        <ele>111.80000305176</ele>
        <time>2026-06-16T14:20:39.000Z</time>
      </trkpt>
      <trkpt lat="48.71722" lon="1.50139">
        <ele>112.40000152588</ele>
        <time>2026-06-16T14:20:44.000Z</time>
      </trkpt>
      <trkpt lat="48.71716" lon="1.50116">
        <ele>112.80000305176</ele>
        <time>2026-06-16T14:20:47.000Z</time>
      </trkpt>
      <trkpt lat="48.71696" lon="1.50053">
        <ele>113.19999694824</ele>
        <time>2026-06-16T14:20:55.000Z</time>
      </trkpt>
      <trkpt lat="48.71663" lon="1.49983">
        <ele>113.19999694824</ele>
        <time>2026-06-16T14:21:04.000Z</time>
      </trkpt>
      <trkpt lat="48.71628" lon="1.49925">
        <ele>113.19999694824</ele>
        <time>2026-06-16T14:21:12.000Z</time>
      </trkpt>
      <trkpt lat="48.71592" lon="1.49876">
        <ele>113.19999694824</ele>
        <time>2026-06-16T14:21:20.000Z</time>
      </trkpt>
      <trkpt lat="48.71554" lon="1.49833">
        <ele>113.19999694824</ele>
        <time>2026-06-16T14:21:28.000Z</time>
      </trkpt>
      <trkpt lat="48.71518" lon="1.49794">
        <ele>113.59999847412</ele>
        <time>2026-06-16T14:21:35.000Z</time>
      </trkpt>
      <trkpt lat="48.71515" lon="1.49789">
        <ele>113.59999847412</ele>
        <time>2026-06-16T14:21:36.000Z</time>
      </trkpt>
      <trkpt lat="48.71477" lon="1.49729">
        <ele>113.59999847412</ele>
        <time>2026-06-16T14:21:45.000Z</time>
      </trkpt>
      <trkpt lat="48.71455" lon="1.49671">
        <ele>113.59999847412</ele>
        <time>2026-06-16T14:21:52.000Z</time>
      </trkpt>
      <trkpt lat="48.71434" lon="1.49596">
        <ele>113.40000152588</ele>
        <time>2026-06-16T14:22:01.000Z</time>
      </trkpt>
      <trkpt lat="48.71421" lon="1.49547">
        <ele>113.80000305176</ele>
        <time>2026-06-16T14:22:08.000Z</time>
      </trkpt>
      <trkpt lat="48.71409" lon="1.49482">
        <ele>114.19999694824</ele>
        <time>2026-06-16T14:22:17.000Z</time>
      </trkpt>
      <trkpt lat="48.71409" lon="1.49474">
        <ele>114.19999694824</ele>
        <time>2026-06-16T14:22:18.000Z</time>
      </trkpt>
      <trkpt lat="48.71411" lon="1.49439">
        <ele>114.40000152588</ele>
        <time>2026-06-16T14:22:23.000Z</time>
      </trkpt>
      <trkpt lat="48.71411" lon="1.49419">
        <ele>114.40000152588</ele>
        <time>2026-06-16T14:22:26.000Z</time>
      </trkpt>
      <trkpt lat="48.71408" lon="1.49408">
        <ele>114.40000152588</ele>
        <time>2026-06-16T14:22:28.000Z</time>
      </trkpt>
      <trkpt lat="48.7139" lon="1.49394">
        <ele>114.40000152588</ele>
        <time>2026-06-16T14:22:33.000Z</time>
      </trkpt>
      <trkpt lat="48.71376" lon="1.49382">
        <ele>114.40000152588</ele>
        <time>2026-06-16T14:22:36.000Z</time>
      </trkpt>
      <trkpt lat="48.71366" lon="1.49375">
        <ele>114.40000152588</ele>
        <time>2026-06-16T14:22:38.000Z</time>
      </trkpt>
      <trkpt lat="48.71328" lon="1.49351">
        <ele>114.40000152588</ele>
        <time>2026-06-16T14:22:45.000Z</time>
      </trkpt>
      <trkpt lat="48.71283" lon="1.49328">
        <ele>114.40000152588</ele>
        <time>2026-06-16T14:22:54.000Z</time>
      </trkpt>
      <trkpt lat="48.71275" lon="1.49321">
        <ele>114.40000152588</ele>
        <time>2026-06-16T14:22:56.000Z</time>
      </trkpt>
      <trkpt lat="48.71271" lon="1.49307">
        <ele>114.19999694824</ele>
        <time>2026-06-16T14:22:58.000Z</time>
      </trkpt>
      <trkpt lat="48.71271" lon="1.49284">
        <ele>114</ele>
        <time>2026-06-16T14:23:01.000Z</time>
      </trkpt>
      <trkpt lat="48.71271" lon="1.49262">
        <ele>113.80000305176</ele>
        <time>2026-06-16T14:23:04.000Z</time>
      </trkpt>
      <trkpt lat="48.71269" lon="1.49201">
        <ele>113.80000305176</ele>
        <time>2026-06-16T14:23:11.000Z</time>
      </trkpt>
      <trkpt lat="48.7127" lon="1.49192">
        <ele>113.80000305176</ele>
        <time>2026-06-16T14:23:12.000Z</time>
      </trkpt>
      <trkpt lat="48.71271" lon="1.49189">
        <ele>113.80000305176</ele>
        <time>2026-06-16T14:23:13.000Z</time>
      </trkpt>
      <trkpt lat="48.71279" lon="1.49179">
        <ele>113.80000305176</ele>
        <time>2026-06-16T14:23:15.000Z</time>
      </trkpt>
      <trkpt lat="48.71317" lon="1.49172">
        <ele>114</ele>
        <time>2026-06-16T14:23:21.000Z</time>
      </trkpt>
      <trkpt lat="48.71323" lon="1.49173">
        <ele>114</ele>
        <time>2026-06-16T14:23:22.000Z</time>
      </trkpt>
      <trkpt lat="48.71329" lon="1.49174">
        <ele>114.19999694824</ele>
        <time>2026-06-16T14:23:23.000Z</time>
      </trkpt>
      <trkpt lat="48.71353" lon="1.49173">
        <ele>114.40000152588</ele>
        <time>2026-06-16T14:23:27.000Z</time>
      </trkpt>
      <trkpt lat="48.71391" lon="1.49179">
        <ele>114.59999847412</ele>
        <time>2026-06-16T14:23:33.000Z</time>
      </trkpt>
      <trkpt lat="48.71398" lon="1.49181">
        <ele>114.59999847412</ele>
        <time>2026-06-16T14:23:34.000Z</time>
      </trkpt>
      <trkpt lat="48.7144" lon="1.49194">
        <ele>115</ele>
        <time>2026-06-16T14:23:41.000Z</time>
      </trkpt>
      <trkpt lat="48.71453" lon="1.49193">
        <ele>114.80000305176</ele>
        <time>2026-06-16T14:23:43.000Z</time>
      </trkpt>
      <trkpt lat="48.71464" lon="1.49187">
        <ele>114.80000305176</ele>
        <time>2026-06-16T14:23:45.000Z</time>
      </trkpt>
      <trkpt lat="48.71481" lon="1.49171">
        <ele>114.40000152588</ele>
        <time>2026-06-16T14:23:48.000Z</time>
      </trkpt>
      <trkpt lat="48.71486" lon="1.49163">
        <ele>114.40000152588</ele>
        <time>2026-06-16T14:23:49.000Z</time>
      </trkpt>
      <trkpt lat="48.71503" lon="1.49132">
        <ele>113.40000152588</ele>
        <time>2026-06-16T14:23:53.000Z</time>
      </trkpt>
      <trkpt lat="48.7151" lon="1.49116">
        <ele>112.59999847412</ele>
        <time>2026-06-16T14:23:55.000Z</time>
      </trkpt>
      <trkpt lat="48.71514" lon="1.49107">
        <ele>112.59999847412</ele>
        <time>2026-06-16T14:23:56.000Z</time>
      </trkpt>
      <trkpt lat="48.71517" lon="1.49097">
        <ele>112.19999694824</ele>
        <time>2026-06-16T14:23:57.000Z</time>
      </trkpt>
      <trkpt lat="48.71525" lon="1.49075">
        <ele>111.59999847412</ele>
        <time>2026-06-16T14:23:59.000Z</time>
      </trkpt>
      <trkpt lat="48.71532" lon="1.49049">
        <ele>110.80000305176</ele>
        <time>2026-06-16T14:24:01.000Z</time>
      </trkpt>
      <trkpt lat="48.71535" lon="1.4902">
        <ele>110</ele>
        <time>2026-06-16T14:24:03.000Z</time>
      </trkpt>
      <trkpt lat="48.71534" lon="1.49004">
        <ele>109</ele>
        <time>2026-06-16T14:24:04.000Z</time>
      </trkpt>
      <trkpt lat="48.71533" lon="1.48989">
        <ele>108.59999847412</ele>
        <time>2026-06-16T14:24:05.000Z</time>
      </trkpt>
      <trkpt lat="48.71529" lon="1.48974">
        <ele>107.80000305176</ele>
        <time>2026-06-16T14:24:06.000Z</time>
      </trkpt>
      <trkpt lat="48.71525" lon="1.48959">
        <ele>107.19999694824</ele>
        <time>2026-06-16T14:24:07.000Z</time>
      </trkpt>
      <trkpt lat="48.71521" lon="1.48943">
        <ele>106.59999847412</ele>
        <time>2026-06-16T14:24:08.000Z</time>
      </trkpt>
      <trkpt lat="48.71515" lon="1.48915">
        <ele>105.19999694824</ele>
        <time>2026-06-16T14:24:10.000Z</time>
      </trkpt>
      <trkpt lat="48.71513" lon="1.48902">
        <ele>104.19999694824</ele>
        <time>2026-06-16T14:24:11.000Z</time>
      </trkpt>
      <trkpt lat="48.71513" lon="1.48887">
        <ele>103.80000305176</ele>
        <time>2026-06-16T14:24:12.000Z</time>
      </trkpt>
      <trkpt lat="48.71515" lon="1.48871">
        <ele>102.40000152588</ele>
        <time>2026-06-16T14:24:14.000Z</time>
      </trkpt>
      <trkpt lat="48.71519" lon="1.48863">
        <ele>101.80000305176</ele>
        <time>2026-06-16T14:24:15.000Z</time>
      </trkpt>
      <trkpt lat="48.71527" lon="1.48855">
        <ele>101.40000152588</ele>
        <time>2026-06-16T14:24:16.000Z</time>
      </trkpt>
      <trkpt lat="48.71557" lon="1.4883">
        <ele>100.19999694824</ele>
        <time>2026-06-16T14:24:20.000Z</time>
      </trkpt>
      <trkpt lat="48.71592" lon="1.48786">
        <ele>99.800003051758</ele>
        <time>2026-06-16T14:24:26.000Z</time>
      </trkpt>
      <trkpt lat="48.716" lon="1.48771">
        <ele>99.800003051758</ele>
        <time>2026-06-16T14:24:28.000Z</time>
      </trkpt>
      <trkpt lat="48.71609" lon="1.4875">
        <ele>101</ele>
        <time>2026-06-16T14:24:31.000Z</time>
      </trkpt>
      <trkpt lat="48.71612" lon="1.48743">
        <ele>101.80000305176</ele>
        <time>2026-06-16T14:24:32.000Z</time>
      </trkpt>
      <trkpt lat="48.71623" lon="1.48718">
        <ele>103.19999694824</ele>
        <time>2026-06-16T14:24:36.000Z</time>
      </trkpt>
      <trkpt lat="48.71627" lon="1.48713">
        <ele>104.40000152588</ele>
        <time>2026-06-16T14:24:37.000Z</time>
      </trkpt>
      <trkpt lat="48.71635" lon="1.48703">
        <ele>105.40000152588</ele>
        <time>2026-06-16T14:24:39.000Z</time>
      </trkpt>
      <trkpt lat="48.71651" lon="1.4868">
        <ele>107</ele>
        <time>2026-06-16T14:24:43.000Z</time>
      </trkpt>
      <trkpt lat="48.71664" lon="1.48666">
        <ele>108</ele>
        <time>2026-06-16T14:24:46.000Z</time>
      </trkpt>
      <trkpt lat="48.71679" lon="1.48652">
        <ele>109.19999694824</ele>
        <time>2026-06-16T14:24:50.000Z</time>
      </trkpt>
      <trkpt lat="48.71683" lon="1.48649">
        <ele>109.40000152588</ele>
        <time>2026-06-16T14:24:51.000Z</time>
      </trkpt>
      <trkpt lat="48.71699" lon="1.4864">
        <ele>110.19999694824</ele>
        <time>2026-06-16T14:24:55.000Z</time>
      </trkpt>
      <trkpt lat="48.71703" lon="1.48639">
        <ele>110.19999694824</ele>
        <time>2026-06-16T14:24:56.000Z</time>
      </trkpt>
      <trkpt lat="48.71707" lon="1.48637">
        <ele>110.40000152588</ele>
        <time>2026-06-16T14:24:57.000Z</time>
      </trkpt>
      <trkpt lat="48.71731" lon="1.48625">
        <ele>111.19999694824</ele>
        <time>2026-06-16T14:25:03.000Z</time>
      </trkpt>
      <trkpt lat="48.71738" lon="1.48621">
        <ele>111.40000152588</ele>
        <time>2026-06-16T14:25:05.000Z</time>
      </trkpt>
      <trkpt lat="48.71778" lon="1.48591">
        <ele>112</ele>
        <time>2026-06-16T14:25:15.000Z</time>
      </trkpt>
      <trkpt lat="48.7179" lon="1.48581">
        <ele>112.19999694824</ele>
        <time>2026-06-16T14:25:18.000Z</time>
      </trkpt>
      <trkpt lat="48.71822" lon="1.48549">
        <ele>113.19999694824</ele>
        <time>2026-06-16T14:25:26.000Z</time>
      </trkpt>
      <trkpt lat="48.71829" lon="1.48539">
        <ele>113.40000152588</ele>
        <time>2026-06-16T14:25:28.000Z</time>
      </trkpt>
      <trkpt lat="48.71849" lon="1.48508">
        <ele>113.59999847412</ele>
        <time>2026-06-16T14:25:34.000Z</time>
      </trkpt>
      <trkpt lat="48.71861" lon="1.48487">
        <ele>114.40000152588</ele>
        <time>2026-06-16T14:25:38.000Z</time>
      </trkpt>
      <trkpt lat="48.71875" lon="1.48462">
        <ele>115</ele>
        <time>2026-06-16T14:25:42.000Z</time>
      </trkpt>
      <trkpt lat="48.71883" lon="1.48448">
        <ele>115</ele>
        <time>2026-06-16T14:25:44.000Z</time>
      </trkpt>
      <trkpt lat="48.71895" lon="1.48428">
        <ele>115</ele>
        <time>2026-06-16T14:25:48.000Z</time>
      </trkpt>
      <trkpt lat="48.71922" lon="1.48372">
        <ele>114.59999847412</ele>
        <time>2026-06-16T14:25:57.000Z</time>
      </trkpt>
      <trkpt lat="48.71935" lon="1.4834">
        <ele>114.19999694824</ele>
        <time>2026-06-16T14:26:03.000Z</time>
      </trkpt>
      <trkpt lat="48.71948" lon="1.4832">
        <ele>114.19999694824</ele>
        <time>2026-06-16T14:26:09.000Z</time>
      </trkpt>
      <trkpt lat="48.71952" lon="1.48295">
        <ele>114.19999694824</ele>
        <time>2026-06-16T14:26:14.000Z</time>
      </trkpt>
      <trkpt lat="48.71955" lon="1.48257">
        <ele>114.40000152588</ele>
        <time>2026-06-16T14:26:20.000Z</time>
      </trkpt>
      <trkpt lat="48.71956" lon="1.48242">
        <ele>114.40000152588</ele>
        <time>2026-06-16T14:26:22.000Z</time>
      </trkpt>
      <trkpt lat="48.71961" lon="1.48186">
        <ele>114.40000152588</ele>
        <time>2026-06-16T14:26:29.000Z</time>
      </trkpt>
      <trkpt lat="48.71969" lon="1.48115">
        <ele>114.59999847412</ele>
        <time>2026-06-16T14:26:38.000Z</time>
      </trkpt>
      <trkpt lat="48.71972" lon="1.48047">
        <ele>114.80000305176</ele>
        <time>2026-06-16T14:26:46.000Z</time>
      </trkpt>
      <trkpt lat="48.7197" lon="1.47964">
        <ele>115.19999694824</ele>
        <time>2026-06-16T14:26:56.000Z</time>
      </trkpt>
      <trkpt lat="48.71969" lon="1.47949">
        <ele>115.19999694824</ele>
        <time>2026-06-16T14:26:58.000Z</time>
      </trkpt>
      <trkpt lat="48.71965" lon="1.47935">
        <ele>115.19999694824</ele>
        <time>2026-06-16T14:27:00.000Z</time>
      </trkpt>
      <trkpt lat="48.71962" lon="1.47931">
        <ele>115.19999694824</ele>
        <time>2026-06-16T14:27:01.000Z</time>
      </trkpt>
      <trkpt lat="48.71958" lon="1.47929">
        <ele>115.19999694824</ele>
        <time>2026-06-16T14:27:02.000Z</time>
      </trkpt>
      <trkpt lat="48.71949" lon="1.47922">
        <ele>115.19999694824</ele>
        <time>2026-06-16T14:27:04.000Z</time>
      </trkpt>
      <trkpt lat="48.71909" lon="1.47879">
        <ele>115.19999694824</ele>
        <time>2026-06-16T14:27:12.000Z</time>
      </trkpt>
      <trkpt lat="48.71871" lon="1.47837">
        <ele>114.80000305176</ele>
        <time>2026-06-16T14:27:20.000Z</time>
      </trkpt>
      <trkpt lat="48.71833" lon="1.47807">
        <ele>114.80000305176</ele>
        <time>2026-06-16T14:27:27.000Z</time>
      </trkpt>
      <trkpt lat="48.71802" lon="1.47803">
        <ele>114.80000305176</ele>
        <time>2026-06-16T14:27:32.000Z</time>
      </trkpt>
      <trkpt lat="48.71791" lon="1.4781">
        <ele>114.59999847412</ele>
        <time>2026-06-16T14:27:34.000Z</time>
      </trkpt>
      <trkpt lat="48.71786" lon="1.47815">
        <ele>114.59999847412</ele>
        <time>2026-06-16T14:27:35.000Z</time>
      </trkpt>
      <trkpt lat="48.71781" lon="1.47821">
        <ele>114.59999847412</ele>
        <time>2026-06-16T14:27:36.000Z</time>
      </trkpt>
      <trkpt lat="48.71773" lon="1.47836">
        <ele>114.40000152588</ele>
        <time>2026-06-16T14:27:38.000Z</time>
      </trkpt>
      <trkpt lat="48.71769" lon="1.47844">
        <ele>114.19999694824</ele>
        <time>2026-06-16T14:27:39.000Z</time>
      </trkpt>
      <trkpt lat="48.71757" lon="1.47868">
        <ele>114</ele>
        <time>2026-06-16T14:27:42.000Z</time>
      </trkpt>
      <trkpt lat="48.71747" lon="1.4788">
        <ele>114</ele>
        <time>2026-06-16T14:27:44.000Z</time>
      </trkpt>
      <trkpt lat="48.71742" lon="1.47885">
        <ele>113.80000305176</ele>
        <time>2026-06-16T14:27:45.000Z</time>
      </trkpt>
      <trkpt lat="48.71723" lon="1.47896">
        <ele>113.59999847412</ele>
        <time>2026-06-16T14:27:48.000Z</time>
      </trkpt>
      <trkpt lat="48.71689" lon="1.47908">
        <ele>113.19999694824</ele>
        <time>2026-06-16T14:27:53.000Z</time>
      </trkpt>
      <trkpt lat="48.71674" lon="1.4791">
        <ele>112.80000305176</ele>
        <time>2026-06-16T14:27:55.000Z</time>
      </trkpt>
      <trkpt lat="48.7166" lon="1.47911">
        <ele>112.40000152588</ele>
        <time>2026-06-16T14:27:57.000Z</time>
      </trkpt>
      <trkpt lat="48.71637" lon="1.47907">
        <ele>112.19999694824</ele>
        <time>2026-06-16T14:28:00.000Z</time>
      </trkpt>
      <trkpt lat="48.71629" lon="1.47905">
        <ele>112.19999694824</ele>
        <time>2026-06-16T14:28:01.000Z</time>
      </trkpt>
      <trkpt lat="48.71578" lon="1.47886">
        <ele>111.19999694824</ele>
        <time>2026-06-16T14:28:08.000Z</time>
      </trkpt>
      <trkpt lat="48.71532" lon="1.47873">
        <ele>111.19999694824</ele>
        <time>2026-06-16T14:28:14.000Z</time>
      </trkpt>
      <trkpt lat="48.71491" lon="1.47864">
        <ele>110</ele>
        <time>2026-06-16T14:28:19.000Z</time>
      </trkpt>
      <trkpt lat="48.71467" lon="1.47862">
        <ele>109.80000305176</ele>
        <time>2026-06-16T14:28:22.000Z</time>
      </trkpt>
      <trkpt lat="48.71426" lon="1.47856">
        <ele>110.59999847412</ele>
        <time>2026-06-16T14:28:28.000Z</time>
      </trkpt>
      <trkpt lat="48.71415" lon="1.47853">
        <ele>111.19999694824</ele>
        <time>2026-06-16T14:28:30.000Z</time>
      </trkpt>
      <trkpt lat="48.71403" lon="1.47847">
        <ele>111.40000152588</ele>
        <time>2026-06-16T14:28:32.000Z</time>
      </trkpt>
      <trkpt lat="48.71393" lon="1.47836">
        <ele>111.59999847412</ele>
        <time>2026-06-16T14:28:34.000Z</time>
      </trkpt>
      <trkpt lat="48.71384" lon="1.47821">
        <ele>111.80000305176</ele>
        <time>2026-06-16T14:28:36.000Z</time>
      </trkpt>
      <trkpt lat="48.71349" lon="1.47757">
        <ele>112.19999694824</ele>
        <time>2026-06-16T14:28:44.000Z</time>
      </trkpt>
      <trkpt lat="48.71339" lon="1.47743">
        <ele>112.19999694824</ele>
        <time>2026-06-16T14:28:46.000Z</time>
      </trkpt>
      <trkpt lat="48.71306" lon="1.47692">
        <ele>112.40000152588</ele>
        <time>2026-06-16T14:28:53.000Z</time>
      </trkpt>
      <trkpt lat="48.7127" lon="1.47629">
        <ele>112.40000152588</ele>
        <time>2026-06-16T14:29:01.000Z</time>
      </trkpt>
      <trkpt lat="48.71262" lon="1.47614">
        <ele>112.40000152588</ele>
        <time>2026-06-16T14:29:03.000Z</time>
      </trkpt>
      <trkpt lat="48.71222" lon="1.47548">
        <ele>112.40000152588</ele>
        <time>2026-06-16T14:29:12.000Z</time>
      </trkpt>
      <trkpt lat="48.71179" lon="1.47492">
        <ele>112.19999694824</ele>
        <time>2026-06-16T14:29:21.000Z</time>
      </trkpt>
      <trkpt lat="48.71142" lon="1.47459">
        <ele>112.40000152588</ele>
        <time>2026-06-16T14:29:28.000Z</time>
      </trkpt>
      <trkpt lat="48.71136" lon="1.47454">
        <ele>112.40000152588</ele>
        <time>2026-06-16T14:29:29.000Z</time>
      </trkpt>
      <trkpt lat="48.7111" lon="1.47432">
        <ele>112.59999847412</ele>
        <time>2026-06-16T14:29:34.000Z</time>
      </trkpt>
      <trkpt lat="48.71083" lon="1.47408">
        <ele>112.59999847412</ele>
        <time>2026-06-16T14:29:40.000Z</time>
      </trkpt>
      <trkpt lat="48.71075" lon="1.47397">
        <ele>112.80000305176</ele>
        <time>2026-06-16T14:29:42.000Z</time>
      </trkpt>
      <trkpt lat="48.71073" lon="1.47382">
        <ele>112.80000305176</ele>
        <time>2026-06-16T14:29:44.000Z</time>
      </trkpt>
      <trkpt lat="48.71084" lon="1.47349">
        <ele>113</ele>
        <time>2026-06-16T14:29:48.000Z</time>
      </trkpt>
      <trkpt lat="48.71096" lon="1.47313">
        <ele>113.19999694824</ele>
        <time>2026-06-16T14:29:53.000Z</time>
      </trkpt>
      <trkpt lat="48.71098" lon="1.47305">
        <ele>113.19999694824</ele>
        <time>2026-06-16T14:29:54.000Z</time>
      </trkpt>
      <trkpt lat="48.71099" lon="1.47298">
        <ele>113.40000152588</ele>
        <time>2026-06-16T14:29:55.000Z</time>
      </trkpt>
      <trkpt lat="48.71097" lon="1.47274">
        <ele>113.80000305176</ele>
        <time>2026-06-16T14:29:58.000Z</time>
      </trkpt>
      <trkpt lat="48.71094" lon="1.47258">
        <ele>114.19999694824</ele>
        <time>2026-06-16T14:30:00.000Z</time>
      </trkpt>
      <trkpt lat="48.71089" lon="1.47243">
        <ele>114.40000152588</ele>
        <time>2026-06-16T14:30:02.000Z</time>
      </trkpt>
      <trkpt lat="48.71086" lon="1.47236">
        <ele>114.40000152588</ele>
        <time>2026-06-16T14:30:03.000Z</time>
      </trkpt>
      <trkpt lat="48.71083" lon="1.47229">
        <ele>114.40000152588</ele>
        <time>2026-06-16T14:30:04.000Z</time>
      </trkpt>
      <trkpt lat="48.71075" lon="1.47217">
        <ele>114.59999847412</ele>
        <time>2026-06-16T14:30:06.000Z</time>
      </trkpt>
      <trkpt lat="48.71067" lon="1.47207">
        <ele>114.59999847412</ele>
        <time>2026-06-16T14:30:08.000Z</time>
      </trkpt>
      <trkpt lat="48.71039" lon="1.47181">
        <ele>115.40000152588</ele>
        <time>2026-06-16T14:30:14.000Z</time>
      </trkpt>
      <trkpt lat="48.71034" lon="1.47176">
        <ele>115.40000152588</ele>
        <time>2026-06-16T14:30:15.000Z</time>
      </trkpt>
      <trkpt lat="48.70992" lon="1.47133">
        <ele>115.59999847412</ele>
        <time>2026-06-16T14:30:24.000Z</time>
      </trkpt>
      <trkpt lat="48.70962" lon="1.471">
        <ele>115.80000305176</ele>
        <time>2026-06-16T14:30:31.000Z</time>
      </trkpt>
      <trkpt lat="48.70943" lon="1.47067">
        <ele>116</ele>
        <time>2026-06-16T14:30:37.000Z</time>
      </trkpt>
      <trkpt lat="48.70923" lon="1.47025">
        <ele>116</ele>
        <time>2026-06-16T14:30:45.000Z</time>
      </trkpt>
      <trkpt lat="48.70913" lon="1.47006">
        <ele>115.80000305176</ele>
        <time>2026-06-16T14:30:48.000Z</time>
      </trkpt>
      <trkpt lat="48.70903" lon="1.46988">
        <ele>115.80000305176</ele>
        <time>2026-06-16T14:30:51.000Z</time>
      </trkpt>
      <trkpt lat="48.70867" lon="1.46916">
        <ele>115.59999847412</ele>
        <time>2026-06-16T14:31:02.000Z</time>
      </trkpt>
      <trkpt lat="48.70851" lon="1.46884">
        <ele>115.19999694824</ele>
        <time>2026-06-16T14:31:06.000Z</time>
      </trkpt>
      <trkpt lat="48.70847" lon="1.46875">
        <ele>115</ele>
        <time>2026-06-16T14:31:07.000Z</time>
      </trkpt>
      <trkpt lat="48.70835" lon="1.4685">
        <ele>114.19999694824</ele>
        <time>2026-06-16T14:31:10.000Z</time>
      </trkpt>
      <trkpt lat="48.70819" lon="1.46819">
        <ele>113.19999694824</ele>
        <time>2026-06-16T14:31:14.000Z</time>
      </trkpt>
      <trkpt lat="48.70815" lon="1.46811">
        <ele>113</ele>
        <time>2026-06-16T14:31:15.000Z</time>
      </trkpt>
      <trkpt lat="48.70799" lon="1.46777">
        <ele>113</ele>
        <time>2026-06-16T14:31:20.000Z</time>
      </trkpt>
      <trkpt lat="48.70775" lon="1.46723">
        <ele>114</ele>
        <time>2026-06-16T14:31:28.000Z</time>
      </trkpt>
      <trkpt lat="48.70771" lon="1.46715">
        <ele>114.19999694824</ele>
        <time>2026-06-16T14:31:29.000Z</time>
      </trkpt>
      <trkpt lat="48.70752" lon="1.46681">
        <ele>114.40000152588</ele>
        <time>2026-06-16T14:31:34.000Z</time>
      </trkpt>
      <trkpt lat="48.70736" lon="1.46653">
        <ele>114.59999847412</ele>
        <time>2026-06-16T14:31:38.000Z</time>
      </trkpt>
      <trkpt lat="48.70726" lon="1.46632">
        <ele>114.80000305176</ele>
        <time>2026-06-16T14:31:41.000Z</time>
      </trkpt>
      <trkpt lat="48.7071" lon="1.46601">
        <ele>115</ele>
        <time>2026-06-16T14:31:46.000Z</time>
      </trkpt>
      <trkpt lat="48.70707" lon="1.46594">
        <ele>115</ele>
        <time>2026-06-16T14:31:47.000Z</time>
      </trkpt>
      <trkpt lat="48.70702" lon="1.46581">
        <ele>115.19999694824</ele>
        <time>2026-06-16T14:31:49.000Z</time>
      </trkpt>
      <trkpt lat="48.70686" lon="1.46538">
        <ele>115.59999847412</ele>
        <time>2026-06-16T14:31:55.000Z</time>
      </trkpt>
      <trkpt lat="48.70677" lon="1.46507">
        <ele>115.80000305176</ele>
        <time>2026-06-16T14:31:59.000Z</time>
      </trkpt>
      <trkpt lat="48.70674" lon="1.46491">
        <ele>116.19999694824</ele>
        <time>2026-06-16T14:32:01.000Z</time>
      </trkpt>
      <trkpt lat="48.70672" lon="1.46483">
        <ele>116.19999694824</ele>
        <time>2026-06-16T14:32:02.000Z</time>
      </trkpt>
      <trkpt lat="48.70662" lon="1.46442">
        <ele>116.40000152588</ele>
        <time>2026-06-16T14:32:07.000Z</time>
      </trkpt>
      <trkpt lat="48.7066" lon="1.46434">
        <ele>116.40000152588</ele>
        <time>2026-06-16T14:32:08.000Z</time>
      </trkpt>
      <trkpt lat="48.70653" lon="1.46392">
        <ele>116.80000305176</ele>
        <time>2026-06-16T14:32:13.000Z</time>
      </trkpt>
      <trkpt lat="48.7065" lon="1.46375">
        <ele>117</ele>
        <time>2026-06-16T14:32:15.000Z</time>
      </trkpt>
      <trkpt lat="48.70646" lon="1.46349">
        <ele>117.40000152588</ele>
        <time>2026-06-16T14:32:18.000Z</time>
      </trkpt>
      <trkpt lat="48.70641" lon="1.46323">
        <ele>117.59999847412</ele>
        <time>2026-06-16T14:32:21.000Z</time>
      </trkpt>
      <trkpt lat="48.70633" lon="1.46272">
        <ele>118.19999694824</ele>
        <time>2026-06-16T14:32:27.000Z</time>
      </trkpt>
      <trkpt lat="48.70616" lon="1.46228">
        <ele>118.19999694824</ele>
        <time>2026-06-16T14:32:33.000Z</time>
      </trkpt>
      <trkpt lat="48.70593" lon="1.46175">
        <ele>118</ele>
        <time>2026-06-16T14:32:40.000Z</time>
      </trkpt>
      <trkpt lat="48.70568" lon="1.46113">
        <ele>117.80000305176</ele>
        <time>2026-06-16T14:32:48.000Z</time>
      </trkpt>
      <trkpt lat="48.70548" lon="1.4607">
        <ele>117.80000305176</ele>
        <time>2026-06-16T14:32:54.000Z</time>
      </trkpt>
      <trkpt lat="48.70519" lon="1.46017">
        <ele>117.80000305176</ele>
        <time>2026-06-16T14:33:02.000Z</time>
      </trkpt>
      <trkpt lat="48.70512" lon="1.46004">
        <ele>117.80000305176</ele>
        <time>2026-06-16T14:33:04.000Z</time>
      </trkpt>
      <trkpt lat="48.70495" lon="1.4597">
        <ele>117.80000305176</ele>
        <time>2026-06-16T14:33:09.000Z</time>
      </trkpt>
      <trkpt lat="48.70472" lon="1.45919">
        <ele>117.40000152588</ele>
        <time>2026-06-16T14:33:16.000Z</time>
      </trkpt>
      <trkpt lat="48.70439" lon="1.45846">
        <ele>117</ele>
        <time>2026-06-16T14:33:25.000Z</time>
      </trkpt>
      <trkpt lat="48.70428" lon="1.45815">
        <ele>117</ele>
        <time>2026-06-16T14:33:29.000Z</time>
      </trkpt>
      <trkpt lat="48.70425" lon="1.45807">
        <ele>117</ele>
        <time>2026-06-16T14:33:30.000Z</time>
      </trkpt>
      <trkpt lat="48.70413" lon="1.45766">
        <ele>117.19999694824</ele>
        <time>2026-06-16T14:33:35.000Z</time>
      </trkpt>
      <trkpt lat="48.70411" lon="1.45758">
        <ele>117.19999694824</ele>
        <time>2026-06-16T14:33:36.000Z</time>
      </trkpt>
      <trkpt lat="48.70409" lon="1.45752">
        <ele>117.40000152588</ele>
        <time>2026-06-16T14:33:37.000Z</time>
      </trkpt>
      <trkpt lat="48.70401" lon="1.45729">
        <ele>117.40000152588</ele>
        <time>2026-06-16T14:33:40.000Z</time>
      </trkpt>
      <trkpt lat="48.70396" lon="1.4571">
        <ele>117.19999694824</ele>
        <time>2026-06-16T14:33:42.000Z</time>
      </trkpt>
      <trkpt lat="48.70394" lon="1.45687">
        <ele>117.40000152588</ele>
        <time>2026-06-16T14:33:44.000Z</time>
      </trkpt>
      <trkpt lat="48.70394" lon="1.45621">
        <ele>117.40000152588</ele>
        <time>2026-06-16T14:33:50.000Z</time>
      </trkpt>
      <trkpt lat="48.70398" lon="1.45568">
        <ele>117.40000152588</ele>
        <time>2026-06-16T14:33:55.000Z</time>
      </trkpt>
      <trkpt lat="48.704" lon="1.45507">
        <ele>117.59999847412</ele>
        <time>2026-06-16T14:34:01.000Z</time>
      </trkpt>
      <trkpt lat="48.704" lon="1.45498">
        <ele>117.59999847412</ele>
        <time>2026-06-16T14:34:02.000Z</time>
      </trkpt>
      <trkpt lat="48.704" lon="1.45478">
        <ele>117.59999847412</ele>
        <time>2026-06-16T14:34:04.000Z</time>
      </trkpt>
      <trkpt lat="48.704" lon="1.45469">
        <ele>117.59999847412</ele>
        <time>2026-06-16T14:34:05.000Z</time>
      </trkpt>
      <trkpt lat="48.70399" lon="1.45436">
        <ele>117.59999847412</ele>
        <time>2026-06-16T14:34:09.000Z</time>
      </trkpt>
      <trkpt lat="48.70397" lon="1.45421">
        <ele>117.59999847412</ele>
        <time>2026-06-16T14:34:11.000Z</time>
      </trkpt>
      <trkpt lat="48.70396" lon="1.45406">
        <ele>117.59999847412</ele>
        <time>2026-06-16T14:34:13.000Z</time>
      </trkpt>
      <trkpt lat="48.70394" lon="1.45393">
        <ele>117.40000152588</ele>
        <time>2026-06-16T14:34:15.000Z</time>
      </trkpt>
      <trkpt lat="48.7039" lon="1.4536">
        <ele>116.80000305176</ele>
        <time>2026-06-16T14:34:20.000Z</time>
      </trkpt>
      <trkpt lat="48.70383" lon="1.45322">
        <ele>116.40000152588</ele>
        <time>2026-06-16T14:34:25.000Z</time>
      </trkpt>
      <trkpt lat="48.70382" lon="1.45305">
        <ele>116.19999694824</ele>
        <time>2026-06-16T14:34:27.000Z</time>
      </trkpt>
      <trkpt lat="48.70381" lon="1.45279">
        <ele>115.80000305176</ele>
        <time>2026-06-16T14:34:30.000Z</time>
      </trkpt>
      <trkpt lat="48.70382" lon="1.45268">
        <ele>115.40000152588</ele>
        <time>2026-06-16T14:34:31.000Z</time>
      </trkpt>
      <trkpt lat="48.70382" lon="1.45248">
        <ele>115.19999694824</ele>
        <time>2026-06-16T14:34:33.000Z</time>
      </trkpt>
      <trkpt lat="48.70382" lon="1.45226">
        <ele>114.80000305176</ele>
        <time>2026-06-16T14:34:35.000Z</time>
      </trkpt>
      <trkpt lat="48.70383" lon="1.45214">
        <ele>114.40000152588</ele>
        <time>2026-06-16T14:34:36.000Z</time>
      </trkpt>
      <trkpt lat="48.70384" lon="1.45189">
        <ele>114</ele>
        <time>2026-06-16T14:34:38.000Z</time>
      </trkpt>
      <trkpt lat="48.70386" lon="1.45166">
        <ele>113.59999847412</ele>
        <time>2026-06-16T14:34:40.000Z</time>
      </trkpt>
      <trkpt lat="48.70389" lon="1.45153">
        <ele>113</ele>
        <time>2026-06-16T14:34:41.000Z</time>
      </trkpt>
      <trkpt lat="48.70396" lon="1.45113">
        <ele>112.19999694824</ele>
        <time>2026-06-16T14:34:44.000Z</time>
      </trkpt>
      <trkpt lat="48.70396" lon="1.451">
        <ele>111.59999847412</ele>
        <time>2026-06-16T14:34:45.000Z</time>
      </trkpt>
      <trkpt lat="48.70397" lon="1.45063">
        <ele>110.40000152588</ele>
        <time>2026-06-16T14:34:48.000Z</time>
      </trkpt>
      <trkpt lat="48.70399" lon="1.45037">
        <ele>109.40000152588</ele>
        <time>2026-06-16T14:34:50.000Z</time>
      </trkpt>
      <trkpt lat="48.70399" lon="1.45025">
        <ele>109</ele>
        <time>2026-06-16T14:34:51.000Z</time>
      </trkpt>
      <trkpt lat="48.70401" lon="1.44999">
        <ele>108.19999694824</ele>
        <time>2026-06-16T14:34:53.000Z</time>
      </trkpt>
      <trkpt lat="48.704" lon="1.44985">
        <ele>107.40000152588</ele>
        <time>2026-06-16T14:34:54.000Z</time>
      </trkpt>
      <trkpt lat="48.704" lon="1.44971">
        <ele>106.80000305176</ele>
        <time>2026-06-16T14:34:55.000Z</time>
      </trkpt>
      <trkpt lat="48.70395" lon="1.44945">
        <ele>105.80000305176</ele>
        <time>2026-06-16T14:34:57.000Z</time>
      </trkpt>
      <trkpt lat="48.70388" lon="1.4492">
        <ele>104.80000305176</ele>
        <time>2026-06-16T14:34:59.000Z</time>
      </trkpt>
      <trkpt lat="48.70385" lon="1.44909">
        <ele>104.40000152588</ele>
        <time>2026-06-16T14:35:00.000Z</time>
      </trkpt>
      <trkpt lat="48.70379" lon="1.44886">
        <ele>102</ele>
        <time>2026-06-16T14:35:02.000Z</time>
      </trkpt>
      <trkpt lat="48.70372" lon="1.44865">
        <ele>100.59999847412</ele>
        <time>2026-06-16T14:35:04.000Z</time>
      </trkpt>
      <trkpt lat="48.70368" lon="1.4485">
        <ele>99.400001525879</ele>
        <time>2026-06-16T14:35:06.000Z</time>
      </trkpt>
      <trkpt lat="48.70366" lon="1.44844">
        <ele>99</ele>
        <time>2026-06-16T14:35:07.000Z</time>
      </trkpt>
      <trkpt lat="48.70362" lon="1.44839">
        <ele>97.800003051758</ele>
        <time>2026-06-16T14:35:08.000Z</time>
      </trkpt>
      <trkpt lat="48.70357" lon="1.44838">
        <ele>97</ele>
        <time>2026-06-16T14:35:09.000Z</time>
      </trkpt>
      <trkpt lat="48.70351" lon="1.44838">
        <ele>96.800003051758</ele>
        <time>2026-06-16T14:35:10.000Z</time>
      </trkpt>
      <trkpt lat="48.70337" lon="1.44842">
        <ele>95.400001525879</ele>
        <time>2026-06-16T14:35:12.000Z</time>
      </trkpt>
      <trkpt lat="48.70329" lon="1.44844">
        <ele>94.400001525879</ele>
        <time>2026-06-16T14:35:13.000Z</time>
      </trkpt>
      <trkpt lat="48.70304" lon="1.44849">
        <ele>93</ele>
        <time>2026-06-16T14:35:16.000Z</time>
      </trkpt>
      <trkpt lat="48.70285" lon="1.44851">
        <ele>92</ele>
        <time>2026-06-16T14:35:18.000Z</time>
      </trkpt>
      <trkpt lat="48.70275" lon="1.4485">
        <ele>91.400001525879</ele>
        <time>2026-06-16T14:35:19.000Z</time>
      </trkpt>
      <trkpt lat="48.70265" lon="1.44848">
        <ele>90.800003051758</ele>
        <time>2026-06-16T14:35:20.000Z</time>
      </trkpt>
      <trkpt lat="48.70255" lon="1.44843">
        <ele>90.199996948242</ele>
        <time>2026-06-16T14:35:21.000Z</time>
      </trkpt>
      <trkpt lat="48.70236" lon="1.44829">
        <ele>89.199996948242</ele>
        <time>2026-06-16T14:35:23.000Z</time>
      </trkpt>
      <trkpt lat="48.70216" lon="1.44813">
        <ele>88.199996948242</ele>
        <time>2026-06-16T14:35:25.000Z</time>
      </trkpt>
      <trkpt lat="48.70188" lon="1.44794">
        <ele>86.599998474121</ele>
        <time>2026-06-16T14:35:28.000Z</time>
      </trkpt>
      <trkpt lat="48.70172" lon="1.44783">
        <ele>85.599998474121</ele>
        <time>2026-06-16T14:35:30.000Z</time>
      </trkpt>
      <trkpt lat="48.70158" lon="1.44778">
        <ele>84.400001525879</ele>
        <time>2026-06-16T14:35:32.000Z</time>
      </trkpt>
      <trkpt lat="48.70153" lon="1.44777">
        <ele>84.199996948242</ele>
        <time>2026-06-16T14:35:33.000Z</time>
      </trkpt>
      <trkpt lat="48.70148" lon="1.44776">
        <ele>83.199996948242</ele>
        <time>2026-06-16T14:35:34.000Z</time>
      </trkpt>
      <trkpt lat="48.70141" lon="1.44769">
        <ele>82.199996948242</ele>
        <time>2026-06-16T14:35:36.000Z</time>
      </trkpt>
      <trkpt lat="48.7014" lon="1.44763">
        <ele>81.400001525879</ele>
        <time>2026-06-16T14:35:37.000Z</time>
      </trkpt>
      <trkpt lat="48.7014" lon="1.44758">
        <ele>81</ele>
        <time>2026-06-16T14:35:38.000Z</time>
      </trkpt>
      <trkpt lat="48.70144" lon="1.44755">
        <ele>80.400001525879</ele>
        <time>2026-06-16T14:35:39.000Z</time>
      </trkpt>
      <trkpt lat="48.70149" lon="1.44752">
        <ele>80.199996948242</ele>
        <time>2026-06-16T14:35:40.000Z</time>
      </trkpt>
      <trkpt lat="48.70169" lon="1.44743">
        <ele>79.400001525879</ele>
        <time>2026-06-16T14:35:44.000Z</time>
      </trkpt>
      <trkpt lat="48.70177" lon="1.4474">
        <ele>79.400001525879</ele>
        <time>2026-06-16T14:35:45.000Z</time>
      </trkpt>
      <trkpt lat="48.70198" lon="1.44727">
        <ele>79.199996948242</ele>
        <time>2026-06-16T14:35:49.000Z</time>
      </trkpt>
      <trkpt lat="48.70203" lon="1.44724">
        <ele>79</ele>
        <time>2026-06-16T14:35:50.000Z</time>
      </trkpt>
      <trkpt lat="48.7023" lon="1.44707">
        <ele>79</ele>
        <time>2026-06-16T14:35:56.000Z</time>
      </trkpt>
      <trkpt lat="48.70239" lon="1.44702">
        <ele>79</ele>
        <time>2026-06-16T14:35:58.000Z</time>
      </trkpt>
      <trkpt lat="48.7025" lon="1.44699">
        <ele>79.199996948242</ele>
        <time>2026-06-16T14:36:01.000Z</time>
      </trkpt>
      <trkpt lat="48.70258" lon="1.44695">
        <ele>79.400001525879</ele>
        <time>2026-06-16T14:36:03.000Z</time>
      </trkpt>
      <trkpt lat="48.70267" lon="1.44687">
        <ele>79.400001525879</ele>
        <time>2026-06-16T14:36:05.000Z</time>
      </trkpt>
      <trkpt lat="48.70294" lon="1.44666">
        <ele>78.800003051758</ele>
        <time>2026-06-16T14:36:10.000Z</time>
      </trkpt>
      <trkpt lat="48.70299" lon="1.4466">
        <ele>78.800003051758</ele>
        <time>2026-06-16T14:36:11.000Z</time>
      </trkpt>
      <trkpt lat="48.70303" lon="1.44644">
        <ele>78.400001525879</ele>
        <time>2026-06-16T14:36:13.000Z</time>
      </trkpt>
      <trkpt lat="48.703" lon="1.44613">
        <ele>77.599998474121</ele>
        <time>2026-06-16T14:36:16.000Z</time>
      </trkpt>
      <trkpt lat="48.703" lon="1.44603">
        <ele>77.199996948242</ele>
        <time>2026-06-16T14:36:17.000Z</time>
      </trkpt>
      <trkpt lat="48.70298" lon="1.44583">
        <ele>76.599998474121</ele>
        <time>2026-06-16T14:36:19.000Z</time>
      </trkpt>
      <trkpt lat="48.70295" lon="1.44553">
        <ele>75.599998474121</ele>
        <time>2026-06-16T14:36:22.000Z</time>
      </trkpt>
      <trkpt lat="48.70293" lon="1.44531">
        <ele>75</ele>
        <time>2026-06-16T14:36:24.000Z</time>
      </trkpt>
      <trkpt lat="48.70291" lon="1.4451">
        <ele>74.400001525879</ele>
        <time>2026-06-16T14:36:26.000Z</time>
      </trkpt>
      <trkpt lat="48.7028" lon="1.44459">
        <ele>73.199996948242</ele>
        <time>2026-06-16T14:36:31.000Z</time>
      </trkpt>
      <trkpt lat="48.70265" lon="1.44414">
        <ele>72</ele>
        <time>2026-06-16T14:36:36.000Z</time>
      </trkpt>
      <trkpt lat="48.70257" lon="1.44388">
        <ele>71.400001525879</ele>
        <time>2026-06-16T14:36:39.000Z</time>
      </trkpt>
      <trkpt lat="48.70249" lon="1.44364">
        <ele>71</ele>
        <time>2026-06-16T14:36:42.000Z</time>
      </trkpt>
      <trkpt lat="48.70248" lon="1.44362">
        <ele>71</ele>
        <time>2026-06-16T14:36:43.000Z</time>
      </trkpt>
      <trkpt lat="48.70247" lon="1.44354">
        <ele>71</ele>
        <time>2026-06-16T14:36:44.000Z</time>
      </trkpt>
      <trkpt lat="48.70245" lon="1.44344">
        <ele>70.800003051758</ele>
        <time>2026-06-16T14:36:45.000Z</time>
      </trkpt>
      <trkpt lat="48.70247" lon="1.44329">
        <ele>70.800003051758</ele>
        <time>2026-06-16T14:36:47.000Z</time>
      </trkpt>
      <trkpt lat="48.7025" lon="1.44322">
        <ele>70.800003051758</ele>
        <time>2026-06-16T14:36:48.000Z</time>
      </trkpt>
      <trkpt lat="48.70254" lon="1.44317">
        <ele>70.599998474121</ele>
        <time>2026-06-16T14:36:49.000Z</time>
      </trkpt>
      <trkpt lat="48.70273" lon="1.44297">
        <ele>70.599998474121</ele>
        <time>2026-06-16T14:36:53.000Z</time>
      </trkpt>
      <trkpt lat="48.70308" lon="1.44267">
        <ele>70.599998474121</ele>
        <time>2026-06-16T14:37:00.000Z</time>
      </trkpt>
      <trkpt lat="48.70349" lon="1.44244">
        <ele>70.599998474121</ele>
        <time>2026-06-16T14:37:08.000Z</time>
      </trkpt>
      <trkpt lat="48.70378" lon="1.44231">
        <ele>70.800003051758</ele>
        <time>2026-06-16T14:37:14.000Z</time>
      </trkpt>
      <trkpt lat="48.70389" lon="1.44226">
        <ele>70.800003051758</ele>
        <time>2026-06-16T14:37:16.000Z</time>
      </trkpt>
      <trkpt lat="48.70441" lon="1.44204">
        <ele>70.599998474121</ele>
        <time>2026-06-16T14:37:26.000Z</time>
      </trkpt>
      <trkpt lat="48.70484" lon="1.44181">
        <ele>70.400001525879</ele>
        <time>2026-06-16T14:37:35.000Z</time>
      </trkpt>
      <trkpt lat="48.70501" lon="1.44171">
        <ele>70.400001525879</ele>
        <time>2026-06-16T14:37:39.000Z</time>
      </trkpt>
      <trkpt lat="48.70504" lon="1.44168">
        <ele>70.400001525879</ele>
        <time>2026-06-16T14:37:40.000Z</time>
      </trkpt>
      <trkpt lat="48.70511" lon="1.44159">
        <ele>70.199996948242</ele>
        <time>2026-06-16T14:37:42.000Z</time>
      </trkpt>
      <trkpt lat="48.70533" lon="1.44117">
        <ele>70.199996948242</ele>
        <time>2026-06-16T14:37:50.000Z</time>
      </trkpt>
      <trkpt lat="48.70547" lon="1.44081">
        <ele>70.199996948242</ele>
        <time>2026-06-16T14:37:56.000Z</time>
      </trkpt>
      <trkpt lat="48.70552" lon="1.44061">
        <ele>70</ele>
        <time>2026-06-16T14:37:59.000Z</time>
      </trkpt>
      <trkpt lat="48.70556" lon="1.44042">
        <ele>70.199996948242</ele>
        <time>2026-06-16T14:38:02.000Z</time>
      </trkpt>
      <trkpt lat="48.70558" lon="1.44036">
        <ele>70.199996948242</ele>
        <time>2026-06-16T14:38:03.000Z</time>
      </trkpt>
      <trkpt lat="48.70563" lon="1.43999">
        <ele>70.199996948242</ele>
        <time>2026-06-16T14:38:08.000Z</time>
      </trkpt>
      <trkpt lat="48.70575" lon="1.43931">
        <ele>70.400001525879</ele>
        <time>2026-06-16T14:38:17.000Z</time>
      </trkpt>
      <trkpt lat="48.70591" lon="1.4386">
        <ele>70.199996948242</ele>
        <time>2026-06-16T14:38:26.000Z</time>
      </trkpt>
      <trkpt lat="48.70611" lon="1.43792">
        <ele>70</ele>
        <time>2026-06-16T14:38:35.000Z</time>
      </trkpt>
      <trkpt lat="48.70632" lon="1.43732">
        <ele>70</ele>
        <time>2026-06-16T14:38:43.000Z</time>
      </trkpt>
      <trkpt lat="48.70641" lon="1.437">
        <ele>70</ele>
        <time>2026-06-16T14:38:47.000Z</time>
      </trkpt>
      <trkpt lat="48.70647" lon="1.43675">
        <ele>70</ele>
        <time>2026-06-16T14:38:50.000Z</time>
      </trkpt>
      <trkpt lat="48.70651" lon="1.43657">
        <ele>70</ele>
        <time>2026-06-16T14:38:52.000Z</time>
      </trkpt>
      <trkpt lat="48.70665" lon="1.43595">
        <ele>69.800003051758</ele>
        <time>2026-06-16T14:38:59.000Z</time>
      </trkpt>
      <trkpt lat="48.7068" lon="1.43539">
        <ele>69.400001525879</ele>
        <time>2026-06-16T14:39:05.000Z</time>
      </trkpt>
      <trkpt lat="48.70701" lon="1.43492">
        <ele>69.199996948242</ele>
        <time>2026-06-16T14:39:11.000Z</time>
      </trkpt>
      <trkpt lat="48.70738" lon="1.43441">
        <ele>69</ele>
        <time>2026-06-16T14:39:19.000Z</time>
      </trkpt>
      <trkpt lat="48.70782" lon="1.43382">
        <ele>69.199996948242</ele>
        <time>2026-06-16T14:39:29.000Z</time>
      </trkpt>
      <trkpt lat="48.70804" lon="1.43344">
        <ele>69.599998474121</ele>
        <time>2026-06-16T14:39:36.000Z</time>
      </trkpt>
      <trkpt lat="48.70817" lon="1.43325">
        <ele>70.199996948242</ele>
        <time>2026-06-16T14:39:41.000Z</time>
      </trkpt>
      <trkpt lat="48.70821" lon="1.43324">
        <ele>70.199996948242</ele>
        <time>2026-06-16T14:39:43.000Z</time>
      </trkpt>
      <trkpt lat="48.70823" lon="1.43325">
        <ele>70.199996948242</ele>
        <time>2026-06-16T14:39:44.000Z</time>
      </trkpt>
      <trkpt lat="48.70824" lon="1.43325">
        <ele>70.199996948242</ele>
        <time>2026-06-16T14:39:45.000Z</time>
      </trkpt>
      <trkpt lat="48.70825" lon="1.43325">
        <ele>70.199996948242</ele>
        <time>2026-06-16T14:39:48.000Z</time>
      </trkpt>
      <trkpt lat="48.70825" lon="1.43327">
        <ele>70.400001525879</ele>
        <time>2026-06-16T14:39:59.000Z</time>
      </trkpt>
      <trkpt lat="48.70825" lon="1.43326">
        <ele>70.199996948242</ele>
        <time>2026-06-16T14:40:50.000Z</time>
      </trkpt>
      <trkpt lat="48.70823" lon="1.43324">
        <ele>70</ele>
        <time>2026-06-16T14:40:52.000Z</time>
      </trkpt>
      <trkpt lat="48.70822" lon="1.43323">
        <ele>70</ele>
        <time>2026-06-16T14:40:53.000Z</time>
      </trkpt>
      <trkpt lat="48.7082" lon="1.43321">
        <ele>70</ele>
        <time>2026-06-16T14:40:54.000Z</time>
      </trkpt>
      <trkpt lat="48.70819" lon="1.43318">
        <ele>70</ele>
        <time>2026-06-16T14:40:56.000Z</time>
      </trkpt>
      <trkpt lat="48.70819" lon="1.43315">
        <ele>70</ele>
        <time>2026-06-16T14:40:57.000Z</time>
      </trkpt>
      <trkpt lat="48.70824" lon="1.43293">
        <ele>69.800003051758</ele>
        <time>2026-06-16T14:41:02.000Z</time>
      </trkpt>
      <trkpt lat="48.70831" lon="1.43258">
        <ele>70.199996948242</ele>
        <time>2026-06-16T14:41:09.000Z</time>
      </trkpt>
      <trkpt lat="48.70834" lon="1.43229">
        <ele>70.400001525879</ele>
        <time>2026-06-16T14:41:16.000Z</time>
      </trkpt>
      <trkpt lat="48.70834" lon="1.43228">
        <ele>70.400001525879</ele>
        <time>2026-06-16T14:41:20.000Z</time>
      </trkpt>
      <trkpt lat="48.70834" lon="1.43228">
        <ele>70.199996948242</ele>
        <time>2026-06-16T14:41:31.000Z</time>
      </trkpt>
      <trkpt lat="48.70835" lon="1.43217">
        <ele>69.599998474121</ele>
        <time>2026-06-16T14:41:44.000Z</time>
      </trkpt>
      <trkpt lat="48.70839" lon="1.43189">
        <ele>69.599998474121</ele>
        <time>2026-06-16T14:41:49.000Z</time>
      </trkpt>
      <trkpt lat="48.70846" lon="1.43147">
        <ele>69.800003051758</ele>
        <time>2026-06-16T14:41:55.000Z</time>
      </trkpt>
      <trkpt lat="48.70859" lon="1.43078">
        <ele>70.400001525879</ele>
        <time>2026-06-16T14:42:04.000Z</time>
      </trkpt>
      <trkpt lat="48.70872" lon="1.43005">
        <ele>70.400001525879</ele>
        <time>2026-06-16T14:42:13.000Z</time>
      </trkpt>
      <trkpt lat="48.70882" lon="1.42936">
        <ele>70.599998474121</ele>
        <time>2026-06-16T14:42:21.000Z</time>
      </trkpt>
      <trkpt lat="48.70888" lon="1.42855">
        <ele>70.599998474121</ele>
        <time>2026-06-16T14:42:30.000Z</time>
      </trkpt>
      <trkpt lat="48.70894" lon="1.42773">
        <ele>70.199996948242</ele>
        <time>2026-06-16T14:42:39.000Z</time>
      </trkpt>
      <trkpt lat="48.70894" lon="1.42764">
        <ele>70.199996948242</ele>
        <time>2026-06-16T14:42:40.000Z</time>
      </trkpt>
      <trkpt lat="48.70902" lon="1.42683">
        <ele>70.199996948242</ele>
        <time>2026-06-16T14:42:50.000Z</time>
      </trkpt>
      <trkpt lat="48.70904" lon="1.42653">
        <ele>70.199996948242</ele>
        <time>2026-06-16T14:42:54.000Z</time>
      </trkpt>
      <trkpt lat="48.70904" lon="1.4263">
        <ele>70</ele>
        <time>2026-06-16T14:42:57.000Z</time>
      </trkpt>
      <trkpt lat="48.70899" lon="1.42579">
        <ele>70</ele>
        <time>2026-06-16T14:43:04.000Z</time>
      </trkpt>
      <trkpt lat="48.70898" lon="1.42571">
        <ele>70</ele>
        <time>2026-06-16T14:43:05.000Z</time>
      </trkpt>
      <trkpt lat="48.70893" lon="1.42558">
        <ele>70</ele>
        <time>2026-06-16T14:43:07.000Z</time>
      </trkpt>
      <trkpt lat="48.70888" lon="1.42548">
        <ele>69.800003051758</ele>
        <time>2026-06-16T14:43:09.000Z</time>
      </trkpt>
      <trkpt lat="48.70885" lon="1.42543">
        <ele>69.800003051758</ele>
        <time>2026-06-16T14:43:10.000Z</time>
      </trkpt>
      <trkpt lat="48.70875" lon="1.42526">
        <ele>69.800003051758</ele>
        <time>2026-06-16T14:43:15.000Z</time>
      </trkpt>
      <trkpt lat="48.70863" lon="1.42505">
        <ele>69.800003051758</ele>
        <time>2026-06-16T14:43:21.000Z</time>
      </trkpt>
      <trkpt lat="48.70856" lon="1.42493">
        <ele>69.800003051758</ele>
        <time>2026-06-16T14:43:26.000Z</time>
      </trkpt>
      <trkpt lat="48.70856" lon="1.42492">
        <ele>69.800003051758</ele>
        <time>2026-06-16T14:43:27.000Z</time>
      </trkpt>
      <trkpt lat="48.70856" lon="1.42492">
        <ele>69.800003051758</ele>
        <time>2026-06-16T14:43:30.000Z</time>
      </trkpt>
    </trkseg>
  </trk>
</gpx>